<?xml version='1.0' encoding='UTF-8'?><gpx version="1.1" creator="JPX - https://github.com/jenetics/jpx" xmlns="http://www.topografix.com/GPX/1/1"><trk><trkseg><trkpt lat="43.5987733" lon="11.3839933"><ele>371.79999999999995</ele><time>2026-04-05T08:38:21.012Z</time></trkpt><trkpt lat="43.598645" lon="11.38406"><ele>370.6</ele><time>2026-04-05T08:38:23.012Z</time></trkpt><trkpt lat="43.598575" lon="11.3841267"><ele>369.4</ele><time>2026-04-05T08:38:24.012Z</time></trkpt><trkpt lat="43.59849" lon="11.384195"><ele>368.20000000000005</ele><time>2026-04-05T08:38:25.012Z</time></trkpt><trkpt lat="43.5984017" lon="11.384245"><ele>367.0</ele><time>2026-04-05T08:38:26.012Z</time></trkpt><trkpt lat="43.5982967" lon="11.3842883"><ele>367.0</ele><time>2026-04-05T08:38:27.012Z</time></trkpt><trkpt lat="43.598185" lon="11.38434"><ele>367.0</ele><time>2026-04-05T08:38:28.012Z</time></trkpt><trkpt lat="43.5980883" lon="11.3844183"><ele>367.0</ele><time>2026-04-05T08:38:29.012Z</time></trkpt><trkpt lat="43.59801" lon="11.3845317"><ele>367.0</ele><time>2026-04-05T08:38:30.012Z</time></trkpt><trkpt lat="43.5979317" lon="11.3846467"><ele>367.6</ele><time>2026-04-05T08:38:31.012Z</time></trkpt><trkpt lat="43.597855" lon="11.3847333"><ele>368.20000000000005</ele><time>2026-04-05T08:38:32.012Z</time></trkpt><trkpt lat="43.5977717" lon="11.3848133"><ele>368.8</ele><time>2026-04-05T08:38:33.012Z</time></trkpt><trkpt lat="43.597685" lon="11.38486"><ele>369.4</ele><time>2026-04-05T08:38:34.012Z</time></trkpt><trkpt lat="43.5976" lon="11.3848883"><ele>370.0</ele><time>2026-04-05T08:38:35.012Z</time></trkpt><trkpt lat="43.5975167" lon="11.384905"><ele>368.57142857142856</ele><time>2026-04-05T08:38:36.012Z</time></trkpt><trkpt lat="43.59744" lon="11.384905"><ele>367.1428571428571</ele><time>2026-04-05T08:38:37.012Z</time></trkpt><trkpt lat="43.5973683" lon="11.3849017"><ele>365.71428571428567</ele><time>2026-04-05T08:38:38.012Z</time></trkpt><trkpt lat="43.5973" lon="11.3848983"><ele>364.2857142857143</ele><time>2026-04-05T08:38:39.012Z</time></trkpt><trkpt lat="43.59723" lon="11.3849017"><ele>362.8571428571429</ele><time>2026-04-05T08:38:40.012Z</time></trkpt><trkpt lat="43.5971583" lon="11.3849033"><ele>361.4285714285714</ele><time>2026-04-05T08:38:41.012Z</time></trkpt><trkpt lat="43.59709" lon="11.384905"><ele>360.0</ele><time>2026-04-05T08:38:42.012Z</time></trkpt><trkpt lat="43.5970217" lon="11.3849067"><ele>358.1666666666667</ele><time>2026-04-05T08:38:43.012Z</time></trkpt><trkpt lat="43.5969567" lon="11.38491"><ele>356.3333333333333</ele><time>2026-04-05T08:38:44.012Z</time></trkpt><trkpt lat="43.596885" lon="11.38493"><ele>354.5</ele><time>2026-04-05T08:38:45.012Z</time></trkpt><trkpt lat="43.5968033" lon="11.3849617"><ele>352.66666666666663</ele><time>2026-04-05T08:38:46.012Z</time></trkpt><trkpt lat="43.5967233" lon="11.38503"><ele>350.8333333333333</ele><time>2026-04-05T08:38:47.012Z</time></trkpt><trkpt lat="43.5966567" lon="11.3851083"><ele>349.0</ele><time>2026-04-05T08:38:48.012Z</time></trkpt><trkpt lat="43.596585" lon="11.385205"><ele>349.0</ele><time>2026-04-05T08:38:49.012Z</time></trkpt><trkpt lat="43.5965083" lon="11.3853217"><ele>349.0</ele><time>2026-04-05T08:38:50.012Z</time></trkpt><trkpt lat="43.5964267" lon="11.3854433"><ele>349.0</ele><time>2026-04-05T08:38:51.012Z</time></trkpt><trkpt lat="43.5963417" lon="11.38556"><ele>349.0</ele><time>2026-04-05T08:38:52.012Z</time></trkpt><trkpt lat="43.5962533" lon="11.38568"><ele>350.25</ele><time>2026-04-05T08:38:53.012Z</time></trkpt><trkpt lat="43.596175" lon="11.38581"><ele>351.5</ele><time>2026-04-05T08:38:54.012Z</time></trkpt><trkpt lat="43.5961067" lon="11.3859517"><ele>352.75</ele><time>2026-04-05T08:38:55.012Z</time></trkpt><trkpt lat="43.5960517" lon="11.3861"><ele>354.0</ele><time>2026-04-05T08:38:56.012Z</time></trkpt><trkpt lat="43.596005" lon="11.38625"><ele>350.75</ele><time>2026-04-05T08:38:57.012Z</time></trkpt><trkpt lat="43.59596" lon="11.38641"><ele>347.5</ele><time>2026-04-05T08:38:58.012Z</time></trkpt><trkpt lat="43.5959167" lon="11.38658"><ele>344.25</ele><time>2026-04-05T08:38:59.012Z</time></trkpt><trkpt lat="43.5958683" lon="11.38675"><ele>341.0</ele><time>2026-04-05T08:39:00.012Z</time></trkpt><trkpt lat="43.5958233" lon="11.3869217"><ele>341.0</ele><time>2026-04-05T08:39:01.012Z</time></trkpt><trkpt lat="43.59578" lon="11.3870867"><ele>341.0</ele><time>2026-04-05T08:39:02.012Z</time></trkpt><trkpt lat="43.5957333" lon="11.3872517"><ele>341.0</ele><time>2026-04-05T08:39:03.012Z</time></trkpt><trkpt lat="43.5956867" lon="11.38741"><ele>341.0</ele><time>2026-04-05T08:39:04.012Z</time></trkpt><trkpt lat="43.5956433" lon="11.38756"><ele>341.0</ele><time>2026-04-05T08:39:05.012Z</time></trkpt><trkpt lat="43.5956017" lon="11.3877067"><ele>341.0</ele><time>2026-04-05T08:39:06.012Z</time></trkpt><trkpt lat="43.5955683" lon="11.3878317"><ele>341.0</ele><time>2026-04-05T08:39:07.012Z</time></trkpt><trkpt lat="43.5955367" lon="11.387955"><ele>341.0</ele><time>2026-04-05T08:39:08.012Z</time></trkpt><trkpt lat="43.5955183" lon="11.3880767"><ele>341.0</ele><time>2026-04-05T08:39:09.012Z</time></trkpt><trkpt lat="43.5955033" lon="11.3881933"><ele>340.83333333333337</ele><time>2026-04-05T08:39:10.012Z</time></trkpt><trkpt lat="43.5955033" lon="11.3883083"><ele>340.6666666666667</ele><time>2026-04-05T08:39:11.012Z</time></trkpt><trkpt lat="43.595505" lon="11.388415"><ele>340.5</ele><time>2026-04-05T08:39:12.012Z</time></trkpt><trkpt lat="43.59546" lon="11.3885467"><ele>340.3333333333333</ele><time>2026-04-05T08:39:14.012Z</time></trkpt><trkpt lat="43.5953983" lon="11.388575"><ele>340.16666666666663</ele><time>2026-04-05T08:39:15.012Z</time></trkpt><trkpt lat="43.5953133" lon="11.3885783"><ele>340.0</ele><time>2026-04-05T08:39:16.012Z</time></trkpt><trkpt lat="43.5952083" lon="11.38857"><ele>338.75</ele><time>2026-04-05T08:39:17.012Z</time></trkpt><trkpt lat="43.595095" lon="11.3885417"><ele>337.5</ele><time>2026-04-05T08:39:18.012Z</time></trkpt><trkpt lat="43.5949833" lon="11.3884917"><ele>336.25</ele><time>2026-04-05T08:39:19.012Z</time></trkpt><trkpt lat="43.5948633" lon="11.3884033"><ele>335.0</ele><time>2026-04-05T08:39:20.012Z</time></trkpt><trkpt lat="43.5947417" lon="11.3882933"><ele>335.0</ele><time>2026-04-05T08:39:21.012Z</time></trkpt><trkpt lat="43.5946233" lon="11.3881567"><ele>335.0</ele><time>2026-04-05T08:39:22.012Z</time></trkpt><trkpt lat="43.5945033" lon="11.388015"><ele>335.0</ele><time>2026-04-05T08:39:23.012Z</time></trkpt><trkpt lat="43.59441" lon="11.3878767"><ele>335.0</ele><time>2026-04-05T08:39:24.012Z</time></trkpt><trkpt lat="43.5943433" lon="11.3877267"><ele>338.0</ele><time>2026-04-05T08:39:25.012Z</time></trkpt><trkpt lat="43.5943083" lon="11.3875583"><ele>341.0</ele><time>2026-04-05T08:39:26.012Z</time></trkpt><trkpt lat="43.5943" lon="11.3873883"><ele>344.0</ele><time>2026-04-05T08:39:27.012Z</time></trkpt><trkpt lat="43.594305" lon="11.3872217"><ele>347.0</ele><time>2026-04-05T08:39:28.012Z</time></trkpt><trkpt lat="43.59429" lon="11.3870517"><ele>347.0</ele><time>2026-04-05T08:39:29.012Z</time></trkpt><trkpt lat="43.59425" lon="11.3868917"><ele>347.0</ele><time>2026-04-05T08:39:30.012Z</time></trkpt><trkpt lat="43.5941883" lon="11.386755"><ele>347.0</ele><time>2026-04-05T08:39:31.012Z</time></trkpt><trkpt lat="43.5940933" lon="11.3866517"><ele>347.0</ele><time>2026-04-05T08:39:32.012Z</time></trkpt><trkpt lat="43.59398" lon="11.3866"><ele>347.0</ele><time>2026-04-05T08:39:33.012Z</time></trkpt><trkpt lat="43.5938433" lon="11.38657"><ele>347.0</ele><time>2026-04-05T08:39:34.012Z</time></trkpt><trkpt lat="43.5936933" lon="11.38658"><ele>347.0</ele><time>2026-04-05T08:39:35.012Z</time></trkpt><trkpt lat="43.5935417" lon="11.386595"><ele>347.0</ele><time>2026-04-05T08:39:36.012Z</time></trkpt><trkpt lat="43.5933917" lon="11.3866083"><ele>349.0</ele><time>2026-04-05T08:39:37.012Z</time></trkpt><trkpt lat="43.5932467" lon="11.38662"><ele>351.0</ele><time>2026-04-05T08:39:38.012Z</time></trkpt><trkpt lat="43.5931033" lon="11.38663"><ele>353.0</ele><time>2026-04-05T08:39:39.012Z</time></trkpt><trkpt lat="43.5929667" lon="11.3866433"><ele>355.0</ele><time>2026-04-05T08:39:40.012Z</time></trkpt><trkpt lat="43.5928333" lon="11.3866633"><ele>357.25</ele><time>2026-04-05T08:39:41.012Z</time></trkpt><trkpt lat="43.5927167" lon="11.3867033"><ele>359.5</ele><time>2026-04-05T08:39:42.012Z</time></trkpt><trkpt lat="43.5926083" lon="11.3867667"><ele>361.75</ele><time>2026-04-05T08:39:43.012Z</time></trkpt><trkpt lat="43.5925233" lon="11.3868633"><ele>364.0</ele><time>2026-04-05T08:39:44.012Z</time></trkpt><trkpt lat="43.5924667" lon="11.38698"><ele>364.0</ele><time>2026-04-05T08:39:45.012Z</time></trkpt><trkpt lat="43.59243" lon="11.3871283"><ele>364.0</ele><time>2026-04-05T08:39:46.012Z</time></trkpt><trkpt lat="43.5924333" lon="11.3872867"><ele>364.0</ele><time>2026-04-05T08:39:47.012Z</time></trkpt><trkpt lat="43.592445" lon="11.38746"><ele>364.0</ele><time>2026-04-05T08:39:48.012Z</time></trkpt><trkpt lat="43.59246" lon="11.387645"><ele>365.25</ele><time>2026-04-05T08:39:49.012Z</time></trkpt><trkpt lat="43.592465" lon="11.3878383"><ele>366.5</ele><time>2026-04-05T08:39:50.012Z</time></trkpt><trkpt lat="43.59245" lon="11.38803"><ele>367.75</ele><time>2026-04-05T08:39:51.012Z</time></trkpt><trkpt lat="43.59243" lon="11.38822"><ele>369.0</ele><time>2026-04-05T08:39:52.012Z</time></trkpt><trkpt lat="43.59241" lon="11.3884017"><ele>369.25</ele><time>2026-04-05T08:39:53.012Z</time></trkpt><trkpt lat="43.5923983" lon="11.3885833"><ele>369.5</ele><time>2026-04-05T08:39:54.012Z</time></trkpt><trkpt lat="43.592385" lon="11.3887533"><ele>369.75</ele><time>2026-04-05T08:39:55.012Z</time></trkpt><trkpt lat="43.5923717" lon="11.3889183"><ele>370.0</ele><time>2026-04-05T08:39:56.012Z</time></trkpt><trkpt lat="43.592365" lon="11.3890867"><ele>371.16666666666663</ele><time>2026-04-05T08:39:57.012Z</time></trkpt><trkpt lat="43.5923533" lon="11.3892433"><ele>372.3333333333333</ele><time>2026-04-05T08:39:58.012Z</time></trkpt><trkpt lat="43.5923333" lon="11.3893867"><ele>373.5</ele><time>2026-04-05T08:39:59.012Z</time></trkpt><trkpt lat="43.592305" lon="11.389495"><ele>374.6666666666667</ele><time>2026-04-05T08:40:00.012Z</time></trkpt><trkpt lat="43.592255" lon="11.3895767"><ele>375.83333333333337</ele><time>2026-04-05T08:40:01.012Z</time></trkpt><trkpt lat="43.5921933" lon="11.389615"><ele>377.0</ele><time>2026-04-05T08:40:02.012Z</time></trkpt><trkpt lat="43.5920833" lon="11.38955"><ele>377.0</ele><time>2026-04-05T08:40:04.012Z</time></trkpt><trkpt lat="43.592045" lon="11.3894517"><ele>377.0</ele><time>2026-04-05T08:40:05.012Z</time></trkpt><trkpt lat="43.5920133" lon="11.3893033"><ele>377.0</ele><time>2026-04-05T08:40:06.012Z</time></trkpt><trkpt lat="43.592" lon="11.3891117"><ele>377.0</ele><time>2026-04-05T08:40:07.012Z</time></trkpt><trkpt lat="43.5919667" lon="11.388945"><ele>378.40000000000003</ele><time>2026-04-05T08:40:08.012Z</time></trkpt><trkpt lat="43.5919167" lon="11.38882"><ele>379.8</ele><time>2026-04-05T08:40:09.012Z</time></trkpt><trkpt lat="43.5918467" lon="11.388745"><ele>381.2</ele><time>2026-04-05T08:40:10.012Z</time></trkpt><trkpt lat="43.5917383" lon="11.3887133"><ele>382.6</ele><time>2026-04-05T08:40:11.012Z</time></trkpt><trkpt lat="43.591615" lon="11.388715"><ele>384.0</ele><time>2026-04-05T08:40:12.012Z</time></trkpt><trkpt lat="43.5914867" lon="11.38873"><ele>384.0</ele><time>2026-04-05T08:40:13.012Z</time></trkpt><trkpt lat="43.5913583" lon="11.3887483"><ele>384.0</ele><time>2026-04-05T08:40:14.012Z</time></trkpt><trkpt lat="43.5912183" lon="11.3887617"><ele>384.0</ele><time>2026-04-05T08:40:15.012Z</time></trkpt><trkpt lat="43.591075" lon="11.3887617"><ele>384.0</ele><time>2026-04-05T08:40:16.012Z</time></trkpt><trkpt lat="43.5909317" lon="11.3887717"><ele>388.0</ele><time>2026-04-05T08:40:17.012Z</time></trkpt><trkpt lat="43.5907833" lon="11.388785"><ele>392.0</ele><time>2026-04-05T08:40:18.012Z</time></trkpt><trkpt lat="43.5906433" lon="11.3888033"><ele>396.0</ele><time>2026-04-05T08:40:19.012Z</time></trkpt><trkpt lat="43.5905167" lon="11.3888217"><ele>400.0</ele><time>2026-04-05T08:40:20.012Z</time></trkpt><trkpt lat="43.5903983" lon="11.3888533"><ele>405.0</ele><time>2026-04-05T08:40:21.012Z</time></trkpt><trkpt lat="43.59027" lon="11.3888933"><ele>410.0</ele><time>2026-04-05T08:40:22.012Z</time></trkpt><trkpt lat="43.590145" lon="11.3889517"><ele>415.0</ele><time>2026-04-05T08:40:23.012Z</time></trkpt><trkpt lat="43.5900183" lon="11.38901"><ele>420.0</ele><time>2026-04-05T08:40:24.012Z</time></trkpt><trkpt lat="43.5898833" lon="11.3890583"><ele>420.0</ele><time>2026-04-05T08:40:25.012Z</time></trkpt><trkpt lat="43.589755" lon="11.3890767"><ele>420.0</ele><time>2026-04-05T08:40:26.012Z</time></trkpt><trkpt lat="43.58961" lon="11.38909"><ele>420.0</ele><time>2026-04-05T08:40:27.012Z</time></trkpt><trkpt lat="43.5894583" lon="11.3890883"><ele>420.0</ele><time>2026-04-05T08:40:28.012Z</time></trkpt><trkpt lat="43.58931" lon="11.3890633"><ele>418.75</ele><time>2026-04-05T08:40:29.012Z</time></trkpt><trkpt lat="43.5891717" lon="11.38902"><ele>417.5</ele><time>2026-04-05T08:40:30.012Z</time></trkpt><trkpt lat="43.5890383" lon="11.3889517"><ele>416.25</ele><time>2026-04-05T08:40:31.012Z</time></trkpt><trkpt lat="43.588915" lon="11.38886"><ele>415.0</ele><time>2026-04-05T08:40:32.012Z</time></trkpt><trkpt lat="43.588785" lon="11.388765"><ele>419.0</ele><time>2026-04-05T08:40:33.012Z</time></trkpt><trkpt lat="43.58865" lon="11.3886617"><ele>423.0</ele><time>2026-04-05T08:40:34.012Z</time></trkpt><trkpt lat="43.588515" lon="11.3885733"><ele>427.0</ele><time>2026-04-05T08:40:35.012Z</time></trkpt><trkpt lat="43.5883733" lon="11.3884917"><ele>427.0</ele><time>2026-04-05T08:40:36.012Z</time></trkpt><trkpt lat="43.5882333" lon="11.3884083"><ele>427.0</ele><time>2026-04-05T08:40:37.012Z</time></trkpt><trkpt lat="43.5880867" lon="11.388345"><ele>427.0</ele><time>2026-04-05T08:40:38.012Z</time></trkpt><trkpt lat="43.5879383" lon="11.3882867"><ele>430.0</ele><time>2026-04-05T08:40:39.012Z</time></trkpt><trkpt lat="43.5877983" lon="11.3882483"><ele>433.0</ele><time>2026-04-05T08:40:40.012Z</time></trkpt><trkpt lat="43.587645" lon="11.3882067"><ele>436.0</ele><time>2026-04-05T08:40:41.012Z</time></trkpt><trkpt lat="43.5874917" lon="11.3881717"><ele>436.0</ele><time>2026-04-05T08:40:42.011Z</time></trkpt><trkpt lat="43.5873383" lon="11.3881383"><ele>436.0</ele><time>2026-04-05T08:40:43.011Z</time></trkpt><trkpt lat="43.5871817" lon="11.3881017"><ele>436.0</ele><time>2026-04-05T08:40:44.011Z</time></trkpt><trkpt lat="43.587025" lon="11.388065"><ele>435.0</ele><time>2026-04-05T08:40:45.011Z</time></trkpt><trkpt lat="43.5868667" lon="11.3880267"><ele>434.0</ele><time>2026-04-05T08:40:46.011Z</time></trkpt><trkpt lat="43.5867083" lon="11.38799"><ele>433.0</ele><time>2026-04-05T08:40:47.011Z</time></trkpt><trkpt lat="43.5865533" lon="11.3879617"><ele>433.0</ele><time>2026-04-05T08:40:48.011Z</time></trkpt><trkpt lat="43.5863983" lon="11.3879317"><ele>433.0</ele><time>2026-04-05T08:40:49.011Z</time></trkpt><trkpt lat="43.5862483" lon="11.387915"><ele>433.0</ele><time>2026-04-05T08:40:50.011Z</time></trkpt><trkpt lat="43.5860983" lon="11.3879333"><ele>434.6666666666667</ele><time>2026-04-05T08:40:51.011Z</time></trkpt><trkpt lat="43.585955" lon="11.387985"><ele>436.33333333333337</ele><time>2026-04-05T08:40:52.011Z</time></trkpt><trkpt lat="43.5858117" lon="11.388075"><ele>438.0</ele><time>2026-04-05T08:40:53.011Z</time></trkpt><trkpt lat="43.58568" lon="11.3881867"><ele>439.0</ele><time>2026-04-05T08:40:54.011Z</time></trkpt><trkpt lat="43.585555" lon="11.3883217"><ele>440.0</ele><time>2026-04-05T08:40:55.011Z</time></trkpt><trkpt lat="43.585435" lon="11.388485"><ele>441.0</ele><time>2026-04-05T08:40:56.011Z</time></trkpt><trkpt lat="43.585315" lon="11.3886317"><ele>441.0</ele><time>2026-04-05T08:40:57.011Z</time></trkpt><trkpt lat="43.5851983" lon="11.3887683"><ele>441.0</ele><time>2026-04-05T08:40:58.011Z</time></trkpt><trkpt lat="43.585075" lon="11.388905"><ele>441.0</ele><time>2026-04-05T08:40:59.011Z</time></trkpt><trkpt lat="43.5849567" lon="11.3890383"><ele>442.25</ele><time>2026-04-05T08:41:00.011Z</time></trkpt><trkpt lat="43.5848483" lon="11.3891533"><ele>443.5</ele><time>2026-04-05T08:41:01.011Z</time></trkpt><trkpt lat="43.5847367" lon="11.3892617"><ele>444.75</ele><time>2026-04-05T08:41:02.011Z</time></trkpt><trkpt lat="43.5846133" lon="11.3893383"><ele>446.0</ele><time>2026-04-05T08:41:03.011Z</time></trkpt><trkpt lat="43.584475" lon="11.3893733"><ele>446.0</ele><time>2026-04-05T08:41:04.011Z</time></trkpt><trkpt lat="43.5843283" lon="11.3893867"><ele>446.0</ele><time>2026-04-05T08:41:05.011Z</time></trkpt><trkpt lat="43.5841817" lon="11.3893767"><ele>446.0</ele><time>2026-04-05T08:41:06.011Z</time></trkpt><trkpt lat="43.5840333" lon="11.389345"><ele>446.0</ele><time>2026-04-05T08:41:07.011Z</time></trkpt><trkpt lat="43.5838933" lon="11.3892917"><ele>446.0</ele><time>2026-04-05T08:41:08.011Z</time></trkpt><trkpt lat="43.5837483" lon="11.389235"><ele>446.0</ele><time>2026-04-05T08:41:09.011Z</time></trkpt><trkpt lat="43.5836033" lon="11.38917"><ele>446.0</ele><time>2026-04-05T08:41:10.011Z</time></trkpt><trkpt lat="43.5834633" lon="11.3891083"><ele>447.0</ele><time>2026-04-05T08:41:11.011Z</time></trkpt><trkpt lat="43.5833267" lon="11.389035"><ele>448.0</ele><time>2026-04-05T08:41:12.011Z</time></trkpt><trkpt lat="43.583195" lon="11.3889583"><ele>449.0</ele><time>2026-04-05T08:41:13.011Z</time></trkpt><trkpt lat="43.5830733" lon="11.38887"><ele>450.0</ele><time>2026-04-05T08:41:14.012Z</time></trkpt><trkpt lat="43.5829467" lon="11.38878"><ele>452.5</ele><time>2026-04-05T08:41:15.011Z</time></trkpt><trkpt lat="43.5828183" lon="11.3886883"><ele>455.0</ele><time>2026-04-05T08:41:16.011Z</time></trkpt><trkpt lat="43.5826883" lon="11.3885917"><ele>457.5</ele><time>2026-04-05T08:41:17.011Z</time></trkpt><trkpt lat="43.5825567" lon="11.38849"><ele>460.0</ele><time>2026-04-05T08:41:18.011Z</time></trkpt><trkpt lat="43.582425" lon="11.38839"><ele>460.0</ele><time>2026-04-05T08:41:19.011Z</time></trkpt><trkpt lat="43.582295" lon="11.38829"><ele>460.0</ele><time>2026-04-05T08:41:20.011Z</time></trkpt><trkpt lat="43.58216" lon="11.388185"><ele>460.0</ele><time>2026-04-05T08:41:21.011Z</time></trkpt><trkpt lat="43.582025" lon="11.3880867"><ele>465.0</ele><time>2026-04-05T08:41:22.011Z</time></trkpt><trkpt lat="43.58189" lon="11.38799"><ele>470.0</ele><time>2026-04-05T08:41:23.011Z</time></trkpt><trkpt lat="43.5817617" lon="11.3878967"><ele>475.0</ele><time>2026-04-05T08:41:24.011Z</time></trkpt><trkpt lat="43.5816217" lon="11.3878083"><ele>475.0</ele><time>2026-04-05T08:41:25.011Z</time></trkpt><trkpt lat="43.5814883" lon="11.387735"><ele>475.0</ele><time>2026-04-05T08:41:26.011Z</time></trkpt><trkpt lat="43.581345" lon="11.387675"><ele>475.0</ele><time>2026-04-05T08:41:27.011Z</time></trkpt><trkpt lat="43.5811983" lon="11.3876417"><ele>475.0</ele><time>2026-04-05T08:41:28.011Z</time></trkpt><trkpt lat="43.58105" lon="11.3876217"><ele>477.6666666666667</ele><time>2026-04-05T08:41:29.011Z</time></trkpt><trkpt lat="43.5808967" lon="11.3876167"><ele>480.33333333333337</ele><time>2026-04-05T08:41:30.011Z</time></trkpt><trkpt lat="43.58074" lon="11.38762"><ele>483.0</ele><time>2026-04-05T08:41:31.011Z</time></trkpt><trkpt lat="43.580585" lon="11.38763"><ele>483.0</ele><time>2026-04-05T08:41:32.011Z</time></trkpt><trkpt lat="43.580435" lon="11.3876533"><ele>483.0</ele><time>2026-04-05T08:41:33.011Z</time></trkpt><trkpt lat="43.58028" lon="11.387675"><ele>483.0</ele><time>2026-04-05T08:41:34.011Z</time></trkpt><trkpt lat="43.5801317" lon="11.3877017"><ele>483.75</ele><time>2026-04-05T08:41:35.011Z</time></trkpt><trkpt lat="43.5799817" lon="11.3877333"><ele>484.5</ele><time>2026-04-05T08:41:36.011Z</time></trkpt><trkpt lat="43.5798383" lon="11.3877733"><ele>485.25</ele><time>2026-04-05T08:41:37.011Z</time></trkpt><trkpt lat="43.5796933" lon="11.3878183"><ele>486.0</ele><time>2026-04-05T08:41:38.011Z</time></trkpt><trkpt lat="43.57954" lon="11.3878533"><ele>487.0</ele><time>2026-04-05T08:41:39.011Z</time></trkpt><trkpt lat="43.5794033" lon="11.3878783"><ele>488.0</ele><time>2026-04-05T08:41:40.011Z</time></trkpt><trkpt lat="43.5792617" lon="11.3878733"><ele>489.0</ele><time>2026-04-05T08:41:41.011Z</time></trkpt><trkpt lat="43.579135" lon="11.38783"><ele>490.0</ele><time>2026-04-05T08:41:42.011Z</time></trkpt><trkpt lat="43.5790033" lon="11.3877533"><ele>490.0</ele><time>2026-04-05T08:41:43.011Z</time></trkpt><trkpt lat="43.57888" lon="11.3876383"><ele>490.0</ele><time>2026-04-05T08:41:44.011Z</time></trkpt><trkpt lat="43.57875" lon="11.3875217"><ele>490.0</ele><time>2026-04-05T08:41:45.011Z</time></trkpt><trkpt lat="43.5786167" lon="11.387395"><ele>492.0</ele><time>2026-04-05T08:41:46.011Z</time></trkpt><trkpt lat="43.5784833" lon="11.3872717"><ele>494.0</ele><time>2026-04-05T08:41:47.011Z</time></trkpt><trkpt lat="43.5783467" lon="11.3871433"><ele>496.0</ele><time>2026-04-05T08:41:48.011Z</time></trkpt><trkpt lat="43.5782117" lon="11.38702"><ele>496.0</ele><time>2026-04-05T08:41:49.011Z</time></trkpt><trkpt lat="43.5780867" lon="11.3868933"><ele>496.0</ele><time>2026-04-05T08:41:50.011Z</time></trkpt><trkpt lat="43.5779483" lon="11.3867633"><ele>496.0</ele><time>2026-04-05T08:41:51.011Z</time></trkpt><trkpt lat="43.5778183" lon="11.3866417"><ele>495.33333333333337</ele><time>2026-04-05T08:41:52.011Z</time></trkpt><trkpt lat="43.57768" lon="11.3865183"><ele>494.66666666666663</ele><time>2026-04-05T08:41:53.011Z</time></trkpt><trkpt lat="43.5775433" lon="11.3864017"><ele>494.0</ele><time>2026-04-05T08:41:54.011Z</time></trkpt><trkpt lat="43.5774033" lon="11.3863017"><ele>499.66666666666663</ele><time>2026-04-05T08:41:55.011Z</time></trkpt><trkpt lat="43.57726" lon="11.3862267"><ele>505.33333333333337</ele><time>2026-04-05T08:41:56.011Z</time></trkpt><trkpt lat="43.5771183" lon="11.3861767"><ele>511.0</ele><time>2026-04-05T08:41:57.011Z</time></trkpt><trkpt lat="43.5769667" lon="11.38616"><ele>513.0</ele><time>2026-04-05T08:41:58.011Z</time></trkpt><trkpt lat="43.576815" lon="11.38616"><ele>515.0</ele><time>2026-04-05T08:41:59.011Z</time></trkpt><trkpt lat="43.5766583" lon="11.3861817"><ele>517.0</ele><time>2026-04-05T08:42:00.011Z</time></trkpt><trkpt lat="43.5764933" lon="11.386215"><ele>517.0</ele><time>2026-04-05T08:42:01.011Z</time></trkpt><trkpt lat="43.5763267" lon="11.3862533"><ele>517.0</ele><time>2026-04-05T08:42:02.011Z</time></trkpt><trkpt lat="43.5761667" lon="11.3862933"><ele>517.0</ele><time>2026-04-05T08:42:03.011Z</time></trkpt><trkpt lat="43.57601" lon="11.3863267"><ele>515.0</ele><time>2026-04-05T08:42:04.011Z</time></trkpt><trkpt lat="43.5758517" lon="11.3863633"><ele>513.0</ele><time>2026-04-05T08:42:05.011Z</time></trkpt><trkpt lat="43.575705" lon="11.386385"><ele>511.0</ele><time>2026-04-05T08:42:06.011Z</time></trkpt><trkpt lat="43.5755517" lon="11.3864233"><ele>511.0</ele><time>2026-04-05T08:42:07.011Z</time></trkpt><trkpt lat="43.5753983" lon="11.3864583"><ele>511.0</ele><time>2026-04-05T08:42:08.011Z</time></trkpt><trkpt lat="43.5752333" lon="11.3864883"><ele>511.0</ele><time>2026-04-05T08:42:09.011Z</time></trkpt><trkpt lat="43.575085" lon="11.3865217"><ele>513.75</ele><time>2026-04-05T08:42:10.011Z</time></trkpt><trkpt lat="43.5749383" lon="11.3865433"><ele>516.5</ele><time>2026-04-05T08:42:11.011Z</time></trkpt><trkpt lat="43.57479" lon="11.3865817"><ele>519.25</ele><time>2026-04-05T08:42:12.011Z</time></trkpt><trkpt lat="43.57465" lon="11.3866267"><ele>522.0</ele><time>2026-04-05T08:42:13.011Z</time></trkpt><trkpt lat="43.5745183" lon="11.3866833"><ele>524.75</ele><time>2026-04-05T08:42:14.011Z</time></trkpt><trkpt lat="43.574395" lon="11.3867483"><ele>527.5</ele><time>2026-04-05T08:42:15.011Z</time></trkpt><trkpt lat="43.5743" lon="11.3868417"><ele>530.25</ele><time>2026-04-05T08:42:16.011Z</time></trkpt><trkpt lat="43.5742117" lon="11.3869683"><ele>533.0</ele><time>2026-04-05T08:42:17.011Z</time></trkpt><trkpt lat="43.57414" lon="11.3871167"><ele>532.0</ele><time>2026-04-05T08:42:18.011Z</time></trkpt><trkpt lat="43.5740867" lon="11.38729"><ele>531.0</ele><time>2026-04-05T08:42:19.011Z</time></trkpt><trkpt lat="43.57406" lon="11.3874717"><ele>530.0</ele><time>2026-04-05T08:42:20.011Z</time></trkpt><trkpt lat="43.5740667" lon="11.3876583"><ele>529.0</ele><time>2026-04-05T08:42:21.011Z</time></trkpt><trkpt lat="43.5741033" lon="11.387865"><ele>528.3333333333334</ele><time>2026-04-05T08:42:22.011Z</time></trkpt><trkpt lat="43.5741567" lon="11.3880617"><ele>527.6666666666666</ele><time>2026-04-05T08:42:23.011Z</time></trkpt><trkpt lat="43.5742183" lon="11.388255"><ele>527.0</ele><time>2026-04-05T08:42:24.01Z</time></trkpt><trkpt lat="43.5742717" lon="11.388445"><ele>527.0</ele><time>2026-04-05T08:42:25.011Z</time></trkpt><trkpt lat="43.5743167" lon="11.3886233"><ele>527.0</ele><time>2026-04-05T08:42:26.011Z</time></trkpt><trkpt lat="43.5743567" lon="11.3888017"><ele>527.0</ele><time>2026-04-05T08:42:27.011Z</time></trkpt><trkpt lat="43.5743833" lon="11.3889667"><ele>527.0</ele><time>2026-04-05T08:42:28.011Z</time></trkpt><trkpt lat="43.57438" lon="11.389125"><ele>526.5</ele><time>2026-04-05T08:42:29.011Z</time></trkpt><trkpt lat="43.57434" lon="11.3892767"><ele>526.0</ele><time>2026-04-05T08:42:30.011Z</time></trkpt><trkpt lat="43.57426" lon="11.389395"><ele>525.5</ele><time>2026-04-05T08:42:31.011Z</time></trkpt><trkpt lat="43.5741533" lon="11.3894783"><ele>525.0</ele><time>2026-04-05T08:42:32.011Z</time></trkpt><trkpt lat="43.5740217" lon="11.3895117"><ele>525.0</ele><time>2026-04-05T08:42:33.011Z</time></trkpt><trkpt lat="43.5738817" lon="11.3895067"><ele>525.0</ele><time>2026-04-05T08:42:34.011Z</time></trkpt><trkpt lat="43.5737317" lon="11.3894833"><ele>525.0</ele><time>2026-04-05T08:42:35.011Z</time></trkpt><trkpt lat="43.57357" lon="11.3894317"><ele>526.6666666666666</ele><time>2026-04-05T08:42:36.011Z</time></trkpt><trkpt lat="43.5734067" lon="11.3893733"><ele>528.3333333333333</ele><time>2026-04-05T08:42:37.011Z</time></trkpt><trkpt lat="43.57325" lon="11.3892833"><ele>530.0</ele><time>2026-04-05T08:42:38.011Z</time></trkpt><trkpt lat="43.5731183" lon="11.3891817"><ele>530.0</ele><time>2026-04-05T08:42:39.011Z</time></trkpt><trkpt lat="43.5730017" lon="11.3890533"><ele>530.0</ele><time>2026-04-05T08:42:40.011Z</time></trkpt><trkpt lat="43.5729267" lon="11.3889283"><ele>530.0</ele><time>2026-04-05T08:42:41.011Z</time></trkpt><trkpt lat="43.5728867" lon="11.3888"><ele>530.0</ele><time>2026-04-05T08:42:42.011Z</time></trkpt><trkpt lat="43.57289" lon="11.3886567"><ele>532.0</ele><time>2026-04-05T08:42:43.011Z</time></trkpt><trkpt lat="43.5729167" lon="11.3885033"><ele>534.0</ele><time>2026-04-05T08:42:44.011Z</time></trkpt><trkpt lat="43.5729617" lon="11.3883433"><ele>536.0</ele><time>2026-04-05T08:42:45.011Z</time></trkpt><trkpt lat="43.5730183" lon="11.3881833"><ele>538.0</ele><time>2026-04-05T08:42:46.011Z</time></trkpt><trkpt lat="43.5730667" lon="11.38802"><ele>538.25</ele><time>2026-04-05T08:42:47.011Z</time></trkpt><trkpt lat="43.5731117" lon="11.3878617"><ele>538.5</ele><time>2026-04-05T08:42:48.011Z</time></trkpt><trkpt lat="43.5731317" lon="11.3877083"><ele>538.75</ele><time>2026-04-05T08:42:49.011Z</time></trkpt><trkpt lat="43.5731417" lon="11.38755"><ele>539.0</ele><time>2026-04-05T08:42:50.011Z</time></trkpt><trkpt lat="43.573125" lon="11.3873933"><ele>539.0</ele><time>2026-04-05T08:42:51.011Z</time></trkpt><trkpt lat="43.5730883" lon="11.3872367"><ele>539.0</ele><time>2026-04-05T08:42:52.011Z</time></trkpt><trkpt lat="43.57304" lon="11.3870917"><ele>539.0</ele><time>2026-04-05T08:42:53.011Z</time></trkpt><trkpt lat="43.5729617" lon="11.3869817"><ele>539.0</ele><time>2026-04-05T08:42:54.011Z</time></trkpt><trkpt lat="43.5728633" lon="11.3868883"><ele>542.25</ele><time>2026-04-05T08:42:55.011Z</time></trkpt><trkpt lat="43.5727383" lon="11.3868167"><ele>545.5</ele><time>2026-04-05T08:42:56.011Z</time></trkpt><trkpt lat="43.5726033" lon="11.38676"><ele>548.75</ele><time>2026-04-05T08:42:57.011Z</time></trkpt><trkpt lat="43.57246" lon="11.3867167"><ele>552.0</ele><time>2026-04-05T08:42:58.011Z</time></trkpt><trkpt lat="43.5723133" lon="11.3866933"><ele>552.0</ele><time>2026-04-05T08:42:59.011Z</time></trkpt><trkpt lat="43.5721717" lon="11.3867083"><ele>552.0</ele><time>2026-04-05T08:43:00.011Z</time></trkpt><trkpt lat="43.572025" lon="11.3867433"><ele>552.0</ele><time>2026-04-05T08:43:01.011Z</time></trkpt><trkpt lat="43.571885" lon="11.3867983"><ele>552.0</ele><time>2026-04-05T08:43:02.011Z</time></trkpt><trkpt lat="43.571745" lon="11.3868817"><ele>550.75</ele><time>2026-04-05T08:43:03.011Z</time></trkpt><trkpt lat="43.5716267" lon="11.387"><ele>549.5</ele><time>2026-04-05T08:43:04.011Z</time></trkpt><trkpt lat="43.5715317" lon="11.387135"><ele>548.25</ele><time>2026-04-05T08:43:05.011Z</time></trkpt><trkpt lat="43.5714383" lon="11.3872683"><ele>547.0</ele><time>2026-04-05T08:43:06.011Z</time></trkpt><trkpt lat="43.5713417" lon="11.3873567"><ele>547.0</ele><time>2026-04-05T08:43:07.011Z</time></trkpt><trkpt lat="43.57123" lon="11.3874083"><ele>547.0</ele><time>2026-04-05T08:43:08.011Z</time></trkpt><trkpt lat="43.5711067" lon="11.3874167"><ele>547.0</ele><time>2026-04-05T08:43:09.011Z</time></trkpt><trkpt lat="43.5709783" lon="11.38737"><ele>547.0</ele><time>2026-04-05T08:43:10.011Z</time></trkpt><trkpt lat="43.570845" lon="11.3872933"><ele>549.5</ele><time>2026-04-05T08:43:11.011Z</time></trkpt><trkpt lat="43.570715" lon="11.3871917"><ele>552.0</ele><time>2026-04-05T08:43:12.011Z</time></trkpt><trkpt lat="43.5705883" lon="11.387085"><ele>554.5</ele><time>2026-04-05T08:43:13.011Z</time></trkpt><trkpt lat="43.5704683" lon="11.386965"><ele>557.0</ele><time>2026-04-05T08:43:14.011Z</time></trkpt><trkpt lat="43.57035" lon="11.3868283"><ele>561.0</ele><time>2026-04-05T08:43:15.011Z</time></trkpt><trkpt lat="43.5702367" lon="11.38668"><ele>565.0</ele><time>2026-04-05T08:43:16.011Z</time></trkpt><trkpt lat="43.57012" lon="11.3865383"><ele>569.0</ele><time>2026-04-05T08:43:17.011Z</time></trkpt><trkpt lat="43.5700033" lon="11.38643"><ele>573.75</ele><time>2026-04-05T08:43:18.011Z</time></trkpt><trkpt lat="43.56989" lon="11.3863383"><ele>578.5</ele><time>2026-04-05T08:43:19.011Z</time></trkpt><trkpt lat="43.5697817" lon="11.3862633"><ele>583.25</ele><time>2026-04-05T08:43:20.011Z</time></trkpt><trkpt lat="43.5696867" lon="11.38619"><ele>588.0</ele><time>2026-04-05T08:43:21.011Z</time></trkpt><trkpt lat="43.56961" lon="11.3861033"><ele>588.0</ele><time>2026-04-05T08:43:22.011Z</time></trkpt><trkpt lat="43.5695633" lon="11.385975"><ele>588.0</ele><time>2026-04-05T08:43:23.011Z</time></trkpt><trkpt lat="43.5695567" lon="11.3858467"><ele>588.0</ele><time>2026-04-05T08:43:24.011Z</time></trkpt><trkpt lat="43.5695833" lon="11.3857433"><ele>588.0</ele><time>2026-04-05T08:43:25.011Z</time></trkpt><trkpt lat="43.569625" lon="11.38566"><ele>588.0</ele><time>2026-04-05T08:43:26.011Z</time></trkpt><trkpt lat="43.5697017" lon="11.3856117"><ele>588.0</ele><time>2026-04-05T08:43:27.011Z</time></trkpt><trkpt lat="43.569795" lon="11.3856217"><ele>588.0</ele><time>2026-04-05T08:43:28.011Z</time></trkpt><trkpt lat="43.5698833" lon="11.3856817"><ele>588.0</ele><time>2026-04-05T08:43:29.011Z</time></trkpt><trkpt lat="43.56997" lon="11.3857917"><ele>588.0</ele><time>2026-04-05T08:43:30.011Z</time></trkpt><trkpt lat="43.5700633" lon="11.3859333"><ele>588.0</ele><time>2026-04-05T08:43:31.011Z</time></trkpt><trkpt lat="43.5701833" lon="11.386075"><ele>588.0</ele><time>2026-04-05T08:43:32.011Z</time></trkpt><trkpt lat="43.5703233" lon="11.3861817"><ele>588.0</ele><time>2026-04-05T08:43:33.011Z</time></trkpt><trkpt lat="43.5704667" lon="11.38625"><ele>588.0</ele><time>2026-04-05T08:43:34.011Z</time></trkpt><trkpt lat="43.570615" lon="11.3862717"><ele>591.0</ele><time>2026-04-05T08:43:35.011Z</time></trkpt><trkpt lat="43.5707667" lon="11.386275"><ele>594.0</ele><time>2026-04-05T08:43:36.011Z</time></trkpt><trkpt lat="43.5709083" lon="11.3862783"><ele>597.0</ele><time>2026-04-05T08:43:37.011Z</time></trkpt><trkpt lat="43.5710267" lon="11.386285"><ele>600.0</ele><time>2026-04-05T08:43:38.011Z</time></trkpt><trkpt lat="43.571155" lon="11.3862833"><ele>599.25</ele><time>2026-04-05T08:43:39.011Z</time></trkpt><trkpt lat="43.5712667" lon="11.3862733"><ele>598.5</ele><time>2026-04-05T08:43:40.011Z</time></trkpt><trkpt lat="43.57138" lon="11.38621"><ele>597.75</ele><time>2026-04-05T08:43:41.011Z</time></trkpt><trkpt lat="43.5714883" lon="11.3861133"><ele>597.0</ele><time>2026-04-05T08:43:42.011Z</time></trkpt><trkpt lat="43.5715783" lon="11.3859917"><ele>597.0</ele><time>2026-04-05T08:43:43.011Z</time></trkpt><trkpt lat="43.5716617" lon="11.3858533"><ele>597.0</ele><time>2026-04-05T08:43:44.011Z</time></trkpt><trkpt lat="43.5717333" lon="11.3857167"><ele>597.0</ele><time>2026-04-05T08:43:45.011Z</time></trkpt><trkpt lat="43.5717983" lon="11.38558"><ele>597.0</ele><time>2026-04-05T08:43:46.011Z</time></trkpt><trkpt lat="43.57185" lon="11.385435"><ele>599.75</ele><time>2026-04-05T08:43:47.011Z</time></trkpt><trkpt lat="43.5718733" lon="11.3852783"><ele>602.5</ele><time>2026-04-05T08:43:48.011Z</time></trkpt><trkpt lat="43.5718617" lon="11.385115"><ele>605.25</ele><time>2026-04-05T08:43:49.011Z</time></trkpt><trkpt lat="43.5718267" lon="11.3849717"><ele>608.0</ele><time>2026-04-05T08:43:50.011Z</time></trkpt><trkpt lat="43.5717567" lon="11.3848567"><ele>608.0</ele><time>2026-04-05T08:43:51.011Z</time></trkpt><trkpt lat="43.57166" lon="11.384765"><ele>608.0</ele><time>2026-04-05T08:43:52.011Z</time></trkpt><trkpt lat="43.5715467" lon="11.3847017"><ele>608.0</ele><time>2026-04-05T08:43:53.011Z</time></trkpt><trkpt lat="43.5714217" lon="11.3846567"><ele>608.0</ele><time>2026-04-05T08:43:54.011Z</time></trkpt><trkpt lat="43.57129" lon="11.3846117"><ele>610.3333333333333</ele><time>2026-04-05T08:43:55.011Z</time></trkpt><trkpt lat="43.571155" lon="11.3845517"><ele>612.6666666666666</ele><time>2026-04-05T08:43:56.011Z</time></trkpt><trkpt lat="43.571" lon="11.3844783"><ele>615.0</ele><time>2026-04-05T08:43:57.011Z</time></trkpt><trkpt lat="43.5708533" lon="11.3843867"><ele>615.0</ele><time>2026-04-05T08:43:58.011Z</time></trkpt><trkpt lat="43.5707133" lon="11.384265"><ele>615.0</ele><time>2026-04-05T08:43:59.011Z</time></trkpt><trkpt lat="43.57059" lon="11.3841317"><ele>615.0</ele><time>2026-04-05T08:44:00.011Z</time></trkpt><trkpt lat="43.5704767" lon="11.3839883"><ele>615.0</ele><time>2026-04-05T08:44:01.011Z</time></trkpt><trkpt lat="43.5703733" lon="11.3838517"><ele>615.0</ele><time>2026-04-05T08:44:02.011Z</time></trkpt><trkpt lat="43.5702783" lon="11.3837117"><ele>615.0</ele><time>2026-04-05T08:44:03.011Z</time></trkpt><trkpt lat="43.5701967" lon="11.3835717"><ele>615.0</ele><time>2026-04-05T08:44:04.011Z</time></trkpt><trkpt lat="43.5701233" lon="11.3834283"><ele>616.2</ele><time>2026-04-05T08:44:05.011Z</time></trkpt><trkpt lat="43.570055" lon="11.3832933"><ele>617.4</ele><time>2026-04-05T08:44:06.011Z</time></trkpt><trkpt lat="43.5699783" lon="11.3831817"><ele>618.6</ele><time>2026-04-05T08:44:07.011Z</time></trkpt><trkpt lat="43.5699033" lon="11.383105"><ele>619.8</ele><time>2026-04-05T08:44:08.011Z</time></trkpt><trkpt lat="43.569815" lon="11.383085"><ele>621.0</ele><time>2026-04-05T08:44:09.011Z</time></trkpt><trkpt lat="43.5697233" lon="11.3830933"><ele>621.0</ele><time>2026-04-05T08:44:10.011Z</time></trkpt><trkpt lat="43.5696367" lon="11.3830933"><ele>621.0</ele><time>2026-04-05T08:44:11.011Z</time></trkpt><trkpt lat="43.5695533" lon="11.3830367"><ele>621.0</ele><time>2026-04-05T08:44:12.011Z</time></trkpt><trkpt lat="43.5694533" lon="11.3829567"><ele>621.0</ele><time>2026-04-05T08:44:13.011Z</time></trkpt><trkpt lat="43.5693417" lon="11.3828983"><ele>621.0</ele><time>2026-04-05T08:44:14.011Z</time></trkpt><trkpt lat="43.5692033" lon="11.382875"><ele>626.25</ele><time>2026-04-05T08:44:15.011Z</time></trkpt><trkpt lat="43.569065" lon="11.3828883"><ele>631.5</ele><time>2026-04-05T08:44:16.011Z</time></trkpt><trkpt lat="43.56893" lon="11.3829283"><ele>636.75</ele><time>2026-04-05T08:44:17.011Z</time></trkpt><trkpt lat="43.5687933" lon="11.382975"><ele>642.0</ele><time>2026-04-05T08:44:18.011Z</time></trkpt><trkpt lat="43.5686533" lon="11.3830283"><ele>642.0</ele><time>2026-04-05T08:44:19.011Z</time></trkpt><trkpt lat="43.5685133" lon="11.383085"><ele>642.0</ele><time>2026-04-05T08:44:20.011Z</time></trkpt><trkpt lat="43.56837" lon="11.3831417"><ele>642.0</ele><time>2026-04-05T08:44:21.011Z</time></trkpt><trkpt lat="43.568225" lon="11.3832017"><ele>642.0</ele><time>2026-04-05T08:44:22.011Z</time></trkpt><trkpt lat="43.568075" lon="11.3832633"><ele>642.0</ele><time>2026-04-05T08:44:23.011Z</time></trkpt><trkpt lat="43.56793" lon="11.383325"><ele>642.0</ele><time>2026-04-05T08:44:24.011Z</time></trkpt><trkpt lat="43.5677933" lon="11.3833733"><ele>642.0</ele><time>2026-04-05T08:44:25.011Z</time></trkpt><trkpt lat="43.5676533" lon="11.3834333"><ele>642.0</ele><time>2026-04-05T08:44:26.011Z</time></trkpt><trkpt lat="43.5675117" lon="11.3835"><ele>646.3333333333334</ele><time>2026-04-05T08:44:27.011Z</time></trkpt><trkpt lat="43.5673667" lon="11.38355"><ele>650.6666666666667</ele><time>2026-04-05T08:44:28.011Z</time></trkpt><trkpt lat="43.5672167" lon="11.3836017"><ele>655.0</ele><time>2026-04-05T08:44:29.011Z</time></trkpt><trkpt lat="43.5670617" lon="11.383615"><ele>659.3333333333334</ele><time>2026-04-05T08:44:30.011Z</time></trkpt><trkpt lat="43.5668983" lon="11.383625"><ele>663.6666666666666</ele><time>2026-04-05T08:44:31.011Z</time></trkpt><trkpt lat="43.5667383" lon="11.3836333"><ele>668.0</ele><time>2026-04-05T08:44:32.011Z</time></trkpt><trkpt lat="43.5665933" lon="11.3836333"><ele>668.0</ele><time>2026-04-05T08:44:33.011Z</time></trkpt><trkpt lat="43.5664433" lon="11.383625"><ele>668.0</ele><time>2026-04-05T08:44:34.011Z</time></trkpt><trkpt lat="43.5662917" lon="11.3836133"><ele>668.0</ele><time>2026-04-05T08:44:35.011Z</time></trkpt><trkpt lat="43.566145" lon="11.3836117"><ele>668.0</ele><time>2026-04-05T08:44:36.011Z</time></trkpt><trkpt lat="43.5659967" lon="11.3836233"><ele>670.75</ele><time>2026-04-05T08:44:37.011Z</time></trkpt><trkpt lat="43.565855" lon="11.38365"><ele>673.5</ele><time>2026-04-05T08:44:38.011Z</time></trkpt><trkpt lat="43.5657167" lon="11.3836967"><ele>676.25</ele><time>2026-04-05T08:44:39.011Z</time></trkpt><trkpt lat="43.5655783" lon="11.3837317"><ele>679.0</ele><time>2026-04-05T08:44:40.011Z</time></trkpt><trkpt lat="43.5654467" lon="11.3837583"><ele>678.25</ele><time>2026-04-05T08:44:41.011Z</time></trkpt><trkpt lat="43.56531" lon="11.3837867"><ele>677.5</ele><time>2026-04-05T08:44:42.011Z</time></trkpt><trkpt lat="43.5651767" lon="11.3838067"><ele>676.75</ele><time>2026-04-05T08:44:43.011Z</time></trkpt><trkpt lat="43.56504" lon="11.3838283"><ele>676.0</ele><time>2026-04-05T08:44:44.011Z</time></trkpt><trkpt lat="43.56492" lon="11.38386"><ele>676.0</ele><time>2026-04-05T08:44:45.011Z</time></trkpt><trkpt lat="43.56481" lon="11.3839383"><ele>676.0</ele><time>2026-04-05T08:44:46.011Z</time></trkpt><trkpt lat="43.564715" lon="11.3840483"><ele>676.0</ele><time>2026-04-05T08:44:47.011Z</time></trkpt><trkpt lat="43.5646267" lon="11.384175"><ele>676.0</ele><time>2026-04-05T08:44:48.011Z</time></trkpt><trkpt lat="43.5645433" lon="11.3842917"><ele>681.75</ele><time>2026-04-05T08:44:49.011Z</time></trkpt><trkpt lat="43.5644417" lon="11.38439"><ele>687.5</ele><time>2026-04-05T08:44:50.011Z</time></trkpt><trkpt lat="43.5643267" lon="11.384455"><ele>693.25</ele><time>2026-04-05T08:44:51.011Z</time></trkpt><trkpt lat="43.5641933" lon="11.384495"><ele>699.0</ele><time>2026-04-05T08:44:52.011Z</time></trkpt><trkpt lat="43.5640533" lon="11.3845283"><ele>699.0</ele><time>2026-04-05T08:44:53.011Z</time></trkpt><trkpt lat="43.5639117" lon="11.3845833"><ele>699.0</ele><time>2026-04-05T08:44:54.011Z</time></trkpt><trkpt lat="43.5637633" lon="11.3846467"><ele>699.0</ele><time>2026-04-05T08:44:55.011Z</time></trkpt><trkpt lat="43.563615" lon="11.3847283"><ele>700.0</ele><time>2026-04-05T08:44:56.011Z</time></trkpt><trkpt lat="43.5634817" lon="11.3848183"><ele>701.0</ele><time>2026-04-05T08:44:57.011Z</time></trkpt><trkpt lat="43.56335" lon="11.3848967"><ele>702.0</ele><time>2026-04-05T08:44:58.011Z</time></trkpt><trkpt lat="43.5632283" lon="11.3849583"><ele>703.0</ele><time>2026-04-05T08:44:59.011Z</time></trkpt><trkpt lat="43.56312" lon="11.385015"><ele>703.0</ele><time>2026-04-05T08:45:00.011Z</time></trkpt><trkpt lat="43.56303" lon="11.3850617"><ele>703.0</ele><time>2026-04-05T08:45:01.011Z</time></trkpt><trkpt lat="43.562945" lon="11.3851233"><ele>703.0</ele><time>2026-04-05T08:45:02.011Z</time></trkpt><trkpt lat="43.5628867" lon="11.3851933"><ele>703.0</ele><time>2026-04-05T08:45:03.011Z</time></trkpt><trkpt lat="43.5628467" lon="11.3852817"><ele>703.0</ele><time>2026-04-05T08:45:04.011Z</time></trkpt><trkpt lat="43.5628267" lon="11.3853817"><ele>703.0</ele><time>2026-04-05T08:45:05.011Z</time></trkpt><trkpt lat="43.5628267" lon="11.3854933"><ele>704.75</ele><time>2026-04-05T08:45:06.011Z</time></trkpt><trkpt lat="43.5628433" lon="11.3856283"><ele>706.5</ele><time>2026-04-05T08:45:07.011Z</time></trkpt><trkpt lat="43.5628717" lon="11.385785"><ele>708.25</ele><time>2026-04-05T08:45:08.011Z</time></trkpt><trkpt lat="43.5629083" lon="11.3859617"><ele>710.0</ele><time>2026-04-05T08:45:09.011Z</time></trkpt><trkpt lat="43.5629283" lon="11.3861483"><ele>709.25</ele><time>2026-04-05T08:45:10.011Z</time></trkpt><trkpt lat="43.562925" lon="11.3863333"><ele>708.5</ele><time>2026-04-05T08:45:11.011Z</time></trkpt><trkpt lat="43.5628933" lon="11.38651"><ele>707.75</ele><time>2026-04-05T08:45:12.011Z</time></trkpt><trkpt lat="43.562825" lon="11.386665"><ele>707.0</ele><time>2026-04-05T08:45:13.011Z</time></trkpt><trkpt lat="43.562735" lon="11.3868"><ele>707.0</ele><time>2026-04-05T08:45:14.011Z</time></trkpt><trkpt lat="43.5626133" lon="11.3869167"><ele>707.0</ele><time>2026-04-05T08:45:15.011Z</time></trkpt><trkpt lat="43.5624967" lon="11.387025"><ele>707.0</ele><time>2026-04-05T08:45:16.011Z</time></trkpt><trkpt lat="43.56236" lon="11.387135"><ele>707.0</ele><time>2026-04-05T08:45:17.011Z</time></trkpt><trkpt lat="43.5622333" lon="11.3872667"><ele>704.0</ele><time>2026-04-05T08:45:18.011Z</time></trkpt><trkpt lat="43.56212" lon="11.38742"><ele>701.0</ele><time>2026-04-05T08:45:19.011Z</time></trkpt><trkpt lat="43.5620283" lon="11.38759"><ele>698.0</ele><time>2026-04-05T08:45:20.011Z</time></trkpt><trkpt lat="43.5619517" lon="11.3877767"><ele>702.0</ele><time>2026-04-05T08:45:21.011Z</time></trkpt><trkpt lat="43.5618717" lon="11.3879633"><ele>706.0</ele><time>2026-04-05T08:45:22.011Z</time></trkpt><trkpt lat="43.5617717" lon="11.3881233"><ele>710.0</ele><time>2026-04-05T08:45:23.011Z</time></trkpt><trkpt lat="43.5616633" lon="11.388285"><ele>710.0</ele><time>2026-04-05T08:45:24.011Z</time></trkpt><trkpt lat="43.5615483" lon="11.3884517"><ele>710.0</ele><time>2026-04-05T08:45:25.011Z</time></trkpt><trkpt lat="43.56143" lon="11.3886083"><ele>710.0</ele><time>2026-04-05T08:45:26.011Z</time></trkpt><trkpt lat="43.5613133" lon="11.3887533"><ele>708.0</ele><time>2026-04-05T08:45:27.011Z</time></trkpt><trkpt lat="43.56118" lon="11.3888633"><ele>706.0</ele><time>2026-04-05T08:45:28.011Z</time></trkpt><trkpt lat="43.5610283" lon="11.38896"><ele>704.0</ele><time>2026-04-05T08:45:29.011Z</time></trkpt><trkpt lat="43.5608667" lon="11.38906"><ele>704.0</ele><time>2026-04-05T08:45:30.011Z</time></trkpt><trkpt lat="43.5607183" lon="11.3891767"><ele>704.0</ele><time>2026-04-05T08:45:31.011Z</time></trkpt><trkpt lat="43.5605783" lon="11.3893233"><ele>704.0</ele><time>2026-04-05T08:45:32.011Z</time></trkpt><trkpt lat="43.5604633" lon="11.3894933"><ele>704.0</ele><time>2026-04-05T08:45:33.011Z</time></trkpt><trkpt lat="43.56036" lon="11.3896633"><ele>704.0</ele><time>2026-04-05T08:45:34.011Z</time></trkpt><trkpt lat="43.5602567" lon="11.3898167"><ele>704.0</ele><time>2026-04-05T08:45:35.011Z</time></trkpt><trkpt lat="43.5601467" lon="11.3899717"><ele>704.0</ele><time>2026-04-05T08:45:36.011Z</time></trkpt><trkpt lat="43.5600367" lon="11.39012"><ele>704.0</ele><time>2026-04-05T08:45:37.011Z</time></trkpt><trkpt lat="43.5599433" lon="11.3902617"><ele>704.0</ele><time>2026-04-05T08:45:38.011Z</time></trkpt><trkpt lat="43.559875" lon="11.3904283"><ele>704.0</ele><time>2026-04-05T08:45:39.011Z</time></trkpt><trkpt lat="43.55982" lon="11.3906217"><ele>701.3333333333333</ele><time>2026-04-05T08:45:40.011Z</time></trkpt><trkpt lat="43.55978" lon="11.39082"><ele>698.6666666666666</ele><time>2026-04-05T08:45:41.011Z</time></trkpt><trkpt lat="43.5597283" lon="11.3910217"><ele>696.0</ele><time>2026-04-05T08:45:42.011Z</time></trkpt><trkpt lat="43.5596517" lon="11.3912067"><ele>694.0</ele><time>2026-04-05T08:45:43.011Z</time></trkpt><trkpt lat="43.5595567" lon="11.3913783"><ele>692.0</ele><time>2026-04-05T08:45:44.011Z</time></trkpt><trkpt lat="43.5594533" lon="11.3915333"><ele>690.0</ele><time>2026-04-05T08:45:45.011Z</time></trkpt><trkpt lat="43.559335" lon="11.3916483"><ele>694.0</ele><time>2026-04-05T08:45:46.011Z</time></trkpt><trkpt lat="43.559215" lon="11.3917483"><ele>698.0</ele><time>2026-04-05T08:45:47.011Z</time></trkpt><trkpt lat="43.55911" lon="11.391845"><ele>702.0</ele><time>2026-04-05T08:45:48.011Z</time></trkpt><trkpt lat="43.5590333" lon="11.39198"><ele>706.0</ele><time>2026-04-05T08:45:49.011Z</time></trkpt><trkpt lat="43.5589867" lon="11.3921417"><ele>704.25</ele><time>2026-04-05T08:45:50.011Z</time></trkpt><trkpt lat="43.5589433" lon="11.392325"><ele>702.5</ele><time>2026-04-05T08:45:51.011Z</time></trkpt><trkpt lat="43.5588833" lon="11.392495"><ele>700.75</ele><time>2026-04-05T08:45:52.011Z</time></trkpt><trkpt lat="43.558795" lon="11.392655"><ele>699.0</ele><time>2026-04-05T08:45:53.011Z</time></trkpt><trkpt lat="43.5586917" lon="11.3927833"><ele>703.5</ele><time>2026-04-05T08:45:54.011Z</time></trkpt><trkpt lat="43.55857" lon="11.3929"><ele>708.0</ele><time>2026-04-05T08:45:55.011Z</time></trkpt><trkpt lat="43.5584533" lon="11.3930133"><ele>712.5</ele><time>2026-04-05T08:45:56.011Z</time></trkpt><trkpt lat="43.55834" lon="11.3931533"><ele>717.0</ele><time>2026-04-05T08:45:57.011Z</time></trkpt><trkpt lat="43.558265" lon="11.3933217"><ele>717.0</ele><time>2026-04-05T08:45:58.011Z</time></trkpt><trkpt lat="43.5582033" lon="11.3935017"><ele>717.0</ele><time>2026-04-05T08:45:59.011Z</time></trkpt><trkpt lat="43.5581383" lon="11.39367"><ele>717.0</ele><time>2026-04-05T08:46:00.011Z</time></trkpt><trkpt lat="43.55806" lon="11.39385"><ele>717.0</ele><time>2026-04-05T08:46:01.011Z</time></trkpt><trkpt lat="43.55795" lon="11.3940117"><ele>719.6666666666666</ele><time>2026-04-05T08:46:02.011Z</time></trkpt><trkpt lat="43.55784" lon="11.3941633"><ele>722.3333333333333</ele><time>2026-04-05T08:46:03.011Z</time></trkpt><trkpt lat="43.5577183" lon="11.3942917"><ele>725.0</ele><time>2026-04-05T08:46:04.011Z</time></trkpt><trkpt lat="43.5575933" lon="11.3944133"><ele>725.0</ele><time>2026-04-05T08:46:05.011Z</time></trkpt><trkpt lat="43.5574683" lon="11.3945283"><ele>725.0</ele><time>2026-04-05T08:46:06.011Z</time></trkpt><trkpt lat="43.5573383" lon="11.394585"><ele>725.0</ele><time>2026-04-05T08:46:07.011Z</time></trkpt><trkpt lat="43.5571967" lon="11.3946133"><ele>725.0</ele><time>2026-04-05T08:46:08.011Z</time></trkpt><trkpt lat="43.5570417" lon="11.394615"><ele>725.6666666666666</ele><time>2026-04-05T08:46:09.011Z</time></trkpt><trkpt lat="43.556885" lon="11.3946033"><ele>726.3333333333334</ele><time>2026-04-05T08:46:10.011Z</time></trkpt><trkpt lat="43.556725" lon="11.394615"><ele>727.0</ele><time>2026-04-05T08:46:11.011Z</time></trkpt><trkpt lat="43.5565683" lon="11.3946433"><ele>724.6666666666667</ele><time>2026-04-05T08:46:12.011Z</time></trkpt><trkpt lat="43.5564117" lon="11.394685"><ele>722.3333333333334</ele><time>2026-04-05T08:46:13.011Z</time></trkpt><trkpt lat="43.55625" lon="11.39474"><ele>720.0</ele><time>2026-04-05T08:46:14.011Z</time></trkpt><trkpt lat="43.556105" lon="11.3948033"><ele>719.25</ele><time>2026-04-05T08:46:15.011Z</time></trkpt><trkpt lat="43.555965" lon="11.3948417"><ele>718.5</ele><time>2026-04-05T08:46:16.011Z</time></trkpt><trkpt lat="43.5558283" lon="11.39487"><ele>717.75</ele><time>2026-04-05T08:46:17.011Z</time></trkpt><trkpt lat="43.5556817" lon="11.3948667"><ele>717.0</ele><time>2026-04-05T08:46:18.011Z</time></trkpt><trkpt lat="43.55553" lon="11.394865"><ele>717.0</ele><time>2026-04-05T08:46:19.011Z</time></trkpt><trkpt lat="43.5553717" lon="11.3948467"><ele>717.0</ele><time>2026-04-05T08:46:20.011Z</time></trkpt><trkpt lat="43.5552117" lon="11.3948617"><ele>717.0</ele><time>2026-04-05T08:46:21.011Z</time></trkpt><trkpt lat="43.55507" lon="11.3949267"><ele>719.0</ele><time>2026-04-05T08:46:22.011Z</time></trkpt><trkpt lat="43.5549433" lon="11.3950117"><ele>721.0</ele><time>2026-04-05T08:46:23.011Z</time></trkpt><trkpt lat="43.5548167" lon="11.3950967"><ele>723.0</ele><time>2026-04-05T08:46:24.011Z</time></trkpt><trkpt lat="43.5546883" lon="11.3951783"><ele>725.0</ele><time>2026-04-05T08:46:25.011Z</time></trkpt><trkpt lat="43.5545567" lon="11.3952217"><ele>727.75</ele><time>2026-04-05T08:46:26.011Z</time></trkpt><trkpt lat="43.5544167" lon="11.3952167"><ele>730.5</ele><time>2026-04-05T08:46:27.011Z</time></trkpt><trkpt lat="43.5542883" lon="11.39516"><ele>733.25</ele><time>2026-04-05T08:46:28.011Z</time></trkpt><trkpt lat="43.554175" lon="11.39506"><ele>736.0</ele><time>2026-04-05T08:46:29.011Z</time></trkpt><trkpt lat="43.5540683" lon="11.3949533"><ele>736.0</ele><time>2026-04-05T08:46:30.011Z</time></trkpt><trkpt lat="43.55396" lon="11.39485"><ele>736.0</ele><time>2026-04-05T08:46:31.011Z</time></trkpt><trkpt lat="43.553845" lon="11.39477"><ele>736.0</ele><time>2026-04-05T08:46:32.011Z</time></trkpt><trkpt lat="43.5537383" lon="11.39473"><ele>736.0</ele><time>2026-04-05T08:46:33.011Z</time></trkpt><trkpt lat="43.55363" lon="11.3947417"><ele>738.25</ele><time>2026-04-05T08:46:34.011Z</time></trkpt><trkpt lat="43.5535317" lon="11.3947758"><ele>740.5</ele><time>2026-04-05T08:46:35.011Z</time></trkpt><trkpt lat="43.5534496" lon="11.3948614"><ele>742.75</ele><time>2026-04-05T08:46:36.011Z</time></trkpt><trkpt lat="43.5533902" lon="11.3949949"><ele>745.0</ele><time>2026-04-05T08:46:37.011Z</time></trkpt><trkpt lat="43.5533381" lon="11.395165"><ele>745.0</ele><time>2026-04-05T08:46:38.011Z</time></trkpt><trkpt lat="43.5532957" lon="11.395349"><ele>745.0</ele><time>2026-04-05T08:46:39.011Z</time></trkpt><trkpt lat="43.5532496" lon="11.3955391"><ele>745.0</ele><time>2026-04-05T08:46:40.011Z</time></trkpt><trkpt lat="43.5531811" lon="11.3957291"><ele>745.0</ele><time>2026-04-05T08:46:41.011Z</time></trkpt><trkpt lat="43.5530896" lon="11.3958985"><ele>743.3333333333334</ele><time>2026-04-05T08:46:42.011Z</time></trkpt><trkpt lat="43.5529786" lon="11.3960423"><ele>741.6666666666666</ele><time>2026-04-05T08:46:43.011Z</time></trkpt><trkpt lat="43.5528452" lon="11.3961603"><ele>740.0</ele><time>2026-04-05T08:46:44.011Z</time></trkpt><trkpt lat="43.5526991" lon="11.396251"><ele>744.3333333333333</ele><time>2026-04-05T08:46:45.011Z</time></trkpt><trkpt lat="43.5525536" lon="11.3963335"><ele>748.6666666666666</ele><time>2026-04-05T08:46:46.011Z</time></trkpt><trkpt lat="43.552409" lon="11.3964373"><ele>753.0</ele><time>2026-04-05T08:46:47.011Z</time></trkpt><trkpt lat="43.5522776" lon="11.3965762"><ele>753.0</ele><time>2026-04-05T08:46:48.011Z</time></trkpt><trkpt lat="43.5521523" lon="11.3967299"><ele>753.0</ele><time>2026-04-05T08:46:49.011Z</time></trkpt><trkpt lat="43.5520311" lon="11.3968767"><ele>753.0</ele><time>2026-04-05T08:46:50.011Z</time></trkpt><trkpt lat="43.5519082" lon="11.3970199"><ele>752.6666666666666</ele><time>2026-04-05T08:46:51.011Z</time></trkpt><trkpt lat="43.5517788" lon="11.3971493"><ele>752.3333333333333</ele><time>2026-04-05T08:46:52.011Z</time></trkpt><trkpt lat="43.5516432" lon="11.3972668"><ele>752.0</ele><time>2026-04-05T08:46:53.011Z</time></trkpt><trkpt lat="43.5515014" lon="11.3973859"><ele>752.0</ele><time>2026-04-05T08:46:54.011Z</time></trkpt><trkpt lat="43.5513621" lon="11.397499"><ele>752.0</ele><time>2026-04-05T08:46:55.011Z</time></trkpt><trkpt lat="43.5512176" lon="11.3976159"><ele>752.0</ele><time>2026-04-05T08:46:56.011Z</time></trkpt><trkpt lat="43.5510809" lon="11.3977315"><ele>753.3333333333333</ele><time>2026-04-05T08:46:57.011Z</time></trkpt><trkpt lat="43.5509465" lon="11.3978402"><ele>754.6666666666666</ele><time>2026-04-05T08:46:58.011Z</time></trkpt><trkpt lat="43.550815" lon="11.3979478"><ele>756.0</ele><time>2026-04-05T08:46:59.011Z</time></trkpt><trkpt lat="43.550695" lon="11.3980516"><ele>753.75</ele><time>2026-04-05T08:47:00.011Z</time></trkpt><trkpt lat="43.5505837" lon="11.3981488"><ele>751.5</ele><time>2026-04-05T08:47:01.011Z</time></trkpt><trkpt lat="43.5504749" lon="11.3982386"><ele>749.25</ele><time>2026-04-05T08:47:02.011Z</time></trkpt><trkpt lat="43.5503734" lon="11.3983151"><ele>747.0</ele><time>2026-04-05T08:47:03.011Z</time></trkpt><trkpt lat="43.550276" lon="11.3983723"><ele>746.5</ele><time>2026-04-05T08:47:04.011Z</time></trkpt><trkpt lat="43.5501759" lon="11.398384"><ele>746.0</ele><time>2026-04-05T08:47:05.011Z</time></trkpt><trkpt lat="43.5500718" lon="11.3983568"><ele>745.5</ele><time>2026-04-05T08:47:06.011Z</time></trkpt><trkpt lat="43.5499598" lon="11.3983031"><ele>745.0</ele><time>2026-04-05T08:47:07.011Z</time></trkpt><trkpt lat="43.5498383" lon="11.3982217"><ele>745.0</ele><time>2026-04-05T08:47:08.011Z</time></trkpt><trkpt lat="43.5497067" lon="11.3981583"><ele>745.0</ele><time>2026-04-05T08:47:09.011Z</time></trkpt><trkpt lat="43.5495767" lon="11.398095"><ele>745.0</ele><time>2026-04-05T08:47:10.011Z</time></trkpt><trkpt lat="43.5494417" lon="11.3980267"><ele>745.0</ele><time>2026-04-05T08:47:11.011Z</time></trkpt><trkpt lat="43.5492967" lon="11.3979617"><ele>744.0</ele><time>2026-04-05T08:47:12.011Z</time></trkpt><trkpt lat="43.5491517" lon="11.3978933"><ele>743.0</ele><time>2026-04-05T08:47:13.011Z</time></trkpt><trkpt lat="43.54901" lon="11.3978217"><ele>742.0</ele><time>2026-04-05T08:47:14.011Z</time></trkpt><trkpt lat="43.5488633" lon="11.3977433"><ele>742.0</ele><time>2026-04-05T08:47:15.011Z</time></trkpt><trkpt lat="43.548715" lon="11.3976833"><ele>742.0</ele><time>2026-04-05T08:47:16.011Z</time></trkpt><trkpt lat="43.5485683" lon="11.3976167"><ele>742.0</ele><time>2026-04-05T08:47:17.011Z</time></trkpt><trkpt lat="43.548415" lon="11.39757"><ele>738.3333333333334</ele><time>2026-04-05T08:47:18.011Z</time></trkpt><trkpt lat="43.54826" lon="11.3975483"><ele>734.6666666666666</ele><time>2026-04-05T08:47:19.011Z</time></trkpt><trkpt lat="43.5481033" lon="11.3975533"><ele>731.0</ele><time>2026-04-05T08:47:20.011Z</time></trkpt><trkpt lat="43.54795" lon="11.3975583"><ele>727.3333333333333</ele><time>2026-04-05T08:47:21.011Z</time></trkpt><trkpt lat="43.547795" lon="11.3975583"><ele>723.6666666666666</ele><time>2026-04-05T08:47:22.011Z</time></trkpt><trkpt lat="43.5476467" lon="11.397555"><ele>720.0</ele><time>2026-04-05T08:47:23.011Z</time></trkpt><trkpt lat="43.5474917" lon="11.3975417"><ele>720.0</ele><time>2026-04-05T08:47:24.011Z</time></trkpt><trkpt lat="43.5473433" lon="11.3975083"><ele>720.0</ele><time>2026-04-05T08:47:25.011Z</time></trkpt><trkpt lat="43.5471967" lon="11.39747"><ele>720.0</ele><time>2026-04-05T08:47:26.01Z</time></trkpt><trkpt lat="43.5470633" lon="11.3974317"><ele>720.0</ele><time>2026-04-05T08:47:27.011Z</time></trkpt><trkpt lat="43.54695" lon="11.3974083"><ele>717.4</ele><time>2026-04-05T08:47:28.011Z</time></trkpt><trkpt lat="43.5468567" lon="11.39741"><ele>714.8</ele><time>2026-04-05T08:47:29.011Z</time></trkpt><trkpt lat="43.5467717" lon="11.3974483"><ele>712.2</ele><time>2026-04-05T08:47:30.011Z</time></trkpt><trkpt lat="43.5467017" lon="11.3975233"><ele>709.6</ele><time>2026-04-05T08:47:31.011Z</time></trkpt><trkpt lat="43.5466433" lon="11.3976217"><ele>707.0</ele><time>2026-04-05T08:47:32.011Z</time></trkpt><trkpt lat="43.5466183" lon="11.3977367"><ele>707.0</ele><time>2026-04-05T08:47:33.011Z</time></trkpt><trkpt lat="43.546625" lon="11.3978567"><ele>707.0</ele><time>2026-04-05T08:47:34.011Z</time></trkpt><trkpt lat="43.546675" lon="11.3979917"><ele>707.0</ele><time>2026-04-05T08:47:35.011Z</time></trkpt><trkpt lat="43.5467667" lon="11.3981317"><ele>707.0</ele><time>2026-04-05T08:47:36.011Z</time></trkpt><trkpt lat="43.5468717" lon="11.3982783"><ele>705.75</ele><time>2026-04-05T08:47:37.011Z</time></trkpt><trkpt lat="43.5469733" lon="11.398415"><ele>704.5</ele><time>2026-04-05T08:47:38.011Z</time></trkpt><trkpt lat="43.5470667" lon="11.398565"><ele>703.25</ele><time>2026-04-05T08:47:39.011Z</time></trkpt><trkpt lat="43.54716" lon="11.398725"><ele>702.0</ele><time>2026-04-05T08:47:40.011Z</time></trkpt><trkpt lat="43.54724" lon="11.398885"><ele>704.5</ele><time>2026-04-05T08:47:41.011Z</time></trkpt><trkpt lat="43.5473167" lon="11.3990583"><ele>707.0</ele><time>2026-04-05T08:47:42.011Z</time></trkpt><trkpt lat="43.5473917" lon="11.3992367"><ele>709.5</ele><time>2026-04-05T08:47:43.011Z</time></trkpt><trkpt lat="43.5474667" lon="11.3994067"><ele>712.0</ele><time>2026-04-05T08:47:44.011Z</time></trkpt><trkpt lat="43.54754" lon="11.3995733"><ele>711.0</ele><time>2026-04-05T08:47:45.011Z</time></trkpt><trkpt lat="43.5476117" lon="11.3997433"><ele>710.0</ele><time>2026-04-05T08:47:46.011Z</time></trkpt><trkpt lat="43.547685" lon="11.399915"><ele>709.0</ele><time>2026-04-05T08:47:47.011Z</time></trkpt><trkpt lat="43.5477617" lon="11.4000833"><ele>708.0</ele><time>2026-04-05T08:47:48.011Z</time></trkpt><trkpt lat="43.5478417" lon="11.4002583"><ele>709.5</ele><time>2026-04-05T08:47:49.011Z</time></trkpt><trkpt lat="43.5479233" lon="11.400415"><ele>711.0</ele><time>2026-04-05T08:47:50.011Z</time></trkpt><trkpt lat="43.5479967" lon="11.4005733"><ele>712.5</ele><time>2026-04-05T08:47:51.011Z</time></trkpt><trkpt lat="43.5480733" lon="11.4007233"><ele>714.0</ele><time>2026-04-05T08:47:52.011Z</time></trkpt><trkpt lat="43.5481333" lon="11.4008767"><ele>714.0</ele><time>2026-04-05T08:47:53.011Z</time></trkpt><trkpt lat="43.5481717" lon="11.4010317"><ele>714.0</ele><time>2026-04-05T08:47:54.011Z</time></trkpt><trkpt lat="43.5481883" lon="11.4011883"><ele>714.0</ele><time>2026-04-05T08:47:55.011Z</time></trkpt><trkpt lat="43.5481867" lon="11.4013417"><ele>714.0</ele><time>2026-04-05T08:47:56.011Z</time></trkpt><trkpt lat="43.548175" lon="11.401495"><ele>713.0</ele><time>2026-04-05T08:47:57.011Z</time></trkpt><trkpt lat="43.5481517" lon="11.401655"><ele>712.0</ele><time>2026-04-05T08:47:58.011Z</time></trkpt><trkpt lat="43.5481283" lon="11.4018133"><ele>711.0</ele><time>2026-04-05T08:47:59.011Z</time></trkpt><trkpt lat="43.5481183" lon="11.4019733"><ele>710.0</ele><time>2026-04-05T08:48:00.01Z</time></trkpt><trkpt lat="43.548125" lon="11.40214"><ele>709.0</ele><time>2026-04-05T08:48:01.01Z</time></trkpt><trkpt lat="43.5481483" lon="11.4022917"><ele>708.0</ele><time>2026-04-05T08:48:02.01Z</time></trkpt><trkpt lat="43.548185" lon="11.4024383"><ele>707.0</ele><time>2026-04-05T08:48:03.01Z</time></trkpt><trkpt lat="43.5482183" lon="11.40258"><ele>706.0</ele><time>2026-04-05T08:48:04.01Z</time></trkpt><trkpt lat="43.54825" lon="11.4027217"><ele>705.0</ele><time>2026-04-05T08:48:05.01Z</time></trkpt><trkpt lat="43.5482617" lon="11.402865"><ele>706.25</ele><time>2026-04-05T08:48:06.01Z</time></trkpt><trkpt lat="43.548235" lon="11.4030133"><ele>707.5</ele><time>2026-04-05T08:48:07.01Z</time></trkpt><trkpt lat="43.548175" lon="11.4031533"><ele>708.75</ele><time>2026-04-05T08:48:08.01Z</time></trkpt><trkpt lat="43.5480667" lon="11.4032633"><ele>710.0</ele><time>2026-04-05T08:48:09.01Z</time></trkpt><trkpt lat="43.5479267" lon="11.40334"><ele>706.3333333333333</ele><time>2026-04-05T08:48:10.01Z</time></trkpt><trkpt lat="43.5477783" lon="11.4034033"><ele>702.6666666666666</ele><time>2026-04-05T08:48:11.01Z</time></trkpt><trkpt lat="43.5476233" lon="11.4034817"><ele>699.0</ele><time>2026-04-05T08:48:12.01Z</time></trkpt><trkpt lat="43.54748" lon="11.4035617"><ele>699.0</ele><time>2026-04-05T08:48:13.01Z</time></trkpt><trkpt lat="43.5473417" lon="11.4036433"><ele>699.0</ele><time>2026-04-05T08:48:14.01Z</time></trkpt><trkpt lat="43.54721" lon="11.4037667"><ele>699.0</ele><time>2026-04-05T08:48:15.01Z</time></trkpt><trkpt lat="43.5471117" lon="11.403925"><ele>698.6666666666666</ele><time>2026-04-05T08:48:16.01Z</time></trkpt><trkpt lat="43.5470233" lon="11.4040983"><ele>698.3333333333333</ele><time>2026-04-05T08:48:17.01Z</time></trkpt><trkpt lat="43.5469367" lon="11.4042933"><ele>698.0</ele><time>2026-04-05T08:48:18.01Z</time></trkpt><trkpt lat="43.5468583" lon="11.4044883"><ele>700.3333333333333</ele><time>2026-04-05T08:48:19.01Z</time></trkpt><trkpt lat="43.5467767" lon="11.4046767"><ele>702.6666666666666</ele><time>2026-04-05T08:48:20.01Z</time></trkpt><trkpt lat="43.5466883" lon="11.4048583"><ele>705.0</ele><time>2026-04-05T08:48:21.01Z</time></trkpt><trkpt lat="43.54661" lon="11.405035"><ele>705.0</ele><time>2026-04-05T08:48:22.01Z</time></trkpt><trkpt lat="43.54653" lon="11.40522"><ele>705.0</ele><time>2026-04-05T08:48:23.01Z</time></trkpt><trkpt lat="43.5464483" lon="11.4053967"><ele>705.0</ele><time>2026-04-05T08:48:24.01Z</time></trkpt><trkpt lat="43.5463683" lon="11.4055717"><ele>705.75</ele><time>2026-04-05T08:48:25.01Z</time></trkpt><trkpt lat="43.5462833" lon="11.405745"><ele>706.5</ele><time>2026-04-05T08:48:26.01Z</time></trkpt><trkpt lat="43.5462083" lon="11.4059217"><ele>707.25</ele><time>2026-04-05T08:48:27.01Z</time></trkpt><trkpt lat="43.5461233" lon="11.40609"><ele>708.0</ele><time>2026-04-05T08:48:28.01Z</time></trkpt><trkpt lat="43.5460317" lon="11.4062583"><ele>702.6666666666666</ele><time>2026-04-05T08:48:29.01Z</time></trkpt><trkpt lat="43.5459267" lon="11.4064133"><ele>697.3333333333333</ele><time>2026-04-05T08:48:30.01Z</time></trkpt><trkpt lat="43.5458083" lon="11.40655"><ele>692.0</ele><time>2026-04-05T08:48:31.01Z</time></trkpt><trkpt lat="43.5456933" lon="11.40667"><ele>692.0</ele><time>2026-04-05T08:48:32.01Z</time></trkpt><trkpt lat="43.5455833" lon="11.406785"><ele>692.0</ele><time>2026-04-05T08:48:33.01Z</time></trkpt><trkpt lat="43.5454567" lon="11.406885"><ele>692.0</ele><time>2026-04-05T08:48:34.01Z</time></trkpt><trkpt lat="43.5453283" lon="11.4069767"><ele>692.0</ele><time>2026-04-05T08:48:35.01Z</time></trkpt><trkpt lat="43.545195" lon="11.4070617"><ele>691.0</ele><time>2026-04-05T08:48:36.01Z</time></trkpt><trkpt lat="43.5450567" lon="11.4071433"><ele>690.0</ele><time>2026-04-05T08:48:37.01Z</time></trkpt><trkpt lat="43.5449117" lon="11.4072267"><ele>689.0</ele><time>2026-04-05T08:48:38.01Z</time></trkpt><trkpt lat="43.5447733" lon="11.4073083"><ele>690.6666666666666</ele><time>2026-04-05T08:48:39.01Z</time></trkpt><trkpt lat="43.54463" lon="11.4073917"><ele>692.3333333333334</ele><time>2026-04-05T08:48:40.01Z</time></trkpt><trkpt lat="43.5444833" lon="11.4074817"><ele>694.0</ele><time>2026-04-05T08:48:41.01Z</time></trkpt><trkpt lat="43.5443367" lon="11.40756"><ele>694.0</ele><time>2026-04-05T08:48:42.01Z</time></trkpt><trkpt lat="43.544195" lon="11.4076433"><ele>694.0</ele><time>2026-04-05T08:48:43.01Z</time></trkpt><trkpt lat="43.544065" lon="11.4077167"><ele>694.0</ele><time>2026-04-05T08:48:44.01Z</time></trkpt><trkpt lat="43.5439267" lon="11.4078017"><ele>694.0</ele><time>2026-04-05T08:48:45.01Z</time></trkpt><trkpt lat="43.543775" lon="11.4078883"><ele>690.3333333333334</ele><time>2026-04-05T08:48:46.01Z</time></trkpt><trkpt lat="43.543625" lon="11.4079733"><ele>686.6666666666666</ele><time>2026-04-05T08:48:47.01Z</time></trkpt><trkpt lat="43.543475" lon="11.40805"><ele>683.0</ele><time>2026-04-05T08:48:48.01Z</time></trkpt><trkpt lat="43.543325" lon="11.4081267"><ele>683.0</ele><time>2026-04-05T08:48:49.01Z</time></trkpt><trkpt lat="43.5431683" lon="11.4082033"><ele>683.0</ele><time>2026-04-05T08:48:50.01Z</time></trkpt><trkpt lat="43.543005" lon="11.4082833"><ele>683.0</ele><time>2026-04-05T08:48:51.01Z</time></trkpt><trkpt lat="43.5428333" lon="11.4083483"><ele>680.0</ele><time>2026-04-05T08:48:52.01Z</time></trkpt><trkpt lat="43.5426483" lon="11.408385"><ele>677.0</ele><time>2026-04-05T08:48:53.01Z</time></trkpt><trkpt lat="43.5424617" lon="11.408405"><ele>674.0</ele><time>2026-04-05T08:48:54.01Z</time></trkpt><trkpt lat="43.542265" lon="11.4084117"><ele>674.6666666666666</ele><time>2026-04-05T08:48:55.01Z</time></trkpt><trkpt lat="43.5420433" lon="11.4084083"><ele>675.3333333333334</ele><time>2026-04-05T08:48:56.01Z</time></trkpt><trkpt lat="43.541845" lon="11.4084033"><ele>676.0</ele><time>2026-04-05T08:48:57.01Z</time></trkpt><trkpt lat="43.541645" lon="11.4084033"><ele>676.0</ele><time>2026-04-05T08:48:58.01Z</time></trkpt><trkpt lat="43.541455" lon="11.4084033"><ele>676.0</ele><time>2026-04-05T08:48:59.01Z</time></trkpt><trkpt lat="43.541275" lon="11.4084017"><ele>676.0</ele><time>2026-04-05T08:49:00.01Z</time></trkpt><trkpt lat="43.5410983" lon="11.4084033"><ele>680.6666666666667</ele><time>2026-04-05T08:49:01.01Z</time></trkpt><trkpt lat="43.54092" lon="11.4084033"><ele>685.3333333333334</ele><time>2026-04-05T08:49:02.01Z</time></trkpt><trkpt lat="43.54075" lon="11.4083933"><ele>690.0</ele><time>2026-04-05T08:49:03.01Z</time></trkpt><trkpt lat="43.5405817" lon="11.408395"><ele>690.0</ele><time>2026-04-05T08:49:04.01Z</time></trkpt><trkpt lat="43.5404133" lon="11.4083983"><ele>690.0</ele><time>2026-04-05T08:49:05.01Z</time></trkpt><trkpt lat="43.540245" lon="11.4084"><ele>690.0</ele><time>2026-04-05T08:49:06.01Z</time></trkpt><trkpt lat="43.5400717" lon="11.4083983"><ele>693.0</ele><time>2026-04-05T08:49:07.01Z</time></trkpt><trkpt lat="43.5399033" lon="11.4083933"><ele>696.0</ele><time>2026-04-05T08:49:08.01Z</time></trkpt><trkpt lat="43.53975" lon="11.4083867"><ele>699.0</ele><time>2026-04-05T08:49:09.01Z</time></trkpt><trkpt lat="43.539605" lon="11.4083833"><ele>701.0</ele><time>2026-04-05T08:49:10.01Z</time></trkpt><trkpt lat="43.5394733" lon="11.4083833"><ele>703.0</ele><time>2026-04-05T08:49:11.01Z</time></trkpt><trkpt lat="43.53936" lon="11.408385"><ele>705.0</ele><time>2026-04-05T08:49:12.01Z</time></trkpt><trkpt lat="43.539245" lon="11.40842"><ele>707.0</ele><time>2026-04-05T08:49:13.01Z</time></trkpt><trkpt lat="43.53913" lon="11.40849"><ele>707.0</ele><time>2026-04-05T08:49:14.01Z</time></trkpt><trkpt lat="43.53903" lon="11.40859"><ele>707.0</ele><time>2026-04-05T08:49:15.01Z</time></trkpt><trkpt lat="43.5389367" lon="11.4087183"><ele>707.0</ele><time>2026-04-05T08:49:16.01Z</time></trkpt><trkpt lat="43.5388567" lon="11.4088683"><ele>707.0</ele><time>2026-04-05T08:49:17.01Z</time></trkpt><trkpt lat="43.5387867" lon="11.4090333"><ele>710.75</ele><time>2026-04-05T08:49:18.01Z</time></trkpt><trkpt lat="43.5387083" lon="11.4092033"><ele>714.5</ele><time>2026-04-05T08:49:19.01Z</time></trkpt><trkpt lat="43.5386367" lon="11.4093733"><ele>718.25</ele><time>2026-04-05T08:49:20.01Z</time></trkpt><trkpt lat="43.5385617" lon="11.4095533"><ele>722.0</ele><time>2026-04-05T08:49:21.01Z</time></trkpt><trkpt lat="43.5384883" lon="11.4097433"><ele>722.0</ele><time>2026-04-05T08:49:22.01Z</time></trkpt><trkpt lat="43.5384217" lon="11.4099133"><ele>722.0</ele><time>2026-04-05T08:49:23.01Z</time></trkpt><trkpt lat="43.5383467" lon="11.4100783"><ele>722.0</ele><time>2026-04-05T08:49:24.01Z</time></trkpt><trkpt lat="43.5382733" lon="11.4102133"><ele>722.0</ele><time>2026-04-05T08:49:25.01Z</time></trkpt><trkpt lat="43.5381933" lon="11.410355"><ele>722.0</ele><time>2026-04-05T08:49:26.01Z</time></trkpt><trkpt lat="43.538095" lon="11.4104867"><ele>722.0</ele><time>2026-04-05T08:49:27.01Z</time></trkpt><trkpt lat="43.5379817" lon="11.410605"><ele>722.0</ele><time>2026-04-05T08:49:28.01Z</time></trkpt><trkpt lat="43.5378533" lon="11.4107117"><ele>722.0</ele><time>2026-04-05T08:49:29.01Z</time></trkpt><trkpt lat="43.5377117" lon="11.4108083"><ele>719.6666666666666</ele><time>2026-04-05T08:49:30.01Z</time></trkpt><trkpt lat="43.537565" lon="11.4108733"><ele>717.3333333333334</ele><time>2026-04-05T08:49:31.01Z</time></trkpt><trkpt lat="43.5374083" lon="11.4109433"><ele>715.0</ele><time>2026-04-05T08:49:32.01Z</time></trkpt><trkpt lat="43.537265" lon="11.4110117"><ele>715.0</ele><time>2026-04-05T08:49:33.01Z</time></trkpt><trkpt lat="43.5371117" lon="11.411035"><ele>715.0</ele><time>2026-04-05T08:49:34.01Z</time></trkpt><trkpt lat="43.5369633" lon="11.411015"><ele>715.0</ele><time>2026-04-05T08:49:35.01Z</time></trkpt><trkpt lat="43.5368217" lon="11.4109667"><ele>715.0</ele><time>2026-04-05T08:49:36.01Z</time></trkpt><trkpt lat="43.5366667" lon="11.41089"><ele>712.0</ele><time>2026-04-05T08:49:37.01Z</time></trkpt><trkpt lat="43.5365117" lon="11.410825"><ele>709.0</ele><time>2026-04-05T08:49:38.01Z</time></trkpt><trkpt lat="43.5363533" lon="11.4108117"><ele>706.0</ele><time>2026-04-05T08:49:39.01Z</time></trkpt><trkpt lat="43.5362017" lon="11.41084"><ele>704.3333333333334</ele><time>2026-04-05T08:49:40.01Z</time></trkpt><trkpt lat="43.5360517" lon="11.4109083"><ele>702.6666666666666</ele><time>2026-04-05T08:49:41.01Z</time></trkpt><trkpt lat="43.535905" lon="11.4109667"><ele>701.0</ele><time>2026-04-05T08:49:42.01Z</time></trkpt><trkpt lat="43.5357567" lon="11.41103"><ele>701.0</ele><time>2026-04-05T08:49:43.01Z</time></trkpt><trkpt lat="43.5356067" lon="11.411075"><ele>701.0</ele><time>2026-04-05T08:49:44.01Z</time></trkpt><trkpt lat="43.5354667" lon="11.41111"><ele>701.0</ele><time>2026-04-05T08:49:45.01Z</time></trkpt><trkpt lat="43.5353233" lon="11.4111467"><ele>701.0</ele><time>2026-04-05T08:49:46.01Z</time></trkpt><trkpt lat="43.5351967" lon="11.4111917"><ele>702.0</ele><time>2026-04-05T08:49:47.01Z</time></trkpt><trkpt lat="43.535075" lon="11.411265"><ele>703.0</ele><time>2026-04-05T08:49:48.01Z</time></trkpt><trkpt lat="43.5349633" lon="11.4113567"><ele>704.0</ele><time>2026-04-05T08:49:49.01Z</time></trkpt><trkpt lat="43.5348583" lon="11.411445"><ele>705.0</ele><time>2026-04-05T08:49:50.01Z</time></trkpt><trkpt lat="43.5347467" lon="11.41153"><ele>705.0</ele><time>2026-04-05T08:49:51.01Z</time></trkpt><trkpt lat="43.53464" lon="11.4115983"><ele>705.0</ele><time>2026-04-05T08:49:52.01Z</time></trkpt><trkpt lat="43.5345283" lon="11.41164"><ele>705.0</ele><time>2026-04-05T08:49:53.01Z</time></trkpt><trkpt lat="43.5344133" lon="11.411625"><ele>705.0</ele><time>2026-04-05T08:49:54.01Z</time></trkpt><trkpt lat="43.534295" lon="11.411565"><ele>707.0</ele><time>2026-04-05T08:49:55.01Z</time></trkpt><trkpt lat="43.5342033" lon="11.4114617"><ele>709.0</ele><time>2026-04-05T08:49:56.01Z</time></trkpt><trkpt lat="43.5341" lon="11.4113533"><ele>711.0</ele><time>2026-04-05T08:49:57.01Z</time></trkpt><trkpt lat="43.5339833" lon="11.4112733"><ele>713.0</ele><time>2026-04-05T08:49:58.01Z</time></trkpt><trkpt lat="43.5338533" lon="11.41122"><ele>710.25</ele><time>2026-04-05T08:49:59.01Z</time></trkpt><trkpt lat="43.5337167" lon="11.4111583"><ele>707.5</ele><time>2026-04-05T08:50:00.01Z</time></trkpt><trkpt lat="43.533575" lon="11.41109"><ele>704.75</ele><time>2026-04-05T08:50:01.009Z</time></trkpt><trkpt lat="43.5334383" lon="11.4110233"><ele>702.0</ele><time>2026-04-05T08:50:02.01Z</time></trkpt><trkpt lat="43.5332933" lon="11.4109617"><ele>702.0</ele><time>2026-04-05T08:50:03.01Z</time></trkpt><trkpt lat="43.53315" lon="11.410905"><ele>702.0</ele><time>2026-04-05T08:50:04.01Z</time></trkpt><trkpt lat="43.5330117" lon="11.4108617"><ele>702.0</ele><time>2026-04-05T08:50:05.01Z</time></trkpt><trkpt lat="43.5328767" lon="11.4108333"><ele>702.0</ele><time>2026-04-05T08:50:06.01Z</time></trkpt><trkpt lat="43.5327433" lon="11.4108383"><ele>702.75</ele><time>2026-04-05T08:50:07.01Z</time></trkpt><trkpt lat="43.5326167" lon="11.4108717"><ele>703.5</ele><time>2026-04-05T08:50:08.01Z</time></trkpt><trkpt lat="43.5325" lon="11.4109417"><ele>704.25</ele><time>2026-04-05T08:50:09.01Z</time></trkpt><trkpt lat="43.532385" lon="11.4110233"><ele>705.0</ele><time>2026-04-05T08:50:10.01Z</time></trkpt><trkpt lat="43.53226" lon="11.4111217"><ele>705.0</ele><time>2026-04-05T08:50:11.01Z</time></trkpt><trkpt lat="43.5321333" lon="11.41121"><ele>705.0</ele><time>2026-04-05T08:50:12.01Z</time></trkpt><trkpt lat="43.5319983" lon="11.4113183"><ele>705.0</ele><time>2026-04-05T08:50:13.01Z</time></trkpt><trkpt lat="43.5318667" lon="11.4114317"><ele>704.3333333333334</ele><time>2026-04-05T08:50:14.01Z</time></trkpt><trkpt lat="43.5317467" lon="11.41156"><ele>703.6666666666667</ele><time>2026-04-05T08:50:15.01Z</time></trkpt><trkpt lat="43.5316317" lon="11.4117"><ele>703.0</ele><time>2026-04-05T08:50:16.01Z</time></trkpt><trkpt lat="43.5315233" lon="11.41185"><ele>703.0</ele><time>2026-04-05T08:50:17.01Z</time></trkpt><trkpt lat="43.5314133" lon="11.4120017"><ele>703.0</ele><time>2026-04-05T08:50:18.01Z</time></trkpt><trkpt lat="43.5313" lon="11.4121333"><ele>703.0</ele><time>2026-04-05T08:50:19.01Z</time></trkpt><trkpt lat="43.5311833" lon="11.4122533"><ele>703.0</ele><time>2026-04-05T08:50:20.01Z</time></trkpt><trkpt lat="43.5310717" lon="11.4123617"><ele>703.0</ele><time>2026-04-05T08:50:21.01Z</time></trkpt><trkpt lat="43.5309633" lon="11.41247"><ele>703.0</ele><time>2026-04-05T08:50:22.01Z</time></trkpt><trkpt lat="43.530855" lon="11.4125717"><ele>703.0</ele><time>2026-04-05T08:50:23.01Z</time></trkpt><trkpt lat="43.5307383" lon="11.4126567"><ele>703.0</ele><time>2026-04-05T08:50:24.01Z</time></trkpt><trkpt lat="43.5306133" lon="11.4127083"><ele>703.0</ele><time>2026-04-05T08:50:25.01Z</time></trkpt><trkpt lat="43.5304883" lon="11.4127167"><ele>703.0</ele><time>2026-04-05T08:50:26.01Z</time></trkpt><trkpt lat="43.53037" lon="11.41269"><ele>703.0</ele><time>2026-04-05T08:50:27.01Z</time></trkpt><trkpt lat="43.5302733" lon="11.4126217"><ele>703.0</ele><time>2026-04-05T08:50:28.01Z</time></trkpt><trkpt lat="43.5301683" lon="11.41255"><ele>703.5</ele><time>2026-04-05T08:50:29.01Z</time></trkpt><trkpt lat="43.530065" lon="11.4124567"><ele>704.0</ele><time>2026-04-05T08:50:30.01Z</time></trkpt><trkpt lat="43.5299517" lon="11.4123567"><ele>704.5</ele><time>2026-04-05T08:50:31.01Z</time></trkpt><trkpt lat="43.5298433" lon="11.4122667"><ele>705.0</ele><time>2026-04-05T08:50:32.01Z</time></trkpt><trkpt lat="43.5297433" lon="11.4122083"><ele>705.0</ele><time>2026-04-05T08:50:33.01Z</time></trkpt><trkpt lat="43.5296367" lon="11.412205"><ele>705.0</ele><time>2026-04-05T08:50:34.01Z</time></trkpt><trkpt lat="43.5295317" lon="11.412225"><ele>705.0</ele><time>2026-04-05T08:50:35.01Z</time></trkpt><trkpt lat="43.529425" lon="11.412255"><ele>705.0</ele><time>2026-04-05T08:50:36.01Z</time></trkpt><trkpt lat="43.52932" lon="11.412275"><ele>705.0</ele><time>2026-04-05T08:50:37.01Z</time></trkpt><trkpt lat="43.5292283" lon="11.41224"><ele>702.8</ele><time>2026-04-05T08:50:38.01Z</time></trkpt><trkpt lat="43.5291517" lon="11.4121533"><ele>700.6</ele><time>2026-04-05T08:50:39.01Z</time></trkpt><trkpt lat="43.52909" lon="11.412035"><ele>698.4000000000001</ele><time>2026-04-05T08:50:40.01Z</time></trkpt><trkpt lat="43.529035" lon="11.411895"><ele>696.2</ele><time>2026-04-05T08:50:41.01Z</time></trkpt><trkpt lat="43.5289983" lon="11.411735"><ele>694.0</ele><time>2026-04-05T08:50:42.01Z</time></trkpt><trkpt lat="43.528945" lon="11.4115883"><ele>694.0</ele><time>2026-04-05T08:50:43.01Z</time></trkpt><trkpt lat="43.5288867" lon="11.4114583"><ele>694.0</ele><time>2026-04-05T08:50:44.01Z</time></trkpt><trkpt lat="43.5288" lon="11.4113633"><ele>694.0</ele><time>2026-04-05T08:50:45.01Z</time></trkpt><trkpt lat="43.5286983" lon="11.4112933"><ele>694.0</ele><time>2026-04-05T08:50:46.01Z</time></trkpt><trkpt lat="43.528575" lon="11.411265"><ele>690.75</ele><time>2026-04-05T08:50:47.01Z</time></trkpt><trkpt lat="43.528445" lon="11.41126"><ele>687.5</ele><time>2026-04-05T08:50:48.01Z</time></trkpt><trkpt lat="43.5283" lon="11.4112583"><ele>684.25</ele><time>2026-04-05T08:50:49.01Z</time></trkpt><trkpt lat="43.5281517" lon="11.4112583"><ele>681.0</ele><time>2026-04-05T08:50:50.01Z</time></trkpt><trkpt lat="43.5280117" lon="11.41128"><ele>681.5</ele><time>2026-04-05T08:50:51.01Z</time></trkpt><trkpt lat="43.5278833" lon="11.4113233"><ele>682.0</ele><time>2026-04-05T08:50:52.01Z</time></trkpt><trkpt lat="43.5277683" lon="11.4113817"><ele>682.5</ele><time>2026-04-05T08:50:53.01Z</time></trkpt><trkpt lat="43.5276617" lon="11.4114217"><ele>683.0</ele><time>2026-04-05T08:50:54.01Z</time></trkpt><trkpt lat="43.5275633" lon="11.4113983"><ele>680.75</ele><time>2026-04-05T08:50:55.01Z</time></trkpt><trkpt lat="43.5274617" lon="11.4113217"><ele>678.5</ele><time>2026-04-05T08:50:56.01Z</time></trkpt><trkpt lat="43.5273767" lon="11.4112183"><ele>676.25</ele><time>2026-04-05T08:50:57.01Z</time></trkpt><trkpt lat="43.5272967" lon="11.4110817"><ele>674.0</ele><time>2026-04-05T08:50:58.01Z</time></trkpt><trkpt lat="43.5272067" lon="11.4109467"><ele>674.0</ele><time>2026-04-05T08:50:59.01Z</time></trkpt><trkpt lat="43.5271017" lon="11.410845"><ele>674.0</ele><time>2026-04-05T08:51:00.01Z</time></trkpt><trkpt lat="43.5269783" lon="11.4107467"><ele>674.0</ele><time>2026-04-05T08:51:01.01Z</time></trkpt><trkpt lat="43.52686" lon="11.4106767"><ele>674.0</ele><time>2026-04-05T08:51:02.01Z</time></trkpt><trkpt lat="43.5267567" lon="11.410595"><ele>674.0</ele><time>2026-04-05T08:51:03.01Z</time></trkpt><trkpt lat="43.5266633" lon="11.4104933"><ele>674.0</ele><time>2026-04-05T08:51:04.01Z</time></trkpt><trkpt lat="43.5265817" lon="11.41037"><ele>674.0</ele><time>2026-04-05T08:51:05.01Z</time></trkpt><trkpt lat="43.526505" lon="11.4102117"><ele>674.0</ele><time>2026-04-05T08:51:06.01Z</time></trkpt><trkpt lat="43.526435" lon="11.4100383"><ele>674.0</ele><time>2026-04-05T08:51:07.01Z</time></trkpt><trkpt lat="43.526355" lon="11.4098667"><ele>674.0</ele><time>2026-04-05T08:51:08.011Z</time></trkpt><trkpt lat="43.5262833" lon="11.4096883"><ele>674.0</ele><time>2026-04-05T08:51:09.01Z</time></trkpt><trkpt lat="43.5262167" lon="11.4095067"><ele>674.0</ele><time>2026-04-05T08:51:10.01Z</time></trkpt><trkpt lat="43.5261633" lon="11.40932"><ele>671.0</ele><time>2026-04-05T08:51:11.01Z</time></trkpt><trkpt lat="43.5260967" lon="11.409135"><ele>668.0</ele><time>2026-04-05T08:51:12.01Z</time></trkpt><trkpt lat="43.5260167" lon="11.40896"><ele>665.0</ele><time>2026-04-05T08:51:13.01Z</time></trkpt><trkpt lat="43.5259183" lon="11.4087917"><ele>665.0</ele><time>2026-04-05T08:51:14.01Z</time></trkpt><trkpt lat="43.5258133" lon="11.408655"><ele>665.0</ele><time>2026-04-05T08:51:15.01Z</time></trkpt><trkpt lat="43.5257033" lon="11.408535"><ele>665.0</ele><time>2026-04-05T08:51:16.01Z</time></trkpt><trkpt lat="43.52561" lon="11.408405"><ele>665.0</ele><time>2026-04-05T08:51:17.01Z</time></trkpt><trkpt lat="43.52553" lon="11.4082717"><ele>665.0</ele><time>2026-04-05T08:51:18.01Z</time></trkpt><trkpt lat="43.525465" lon="11.40813"><ele>665.0</ele><time>2026-04-05T08:51:19.01Z</time></trkpt><trkpt lat="43.5254067" lon="11.4079783"><ele>665.0</ele><time>2026-04-05T08:51:20.01Z</time></trkpt><trkpt lat="43.5253567" lon="11.4078167"><ele>665.0</ele><time>2026-04-05T08:51:21.01Z</time></trkpt><trkpt lat="43.5253083" lon="11.4076367"><ele>664.75</ele><time>2026-04-05T08:51:22.01Z</time></trkpt><trkpt lat="43.5252567" lon="11.4074567"><ele>664.5</ele><time>2026-04-05T08:51:23.01Z</time></trkpt><trkpt lat="43.525195" lon="11.4072883"><ele>664.25</ele><time>2026-04-05T08:51:24.01Z</time></trkpt><trkpt lat="43.5251133" lon="11.4071283"><ele>664.0</ele><time>2026-04-05T08:51:25.01Z</time></trkpt><trkpt lat="43.52502" lon="11.4069967"><ele>664.0</ele><time>2026-04-05T08:51:26.01Z</time></trkpt><trkpt lat="43.5249117" lon="11.4068783"><ele>664.0</ele><time>2026-04-05T08:51:27.01Z</time></trkpt><trkpt lat="43.5247983" lon="11.4067733"><ele>664.0</ele><time>2026-04-05T08:51:28.01Z</time></trkpt><trkpt lat="43.52468" lon="11.4066783"><ele>664.0</ele><time>2026-04-05T08:51:29.01Z</time></trkpt><trkpt lat="43.524575" lon="11.4065867"><ele>660.75</ele><time>2026-04-05T08:51:30.01Z</time></trkpt><trkpt lat="43.5244617" lon="11.4064883"><ele>657.5</ele><time>2026-04-05T08:51:31.01Z</time></trkpt><trkpt lat="43.5243483" lon="11.4063767"><ele>654.25</ele><time>2026-04-05T08:51:32.01Z</time></trkpt><trkpt lat="43.52424" lon="11.4062433"><ele>651.0</ele><time>2026-04-05T08:51:33.01Z</time></trkpt><trkpt lat="43.5241367" lon="11.4060967"><ele>651.0</ele><time>2026-04-05T08:51:34.01Z</time></trkpt><trkpt lat="43.524025" lon="11.4059517"><ele>651.0</ele><time>2026-04-05T08:51:35.01Z</time></trkpt><trkpt lat="43.5239167" lon="11.40581"><ele>651.0</ele><time>2026-04-05T08:51:36.01Z</time></trkpt><trkpt lat="43.523805" lon="11.40566"><ele>652.3333333333334</ele><time>2026-04-05T08:51:37.01Z</time></trkpt><trkpt lat="43.523685" lon="11.4055117"><ele>653.6666666666667</ele><time>2026-04-05T08:51:38.01Z</time></trkpt><trkpt lat="43.5235617" lon="11.4053867"><ele>655.0</ele><time>2026-04-05T08:51:39.01Z</time></trkpt><trkpt lat="43.5234433" lon="11.405285"><ele>655.0</ele><time>2026-04-05T08:51:40.01Z</time></trkpt><trkpt lat="43.5233133" lon="11.405225"><ele>655.0</ele><time>2026-04-05T08:51:41.01Z</time></trkpt><trkpt lat="43.5231867" lon="11.4051867"><ele>655.0</ele><time>2026-04-05T08:51:42.01Z</time></trkpt><trkpt lat="43.523075" lon="11.4051583"><ele>655.0</ele><time>2026-04-05T08:51:43.01Z</time></trkpt><trkpt lat="43.5229617" lon="11.4051233"><ele>652.0</ele><time>2026-04-05T08:51:44.01Z</time></trkpt><trkpt lat="43.52285" lon="11.4050867"><ele>649.0</ele><time>2026-04-05T08:51:45.01Z</time></trkpt><trkpt lat="43.522755" lon="11.4050233"><ele>646.0</ele><time>2026-04-05T08:51:46.01Z</time></trkpt><trkpt lat="43.5226683" lon="11.4049317"><ele>643.0</ele><time>2026-04-05T08:51:47.01Z</time></trkpt><trkpt lat="43.522585" lon="11.4048267"><ele>640.0</ele><time>2026-04-05T08:51:48.01Z</time></trkpt><trkpt lat="43.5224967" lon="11.40472"><ele>638.75</ele><time>2026-04-05T08:51:49.01Z</time></trkpt><trkpt lat="43.5224" lon="11.404615"><ele>637.5</ele><time>2026-04-05T08:51:50.01Z</time></trkpt><trkpt lat="43.5222883" lon="11.404535"><ele>636.25</ele><time>2026-04-05T08:51:51.01Z</time></trkpt><trkpt lat="43.5221567" lon="11.4044783"><ele>635.0</ele><time>2026-04-05T08:51:52.01Z</time></trkpt><trkpt lat="43.5219983" lon="11.4044317"><ele>635.0</ele><time>2026-04-05T08:51:53.01Z</time></trkpt><trkpt lat="43.5218267" lon="11.4044083"><ele>635.0</ele><time>2026-04-05T08:51:54.01Z</time></trkpt><trkpt lat="43.5216533" lon="11.4044"><ele>635.0</ele><time>2026-04-05T08:51:55.01Z</time></trkpt><trkpt lat="43.52146" lon="11.40437"><ele>635.0</ele><time>2026-04-05T08:51:56.01Z</time></trkpt><trkpt lat="43.5212583" lon="11.4043333"><ele>635.0</ele><time>2026-04-05T08:51:57.01Z</time></trkpt><trkpt lat="43.52106" lon="11.4042817"><ele>635.0</ele><time>2026-04-05T08:51:58.01Z</time></trkpt><trkpt lat="43.52086" lon="11.40422"><ele>631.0</ele><time>2026-04-05T08:51:59.01Z</time></trkpt><trkpt lat="43.5206583" lon="11.4041317"><ele>627.0</ele><time>2026-04-05T08:52:00.01Z</time></trkpt><trkpt lat="43.5204483" lon="11.4040433"><ele>623.0</ele><time>2026-04-05T08:52:01.01Z</time></trkpt><trkpt lat="43.5202533" lon="11.4039617"><ele>622.0</ele><time>2026-04-05T08:52:02.01Z</time></trkpt><trkpt lat="43.5200533" lon="11.40389"><ele>621.0</ele><time>2026-04-05T08:52:03.01Z</time></trkpt><trkpt lat="43.51986" lon="11.40383"><ele>620.0</ele><time>2026-04-05T08:52:04.01Z</time></trkpt><trkpt lat="43.5196667" lon="11.403785"><ele>617.3333333333333</ele><time>2026-04-05T08:52:05.01Z</time></trkpt><trkpt lat="43.519475" lon="11.4037583"><ele>614.6666666666666</ele><time>2026-04-05T08:52:06.01Z</time></trkpt><trkpt lat="43.5192833" lon="11.403755"><ele>612.0</ele><time>2026-04-05T08:52:07.01Z</time></trkpt><trkpt lat="43.519095" lon="11.4037767"><ele>612.0</ele><time>2026-04-05T08:52:08.01Z</time></trkpt><trkpt lat="43.5189" lon="11.4038067"><ele>612.0</ele><time>2026-04-05T08:52:09.01Z</time></trkpt><trkpt lat="43.5187067" lon="11.4038583"><ele>612.0</ele><time>2026-04-05T08:52:10.01Z</time></trkpt><trkpt lat="43.518515" lon="11.4039267"><ele>605.6666666666666</ele><time>2026-04-05T08:52:11.01Z</time></trkpt><trkpt lat="43.5183283" lon="11.4039983"><ele>599.3333333333333</ele><time>2026-04-05T08:52:12.01Z</time></trkpt><trkpt lat="43.5181483" lon="11.4040617"><ele>593.0</ele><time>2026-04-05T08:52:13.01Z</time></trkpt><trkpt lat="43.5179767" lon="11.40411"><ele>588.6666666666666</ele><time>2026-04-05T08:52:14.01Z</time></trkpt><trkpt lat="43.5178183" lon="11.4041417"><ele>584.3333333333334</ele><time>2026-04-05T08:52:15.01Z</time></trkpt><trkpt lat="43.5176633" lon="11.40419"><ele>580.0</ele><time>2026-04-05T08:52:16.01Z</time></trkpt><trkpt lat="43.517505" lon="11.404255"><ele>580.0</ele><time>2026-04-05T08:52:17.01Z</time></trkpt><trkpt lat="43.5173567" lon="11.40433"><ele>580.0</ele><time>2026-04-05T08:52:18.01Z</time></trkpt><trkpt lat="43.5172333" lon="11.4043967"><ele>580.0</ele><time>2026-04-05T08:52:19.01Z</time></trkpt><trkpt lat="43.5171217" lon="11.40447"><ele>580.0</ele><time>2026-04-05T08:52:20.01Z</time></trkpt><trkpt lat="43.5170167" lon="11.404545"><ele>577.6666666666667</ele><time>2026-04-05T08:52:21.01Z</time></trkpt><trkpt lat="43.5169183" lon="11.4046117"><ele>575.3333333333334</ele><time>2026-04-05T08:52:22.01Z</time></trkpt><trkpt lat="43.5168417" lon="11.40467"><ele>573.0</ele><time>2026-04-05T08:52:23.01Z</time></trkpt><trkpt lat="43.5167767" lon="11.4047367"><ele>570.6666666666666</ele><time>2026-04-05T08:52:24.01Z</time></trkpt><trkpt lat="43.5167433" lon="11.4048233"><ele>568.3333333333333</ele><time>2026-04-05T08:52:25.01Z</time></trkpt><trkpt lat="43.51673" lon="11.4049317"><ele>566.0</ele><time>2026-04-05T08:52:26.01Z</time></trkpt><trkpt lat="43.5167567" lon="11.4050433"><ele>566.0</ele><time>2026-04-05T08:52:27.01Z</time></trkpt><trkpt lat="43.5168017" lon="11.40516"><ele>566.0</ele><time>2026-04-05T08:52:28.01Z</time></trkpt><trkpt lat="43.5168283" lon="11.4052717"><ele>566.0</ele><time>2026-04-05T08:52:29.01Z</time></trkpt><trkpt lat="43.5168267" lon="11.4053817"><ele>566.0</ele><time>2026-04-05T08:52:30.01Z</time></trkpt><trkpt lat="43.51679" lon="11.4054933"><ele>566.0</ele><time>2026-04-05T08:52:31.01Z</time></trkpt><trkpt lat="43.5167217" lon="11.4055717"><ele>566.0</ele><time>2026-04-05T08:52:32.01Z</time></trkpt><trkpt lat="43.5166283" lon="11.4056117"><ele>564.0</ele><time>2026-04-05T08:52:33.01Z</time></trkpt><trkpt lat="43.516515" lon="11.4056117"><ele>562.0</ele><time>2026-04-05T08:52:34.01Z</time></trkpt><trkpt lat="43.5163833" lon="11.40558"><ele>560.0</ele><time>2026-04-05T08:52:35.01Z</time></trkpt><trkpt lat="43.5162633" lon="11.4055283"><ele>558.0</ele><time>2026-04-05T08:52:36.01Z</time></trkpt><trkpt lat="43.5161633" lon="11.4054867"><ele>556.6</ele><time>2026-04-05T08:52:37.01Z</time></trkpt><trkpt lat="43.5160817" lon="11.405475"><ele>555.1999999999999</ele><time>2026-04-05T08:52:38.01Z</time></trkpt><trkpt lat="43.515975" lon="11.40557"><ele>553.8</ele><time>2026-04-05T08:52:40.01Z</time></trkpt><trkpt lat="43.5159533" lon="11.4056633"><ele>552.4</ele><time>2026-04-05T08:52:41.01Z</time></trkpt><trkpt lat="43.5159517" lon="11.4057833"><ele>551.0</ele><time>2026-04-05T08:52:42.01Z</time></trkpt><trkpt lat="43.5159733" lon="11.4059033"><ele>550.4</ele><time>2026-04-05T08:52:43.01Z</time></trkpt><trkpt lat="43.5159933" lon="11.40602"><ele>549.8</ele><time>2026-04-05T08:52:44.01Z</time></trkpt><trkpt lat="43.5159717" lon="11.4061367"><ele>549.1999999999999</ele><time>2026-04-05T08:52:45.01Z</time></trkpt><trkpt lat="43.5159183" lon="11.4062367"><ele>548.6</ele><time>2026-04-05T08:52:46.01Z</time></trkpt><trkpt lat="43.5158333" lon="11.4063167"><ele>548.0</ele><time>2026-04-05T08:52:47.01Z</time></trkpt><trkpt lat="43.5157183" lon="11.4063633"><ele>548.0</ele><time>2026-04-05T08:52:48.01Z</time></trkpt><trkpt lat="43.5155783" lon="11.40635"><ele>548.0</ele><time>2026-04-05T08:52:49.01Z</time></trkpt><trkpt lat="43.5154383" lon="11.406315"><ele>548.0</ele><time>2026-04-05T08:52:50.01Z</time></trkpt><trkpt lat="43.5152967" lon="11.4062833"><ele>548.0</ele><time>2026-04-05T08:52:51.01Z</time></trkpt><trkpt lat="43.515165" lon="11.406265"><ele>544.5</ele><time>2026-04-05T08:52:52.01Z</time></trkpt><trkpt lat="43.5150333" lon="11.4062833"><ele>541.0</ele><time>2026-04-05T08:52:53.01Z</time></trkpt><trkpt lat="43.5149083" lon="11.4063433"><ele>537.5</ele><time>2026-04-05T08:52:54.01Z</time></trkpt><trkpt lat="43.5147917" lon="11.40644"><ele>534.0</ele><time>2026-04-05T08:52:55.01Z</time></trkpt><trkpt lat="43.51468" lon="11.406555"><ele>530.0</ele><time>2026-04-05T08:52:56.01Z</time></trkpt><trkpt lat="43.51457" lon="11.4066783"><ele>526.0</ele><time>2026-04-05T08:52:57.01Z</time></trkpt><trkpt lat="43.5144567" lon="11.4067983"><ele>522.0</ele><time>2026-04-05T08:52:58.01Z</time></trkpt><trkpt lat="43.5143467" lon="11.4069133"><ele>518.0</ele><time>2026-04-05T08:52:59.01Z</time></trkpt><trkpt lat="43.51424" lon="11.40702"><ele>518.0</ele><time>2026-04-05T08:53:00.01Z</time></trkpt><trkpt lat="43.51413" lon="11.4071217"><ele>518.0</ele><time>2026-04-05T08:53:01.01Z</time></trkpt><trkpt lat="43.5140133" lon="11.4072017"><ele>518.0</ele><time>2026-04-05T08:53:02.01Z</time></trkpt><trkpt lat="43.513895" lon="11.4072617"><ele>518.0</ele><time>2026-04-05T08:53:03.01Z</time></trkpt><trkpt lat="43.513775" lon="11.407295"><ele>516.0</ele><time>2026-04-05T08:53:04.01Z</time></trkpt><trkpt lat="43.5136617" lon="11.4073133"><ele>514.0</ele><time>2026-04-05T08:53:05.01Z</time></trkpt><trkpt lat="43.5135533" lon="11.4073183"><ele>512.0</ele><time>2026-04-05T08:53:06.01Z</time></trkpt><trkpt lat="43.51344" lon="11.4073"><ele>510.0</ele><time>2026-04-05T08:53:07.01Z</time></trkpt><trkpt lat="43.5133183" lon="11.4072683"><ele>510.0</ele><time>2026-04-05T08:53:08.01Z</time></trkpt><trkpt lat="43.5131967" lon="11.4072167"><ele>510.0</ele><time>2026-04-05T08:53:09.01Z</time></trkpt><trkpt lat="43.5130717" lon="11.40717"><ele>510.0</ele><time>2026-04-05T08:53:10.01Z</time></trkpt><trkpt lat="43.5129533" lon="11.407125"><ele>510.0</ele><time>2026-04-05T08:53:11.01Z</time></trkpt><trkpt lat="43.5128383" lon="11.407075"><ele>508.0</ele><time>2026-04-05T08:53:12.01Z</time></trkpt><trkpt lat="43.5127417" lon="11.4070383"><ele>506.0</ele><time>2026-04-05T08:53:13.01Z</time></trkpt><trkpt lat="43.5126567" lon="11.4070183"><ele>504.0</ele><time>2026-04-05T08:53:14.01Z</time></trkpt><trkpt lat="43.512585" lon="11.4070417"><ele>502.0</ele><time>2026-04-05T08:53:15.01Z</time></trkpt><trkpt lat="43.5125233" lon="11.4071"><ele>500.0</ele><time>2026-04-05T08:53:16.01Z</time></trkpt><trkpt lat="43.5124867" lon="11.4071917"><ele>498.0</ele><time>2026-04-05T08:53:17.01Z</time></trkpt><trkpt lat="43.5124767" lon="11.4073117"><ele>498.0</ele><time>2026-04-05T08:53:18.01Z</time></trkpt><trkpt lat="43.5124833" lon="11.4074517"><ele>497.99999999999994</ele><time>2026-04-05T08:53:19.01Z</time></trkpt><trkpt lat="43.51249" lon="11.4075933"><ele>497.99999999999994</ele><time>2026-04-05T08:53:20.01Z</time></trkpt><trkpt lat="43.5125" lon="11.40773"><ele>498.0</ele><time>2026-04-05T08:53:21.01Z</time></trkpt><trkpt lat="43.5125083" lon="11.407845"><ele>498.0</ele><time>2026-04-05T08:53:22.01Z</time></trkpt><trkpt lat="43.5125033" lon="11.4079383"><ele>498.0</ele><time>2026-04-05T08:53:23.01Z</time></trkpt><trkpt lat="43.512405" lon="11.408025"><ele>497.99999999999994</ele><time>2026-04-05T08:53:25.01Z</time></trkpt><trkpt lat="43.5123383" lon="11.4080017"><ele>497.99999999999994</ele><time>2026-04-05T08:53:26.01Z</time></trkpt><trkpt lat="43.5122583" lon="11.4079317"><ele>498.0</ele><time>2026-04-05T08:53:27.01Z</time></trkpt><trkpt lat="43.5121683" lon="11.40782"><ele>498.0</ele><time>2026-04-05T08:53:28.01Z</time></trkpt><trkpt lat="43.51207" lon="11.4076933"><ele>494.0</ele><time>2026-04-05T08:53:29.01Z</time></trkpt><trkpt lat="43.5119667" lon="11.4075817"><ele>490.0</ele><time>2026-04-05T08:53:30.01Z</time></trkpt><trkpt lat="43.5118583" lon="11.4074567"><ele>486.0</ele><time>2026-04-05T08:53:31.01Z</time></trkpt><trkpt lat="43.5117517" lon="11.4073117"><ele>482.0</ele><time>2026-04-05T08:53:32.01Z</time></trkpt><trkpt lat="43.5116667" lon="11.407145"><ele>482.0</ele><time>2026-04-05T08:53:33.01Z</time></trkpt><trkpt lat="43.5116083" lon="11.4069717"><ele>482.0</ele><time>2026-04-05T08:53:34.01Z</time></trkpt><trkpt lat="43.5115717" lon="11.40679"><ele>482.0</ele><time>2026-04-05T08:53:35.01Z</time></trkpt><trkpt lat="43.5115617" lon="11.4066067"><ele>482.0</ele><time>2026-04-05T08:53:36.01Z</time></trkpt><trkpt lat="43.5115717" lon="11.4064417"><ele>481.6</ele><time>2026-04-05T08:53:37.01Z</time></trkpt><trkpt lat="43.5115767" lon="11.4062767"><ele>481.20000000000005</ele><time>2026-04-05T08:53:38.01Z</time></trkpt><trkpt lat="43.511585" lon="11.4061367"><ele>480.8</ele><time>2026-04-05T08:53:39.01Z</time></trkpt><trkpt lat="43.51157" lon="11.406015"><ele>480.4</ele><time>2026-04-05T08:53:40.01Z</time></trkpt><trkpt lat="43.5115367" lon="11.405905"><ele>480.0</ele><time>2026-04-05T08:53:41.01Z</time></trkpt><trkpt lat="43.51148" lon="11.4058083"><ele>480.0</ele><time>2026-04-05T08:53:42.01Z</time></trkpt><trkpt lat="43.5113983" lon="11.40574"><ele>480.0</ele><time>2026-04-05T08:53:43.01Z</time></trkpt><trkpt lat="43.5112867" lon="11.4057183"><ele>480.0</ele><time>2026-04-05T08:53:44.01Z</time></trkpt><trkpt lat="43.5111533" lon="11.405715"><ele>480.0</ele><time>2026-04-05T08:53:45.01Z</time></trkpt><trkpt lat="43.511005" lon="11.405705"><ele>477.0</ele><time>2026-04-05T08:53:46.01Z</time></trkpt><trkpt lat="43.51087" lon="11.40568"><ele>474.0</ele><time>2026-04-05T08:53:47.01Z</time></trkpt><trkpt lat="43.5107383" lon="11.40564"><ele>471.0</ele><time>2026-04-05T08:53:48.01Z</time></trkpt><trkpt lat="43.5106067" lon="11.40559"><ele>468.0</ele><time>2026-04-05T08:53:49.01Z</time></trkpt><trkpt lat="43.510485" lon="11.4055433"><ele>468.0</ele><time>2026-04-05T08:53:50.01Z</time></trkpt><trkpt lat="43.5103583" lon="11.4055233"><ele>467.99999999999994</ele><time>2026-04-05T08:53:51.01Z</time></trkpt><trkpt lat="43.5102483" lon="11.405505"><ele>467.99999999999994</ele><time>2026-04-05T08:53:52.01Z</time></trkpt><trkpt lat="43.510155" lon="11.4054783"><ele>468.0</ele><time>2026-04-05T08:53:53.01Z</time></trkpt><trkpt lat="43.5100867" lon="11.4054217"><ele>468.0</ele><time>2026-04-05T08:53:54.01Z</time></trkpt><trkpt lat="43.5100317" lon="11.4053267"><ele>468.0</ele><time>2026-04-05T08:53:55.01Z</time></trkpt><trkpt lat="43.5099983" lon="11.4051867"><ele>468.0</ele><time>2026-04-05T08:53:56.01Z</time></trkpt><trkpt lat="43.5099833" lon="11.4050117"><ele>468.0</ele><time>2026-04-05T08:53:57.01Z</time></trkpt><trkpt lat="43.5099767" lon="11.4048267"><ele>468.0</ele><time>2026-04-05T08:53:58.01Z</time></trkpt><trkpt lat="43.50996" lon="11.40466"><ele>466.75</ele><time>2026-04-05T08:53:59.01Z</time></trkpt><trkpt lat="43.5099367" lon="11.4045017"><ele>465.5</ele><time>2026-04-05T08:54:00.01Z</time></trkpt><trkpt lat="43.5099033" lon="11.4043433"><ele>464.25</ele><time>2026-04-05T08:54:01.01Z</time></trkpt><trkpt lat="43.509865" lon="11.404185"><ele>463.0</ele><time>2026-04-05T08:54:02.01Z</time></trkpt><trkpt lat="43.5098133" lon="11.4040333"><ele>463.0</ele><time>2026-04-05T08:54:03.01Z</time></trkpt><trkpt lat="43.50976" lon="11.4038967"><ele>462.99999999999994</ele><time>2026-04-05T08:54:04.01Z</time></trkpt><trkpt lat="43.5097183" lon="11.4037667"><ele>462.99999999999994</ele><time>2026-04-05T08:54:05.01Z</time></trkpt><trkpt lat="43.5096817" lon="11.4036383"><ele>463.0</ele><time>2026-04-05T08:54:06.01Z</time></trkpt><trkpt lat="43.5096417" lon="11.4035183"><ele>463.0</ele><time>2026-04-05T08:54:07.01Z</time></trkpt><trkpt lat="43.5096" lon="11.4033917"><ele>463.2</ele><time>2026-04-05T08:54:08.01Z</time></trkpt><trkpt lat="43.5095567" lon="11.40327"><ele>463.4</ele><time>2026-04-05T08:54:09.01Z</time></trkpt><trkpt lat="43.509515" lon="11.4031433"><ele>463.59999999999997</ele><time>2026-04-05T08:54:10.01Z</time></trkpt><trkpt lat="43.50946" lon="11.4030583"><ele>463.79999999999995</ele><time>2026-04-05T08:54:11.01Z</time></trkpt><trkpt lat="43.5093767" lon="11.4029567"><ele>464.0</ele><time>2026-04-05T08:54:12.01Z</time></trkpt><trkpt lat="43.5092767" lon="11.4028817"><ele>462.75</ele><time>2026-04-05T08:54:13.01Z</time></trkpt><trkpt lat="43.5091533" lon="11.4028333"><ele>461.5</ele><time>2026-04-05T08:54:14.01Z</time></trkpt><trkpt lat="43.5090083" lon="11.4028083"><ele>460.25</ele><time>2026-04-05T08:54:15.01Z</time></trkpt><trkpt lat="43.5088633" lon="11.4027983"><ele>459.0</ele><time>2026-04-05T08:54:16.01Z</time></trkpt><trkpt lat="43.5087117" lon="11.4027667"><ele>455.0</ele><time>2026-04-05T08:54:17.01Z</time></trkpt><trkpt lat="43.5085567" lon="11.4027333"><ele>451.0</ele><time>2026-04-05T08:54:18.01Z</time></trkpt><trkpt lat="43.508405" lon="11.40271"><ele>447.0</ele><time>2026-04-05T08:54:19.01Z</time></trkpt><trkpt lat="43.5082517" lon="11.402685"><ele>447.0</ele><time>2026-04-05T08:54:20.01Z</time></trkpt><trkpt lat="43.5081" lon="11.4026567"><ele>447.0</ele><time>2026-04-05T08:54:21.01Z</time></trkpt><trkpt lat="43.50795" lon="11.40263"><ele>447.0</ele><time>2026-04-05T08:54:22.01Z</time></trkpt><trkpt lat="43.5077983" lon="11.4026017"><ele>445.0</ele><time>2026-04-05T08:54:23.01Z</time></trkpt><trkpt lat="43.5076517" lon="11.4025517"><ele>443.0</ele><time>2026-04-05T08:54:24.01Z</time></trkpt><trkpt lat="43.507495" lon="11.4024983"><ele>441.0</ele><time>2026-04-05T08:54:25.01Z</time></trkpt><trkpt lat="43.50734" lon="11.402445"><ele>441.0</ele><time>2026-04-05T08:54:26.01Z</time></trkpt><trkpt lat="43.5071817" lon="11.4023883"><ele>441.0</ele><time>2026-04-05T08:54:27.01Z</time></trkpt><trkpt lat="43.5070233" lon="11.402315"><ele>441.0</ele><time>2026-04-05T08:54:28.01Z</time></trkpt><trkpt lat="43.506875" lon="11.4022233"><ele>434.5</ele><time>2026-04-05T08:54:29.01Z</time></trkpt><trkpt lat="43.5067433" lon="11.4021167"><ele>428.0</ele><time>2026-04-05T08:54:30.01Z</time></trkpt><trkpt lat="43.5066267" lon="11.4020083"><ele>421.5</ele><time>2026-04-05T08:54:31.01Z</time></trkpt><trkpt lat="43.5065283" lon="11.4019033"><ele>415.0</ele><time>2026-04-05T08:54:32.01Z</time></trkpt><trkpt lat="43.5064517" lon="11.40181"><ele>415.0</ele><time>2026-04-05T08:54:33.01Z</time></trkpt><trkpt lat="43.50637" lon="11.4017317"><ele>415.0</ele><time>2026-04-05T08:54:34.01Z</time></trkpt><trkpt lat="43.5062867" lon="11.4016667"><ele>415.0</ele><time>2026-04-05T08:54:35.01Z</time></trkpt><trkpt lat="43.5061883" lon="11.4016267"><ele>415.0</ele><time>2026-04-05T08:54:36.01Z</time></trkpt><trkpt lat="43.506095" lon="11.4016033"><ele>415.0</ele><time>2026-04-05T08:54:37.01Z</time></trkpt><trkpt lat="43.5060117" lon="11.40159"><ele>413.83333333333337</ele><time>2026-04-05T08:54:38.01Z</time></trkpt><trkpt lat="43.505935" lon="11.4015717"><ele>412.6666666666667</ele><time>2026-04-05T08:54:39.01Z</time></trkpt><trkpt lat="43.5058783" lon="11.401525"><ele>411.5</ele><time>2026-04-05T08:54:40.01Z</time></trkpt><trkpt lat="43.5058383" lon="11.4013633"><ele>410.33333333333337</ele><time>2026-04-05T08:54:42.01Z</time></trkpt><trkpt lat="43.5058683" lon="11.401265"><ele>409.1666666666667</ele><time>2026-04-05T08:54:43.01Z</time></trkpt><trkpt lat="43.505925" lon="11.401165"><ele>408.0</ele><time>2026-04-05T08:54:44.01Z</time></trkpt><trkpt lat="43.506005" lon="11.401095"><ele>408.5</ele><time>2026-04-05T08:54:45.01Z</time></trkpt><trkpt lat="43.50609" lon="11.4010517"><ele>409.0</ele><time>2026-04-05T08:54:46.01Z</time></trkpt><trkpt lat="43.5061767" lon="11.401035"><ele>409.5</ele><time>2026-04-05T08:54:47.01Z</time></trkpt><trkpt lat="43.5062617" lon="11.4009967"><ele>410.0</ele><time>2026-04-05T08:54:48.01Z</time></trkpt><trkpt lat="43.506325" lon="11.4009233"><ele>410.5</ele><time>2026-04-05T08:54:49.01Z</time></trkpt><trkpt lat="43.50636" lon="11.4008283"><ele>411.0</ele><time>2026-04-05T08:54:50.01Z</time></trkpt><trkpt lat="43.5063667" lon="11.4007283"><ele>411.0</ele><time>2026-04-05T08:54:51.01Z</time></trkpt><trkpt lat="43.5063367" lon="11.40063"><ele>411.0</ele><time>2026-04-05T08:54:52.01Z</time></trkpt><trkpt lat="43.50627" lon="11.400545"><ele>411.0</ele><time>2026-04-05T08:54:53.01Z</time></trkpt><trkpt lat="43.5061683" lon="11.4004783"><ele>411.0</ele><time>2026-04-05T08:54:54.01Z</time></trkpt><trkpt lat="43.5060367" lon="11.4004333"><ele>411.0</ele><time>2026-04-05T08:54:55.01Z</time></trkpt><trkpt lat="43.5058967" lon="11.40038"><ele>408.0</ele><time>2026-04-05T08:54:56.01Z</time></trkpt><trkpt lat="43.5057533" lon="11.4003167"><ele>405.0</ele><time>2026-04-05T08:54:57.01Z</time></trkpt><trkpt lat="43.5056083" lon="11.4002567"><ele>402.0</ele><time>2026-04-05T08:54:58.01Z</time></trkpt><trkpt lat="43.5054583" lon="11.4002017"><ele>398.0</ele><time>2026-04-05T08:54:59.01Z</time></trkpt><trkpt lat="43.50531" lon="11.4001367"><ele>394.0</ele><time>2026-04-05T08:55:00.01Z</time></trkpt><trkpt lat="43.50517" lon="11.400075"><ele>390.0</ele><time>2026-04-05T08:55:01.01Z</time></trkpt><trkpt lat="43.5050317" lon="11.4000017"><ele>390.0</ele><time>2026-04-05T08:55:02.01Z</time></trkpt><trkpt lat="43.5049017" lon="11.3999083"><ele>390.0</ele><time>2026-04-05T08:55:03.01Z</time></trkpt><trkpt lat="43.5047917" lon="11.399785"><ele>390.0</ele><time>2026-04-05T08:55:04.01Z</time></trkpt><trkpt lat="43.504695" lon="11.3996333"><ele>390.0</ele><time>2026-04-05T08:55:05.01Z</time></trkpt><trkpt lat="43.50463" lon="11.3994617"><ele>389.75</ele><time>2026-04-05T08:55:06.01Z</time></trkpt><trkpt lat="43.5045733" lon="11.39929"><ele>389.5</ele><time>2026-04-05T08:55:07.01Z</time></trkpt><trkpt lat="43.5045117" lon="11.3991233"><ele>389.25</ele><time>2026-04-05T08:55:08.01Z</time></trkpt><trkpt lat="43.504435" lon="11.398965"><ele>389.0</ele><time>2026-04-05T08:55:09.01Z</time></trkpt><trkpt lat="43.5043483" lon="11.3988033"><ele>388.5</ele><time>2026-04-05T08:55:10.01Z</time></trkpt><trkpt lat="43.5042567" lon="11.3986383"><ele>388.0</ele><time>2026-04-05T08:55:11.01Z</time></trkpt><trkpt lat="43.5041683" lon="11.3984817"><ele>387.5</ele><time>2026-04-05T08:55:12.01Z</time></trkpt><trkpt lat="43.50408" lon="11.3983283"><ele>387.0</ele><time>2026-04-05T08:55:13.01Z</time></trkpt><trkpt lat="43.5039817" lon="11.398175"><ele>387.0</ele><time>2026-04-05T08:55:14.01Z</time></trkpt><trkpt lat="43.50389" lon="11.3980267"><ele>387.0</ele><time>2026-04-05T08:55:15.01Z</time></trkpt><trkpt lat="43.5037933" lon="11.3978783"><ele>387.0</ele><time>2026-04-05T08:55:16.01Z</time></trkpt><trkpt lat="43.5036967" lon="11.3977333"><ele>387.0</ele><time>2026-04-05T08:55:17.01Z</time></trkpt><trkpt lat="43.50359" lon="11.3975983"><ele>385.3333333333333</ele><time>2026-04-05T08:55:18.01Z</time></trkpt><trkpt lat="43.5034767" lon="11.3974633"><ele>383.66666666666663</ele><time>2026-04-05T08:55:19.01Z</time></trkpt><trkpt lat="43.503355" lon="11.39733"><ele>382.0</ele><time>2026-04-05T08:55:20.01Z</time></trkpt><trkpt lat="43.5032267" lon="11.3972083"><ele>380.66666666666663</ele><time>2026-04-05T08:55:21.01Z</time></trkpt><trkpt lat="43.5030933" lon="11.3970783"><ele>379.3333333333333</ele><time>2026-04-05T08:55:22.01Z</time></trkpt><trkpt lat="43.5029667" lon="11.396965"><ele>378.0</ele><time>2026-04-05T08:55:23.01Z</time></trkpt><trkpt lat="43.5028333" lon="11.3968467"><ele>378.0</ele><time>2026-04-05T08:55:24.01Z</time></trkpt><trkpt lat="43.5026983" lon="11.396725"><ele>378.0</ele><time>2026-04-05T08:55:25.01Z</time></trkpt><trkpt lat="43.5025633" lon="11.396595"><ele>378.0</ele><time>2026-04-05T08:55:26.01Z</time></trkpt><trkpt lat="43.502425" lon="11.3964833"><ele>378.0</ele><time>2026-04-05T08:55:27.01Z</time></trkpt><trkpt lat="43.50228" lon="11.3963717"><ele>378.0</ele><time>2026-04-05T08:55:28.01Z</time></trkpt><trkpt lat="43.502145" lon="11.39627"><ele>378.0</ele><time>2026-04-05T08:55:29.01Z</time></trkpt><trkpt lat="43.5020217" lon="11.3961617"><ele>377.5</ele><time>2026-04-05T08:55:30.01Z</time></trkpt><trkpt lat="43.501905" lon="11.3960433"><ele>377.0</ele><time>2026-04-05T08:55:31.01Z</time></trkpt><trkpt lat="43.5017833" lon="11.39594"><ele>376.5</ele><time>2026-04-05T08:55:32.01Z</time></trkpt><trkpt lat="43.50166" lon="11.3958383"><ele>376.0</ele><time>2026-04-05T08:55:33.01Z</time></trkpt><trkpt lat="43.5015433" lon="11.395735"><ele>376.0</ele><time>2026-04-05T08:55:34.01Z</time></trkpt><trkpt lat="43.5014333" lon="11.3956367"><ele>376.0</ele><time>2026-04-05T08:55:35.01Z</time></trkpt><trkpt lat="43.50133" lon="11.3955333"><ele>376.0</ele><time>2026-04-05T08:55:36.01Z</time></trkpt><trkpt lat="43.50122" lon="11.3954317"><ele>376.0</ele><time>2026-04-05T08:55:37.01Z</time></trkpt><trkpt lat="43.5011033" lon="11.3953283"><ele>375.75</ele><time>2026-04-05T08:55:38.01Z</time></trkpt><trkpt lat="43.50099" lon="11.3952217"><ele>375.5</ele><time>2026-04-05T08:55:39.01Z</time></trkpt><trkpt lat="43.5008733" lon="11.3951133"><ele>375.25</ele><time>2026-04-05T08:55:40.01Z</time></trkpt><trkpt lat="43.5007483" lon="11.395"><ele>375.0</ele><time>2026-04-05T08:55:41.01Z</time></trkpt><trkpt lat="43.5006267" lon="11.394885"><ele>375.0</ele><time>2026-04-05T08:55:42.01Z</time></trkpt><trkpt lat="43.5005017" lon="11.3947783"><ele>375.0</ele><time>2026-04-05T08:55:43.01Z</time></trkpt><trkpt lat="43.50038" lon="11.39467"><ele>375.0</ele><time>2026-04-05T08:55:44.01Z</time></trkpt><trkpt lat="43.500255" lon="11.3945567"><ele>375.0</ele><time>2026-04-05T08:55:45.01Z</time></trkpt><trkpt lat="43.5001317" lon="11.394445"><ele>373.6666666666667</ele><time>2026-04-05T08:55:46.01Z</time></trkpt><trkpt lat="43.5" lon="11.394335"><ele>372.33333333333337</ele><time>2026-04-05T08:55:47.01Z</time></trkpt><trkpt lat="43.4998683" lon="11.3942367"><ele>371.0</ele><time>2026-04-05T08:55:48.01Z</time></trkpt><trkpt lat="43.4997317" lon="11.3941533"><ele>371.0</ele><time>2026-04-05T08:55:49.01Z</time></trkpt><trkpt lat="43.4995933" lon="11.3940917"><ele>371.0</ele><time>2026-04-05T08:55:50.01Z</time></trkpt><trkpt lat="43.4994433" lon="11.3940233"><ele>371.0</ele><time>2026-04-05T08:55:51.01Z</time></trkpt><trkpt lat="43.499295" lon="11.39396"><ele>370.6666666666667</ele><time>2026-04-05T08:55:52.01Z</time></trkpt><trkpt lat="43.49914" lon="11.393895"><ele>370.3333333333333</ele><time>2026-04-05T08:55:53.01Z</time></trkpt><trkpt lat="43.499" lon="11.3938233"><ele>370.0</ele><time>2026-04-05T08:55:54.01Z</time></trkpt><trkpt lat="43.4988533" lon="11.3937367"><ele>374.0</ele><time>2026-04-05T08:55:55.01Z</time></trkpt><trkpt lat="43.4987117" lon="11.3936467"><ele>378.0</ele><time>2026-04-05T08:55:56.01Z</time></trkpt><trkpt lat="43.4985567" lon="11.3935483"><ele>382.0</ele><time>2026-04-05T08:55:57.01Z</time></trkpt><trkpt lat="43.4984167" lon="11.3934417"><ele>382.0</ele><time>2026-04-05T08:55:58.01Z</time></trkpt><trkpt lat="43.49828" lon="11.3933333"><ele>382.0</ele><time>2026-04-05T08:55:59.01Z</time></trkpt><trkpt lat="43.498135" lon="11.3932233"><ele>382.0</ele><time>2026-04-05T08:56:00.01Z</time></trkpt><trkpt lat="43.49799" lon="11.3931183"><ele>386.0</ele><time>2026-04-05T08:56:01.01Z</time></trkpt><trkpt lat="43.49785" lon="11.3930133"><ele>390.0</ele><time>2026-04-05T08:56:02.01Z</time></trkpt><trkpt lat="43.4977217" lon="11.3928883"><ele>394.0</ele><time>2026-04-05T08:56:03.01Z</time></trkpt><trkpt lat="43.4975917" lon="11.3927533"><ele>394.0</ele><time>2026-04-05T08:56:04.01Z</time></trkpt><trkpt lat="43.4974717" lon="11.39261"><ele>394.0</ele><time>2026-04-05T08:56:05.01Z</time></trkpt><trkpt lat="43.4973533" lon="11.3924783"><ele>394.0</ele><time>2026-04-05T08:56:06.01Z</time></trkpt><trkpt lat="43.4972233" lon="11.3923667"><ele>394.0</ele><time>2026-04-05T08:56:07.01Z</time></trkpt><trkpt lat="43.497095" lon="11.3922883"><ele>394.0</ele><time>2026-04-05T08:56:08.01Z</time></trkpt><trkpt lat="43.4969783" lon="11.39225"><ele>394.0</ele><time>2026-04-05T08:56:09.01Z</time></trkpt><trkpt lat="43.49685" lon="11.392245"><ele>394.0</ele><time>2026-04-05T08:56:10.01Z</time></trkpt><trkpt lat="43.4967167" lon="11.3922717"><ele>397.75</ele><time>2026-04-05T08:56:11.01Z</time></trkpt><trkpt lat="43.4965717" lon="11.3923"><ele>401.5</ele><time>2026-04-05T08:56:12.01Z</time></trkpt><trkpt lat="43.496425" lon="11.3923233"><ele>405.25</ele><time>2026-04-05T08:56:13.01Z</time></trkpt><trkpt lat="43.4962817" lon="11.3923283"><ele>409.0</ele><time>2026-04-05T08:56:14.01Z</time></trkpt><trkpt lat="43.4961617" lon="11.3923133"><ele>410.75</ele><time>2026-04-05T08:56:15.01Z</time></trkpt><trkpt lat="43.4960483" lon="11.3922633"><ele>412.5</ele><time>2026-04-05T08:56:16.01Z</time></trkpt><trkpt lat="43.49594" lon="11.3921667"><ele>414.25</ele><time>2026-04-05T08:56:17.01Z</time></trkpt><trkpt lat="43.4958333" lon="11.39206"><ele>416.0</ele><time>2026-04-05T08:56:18.01Z</time></trkpt><trkpt lat="43.4957483" lon="11.3919383"><ele>416.0</ele><time>2026-04-05T08:56:19.01Z</time></trkpt><trkpt lat="43.4956817" lon="11.391815"><ele>416.0</ele><time>2026-04-05T08:56:20.01Z</time></trkpt><trkpt lat="43.4956383" lon="11.391675"><ele>416.0</ele><time>2026-04-05T08:56:21.01Z</time></trkpt><trkpt lat="43.4956283" lon="11.3915167"><ele>416.0</ele><time>2026-04-05T08:56:22.01Z</time></trkpt><trkpt lat="43.49565" lon="11.391375"><ele>416.0</ele><time>2026-04-05T08:56:23.01Z</time></trkpt><trkpt lat="43.495705" lon="11.3912467"><ele>417.20000000000005</ele><time>2026-04-05T08:56:24.01Z</time></trkpt><trkpt lat="43.4957817" lon="11.3911483"><ele>418.40000000000003</ele><time>2026-04-05T08:56:25.01Z</time></trkpt><trkpt lat="43.495865" lon="11.39106"><ele>419.6</ele><time>2026-04-05T08:56:26.01Z</time></trkpt><trkpt lat="43.4959467" lon="11.3909867"><ele>420.8</ele><time>2026-04-05T08:56:27.01Z</time></trkpt><trkpt lat="43.4960033" lon="11.390895"><ele>422.0</ele><time>2026-04-05T08:56:28.01Z</time></trkpt><trkpt lat="43.49603" lon="11.39079"><ele>422.0</ele><time>2026-04-05T08:56:29.01Z</time></trkpt><trkpt lat="43.4960283" lon="11.39068"><ele>422.0</ele><time>2026-04-05T08:56:30.01Z</time></trkpt><trkpt lat="43.4959917" lon="11.3905633"><ele>422.0</ele><time>2026-04-05T08:56:31.01Z</time></trkpt><trkpt lat="43.4959283" lon="11.3904567"><ele>422.0</ele><time>2026-04-05T08:56:32.01Z</time></trkpt><trkpt lat="43.495845" lon="11.3903617"><ele>422.0</ele><time>2026-04-05T08:56:33.01Z</time></trkpt><trkpt lat="43.495735" lon="11.3902767"><ele>422.5</ele><time>2026-04-05T08:56:34.01Z</time></trkpt><trkpt lat="43.495605" lon="11.3901767"><ele>423.0</ele><time>2026-04-05T08:56:35.01Z</time></trkpt><trkpt lat="43.49548" lon="11.3900933"><ele>423.5</ele><time>2026-04-05T08:56:36.01Z</time></trkpt><trkpt lat="43.49535" lon="11.3899933"><ele>424.0</ele><time>2026-04-05T08:56:37.01Z</time></trkpt><trkpt lat="43.495225" lon="11.38988"><ele>425.6666666666667</ele><time>2026-04-05T08:56:38.01Z</time></trkpt><trkpt lat="43.4951017" lon="11.3897583"><ele>427.33333333333337</ele><time>2026-04-05T08:56:39.01Z</time></trkpt><trkpt lat="43.4949783" lon="11.3896367"><ele>429.0</ele><time>2026-04-05T08:56:40.01Z</time></trkpt><trkpt lat="43.49485" lon="11.3895183"><ele>429.0</ele><time>2026-04-05T08:56:41.01Z</time></trkpt><trkpt lat="43.4947317" lon="11.3894017"><ele>429.0</ele><time>2026-04-05T08:56:42.01Z</time></trkpt><trkpt lat="43.4946133" lon="11.38929"><ele>429.0</ele><time>2026-04-05T08:56:43.01Z</time></trkpt><trkpt lat="43.4945117" lon="11.3891717"><ele>429.0</ele><time>2026-04-05T08:56:44.01Z</time></trkpt><trkpt lat="43.494425" lon="11.3890383"><ele>429.75</ele><time>2026-04-05T08:56:45.01Z</time></trkpt><trkpt lat="43.4943517" lon="11.3889"><ele>430.5</ele><time>2026-04-05T08:56:46.01Z</time></trkpt><trkpt lat="43.4942683" lon="11.388755"><ele>431.25</ele><time>2026-04-05T08:56:47.01Z</time></trkpt><trkpt lat="43.4941633" lon="11.38863"><ele>432.0</ele><time>2026-04-05T08:56:48.01Z</time></trkpt><trkpt lat="43.4940583" lon="11.3885267"><ele>432.0</ele><time>2026-04-05T08:56:49.01Z</time></trkpt><trkpt lat="43.4939517" lon="11.3884367"><ele>432.0</ele><time>2026-04-05T08:56:50.01Z</time></trkpt><trkpt lat="43.4938383" lon="11.3883683"><ele>432.0</ele><time>2026-04-05T08:56:51.01Z</time></trkpt><trkpt lat="43.49372" lon="11.38832"><ele>432.0</ele><time>2026-04-05T08:56:52.01Z</time></trkpt><trkpt lat="43.49361" lon="11.3882983"><ele>436.5</ele><time>2026-04-05T08:56:53.01Z</time></trkpt><trkpt lat="43.4934917" lon="11.3882983"><ele>441.0</ele><time>2026-04-05T08:56:54.01Z</time></trkpt><trkpt lat="43.49337" lon="11.38831"><ele>445.5</ele><time>2026-04-05T08:56:55.01Z</time></trkpt><trkpt lat="43.4932583" lon="11.3883317"><ele>450.0</ele><time>2026-04-05T08:56:56.01Z</time></trkpt><trkpt lat="43.4931533" lon="11.3883717"><ele>450.0</ele><time>2026-04-05T08:56:57.01Z</time></trkpt><trkpt lat="43.493055" lon="11.3884283"><ele>450.0</ele><time>2026-04-05T08:56:58.01Z</time></trkpt><trkpt lat="43.49297" lon="11.3884767"><ele>450.0</ele><time>2026-04-05T08:56:59.01Z</time></trkpt><trkpt lat="43.492885" lon="11.388485"><ele>450.0</ele><time>2026-04-05T08:57:00.01Z</time></trkpt><trkpt lat="43.4928083" lon="11.3884533"><ele>450.0</ele><time>2026-04-05T08:57:01.01Z</time></trkpt><trkpt lat="43.4927483" lon="11.3883633"><ele>449.6</ele><time>2026-04-05T08:57:02.01Z</time></trkpt><trkpt lat="43.4927" lon="11.3882483"><ele>449.2</ele><time>2026-04-05T08:57:03.01Z</time></trkpt><trkpt lat="43.4926383" lon="11.38814"><ele>448.79999999999995</ele><time>2026-04-05T08:57:04.01Z</time></trkpt><trkpt lat="43.4925567" lon="11.3880467"><ele>448.4</ele><time>2026-04-05T08:57:05.01Z</time></trkpt><trkpt lat="43.49247" lon="11.3879617"><ele>448.0</ele><time>2026-04-05T08:57:06.01Z</time></trkpt><trkpt lat="43.4923733" lon="11.3878817"><ele>448.0</ele><time>2026-04-05T08:57:07.01Z</time></trkpt><trkpt lat="43.4922733" lon="11.387805"><ele>448.0</ele><time>2026-04-05T08:57:08.01Z</time></trkpt><trkpt lat="43.4921567" lon="11.3877133"><ele>448.0</ele><time>2026-04-05T08:57:09.01Z</time></trkpt><trkpt lat="43.492035" lon="11.38762"><ele>448.0</ele><time>2026-04-05T08:57:10.01Z</time></trkpt><trkpt lat="43.491915" lon="11.38752"><ele>449.5</ele><time>2026-04-05T08:57:11.01Z</time></trkpt><trkpt lat="43.4917967" lon="11.38741"><ele>451.0</ele><time>2026-04-05T08:57:12.01Z</time></trkpt><trkpt lat="43.4916833" lon="11.3873033"><ele>452.5</ele><time>2026-04-05T08:57:13.01Z</time></trkpt><trkpt lat="43.4915767" lon="11.387195"><ele>454.0</ele><time>2026-04-05T08:57:14.01Z</time></trkpt><trkpt lat="43.491475" lon="11.387095"><ele>454.0</ele><time>2026-04-05T08:57:15.01Z</time></trkpt><trkpt lat="43.4913683" lon="11.3870033"><ele>454.0</ele><time>2026-04-05T08:57:16.01Z</time></trkpt><trkpt lat="43.49126" lon="11.3869067"><ele>454.0</ele><time>2026-04-05T08:57:17.01Z</time></trkpt><trkpt lat="43.4911617" lon="11.3868133"><ele>454.0</ele><time>2026-04-05T08:57:18.01Z</time></trkpt><trkpt lat="43.4910683" lon="11.38672"><ele>456.0</ele><time>2026-04-05T08:57:19.01Z</time></trkpt><trkpt lat="43.49099" lon="11.3866233"><ele>458.0</ele><time>2026-04-05T08:57:20.01Z</time></trkpt><trkpt lat="43.4909217" lon="11.3865167"><ele>460.0</ele><time>2026-04-05T08:57:21.01Z</time></trkpt><trkpt lat="43.4908667" lon="11.3864033"><ele>462.0</ele><time>2026-04-05T08:57:22.01Z</time></trkpt><trkpt lat="43.49081" lon="11.3862733"><ele>464.0</ele><time>2026-04-05T08:57:23.01Z</time></trkpt><trkpt lat="43.4907567" lon="11.38615"><ele>464.0</ele><time>2026-04-05T08:57:24.01Z</time></trkpt><trkpt lat="43.490705" lon="11.3860183"><ele>464.0</ele><time>2026-04-05T08:57:25.01Z</time></trkpt><trkpt lat="43.4906483" lon="11.38588"><ele>464.0</ele><time>2026-04-05T08:57:26.01Z</time></trkpt><trkpt lat="43.490595" lon="11.3857417"><ele>464.0</ele><time>2026-04-05T08:57:27.01Z</time></trkpt><trkpt lat="43.4905483" lon="11.3856083"><ele>464.0</ele><time>2026-04-05T08:57:28.01Z</time></trkpt><trkpt lat="43.4904983" lon="11.3854917"><ele>463.0</ele><time>2026-04-05T08:57:29.01Z</time></trkpt><trkpt lat="43.49046" lon="11.3853817"><ele>462.0</ele><time>2026-04-05T08:57:30.01Z</time></trkpt><trkpt lat="43.4904183" lon="11.3853017"><ele>461.0</ele><time>2026-04-05T08:57:31.01Z</time></trkpt><trkpt lat="43.49035" lon="11.385215"><ele>460.0</ele><time>2026-04-05T08:57:33.01Z</time></trkpt><trkpt lat="43.49028" lon="11.38531"><ele>459.0</ele><time>2026-04-05T08:58:14.01Z</time></trkpt><trkpt lat="43.49028" lon="11.3854967"><ele>459.0</ele><time>2026-04-05T08:58:16.01Z</time></trkpt><trkpt lat="43.49028" lon="11.385595"><ele>459.0</ele><time>2026-04-05T08:58:17.01Z</time></trkpt><trkpt lat="43.490275" lon="11.385705"><ele>459.0</ele><time>2026-04-05T08:58:18.01Z</time></trkpt><trkpt lat="43.4902717" lon="11.385815"><ele>459.0</ele><time>2026-04-05T08:58:19.01Z</time></trkpt><trkpt lat="43.49025" lon="11.385935"><ele>459.0</ele><time>2026-04-05T08:58:20.01Z</time></trkpt><trkpt lat="43.4902067" lon="11.386035"><ele>459.0</ele><time>2026-04-05T08:58:21.01Z</time></trkpt><trkpt lat="43.4901417" lon="11.3861267"><ele>459.0</ele><time>2026-04-05T08:58:22.01Z</time></trkpt><trkpt lat="43.4900567" lon="11.3862117"><ele>459.0</ele><time>2026-04-05T08:58:23.01Z</time></trkpt><trkpt lat="43.4899767" lon="11.386265"><ele>459.0</ele><time>2026-04-05T08:58:24.01Z</time></trkpt><trkpt lat="43.4899133" lon="11.3862817"><ele>459.0</ele><time>2026-04-05T08:58:25.01Z</time></trkpt><trkpt lat="43.489845" lon="11.3862283"><ele>459.0</ele><time>2026-04-05T08:58:27.01Z</time></trkpt><trkpt lat="43.4897883" lon="11.3861617"><ele>459.0</ele><time>2026-04-05T08:58:29.01Z</time></trkpt><trkpt lat="43.48971" lon="11.3861383"><ele>459.0</ele><time>2026-04-05T08:58:32.01Z</time></trkpt><trkpt lat="43.4896483" lon="11.3862283"><ele>459.0</ele><time>2026-04-05T08:58:35.01Z</time></trkpt><trkpt lat="43.4896267" lon="11.3863933"><ele>459.0</ele><time>2026-04-05T08:58:37.01Z</time></trkpt><trkpt lat="43.4896133" lon="11.3865067"><ele>459.0</ele><time>2026-04-05T08:58:38.01Z</time></trkpt><trkpt lat="43.489585" lon="11.3866333"><ele>459.0</ele><time>2026-04-05T08:58:39.01Z</time></trkpt><trkpt lat="43.4895567" lon="11.3867883"><ele>456.25</ele><time>2026-04-05T08:58:40.01Z</time></trkpt><trkpt lat="43.489535" lon="11.386955"><ele>453.5</ele><time>2026-04-05T08:58:41.01Z</time></trkpt><trkpt lat="43.48952" lon="11.3871317"><ele>450.75</ele><time>2026-04-05T08:58:42.01Z</time></trkpt><trkpt lat="43.4895083" lon="11.3873133"><ele>448.0</ele><time>2026-04-05T08:58:43.01Z</time></trkpt><trkpt lat="43.4894933" lon="11.387495"><ele>448.0</ele><time>2026-04-05T08:58:44.01Z</time></trkpt><trkpt lat="43.489465" lon="11.38769"><ele>448.0</ele><time>2026-04-05T08:58:45.01Z</time></trkpt><trkpt lat="43.4894467" lon="11.3878883"><ele>448.0</ele><time>2026-04-05T08:58:46.01Z</time></trkpt><trkpt lat="43.4894217" lon="11.3880867"><ele>448.0</ele><time>2026-04-05T08:58:47.01Z</time></trkpt><trkpt lat="43.4894017" lon="11.3882767"><ele>448.75</ele><time>2026-04-05T08:58:48.01Z</time></trkpt><trkpt lat="43.489375" lon="11.3884667"><ele>449.5</ele><time>2026-04-05T08:58:49.01Z</time></trkpt><trkpt lat="43.4893483" lon="11.388645"><ele>450.25</ele><time>2026-04-05T08:58:50.01Z</time></trkpt><trkpt lat="43.4893083" lon="11.3888067"><ele>451.0</ele><time>2026-04-05T08:58:51.01Z</time></trkpt><trkpt lat="43.4892717" lon="11.3889567"><ele>451.8</ele><time>2026-04-05T08:58:52.01Z</time></trkpt><trkpt lat="43.4892433" lon="11.3890967"><ele>452.6</ele><time>2026-04-05T08:58:53.01Z</time></trkpt><trkpt lat="43.4892483" lon="11.389225"><ele>453.4</ele><time>2026-04-05T08:58:54.01Z</time></trkpt><trkpt lat="43.4892817" lon="11.3893583"><ele>454.2</ele><time>2026-04-05T08:58:55.01Z</time></trkpt><trkpt lat="43.4893333" lon="11.389495"><ele>455.0</ele><time>2026-04-05T08:58:56.01Z</time></trkpt><trkpt lat="43.4893867" lon="11.3896433"><ele>454.5</ele><time>2026-04-05T08:58:57.01Z</time></trkpt><trkpt lat="43.489435" lon="11.389795"><ele>454.0</ele><time>2026-04-05T08:58:58.01Z</time></trkpt><trkpt lat="43.4894883" lon="11.3899467"><ele>453.5</ele><time>2026-04-05T08:58:59.01Z</time></trkpt><trkpt lat="43.4895383" lon="11.3900917"><ele>453.0</ele><time>2026-04-05T08:59:00.01Z</time></trkpt><trkpt lat="43.4895917" lon="11.390245"><ele>454.5</ele><time>2026-04-05T08:59:01.01Z</time></trkpt><trkpt lat="43.4896483" lon="11.3903967"><ele>456.0</ele><time>2026-04-05T08:59:02.01Z</time></trkpt><trkpt lat="43.489715" lon="11.3905633"><ele>457.5</ele><time>2026-04-05T08:59:03.01Z</time></trkpt><trkpt lat="43.48979" lon="11.390705"><ele>459.0</ele><time>2026-04-05T08:59:04.01Z</time></trkpt><trkpt lat="43.4898733" lon="11.3908217"><ele>459.0</ele><time>2026-04-05T08:59:05.01Z</time></trkpt><trkpt lat="43.4899517" lon="11.3909433"><ele>459.0</ele><time>2026-04-05T08:59:06.01Z</time></trkpt><trkpt lat="43.4900333" lon="11.3910617"><ele>459.0</ele><time>2026-04-05T08:59:07.01Z</time></trkpt><trkpt lat="43.4901067" lon="11.3911867"><ele>459.0</ele><time>2026-04-05T08:59:08.01Z</time></trkpt><trkpt lat="43.49016" lon="11.391325"><ele>458.25</ele><time>2026-04-05T08:59:09.01Z</time></trkpt><trkpt lat="43.490185" lon="11.3914717"><ele>457.5</ele><time>2026-04-05T08:59:10.01Z</time></trkpt><trkpt lat="43.4901933" lon="11.3916233"><ele>456.75</ele><time>2026-04-05T08:59:11.01Z</time></trkpt><trkpt lat="43.49018" lon="11.391785"><ele>456.0</ele><time>2026-04-05T08:59:12.01Z</time></trkpt><trkpt lat="43.49017" lon="11.3919533"><ele>456.0</ele><time>2026-04-05T08:59:13.01Z</time></trkpt><trkpt lat="43.4901717" lon="11.3921467"><ele>456.0</ele><time>2026-04-05T08:59:14.01Z</time></trkpt><trkpt lat="43.4901933" lon="11.3923417"><ele>456.0</ele><time>2026-04-05T08:59:15.01Z</time></trkpt><trkpt lat="43.4902317" lon="11.3925517"><ele>456.0</ele><time>2026-04-05T08:59:16.01Z</time></trkpt><trkpt lat="43.490285" lon="11.3927417"><ele>456.25</ele><time>2026-04-05T08:59:17.01Z</time></trkpt><trkpt lat="43.490335" lon="11.3929333"><ele>456.5</ele><time>2026-04-05T08:59:18.01Z</time></trkpt><trkpt lat="43.4903733" lon="11.393125"><ele>456.75</ele><time>2026-04-05T08:59:19.01Z</time></trkpt><trkpt lat="43.490395" lon="11.3933"><ele>457.0</ele><time>2026-04-05T08:59:20.01Z</time></trkpt><trkpt lat="43.49039" lon="11.3934683"><ele>457.75</ele><time>2026-04-05T08:59:21.01Z</time></trkpt><trkpt lat="43.4903583" lon="11.3936333"><ele>458.5</ele><time>2026-04-05T08:59:22.01Z</time></trkpt><trkpt lat="43.4903" lon="11.393795"><ele>459.25</ele><time>2026-04-05T08:59:23.01Z</time></trkpt><trkpt lat="43.4902367" lon="11.393955"><ele>460.0</ele><time>2026-04-05T08:59:24.01Z</time></trkpt><trkpt lat="43.4901717" lon="11.3941233"><ele>461.33333333333337</ele><time>2026-04-05T08:59:25.01Z</time></trkpt><trkpt lat="43.4901083" lon="11.3943133"><ele>462.66666666666663</ele><time>2026-04-05T08:59:26.01Z</time></trkpt><trkpt lat="43.4900767" lon="11.3945183"><ele>464.0</ele><time>2026-04-05T08:59:27.009Z</time></trkpt><trkpt lat="43.4900733" lon="11.3947317"><ele>465.66666666666663</ele><time>2026-04-05T08:59:28.009Z</time></trkpt><trkpt lat="43.4900883" lon="11.3949417"><ele>467.33333333333337</ele><time>2026-04-05T08:59:29.009Z</time></trkpt><trkpt lat="43.49011" lon="11.3951583"><ele>469.0</ele><time>2026-04-05T08:59:30.009Z</time></trkpt><trkpt lat="43.4901133" lon="11.3953883"><ele>470.33333333333337</ele><time>2026-04-05T08:59:31.009Z</time></trkpt><trkpt lat="43.4901" lon="11.3956117"><ele>471.66666666666663</ele><time>2026-04-05T08:59:32.009Z</time></trkpt><trkpt lat="43.490075" lon="11.3958317"><ele>473.0</ele><time>2026-04-05T08:59:33.009Z</time></trkpt><trkpt lat="43.49004" lon="11.3960317"><ele>473.0</ele><time>2026-04-05T08:59:34.009Z</time></trkpt><trkpt lat="43.490005" lon="11.39621"><ele>473.0</ele><time>2026-04-05T08:59:35.009Z</time></trkpt><trkpt lat="43.4899533" lon="11.3963717"><ele>473.0</ele><time>2026-04-05T08:59:36.009Z</time></trkpt><trkpt lat="43.4898733" lon="11.3965083"><ele>473.0</ele><time>2026-04-05T08:59:37.009Z</time></trkpt><trkpt lat="43.4897767" lon="11.3966367"><ele>473.0</ele><time>2026-04-05T08:59:38.009Z</time></trkpt><trkpt lat="43.4896767" lon="11.3967817"><ele>473.0</ele><time>2026-04-05T08:59:39.009Z</time></trkpt><trkpt lat="43.489585" lon="11.3969333"><ele>473.0</ele><time>2026-04-05T08:59:40.009Z</time></trkpt><trkpt lat="43.4894967" lon="11.3971233"><ele>478.66666666666663</ele><time>2026-04-05T08:59:41.009Z</time></trkpt><trkpt lat="43.489415" lon="11.3973167"><ele>484.33333333333337</ele><time>2026-04-05T08:59:42.009Z</time></trkpt><trkpt lat="43.4893267" lon="11.3975033"><ele>490.0</ele><time>2026-04-05T08:59:43.009Z</time></trkpt><trkpt lat="43.4892367" lon="11.3976917"><ele>490.0</ele><time>2026-04-05T08:59:44.009Z</time></trkpt><trkpt lat="43.4891517" lon="11.39787"><ele>490.0</ele><time>2026-04-05T08:59:45.009Z</time></trkpt><trkpt lat="43.4890567" lon="11.3980667"><ele>490.0</ele><time>2026-04-05T08:59:46.009Z</time></trkpt><trkpt lat="43.488965" lon="11.398265"><ele>488.0</ele><time>2026-04-05T08:59:47.009Z</time></trkpt><trkpt lat="43.48887" lon="11.3984633"><ele>486.0</ele><time>2026-04-05T08:59:48.009Z</time></trkpt><trkpt lat="43.4887783" lon="11.3986583"><ele>484.0</ele><time>2026-04-05T08:59:49.009Z</time></trkpt><trkpt lat="43.488685" lon="11.3988467"><ele>489.33333333333337</ele><time>2026-04-05T08:59:50.009Z</time></trkpt><trkpt lat="43.48859" lon="11.3990367"><ele>494.66666666666663</ele><time>2026-04-05T08:59:51.009Z</time></trkpt><trkpt lat="43.48851" lon="11.3992067"><ele>500.0</ele><time>2026-04-05T08:59:52.009Z</time></trkpt><trkpt lat="43.4884333" lon="11.39936"><ele>500.0</ele><time>2026-04-05T08:59:53.009Z</time></trkpt><trkpt lat="43.4883533" lon="11.3994967"><ele>500.0</ele><time>2026-04-05T08:59:54.009Z</time></trkpt><trkpt lat="43.4882567" lon="11.3995967"><ele>500.0</ele><time>2026-04-05T08:59:55.009Z</time></trkpt><trkpt lat="43.48814" lon="11.399665"><ele>500.0</ele><time>2026-04-05T08:59:56.009Z</time></trkpt><trkpt lat="43.4880133" lon="11.3996983"><ele>500.25</ele><time>2026-04-05T08:59:57.009Z</time></trkpt><trkpt lat="43.4878883" lon="11.3997167"><ele>500.5</ele><time>2026-04-05T08:59:58.009Z</time></trkpt><trkpt lat="43.4877733" lon="11.399705"><ele>500.75</ele><time>2026-04-05T08:59:59.009Z</time></trkpt><trkpt lat="43.4876683" lon="11.399695"><ele>501.0</ele><time>2026-04-05T09:00:00.009Z</time></trkpt><trkpt lat="43.4875617" lon="11.3996817"><ele>501.0</ele><time>2026-04-05T09:00:01.009Z</time></trkpt><trkpt lat="43.48745" lon="11.3996583"><ele>501.0</ele><time>2026-04-05T09:00:02.009Z</time></trkpt><trkpt lat="43.4873267" lon="11.3996383"><ele>501.0</ele><time>2026-04-05T09:00:03.009Z</time></trkpt><trkpt lat="43.4871967" lon="11.399615"><ele>501.0</ele><time>2026-04-05T09:00:04.009Z</time></trkpt><trkpt lat="43.4870633" lon="11.3995883"><ele>501.0</ele><time>2026-04-05T09:00:05.009Z</time></trkpt><trkpt lat="43.4869267" lon="11.3995717"><ele>501.0</ele><time>2026-04-05T09:00:06.009Z</time></trkpt><trkpt lat="43.4867817" lon="11.3995283"><ele>501.0</ele><time>2026-04-05T09:00:07.009Z</time></trkpt><trkpt lat="43.48664" lon="11.3994933"><ele>501.0</ele><time>2026-04-05T09:00:08.009Z</time></trkpt><trkpt lat="43.4865033" lon="11.39945"><ele>501.0</ele><time>2026-04-05T09:00:09.009Z</time></trkpt><trkpt lat="43.48636" lon="11.399405"><ele>501.0</ele><time>2026-04-05T09:00:10.009Z</time></trkpt><trkpt lat="43.4862267" lon="11.3993533"><ele>501.0</ele><time>2026-04-05T09:00:11.009Z</time></trkpt><trkpt lat="43.4861067" lon="11.3992767"><ele>501.0</ele><time>2026-04-05T09:00:12.009Z</time></trkpt><trkpt lat="43.4860233" lon="11.3991683"><ele>497.5</ele><time>2026-04-05T09:00:13.009Z</time></trkpt><trkpt lat="43.48597" lon="11.3990317"><ele>494.0</ele><time>2026-04-05T09:00:14.009Z</time></trkpt><trkpt lat="43.485965" lon="11.3988833"><ele>490.5</ele><time>2026-04-05T09:00:15.009Z</time></trkpt><trkpt lat="43.48599" lon="11.3987283"><ele>487.0</ele><time>2026-04-05T09:00:16.009Z</time></trkpt><trkpt lat="43.4860183" lon="11.3985717"><ele>487.0</ele><time>2026-04-05T09:00:17.009Z</time></trkpt><trkpt lat="43.4860233" lon="11.3984317"><ele>487.00000000000006</ele><time>2026-04-05T09:00:18.009Z</time></trkpt><trkpt lat="43.4859933" lon="11.3982817"><ele>487.00000000000006</ele><time>2026-04-05T09:00:19.009Z</time></trkpt><trkpt lat="43.48594" lon="11.3981433"><ele>487.0</ele><time>2026-04-05T09:00:20.009Z</time></trkpt><trkpt lat="43.4858617" lon="11.3980383"><ele>487.0</ele><time>2026-04-05T09:00:21.009Z</time></trkpt><trkpt lat="43.4857667" lon="11.3979617"><ele>486.75</ele><time>2026-04-05T09:00:22.009Z</time></trkpt><trkpt lat="43.4856483" lon="11.3979133"><ele>486.5</ele><time>2026-04-05T09:00:23.009Z</time></trkpt><trkpt lat="43.4855183" lon="11.397915"><ele>486.25</ele><time>2026-04-05T09:00:24.009Z</time></trkpt><trkpt lat="43.4853817" lon="11.3979233"><ele>486.0</ele><time>2026-04-05T09:00:25.009Z</time></trkpt><trkpt lat="43.4852467" lon="11.397925"><ele>486.0</ele><time>2026-04-05T09:00:26.009Z</time></trkpt><trkpt lat="43.485115" lon="11.39791"><ele>486.0</ele><time>2026-04-05T09:00:27.009Z</time></trkpt><trkpt lat="43.484995" lon="11.3978683"><ele>486.0</ele><time>2026-04-05T09:00:28.009Z</time></trkpt><trkpt lat="43.4848833" lon="11.3977917"><ele>486.0</ele><time>2026-04-05T09:00:29.009Z</time></trkpt><trkpt lat="43.4847817" lon="11.397665"><ele>486.0</ele><time>2026-04-05T09:00:30.009Z</time></trkpt><trkpt lat="43.4846867" lon="11.3975217"><ele>486.0</ele><time>2026-04-05T09:00:31.009Z</time></trkpt><trkpt lat="43.4846033" lon="11.3973867"><ele>486.0</ele><time>2026-04-05T09:00:32.009Z</time></trkpt><trkpt lat="43.48453" lon="11.39726"><ele>486.0</ele><time>2026-04-05T09:00:33.009Z</time></trkpt><trkpt lat="43.4844783" lon="11.3971383"><ele>483.0</ele><time>2026-04-05T09:00:34.009Z</time></trkpt><trkpt lat="43.48446" lon="11.3969917"><ele>480.0</ele><time>2026-04-05T09:00:35.009Z</time></trkpt><trkpt lat="43.4844717" lon="11.396845"><ele>477.0</ele><time>2026-04-05T09:00:36.009Z</time></trkpt><trkpt lat="43.48449" lon="11.3966933"><ele>474.0</ele><time>2026-04-05T09:00:37.009Z</time></trkpt><trkpt lat="43.484515" lon="11.3965383"><ele>471.0</ele><time>2026-04-05T09:00:38.009Z</time></trkpt><trkpt lat="43.4845217" lon="11.3963867"><ele>472.5</ele><time>2026-04-05T09:00:39.009Z</time></trkpt><trkpt lat="43.4844917" lon="11.3962333"><ele>474.0</ele><time>2026-04-05T09:00:40.009Z</time></trkpt><trkpt lat="43.484425" lon="11.3961017"><ele>475.5</ele><time>2026-04-05T09:00:41.009Z</time></trkpt><trkpt lat="43.484325" lon="11.3959883"><ele>477.0</ele><time>2026-04-05T09:00:42.009Z</time></trkpt><trkpt lat="43.4842067" lon="11.39592"><ele>477.0</ele><time>2026-04-05T09:00:43.009Z</time></trkpt><trkpt lat="43.484075" lon="11.39589"><ele>477.0</ele><time>2026-04-05T09:00:44.009Z</time></trkpt><trkpt lat="43.4839417" lon="11.3958533"><ele>477.0</ele><time>2026-04-05T09:00:45.009Z</time></trkpt><trkpt lat="43.483805" lon="11.3958617"><ele>477.0</ele><time>2026-04-05T09:00:46.009Z</time></trkpt><trkpt lat="43.4836633" lon="11.395895"><ele>474.66666666666663</ele><time>2026-04-05T09:00:47.009Z</time></trkpt><trkpt lat="43.4835117" lon="11.395945"><ele>472.3333333333333</ele><time>2026-04-05T09:00:48.009Z</time></trkpt><trkpt lat="43.4833667" lon="11.3959917"><ele>470.0</ele><time>2026-04-05T09:00:49.009Z</time></trkpt><trkpt lat="43.4832217" lon="11.3960383"><ele>470.0</ele><time>2026-04-05T09:00:50.009Z</time></trkpt><trkpt lat="43.4830817" lon="11.3961"><ele>470.0</ele><time>2026-04-05T09:00:51.009Z</time></trkpt><trkpt lat="43.4829633" lon="11.3961633"><ele>470.0</ele><time>2026-04-05T09:00:52.009Z</time></trkpt><trkpt lat="43.4828483" lon="11.3962133"><ele>470.0</ele><time>2026-04-05T09:00:53.009Z</time></trkpt><trkpt lat="43.4827333" lon="11.3962283"><ele>468.75</ele><time>2026-04-05T09:00:54.009Z</time></trkpt><trkpt lat="43.4826333" lon="11.396185"><ele>467.5</ele><time>2026-04-05T09:00:55.009Z</time></trkpt><trkpt lat="43.4825483" lon="11.3960883"><ele>466.25</ele><time>2026-04-05T09:00:56.009Z</time></trkpt><trkpt lat="43.48248" lon="11.395955"><ele>465.0</ele><time>2026-04-05T09:00:57.009Z</time></trkpt><trkpt lat="43.4824133" lon="11.3958133"><ele>465.0</ele><time>2026-04-05T09:00:58.009Z</time></trkpt><trkpt lat="43.4823383" lon="11.3956933"><ele>465.0</ele><time>2026-04-05T09:00:59.009Z</time></trkpt><trkpt lat="43.4822417" lon="11.395615"><ele>465.0</ele><time>2026-04-05T09:01:00.009Z</time></trkpt><trkpt lat="43.482125" lon="11.3955683"><ele>465.0</ele><time>2026-04-05T09:01:01.009Z</time></trkpt><trkpt lat="43.482" lon="11.3955583"><ele>463.0</ele><time>2026-04-05T09:01:02.009Z</time></trkpt><trkpt lat="43.4818667" lon="11.3955717"><ele>461.0</ele><time>2026-04-05T09:01:03.009Z</time></trkpt><trkpt lat="43.4817383" lon="11.3956117"><ele>459.0</ele><time>2026-04-05T09:01:04.009Z</time></trkpt><trkpt lat="43.4816083" lon="11.3956733"><ele>457.0</ele><time>2026-04-05T09:01:05.009Z</time></trkpt><trkpt lat="43.4814817" lon="11.395715"><ele>457.0</ele><time>2026-04-05T09:01:06.009Z</time></trkpt><trkpt lat="43.4813633" lon="11.3957367"><ele>457.0</ele><time>2026-04-05T09:01:07.009Z</time></trkpt><trkpt lat="43.4812433" lon="11.3957267"><ele>457.0</ele><time>2026-04-05T09:01:08.009Z</time></trkpt><trkpt lat="43.481125" lon="11.3956983"><ele>457.0</ele><time>2026-04-05T09:01:09.009Z</time></trkpt><trkpt lat="43.4810033" lon="11.3956533"><ele>456.20000000000005</ele><time>2026-04-05T09:01:10.009Z</time></trkpt><trkpt lat="43.480895" lon="11.3956"><ele>455.40000000000003</ele><time>2026-04-05T09:01:11.009Z</time></trkpt><trkpt lat="43.4807983" lon="11.39551"><ele>454.59999999999997</ele><time>2026-04-05T09:01:12.009Z</time></trkpt><trkpt lat="43.4807267" lon="11.3953983"><ele>453.79999999999995</ele><time>2026-04-05T09:01:13.009Z</time></trkpt><trkpt lat="43.4806883" lon="11.3952667"><ele>453.0</ele><time>2026-04-05T09:01:14.009Z</time></trkpt><trkpt lat="43.4806917" lon="11.3951167"><ele>453.0</ele><time>2026-04-05T09:01:15.009Z</time></trkpt><trkpt lat="43.480715" lon="11.394955"><ele>453.0</ele><time>2026-04-05T09:01:16.009Z</time></trkpt><trkpt lat="43.48076" lon="11.394795"><ele>453.0</ele><time>2026-04-05T09:01:17.009Z</time></trkpt><trkpt lat="43.4808133" lon="11.39466"><ele>453.0</ele><time>2026-04-05T09:01:18.009Z</time></trkpt><trkpt lat="43.4808617" lon="11.3945367"><ele>453.2</ele><time>2026-04-05T09:01:19.009Z</time></trkpt><trkpt lat="43.4809133" lon="11.3944083"><ele>453.4</ele><time>2026-04-05T09:01:20.009Z</time></trkpt><trkpt lat="43.48095" lon="11.39427"><ele>453.59999999999997</ele><time>2026-04-05T09:01:21.009Z</time></trkpt><trkpt lat="43.48097" lon="11.3941233"><ele>453.79999999999995</ele><time>2026-04-05T09:01:22.009Z</time></trkpt><trkpt lat="43.4809667" lon="11.3939817"><ele>454.0</ele><time>2026-04-05T09:01:23.009Z</time></trkpt><trkpt lat="43.48093" lon="11.3938367"><ele>454.0</ele><time>2026-04-05T09:01:24.009Z</time></trkpt><trkpt lat="43.480865" lon="11.3937117"><ele>454.0</ele><time>2026-04-05T09:01:25.009Z</time></trkpt><trkpt lat="43.4807733" lon="11.3936"><ele>454.0</ele><time>2026-04-05T09:01:26.01Z</time></trkpt><trkpt lat="43.4806633" lon="11.39352"><ele>454.0</ele><time>2026-04-05T09:01:27.009Z</time></trkpt><trkpt lat="43.4805483" lon="11.3934717"><ele>451.75</ele><time>2026-04-05T09:01:28.009Z</time></trkpt><trkpt lat="43.4804283" lon="11.3934733"><ele>449.5</ele><time>2026-04-05T09:01:29.009Z</time></trkpt><trkpt lat="43.4803067" lon="11.3935033"><ele>447.25</ele><time>2026-04-05T09:01:30.009Z</time></trkpt><trkpt lat="43.48019" lon="11.393525"><ele>445.0</ele><time>2026-04-05T09:01:31.009Z</time></trkpt><trkpt lat="43.4800833" lon="11.3934983"><ele>445.0</ele><time>2026-04-05T09:01:32.009Z</time></trkpt><trkpt lat="43.4799833" lon="11.3934183"><ele>445.0</ele><time>2026-04-05T09:01:33.009Z</time></trkpt><trkpt lat="43.479905" lon="11.393305"><ele>445.0</ele><time>2026-04-05T09:01:34.009Z</time></trkpt><trkpt lat="43.47984" lon="11.3931717"><ele>445.0</ele><time>2026-04-05T09:01:35.009Z</time></trkpt><trkpt lat="43.479765" lon="11.39305"><ele>445.4</ele><time>2026-04-05T09:01:36.009Z</time></trkpt><trkpt lat="43.47968" lon="11.392965"><ele>445.8</ele><time>2026-04-05T09:01:37.009Z</time></trkpt><trkpt lat="43.4795733" lon="11.39292"><ele>446.20000000000005</ele><time>2026-04-05T09:01:38.009Z</time></trkpt><trkpt lat="43.479465" lon="11.3929417"><ele>446.6</ele><time>2026-04-05T09:01:39.009Z</time></trkpt><trkpt lat="43.479365" lon="11.3930133"><ele>447.0</ele><time>2026-04-05T09:01:40.009Z</time></trkpt><trkpt lat="43.479265" lon="11.3931183"><ele>445.20000000000005</ele><time>2026-04-05T09:01:41.009Z</time></trkpt><trkpt lat="43.479185" lon="11.3932217"><ele>443.40000000000003</ele><time>2026-04-05T09:01:42.009Z</time></trkpt><trkpt lat="43.479105" lon="11.3933233"><ele>441.59999999999997</ele><time>2026-04-05T09:01:43.009Z</time></trkpt><trkpt lat="43.4790117" lon="11.393395"><ele>439.79999999999995</ele><time>2026-04-05T09:01:44.009Z</time></trkpt><trkpt lat="43.4789167" lon="11.393415"><ele>438.0</ele><time>2026-04-05T09:01:45.009Z</time></trkpt><trkpt lat="43.47882" lon="11.3933833"><ele>435.75</ele><time>2026-04-05T09:01:46.009Z</time></trkpt><trkpt lat="43.4787267" lon="11.39332"><ele>433.5</ele><time>2026-04-05T09:01:47.009Z</time></trkpt><trkpt lat="43.478635" lon="11.3932283"><ele>431.25</ele><time>2026-04-05T09:01:48.009Z</time></trkpt><trkpt lat="43.478545" lon="11.39312"><ele>429.0</ele><time>2026-04-05T09:01:49.009Z</time></trkpt><trkpt lat="43.4784617" lon="11.3930067"><ele>430.4</ele><time>2026-04-05T09:01:50.009Z</time></trkpt><trkpt lat="43.4783767" lon="11.3928867"><ele>431.79999999999995</ele><time>2026-04-05T09:01:51.009Z</time></trkpt><trkpt lat="43.4783" lon="11.39277"><ele>433.20000000000005</ele><time>2026-04-05T09:01:52.009Z</time></trkpt><trkpt lat="43.4782333" lon="11.3926433"><ele>434.6</ele><time>2026-04-05T09:01:53.009Z</time></trkpt><trkpt lat="43.4781733" lon="11.3925367"><ele>436.0</ele><time>2026-04-05T09:01:54.009Z</time></trkpt><trkpt lat="43.4781167" lon="11.392435"><ele>436.00000000000006</ele><time>2026-04-05T09:01:55.009Z</time></trkpt><trkpt lat="43.4780567" lon="11.3923533"><ele>436.0</ele><time>2026-04-05T09:01:56.009Z</time></trkpt><trkpt lat="43.4779867" lon="11.39231"><ele>436.0</ele><time>2026-04-05T09:01:57.009Z</time></trkpt><trkpt lat="43.47791" lon="11.3923033"><ele>436.0</ele><time>2026-04-05T09:01:58.009Z</time></trkpt><trkpt lat="43.4778367" lon="11.39236"><ele>436.00000000000006</ele><time>2026-04-05T09:01:59.009Z</time></trkpt><trkpt lat="43.4777867" lon="11.3924567"><ele>436.0</ele><time>2026-04-05T09:02:00.009Z</time></trkpt><trkpt lat="43.4777633" lon="11.3925767"><ele>434.6</ele><time>2026-04-05T09:02:01.009Z</time></trkpt><trkpt lat="43.47778" lon="11.392705"><ele>433.20000000000005</ele><time>2026-04-05T09:02:02.009Z</time></trkpt><trkpt lat="43.477835" lon="11.392825"><ele>431.79999999999995</ele><time>2026-04-05T09:02:03.009Z</time></trkpt><trkpt lat="43.4779133" lon="11.39296"><ele>430.4</ele><time>2026-04-05T09:02:04.009Z</time></trkpt><trkpt lat="43.4779917" lon="11.3930883"><ele>429.0</ele><time>2026-04-05T09:02:05.009Z</time></trkpt><trkpt lat="43.4780467" lon="11.3932317"><ele>429.0</ele><time>2026-04-05T09:02:06.009Z</time></trkpt><trkpt lat="43.4780767" lon="11.39338"><ele>429.0</ele><time>2026-04-05T09:02:07.009Z</time></trkpt><trkpt lat="43.4780683" lon="11.393535"><ele>429.0</ele><time>2026-04-05T09:02:08.009Z</time></trkpt><trkpt lat="43.4780367" lon="11.39369"><ele>429.0</ele><time>2026-04-05T09:02:09.009Z</time></trkpt><trkpt lat="43.4780017" lon="11.39384"><ele>427.0</ele><time>2026-04-05T09:02:10.009Z</time></trkpt><trkpt lat="43.477995" lon="11.3939967"><ele>425.0</ele><time>2026-04-05T09:02:11.009Z</time></trkpt><trkpt lat="43.4780167" lon="11.39415"><ele>423.0</ele><time>2026-04-05T09:02:12.009Z</time></trkpt><trkpt lat="43.47807" lon="11.39429"><ele>421.0</ele><time>2026-04-05T09:02:13.009Z</time></trkpt><trkpt lat="43.4781467" lon="11.3944"><ele>421.0</ele><time>2026-04-05T09:02:14.009Z</time></trkpt><trkpt lat="43.478235" lon="11.394485"><ele>421.0</ele><time>2026-04-05T09:02:15.009Z</time></trkpt><trkpt lat="43.4783333" lon="11.3945583"><ele>421.0</ele><time>2026-04-05T09:02:16.009Z</time></trkpt><trkpt lat="43.4784483" lon="11.3946167"><ele>421.0</ele><time>2026-04-05T09:02:17.009Z</time></trkpt><trkpt lat="43.4785583" lon="11.3946683"><ele>421.4</ele><time>2026-04-05T09:02:18.009Z</time></trkpt><trkpt lat="43.47866" lon="11.394725"><ele>421.8</ele><time>2026-04-05T09:02:19.009Z</time></trkpt><trkpt lat="43.4787417" lon="11.3948133"><ele>422.2</ele><time>2026-04-05T09:02:20.009Z</time></trkpt><trkpt lat="43.4787917" lon="11.3949233"><ele>422.59999999999997</ele><time>2026-04-05T09:02:21.009Z</time></trkpt><trkpt lat="43.4788033" lon="11.3950383"><ele>423.0</ele><time>2026-04-05T09:02:22.009Z</time></trkpt><trkpt lat="43.4787883" lon="11.3951517"><ele>420.59999999999997</ele><time>2026-04-05T09:02:23.009Z</time></trkpt><trkpt lat="43.47873" lon="11.3952333"><ele>418.2</ele><time>2026-04-05T09:02:24.009Z</time></trkpt><trkpt lat="43.478645" lon="11.39528"><ele>415.8</ele><time>2026-04-05T09:02:25.009Z</time></trkpt><trkpt lat="43.4785417" lon="11.3952683"><ele>413.4</ele><time>2026-04-05T09:02:26.009Z</time></trkpt><trkpt lat="43.4784217" lon="11.3952017"><ele>411.0</ele><time>2026-04-05T09:02:27.009Z</time></trkpt><trkpt lat="43.4782967" lon="11.3951283"><ele>411.0</ele><time>2026-04-05T09:02:28.009Z</time></trkpt><trkpt lat="43.47817" lon="11.3950417"><ele>411.0</ele><time>2026-04-05T09:02:29.009Z</time></trkpt><trkpt lat="43.4780483" lon="11.3949633"><ele>411.0</ele><time>2026-04-05T09:02:30.009Z</time></trkpt><trkpt lat="43.4779283" lon="11.3949017"><ele>411.0</ele><time>2026-04-05T09:02:31.009Z</time></trkpt><trkpt lat="43.4778117" lon="11.3948467"><ele>409.75</ele><time>2026-04-05T09:02:32.009Z</time></trkpt><trkpt lat="43.4776867" lon="11.39479"><ele>408.5</ele><time>2026-04-05T09:02:33.009Z</time></trkpt><trkpt lat="43.4775783" lon="11.3947083"><ele>407.25</ele><time>2026-04-05T09:02:34.009Z</time></trkpt><trkpt lat="43.4774717" lon="11.3946067"><ele>406.0</ele><time>2026-04-05T09:02:35.009Z</time></trkpt><trkpt lat="43.477375" lon="11.3944967"><ele>406.0</ele><time>2026-04-05T09:02:36.009Z</time></trkpt><trkpt lat="43.47727" lon="11.3943783"><ele>406.0</ele><time>2026-04-05T09:02:37.009Z</time></trkpt><trkpt lat="43.47716" lon="11.3942567"><ele>406.0</ele><time>2026-04-05T09:02:38.009Z</time></trkpt><trkpt lat="43.4770483" lon="11.3941517"><ele>406.0</ele><time>2026-04-05T09:02:39.009Z</time></trkpt><trkpt lat="43.47694" lon="11.3940583"><ele>404.25</ele><time>2026-04-05T09:02:40.009Z</time></trkpt><trkpt lat="43.476835" lon="11.3939733"><ele>402.5</ele><time>2026-04-05T09:02:41.009Z</time></trkpt><trkpt lat="43.4767267" lon="11.393905"><ele>400.75</ele><time>2026-04-05T09:02:42.009Z</time></trkpt><trkpt lat="43.47662" lon="11.3938733"><ele>399.0</ele><time>2026-04-05T09:02:43.009Z</time></trkpt><trkpt lat="43.476515" lon="11.39388"><ele>399.0</ele><time>2026-04-05T09:02:44.009Z</time></trkpt><trkpt lat="43.4764283" lon="11.3939367"><ele>399.0</ele><time>2026-04-05T09:02:45.009Z</time></trkpt><trkpt lat="43.4763533" lon="11.3940367"><ele>399.0</ele><time>2026-04-05T09:02:46.009Z</time></trkpt><trkpt lat="43.4762967" lon="11.3941667"><ele>399.0</ele><time>2026-04-05T09:02:47.009Z</time></trkpt><trkpt lat="43.4762667" lon="11.3943167"><ele>399.0</ele><time>2026-04-05T09:02:48.009Z</time></trkpt><trkpt lat="43.476235" lon="11.3944533"><ele>398.75</ele><time>2026-04-05T09:02:49.009Z</time></trkpt><trkpt lat="43.476175" lon="11.3945767"><ele>398.5</ele><time>2026-04-05T09:02:50.009Z</time></trkpt><trkpt lat="43.4760817" lon="11.3946733"><ele>398.25</ele><time>2026-04-05T09:02:51.009Z</time></trkpt><trkpt lat="43.4759717" lon="11.39475"><ele>398.0</ele><time>2026-04-05T09:02:52.009Z</time></trkpt><trkpt lat="43.475845" lon="11.3948083"><ele>397.25</ele><time>2026-04-05T09:02:53.009Z</time></trkpt><trkpt lat="43.4757017" lon="11.3948617"><ele>396.5</ele><time>2026-04-05T09:02:54.009Z</time></trkpt><trkpt lat="43.4755617" lon="11.3949167"><ele>395.75</ele><time>2026-04-05T09:02:55.009Z</time></trkpt><trkpt lat="43.4754217" lon="11.3949717"><ele>395.0</ele><time>2026-04-05T09:02:56.009Z</time></trkpt><trkpt lat="43.475285" lon="11.3950333"><ele>395.0</ele><time>2026-04-05T09:02:57.009Z</time></trkpt><trkpt lat="43.4751467" lon="11.3951083"><ele>395.0</ele><time>2026-04-05T09:02:58.009Z</time></trkpt><trkpt lat="43.4750183" lon="11.3952"><ele>395.0</ele><time>2026-04-05T09:02:59.009Z</time></trkpt><trkpt lat="43.474895" lon="11.3953133"><ele>395.0</ele><time>2026-04-05T09:03:00.009Z</time></trkpt><trkpt lat="43.4747767" lon="11.395435"><ele>394.3333333333333</ele><time>2026-04-05T09:03:01.009Z</time></trkpt><trkpt lat="43.474655" lon="11.3955717"><ele>393.66666666666663</ele><time>2026-04-05T09:03:02.009Z</time></trkpt><trkpt lat="43.47453" lon="11.3957133"><ele>393.0</ele><time>2026-04-05T09:03:03.009Z</time></trkpt><trkpt lat="43.4744133" lon="11.3958533"><ele>393.0</ele><time>2026-04-05T09:03:04.009Z</time></trkpt><trkpt lat="43.4742867" lon="11.3959883"><ele>393.0</ele><time>2026-04-05T09:03:05.009Z</time></trkpt><trkpt lat="43.4741617" lon="11.396125"><ele>393.0</ele><time>2026-04-05T09:03:06.009Z</time></trkpt><trkpt lat="43.4740367" lon="11.3962617"><ele>391.66666666666663</ele><time>2026-04-05T09:03:07.009Z</time></trkpt><trkpt lat="43.4739233" lon="11.3963883"><ele>390.3333333333333</ele><time>2026-04-05T09:03:08.009Z</time></trkpt><trkpt lat="43.4738017" lon="11.3965267"><ele>389.0</ele><time>2026-04-05T09:03:09.009Z</time></trkpt><trkpt lat="43.473685" lon="11.3966667"><ele>389.0</ele><time>2026-04-05T09:03:10.009Z</time></trkpt><trkpt lat="43.4735683" lon="11.3968017"><ele>389.0</ele><time>2026-04-05T09:03:11.009Z</time></trkpt><trkpt lat="43.473445" lon="11.3969383"><ele>389.0</ele><time>2026-04-05T09:03:12.009Z</time></trkpt><trkpt lat="43.4733267" lon="11.39708"><ele>392.0</ele><time>2026-04-05T09:03:13.009Z</time></trkpt><trkpt lat="43.4732067" lon="11.3972317"><ele>395.0</ele><time>2026-04-05T09:03:14.009Z</time></trkpt><trkpt lat="43.4730967" lon="11.397385"><ele>398.0</ele><time>2026-04-05T09:03:15.009Z</time></trkpt><trkpt lat="43.472985" lon="11.3975417"><ele>394.0</ele><time>2026-04-05T09:03:16.009Z</time></trkpt><trkpt lat="43.4728767" lon="11.3977"><ele>390.0</ele><time>2026-04-05T09:03:17.009Z</time></trkpt><trkpt lat="43.47274" lon="11.39783"><ele>386.0</ele><time>2026-04-05T09:03:18.009Z</time></trkpt><trkpt lat="43.4725967" lon="11.3979267"><ele>388.66666666666663</ele><time>2026-04-05T09:03:19.009Z</time></trkpt><trkpt lat="43.4724533" lon="11.3980083"><ele>391.33333333333337</ele><time>2026-04-05T09:03:20.009Z</time></trkpt><trkpt lat="43.4723167" lon="11.3980933"><ele>394.0</ele><time>2026-04-05T09:03:21.009Z</time></trkpt><trkpt lat="43.4721817" lon="11.3981917"><ele>390.6666666666667</ele><time>2026-04-05T09:03:22.009Z</time></trkpt><trkpt lat="43.4720633" lon="11.3983233"><ele>387.33333333333337</ele><time>2026-04-05T09:03:23.009Z</time></trkpt><trkpt lat="43.4719617" lon="11.398485"><ele>384.0</ele><time>2026-04-05T09:03:24.009Z</time></trkpt><trkpt lat="43.4718733" lon="11.3986683"><ele>385.0</ele><time>2026-04-05T09:03:25.009Z</time></trkpt><trkpt lat="43.4717883" lon="11.3988583"><ele>386.0</ele><time>2026-04-05T09:03:26.009Z</time></trkpt><trkpt lat="43.4717067" lon="11.39905"><ele>387.0</ele><time>2026-04-05T09:03:27.009Z</time></trkpt><trkpt lat="43.4716267" lon="11.3992333"><ele>387.0</ele><time>2026-04-05T09:03:28.009Z</time></trkpt><trkpt lat="43.471545" lon="11.399425"><ele>387.0</ele><time>2026-04-05T09:03:29.009Z</time></trkpt><trkpt lat="43.4714717" lon="11.39961"><ele>387.0</ele><time>2026-04-05T09:03:30.009Z</time></trkpt><trkpt lat="43.4714" lon="11.3997917"><ele>389.33333333333337</ele><time>2026-04-05T09:03:31.009Z</time></trkpt><trkpt lat="43.471325" lon="11.3999783"><ele>391.6666666666667</ele><time>2026-04-05T09:03:32.009Z</time></trkpt><trkpt lat="43.4712567" lon="11.4001583"><ele>394.0</ele><time>2026-04-05T09:03:33.009Z</time></trkpt><trkpt lat="43.4711883" lon="11.4003433"><ele>390.6666666666667</ele><time>2026-04-05T09:03:34.009Z</time></trkpt><trkpt lat="43.471105" lon="11.4005133"><ele>387.33333333333337</ele><time>2026-04-05T09:03:35.009Z</time></trkpt><trkpt lat="43.4710183" lon="11.4006783"><ele>384.0</ele><time>2026-04-05T09:03:36.009Z</time></trkpt><trkpt lat="43.47091" lon="11.4008383"><ele>384.0</ele><time>2026-04-05T09:03:37.009Z</time></trkpt><trkpt lat="43.47079" lon="11.4009783"><ele>384.0</ele><time>2026-04-05T09:03:38.009Z</time></trkpt><trkpt lat="43.4706517" lon="11.4011033"><ele>384.0</ele><time>2026-04-05T09:03:39.009Z</time></trkpt><trkpt lat="43.4705067" lon="11.4012017"><ele>384.0</ele><time>2026-04-05T09:03:40.009Z</time></trkpt><trkpt lat="43.4703567" lon="11.4012917"><ele>384.0</ele><time>2026-04-05T09:03:41.009Z</time></trkpt><trkpt lat="43.4702067" lon="11.40139"><ele>384.0</ele><time>2026-04-05T09:03:42.009Z</time></trkpt><trkpt lat="43.4700617" lon="11.40151"><ele>384.0</ele><time>2026-04-05T09:03:43.009Z</time></trkpt><trkpt lat="43.46992" lon="11.40163"><ele>384.0</ele><time>2026-04-05T09:03:44.009Z</time></trkpt><trkpt lat="43.46978" lon="11.4017483"><ele>384.0</ele><time>2026-04-05T09:03:45.009Z</time></trkpt><trkpt lat="43.4696467" lon="11.4018533"><ele>382.0</ele><time>2026-04-05T09:03:46.009Z</time></trkpt><trkpt lat="43.469515" lon="11.401945"><ele>380.0</ele><time>2026-04-05T09:03:47.009Z</time></trkpt><trkpt lat="43.4693833" lon="11.4020183"><ele>378.0</ele><time>2026-04-05T09:03:48.009Z</time></trkpt><trkpt lat="43.46924" lon="11.402075"><ele>376.0</ele><time>2026-04-05T09:03:49.009Z</time></trkpt><trkpt lat="43.46909" lon="11.4021117"><ele>376.0</ele><time>2026-04-05T09:03:50.009Z</time></trkpt><trkpt lat="43.4689417" lon="11.402155"><ele>376.0</ele><time>2026-04-05T09:03:51.009Z</time></trkpt><trkpt lat="43.468805" lon="11.4022083"><ele>376.0</ele><time>2026-04-05T09:03:52.009Z</time></trkpt><trkpt lat="43.4686733" lon="11.4022967"><ele>376.0</ele><time>2026-04-05T09:03:53.009Z</time></trkpt><trkpt lat="43.4685433" lon="11.4024033"><ele>375.3333333333333</ele><time>2026-04-05T09:03:54.009Z</time></trkpt><trkpt lat="43.4684283" lon="11.4025333"><ele>374.6666666666667</ele><time>2026-04-05T09:03:55.009Z</time></trkpt><trkpt lat="43.468315" lon="11.40268"><ele>374.0</ele><time>2026-04-05T09:03:56.009Z</time></trkpt><trkpt lat="43.4682033" lon="11.4028317"><ele>374.0</ele><time>2026-04-05T09:03:57.009Z</time></trkpt><trkpt lat="43.4680917" lon="11.402985"><ele>374.0</ele><time>2026-04-05T09:03:58.009Z</time></trkpt><trkpt lat="43.4679767" lon="11.4031467"><ele>374.0</ele><time>2026-04-05T09:03:59.009Z</time></trkpt><trkpt lat="43.46786" lon="11.4033167"><ele>373.33333333333337</ele><time>2026-04-05T09:04:00.009Z</time></trkpt><trkpt lat="43.46774" lon="11.4034867"><ele>372.6666666666667</ele><time>2026-04-05T09:04:01.009Z</time></trkpt><trkpt lat="43.467625" lon="11.4036633"><ele>372.0</ele><time>2026-04-05T09:04:02.009Z</time></trkpt><trkpt lat="43.4675017" lon="11.4038383"><ele>372.0</ele><time>2026-04-05T09:04:03.009Z</time></trkpt><trkpt lat="43.46738" lon="11.4040033"><ele>372.0</ele><time>2026-04-05T09:04:04.009Z</time></trkpt><trkpt lat="43.46726" lon="11.4041667"><ele>372.0</ele><time>2026-04-05T09:04:05.009Z</time></trkpt><trkpt lat="43.4671467" lon="11.4043383"><ele>370.3333333333333</ele><time>2026-04-05T09:04:06.009Z</time></trkpt><trkpt lat="43.4670317" lon="11.4045083"><ele>368.66666666666663</ele><time>2026-04-05T09:04:07.009Z</time></trkpt><trkpt lat="43.46691" lon="11.4046883"><ele>367.0</ele><time>2026-04-05T09:04:08.009Z</time></trkpt><trkpt lat="43.4667867" lon="11.4048617"><ele>367.0</ele><time>2026-04-05T09:04:09.009Z</time></trkpt><trkpt lat="43.4666633" lon="11.4050417"><ele>367.0</ele><time>2026-04-05T09:04:10.009Z</time></trkpt><trkpt lat="43.4665417" lon="11.4052167"><ele>367.0</ele><time>2026-04-05T09:04:11.009Z</time></trkpt><trkpt lat="43.4664167" lon="11.40538"><ele>368.3333333333333</ele><time>2026-04-05T09:04:12.009Z</time></trkpt><trkpt lat="43.4662917" lon="11.4055567"><ele>369.6666666666667</ele><time>2026-04-05T09:04:13.009Z</time></trkpt><trkpt lat="43.4661683" lon="11.4057333"><ele>371.0</ele><time>2026-04-05T09:04:14.009Z</time></trkpt><trkpt lat="43.4660583" lon="11.4059267"><ele>367.6666666666667</ele><time>2026-04-05T09:04:15.009Z</time></trkpt><trkpt lat="43.4659483" lon="11.4061083"><ele>364.3333333333333</ele><time>2026-04-05T09:04:16.009Z</time></trkpt><trkpt lat="43.4658467" lon="11.4062967"><ele>361.0</ele><time>2026-04-05T09:04:17.009Z</time></trkpt><trkpt lat="43.46575" lon="11.40649"><ele>360.66666666666663</ele><time>2026-04-05T09:04:18.009Z</time></trkpt><trkpt lat="43.4656633" lon="11.406685"><ele>360.3333333333333</ele><time>2026-04-05T09:04:19.009Z</time></trkpt><trkpt lat="43.46559" lon="11.4068783"><ele>360.0</ele><time>2026-04-05T09:04:20.009Z</time></trkpt><trkpt lat="43.4655083" lon="11.407075"><ele>359.0</ele><time>2026-04-05T09:04:21.009Z</time></trkpt><trkpt lat="43.465425" lon="11.4072683"><ele>358.0</ele><time>2026-04-05T09:04:22.009Z</time></trkpt><trkpt lat="43.4653467" lon="11.4074517"><ele>357.0</ele><time>2026-04-05T09:04:23.009Z</time></trkpt><trkpt lat="43.46526" lon="11.4076217"><ele>357.0</ele><time>2026-04-05T09:04:24.009Z</time></trkpt><trkpt lat="43.4651783" lon="11.4077667"><ele>357.0</ele><time>2026-04-05T09:04:25.009Z</time></trkpt><trkpt lat="43.4650867" lon="11.4078767"><ele>357.0</ele><time>2026-04-05T09:04:26.009Z</time></trkpt><trkpt lat="43.4649833" lon="11.4079583"><ele>357.0</ele><time>2026-04-05T09:04:27.009Z</time></trkpt><trkpt lat="43.4648717" lon="11.4080083"><ele>356.5</ele><time>2026-04-05T09:04:28.009Z</time></trkpt><trkpt lat="43.4647533" lon="11.40806"><ele>356.0</ele><time>2026-04-05T09:04:29.009Z</time></trkpt><trkpt lat="43.4646467" lon="11.4081183"><ele>355.5</ele><time>2026-04-05T09:04:30.009Z</time></trkpt><trkpt lat="43.4645367" lon="11.4082083"><ele>355.0</ele><time>2026-04-05T09:04:31.009Z</time></trkpt><trkpt lat="43.4644333" lon="11.408325"><ele>355.0</ele><time>2026-04-05T09:04:32.009Z</time></trkpt><trkpt lat="43.4643483" lon="11.40847"><ele>355.0</ele><time>2026-04-05T09:04:33.009Z</time></trkpt><trkpt lat="43.46427" lon="11.4086367"><ele>355.0</ele><time>2026-04-05T09:04:34.009Z</time></trkpt><trkpt lat="43.4642217" lon="11.40882"><ele>355.0</ele><time>2026-04-05T09:04:35.009Z</time></trkpt><trkpt lat="43.4641833" lon="11.4090183"><ele>355.3333333333333</ele><time>2026-04-05T09:04:36.009Z</time></trkpt><trkpt lat="43.4641517" lon="11.4092317"><ele>355.6666666666667</ele><time>2026-04-05T09:04:37.009Z</time></trkpt><trkpt lat="43.4641233" lon="11.4094517"><ele>356.0</ele><time>2026-04-05T09:04:38.009Z</time></trkpt><trkpt lat="43.46409" lon="11.40968"><ele>357.33333333333337</ele><time>2026-04-05T09:04:39.009Z</time></trkpt><trkpt lat="43.4640567" lon="11.40989"><ele>358.6666666666667</ele><time>2026-04-05T09:04:40.009Z</time></trkpt><trkpt lat="43.46402" lon="11.4100983"><ele>360.0</ele><time>2026-04-05T09:04:41.009Z</time></trkpt><trkpt lat="43.4639583" lon="11.410305"><ele>361.3333333333333</ele><time>2026-04-05T09:04:42.009Z</time></trkpt><trkpt lat="43.4638733" lon="11.410495"><ele>362.66666666666663</ele><time>2026-04-05T09:04:43.009Z</time></trkpt><trkpt lat="43.4637733" lon="11.410685"><ele>364.0</ele><time>2026-04-05T09:04:44.009Z</time></trkpt><trkpt lat="43.46367" lon="11.4108683"><ele>361.3333333333333</ele><time>2026-04-05T09:04:45.009Z</time></trkpt><trkpt lat="43.4635667" lon="11.4110467"><ele>358.6666666666667</ele><time>2026-04-05T09:04:46.009Z</time></trkpt><trkpt lat="43.4634617" lon="11.41123"><ele>356.0</ele><time>2026-04-05T09:04:47.009Z</time></trkpt><trkpt lat="43.4633683" lon="11.4114167"><ele>356.0</ele><time>2026-04-05T09:04:48.009Z</time></trkpt><trkpt lat="43.463275" lon="11.4115917"><ele>356.0</ele><time>2026-04-05T09:04:49.009Z</time></trkpt><trkpt lat="43.4631783" lon="11.4117733"><ele>356.0</ele><time>2026-04-05T09:04:50.009Z</time></trkpt><trkpt lat="43.463085" lon="11.4119567"><ele>356.0</ele><time>2026-04-05T09:04:51.009Z</time></trkpt><trkpt lat="43.4629817" lon="11.4121417"><ele>356.0</ele><time>2026-04-05T09:04:52.009Z</time></trkpt><trkpt lat="43.4628767" lon="11.41233"><ele>356.0</ele><time>2026-04-05T09:04:53.009Z</time></trkpt><trkpt lat="43.4627733" lon="11.412525"><ele>355.0</ele><time>2026-04-05T09:04:54.009Z</time></trkpt><trkpt lat="43.4626717" lon="11.4127183"><ele>354.0</ele><time>2026-04-05T09:04:55.009Z</time></trkpt><trkpt lat="43.4625667" lon="11.4129117"><ele>353.0</ele><time>2026-04-05T09:04:56.009Z</time></trkpt><trkpt lat="43.4624583" lon="11.4131"><ele>353.0</ele><time>2026-04-05T09:04:57.009Z</time></trkpt><trkpt lat="43.462345" lon="11.413275"><ele>353.0</ele><time>2026-04-05T09:04:58.009Z</time></trkpt><trkpt lat="43.462225" lon="11.4134317"><ele>353.0</ele><time>2026-04-05T09:04:59.009Z</time></trkpt><trkpt lat="43.4620917" lon="11.4135567"><ele>352.0</ele><time>2026-04-05T09:05:00.009Z</time></trkpt><trkpt lat="43.461955" lon="11.4136483"><ele>351.0</ele><time>2026-04-05T09:05:01.009Z</time></trkpt><trkpt lat="43.4618217" lon="11.4137167"><ele>350.0</ele><time>2026-04-05T09:05:02.009Z</time></trkpt><trkpt lat="43.4616917" lon="11.4137683"><ele>349.0</ele><time>2026-04-05T09:05:03.009Z</time></trkpt><trkpt lat="43.4615667" lon="11.4138317"><ele>348.75</ele><time>2026-04-05T09:05:04.009Z</time></trkpt><trkpt lat="43.4614483" lon="11.4139217"><ele>348.5</ele><time>2026-04-05T09:05:05.009Z</time></trkpt><trkpt lat="43.4613267" lon="11.4140333"><ele>348.25</ele><time>2026-04-05T09:05:06.009Z</time></trkpt><trkpt lat="43.4612033" lon="11.4141717"><ele>348.0</ele><time>2026-04-05T09:05:07.009Z</time></trkpt><trkpt lat="43.4610883" lon="11.4143167"><ele>348.0</ele><time>2026-04-05T09:05:08.009Z</time></trkpt><trkpt lat="43.4609733" lon="11.41446"><ele>348.0</ele><time>2026-04-05T09:05:09.009Z</time></trkpt><trkpt lat="43.460865" lon="11.4145983"><ele>348.0</ele><time>2026-04-05T09:05:10.009Z</time></trkpt><trkpt lat="43.46075" lon="11.4146933"><ele>348.0</ele><time>2026-04-05T09:05:11.009Z</time></trkpt><trkpt lat="43.4606117" lon="11.4147917"><ele>348.0</ele><time>2026-04-05T09:05:12.009Z</time></trkpt><trkpt lat="43.4604717" lon="11.41487"><ele>348.0</ele><time>2026-04-05T09:05:13.009Z</time></trkpt><trkpt lat="43.460325" lon="11.4149583"><ele>348.0</ele><time>2026-04-05T09:05:14.009Z</time></trkpt><trkpt lat="43.4601667" lon="11.415055"><ele>348.0</ele><time>2026-04-05T09:05:15.009Z</time></trkpt><trkpt lat="43.4600167" lon="11.415155"><ele>348.0</ele><time>2026-04-05T09:05:16.009Z</time></trkpt><trkpt lat="43.4598617" lon="11.4152667"><ele>348.0</ele><time>2026-04-05T09:05:17.009Z</time></trkpt><trkpt lat="43.4597117" lon="11.415375"><ele>347.6666666666667</ele><time>2026-04-05T09:05:18.009Z</time></trkpt><trkpt lat="43.4595617" lon="11.4154767"><ele>347.33333333333337</ele><time>2026-04-05T09:05:19.009Z</time></trkpt><trkpt lat="43.4594083" lon="11.4155883"><ele>347.0</ele><time>2026-04-05T09:05:20.009Z</time></trkpt><trkpt lat="43.4592617" lon="11.415695"><ele>347.0</ele><time>2026-04-05T09:05:21.009Z</time></trkpt><trkpt lat="43.4591133" lon="11.4158083"><ele>347.0</ele><time>2026-04-05T09:05:22.009Z</time></trkpt><trkpt lat="43.4589717" lon="11.41591"><ele>347.0</ele><time>2026-04-05T09:05:23.009Z</time></trkpt><trkpt lat="43.4588233" lon="11.41601"><ele>345.0</ele><time>2026-04-05T09:05:24.009Z</time></trkpt><trkpt lat="43.4586717" lon="11.4160883"><ele>343.0</ele><time>2026-04-05T09:05:25.009Z</time></trkpt><trkpt lat="43.4585217" lon="11.4161517"><ele>341.0</ele><time>2026-04-05T09:05:26.009Z</time></trkpt><trkpt lat="43.45838" lon="11.4162067"><ele>341.0</ele><time>2026-04-05T09:05:27.009Z</time></trkpt><trkpt lat="43.4582417" lon="11.416265"><ele>341.0</ele><time>2026-04-05T09:05:28.009Z</time></trkpt><trkpt lat="43.45809" lon="11.416335"><ele>341.0</ele><time>2026-04-05T09:05:29.009Z</time></trkpt><trkpt lat="43.4579483" lon="11.4164133"><ele>340.75</ele><time>2026-04-05T09:05:30.009Z</time></trkpt><trkpt lat="43.4578167" lon="11.4165133"><ele>340.5</ele><time>2026-04-05T09:05:31.009Z</time></trkpt><trkpt lat="43.4576933" lon="11.416635"><ele>340.25</ele><time>2026-04-05T09:05:32.009Z</time></trkpt><trkpt lat="43.4575917" lon="11.4167817"><ele>340.0</ele><time>2026-04-05T09:05:33.009Z</time></trkpt><trkpt lat="43.4574967" lon="11.4169583"><ele>340.0</ele><time>2026-04-05T09:05:34.009Z</time></trkpt><trkpt lat="43.4574183" lon="11.4171417"><ele>340.0</ele><time>2026-04-05T09:05:35.009Z</time></trkpt><trkpt lat="43.4573533" lon="11.4173417"><ele>340.0</ele><time>2026-04-05T09:05:36.009Z</time></trkpt><trkpt lat="43.4573083" lon="11.41755"><ele>340.75</ele><time>2026-04-05T09:05:37.009Z</time></trkpt><trkpt lat="43.4572883" lon="11.4177567"><ele>341.5</ele><time>2026-04-05T09:05:38.009Z</time></trkpt><trkpt lat="43.4572767" lon="11.41796"><ele>342.25</ele><time>2026-04-05T09:05:39.009Z</time></trkpt><trkpt lat="43.457265" lon="11.418155"><ele>343.0</ele><time>2026-04-05T09:05:40.009Z</time></trkpt><trkpt lat="43.45722" lon="11.4183333"><ele>343.25</ele><time>2026-04-05T09:05:41.009Z</time></trkpt><trkpt lat="43.4571417" lon="11.4184933"><ele>343.5</ele><time>2026-04-05T09:05:42.009Z</time></trkpt><trkpt lat="43.4570467" lon="11.4186433"><ele>343.75</ele><time>2026-04-05T09:05:43.009Z</time></trkpt><trkpt lat="43.456945" lon="11.4187767"><ele>344.0</ele><time>2026-04-05T09:05:44.009Z</time></trkpt><trkpt lat="43.4568267" lon="11.4189033"><ele>343.0</ele><time>2026-04-05T09:05:45.009Z</time></trkpt><trkpt lat="43.4567083" lon="11.419025"><ele>342.0</ele><time>2026-04-05T09:05:46.009Z</time></trkpt><trkpt lat="43.4566033" lon="11.419145"><ele>341.0</ele><time>2026-04-05T09:05:47.009Z</time></trkpt><trkpt lat="43.456505" lon="11.419255"><ele>340.0</ele><time>2026-04-05T09:05:48.009Z</time></trkpt><trkpt lat="43.4564033" lon="11.4193467"><ele>340.0</ele><time>2026-04-05T09:05:49.009Z</time></trkpt><trkpt lat="43.45629" lon="11.4194283"><ele>340.0</ele><time>2026-04-05T09:05:50.009Z</time></trkpt><trkpt lat="43.45617" lon="11.4195033"><ele>340.0</ele><time>2026-04-05T09:05:51.009Z</time></trkpt><trkpt lat="43.4560433" lon="11.4195683"><ele>340.0</ele><time>2026-04-05T09:05:52.009Z</time></trkpt><trkpt lat="43.45591" lon="11.4196267"><ele>341.0</ele><time>2026-04-05T09:05:53.009Z</time></trkpt><trkpt lat="43.45577" lon="11.41968"><ele>342.0</ele><time>2026-04-05T09:05:54.009Z</time></trkpt><trkpt lat="43.4556267" lon="11.4197233"><ele>343.0</ele><time>2026-04-05T09:05:55.009Z</time></trkpt><trkpt lat="43.4554733" lon="11.4197483"><ele>344.0</ele><time>2026-04-05T09:05:56.009Z</time></trkpt><trkpt lat="43.45532" lon="11.4197417"><ele>345.0</ele><time>2026-04-05T09:05:57.009Z</time></trkpt><trkpt lat="43.455165" lon="11.4197233"><ele>346.0</ele><time>2026-04-05T09:05:58.009Z</time></trkpt><trkpt lat="43.4550133" lon="11.41969"><ele>347.0</ele><time>2026-04-05T09:05:59.009Z</time></trkpt><trkpt lat="43.4548667" lon="11.419635"><ele>345.0</ele><time>2026-04-05T09:06:00.009Z</time></trkpt><trkpt lat="43.4547267" lon="11.4195567"><ele>343.0</ele><time>2026-04-05T09:06:01.009Z</time></trkpt><trkpt lat="43.4545933" lon="11.4194783"><ele>341.0</ele><time>2026-04-05T09:06:02.009Z</time></trkpt><trkpt lat="43.45446" lon="11.41937"><ele>341.0</ele><time>2026-04-05T09:06:03.009Z</time></trkpt><trkpt lat="43.45434" lon="11.41925"><ele>341.0</ele><time>2026-04-05T09:06:04.009Z</time></trkpt><trkpt lat="43.454215" lon="11.4191317"><ele>341.0</ele><time>2026-04-05T09:06:05.009Z</time></trkpt><trkpt lat="43.454085" lon="11.41901"><ele>341.0</ele><time>2026-04-05T09:06:06.009Z</time></trkpt><trkpt lat="43.4539633" lon="11.41889"><ele>341.0</ele><time>2026-04-05T09:06:07.009Z</time></trkpt><trkpt lat="43.4538483" lon="11.4187883"><ele>341.0</ele><time>2026-04-05T09:06:08.009Z</time></trkpt><trkpt lat="43.4537233" lon="11.4187067"><ele>341.0</ele><time>2026-04-05T09:06:09.009Z</time></trkpt><trkpt lat="43.45359" lon="11.41864"><ele>338.75</ele><time>2026-04-05T09:06:10.009Z</time></trkpt><trkpt lat="43.4534467" lon="11.4186183"><ele>336.5</ele><time>2026-04-05T09:06:11.009Z</time></trkpt><trkpt lat="43.4533017" lon="11.4186167"><ele>334.25</ele><time>2026-04-05T09:06:12.009Z</time></trkpt><trkpt lat="43.4531567" lon="11.4186183"><ele>332.0</ele><time>2026-04-05T09:06:13.009Z</time></trkpt><trkpt lat="43.452995" lon="11.4186217"><ele>331.6666666666667</ele><time>2026-04-05T09:06:14.009Z</time></trkpt><trkpt lat="43.452835" lon="11.41863"><ele>331.3333333333333</ele><time>2026-04-05T09:06:15.009Z</time></trkpt><trkpt lat="43.4526683" lon="11.418635"><ele>331.0</ele><time>2026-04-05T09:06:16.009Z</time></trkpt><trkpt lat="43.4525083" lon="11.41865"><ele>331.0</ele><time>2026-04-05T09:06:17.009Z</time></trkpt><trkpt lat="43.45235" lon="11.4186533"><ele>331.0</ele><time>2026-04-05T09:06:18.009Z</time></trkpt><trkpt lat="43.4521933" lon="11.41866"><ele>331.0</ele><time>2026-04-05T09:06:19.009Z</time></trkpt><trkpt lat="43.45203" lon="11.4186717"><ele>330.5</ele><time>2026-04-05T09:06:20.009Z</time></trkpt><trkpt lat="43.451875" lon="11.4186833"><ele>330.0</ele><time>2026-04-05T09:06:21.009Z</time></trkpt><trkpt lat="43.4517283" lon="11.4187"><ele>329.5</ele><time>2026-04-05T09:06:22.009Z</time></trkpt><trkpt lat="43.451585" lon="11.418715"><ele>329.0</ele><time>2026-04-05T09:06:23.009Z</time></trkpt><trkpt lat="43.4514483" lon="11.4187417"><ele>329.0</ele><time>2026-04-05T09:06:24.009Z</time></trkpt><trkpt lat="43.451315" lon="11.4187583"><ele>329.0</ele><time>2026-04-05T09:06:25.009Z</time></trkpt><trkpt lat="43.4511767" lon="11.4187767"><ele>329.0</ele><time>2026-04-05T09:06:26.009Z</time></trkpt><trkpt lat="43.4510433" lon="11.4187867"><ele>329.0</ele><time>2026-04-05T09:06:27.009Z</time></trkpt><trkpt lat="43.4509167" lon="11.4188067"><ele>328.25</ele><time>2026-04-05T09:06:28.009Z</time></trkpt><trkpt lat="43.4507917" lon="11.4188183"><ele>327.5</ele><time>2026-04-05T09:06:29.009Z</time></trkpt><trkpt lat="43.4506667" lon="11.4188483"><ele>326.75</ele><time>2026-04-05T09:06:30.009Z</time></trkpt><trkpt lat="43.4505517" lon="11.4188867"><ele>326.0</ele><time>2026-04-05T09:06:31.009Z</time></trkpt><trkpt lat="43.4504417" lon="11.41891"><ele>325.5</ele><time>2026-04-05T09:06:32.009Z</time></trkpt><trkpt lat="43.45033" lon="11.4189283"><ele>325.0</ele><time>2026-04-05T09:06:33.009Z</time></trkpt><trkpt lat="43.4502183" lon="11.4189333"><ele>324.5</ele><time>2026-04-05T09:06:34.009Z</time></trkpt><trkpt lat="43.450105" lon="11.4189233"><ele>324.0</ele><time>2026-04-05T09:06:35.009Z</time></trkpt><trkpt lat="43.4499833" lon="11.4188867"><ele>324.0</ele><time>2026-04-05T09:06:36.009Z</time></trkpt><trkpt lat="43.449865" lon="11.4188233"><ele>324.0</ele><time>2026-04-05T09:06:37.009Z</time></trkpt><trkpt lat="43.4497417" lon="11.418765"><ele>324.0</ele><time>2026-04-05T09:06:38.009Z</time></trkpt><trkpt lat="43.4496117" lon="11.4187017"><ele>324.0</ele><time>2026-04-05T09:06:39.009Z</time></trkpt><trkpt lat="43.4494833" lon="11.4186533"><ele>325.75</ele><time>2026-04-05T09:06:40.009Z</time></trkpt><trkpt lat="43.4493483" lon="11.4186"><ele>327.5</ele><time>2026-04-05T09:06:41.009Z</time></trkpt><trkpt lat="43.449215" lon="11.41856"><ele>329.25</ele><time>2026-04-05T09:06:42.009Z</time></trkpt><trkpt lat="43.4490767" lon="11.4185333"><ele>331.0</ele><time>2026-04-05T09:06:43.009Z</time></trkpt><trkpt lat="43.44894" lon="11.4185233"><ele>331.0</ele><time>2026-04-05T09:06:44.009Z</time></trkpt><trkpt lat="43.4488" lon="11.4185083"><ele>331.0</ele><time>2026-04-05T09:06:45.009Z</time></trkpt><trkpt lat="43.4486683" lon="11.4184983"><ele>331.0</ele><time>2026-04-05T09:06:46.009Z</time></trkpt><trkpt lat="43.4485333" lon="11.4184683"><ele>331.0</ele><time>2026-04-05T09:06:47.009Z</time></trkpt><trkpt lat="43.4484" lon="11.4184283"><ele>331.0</ele><time>2026-04-05T09:06:48.009Z</time></trkpt><trkpt lat="43.4482683" lon="11.4183583"><ele>331.0</ele><time>2026-04-05T09:06:49.009Z</time></trkpt><trkpt lat="43.44814" lon="11.418265"><ele>331.0</ele><time>2026-04-05T09:06:50.009Z</time></trkpt><trkpt lat="43.44801" lon="11.4181483"><ele>331.0</ele><time>2026-04-05T09:06:51.009Z</time></trkpt><trkpt lat="43.4478933" lon="11.418035"><ele>332.75</ele><time>2026-04-05T09:06:52.009Z</time></trkpt><trkpt lat="43.4477733" lon="11.41792"><ele>334.5</ele><time>2026-04-05T09:06:53.009Z</time></trkpt><trkpt lat="43.4476433" lon="11.4178217"><ele>336.25</ele><time>2026-04-05T09:06:54.009Z</time></trkpt><trkpt lat="43.4475067" lon="11.4177483"><ele>338.0</ele><time>2026-04-05T09:06:55.009Z</time></trkpt><trkpt lat="43.4473617" lon="11.4177067"><ele>338.0</ele><time>2026-04-05T09:06:56.009Z</time></trkpt><trkpt lat="43.4472233" lon="11.4176767"><ele>338.0</ele><time>2026-04-05T09:06:57.009Z</time></trkpt><trkpt lat="43.44709" lon="11.417645"><ele>338.0</ele><time>2026-04-05T09:06:58.009Z</time></trkpt><trkpt lat="43.4469633" lon="11.4176267"><ele>338.0</ele><time>2026-04-05T09:06:59.009Z</time></trkpt><trkpt lat="43.4468383" lon="11.4176017"><ele>338.5</ele><time>2026-04-05T09:07:00.009Z</time></trkpt><trkpt lat="43.446715" lon="11.41756"><ele>339.0</ele><time>2026-04-05T09:07:01.009Z</time></trkpt><trkpt lat="43.4465883" lon="11.4175217"><ele>339.5</ele><time>2026-04-05T09:07:02.009Z</time></trkpt><trkpt lat="43.4464717" lon="11.4174833"><ele>340.0</ele><time>2026-04-05T09:07:03.009Z</time></trkpt><trkpt lat="43.44636" lon="11.41746"><ele>343.0</ele><time>2026-04-05T09:07:04.009Z</time></trkpt><trkpt lat="43.446245" lon="11.41745"><ele>346.0</ele><time>2026-04-05T09:07:05.009Z</time></trkpt><trkpt lat="43.44613" lon="11.41747"><ele>349.0</ele><time>2026-04-05T09:07:06.009Z</time></trkpt><trkpt lat="43.4460217" lon="11.4175383"><ele>352.0</ele><time>2026-04-05T09:07:07.009Z</time></trkpt><trkpt lat="43.4459267" lon="11.417635"><ele>352.0</ele><time>2026-04-05T09:07:08.009Z</time></trkpt><trkpt lat="43.4458533" lon="11.4177733"><ele>352.0</ele><time>2026-04-05T09:07:09.009Z</time></trkpt><trkpt lat="43.4457867" lon="11.41794"><ele>352.0</ele><time>2026-04-05T09:07:10.009Z</time></trkpt><trkpt lat="43.4457333" lon="11.4181217"><ele>352.0</ele><time>2026-04-05T09:07:11.01Z</time></trkpt><trkpt lat="43.4456933" lon="11.4183033"><ele>349.5</ele><time>2026-04-05T09:07:12.009Z</time></trkpt><trkpt lat="43.4456617" lon="11.4184933"><ele>347.0</ele><time>2026-04-05T09:07:13.009Z</time></trkpt><trkpt lat="43.445645" lon="11.4186767"><ele>344.5</ele><time>2026-04-05T09:07:14.009Z</time></trkpt><trkpt lat="43.44563" lon="11.4188617"><ele>342.0</ele><time>2026-04-05T09:07:15.009Z</time></trkpt><trkpt lat="43.4456233" lon="11.419045"><ele>340.0</ele><time>2026-04-05T09:07:16.009Z</time></trkpt><trkpt lat="43.44563" lon="11.4192183"><ele>338.0</ele><time>2026-04-05T09:07:17.009Z</time></trkpt><trkpt lat="43.4456133" lon="11.4193833"><ele>336.0</ele><time>2026-04-05T09:07:18.009Z</time></trkpt><trkpt lat="43.445585" lon="11.4195317"><ele>334.0</ele><time>2026-04-05T09:07:19.009Z</time></trkpt><trkpt lat="43.4455267" lon="11.4196417"><ele>335.25</ele><time>2026-04-05T09:07:20.009Z</time></trkpt><trkpt lat="43.4454367" lon="11.4197367"><ele>336.5</ele><time>2026-04-05T09:07:21.009Z</time></trkpt><trkpt lat="43.4453183" lon="11.4198083"><ele>337.75</ele><time>2026-04-05T09:07:22.009Z</time></trkpt><trkpt lat="43.44518" lon="11.419875"><ele>339.0</ele><time>2026-04-05T09:07:23.009Z</time></trkpt><trkpt lat="43.4450433" lon="11.41994"><ele>339.0</ele><time>2026-04-05T09:07:24.009Z</time></trkpt><trkpt lat="43.44492" lon="11.4200183"><ele>339.0</ele><time>2026-04-05T09:07:25.009Z</time></trkpt><trkpt lat="43.4447967" lon="11.42009"><ele>339.0</ele><time>2026-04-05T09:07:26.009Z</time></trkpt><trkpt lat="43.4446817" lon="11.4201683"><ele>339.0</ele><time>2026-04-05T09:07:27.009Z</time></trkpt><trkpt lat="43.4445783" lon="11.420265"><ele>338.5</ele><time>2026-04-05T09:07:28.009Z</time></trkpt><trkpt lat="43.4444917" lon="11.420375"><ele>338.0</ele><time>2026-04-05T09:07:29.009Z</time></trkpt><trkpt lat="43.44441" lon="11.42049"><ele>337.5</ele><time>2026-04-05T09:07:30.009Z</time></trkpt><trkpt lat="43.4443383" lon="11.420605"><ele>337.0</ele><time>2026-04-05T09:07:31.009Z</time></trkpt><trkpt lat="43.4442667" lon="11.4207167"><ele>337.0</ele><time>2026-04-05T09:07:32.009Z</time></trkpt><trkpt lat="43.4441933" lon="11.4208133"><ele>337.0</ele><time>2026-04-05T09:07:33.009Z</time></trkpt><trkpt lat="43.4441133" lon="11.4208883"><ele>337.0</ele><time>2026-04-05T09:07:34.009Z</time></trkpt><trkpt lat="43.44403" lon="11.4209517"><ele>337.0</ele><time>2026-04-05T09:07:35.009Z</time></trkpt><trkpt lat="43.4439417" lon="11.4210133"><ele>337.0</ele><time>2026-04-05T09:07:36.009Z</time></trkpt><trkpt lat="43.4438517" lon="11.42108"><ele>338.8</ele><time>2026-04-05T09:07:37.009Z</time></trkpt><trkpt lat="43.4437567" lon="11.4211483"><ele>340.6</ele><time>2026-04-05T09:07:38.009Z</time></trkpt><trkpt lat="43.443665" lon="11.4212117"><ele>342.40000000000003</ele><time>2026-04-05T09:07:39.009Z</time></trkpt><trkpt lat="43.4435817" lon="11.42127"><ele>344.20000000000005</ele><time>2026-04-05T09:07:40.009Z</time></trkpt><trkpt lat="43.4435017" lon="11.4213333"><ele>346.0</ele><time>2026-04-05T09:07:41.009Z</time></trkpt><trkpt lat="43.4434333" lon="11.421395"><ele>343.0</ele><time>2026-04-05T09:07:42.009Z</time></trkpt><trkpt lat="43.4433633" lon="11.4214467"><ele>340.0</ele><time>2026-04-05T09:07:43.009Z</time></trkpt><trkpt lat="43.4432933" lon="11.4214883"><ele>337.0</ele><time>2026-04-05T09:07:44.009Z</time></trkpt><trkpt lat="43.4432183" lon="11.4215217"><ele>334.0</ele><time>2026-04-05T09:07:45.009Z</time></trkpt><trkpt lat="43.4431367" lon="11.4215383"><ele>331.0</ele><time>2026-04-05T09:07:46.009Z</time></trkpt><trkpt lat="43.44305" lon="11.4215433"><ele>328.0</ele><time>2026-04-05T09:07:47.009Z</time></trkpt><trkpt lat="43.4429467" lon="11.4215517"><ele>328.0</ele><time>2026-04-05T09:07:48.009Z</time></trkpt><trkpt lat="43.4428433" lon="11.42156"><ele>328.0</ele><time>2026-04-05T09:07:49.009Z</time></trkpt><trkpt lat="43.4427317" lon="11.42156"><ele>328.0</ele><time>2026-04-05T09:07:50.009Z</time></trkpt><trkpt lat="43.4426117" lon="11.421555"><ele>328.0</ele><time>2026-04-05T09:07:51.009Z</time></trkpt><trkpt lat="43.4424867" lon="11.4215383"><ele>328.0</ele><time>2026-04-05T09:07:52.009Z</time></trkpt><trkpt lat="43.44236" lon="11.4215183"><ele>328.0</ele><time>2026-04-05T09:07:53.009Z</time></trkpt><trkpt lat="43.4422317" lon="11.4214983"><ele>328.0</ele><time>2026-04-05T09:07:54.009Z</time></trkpt><trkpt lat="43.4421017" lon="11.42147"><ele>328.0</ele><time>2026-04-05T09:07:55.009Z</time></trkpt><trkpt lat="43.4419667" lon="11.421455"><ele>326.75</ele><time>2026-04-05T09:07:56.009Z</time></trkpt><trkpt lat="43.441825" lon="11.4214333"><ele>325.5</ele><time>2026-04-05T09:07:57.009Z</time></trkpt><trkpt lat="43.4416767" lon="11.4214117"><ele>324.25</ele><time>2026-04-05T09:07:58.009Z</time></trkpt><trkpt lat="43.4415333" lon="11.4213867"><ele>323.0</ele><time>2026-04-05T09:07:59.009Z</time></trkpt><trkpt lat="43.4413967" lon="11.42136"><ele>321.75</ele><time>2026-04-05T09:08:00.008Z</time></trkpt><trkpt lat="43.4412667" lon="11.4213333"><ele>320.5</ele><time>2026-04-05T09:08:01.008Z</time></trkpt><trkpt lat="43.4411367" lon="11.4212867"><ele>319.25</ele><time>2026-04-05T09:08:02.008Z</time></trkpt><trkpt lat="43.4410133" lon="11.4212167"><ele>318.0</ele><time>2026-04-05T09:08:03.008Z</time></trkpt><trkpt lat="43.4408883" lon="11.4211267"><ele>322.0</ele><time>2026-04-05T09:08:04.008Z</time></trkpt><trkpt lat="43.4407633" lon="11.421025"><ele>326.0</ele><time>2026-04-05T09:08:05.008Z</time></trkpt><trkpt lat="43.440625" lon="11.42091"><ele>330.0</ele><time>2026-04-05T09:08:06.008Z</time></trkpt><trkpt lat="43.4404733" lon="11.42079"><ele>329.6666666666667</ele><time>2026-04-05T09:08:07.008Z</time></trkpt><trkpt lat="43.4403217" lon="11.42066"><ele>329.33333333333337</ele><time>2026-04-05T09:08:08.008Z</time></trkpt><trkpt lat="43.4401617" lon="11.42053"><ele>329.0</ele><time>2026-04-05T09:08:09.008Z</time></trkpt><trkpt lat="43.4400017" lon="11.4203967"><ele>329.0</ele><time>2026-04-05T09:08:10.008Z</time></trkpt><trkpt lat="43.4398383" lon="11.4202567"><ele>329.0</ele><time>2026-04-05T09:08:11.008Z</time></trkpt><trkpt lat="43.4396783" lon="11.420115"><ele>329.0</ele><time>2026-04-05T09:08:12.008Z</time></trkpt><trkpt lat="43.43953" lon="11.4199783"><ele>325.33333333333337</ele><time>2026-04-05T09:08:13.008Z</time></trkpt><trkpt lat="43.43938" lon="11.419855"><ele>321.6666666666667</ele><time>2026-04-05T09:08:14.008Z</time></trkpt><trkpt lat="43.4392267" lon="11.4197583"><ele>318.0</ele><time>2026-04-05T09:08:15.008Z</time></trkpt><trkpt lat="43.4390633" lon="11.41968"><ele>321.3333333333333</ele><time>2026-04-05T09:08:16.008Z</time></trkpt><trkpt lat="43.4388917" lon="11.4196333"><ele>324.66666666666663</ele><time>2026-04-05T09:08:17.008Z</time></trkpt><trkpt lat="43.43871" lon="11.4196017"><ele>328.0</ele><time>2026-04-05T09:08:18.008Z</time></trkpt><trkpt lat="43.4385283" lon="11.419575"><ele>328.0</ele><time>2026-04-05T09:08:19.008Z</time></trkpt><trkpt lat="43.4383433" lon="11.419565"><ele>328.0</ele><time>2026-04-05T09:08:20.008Z</time></trkpt><trkpt lat="43.438155" lon="11.4195467"><ele>328.0</ele><time>2026-04-05T09:08:21.008Z</time></trkpt><trkpt lat="43.4379767" lon="11.4195167"><ele>326.3333333333333</ele><time>2026-04-05T09:08:22.008Z</time></trkpt><trkpt lat="43.4377983" lon="11.419495"><ele>324.6666666666667</ele><time>2026-04-05T09:08:23.008Z</time></trkpt><trkpt lat="43.4376233" lon="11.4194667"><ele>323.0</ele><time>2026-04-05T09:08:24.008Z</time></trkpt><trkpt lat="43.4374517" lon="11.419435"><ele>323.0</ele><time>2026-04-05T09:08:25.008Z</time></trkpt><trkpt lat="43.4372817" lon="11.4194017"><ele>323.0</ele><time>2026-04-05T09:08:26.008Z</time></trkpt><trkpt lat="43.4371083" lon="11.4193633"><ele>323.0</ele><time>2026-04-05T09:08:27.008Z</time></trkpt><trkpt lat="43.4369333" lon="11.41933"><ele>322.0</ele><time>2026-04-05T09:08:28.008Z</time></trkpt><trkpt lat="43.4367667" lon="11.4193"><ele>321.0</ele><time>2026-04-05T09:08:29.008Z</time></trkpt><trkpt lat="43.436595" lon="11.4192717"><ele>320.0</ele><time>2026-04-05T09:08:30.008Z</time></trkpt><trkpt lat="43.4364233" lon="11.419235"><ele>318.6666666666667</ele><time>2026-04-05T09:08:31.008Z</time></trkpt><trkpt lat="43.4362633" lon="11.4191967"><ele>317.3333333333333</ele><time>2026-04-05T09:08:32.008Z</time></trkpt><trkpt lat="43.4360967" lon="11.4191733"><ele>316.0</ele><time>2026-04-05T09:08:33.008Z</time></trkpt><trkpt lat="43.4359317" lon="11.4191483"><ele>316.0</ele><time>2026-04-05T09:08:34.008Z</time></trkpt><trkpt lat="43.43577" lon="11.41911"><ele>316.0</ele><time>2026-04-05T09:08:35.008Z</time></trkpt><trkpt lat="43.435605" lon="11.4190767"><ele>316.0</ele><time>2026-04-05T09:08:36.008Z</time></trkpt><trkpt lat="43.435445" lon="11.4190633"><ele>317.0</ele><time>2026-04-05T09:08:37.008Z</time></trkpt><trkpt lat="43.4353" lon="11.419085"><ele>318.0</ele><time>2026-04-05T09:08:38.008Z</time></trkpt><trkpt lat="43.435155" lon="11.4191367"><ele>319.0</ele><time>2026-04-05T09:08:39.008Z</time></trkpt><trkpt lat="43.4350133" lon="11.4192283"><ele>319.0</ele><time>2026-04-05T09:08:40.008Z</time></trkpt><trkpt lat="43.4348667" lon="11.41934"><ele>319.0</ele><time>2026-04-05T09:08:41.008Z</time></trkpt><trkpt lat="43.4347317" lon="11.4194567"><ele>319.0</ele><time>2026-04-05T09:08:42.008Z</time></trkpt><trkpt lat="43.4346017" lon="11.4195883"><ele>318.0</ele><time>2026-04-05T09:08:43.008Z</time></trkpt><trkpt lat="43.434475" lon="11.4197417"><ele>317.0</ele><time>2026-04-05T09:08:44.008Z</time></trkpt><trkpt lat="43.434345" lon="11.419885"><ele>316.0</ele><time>2026-04-05T09:08:45.008Z</time></trkpt><trkpt lat="43.4342183" lon="11.42003"><ele>316.0</ele><time>2026-04-05T09:08:46.008Z</time></trkpt><trkpt lat="43.4341017" lon="11.4201617"><ele>316.0</ele><time>2026-04-05T09:08:47.008Z</time></trkpt><trkpt lat="43.43399" lon="11.420305"><ele>316.0</ele><time>2026-04-05T09:08:48.008Z</time></trkpt><trkpt lat="43.4338817" lon="11.4204433"><ele>312.75</ele><time>2026-04-05T09:08:49.008Z</time></trkpt><trkpt lat="43.4337783" lon="11.42058"><ele>309.5</ele><time>2026-04-05T09:08:50.008Z</time></trkpt><trkpt lat="43.4336867" lon="11.4207017"><ele>306.25</ele><time>2026-04-05T09:08:51.008Z</time></trkpt><trkpt lat="43.4335883" lon="11.4207983"><ele>303.0</ele><time>2026-04-05T09:08:52.008Z</time></trkpt><trkpt lat="43.43348" lon="11.420855"><ele>303.0</ele><time>2026-04-05T09:08:53.008Z</time></trkpt><trkpt lat="43.433365" lon="11.420855"><ele>303.0</ele><time>2026-04-05T09:08:54.008Z</time></trkpt><trkpt lat="43.4332567" lon="11.4207917"><ele>303.0</ele><time>2026-04-05T09:08:55.008Z</time></trkpt><trkpt lat="43.4331617" lon="11.4206883"><ele>303.0</ele><time>2026-04-05T09:08:56.008Z</time></trkpt><trkpt lat="43.43308" lon="11.4205367"><ele>302.3333333333333</ele><time>2026-04-05T09:08:57.008Z</time></trkpt><trkpt lat="43.433005" lon="11.4203517"><ele>301.66666666666663</ele><time>2026-04-05T09:08:58.008Z</time></trkpt><trkpt lat="43.4329333" lon="11.4201633"><ele>301.0</ele><time>2026-04-05T09:08:59.008Z</time></trkpt><trkpt lat="43.4328583" lon="11.4199817"><ele>301.0</ele><time>2026-04-05T09:09:00.008Z</time></trkpt><trkpt lat="43.4327833" lon="11.4198117"><ele>301.0</ele><time>2026-04-05T09:09:01.008Z</time></trkpt><trkpt lat="43.4327017" lon="11.4196417"><ele>301.0</ele><time>2026-04-05T09:09:02.008Z</time></trkpt><trkpt lat="43.4326033" lon="11.419475"><ele>301.0</ele><time>2026-04-05T09:09:03.008Z</time></trkpt><trkpt lat="43.4324983" lon="11.4193083"><ele>302.0</ele><time>2026-04-05T09:09:04.008Z</time></trkpt><trkpt lat="43.4323933" lon="11.4191483"><ele>303.0</ele><time>2026-04-05T09:09:05.008Z</time></trkpt><trkpt lat="43.43229" lon="11.4189867"><ele>304.0</ele><time>2026-04-05T09:09:06.008Z</time></trkpt><trkpt lat="43.4321867" lon="11.4188233"><ele>302.3333333333333</ele><time>2026-04-05T09:09:07.008Z</time></trkpt><trkpt lat="43.4320867" lon="11.4186617"><ele>300.6666666666667</ele><time>2026-04-05T09:09:08.008Z</time></trkpt><trkpt lat="43.4319833" lon="11.4185033"><ele>299.0</ele><time>2026-04-05T09:09:09.008Z</time></trkpt><trkpt lat="43.4318683" lon="11.4183283"><ele>299.0</ele><time>2026-04-05T09:09:10.008Z</time></trkpt><trkpt lat="43.4317533" lon="11.4181683"><ele>299.0</ele><time>2026-04-05T09:09:11.008Z</time></trkpt><trkpt lat="43.4316383" lon="11.418"><ele>299.0</ele><time>2026-04-05T09:09:12.008Z</time></trkpt><trkpt lat="43.4315183" lon="11.4178367"><ele>299.6666666666667</ele><time>2026-04-05T09:09:13.008Z</time></trkpt><trkpt lat="43.4314117" lon="11.4176833"><ele>300.3333333333333</ele><time>2026-04-05T09:09:14.008Z</time></trkpt><trkpt lat="43.4313067" lon="11.41753"><ele>301.0</ele><time>2026-04-05T09:09:15.008Z</time></trkpt><trkpt lat="43.4312083" lon="11.4173683"><ele>301.0</ele><time>2026-04-05T09:09:16.008Z</time></trkpt><trkpt lat="43.431105" lon="11.41723"><ele>301.0</ele><time>2026-04-05T09:09:17.008Z</time></trkpt><trkpt lat="43.430995" lon="11.4170983"><ele>301.0</ele><time>2026-04-05T09:09:18.008Z</time></trkpt><trkpt lat="43.4308667" lon="11.4169883"><ele>301.0</ele><time>2026-04-05T09:09:19.008Z</time></trkpt><trkpt lat="43.43073" lon="11.4169033"><ele>304.0</ele><time>2026-04-05T09:09:20.008Z</time></trkpt><trkpt lat="43.43058" lon="11.4168517"><ele>307.0</ele><time>2026-04-05T09:09:21.008Z</time></trkpt><trkpt lat="43.430425" lon="11.4168183"><ele>310.0</ele><time>2026-04-05T09:09:22.008Z</time></trkpt><trkpt lat="43.4302817" lon="11.4168017"><ele>310.0</ele><time>2026-04-05T09:09:23.008Z</time></trkpt><trkpt lat="43.4301383" lon="11.4167917"><ele>310.0</ele><time>2026-04-05T09:09:24.008Z</time></trkpt><trkpt lat="43.4300083" lon="11.41677"><ele>310.0</ele><time>2026-04-05T09:09:25.008Z</time></trkpt><trkpt lat="43.4298817" lon="11.4167333"><ele>310.0</ele><time>2026-04-05T09:09:26.008Z</time></trkpt><trkpt lat="43.4297717" lon="11.4166483"><ele>310.0</ele><time>2026-04-05T09:09:27.008Z</time></trkpt><trkpt lat="43.4296733" lon="11.4165133"><ele>310.0</ele><time>2026-04-05T09:09:28.008Z</time></trkpt><trkpt lat="43.429595" lon="11.416355"><ele>310.0</ele><time>2026-04-05T09:09:29.008Z</time></trkpt><trkpt lat="43.4295417" lon="11.416185"><ele>310.0</ele><time>2026-04-05T09:09:30.008Z</time></trkpt><trkpt lat="43.4295167" lon="11.416"><ele>310.75</ele><time>2026-04-05T09:09:31.008Z</time></trkpt><trkpt lat="43.4295283" lon="11.4158217"><ele>311.5</ele><time>2026-04-05T09:09:32.008Z</time></trkpt><trkpt lat="43.4295767" lon="11.4156617"><ele>312.25</ele><time>2026-04-05T09:09:33.008Z</time></trkpt><trkpt lat="43.4296783" lon="11.4155317"><ele>313.0</ele><time>2026-04-05T09:09:34.008Z</time></trkpt><trkpt lat="43.4297983" lon="11.4154233"><ele>309.0</ele><time>2026-04-05T09:09:35.008Z</time></trkpt><trkpt lat="43.4299317" lon="11.4153217"><ele>305.0</ele><time>2026-04-05T09:09:36.008Z</time></trkpt><trkpt lat="43.4300583" lon="11.4152083"><ele>301.0</ele><time>2026-04-05T09:09:37.008Z</time></trkpt><trkpt lat="43.4301817" lon="11.4150867"><ele>301.0</ele><time>2026-04-05T09:09:38.008Z</time></trkpt><trkpt lat="43.4302933" lon="11.4149517"><ele>301.0</ele><time>2026-04-05T09:09:39.008Z</time></trkpt><trkpt lat="43.4303983" lon="11.414815"><ele>301.0</ele><time>2026-04-05T09:09:40.008Z</time></trkpt><trkpt lat="43.4304917" lon="11.41467"><ele>301.0</ele><time>2026-04-05T09:09:41.008Z</time></trkpt><trkpt lat="43.4305883" lon="11.414535"><ele>301.5</ele><time>2026-04-05T09:09:42.008Z</time></trkpt><trkpt lat="43.4306817" lon="11.4144183"><ele>302.0</ele><time>2026-04-05T09:09:43.008Z</time></trkpt><trkpt lat="43.4307933" lon="11.414325"><ele>302.5</ele><time>2026-04-05T09:09:44.008Z</time></trkpt><trkpt lat="43.43092" lon="11.4142667"><ele>303.0</ele><time>2026-04-05T09:09:45.008Z</time></trkpt><trkpt lat="43.43105" lon="11.4142067"><ele>303.0</ele><time>2026-04-05T09:09:46.008Z</time></trkpt><trkpt lat="43.4311867" lon="11.41416"><ele>303.0</ele><time>2026-04-05T09:09:47.008Z</time></trkpt><trkpt lat="43.4313183" lon="11.4141167"><ele>303.0</ele><time>2026-04-05T09:09:48.008Z</time></trkpt><trkpt lat="43.43144" lon="11.4140683"><ele>303.0</ele><time>2026-04-05T09:09:49.008Z</time></trkpt><trkpt lat="43.431545" lon="11.4139867"><ele>302.75</ele><time>2026-04-05T09:09:50.008Z</time></trkpt><trkpt lat="43.4316283" lon="11.4138717"><ele>302.5</ele><time>2026-04-05T09:09:51.008Z</time></trkpt><trkpt lat="43.431705" lon="11.4137417"><ele>302.25</ele><time>2026-04-05T09:09:52.008Z</time></trkpt><trkpt lat="43.43177" lon="11.4135967"><ele>302.0</ele><time>2026-04-05T09:09:53.008Z</time></trkpt><trkpt lat="43.43182" lon="11.413445"><ele>302.0</ele><time>2026-04-05T09:09:54.008Z</time></trkpt><trkpt lat="43.431855" lon="11.4132967"><ele>302.0</ele><time>2026-04-05T09:09:55.008Z</time></trkpt><trkpt lat="43.4318683" lon="11.4131433"><ele>302.0</ele><time>2026-04-05T09:09:56.008Z</time></trkpt><trkpt lat="43.43186" lon="11.4129983"><ele>302.0</ele><time>2026-04-05T09:09:57.008Z</time></trkpt><trkpt lat="43.4318183" lon="11.4128683"><ele>302.0</ele><time>2026-04-05T09:09:58.008Z</time></trkpt><trkpt lat="43.4317533" lon="11.4127433"><ele>302.5</ele><time>2026-04-05T09:09:59.008Z</time></trkpt><trkpt lat="43.4316733" lon="11.4126467"><ele>303.0</ele><time>2026-04-05T09:10:00.008Z</time></trkpt><trkpt lat="43.4315767" lon="11.4125683"><ele>303.5</ele><time>2026-04-05T09:10:01.008Z</time></trkpt><trkpt lat="43.4314717" lon="11.412475"><ele>304.0</ele><time>2026-04-05T09:10:02.008Z</time></trkpt><trkpt lat="43.431375" lon="11.4123583"><ele>301.75</ele><time>2026-04-05T09:10:03.008Z</time></trkpt><trkpt lat="43.4312783" lon="11.4122183"><ele>299.5</ele><time>2026-04-05T09:10:04.008Z</time></trkpt><trkpt lat="43.4311817" lon="11.412075"><ele>297.25</ele><time>2026-04-05T09:10:05.008Z</time></trkpt><trkpt lat="43.4310833" lon="11.4119283"><ele>295.0</ele><time>2026-04-05T09:10:06.008Z</time></trkpt><trkpt lat="43.4309917" lon="11.4117917"><ele>295.0</ele><time>2026-04-05T09:10:07.008Z</time></trkpt><trkpt lat="43.4309133" lon="11.411655"><ele>295.0</ele><time>2026-04-05T09:10:08.008Z</time></trkpt><trkpt lat="43.43085" lon="11.411485"><ele>295.0</ele><time>2026-04-05T09:10:09.008Z</time></trkpt><trkpt lat="43.4307983" lon="11.411305"><ele>295.0</ele><time>2026-04-05T09:10:10.008Z</time></trkpt><trkpt lat="43.4307433" lon="11.4111317"><ele>296.25</ele><time>2026-04-05T09:10:11.008Z</time></trkpt><trkpt lat="43.4306817" lon="11.4109683"><ele>297.5</ele><time>2026-04-05T09:10:12.008Z</time></trkpt><trkpt lat="43.4306133" lon="11.4107933"><ele>298.75</ele><time>2026-04-05T09:10:13.008Z</time></trkpt><trkpt lat="43.430535" lon="11.41063"><ele>300.0</ele><time>2026-04-05T09:10:14.008Z</time></trkpt><trkpt lat="43.4304433" lon="11.4104833"><ele>300.0</ele><time>2026-04-05T09:10:15.008Z</time></trkpt><trkpt lat="43.4303383" lon="11.41036"><ele>300.0</ele><time>2026-04-05T09:10:16.008Z</time></trkpt><trkpt lat="43.4302267" lon="11.410245"><ele>300.0</ele><time>2026-04-05T09:10:17.008Z</time></trkpt><trkpt lat="43.4301033" lon="11.4101417"><ele>300.0</ele><time>2026-04-05T09:10:18.008Z</time></trkpt><trkpt lat="43.4299633" lon="11.41006"><ele>300.0</ele><time>2026-04-05T09:10:19.008Z</time></trkpt><trkpt lat="43.429825" lon="11.4099883"><ele>300.0</ele><time>2026-04-05T09:10:20.008Z</time></trkpt><trkpt lat="43.4296883" lon="11.4098983"><ele>300.0</ele><time>2026-04-05T09:10:21.008Z</time></trkpt><trkpt lat="43.429555" lon="11.4097783"><ele>299.3333333333333</ele><time>2026-04-05T09:10:22.008Z</time></trkpt><trkpt lat="43.42943" lon="11.409635"><ele>298.66666666666663</ele><time>2026-04-05T09:10:23.008Z</time></trkpt><trkpt lat="43.4293183" lon="11.4094833"><ele>298.0</ele><time>2026-04-05T09:10:24.008Z</time></trkpt><trkpt lat="43.429215" lon="11.4093017"><ele>298.0</ele><time>2026-04-05T09:10:25.008Z</time></trkpt><trkpt lat="43.4291267" lon="11.409125"><ele>298.0</ele><time>2026-04-05T09:10:26.008Z</time></trkpt><trkpt lat="43.4290367" lon="11.40895"><ele>298.0</ele><time>2026-04-05T09:10:27.008Z</time></trkpt><trkpt lat="43.4289517" lon="11.40877"><ele>297.75</ele><time>2026-04-05T09:10:28.008Z</time></trkpt><trkpt lat="43.4288583" lon="11.4086133"><ele>297.5</ele><time>2026-04-05T09:10:29.008Z</time></trkpt><trkpt lat="43.428775" lon="11.4084933"><ele>297.25</ele><time>2026-04-05T09:10:30.008Z</time></trkpt><trkpt lat="43.42868" lon="11.4084017"><ele>297.0</ele><time>2026-04-05T09:10:31.008Z</time></trkpt><trkpt lat="43.4285633" lon="11.40835"><ele>297.0</ele><time>2026-04-05T09:10:32.008Z</time></trkpt><trkpt lat="43.4284333" lon="11.4083367"><ele>297.0</ele><time>2026-04-05T09:10:33.008Z</time></trkpt><trkpt lat="43.4283083" lon="11.40835"><ele>297.0</ele><time>2026-04-05T09:10:34.008Z</time></trkpt><trkpt lat="43.4281667" lon="11.4083517"><ele>297.0</ele><time>2026-04-05T09:10:35.008Z</time></trkpt><trkpt lat="43.42802" lon="11.408335"><ele>294.3333333333333</ele><time>2026-04-05T09:10:36.008Z</time></trkpt><trkpt lat="43.4278783" lon="11.4082933"><ele>291.66666666666663</ele><time>2026-04-05T09:10:37.008Z</time></trkpt><trkpt lat="43.427735" lon="11.408215"><ele>289.0</ele><time>2026-04-05T09:10:38.008Z</time></trkpt><trkpt lat="43.427595" lon="11.4081117"><ele>292.0</ele><time>2026-04-05T09:10:39.008Z</time></trkpt><trkpt lat="43.427465" lon="11.4079833"><ele>295.0</ele><time>2026-04-05T09:10:40.008Z</time></trkpt><trkpt lat="43.42734" lon="11.4078167"><ele>298.0</ele><time>2026-04-05T09:10:41.008Z</time></trkpt><trkpt lat="43.4272033" lon="11.4076633"><ele>295.25</ele><time>2026-04-05T09:10:42.008Z</time></trkpt><trkpt lat="43.4270683" lon="11.4075417"><ele>292.5</ele><time>2026-04-05T09:10:43.008Z</time></trkpt><trkpt lat="43.426945" lon="11.40743"><ele>289.75</ele><time>2026-04-05T09:10:44.008Z</time></trkpt><trkpt lat="43.42683" lon="11.40732"><ele>287.0</ele><time>2026-04-05T09:10:45.008Z</time></trkpt><trkpt lat="43.4267367" lon="11.407205"><ele>287.0</ele><time>2026-04-05T09:10:46.008Z</time></trkpt><trkpt lat="43.4266833" lon="11.40706"><ele>287.0</ele><time>2026-04-05T09:10:47.008Z</time></trkpt><trkpt lat="43.4266783" lon="11.40689"><ele>287.0</ele><time>2026-04-05T09:10:48.008Z</time></trkpt><trkpt lat="43.426695" lon="11.4066867"><ele>287.0</ele><time>2026-04-05T09:10:49.008Z</time></trkpt><trkpt lat="43.4267233" lon="11.4064683"><ele>287.6666666666667</ele><time>2026-04-05T09:10:50.008Z</time></trkpt><trkpt lat="43.426745" lon="11.4062533"><ele>288.3333333333333</ele><time>2026-04-05T09:10:51.008Z</time></trkpt><trkpt lat="43.426755" lon="11.40604"><ele>289.0</ele><time>2026-04-05T09:10:52.008Z</time></trkpt><trkpt lat="43.4267483" lon="11.4058333"><ele>289.0</ele><time>2026-04-05T09:10:53.008Z</time></trkpt><trkpt lat="43.4267283" lon="11.4056383"><ele>289.0</ele><time>2026-04-05T09:10:54.008Z</time></trkpt><trkpt lat="43.4266867" lon="11.405455"><ele>289.0</ele><time>2026-04-05T09:10:55.008Z</time></trkpt><trkpt lat="43.42663" lon="11.405285"><ele>289.0</ele><time>2026-04-05T09:10:56.008Z</time></trkpt><trkpt lat="43.4265583" lon="11.4051267"><ele>288.25</ele><time>2026-04-05T09:10:57.008Z</time></trkpt><trkpt lat="43.4264817" lon="11.40499"><ele>287.5</ele><time>2026-04-05T09:10:58.008Z</time></trkpt><trkpt lat="43.4264" lon="11.4048633"><ele>286.75</ele><time>2026-04-05T09:10:59.008Z</time></trkpt><trkpt lat="43.4263067" lon="11.404755"><ele>286.0</ele><time>2026-04-05T09:11:00.009Z</time></trkpt><trkpt lat="43.426195" lon="11.4046717"><ele>288.75</ele><time>2026-04-05T09:11:01.008Z</time></trkpt><trkpt lat="43.426075" lon="11.4046233"><ele>291.5</ele><time>2026-04-05T09:11:02.008Z</time></trkpt><trkpt lat="43.425965" lon="11.4045717"><ele>294.25</ele><time>2026-04-05T09:11:03.008Z</time></trkpt><trkpt lat="43.4258533" lon="11.4045183"><ele>297.0</ele><time>2026-04-05T09:11:04.008Z</time></trkpt><trkpt lat="43.42575" lon="11.4044683"><ele>297.0</ele><time>2026-04-05T09:11:05.008Z</time></trkpt><trkpt lat="43.425645" lon="11.404425"><ele>297.0</ele><time>2026-04-05T09:11:06.008Z</time></trkpt><trkpt lat="43.4255367" lon="11.4043767"><ele>297.0</ele><time>2026-04-05T09:11:07.008Z</time></trkpt><trkpt lat="43.425425" lon="11.4043167"><ele>297.0</ele><time>2026-04-05T09:11:08.008Z</time></trkpt><trkpt lat="43.42531" lon="11.4042317"><ele>294.25</ele><time>2026-04-05T09:11:09.008Z</time></trkpt><trkpt lat="43.4252017" lon="11.40415"><ele>291.5</ele><time>2026-04-05T09:11:10.008Z</time></trkpt><trkpt lat="43.4250883" lon="11.4040967"><ele>288.75</ele><time>2026-04-05T09:11:11.008Z</time></trkpt><trkpt lat="43.4249767" lon="11.40407"><ele>286.0</ele><time>2026-04-05T09:11:12.008Z</time></trkpt><trkpt lat="43.4248617" lon="11.40407"><ele>286.0</ele><time>2026-04-05T09:11:13.008Z</time></trkpt><trkpt lat="43.4247433" lon="11.4040783"><ele>286.0</ele><time>2026-04-05T09:11:14.008Z</time></trkpt><trkpt lat="43.4246217" lon="11.4041"><ele>286.0</ele><time>2026-04-05T09:11:15.008Z</time></trkpt><trkpt lat="43.424485" lon="11.4041117"><ele>286.0</ele><time>2026-04-05T09:11:16.008Z</time></trkpt><trkpt lat="43.4243517" lon="11.4041233"><ele>285.5</ele><time>2026-04-05T09:11:17.008Z</time></trkpt><trkpt lat="43.4242333" lon="11.4041217"><ele>285.0</ele><time>2026-04-05T09:11:18.008Z</time></trkpt><trkpt lat="43.4241167" lon="11.4041133"><ele>284.5</ele><time>2026-04-05T09:11:19.008Z</time></trkpt><trkpt lat="43.4240033" lon="11.4040867"><ele>284.0</ele><time>2026-04-05T09:11:20.008Z</time></trkpt><trkpt lat="43.4239017" lon="11.40407"><ele>284.0</ele><time>2026-04-05T09:11:21.008Z</time></trkpt><trkpt lat="43.4238183" lon="11.404065"><ele>284.0</ele><time>2026-04-05T09:11:22.008Z</time></trkpt><trkpt lat="43.4237417" lon="11.40407"><ele>284.0</ele><time>2026-04-05T09:11:23.008Z</time></trkpt><trkpt lat="43.42367" lon="11.4041"><ele>284.0</ele><time>2026-04-05T09:11:24.008Z</time></trkpt><trkpt lat="43.423585" lon="11.4041417"><ele>284.0</ele><time>2026-04-05T09:11:25.008Z</time></trkpt><trkpt lat="43.4234967" lon="11.4041933"><ele>284.0</ele><time>2026-04-05T09:11:26.008Z</time></trkpt><trkpt lat="43.4233867" lon="11.4042517"><ele>284.25</ele><time>2026-04-05T09:11:27.008Z</time></trkpt><trkpt lat="43.42328" lon="11.4043383"><ele>284.5</ele><time>2026-04-05T09:11:28.008Z</time></trkpt><trkpt lat="43.42319" lon="11.4044467"><ele>284.75</ele><time>2026-04-05T09:11:29.008Z</time></trkpt><trkpt lat="43.42311" lon="11.4045583"><ele>285.0</ele><time>2026-04-05T09:11:30.008Z</time></trkpt><trkpt lat="43.42304" lon="11.4046817"><ele>285.2</ele><time>2026-04-05T09:11:31.008Z</time></trkpt><trkpt lat="43.4229733" lon="11.4048117"><ele>285.4</ele><time>2026-04-05T09:11:32.008Z</time></trkpt><trkpt lat="43.422915" lon="11.40491"><ele>285.6</ele><time>2026-04-05T09:11:33.008Z</time></trkpt><trkpt lat="43.4228383" lon="11.404975"><ele>285.8</ele><time>2026-04-05T09:11:34.008Z</time></trkpt><trkpt lat="43.4227633" lon="11.4050067"><ele>286.0</ele><time>2026-04-05T09:11:35.008Z</time></trkpt><trkpt lat="43.4226583" lon="11.4050033"><ele>286.0</ele><time>2026-04-05T09:11:36.008Z</time></trkpt><trkpt lat="43.4225283" lon="11.40496"><ele>286.0</ele><time>2026-04-05T09:11:37.008Z</time></trkpt><trkpt lat="43.4223917" lon="11.4049017"><ele>286.0</ele><time>2026-04-05T09:11:38.008Z</time></trkpt><trkpt lat="43.4222517" lon="11.4048183"><ele>286.0</ele><time>2026-04-05T09:11:39.008Z</time></trkpt><trkpt lat="43.4221283" lon="11.404715"><ele>286.66666666666663</ele><time>2026-04-05T09:11:40.008Z</time></trkpt><trkpt lat="43.422015" lon="11.4045767"><ele>287.3333333333333</ele><time>2026-04-05T09:11:41.008Z</time></trkpt><trkpt lat="43.4219183" lon="11.4044217"><ele>288.0</ele><time>2026-04-05T09:11:42.008Z</time></trkpt><trkpt lat="43.421815" lon="11.4042633"><ele>288.0</ele><time>2026-04-05T09:11:43.008Z</time></trkpt><trkpt lat="43.4217133" lon="11.4041117"><ele>288.0</ele><time>2026-04-05T09:11:44.008Z</time></trkpt><trkpt lat="43.4216" lon="11.403965"><ele>288.0</ele><time>2026-04-05T09:11:45.008Z</time></trkpt><trkpt lat="43.4214867" lon="11.4038267"><ele>287.3333333333333</ele><time>2026-04-05T09:11:46.008Z</time></trkpt><trkpt lat="43.42136" lon="11.4036867"><ele>286.66666666666663</ele><time>2026-04-05T09:11:47.008Z</time></trkpt><trkpt lat="43.4212333" lon="11.40355"><ele>286.0</ele><time>2026-04-05T09:11:48.008Z</time></trkpt><trkpt lat="43.421115" lon="11.40342"><ele>286.0</ele><time>2026-04-05T09:11:49.008Z</time></trkpt><trkpt lat="43.4210033" lon="11.4032867"><ele>286.0</ele><time>2026-04-05T09:11:50.008Z</time></trkpt><trkpt lat="43.420885" lon="11.4031533"><ele>286.0</ele><time>2026-04-05T09:11:51.008Z</time></trkpt><trkpt lat="43.4207617" lon="11.4030333"><ele>285.25</ele><time>2026-04-05T09:11:52.008Z</time></trkpt><trkpt lat="43.420645" lon="11.4029233"><ele>284.5</ele><time>2026-04-05T09:11:53.008Z</time></trkpt><trkpt lat="43.4205167" lon="11.402825"><ele>283.75</ele><time>2026-04-05T09:11:54.008Z</time></trkpt><trkpt lat="43.4203867" lon="11.40274"><ele>283.0</ele><time>2026-04-05T09:11:55.008Z</time></trkpt><trkpt lat="43.42026" lon="11.4026667"><ele>283.0</ele><time>2026-04-05T09:11:56.008Z</time></trkpt><trkpt lat="43.420135" lon="11.402585"><ele>283.0</ele><time>2026-04-05T09:11:57.008Z</time></trkpt><trkpt lat="43.42001" lon="11.4024883"><ele>283.0</ele><time>2026-04-05T09:11:58.008Z</time></trkpt><trkpt lat="43.4198917" lon="11.4023783"><ele>283.0</ele><time>2026-04-05T09:11:59.008Z</time></trkpt><trkpt lat="43.4197733" lon="11.40226"><ele>284.66666666666663</ele><time>2026-04-05T09:12:00.008Z</time></trkpt><trkpt lat="43.4196683" lon="11.4021117"><ele>286.3333333333333</ele><time>2026-04-05T09:12:01.008Z</time></trkpt><trkpt lat="43.419585" lon="11.4019383"><ele>288.0</ele><time>2026-04-05T09:12:02.008Z</time></trkpt><trkpt lat="43.4195183" lon="11.4017433"><ele>284.0</ele><time>2026-04-05T09:12:03.008Z</time></trkpt><trkpt lat="43.4194617" lon="11.40154"><ele>280.0</ele><time>2026-04-05T09:12:04.008Z</time></trkpt><trkpt lat="43.4193983" lon="11.4013333"><ele>276.0</ele><time>2026-04-05T09:12:05.008Z</time></trkpt><trkpt lat="43.419325" lon="11.40114"><ele>276.0</ele><time>2026-04-05T09:12:06.008Z</time></trkpt><trkpt lat="43.4192567" lon="11.400945"><ele>276.0</ele><time>2026-04-05T09:12:07.008Z</time></trkpt><trkpt lat="43.4191717" lon="11.4007633"><ele>276.0</ele><time>2026-04-05T09:12:08.008Z</time></trkpt><trkpt lat="43.4190817" lon="11.40058"><ele>275.3333333333333</ele><time>2026-04-05T09:12:09.008Z</time></trkpt><trkpt lat="43.4189733" lon="11.4004033"><ele>274.66666666666663</ele><time>2026-04-05T09:12:10.008Z</time></trkpt><trkpt lat="43.4188533" lon="11.4002433"><ele>274.0</ele><time>2026-04-05T09:12:11.008Z</time></trkpt><trkpt lat="43.418735" lon="11.4000867"><ele>274.0</ele><time>2026-04-05T09:12:12.008Z</time></trkpt><trkpt lat="43.41861" lon="11.39993"><ele>274.0</ele><time>2026-04-05T09:12:13.008Z</time></trkpt><trkpt lat="43.4184917" lon="11.3997767"><ele>274.0</ele><time>2026-04-05T09:12:14.008Z</time></trkpt><trkpt lat="43.418375" lon="11.39963"><ele>279.3333333333333</ele><time>2026-04-05T09:12:15.008Z</time></trkpt><trkpt lat="43.418265" lon="11.3994917"><ele>284.6666666666667</ele><time>2026-04-05T09:12:16.008Z</time></trkpt><trkpt lat="43.4181583" lon="11.399345"><ele>290.0</ele><time>2026-04-05T09:12:17.008Z</time></trkpt><trkpt lat="43.4180467" lon="11.3991917"><ele>291.25</ele><time>2026-04-05T09:12:18.008Z</time></trkpt><trkpt lat="43.4179483" lon="11.3990367"><ele>292.5</ele><time>2026-04-05T09:12:19.008Z</time></trkpt><trkpt lat="43.4178617" lon="11.398885"><ele>293.75</ele><time>2026-04-05T09:12:20.008Z</time></trkpt><trkpt lat="43.417765" lon="11.3987617"><ele>295.0</ele><time>2026-04-05T09:12:21.008Z</time></trkpt><trkpt lat="43.41765" lon="11.3986483"><ele>295.0</ele><time>2026-04-05T09:12:22.008Z</time></trkpt><trkpt lat="43.41752" lon="11.3985433"><ele>295.0</ele><time>2026-04-05T09:12:23.008Z</time></trkpt><trkpt lat="43.4173833" lon="11.3984667"><ele>295.0</ele><time>2026-04-05T09:12:24.008Z</time></trkpt><trkpt lat="43.4172483" lon="11.3984017"><ele>295.0</ele><time>2026-04-05T09:12:25.008Z</time></trkpt><trkpt lat="43.4171067" lon="11.3983567"><ele>292.66666666666663</ele><time>2026-04-05T09:12:26.008Z</time></trkpt><trkpt lat="43.41695" lon="11.3983483"><ele>290.3333333333333</ele><time>2026-04-05T09:12:27.008Z</time></trkpt><trkpt lat="43.4168" lon="11.39837"><ele>288.0</ele><time>2026-04-05T09:12:28.008Z</time></trkpt><trkpt lat="43.416655" lon="11.3984083"><ele>288.0</ele><time>2026-04-05T09:12:29.008Z</time></trkpt><trkpt lat="43.4165" lon="11.3984617"><ele>288.0</ele><time>2026-04-05T09:12:30.008Z</time></trkpt><trkpt lat="43.4163367" lon="11.398525"><ele>288.0</ele><time>2026-04-05T09:12:31.008Z</time></trkpt><trkpt lat="43.4161717" lon="11.3985967"><ele>290.3333333333333</ele><time>2026-04-05T09:12:32.008Z</time></trkpt><trkpt lat="43.41601" lon="11.3986717"><ele>292.66666666666663</ele><time>2026-04-05T09:12:33.008Z</time></trkpt><trkpt lat="43.4158483" lon="11.3987467"><ele>295.0</ele><time>2026-04-05T09:12:34.008Z</time></trkpt><trkpt lat="43.4156967" lon="11.3988167"><ele>288.0</ele><time>2026-04-05T09:12:35.008Z</time></trkpt><trkpt lat="43.4155617" lon="11.3988967"><ele>281.0</ele><time>2026-04-05T09:12:36.008Z</time></trkpt><trkpt lat="43.4154167" lon="11.398965"><ele>274.0</ele><time>2026-04-05T09:12:37.008Z</time></trkpt><trkpt lat="43.41527" lon="11.3990283"><ele>274.0</ele><time>2026-04-05T09:12:38.008Z</time></trkpt><trkpt lat="43.4151333" lon="11.399075"><ele>274.0</ele><time>2026-04-05T09:12:39.008Z</time></trkpt><trkpt lat="43.41498" lon="11.3991133"><ele>274.0</ele><time>2026-04-05T09:12:40.008Z</time></trkpt><trkpt lat="43.4148267" lon="11.3991333"><ele>274.0</ele><time>2026-04-05T09:12:41.008Z</time></trkpt><trkpt lat="43.4146683" lon="11.3991333"><ele>274.0</ele><time>2026-04-05T09:12:42.008Z</time></trkpt><trkpt lat="43.41451" lon="11.399125"><ele>274.0</ele><time>2026-04-05T09:12:43.008Z</time></trkpt><trkpt lat="43.4143483" lon="11.3991033"><ele>272.66666666666663</ele><time>2026-04-05T09:12:44.008Z</time></trkpt><trkpt lat="43.414185" lon="11.3990817"><ele>271.3333333333333</ele><time>2026-04-05T09:12:45.008Z</time></trkpt><trkpt lat="43.4140183" lon="11.399055"><ele>270.0</ele><time>2026-04-05T09:12:46.008Z</time></trkpt><trkpt lat="43.4138517" lon="11.39903"><ele>269.3333333333333</ele><time>2026-04-05T09:12:47.008Z</time></trkpt><trkpt lat="43.4136867" lon="11.3990033"><ele>268.66666666666663</ele><time>2026-04-05T09:12:48.008Z</time></trkpt><trkpt lat="43.41352" lon="11.3989883"><ele>268.0</ele><time>2026-04-05T09:12:49.008Z</time></trkpt><trkpt lat="43.41336" lon="11.398965"><ele>268.0</ele><time>2026-04-05T09:12:50.008Z</time></trkpt><trkpt lat="43.4132033" lon="11.3989467"><ele>268.0</ele><time>2026-04-05T09:12:51.008Z</time></trkpt><trkpt lat="43.4130483" lon="11.3989283"><ele>268.0</ele><time>2026-04-05T09:12:52.008Z</time></trkpt><trkpt lat="43.412895" lon="11.3989067"><ele>267.66666666666663</ele><time>2026-04-05T09:12:53.008Z</time></trkpt><trkpt lat="43.412745" lon="11.398885"><ele>267.3333333333333</ele><time>2026-04-05T09:12:54.008Z</time></trkpt><trkpt lat="43.41258" lon="11.3988817"><ele>267.0</ele><time>2026-04-05T09:12:55.008Z</time></trkpt><trkpt lat="43.412415" lon="11.3988967"><ele>267.0</ele><time>2026-04-05T09:12:56.008Z</time></trkpt><trkpt lat="43.41225" lon="11.3989417"><ele>267.0</ele><time>2026-04-05T09:12:57.008Z</time></trkpt><trkpt lat="43.4120933" lon="11.3990183"><ele>267.0</ele><time>2026-04-05T09:12:58.008Z</time></trkpt><trkpt lat="43.411945" lon="11.3991183"><ele>267.0</ele><time>2026-04-05T09:12:59.008Z</time></trkpt><trkpt lat="43.4118117" lon="11.399245"><ele>267.0</ele><time>2026-04-05T09:13:00.008Z</time></trkpt><trkpt lat="43.4116833" lon="11.399385"><ele>267.0</ele><time>2026-04-05T09:13:01.008Z</time></trkpt><trkpt lat="43.4115517" lon="11.39955"><ele>266.6666666666667</ele><time>2026-04-05T09:13:02.008Z</time></trkpt><trkpt lat="43.411435" lon="11.3997333"><ele>266.33333333333337</ele><time>2026-04-05T09:13:03.008Z</time></trkpt><trkpt lat="43.4113217" lon="11.3999183"><ele>266.0</ele><time>2026-04-05T09:13:04.008Z</time></trkpt><trkpt lat="43.4112067" lon="11.4000767"><ele>266.0</ele><time>2026-04-05T09:13:05.008Z</time></trkpt><trkpt lat="43.4111" lon="11.4002367"><ele>266.0</ele><time>2026-04-05T09:13:06.008Z</time></trkpt><trkpt lat="43.410985" lon="11.4003867"><ele>266.0</ele><time>2026-04-05T09:13:07.008Z</time></trkpt><trkpt lat="43.410875" lon="11.4005433"><ele>268.6666666666667</ele><time>2026-04-05T09:13:08.008Z</time></trkpt><trkpt lat="43.4107667" lon="11.4007"><ele>271.3333333333333</ele><time>2026-04-05T09:13:09.008Z</time></trkpt><trkpt lat="43.4106633" lon="11.4008617"><ele>274.0</ele><time>2026-04-05T09:13:10.008Z</time></trkpt><trkpt lat="43.4105533" lon="11.4010183"><ele>271.66666666666663</ele><time>2026-04-05T09:13:11.008Z</time></trkpt><trkpt lat="43.410445" lon="11.4011667"><ele>269.3333333333333</ele><time>2026-04-05T09:13:12.008Z</time></trkpt><trkpt lat="43.4103333" lon="11.4013267"><ele>267.0</ele><time>2026-04-05T09:13:13.008Z</time></trkpt><trkpt lat="43.4102233" lon="11.40148"><ele>267.0</ele><time>2026-04-05T09:13:14.008Z</time></trkpt><trkpt lat="43.41011" lon="11.40163"><ele>267.0</ele><time>2026-04-05T09:13:15.008Z</time></trkpt><trkpt lat="43.41" lon="11.401795"><ele>267.0</ele><time>2026-04-05T09:13:16.008Z</time></trkpt><trkpt lat="43.4098833" lon="11.4019567"><ele>267.0</ele><time>2026-04-05T09:13:17.008Z</time></trkpt><trkpt lat="43.4097667" lon="11.4021283"><ele>267.0</ele><time>2026-04-05T09:13:18.008Z</time></trkpt><trkpt lat="43.409655" lon="11.4022883"><ele>267.0</ele><time>2026-04-05T09:13:19.008Z</time></trkpt><trkpt lat="43.4095417" lon="11.4024483"><ele>266.6666666666667</ele><time>2026-04-05T09:13:20.007Z</time></trkpt><trkpt lat="43.4094233" lon="11.4026083"><ele>266.33333333333337</ele><time>2026-04-05T09:13:21.008Z</time></trkpt><trkpt lat="43.4093117" lon="11.402775"><ele>266.0</ele><time>2026-04-05T09:13:22.008Z</time></trkpt><trkpt lat="43.4092017" lon="11.4029383"><ele>270.33333333333337</ele><time>2026-04-05T09:13:23.008Z</time></trkpt><trkpt lat="43.4090867" lon="11.4030983"><ele>274.6666666666667</ele><time>2026-04-05T09:13:24.008Z</time></trkpt><trkpt lat="43.4089817" lon="11.40325"><ele>279.0</ele><time>2026-04-05T09:13:25.008Z</time></trkpt><trkpt lat="43.4088867" lon="11.4034"><ele>275.5</ele><time>2026-04-05T09:13:26.008Z</time></trkpt><trkpt lat="43.408795" lon="11.4035283"><ele>272.0</ele><time>2026-04-05T09:13:27.008Z</time></trkpt><trkpt lat="43.4086983" lon="11.4036467"><ele>268.5</ele><time>2026-04-05T09:13:28.008Z</time></trkpt><trkpt lat="43.4085933" lon="11.403745"><ele>265.0</ele><time>2026-04-05T09:13:29.008Z</time></trkpt><trkpt lat="43.40847" lon="11.4038033"><ele>265.0</ele><time>2026-04-05T09:13:30.008Z</time></trkpt><trkpt lat="43.4083383" lon="11.40383"><ele>265.0</ele><time>2026-04-05T09:13:31.008Z</time></trkpt><trkpt lat="43.4081933" lon="11.4038383"><ele>265.0</ele><time>2026-04-05T09:13:32.008Z</time></trkpt><trkpt lat="43.4080383" lon="11.4038433"><ele>265.0</ele><time>2026-04-05T09:13:33.008Z</time></trkpt><trkpt lat="43.4078817" lon="11.4038767"><ele>269.66666666666663</ele><time>2026-04-05T09:13:34.008Z</time></trkpt><trkpt lat="43.4077283" lon="11.403925"><ele>274.3333333333333</ele><time>2026-04-05T09:13:35.008Z</time></trkpt><trkpt lat="43.40758" lon="11.4039917"><ele>279.0</ele><time>2026-04-05T09:13:36.008Z</time></trkpt><trkpt lat="43.407425" lon="11.40405"><ele>279.0</ele><time>2026-04-05T09:13:37.008Z</time></trkpt><trkpt lat="43.4072683" lon="11.4041133"><ele>279.0</ele><time>2026-04-05T09:13:38.008Z</time></trkpt><trkpt lat="43.40711" lon="11.404185"><ele>279.0</ele><time>2026-04-05T09:13:39.008Z</time></trkpt><trkpt lat="43.406955" lon="11.40427"><ele>275.3333333333333</ele><time>2026-04-05T09:13:40.008Z</time></trkpt><trkpt lat="43.4068017" lon="11.4043517"><ele>271.66666666666663</ele><time>2026-04-05T09:13:41.008Z</time></trkpt><trkpt lat="43.4066467" lon="11.4044317"><ele>268.0</ele><time>2026-04-05T09:13:42.008Z</time></trkpt><trkpt lat="43.406495" lon="11.4045117"><ele>268.0</ele><time>2026-04-05T09:13:43.008Z</time></trkpt><trkpt lat="43.406345" lon="11.4045933"><ele>268.0</ele><time>2026-04-05T09:13:44.008Z</time></trkpt><trkpt lat="43.4061933" lon="11.4046533"><ele>268.0</ele><time>2026-04-05T09:13:45.008Z</time></trkpt><trkpt lat="43.4060317" lon="11.4047133"><ele>270.0</ele><time>2026-04-05T09:13:46.008Z</time></trkpt><trkpt lat="43.4058633" lon="11.4047667"><ele>272.0</ele><time>2026-04-05T09:13:47.008Z</time></trkpt><trkpt lat="43.4056917" lon="11.40481"><ele>274.0</ele><time>2026-04-05T09:13:48.008Z</time></trkpt><trkpt lat="43.4055267" lon="11.4048317"><ele>273.25</ele><time>2026-04-05T09:13:49.008Z</time></trkpt><trkpt lat="43.4053683" lon="11.4048333"><ele>272.5</ele><time>2026-04-05T09:13:50.008Z</time></trkpt><trkpt lat="43.4052217" lon="11.4048233"><ele>271.75</ele><time>2026-04-05T09:13:51.008Z</time></trkpt><trkpt lat="43.405085" lon="11.4048117"><ele>271.0</ele><time>2026-04-05T09:13:52.008Z</time></trkpt><trkpt lat="43.4049467" lon="11.4048017"><ele>271.0</ele><time>2026-04-05T09:13:53.008Z</time></trkpt><trkpt lat="43.404815" lon="11.4048033"><ele>271.0</ele><time>2026-04-05T09:13:54.008Z</time></trkpt><trkpt lat="43.40468" lon="11.4048367"><ele>271.0</ele><time>2026-04-05T09:13:55.008Z</time></trkpt><trkpt lat="43.404545" lon="11.4049183"><ele>271.0</ele><time>2026-04-05T09:13:56.008Z</time></trkpt><trkpt lat="43.4044083" lon="11.4050267"><ele>269.3333333333333</ele><time>2026-04-05T09:13:57.008Z</time></trkpt><trkpt lat="43.4042783" lon="11.405135"><ele>267.6666666666667</ele><time>2026-04-05T09:13:58.008Z</time></trkpt><trkpt lat="43.404145" lon="11.40523"><ele>266.0</ele><time>2026-04-05T09:13:59.008Z</time></trkpt><trkpt lat="43.4039983" lon="11.4053167"><ele>266.0</ele><time>2026-04-05T09:14:00.008Z</time></trkpt><trkpt lat="43.403845" lon="11.4053883"><ele>266.0</ele><time>2026-04-05T09:14:01.008Z</time></trkpt><trkpt lat="43.4036967" lon="11.4054417"><ele>266.0</ele><time>2026-04-05T09:14:02.008Z</time></trkpt><trkpt lat="43.4035483" lon="11.4055033"><ele>268.6666666666667</ele><time>2026-04-05T09:14:03.008Z</time></trkpt><trkpt lat="43.4034" lon="11.405565"><ele>271.3333333333333</ele><time>2026-04-05T09:14:04.008Z</time></trkpt><trkpt lat="43.4032533" lon="11.4056167"><ele>274.0</ele><time>2026-04-05T09:14:05.008Z</time></trkpt><trkpt lat="43.403115" lon="11.4056683"><ele>271.5</ele><time>2026-04-05T09:14:06.008Z</time></trkpt><trkpt lat="43.4029817" lon="11.40573"><ele>269.0</ele><time>2026-04-05T09:14:07.008Z</time></trkpt><trkpt lat="43.40285" lon="11.4058067"><ele>266.5</ele><time>2026-04-05T09:14:08.008Z</time></trkpt><trkpt lat="43.40273" lon="11.4058817"><ele>264.0</ele><time>2026-04-05T09:14:09.008Z</time></trkpt><trkpt lat="43.4026117" lon="11.4059817"><ele>264.0</ele><time>2026-04-05T09:14:10.008Z</time></trkpt><trkpt lat="43.4024917" lon="11.4060833"><ele>264.0</ele><time>2026-04-05T09:14:11.008Z</time></trkpt><trkpt lat="43.40237" lon="11.4061567"><ele>264.0</ele><time>2026-04-05T09:14:12.008Z</time></trkpt><trkpt lat="43.4022433" lon="11.40621"><ele>264.0</ele><time>2026-04-05T09:14:13.008Z</time></trkpt><trkpt lat="43.4021067" lon="11.4062233"><ele>263.25</ele><time>2026-04-05T09:14:14.008Z</time></trkpt><trkpt lat="43.4019667" lon="11.4061933"><ele>262.5</ele><time>2026-04-05T09:14:15.008Z</time></trkpt><trkpt lat="43.4018333" lon="11.406115"><ele>261.75</ele><time>2026-04-05T09:14:16.008Z</time></trkpt><trkpt lat="43.4017067" lon="11.4060033"><ele>261.0</ele><time>2026-04-05T09:14:17.008Z</time></trkpt><trkpt lat="43.401575" lon="11.4058883"><ele>261.0</ele><time>2026-04-05T09:14:18.008Z</time></trkpt><trkpt lat="43.40144" lon="11.4057833"><ele>261.0</ele><time>2026-04-05T09:14:19.008Z</time></trkpt><trkpt lat="43.40131" lon="11.4056817"><ele>261.0</ele><time>2026-04-05T09:14:20.008Z</time></trkpt><trkpt lat="43.4011767" lon="11.4055783"><ele>261.3333333333333</ele><time>2026-04-05T09:14:21.008Z</time></trkpt><trkpt lat="43.401045" lon="11.4054717"><ele>261.66666666666663</ele><time>2026-04-05T09:14:22.008Z</time></trkpt><trkpt lat="43.40091" lon="11.4053633"><ele>262.0</ele><time>2026-04-05T09:14:23.008Z</time></trkpt><trkpt lat="43.4007717" lon="11.405255"><ele>262.0</ele><time>2026-04-05T09:14:24.008Z</time></trkpt><trkpt lat="43.4006367" lon="11.4051467"><ele>262.0</ele><time>2026-04-05T09:14:25.008Z</time></trkpt><trkpt lat="43.4005033" lon="11.40505"><ele>262.0</ele><time>2026-04-05T09:14:26.008Z</time></trkpt><trkpt lat="43.4003667" lon="11.40496"><ele>262.3333333333333</ele><time>2026-04-05T09:14:27.008Z</time></trkpt><trkpt lat="43.4002383" lon="11.404845"><ele>262.6666666666667</ele><time>2026-04-05T09:14:28.008Z</time></trkpt><trkpt lat="43.4001183" lon="11.40472"><ele>263.0</ele><time>2026-04-05T09:14:29.008Z</time></trkpt><trkpt lat="43.400005" lon="11.4045817"><ele>263.0</ele><time>2026-04-05T09:14:30.008Z</time></trkpt><trkpt lat="43.3999067" lon="11.4044267"><ele>263.0</ele><time>2026-04-05T09:14:31.008Z</time></trkpt><trkpt lat="43.3998217" lon="11.4042467"><ele>263.0</ele><time>2026-04-05T09:14:32.008Z</time></trkpt><trkpt lat="43.39974" lon="11.4040767"><ele>263.25</ele><time>2026-04-05T09:14:33.008Z</time></trkpt><trkpt lat="43.3996583" lon="11.40392"><ele>263.5</ele><time>2026-04-05T09:14:34.008Z</time></trkpt><trkpt lat="43.3995717" lon="11.4037717"><ele>263.75</ele><time>2026-04-05T09:14:35.008Z</time></trkpt><trkpt lat="43.39947" lon="11.4036367"><ele>264.0</ele><time>2026-04-05T09:14:36.008Z</time></trkpt><trkpt lat="43.3993483" lon="11.4035183"><ele>264.0</ele><time>2026-04-05T09:14:37.008Z</time></trkpt><trkpt lat="43.3992183" lon="11.40341"><ele>264.0</ele><time>2026-04-05T09:14:38.008Z</time></trkpt><trkpt lat="43.399075" lon="11.4033233"><ele>264.0</ele><time>2026-04-05T09:14:39.008Z</time></trkpt><trkpt lat="43.3989217" lon="11.4032517"><ele>264.0</ele><time>2026-04-05T09:14:40.008Z</time></trkpt><trkpt lat="43.398775" lon="11.40319"><ele>264.0</ele><time>2026-04-05T09:14:41.008Z</time></trkpt><trkpt lat="43.3986317" lon="11.40314"><ele>264.0</ele><time>2026-04-05T09:14:42.008Z</time></trkpt><trkpt lat="43.3984933" lon="11.403095"><ele>264.0</ele><time>2026-04-05T09:14:43.008Z</time></trkpt><trkpt lat="43.3983617" lon="11.4030767"><ele>264.0</ele><time>2026-04-05T09:14:44.008Z</time></trkpt><trkpt lat="43.3982283" lon="11.4030883"><ele>264.0</ele><time>2026-04-05T09:14:45.008Z</time></trkpt><trkpt lat="43.3980933" lon="11.4031383"><ele>264.0</ele><time>2026-04-05T09:14:46.008Z</time></trkpt><trkpt lat="43.3979567" lon="11.4032433"><ele>264.0</ele><time>2026-04-05T09:14:47.008Z</time></trkpt><trkpt lat="43.39782" lon="11.4033783"><ele>264.0</ele><time>2026-04-05T09:14:48.008Z</time></trkpt><trkpt lat="43.3976883" lon="11.4035383"><ele>264.0</ele><time>2026-04-05T09:14:49.008Z</time></trkpt><trkpt lat="43.3975533" lon="11.4036983"><ele>264.0</ele><time>2026-04-05T09:14:50.008Z</time></trkpt><trkpt lat="43.3974167" lon="11.4038633"><ele>264.0</ele><time>2026-04-05T09:14:51.008Z</time></trkpt><trkpt lat="43.3972867" lon="11.4040183"><ele>264.0</ele><time>2026-04-05T09:14:52.008Z</time></trkpt><trkpt lat="43.3971583" lon="11.404185"><ele>264.0</ele><time>2026-04-05T09:14:53.008Z</time></trkpt><trkpt lat="43.39704" lon="11.404355"><ele>264.3333333333333</ele><time>2026-04-05T09:14:54.008Z</time></trkpt><trkpt lat="43.3969183" lon="11.4045167"><ele>264.66666666666663</ele><time>2026-04-05T09:14:55.008Z</time></trkpt><trkpt lat="43.396795" lon="11.4046717"><ele>265.0</ele><time>2026-04-05T09:14:56.008Z</time></trkpt><trkpt lat="43.3966683" lon="11.4048283"><ele>265.0</ele><time>2026-04-05T09:14:57.008Z</time></trkpt><trkpt lat="43.3965417" lon="11.4049833"><ele>265.0</ele><time>2026-04-05T09:14:58.008Z</time></trkpt><trkpt lat="43.3964083" lon="11.4051317"><ele>265.0</ele><time>2026-04-05T09:14:59.008Z</time></trkpt><trkpt lat="43.396275" lon="11.4052767"><ele>263.3333333333333</ele><time>2026-04-05T09:15:00.008Z</time></trkpt><trkpt lat="43.396145" lon="11.4054217"><ele>261.6666666666667</ele><time>2026-04-05T09:15:01.008Z</time></trkpt><trkpt lat="43.39602" lon="11.40556"><ele>260.0</ele><time>2026-04-05T09:15:02.008Z</time></trkpt><trkpt lat="43.39589" lon="11.40571"><ele>260.0</ele><time>2026-04-05T09:15:03.008Z</time></trkpt><trkpt lat="43.3957583" lon="11.4058617"><ele>260.0</ele><time>2026-04-05T09:15:04.008Z</time></trkpt><trkpt lat="43.395625" lon="11.40601"><ele>260.0</ele><time>2026-04-05T09:15:05.008Z</time></trkpt><trkpt lat="43.3954967" lon="11.4061567"><ele>259.0</ele><time>2026-04-05T09:15:06.008Z</time></trkpt><trkpt lat="43.395375" lon="11.4063"><ele>258.0</ele><time>2026-04-05T09:15:07.008Z</time></trkpt><trkpt lat="43.3952517" lon="11.4064583"><ele>257.0</ele><time>2026-04-05T09:15:08.008Z</time></trkpt><trkpt lat="43.395135" lon="11.4066217"><ele>257.0</ele><time>2026-04-05T09:15:09.008Z</time></trkpt><trkpt lat="43.39502" lon="11.406795"><ele>257.0</ele><time>2026-04-05T09:15:10.008Z</time></trkpt><trkpt lat="43.3949067" lon="11.4069717"><ele>257.0</ele><time>2026-04-05T09:15:11.008Z</time></trkpt><trkpt lat="43.3948067" lon="11.407155"><ele>258.0</ele><time>2026-04-05T09:15:12.008Z</time></trkpt><trkpt lat="43.39471" lon="11.4073417"><ele>259.0</ele><time>2026-04-05T09:15:13.008Z</time></trkpt><trkpt lat="43.394625" lon="11.4075317"><ele>260.0</ele><time>2026-04-05T09:15:14.008Z</time></trkpt><trkpt lat="43.39455" lon="11.40773"><ele>258.33333333333337</ele><time>2026-04-05T09:15:15.008Z</time></trkpt><trkpt lat="43.3944717" lon="11.40792"><ele>256.6666666666667</ele><time>2026-04-05T09:15:16.008Z</time></trkpt><trkpt lat="43.39439" lon="11.4081067"><ele>255.0</ele><time>2026-04-05T09:15:17.008Z</time></trkpt><trkpt lat="43.3943033" lon="11.4082933"><ele>255.0</ele><time>2026-04-05T09:15:18.008Z</time></trkpt><trkpt lat="43.3942183" lon="11.4084817"><ele>255.0</ele><time>2026-04-05T09:15:19.008Z</time></trkpt><trkpt lat="43.3941317" lon="11.4086683"><ele>255.0</ele><time>2026-04-05T09:15:20.008Z</time></trkpt><trkpt lat="43.3940483" lon="11.4088433"><ele>257.3333333333333</ele><time>2026-04-05T09:15:21.008Z</time></trkpt><trkpt lat="43.3939733" lon="11.409025"><ele>259.66666666666663</ele><time>2026-04-05T09:15:22.008Z</time></trkpt><trkpt lat="43.3939033" lon="11.4092183"><ele>262.0</ele><time>2026-04-05T09:15:23.008Z</time></trkpt><trkpt lat="43.393845" lon="11.409425"><ele>258.3333333333333</ele><time>2026-04-05T09:15:24.008Z</time></trkpt><trkpt lat="43.3937833" lon="11.4096333"><ele>254.66666666666669</ele><time>2026-04-05T09:15:25.008Z</time></trkpt><trkpt lat="43.39373" lon="11.40983"><ele>251.0</ele><time>2026-04-05T09:15:26.008Z</time></trkpt><trkpt lat="43.3936833" lon="11.4100283"><ele>251.0</ele><time>2026-04-05T09:15:27.008Z</time></trkpt><trkpt lat="43.3936283" lon="11.4102383"><ele>251.0</ele><time>2026-04-05T09:15:28.008Z</time></trkpt><trkpt lat="43.3935717" lon="11.4104417"><ele>251.0</ele><time>2026-04-05T09:15:29.008Z</time></trkpt><trkpt lat="43.3934933" lon="11.4106483"><ele>252.33333333333334</ele><time>2026-04-05T09:15:30.008Z</time></trkpt><trkpt lat="43.393405" lon="11.4108483"><ele>253.66666666666669</ele><time>2026-04-05T09:15:31.008Z</time></trkpt><trkpt lat="43.3932983" lon="11.41104"><ele>255.0</ele><time>2026-04-05T09:15:32.008Z</time></trkpt><trkpt lat="43.393205" lon="11.4112333"><ele>256.0</ele><time>2026-04-05T09:15:33.008Z</time></trkpt><trkpt lat="43.39311" lon="11.4114133"><ele>257.0</ele><time>2026-04-05T09:15:34.008Z</time></trkpt><trkpt lat="43.3930167" lon="11.4116033"><ele>258.0</ele><time>2026-04-05T09:15:35.008Z</time></trkpt><trkpt lat="43.3929283" lon="11.4117883"><ele>256.3333333333333</ele><time>2026-04-05T09:15:36.008Z</time></trkpt><trkpt lat="43.3928417" lon="11.4119783"><ele>254.66666666666666</ele><time>2026-04-05T09:15:37.008Z</time></trkpt><trkpt lat="43.39276" lon="11.4121683"><ele>253.0</ele><time>2026-04-05T09:15:38.008Z</time></trkpt><trkpt lat="43.3926783" lon="11.4123517"><ele>253.0</ele><time>2026-04-05T09:15:39.008Z</time></trkpt><trkpt lat="43.3925933" lon="11.4125433"><ele>253.0</ele><time>2026-04-05T09:15:40.008Z</time></trkpt><trkpt lat="43.392515" lon="11.41272"><ele>253.0</ele><time>2026-04-05T09:15:41.008Z</time></trkpt><trkpt lat="43.392435" lon="11.412895"><ele>253.5</ele><time>2026-04-05T09:15:42.008Z</time></trkpt><trkpt lat="43.39236" lon="11.41306"><ele>254.0</ele><time>2026-04-05T09:15:43.008Z</time></trkpt><trkpt lat="43.3922683" lon="11.4132033"><ele>254.5</ele><time>2026-04-05T09:15:44.008Z</time></trkpt><trkpt lat="43.392175" lon="11.4133467"><ele>255.0</ele><time>2026-04-05T09:15:45.007Z</time></trkpt><trkpt lat="43.3920683" lon="11.4134767"><ele>255.25</ele><time>2026-04-05T09:15:46.007Z</time></trkpt><trkpt lat="43.391955" lon="11.413595"><ele>255.5</ele><time>2026-04-05T09:15:47.007Z</time></trkpt><trkpt lat="43.3918383" lon="11.4136967"><ele>255.75</ele><time>2026-04-05T09:15:48.007Z</time></trkpt><trkpt lat="43.391715" lon="11.4137867"><ele>256.0</ele><time>2026-04-05T09:15:49.007Z</time></trkpt><trkpt lat="43.3915967" lon="11.4138667"><ele>256.25</ele><time>2026-04-05T09:15:50.007Z</time></trkpt><trkpt lat="43.39148" lon="11.4139433"><ele>256.5</ele><time>2026-04-05T09:15:51.007Z</time></trkpt><trkpt lat="43.3913617" lon="11.4140033"><ele>256.75</ele><time>2026-04-05T09:15:52.007Z</time></trkpt><trkpt lat="43.39124" lon="11.41405"><ele>257.0</ele><time>2026-04-05T09:15:53.007Z</time></trkpt><trkpt lat="43.391105" lon="11.41409"><ele>257.0</ele><time>2026-04-05T09:15:54.007Z</time></trkpt><trkpt lat="43.3909633" lon="11.4141117"><ele>257.0</ele><time>2026-04-05T09:15:55.007Z</time></trkpt><trkpt lat="43.3908067" lon="11.4141267"><ele>257.0</ele><time>2026-04-05T09:15:56.007Z</time></trkpt><trkpt lat="43.3906467" lon="11.4141233"><ele>257.0</ele><time>2026-04-05T09:15:57.007Z</time></trkpt><trkpt lat="43.3904867" lon="11.41411"><ele>257.0</ele><time>2026-04-05T09:15:58.007Z</time></trkpt><trkpt lat="43.39033" lon="11.41409"><ele>257.0</ele><time>2026-04-05T09:15:59.007Z</time></trkpt><trkpt lat="43.3901783" lon="11.4140583"><ele>257.0</ele><time>2026-04-05T09:16:00.007Z</time></trkpt><trkpt lat="43.3900283" lon="11.4140233"><ele>257.0</ele><time>2026-04-05T09:16:01.007Z</time></trkpt><trkpt lat="43.38987" lon="11.4139767"><ele>257.0</ele><time>2026-04-05T09:16:02.007Z</time></trkpt><trkpt lat="43.3897167" lon="11.41393"><ele>258.6666666666667</ele><time>2026-04-05T09:16:03.007Z</time></trkpt><trkpt lat="43.3895567" lon="11.4138767"><ele>260.3333333333333</ele><time>2026-04-05T09:16:04.007Z</time></trkpt><trkpt lat="43.3893933" lon="11.4138233"><ele>262.0</ele><time>2026-04-05T09:16:05.007Z</time></trkpt><trkpt lat="43.3892333" lon="11.4137783"><ele>259.3333333333333</ele><time>2026-04-05T09:16:06.007Z</time></trkpt><trkpt lat="43.3890733" lon="11.4137383"><ele>256.6666666666667</ele><time>2026-04-05T09:16:07.007Z</time></trkpt><trkpt lat="43.3889117" lon="11.4136983"><ele>254.0</ele><time>2026-04-05T09:16:08.007Z</time></trkpt><trkpt lat="43.3887533" lon="11.4136517"><ele>254.0</ele><time>2026-04-05T09:16:09.007Z</time></trkpt><trkpt lat="43.3885983" lon="11.41361"><ele>254.0</ele><time>2026-04-05T09:16:10.007Z</time></trkpt><trkpt lat="43.388445" lon="11.413565"><ele>254.0</ele><time>2026-04-05T09:16:11.007Z</time></trkpt><trkpt lat="43.3882917" lon="11.4135283"><ele>254.0</ele><time>2026-04-05T09:16:12.007Z</time></trkpt><trkpt lat="43.3881333" lon="11.4134867"><ele>254.0</ele><time>2026-04-05T09:16:13.007Z</time></trkpt><trkpt lat="43.38798" lon="11.413455"><ele>254.0</ele><time>2026-04-05T09:16:14.007Z</time></trkpt><trkpt lat="43.3878233" lon="11.4134433"><ele>253.66666666666669</ele><time>2026-04-05T09:16:15.007Z</time></trkpt><trkpt lat="43.3876667" lon="11.4134417"><ele>253.33333333333331</ele><time>2026-04-05T09:16:16.007Z</time></trkpt><trkpt lat="43.3875117" lon="11.413455"><ele>253.0</ele><time>2026-04-05T09:16:17.007Z</time></trkpt><trkpt lat="43.3873567" lon="11.41348"><ele>253.0</ele><time>2026-04-05T09:16:18.007Z</time></trkpt><trkpt lat="43.3872083" lon="11.4135333"><ele>253.0</ele><time>2026-04-05T09:16:19.007Z</time></trkpt><trkpt lat="43.3870667" lon="11.413615"><ele>253.0</ele><time>2026-04-05T09:16:20.007Z</time></trkpt><trkpt lat="43.3869267" lon="11.413695"><ele>253.5</ele><time>2026-04-05T09:16:21.007Z</time></trkpt><trkpt lat="43.3867967" lon="11.4137667"><ele>254.0</ele><time>2026-04-05T09:16:22.007Z</time></trkpt><trkpt lat="43.3866633" lon="11.4138133"><ele>254.5</ele><time>2026-04-05T09:16:23.007Z</time></trkpt><trkpt lat="43.3865233" lon="11.4138167"><ele>255.0</ele><time>2026-04-05T09:16:24.007Z</time></trkpt><trkpt lat="43.3863967" lon="11.4137783"><ele>256.0</ele><time>2026-04-05T09:16:25.007Z</time></trkpt><trkpt lat="43.3862733" lon="11.4136717"><ele>257.0</ele><time>2026-04-05T09:16:26.007Z</time></trkpt><trkpt lat="43.3861583" lon="11.4135383"><ele>258.0</ele><time>2026-04-05T09:16:27.007Z</time></trkpt><trkpt lat="43.386055" lon="11.4133933"><ele>259.0</ele><time>2026-04-05T09:16:28.007Z</time></trkpt><trkpt lat="43.3859617" lon="11.4132683"><ele>259.0</ele><time>2026-04-05T09:16:29.007Z</time></trkpt><trkpt lat="43.385865" lon="11.4131567"><ele>259.0</ele><time>2026-04-05T09:16:30.007Z</time></trkpt><trkpt lat="43.3857667" lon="11.413075"><ele>259.0</ele><time>2026-04-05T09:16:31.007Z</time></trkpt><trkpt lat="43.3856517" lon="11.41304"><ele>259.0</ele><time>2026-04-05T09:16:32.007Z</time></trkpt><trkpt lat="43.3855267" lon="11.4130517"><ele>259.3333333333333</ele><time>2026-04-05T09:16:33.007Z</time></trkpt><trkpt lat="43.3853933" lon="11.4131117"><ele>259.6666666666667</ele><time>2026-04-05T09:16:34.007Z</time></trkpt><trkpt lat="43.3852533" lon="11.4131917"><ele>260.0</ele><time>2026-04-05T09:16:35.007Z</time></trkpt><trkpt lat="43.3851033" lon="11.4132833"><ele>260.0</ele><time>2026-04-05T09:16:36.007Z</time></trkpt><trkpt lat="43.38496" lon="11.4133767"><ele>260.0</ele><time>2026-04-05T09:16:37.007Z</time></trkpt><trkpt lat="43.3848133" lon="11.4134633"><ele>260.0</ele><time>2026-04-05T09:16:38.007Z</time></trkpt><trkpt lat="43.3846633" lon="11.4135483"><ele>258.33333333333337</ele><time>2026-04-05T09:16:39.007Z</time></trkpt><trkpt lat="43.3845083" lon="11.4136217"><ele>256.6666666666667</ele><time>2026-04-05T09:16:40.007Z</time></trkpt><trkpt lat="43.3843467" lon="11.4136883"><ele>255.0</ele><time>2026-04-05T09:16:41.007Z</time></trkpt><trkpt lat="43.3841983" lon="11.4137433"><ele>255.0</ele><time>2026-04-05T09:16:42.007Z</time></trkpt><trkpt lat="43.384055" lon="11.4137817"><ele>255.0</ele><time>2026-04-05T09:16:43.007Z</time></trkpt><trkpt lat="43.3839" lon="11.413805"><ele>255.0</ele><time>2026-04-05T09:16:44.007Z</time></trkpt><trkpt lat="43.3837483" lon="11.4138033"><ele>255.0</ele><time>2026-04-05T09:16:45.007Z</time></trkpt><trkpt lat="43.3836017" lon="11.413795"><ele>255.0</ele><time>2026-04-05T09:16:46.007Z</time></trkpt><trkpt lat="43.38346" lon="11.41377"><ele>255.0</ele><time>2026-04-05T09:16:47.007Z</time></trkpt><trkpt lat="43.3833167" lon="11.4137383"><ele>255.0</ele><time>2026-04-05T09:16:48.007Z</time></trkpt><trkpt lat="43.38317" lon="11.4136733"><ele>255.0</ele><time>2026-04-05T09:16:49.007Z</time></trkpt><trkpt lat="43.38303" lon="11.41358"><ele>255.0</ele><time>2026-04-05T09:16:50.007Z</time></trkpt><trkpt lat="43.3828933" lon="11.4134833"><ele>255.0</ele><time>2026-04-05T09:16:51.007Z</time></trkpt><trkpt lat="43.382755" lon="11.4133833"><ele>256.6666666666667</ele><time>2026-04-05T09:16:52.007Z</time></trkpt><trkpt lat="43.38262" lon="11.4132933"><ele>258.33333333333337</ele><time>2026-04-05T09:16:53.007Z</time></trkpt><trkpt lat="43.3824833" lon="11.4131967"><ele>260.0</ele><time>2026-04-05T09:16:54.007Z</time></trkpt><trkpt lat="43.3823517" lon="11.413105"><ele>260.0</ele><time>2026-04-05T09:16:55.007Z</time></trkpt><trkpt lat="43.382225" lon="11.4130217"><ele>260.0</ele><time>2026-04-05T09:16:56.007Z</time></trkpt><trkpt lat="43.3820883" lon="11.4129533"><ele>260.0</ele><time>2026-04-05T09:16:57.007Z</time></trkpt><trkpt lat="43.3819417" lon="11.4129217"><ele>260.0</ele><time>2026-04-05T09:16:58.007Z</time></trkpt><trkpt lat="43.3817867" lon="11.412925"><ele>261.0</ele><time>2026-04-05T09:16:59.007Z</time></trkpt><trkpt lat="43.3816367" lon="11.4129517"><ele>262.0</ele><time>2026-04-05T09:17:00.007Z</time></trkpt><trkpt lat="43.3814917" lon="11.4129867"><ele>263.0</ele><time>2026-04-05T09:17:01.007Z</time></trkpt><trkpt lat="43.38136" lon="11.4130633"><ele>264.0</ele><time>2026-04-05T09:17:02.007Z</time></trkpt><trkpt lat="43.3812317" lon="11.4131733"><ele>261.3333333333333</ele><time>2026-04-05T09:17:03.007Z</time></trkpt><trkpt lat="43.3811133" lon="11.413315"><ele>258.66666666666663</ele><time>2026-04-05T09:17:04.007Z</time></trkpt><trkpt lat="43.3810017" lon="11.413465"><ele>256.0</ele><time>2026-04-05T09:17:05.007Z</time></trkpt><trkpt lat="43.3808867" lon="11.41361"><ele>256.0</ele><time>2026-04-05T09:17:06.007Z</time></trkpt><trkpt lat="43.3807717" lon="11.4137583"><ele>256.0</ele><time>2026-04-05T09:17:07.007Z</time></trkpt><trkpt lat="43.3806583" lon="11.4138983"><ele>256.0</ele><time>2026-04-05T09:17:08.007Z</time></trkpt><trkpt lat="43.3805333" lon="11.4140167"><ele>257.25</ele><time>2026-04-05T09:17:09.007Z</time></trkpt><trkpt lat="43.3804" lon="11.4141133"><ele>258.5</ele><time>2026-04-05T09:17:10.007Z</time></trkpt><trkpt lat="43.3802667" lon="11.41417"><ele>259.75</ele><time>2026-04-05T09:17:11.007Z</time></trkpt><trkpt lat="43.38013" lon="11.4141783"><ele>261.0</ele><time>2026-04-05T09:17:12.007Z</time></trkpt><trkpt lat="43.379985" lon="11.4141517"><ele>261.0</ele><time>2026-04-05T09:17:13.007Z</time></trkpt><trkpt lat="43.3798433" lon="11.4141"><ele>261.0</ele><time>2026-04-05T09:17:14.007Z</time></trkpt><trkpt lat="43.379705" lon="11.414025"><ele>261.0</ele><time>2026-04-05T09:17:15.007Z</time></trkpt><trkpt lat="43.3795667" lon="11.413955"><ele>261.0</ele><time>2026-04-05T09:17:16.007Z</time></trkpt><trkpt lat="43.3794333" lon="11.41388"><ele>259.75</ele><time>2026-04-05T09:17:17.007Z</time></trkpt><trkpt lat="43.3793067" lon="11.4138"><ele>258.5</ele><time>2026-04-05T09:17:18.007Z</time></trkpt><trkpt lat="43.3791733" lon="11.41372"><ele>257.25</ele><time>2026-04-05T09:17:19.007Z</time></trkpt><trkpt lat="43.379045" lon="11.4136417"><ele>256.0</ele><time>2026-04-05T09:17:20.007Z</time></trkpt><trkpt lat="43.37892" lon="11.413565"><ele>255.25</ele><time>2026-04-05T09:17:21.007Z</time></trkpt><trkpt lat="43.37879" lon="11.4134933"><ele>254.5</ele><time>2026-04-05T09:17:22.007Z</time></trkpt><trkpt lat="43.3786617" lon="11.413425"><ele>253.75</ele><time>2026-04-05T09:17:23.007Z</time></trkpt><trkpt lat="43.378535" lon="11.41336"><ele>253.0</ele><time>2026-04-05T09:17:24.007Z</time></trkpt><trkpt lat="43.3784017" lon="11.4133067"><ele>253.0</ele><time>2026-04-05T09:17:25.007Z</time></trkpt><trkpt lat="43.3782617" lon="11.4132767"><ele>253.0</ele><time>2026-04-05T09:17:26.007Z</time></trkpt><trkpt lat="43.3781217" lon="11.413255"><ele>253.0</ele><time>2026-04-05T09:17:27.007Z</time></trkpt><trkpt lat="43.3779833" lon="11.413255"><ele>253.0</ele><time>2026-04-05T09:17:28.007Z</time></trkpt><trkpt lat="43.37784" lon="11.4132567"><ele>252.66666666666666</ele><time>2026-04-05T09:17:29.007Z</time></trkpt><trkpt lat="43.3776933" lon="11.4132767"><ele>252.33333333333331</ele><time>2026-04-05T09:17:30.007Z</time></trkpt><trkpt lat="43.377545" lon="11.4133067"><ele>252.0</ele><time>2026-04-05T09:17:31.007Z</time></trkpt><trkpt lat="43.37739" lon="11.4133467"><ele>252.0</ele><time>2026-04-05T09:17:32.007Z</time></trkpt><trkpt lat="43.3772283" lon="11.4133833"><ele>252.0</ele><time>2026-04-05T09:17:33.007Z</time></trkpt><trkpt lat="43.377065" lon="11.41342"><ele>252.0</ele><time>2026-04-05T09:17:34.007Z</time></trkpt><trkpt lat="43.3769017" lon="11.4134567"><ele>250.66666666666669</ele><time>2026-04-05T09:17:35.007Z</time></trkpt><trkpt lat="43.37673" lon="11.4134817"><ele>249.33333333333334</ele><time>2026-04-05T09:17:36.007Z</time></trkpt><trkpt lat="43.3765567" lon="11.4134983"><ele>248.0</ele><time>2026-04-05T09:17:37.007Z</time></trkpt><trkpt lat="43.37638" lon="11.4135"><ele>246.66666666666669</ele><time>2026-04-05T09:17:38.007Z</time></trkpt><trkpt lat="43.376205" lon="11.413505"><ele>245.33333333333331</ele><time>2026-04-05T09:17:39.007Z</time></trkpt><trkpt lat="43.3760333" lon="11.4134983"><ele>244.0</ele><time>2026-04-05T09:17:40.007Z</time></trkpt><trkpt lat="43.375865" lon="11.413505"><ele>244.0</ele><time>2026-04-05T09:17:41.007Z</time></trkpt><trkpt lat="43.3757017" lon="11.41351"><ele>244.0</ele><time>2026-04-05T09:17:42.007Z</time></trkpt><trkpt lat="43.3755433" lon="11.4135133"><ele>244.0</ele><time>2026-04-05T09:17:43.007Z</time></trkpt><trkpt lat="43.3753833" lon="11.41352"><ele>242.66666666666666</ele><time>2026-04-05T09:17:44.007Z</time></trkpt><trkpt lat="43.3752233" lon="11.4135217"><ele>241.33333333333331</ele><time>2026-04-05T09:17:45.007Z</time></trkpt><trkpt lat="43.375065" lon="11.4135283"><ele>240.0</ele><time>2026-04-05T09:17:46.007Z</time></trkpt><trkpt lat="43.3749067" lon="11.413535"><ele>240.0</ele><time>2026-04-05T09:17:47.007Z</time></trkpt><trkpt lat="43.374745" lon="11.4135367"><ele>240.0</ele><time>2026-04-05T09:17:48.007Z</time></trkpt><trkpt lat="43.3745867" lon="11.4135333"><ele>240.0</ele><time>2026-04-05T09:17:49.007Z</time></trkpt><trkpt lat="43.3744417" lon="11.41355"><ele>239.5</ele><time>2026-04-05T09:17:50.007Z</time></trkpt><trkpt lat="43.3742967" lon="11.4135883"><ele>239.0</ele><time>2026-04-05T09:17:51.007Z</time></trkpt><trkpt lat="43.37416" lon="11.4136567"><ele>238.5</ele><time>2026-04-05T09:17:52.007Z</time></trkpt><trkpt lat="43.37403" lon="11.4137417"><ele>238.0</ele><time>2026-04-05T09:17:53.007Z</time></trkpt><trkpt lat="43.3739033" lon="11.413855"><ele>237.66666666666666</ele><time>2026-04-05T09:17:54.007Z</time></trkpt><trkpt lat="43.3737883" lon="11.413975"><ele>237.33333333333331</ele><time>2026-04-05T09:17:55.007Z</time></trkpt><trkpt lat="43.373665" lon="11.414095"><ele>237.0</ele><time>2026-04-05T09:17:56.007Z</time></trkpt><trkpt lat="43.373535" lon="11.4142283"><ele>237.0</ele><time>2026-04-05T09:17:57.007Z</time></trkpt><trkpt lat="43.3734083" lon="11.4143567"><ele>237.0</ele><time>2026-04-05T09:17:58.007Z</time></trkpt><trkpt lat="43.3732783" lon="11.4144883"><ele>237.0</ele><time>2026-04-05T09:17:59.007Z</time></trkpt><trkpt lat="43.3731567" lon="11.414615"><ele>237.0</ele><time>2026-04-05T09:18:00.007Z</time></trkpt><trkpt lat="43.3730433" lon="11.41475"><ele>237.0</ele><time>2026-04-05T09:18:01.007Z</time></trkpt><trkpt lat="43.3729267" lon="11.4148967"><ele>237.0</ele><time>2026-04-05T09:18:02.007Z</time></trkpt><trkpt lat="43.3728133" lon="11.4150483"><ele>237.0</ele><time>2026-04-05T09:18:03.007Z</time></trkpt><trkpt lat="43.3726967" lon="11.415195"><ele>237.0</ele><time>2026-04-05T09:18:04.007Z</time></trkpt><trkpt lat="43.3725617" lon="11.4153367"><ele>237.0</ele><time>2026-04-05T09:18:05.007Z</time></trkpt><trkpt lat="43.372415" lon="11.4154583"><ele>236.33333333333331</ele><time>2026-04-05T09:18:06.007Z</time></trkpt><trkpt lat="43.37227" lon="11.4155483"><ele>235.66666666666666</ele><time>2026-04-05T09:18:07.007Z</time></trkpt><trkpt lat="43.3721267" lon="11.4156317"><ele>235.0</ele><time>2026-04-05T09:18:08.007Z</time></trkpt><trkpt lat="43.371985" lon="11.4157183"><ele>235.0</ele><time>2026-04-05T09:18:09.007Z</time></trkpt><trkpt lat="43.371855" lon="11.4158217"><ele>235.0</ele><time>2026-04-05T09:18:10.007Z</time></trkpt><trkpt lat="43.3717383" lon="11.4159483"><ele>235.0</ele><time>2026-04-05T09:18:11.007Z</time></trkpt><trkpt lat="43.371625" lon="11.416095"><ele>235.0</ele><time>2026-04-05T09:18:12.007Z</time></trkpt><trkpt lat="43.3715233" lon="11.4162467"><ele>235.0</ele><time>2026-04-05T09:18:13.007Z</time></trkpt><trkpt lat="43.3714267" lon="11.4164"><ele>235.0</ele><time>2026-04-05T09:18:14.007Z</time></trkpt><trkpt lat="43.3713283" lon="11.4165417"><ele>235.0</ele><time>2026-04-05T09:18:15.007Z</time></trkpt><trkpt lat="43.3712383" lon="11.4166717"><ele>234.25</ele><time>2026-04-05T09:18:16.007Z</time></trkpt><trkpt lat="43.3711483" lon="11.4167967"><ele>233.5</ele><time>2026-04-05T09:18:17.007Z</time></trkpt><trkpt lat="43.3710383" lon="11.4169017"><ele>232.75</ele><time>2026-04-05T09:18:18.007Z</time></trkpt><trkpt lat="43.3709183" lon="11.4169867"><ele>232.0</ele><time>2026-04-05T09:18:19.007Z</time></trkpt><trkpt lat="43.3707967" lon="11.41703"><ele>232.0</ele><time>2026-04-05T09:18:20.007Z</time></trkpt><trkpt lat="43.3706317" lon="11.4170717"><ele>232.0</ele><time>2026-04-05T09:18:21.007Z</time></trkpt><trkpt lat="43.37047" lon="11.4170917"><ele>232.0</ele><time>2026-04-05T09:18:22.007Z</time></trkpt><trkpt lat="43.3703133" lon="11.4170983"><ele>232.25</ele><time>2026-04-05T09:18:23.007Z</time></trkpt><trkpt lat="43.3701667" lon="11.4171083"><ele>232.5</ele><time>2026-04-05T09:18:24.007Z</time></trkpt><trkpt lat="43.37003" lon="11.4171233"><ele>232.75</ele><time>2026-04-05T09:18:25.007Z</time></trkpt><trkpt lat="43.3699" lon="11.4171383"><ele>233.0</ele><time>2026-04-05T09:18:26.007Z</time></trkpt><trkpt lat="43.3697733" lon="11.41717"><ele>234.0</ele><time>2026-04-05T09:18:27.007Z</time></trkpt><trkpt lat="43.3696467" lon="11.41722"><ele>235.0</ele><time>2026-04-05T09:18:28.007Z</time></trkpt><trkpt lat="43.36951" lon="11.417285"><ele>236.0</ele><time>2026-04-05T09:18:29.007Z</time></trkpt><trkpt lat="43.3693717" lon="11.417355"><ele>237.0</ele><time>2026-04-05T09:18:30.007Z</time></trkpt><trkpt lat="43.36923" lon="11.4174433"><ele>237.0</ele><time>2026-04-05T09:18:31.007Z</time></trkpt><trkpt lat="43.3690817" lon="11.4175383"><ele>237.0</ele><time>2026-04-05T09:18:32.007Z</time></trkpt><trkpt lat="43.36893" lon="11.4176283"><ele>237.0</ele><time>2026-04-05T09:18:33.007Z</time></trkpt><trkpt lat="43.3687833" lon="11.4177117"><ele>235.66666666666669</ele><time>2026-04-05T09:18:34.007Z</time></trkpt><trkpt lat="43.368635" lon="11.417805"><ele>234.33333333333334</ele><time>2026-04-05T09:18:35.007Z</time></trkpt><trkpt lat="43.368485" lon="11.4178967"><ele>233.0</ele><time>2026-04-05T09:18:36.007Z</time></trkpt><trkpt lat="43.368335" lon="11.41799"><ele>234.0</ele><time>2026-04-05T09:18:37.007Z</time></trkpt><trkpt lat="43.3681817" lon="11.418085"><ele>235.0</ele><time>2026-04-05T09:18:38.007Z</time></trkpt><trkpt lat="43.36803" lon="11.418175"><ele>236.0</ele><time>2026-04-05T09:18:39.007Z</time></trkpt><trkpt lat="43.3678767" lon="11.4182667"><ele>236.0</ele><time>2026-04-05T09:18:40.007Z</time></trkpt><trkpt lat="43.3677233" lon="11.4183583"><ele>236.0</ele><time>2026-04-05T09:18:41.007Z</time></trkpt><trkpt lat="43.367575" lon="11.4184467"><ele>236.0</ele><time>2026-04-05T09:18:42.007Z</time></trkpt><trkpt lat="43.3674333" lon="11.418535"><ele>236.0</ele><time>2026-04-05T09:18:43.007Z</time></trkpt><trkpt lat="43.3672917" lon="11.4186233"><ele>236.0</ele><time>2026-04-05T09:18:44.007Z</time></trkpt><trkpt lat="43.367155" lon="11.4187083"><ele>236.0</ele><time>2026-04-05T09:18:45.007Z</time></trkpt><trkpt lat="43.3670167" lon="11.418795"><ele>236.33333333333334</ele><time>2026-04-05T09:18:46.007Z</time></trkpt><trkpt lat="43.3668733" lon="11.41888"><ele>236.66666666666669</ele><time>2026-04-05T09:18:47.007Z</time></trkpt><trkpt lat="43.36673" lon="11.4189667"><ele>237.0</ele><time>2026-04-05T09:18:48.007Z</time></trkpt><trkpt lat="43.3665883" lon="11.4190517"><ele>237.0</ele><time>2026-04-05T09:18:49.007Z</time></trkpt><trkpt lat="43.3664533" lon="11.4191333"><ele>237.0</ele><time>2026-04-05T09:18:50.007Z</time></trkpt><trkpt lat="43.3663217" lon="11.4192183"><ele>237.0</ele><time>2026-04-05T09:18:51.007Z</time></trkpt><trkpt lat="43.366195" lon="11.4192983"><ele>237.0</ele><time>2026-04-05T09:18:52.007Z</time></trkpt><trkpt lat="43.3660633" lon="11.4193783"><ele>236.75</ele><time>2026-04-05T09:18:53.007Z</time></trkpt><trkpt lat="43.3659333" lon="11.41946"><ele>236.5</ele><time>2026-04-05T09:18:54.007Z</time></trkpt><trkpt lat="43.3658133" lon="11.4195333"><ele>236.25</ele><time>2026-04-05T09:18:55.007Z</time></trkpt><trkpt lat="43.3656933" lon="11.4196033"><ele>236.0</ele><time>2026-04-05T09:18:56.007Z</time></trkpt><trkpt lat="43.3655667" lon="11.4196583"><ele>237.75</ele><time>2026-04-05T09:18:57.007Z</time></trkpt><trkpt lat="43.3654317" lon="11.419685"><ele>239.5</ele><time>2026-04-05T09:18:58.007Z</time></trkpt><trkpt lat="43.3652917" lon="11.4196833"><ele>241.25</ele><time>2026-04-05T09:18:59.007Z</time></trkpt><trkpt lat="43.36515" lon="11.4196567"><ele>243.0</ele><time>2026-04-05T09:19:00.007Z</time></trkpt><trkpt lat="43.3650167" lon="11.419585"><ele>243.0</ele><time>2026-04-05T09:19:01.007Z</time></trkpt><trkpt lat="43.3648917" lon="11.4194683"><ele>243.0</ele><time>2026-04-05T09:19:02.007Z</time></trkpt><trkpt lat="43.3647833" lon="11.4193217"><ele>243.0</ele><time>2026-04-05T09:19:03.007Z</time></trkpt><trkpt lat="43.3646867" lon="11.41916"><ele>243.25</ele><time>2026-04-05T09:19:04.007Z</time></trkpt><trkpt lat="43.3645983" lon="11.418995"><ele>243.5</ele><time>2026-04-05T09:19:05.007Z</time></trkpt><trkpt lat="43.3645033" lon="11.418845"><ele>243.75</ele><time>2026-04-05T09:19:06.007Z</time></trkpt><trkpt lat="43.3643967" lon="11.4187133"><ele>244.0</ele><time>2026-04-05T09:19:07.007Z</time></trkpt><trkpt lat="43.3642733" lon="11.4186017"><ele>244.0</ele><time>2026-04-05T09:19:08.007Z</time></trkpt><trkpt lat="43.3641433" lon="11.418515"><ele>244.0</ele><time>2026-04-05T09:19:09.007Z</time></trkpt><trkpt lat="43.364" lon="11.4184633"><ele>244.0</ele><time>2026-04-05T09:19:10.007Z</time></trkpt><trkpt lat="43.363855" lon="11.418435"><ele>244.0</ele><time>2026-04-05T09:19:11.007Z</time></trkpt><trkpt lat="43.3637033" lon="11.41843"><ele>242.66666666666666</ele><time>2026-04-05T09:19:12.007Z</time></trkpt><trkpt lat="43.36355" lon="11.4184333"><ele>241.33333333333331</ele><time>2026-04-05T09:19:13.007Z</time></trkpt><trkpt lat="43.36339" lon="11.4184367"><ele>240.0</ele><time>2026-04-05T09:19:14.007Z</time></trkpt><trkpt lat="43.3632267" lon="11.418425"><ele>240.0</ele><time>2026-04-05T09:19:15.007Z</time></trkpt><trkpt lat="43.3630733" lon="11.4184067"><ele>240.0</ele><time>2026-04-05T09:19:16.007Z</time></trkpt><trkpt lat="43.3629217" lon="11.418375"><ele>240.0</ele><time>2026-04-05T09:19:17.007Z</time></trkpt><trkpt lat="43.3627733" lon="11.4183317"><ele>239.25</ele><time>2026-04-05T09:19:18.007Z</time></trkpt><trkpt lat="43.3626333" lon="11.4182933"><ele>238.5</ele><time>2026-04-05T09:19:19.007Z</time></trkpt><trkpt lat="43.362505" lon="11.418255"><ele>237.75</ele><time>2026-04-05T09:19:20.007Z</time></trkpt><trkpt lat="43.36238" lon="11.4182283"><ele>237.0</ele><time>2026-04-05T09:19:21.007Z</time></trkpt><trkpt lat="43.3622633" lon="11.4182417"><ele>235.5</ele><time>2026-04-05T09:19:22.007Z</time></trkpt><trkpt lat="43.3621467" lon="11.4183"><ele>234.0</ele><time>2026-04-05T09:19:23.007Z</time></trkpt><trkpt lat="43.3620433" lon="11.4183883"><ele>232.5</ele><time>2026-04-05T09:19:24.007Z</time></trkpt><trkpt lat="43.3619567" lon="11.41851"><ele>231.0</ele><time>2026-04-05T09:19:25.007Z</time></trkpt><trkpt lat="43.361875" lon="11.4186383"><ele>231.0</ele><time>2026-04-05T09:19:26.007Z</time></trkpt><trkpt lat="43.3617983" lon="11.4187717"><ele>231.0</ele><time>2026-04-05T09:19:27.007Z</time></trkpt><trkpt lat="43.3617267" lon="11.4188983"><ele>231.0</ele><time>2026-04-05T09:19:28.007Z</time></trkpt><trkpt lat="43.3616283" lon="11.4190067"><ele>231.0</ele><time>2026-04-05T09:19:29.007Z</time></trkpt><trkpt lat="43.36152" lon="11.4190917"><ele>231.25</ele><time>2026-04-05T09:19:30.007Z</time></trkpt><trkpt lat="43.361405" lon="11.4191533"><ele>231.5</ele><time>2026-04-05T09:19:31.007Z</time></trkpt><trkpt lat="43.3612783" lon="11.4191967"><ele>231.75</ele><time>2026-04-05T09:19:32.007Z</time></trkpt><trkpt lat="43.361145" lon="11.4192417"><ele>232.0</ele><time>2026-04-05T09:19:33.007Z</time></trkpt><trkpt lat="43.36101" lon="11.4192867"><ele>232.0</ele><time>2026-04-05T09:19:34.007Z</time></trkpt><trkpt lat="43.36087" lon="11.4193367"><ele>232.0</ele><time>2026-04-05T09:19:35.007Z</time></trkpt><trkpt lat="43.36073" lon="11.4193817"><ele>232.0</ele><time>2026-04-05T09:19:36.007Z</time></trkpt><trkpt lat="43.3605833" lon="11.4194333"><ele>232.0</ele><time>2026-04-05T09:19:37.007Z</time></trkpt><trkpt lat="43.360435" lon="11.4194883"><ele>231.33333333333331</ele><time>2026-04-05T09:19:38.007Z</time></trkpt><trkpt lat="43.3602867" lon="11.4195433"><ele>230.66666666666669</ele><time>2026-04-05T09:19:39.007Z</time></trkpt><trkpt lat="43.3601383" lon="11.4195933"><ele>230.0</ele><time>2026-04-05T09:19:40.007Z</time></trkpt><trkpt lat="43.3599933" lon="11.4196433"><ele>230.5</ele><time>2026-04-05T09:19:41.007Z</time></trkpt><trkpt lat="43.359845" lon="11.4197017"><ele>231.0</ele><time>2026-04-05T09:19:42.007Z</time></trkpt><trkpt lat="43.3597017" lon="11.4197583"><ele>231.5</ele><time>2026-04-05T09:19:43.007Z</time></trkpt><trkpt lat="43.359565" lon="11.419815"><ele>232.0</ele><time>2026-04-05T09:19:44.007Z</time></trkpt><trkpt lat="43.3594333" lon="11.4198667"><ele>231.0</ele><time>2026-04-05T09:19:45.007Z</time></trkpt><trkpt lat="43.3593033" lon="11.4199067"><ele>230.0</ele><time>2026-04-05T09:19:46.007Z</time></trkpt><trkpt lat="43.3591767" lon="11.419925"><ele>229.0</ele><time>2026-04-05T09:19:47.007Z</time></trkpt><trkpt lat="43.3590667" lon="11.4199167"><ele>228.0</ele><time>2026-04-05T09:19:48.007Z</time></trkpt><trkpt lat="43.3589717" lon="11.4198633"><ele>228.0</ele><time>2026-04-05T09:19:49.007Z</time></trkpt><trkpt lat="43.3588833" lon="11.419775"><ele>228.0</ele><time>2026-04-05T09:19:50.007Z</time></trkpt><trkpt lat="43.3587983" lon="11.4196483"><ele>228.0</ele><time>2026-04-05T09:19:51.007Z</time></trkpt><trkpt lat="43.35871" lon="11.4194983"><ele>228.0</ele><time>2026-04-05T09:19:52.007Z</time></trkpt><trkpt lat="43.3586183" lon="11.419345"><ele>226.5</ele><time>2026-04-05T09:19:53.007Z</time></trkpt><trkpt lat="43.358525" lon="11.4191967"><ele>225.0</ele><time>2026-04-05T09:19:54.007Z</time></trkpt><trkpt lat="43.3584317" lon="11.4190467"><ele>223.5</ele><time>2026-04-05T09:19:55.007Z</time></trkpt><trkpt lat="43.35833" lon="11.4188917"><ele>222.0</ele><time>2026-04-05T09:19:56.007Z</time></trkpt><trkpt lat="43.3582317" lon="11.41874"><ele>221.75</ele><time>2026-04-05T09:19:57.007Z</time></trkpt><trkpt lat="43.35813" lon="11.4185917"><ele>221.5</ele><time>2026-04-05T09:19:58.007Z</time></trkpt><trkpt lat="43.3580283" lon="11.4184433"><ele>221.25</ele><time>2026-04-05T09:19:59.007Z</time></trkpt><trkpt lat="43.3579283" lon="11.4182917"><ele>221.0</ele><time>2026-04-05T09:20:00.007Z</time></trkpt><trkpt lat="43.3578233" lon="11.4181283"><ele>220.75</ele><time>2026-04-05T09:20:01.007Z</time></trkpt><trkpt lat="43.3577217" lon="11.4179783"><ele>220.5</ele><time>2026-04-05T09:20:02.007Z</time></trkpt><trkpt lat="43.357635" lon="11.417835"><ele>220.25</ele><time>2026-04-05T09:20:03.007Z</time></trkpt><trkpt lat="43.357545" lon="11.4177"><ele>220.0</ele><time>2026-04-05T09:20:04.007Z</time></trkpt><trkpt lat="43.35746" lon="11.4175733"><ele>220.0</ele><time>2026-04-05T09:20:05.007Z</time></trkpt><trkpt lat="43.3573733" lon="11.4174367"><ele>220.0</ele><time>2026-04-05T09:20:06.007Z</time></trkpt><trkpt lat="43.3572883" lon="11.41731"><ele>220.0</ele><time>2026-04-05T09:20:07.007Z</time></trkpt><trkpt lat="43.357215" lon="11.4171833"><ele>220.0</ele><time>2026-04-05T09:20:08.007Z</time></trkpt><trkpt lat="43.357135" lon="11.4170617"><ele>219.8</ele><time>2026-04-05T09:20:09.007Z</time></trkpt><trkpt lat="43.357065" lon="11.4169517"><ele>219.6</ele><time>2026-04-05T09:20:10.007Z</time></trkpt><trkpt lat="43.357005" lon="11.416865"><ele>219.39999999999998</ele><time>2026-04-05T09:20:11.007Z</time></trkpt><trkpt lat="43.356955" lon="11.4168"><ele>219.2</ele><time>2026-04-05T09:20:12.007Z</time></trkpt><trkpt lat="43.3568583" lon="11.4167883"><ele>219.0</ele><time>2026-04-05T09:20:14.007Z</time></trkpt><trkpt lat="43.356805" lon="11.4169083"><ele>219.0</ele><time>2026-04-05T09:20:16.007Z</time></trkpt><trkpt lat="43.3567983" lon="11.417015"><ele>218.99999999999997</ele><time>2026-04-05T09:20:17.007Z</time></trkpt><trkpt lat="43.3567817" lon="11.4171333"><ele>218.99999999999997</ele><time>2026-04-05T09:20:18.007Z</time></trkpt><trkpt lat="43.3567533" lon="11.4172567"><ele>219.0</ele><time>2026-04-05T09:20:19.007Z</time></trkpt><trkpt lat="43.3567033" lon="11.4173817"><ele>219.0</ele><time>2026-04-05T09:20:20.007Z</time></trkpt><trkpt lat="43.3566433" lon="11.41751"><ele>219.0</ele><time>2026-04-05T09:20:21.007Z</time></trkpt><trkpt lat="43.3565783" lon="11.417645"><ele>219.0</ele><time>2026-04-05T09:20:22.007Z</time></trkpt><trkpt lat="43.3565117" lon="11.41779"><ele>219.0</ele><time>2026-04-05T09:20:23.007Z</time></trkpt><trkpt lat="43.3564417" lon="11.4179417"><ele>219.0</ele><time>2026-04-05T09:20:24.007Z</time></trkpt><trkpt lat="43.3563667" lon="11.4181033"><ele>218.75</ele><time>2026-04-05T09:20:25.007Z</time></trkpt><trkpt lat="43.35629" lon="11.4182583"><ele>218.5</ele><time>2026-04-05T09:20:26.007Z</time></trkpt><trkpt lat="43.3562117" lon="11.4184183"><ele>218.25</ele><time>2026-04-05T09:20:27.007Z</time></trkpt><trkpt lat="43.3561367" lon="11.41858"><ele>218.0</ele><time>2026-04-05T09:20:28.007Z</time></trkpt><trkpt lat="43.35606" lon="11.4187483"><ele>217.33333333333334</ele><time>2026-04-05T09:20:29.007Z</time></trkpt><trkpt lat="43.3559817" lon="11.4189133"><ele>216.66666666666669</ele><time>2026-04-05T09:20:30.007Z</time></trkpt><trkpt lat="43.3559" lon="11.419085"><ele>216.0</ele><time>2026-04-05T09:20:31.007Z</time></trkpt><trkpt lat="43.3558133" lon="11.4192683"><ele>216.0</ele><time>2026-04-05T09:20:32.007Z</time></trkpt><trkpt lat="43.3557383" lon="11.4194517"><ele>216.0</ele><time>2026-04-05T09:20:33.007Z</time></trkpt><trkpt lat="43.3556633" lon="11.4196433"><ele>216.0</ele><time>2026-04-05T09:20:34.007Z</time></trkpt><trkpt lat="43.355605" lon="11.4198367"><ele>216.0</ele><time>2026-04-05T09:20:35.007Z</time></trkpt><trkpt lat="43.35556" lon="11.4200417"><ele>216.0</ele><time>2026-04-05T09:20:36.007Z</time></trkpt><trkpt lat="43.35552" lon="11.4202483"><ele>216.0</ele><time>2026-04-05T09:20:37.007Z</time></trkpt><trkpt lat="43.355485" lon="11.4204633"><ele>215.66666666666669</ele><time>2026-04-05T09:20:38.007Z</time></trkpt><trkpt lat="43.35545" lon="11.4206917"><ele>215.33333333333334</ele><time>2026-04-05T09:20:39.007Z</time></trkpt><trkpt lat="43.35541" lon="11.4209017"><ele>215.0</ele><time>2026-04-05T09:20:40.007Z</time></trkpt><trkpt lat="43.3553733" lon="11.4211183"><ele>216.0</ele><time>2026-04-05T09:20:41.007Z</time></trkpt><trkpt lat="43.3553433" lon="11.4213317"><ele>217.0</ele><time>2026-04-05T09:20:42.007Z</time></trkpt><trkpt lat="43.3553217" lon="11.4215467"><ele>218.0</ele><time>2026-04-05T09:20:43.007Z</time></trkpt><trkpt lat="43.355305" lon="11.4217667"><ele>218.0</ele><time>2026-04-05T09:20:44.007Z</time></trkpt><trkpt lat="43.355285" lon="11.4219833"><ele>218.0</ele><time>2026-04-05T09:20:45.007Z</time></trkpt><trkpt lat="43.355265" lon="11.4222"><ele>218.0</ele><time>2026-04-05T09:20:46.007Z</time></trkpt><trkpt lat="43.35524" lon="11.4224117"><ele>220.33333333333334</ele><time>2026-04-05T09:20:47.007Z</time></trkpt><trkpt lat="43.3552033" lon="11.42262"><ele>222.66666666666669</ele><time>2026-04-05T09:20:48.007Z</time></trkpt><trkpt lat="43.3551583" lon="11.4228367"><ele>225.0</ele><time>2026-04-05T09:20:49.007Z</time></trkpt><trkpt lat="43.3551067" lon="11.4230533"><ele>227.33333333333331</ele><time>2026-04-05T09:20:50.007Z</time></trkpt><trkpt lat="43.3550567" lon="11.4232567"><ele>229.66666666666666</ele><time>2026-04-05T09:20:51.007Z</time></trkpt><trkpt lat="43.3550117" lon="11.4234583"><ele>232.0</ele><time>2026-04-05T09:20:52.007Z</time></trkpt><trkpt lat="43.3549617" lon="11.4236433"><ele>233.0</ele><time>2026-04-05T09:20:53.007Z</time></trkpt><trkpt lat="43.354925" lon="11.42382"><ele>234.0</ele><time>2026-04-05T09:20:54.007Z</time></trkpt><trkpt lat="43.3549217" lon="11.4239867"><ele>235.0</ele><time>2026-04-05T09:20:55.007Z</time></trkpt><trkpt lat="43.35495" lon="11.4241417"><ele>236.0</ele><time>2026-04-05T09:20:56.007Z</time></trkpt><trkpt lat="43.3550083" lon="11.42428"><ele>236.0</ele><time>2026-04-05T09:20:57.007Z</time></trkpt><trkpt lat="43.355095" lon="11.4244183"><ele>236.0</ele><time>2026-04-05T09:20:58.007Z</time></trkpt><trkpt lat="43.3551983" lon="11.4245533"><ele>236.0</ele><time>2026-04-05T09:20:59.007Z</time></trkpt><trkpt lat="43.3553" lon="11.4246917"><ele>236.0</ele><time>2026-04-05T09:21:00.007Z</time></trkpt><trkpt lat="43.35541" lon="11.4248333"><ele>237.33333333333334</ele><time>2026-04-05T09:21:01.007Z</time></trkpt><trkpt lat="43.3555267" lon="11.4249817"><ele>238.66666666666669</ele><time>2026-04-05T09:21:02.007Z</time></trkpt><trkpt lat="43.3556383" lon="11.42513"><ele>240.0</ele><time>2026-04-05T09:21:03.007Z</time></trkpt><trkpt lat="43.3557517" lon="11.4252783"><ele>240.0</ele><time>2026-04-05T09:21:04.007Z</time></trkpt><trkpt lat="43.35587" lon="11.42543"><ele>240.0</ele><time>2026-04-05T09:21:05.007Z</time></trkpt><trkpt lat="43.355985" lon="11.4255833"><ele>240.0</ele><time>2026-04-05T09:21:06.007Z</time></trkpt><trkpt lat="43.3561017" lon="11.4257333"><ele>242.0</ele><time>2026-04-05T09:21:07.007Z</time></trkpt><trkpt lat="43.35622" lon="11.4258867"><ele>244.0</ele><time>2026-04-05T09:21:08.007Z</time></trkpt><trkpt lat="43.3563367" lon="11.4260483"><ele>246.0</ele><time>2026-04-05T09:21:09.007Z</time></trkpt><trkpt lat="43.356455" lon="11.426205"><ele>249.33333333333331</ele><time>2026-04-05T09:21:10.007Z</time></trkpt><trkpt lat="43.356585" lon="11.4263483"><ele>252.66666666666666</ele><time>2026-04-05T09:21:11.007Z</time></trkpt><trkpt lat="43.3567233" lon="11.42648"><ele>256.0</ele><time>2026-04-05T09:21:12.007Z</time></trkpt><trkpt lat="43.3568733" lon="11.4265883"><ele>256.0</ele><time>2026-04-05T09:21:13.007Z</time></trkpt><trkpt lat="43.357025" lon="11.4266833"><ele>256.0</ele><time>2026-04-05T09:21:14.007Z</time></trkpt><trkpt lat="43.3571733" lon="11.42678"><ele>256.0</ele><time>2026-04-05T09:21:15.007Z</time></trkpt><trkpt lat="43.35732" lon="11.4268817"><ele>255.0</ele><time>2026-04-05T09:21:16.007Z</time></trkpt><trkpt lat="43.3574567" lon="11.4269633"><ele>254.0</ele><time>2026-04-05T09:21:17.007Z</time></trkpt><trkpt lat="43.3575967" lon="11.4270467"><ele>253.0</ele><time>2026-04-05T09:21:18.007Z</time></trkpt><trkpt lat="43.3577317" lon="11.4271333"><ele>254.0</ele><time>2026-04-05T09:21:19.007Z</time></trkpt><trkpt lat="43.3578583" lon="11.4272433"><ele>255.0</ele><time>2026-04-05T09:21:20.007Z</time></trkpt><trkpt lat="43.3579833" lon="11.4273833"><ele>256.0</ele><time>2026-04-05T09:21:21.007Z</time></trkpt><trkpt lat="43.3580983" lon="11.4275317"><ele>256.0</ele><time>2026-04-05T09:21:22.007Z</time></trkpt><trkpt lat="43.3582083" lon="11.4277017"><ele>256.0</ele><time>2026-04-05T09:21:23.007Z</time></trkpt><trkpt lat="43.3582967" lon="11.427875"><ele>256.0</ele><time>2026-04-05T09:21:24.007Z</time></trkpt><trkpt lat="43.3583967" lon="11.4280483"><ele>259.66666666666663</ele><time>2026-04-05T09:21:25.007Z</time></trkpt><trkpt lat="43.3585" lon="11.4282117"><ele>263.3333333333333</ele><time>2026-04-05T09:21:26.007Z</time></trkpt><trkpt lat="43.3586067" lon="11.4283683"><ele>267.0</ele><time>2026-04-05T09:21:27.007Z</time></trkpt><trkpt lat="43.3587217" lon="11.428525"><ele>267.0</ele><time>2026-04-05T09:21:28.007Z</time></trkpt><trkpt lat="43.3588267" lon="11.4286833"><ele>267.0</ele><time>2026-04-05T09:21:29.007Z</time></trkpt><trkpt lat="43.3589233" lon="11.4288533"><ele>267.0</ele><time>2026-04-05T09:21:30.007Z</time></trkpt><trkpt lat="43.3590017" lon="11.4290317"><ele>264.3333333333333</ele><time>2026-04-05T09:21:31.007Z</time></trkpt><trkpt lat="43.35907" lon="11.4292167"><ele>261.66666666666663</ele><time>2026-04-05T09:21:32.007Z</time></trkpt><trkpt lat="43.359125" lon="11.42942"><ele>259.0</ele><time>2026-04-05T09:21:33.007Z</time></trkpt><trkpt lat="43.35916" lon="11.429625"><ele>260.5</ele><time>2026-04-05T09:21:34.007Z</time></trkpt><trkpt lat="43.3591767" lon="11.4298233"><ele>262.0</ele><time>2026-04-05T09:21:35.007Z</time></trkpt><trkpt lat="43.3591967" lon="11.4300117"><ele>263.5</ele><time>2026-04-05T09:21:36.007Z</time></trkpt><trkpt lat="43.3592017" lon="11.4301917"><ele>265.0</ele><time>2026-04-05T09:21:37.007Z</time></trkpt><trkpt lat="43.3591967" lon="11.4303733"><ele>264.66666666666663</ele><time>2026-04-05T09:21:38.007Z</time></trkpt><trkpt lat="43.3591717" lon="11.4305767"><ele>264.3333333333333</ele><time>2026-04-05T09:21:39.007Z</time></trkpt><trkpt lat="43.3591433" lon="11.430785"><ele>264.0</ele><time>2026-04-05T09:21:40.007Z</time></trkpt><trkpt lat="43.359105" lon="11.4309817"><ele>264.0</ele><time>2026-04-05T09:21:41.007Z</time></trkpt><trkpt lat="43.3590683" lon="11.4311933"><ele>264.0</ele><time>2026-04-05T09:21:42.007Z</time></trkpt><trkpt lat="43.3590217" lon="11.4314083"><ele>264.0</ele><time>2026-04-05T09:21:43.007Z</time></trkpt><trkpt lat="43.3589667" lon="11.4316317"><ele>263.6666666666667</ele><time>2026-04-05T09:21:44.007Z</time></trkpt><trkpt lat="43.358925" lon="11.4318433"><ele>263.33333333333337</ele><time>2026-04-05T09:21:45.007Z</time></trkpt><trkpt lat="43.3588783" lon="11.4320683"><ele>263.0</ele><time>2026-04-05T09:21:46.007Z</time></trkpt><trkpt lat="43.3588433" lon="11.4322883"><ele>263.0</ele><time>2026-04-05T09:21:47.007Z</time></trkpt><trkpt lat="43.35883" lon="11.4325117"><ele>263.0</ele><time>2026-04-05T09:21:48.007Z</time></trkpt><trkpt lat="43.3588317" lon="11.43274"><ele>263.0</ele><time>2026-04-05T09:21:49.007Z</time></trkpt><trkpt lat="43.358845" lon="11.432965"><ele>263.33333333333337</ele><time>2026-04-05T09:21:50.007Z</time></trkpt><trkpt lat="43.35886" lon="11.4331917"><ele>263.6666666666667</ele><time>2026-04-05T09:21:51.007Z</time></trkpt><trkpt lat="43.358885" lon="11.4334167"><ele>264.0</ele><time>2026-04-05T09:21:52.007Z</time></trkpt><trkpt lat="43.358915" lon="11.4336283"><ele>263.75</ele><time>2026-04-05T09:21:53.007Z</time></trkpt><trkpt lat="43.35894" lon="11.4338267"><ele>263.5</ele><time>2026-04-05T09:21:54.007Z</time></trkpt><trkpt lat="43.3589467" lon="11.4340217"><ele>263.25</ele><time>2026-04-05T09:21:55.007Z</time></trkpt><trkpt lat="43.3589367" lon="11.434225"><ele>263.0</ele><time>2026-04-05T09:21:56.007Z</time></trkpt><trkpt lat="43.3589167" lon="11.43443"><ele>265.6666666666667</ele><time>2026-04-05T09:21:57.007Z</time></trkpt><trkpt lat="43.3588667" lon="11.4346467"><ele>268.3333333333333</ele><time>2026-04-05T09:21:58.007Z</time></trkpt><trkpt lat="43.3588017" lon="11.4348633"><ele>271.0</ele><time>2026-04-05T09:21:59.007Z</time></trkpt><trkpt lat="43.3587183" lon="11.43506"><ele>271.0</ele><time>2026-04-05T09:22:00.007Z</time></trkpt><trkpt lat="43.3586383" lon="11.4352567"><ele>271.0</ele><time>2026-04-05T09:22:01.007Z</time></trkpt><trkpt lat="43.358565" lon="11.4354533"><ele>271.0</ele><time>2026-04-05T09:22:02.007Z</time></trkpt><trkpt lat="43.358505" lon="11.4356533"><ele>270.3333333333333</ele><time>2026-04-05T09:22:03.007Z</time></trkpt><trkpt lat="43.3584567" lon="11.4358483"><ele>269.6666666666667</ele><time>2026-04-05T09:22:04.007Z</time></trkpt><trkpt lat="43.358415" lon="11.43606"><ele>269.0</ele><time>2026-04-05T09:22:05.007Z</time></trkpt><trkpt lat="43.3583783" lon="11.436275"><ele>269.0</ele><time>2026-04-05T09:22:06.007Z</time></trkpt><trkpt lat="43.3583417" lon="11.43648"><ele>269.0</ele><time>2026-04-05T09:22:07.007Z</time></trkpt><trkpt lat="43.35832" lon="11.4366883"><ele>269.0</ele><time>2026-04-05T09:22:08.007Z</time></trkpt><trkpt lat="43.35832" lon="11.43689"><ele>269.0</ele><time>2026-04-05T09:22:09.007Z</time></trkpt><trkpt lat="43.35835" lon="11.4371"><ele>269.0</ele><time>2026-04-05T09:22:10.007Z</time></trkpt><trkpt lat="43.3583683" lon="11.4373067"><ele>269.0</ele><time>2026-04-05T09:22:11.007Z</time></trkpt><trkpt lat="43.3583783" lon="11.4375"><ele>269.0</ele><time>2026-04-05T09:22:12.007Z</time></trkpt><trkpt lat="43.358355" lon="11.437705"><ele>269.0</ele><time>2026-04-05T09:22:13.007Z</time></trkpt><trkpt lat="43.3583033" lon="11.4379"><ele>269.0</ele><time>2026-04-05T09:22:14.007Z</time></trkpt><trkpt lat="43.3582167" lon="11.4380733"><ele>269.0</ele><time>2026-04-05T09:22:15.007Z</time></trkpt><trkpt lat="43.358095" lon="11.43821"><ele>267.6666666666667</ele><time>2026-04-05T09:22:16.007Z</time></trkpt><trkpt lat="43.3579567" lon="11.4383083"><ele>266.3333333333333</ele><time>2026-04-05T09:22:17.007Z</time></trkpt><trkpt lat="43.3578133" lon="11.4383633"><ele>265.0</ele><time>2026-04-05T09:22:18.007Z</time></trkpt><trkpt lat="43.3576633" lon="11.4384067"><ele>265.0</ele><time>2026-04-05T09:22:19.007Z</time></trkpt><trkpt lat="43.3575133" lon="11.438455"><ele>265.0</ele><time>2026-04-05T09:22:20.007Z</time></trkpt><trkpt lat="43.35737" lon="11.4384983"><ele>265.0</ele><time>2026-04-05T09:22:21.007Z</time></trkpt><trkpt lat="43.3572233" lon="11.43854"><ele>265.0</ele><time>2026-04-05T09:22:22.007Z</time></trkpt><trkpt lat="43.357065" lon="11.4385567"><ele>265.0</ele><time>2026-04-05T09:22:23.007Z</time></trkpt><trkpt lat="43.3569067" lon="11.4385533"><ele>265.0</ele><time>2026-04-05T09:22:24.007Z</time></trkpt><trkpt lat="43.35675" lon="11.4385317"><ele>265.0</ele><time>2026-04-05T09:22:25.007Z</time></trkpt><trkpt lat="43.356605" lon="11.4384933"><ele>265.0</ele><time>2026-04-05T09:22:26.007Z</time></trkpt><trkpt lat="43.356465" lon="11.4384567"><ele>265.0</ele><time>2026-04-05T09:22:27.007Z</time></trkpt><trkpt lat="43.3563317" lon="11.4384267"><ele>265.0</ele><time>2026-04-05T09:22:28.007Z</time></trkpt><trkpt lat="43.356205" lon="11.43839"><ele>265.2</ele><time>2026-04-05T09:22:29.007Z</time></trkpt><trkpt lat="43.356085" lon="11.4383667"><ele>265.4</ele><time>2026-04-05T09:22:30.007Z</time></trkpt><trkpt lat="43.3559783" lon="11.4383467"><ele>265.6</ele><time>2026-04-05T09:22:31.007Z</time></trkpt><trkpt lat="43.3558683" lon="11.4383233"><ele>265.8</ele><time>2026-04-05T09:22:32.007Z</time></trkpt><trkpt lat="43.3557667" lon="11.4383017"><ele>266.0</ele><time>2026-04-05T09:22:33.007Z</time></trkpt><trkpt lat="43.3556667" lon="11.4382783"><ele>266.0</ele><time>2026-04-05T09:22:34.007Z</time></trkpt><trkpt lat="43.35556" lon="11.4382583"><ele>266.0</ele><time>2026-04-05T09:22:35.007Z</time></trkpt><trkpt lat="43.3554467" lon="11.4382283"><ele>266.0</ele><time>2026-04-05T09:22:36.007Z</time></trkpt><trkpt lat="43.3553333" lon="11.4381983"><ele>266.0</ele><time>2026-04-05T09:22:37.007Z</time></trkpt><trkpt lat="43.3552217" lon="11.438175"><ele>266.5</ele><time>2026-04-05T09:22:38.007Z</time></trkpt><trkpt lat="43.35511" lon="11.43815"><ele>267.0</ele><time>2026-04-05T09:22:39.007Z</time></trkpt><trkpt lat="43.354995" lon="11.4381267"><ele>267.5</ele><time>2026-04-05T09:22:40.007Z</time></trkpt><trkpt lat="43.3548817" lon="11.4381083"><ele>268.0</ele><time>2026-04-05T09:22:41.007Z</time></trkpt><trkpt lat="43.3547633" lon="11.4380983"><ele>267.5</ele><time>2026-04-05T09:22:42.007Z</time></trkpt><trkpt lat="43.3546417" lon="11.4380883"><ele>267.0</ele><time>2026-04-05T09:22:43.007Z</time></trkpt><trkpt lat="43.3545217" lon="11.43809"><ele>266.5</ele><time>2026-04-05T09:22:44.007Z</time></trkpt><trkpt lat="43.3543967" lon="11.4380983"><ele>266.0</ele><time>2026-04-05T09:22:45.007Z</time></trkpt><trkpt lat="43.3542717" lon="11.4381083"><ele>266.0</ele><time>2026-04-05T09:22:46.007Z</time></trkpt><trkpt lat="43.3541483" lon="11.4381417"><ele>266.0</ele><time>2026-04-05T09:22:47.007Z</time></trkpt><trkpt lat="43.3540233" lon="11.43818"><ele>266.0</ele><time>2026-04-05T09:22:48.007Z</time></trkpt><trkpt lat="43.3538983" lon="11.438205"><ele>266.0</ele><time>2026-04-05T09:22:49.007Z</time></trkpt><trkpt lat="43.3537683" lon="11.43824"><ele>265.75</ele><time>2026-04-05T09:22:50.007Z</time></trkpt><trkpt lat="43.353645" lon="11.43827"><ele>265.5</ele><time>2026-04-05T09:22:51.007Z</time></trkpt><trkpt lat="43.353525" lon="11.4382967"><ele>265.25</ele><time>2026-04-05T09:22:52.007Z</time></trkpt><trkpt lat="43.35341" lon="11.438325"><ele>265.0</ele><time>2026-04-05T09:22:53.007Z</time></trkpt><trkpt lat="43.3532933" lon="11.4383683"><ele>265.0</ele><time>2026-04-05T09:22:54.007Z</time></trkpt><trkpt lat="43.353175" lon="11.4384233"><ele>265.0</ele><time>2026-04-05T09:22:55.007Z</time></trkpt><trkpt lat="43.3530583" lon="11.43849"><ele>265.0</ele><time>2026-04-05T09:22:56.007Z</time></trkpt><trkpt lat="43.3529467" lon="11.438575"><ele>265.0</ele><time>2026-04-05T09:22:57.007Z</time></trkpt><trkpt lat="43.35284" lon="11.4386683"><ele>263.25</ele><time>2026-04-05T09:22:58.007Z</time></trkpt><trkpt lat="43.3527317" lon="11.438765"><ele>261.5</ele><time>2026-04-05T09:22:59.007Z</time></trkpt><trkpt lat="43.3526317" lon="11.4388617"><ele>259.75</ele><time>2026-04-05T09:23:00.007Z</time></trkpt><trkpt lat="43.3525467" lon="11.4389717"><ele>258.0</ele><time>2026-04-05T09:23:01.007Z</time></trkpt><trkpt lat="43.35246" lon="11.43909"><ele>258.0</ele><time>2026-04-05T09:23:02.007Z</time></trkpt><trkpt lat="43.3523733" lon="11.4391917"><ele>258.0</ele><time>2026-04-05T09:23:03.007Z</time></trkpt><trkpt lat="43.3522733" lon="11.4392667"><ele>258.0</ele><time>2026-04-05T09:23:04.007Z</time></trkpt><trkpt lat="43.3521667" lon="11.4393067"><ele>258.0</ele><time>2026-04-05T09:23:05.007Z</time></trkpt><trkpt lat="43.352045" lon="11.439335"><ele>256.25</ele><time>2026-04-05T09:23:06.007Z</time></trkpt><trkpt lat="43.3519233" lon="11.43937"><ele>254.5</ele><time>2026-04-05T09:23:07.007Z</time></trkpt><trkpt lat="43.3518067" lon="11.4394267"><ele>252.75</ele><time>2026-04-05T09:23:08.007Z</time></trkpt><trkpt lat="43.3516967" lon="11.4394917"><ele>251.0</ele><time>2026-04-05T09:23:09.007Z</time></trkpt><trkpt lat="43.3515967" lon="11.43956"><ele>251.00000000000003</ele><time>2026-04-05T09:23:10.007Z</time></trkpt><trkpt lat="43.351505" lon="11.439625"><ele>251.0</ele><time>2026-04-05T09:23:11.007Z</time></trkpt><trkpt lat="43.35143" lon="11.439695"><ele>251.0</ele><time>2026-04-05T09:23:12.007Z</time></trkpt><trkpt lat="43.3513717" lon="11.439765"><ele>251.0</ele><time>2026-04-05T09:23:13.007Z</time></trkpt><trkpt lat="43.3513417" lon="11.4398417"><ele>251.00000000000003</ele><time>2026-04-05T09:23:14.007Z</time></trkpt><trkpt lat="43.3513333" lon="11.4399383"><ele>251.0</ele><time>2026-04-05T09:23:15.007Z</time></trkpt><trkpt lat="43.3513383" lon="11.44005"><ele>250.4</ele><time>2026-04-05T09:23:16.007Z</time></trkpt><trkpt lat="43.35135" lon="11.4401817"><ele>249.8</ele><time>2026-04-05T09:23:17.007Z</time></trkpt><trkpt lat="43.3513633" lon="11.440315"><ele>249.20000000000002</ele><time>2026-04-05T09:23:18.007Z</time></trkpt><trkpt lat="43.3513683" lon="11.4404583"><ele>248.60000000000002</ele><time>2026-04-05T09:23:19.007Z</time></trkpt><trkpt lat="43.3513767" lon="11.4406067"><ele>248.0</ele><time>2026-04-05T09:23:20.007Z</time></trkpt><trkpt lat="43.3514" lon="11.4407483"><ele>247.4</ele><time>2026-04-05T09:23:21.007Z</time></trkpt><trkpt lat="43.351435" lon="11.4408817"><ele>246.8</ele><time>2026-04-05T09:23:22.007Z</time></trkpt><trkpt lat="43.3515" lon="11.4409983"><ele>246.2</ele><time>2026-04-05T09:23:23.007Z</time></trkpt><trkpt lat="43.3515883" lon="11.441095"><ele>245.6</ele><time>2026-04-05T09:23:24.007Z</time></trkpt><trkpt lat="43.3516883" lon="11.441155"><ele>245.0</ele><time>2026-04-05T09:23:25.007Z</time></trkpt><trkpt lat="43.351805" lon="11.4411733"><ele>245.0</ele><time>2026-04-05T09:23:26.007Z</time></trkpt><trkpt lat="43.35193" lon="11.4411867"><ele>245.0</ele><time>2026-04-05T09:23:27.007Z</time></trkpt><trkpt lat="43.3520567" lon="11.4412133"><ele>245.0</ele><time>2026-04-05T09:23:28.007Z</time></trkpt><trkpt lat="43.3521783" lon="11.4412617"><ele>245.0</ele><time>2026-04-05T09:23:29.007Z</time></trkpt><trkpt lat="43.3522983" lon="11.4413317"><ele>243.75</ele><time>2026-04-05T09:23:30.007Z</time></trkpt><trkpt lat="43.3524067" lon="11.4414283"><ele>242.5</ele><time>2026-04-05T09:23:31.007Z</time></trkpt><trkpt lat="43.3525117" lon="11.4415383"><ele>241.25</ele><time>2026-04-05T09:23:32.007Z</time></trkpt><trkpt lat="43.3525983" lon="11.4416817"><ele>240.0</ele><time>2026-04-05T09:23:33.007Z</time></trkpt><trkpt lat="43.3526767" lon="11.44183"><ele>240.0</ele><time>2026-04-05T09:23:34.007Z</time></trkpt><trkpt lat="43.352735" lon="11.4419917"><ele>240.0</ele><time>2026-04-05T09:23:35.007Z</time></trkpt><trkpt lat="43.3527733" lon="11.4421733"><ele>240.0</ele><time>2026-04-05T09:23:36.007Z</time></trkpt><trkpt lat="43.35279" lon="11.4423567"><ele>240.0</ele><time>2026-04-05T09:23:37.007Z</time></trkpt><trkpt lat="43.3527883" lon="11.4425167"><ele>238.0</ele><time>2026-04-05T09:23:38.007Z</time></trkpt><trkpt lat="43.352755" lon="11.4426667"><ele>236.0</ele><time>2026-04-05T09:23:39.007Z</time></trkpt><trkpt lat="43.352685" lon="11.44277"><ele>234.0</ele><time>2026-04-05T09:23:40.007Z</time></trkpt><trkpt lat="43.3525883" lon="11.442845"><ele>232.0</ele><time>2026-04-05T09:23:41.007Z</time></trkpt><trkpt lat="43.3524683" lon="11.442905"><ele>232.0</ele><time>2026-04-05T09:23:42.007Z</time></trkpt><trkpt lat="43.352325" lon="11.4429367"><ele>232.0</ele><time>2026-04-05T09:23:43.007Z</time></trkpt><trkpt lat="43.3521783" lon="11.4429683"><ele>232.0</ele><time>2026-04-05T09:23:44.007Z</time></trkpt><trkpt lat="43.352035" lon="11.4430117"><ele>232.0</ele><time>2026-04-05T09:23:45.007Z</time></trkpt><trkpt lat="43.3518917" lon="11.4430783"><ele>233.75</ele><time>2026-04-05T09:23:46.007Z</time></trkpt><trkpt lat="43.3517567" lon="11.4431417"><ele>235.5</ele><time>2026-04-05T09:23:47.007Z</time></trkpt><trkpt lat="43.35164" lon="11.4432283"><ele>237.25</ele><time>2026-04-05T09:23:48.007Z</time></trkpt><trkpt lat="43.351555" lon="11.4433383"><ele>239.0</ele><time>2026-04-05T09:23:49.007Z</time></trkpt><trkpt lat="43.3515067" lon="11.4434733"><ele>239.0</ele><time>2026-04-05T09:23:50.007Z</time></trkpt><trkpt lat="43.3514983" lon="11.4436383"><ele>239.0</ele><time>2026-04-05T09:23:51.007Z</time></trkpt><trkpt lat="43.3515083" lon="11.4438217"><ele>239.0</ele><time>2026-04-05T09:23:52.007Z</time></trkpt><trkpt lat="43.3515217" lon="11.4440067"><ele>239.0</ele><time>2026-04-05T09:23:53.007Z</time></trkpt><trkpt lat="43.3515467" lon="11.4441967"><ele>240.25</ele><time>2026-04-05T09:23:54.007Z</time></trkpt><trkpt lat="43.3515817" lon="11.4443833"><ele>241.5</ele><time>2026-04-05T09:23:55.007Z</time></trkpt><trkpt lat="43.3516233" lon="11.4445667"><ele>242.75</ele><time>2026-04-05T09:23:56.007Z</time></trkpt><trkpt lat="43.3516717" lon="11.4447583"><ele>244.0</ele><time>2026-04-05T09:23:57.007Z</time></trkpt><trkpt lat="43.351715" lon="11.44495"><ele>244.0</ele><time>2026-04-05T09:23:58.007Z</time></trkpt><trkpt lat="43.3517367" lon="11.44515"><ele>244.0</ele><time>2026-04-05T09:23:59.007Z</time></trkpt><trkpt lat="43.3517467" lon="11.4453567"><ele>244.0</ele><time>2026-04-05T09:24:00.007Z</time></trkpt><trkpt lat="43.3517483" lon="11.4455717"><ele>242.66666666666666</ele><time>2026-04-05T09:24:01.007Z</time></trkpt><trkpt lat="43.3517433" lon="11.445785"><ele>241.33333333333331</ele><time>2026-04-05T09:24:02.007Z</time></trkpt><trkpt lat="43.3517467" lon="11.4460083"><ele>240.0</ele><time>2026-04-05T09:24:03.007Z</time></trkpt><trkpt lat="43.35175" lon="11.4462283"><ele>238.33333333333331</ele><time>2026-04-05T09:24:04.007Z</time></trkpt><trkpt lat="43.35175" lon="11.4464517"><ele>236.66666666666666</ele><time>2026-04-05T09:24:05.007Z</time></trkpt><trkpt lat="43.3517583" lon="11.446685"><ele>235.0</ele><time>2026-04-05T09:24:06.007Z</time></trkpt><trkpt lat="43.351765" lon="11.4469017"><ele>235.0</ele><time>2026-04-05T09:24:07.007Z</time></trkpt><trkpt lat="43.3517667" lon="11.4471133"><ele>235.0</ele><time>2026-04-05T09:24:08.007Z</time></trkpt><trkpt lat="43.3517733" lon="11.4473317"><ele>235.0</ele><time>2026-04-05T09:24:09.007Z</time></trkpt><trkpt lat="43.3517767" lon="11.4475317"><ele>234.75</ele><time>2026-04-05T09:24:10.007Z</time></trkpt><trkpt lat="43.3517767" lon="11.447735"><ele>234.5</ele><time>2026-04-05T09:24:11.007Z</time></trkpt><trkpt lat="43.3517767" lon="11.4479333"><ele>234.25</ele><time>2026-04-05T09:24:12.007Z</time></trkpt><trkpt lat="43.35179" lon="11.4481133"><ele>234.0</ele><time>2026-04-05T09:24:13.007Z</time></trkpt><trkpt lat="43.351815" lon="11.44829"><ele>234.0</ele><time>2026-04-05T09:24:14.007Z</time></trkpt><trkpt lat="43.35186" lon="11.4484517"><ele>234.0</ele><time>2026-04-05T09:24:15.007Z</time></trkpt><trkpt lat="43.35194" lon="11.4485983"><ele>234.0</ele><time>2026-04-05T09:24:16.007Z</time></trkpt><trkpt lat="43.3520617" lon="11.4487133"><ele>234.0</ele><time>2026-04-05T09:24:17.007Z</time></trkpt><trkpt lat="43.3521883" lon="11.4488083"><ele>233.5</ele><time>2026-04-05T09:24:18.007Z</time></trkpt><trkpt lat="43.3523267" lon="11.44889"><ele>233.0</ele><time>2026-04-05T09:24:19.007Z</time></trkpt><trkpt lat="43.3524483" lon="11.448985"><ele>232.5</ele><time>2026-04-05T09:24:20.007Z</time></trkpt><trkpt lat="43.35256" lon="11.4490683"><ele>232.0</ele><time>2026-04-05T09:24:21.007Z</time></trkpt><trkpt lat="43.35266" lon="11.4491817"><ele>232.0</ele><time>2026-04-05T09:24:22.007Z</time></trkpt><trkpt lat="43.3527483" lon="11.44933"><ele>232.0</ele><time>2026-04-05T09:24:23.007Z</time></trkpt><trkpt lat="43.3528117" lon="11.4495033"><ele>232.0</ele><time>2026-04-05T09:24:24.007Z</time></trkpt><trkpt lat="43.3528383" lon="11.4496883"><ele>232.0</ele><time>2026-04-05T09:24:25.007Z</time></trkpt><trkpt lat="43.35284" lon="11.4498833"><ele>230.75</ele><time>2026-04-05T09:24:26.007Z</time></trkpt><trkpt lat="43.3528183" lon="11.4500733"><ele>229.5</ele><time>2026-04-05T09:24:27.007Z</time></trkpt><trkpt lat="43.3527917" lon="11.4502667"><ele>228.25</ele><time>2026-04-05T09:24:28.007Z</time></trkpt><trkpt lat="43.3527733" lon="11.4504767"><ele>227.0</ele><time>2026-04-05T09:24:29.007Z</time></trkpt><trkpt lat="43.3527517" lon="11.4506817"><ele>227.0</ele><time>2026-04-05T09:24:30.007Z</time></trkpt><trkpt lat="43.35273" lon="11.4508817"><ele>227.0</ele><time>2026-04-05T09:24:31.007Z</time></trkpt><trkpt lat="43.35271" lon="11.4510917"><ele>227.0</ele><time>2026-04-05T09:24:32.007Z</time></trkpt><trkpt lat="43.3526883" lon="11.4513083"><ele>228.33333333333334</ele><time>2026-04-05T09:24:33.007Z</time></trkpt><trkpt lat="43.3526667" lon="11.45152"><ele>229.66666666666669</ele><time>2026-04-05T09:24:34.007Z</time></trkpt><trkpt lat="43.3526583" lon="11.451725"><ele>231.0</ele><time>2026-04-05T09:24:35.007Z</time></trkpt><trkpt lat="43.3526683" lon="11.4519317"><ele>233.33333333333331</ele><time>2026-04-05T09:24:36.007Z</time></trkpt><trkpt lat="43.3527017" lon="11.4521383"><ele>235.66666666666666</ele><time>2026-04-05T09:24:37.007Z</time></trkpt><trkpt lat="43.352765" lon="11.4523383"><ele>238.0</ele><time>2026-04-05T09:24:38.007Z</time></trkpt><trkpt lat="43.3528383" lon="11.452525"><ele>238.0</ele><time>2026-04-05T09:24:39.007Z</time></trkpt><trkpt lat="43.35293" lon="11.4527083"><ele>238.0</ele><time>2026-04-05T09:24:40.007Z</time></trkpt><trkpt lat="43.353035" lon="11.4528783"><ele>238.0</ele><time>2026-04-05T09:24:41.007Z</time></trkpt><trkpt lat="43.3531483" lon="11.4530233"><ele>242.0</ele><time>2026-04-05T09:24:42.007Z</time></trkpt><trkpt lat="43.353265" lon="11.453165"><ele>246.0</ele><time>2026-04-05T09:24:43.007Z</time></trkpt><trkpt lat="43.3533733" lon="11.4533117"><ele>250.0</ele><time>2026-04-05T09:24:44.007Z</time></trkpt><trkpt lat="43.3534767" lon="11.45348"><ele>250.0</ele><time>2026-04-05T09:24:45.007Z</time></trkpt><trkpt lat="43.35357" lon="11.4536517"><ele>250.0</ele><time>2026-04-05T09:24:46.007Z</time></trkpt><trkpt lat="43.353655" lon="11.4538283"><ele>250.0</ele><time>2026-04-05T09:24:47.007Z</time></trkpt><trkpt lat="43.3537383" lon="11.4540017"><ele>251.0</ele><time>2026-04-05T09:24:48.007Z</time></trkpt><trkpt lat="43.3538117" lon="11.4541833"><ele>252.0</ele><time>2026-04-05T09:24:49.007Z</time></trkpt><trkpt lat="43.353875" lon="11.4543767"><ele>253.0</ele><time>2026-04-05T09:24:50.007Z</time></trkpt><trkpt lat="43.353925" lon="11.4545783"><ele>255.0</ele><time>2026-04-05T09:24:51.007Z</time></trkpt><trkpt lat="43.353975" lon="11.4547767"><ele>257.0</ele><time>2026-04-05T09:24:52.007Z</time></trkpt><trkpt lat="43.3540183" lon="11.4549617"><ele>259.0</ele><time>2026-04-05T09:24:53.007Z</time></trkpt><trkpt lat="43.354065" lon="11.455115"><ele>261.0</ele><time>2026-04-05T09:24:54.007Z</time></trkpt><trkpt lat="43.3540967" lon="11.4552517"><ele>261.0</ele><time>2026-04-05T09:24:55.007Z</time></trkpt><trkpt lat="43.354095" lon="11.4553733"><ele>261.0</ele><time>2026-04-05T09:24:56.007Z</time></trkpt><trkpt lat="43.3540733" lon="11.4554717"><ele>261.0</ele><time>2026-04-05T09:24:57.007Z</time></trkpt><trkpt lat="43.353985" lon="11.45555"><ele>261.0</ele><time>2026-04-05T09:24:59.007Z</time></trkpt><trkpt lat="43.35387" lon="11.455425"><ele>261.0</ele><time>2026-04-05T09:25:01.007Z</time></trkpt><trkpt lat="43.353795" lon="11.4552817"><ele>261.0</ele><time>2026-04-05T09:25:02.007Z</time></trkpt><trkpt lat="43.35371" lon="11.4551617"><ele>261.0</ele><time>2026-04-05T09:25:03.007Z</time></trkpt><trkpt lat="43.3536217" lon="11.455075"><ele>261.0</ele><time>2026-04-05T09:25:04.007Z</time></trkpt><trkpt lat="43.3535283" lon="11.4550433"><ele>261.0</ele><time>2026-04-05T09:25:05.007Z</time></trkpt><trkpt lat="43.3534467" lon="11.455065"><ele>261.0</ele><time>2026-04-05T09:25:06.007Z</time></trkpt><trkpt lat="43.3533667" lon="11.4551267"><ele>261.0</ele><time>2026-04-05T09:25:07.007Z</time></trkpt><trkpt lat="43.3533067" lon="11.4552317"><ele>261.0</ele><time>2026-04-05T09:25:08.007Z</time></trkpt><trkpt lat="43.3532567" lon="11.45537"><ele>261.0</ele><time>2026-04-05T09:25:09.007Z</time></trkpt><trkpt lat="43.3532167" lon="11.4555167"><ele>261.0</ele><time>2026-04-05T09:25:10.007Z</time></trkpt><trkpt lat="43.3531667" lon="11.45568"><ele>262.75</ele><time>2026-04-05T09:25:11.007Z</time></trkpt><trkpt lat="43.3531167" lon="11.4558283"><ele>264.5</ele><time>2026-04-05T09:25:12.007Z</time></trkpt><trkpt lat="43.3530517" lon="11.45596"><ele>266.25</ele><time>2026-04-05T09:25:13.007Z</time></trkpt><trkpt lat="43.35296" lon="11.4560517"><ele>268.0</ele><time>2026-04-05T09:25:14.007Z</time></trkpt><trkpt lat="43.3528467" lon="11.4561033"><ele>268.0</ele><time>2026-04-05T09:25:15.007Z</time></trkpt><trkpt lat="43.3527283" lon="11.4561117"><ele>268.0</ele><time>2026-04-05T09:25:16.007Z</time></trkpt><trkpt lat="43.35261" lon="11.45609"><ele>268.0</ele><time>2026-04-05T09:25:17.006Z</time></trkpt><trkpt lat="43.3525083" lon="11.456065"><ele>268.0</ele><time>2026-04-05T09:25:18.007Z</time></trkpt><trkpt lat="43.35242" lon="11.4560783"><ele>268.0</ele><time>2026-04-05T09:25:19.007Z</time></trkpt><trkpt lat="43.3523433" lon="11.4561317"><ele>268.0</ele><time>2026-04-05T09:25:20.007Z</time></trkpt><trkpt lat="43.3522783" lon="11.4562267"><ele>268.0</ele><time>2026-04-05T09:25:21.007Z</time></trkpt><trkpt lat="43.3522333" lon="11.456345"><ele>268.0</ele><time>2026-04-05T09:25:22.007Z</time></trkpt><trkpt lat="43.3521983" lon="11.4564683"><ele>268.0</ele><time>2026-04-05T09:25:23.007Z</time></trkpt><trkpt lat="43.3521833" lon="11.4566117"><ele>268.0</ele><time>2026-04-05T09:25:24.007Z</time></trkpt><trkpt lat="43.3521933" lon="11.4567533"><ele>269.6</ele><time>2026-04-05T09:25:25.007Z</time></trkpt><trkpt lat="43.3522217" lon="11.456895"><ele>271.20000000000005</ele><time>2026-04-05T09:25:26.007Z</time></trkpt><trkpt lat="43.35226" lon="11.45704"><ele>272.8</ele><time>2026-04-05T09:25:27.007Z</time></trkpt><trkpt lat="43.3522967" lon="11.4571867"><ele>274.40000000000003</ele><time>2026-04-05T09:25:28.007Z</time></trkpt><trkpt lat="43.3523333" lon="11.457325"><ele>276.0</ele><time>2026-04-05T09:25:29.008Z</time></trkpt><trkpt lat="43.352375" lon="11.4574783"><ele>277.75</ele><time>2026-04-05T09:25:30.007Z</time></trkpt><trkpt lat="43.352425" lon="11.457635"><ele>279.5</ele><time>2026-04-05T09:25:31.007Z</time></trkpt><trkpt lat="43.352485" lon="11.4577917"><ele>281.25</ele><time>2026-04-05T09:25:32.007Z</time></trkpt><trkpt lat="43.3525533" lon="11.457955"><ele>283.0</ele><time>2026-04-05T09:25:33.007Z</time></trkpt><trkpt lat="43.35262" lon="11.458125"><ele>283.25</ele><time>2026-04-05T09:25:34.007Z</time></trkpt><trkpt lat="43.352695" lon="11.4582983"><ele>283.5</ele><time>2026-04-05T09:25:35.007Z</time></trkpt><trkpt lat="43.3527633" lon="11.4584583"><ele>283.75</ele><time>2026-04-05T09:25:36.007Z</time></trkpt><trkpt lat="43.3528283" lon="11.4586267"><ele>284.0</ele><time>2026-04-05T09:25:37.007Z</time></trkpt><trkpt lat="43.352895" lon="11.45879"><ele>283.0</ele><time>2026-04-05T09:25:38.007Z</time></trkpt><trkpt lat="43.3529633" lon="11.4589583"><ele>282.0</ele><time>2026-04-05T09:25:39.007Z</time></trkpt><trkpt lat="43.35304" lon="11.45912"><ele>281.0</ele><time>2026-04-05T09:25:40.007Z</time></trkpt><trkpt lat="43.3531333" lon="11.4592683"><ele>280.0</ele><time>2026-04-05T09:25:41.007Z</time></trkpt><trkpt lat="43.3532317" lon="11.4594133"><ele>284.75</ele><time>2026-04-05T09:25:42.007Z</time></trkpt><trkpt lat="43.353335" lon="11.4595617"><ele>289.5</ele><time>2026-04-05T09:25:43.007Z</time></trkpt><trkpt lat="43.3534367" lon="11.4597117"><ele>294.25</ele><time>2026-04-05T09:25:44.007Z</time></trkpt><trkpt lat="43.3535317" lon="11.4598483"><ele>299.0</ele><time>2026-04-05T09:25:45.007Z</time></trkpt><trkpt lat="43.353615" lon="11.4599583"><ele>299.0</ele><time>2026-04-05T09:25:46.007Z</time></trkpt><trkpt lat="43.3536883" lon="11.460065"><ele>299.0</ele><time>2026-04-05T09:25:47.007Z</time></trkpt><trkpt lat="43.3537417" lon="11.460175"><ele>299.0</ele><time>2026-04-05T09:25:48.007Z</time></trkpt><trkpt lat="43.3537583" lon="11.46029"><ele>299.0</ele><time>2026-04-05T09:25:49.007Z</time></trkpt><trkpt lat="43.3537317" lon="11.4604017"><ele>299.0</ele><time>2026-04-05T09:25:50.007Z</time></trkpt><trkpt lat="43.3536817" lon="11.4605"><ele>301.8</ele><time>2026-04-05T09:25:51.007Z</time></trkpt><trkpt lat="43.3536083" lon="11.46058"><ele>304.59999999999997</ele><time>2026-04-05T09:25:52.007Z</time></trkpt><trkpt lat="43.3535183" lon="11.4606267"><ele>307.4</ele><time>2026-04-05T09:25:53.007Z</time></trkpt><trkpt lat="43.3533983" lon="11.46063"><ele>310.2</ele><time>2026-04-05T09:25:54.007Z</time></trkpt><trkpt lat="43.3532733" lon="11.4606267"><ele>313.0</ele><time>2026-04-05T09:25:55.007Z</time></trkpt><trkpt lat="43.3531383" lon="11.4606283"><ele>310.8</ele><time>2026-04-05T09:25:56.007Z</time></trkpt><trkpt lat="43.3530267" lon="11.460665"><ele>308.6</ele><time>2026-04-05T09:25:57.007Z</time></trkpt><trkpt lat="43.3529417" lon="11.4607533"><ele>306.4</ele><time>2026-04-05T09:25:58.007Z</time></trkpt><trkpt lat="43.3528883" lon="11.46087"><ele>304.2</ele><time>2026-04-05T09:25:59.007Z</time></trkpt><trkpt lat="43.3528533" lon="11.4610083"><ele>302.0</ele><time>2026-04-05T09:26:00.007Z</time></trkpt><trkpt lat="43.35285" lon="11.4611617"><ele>305.0</ele><time>2026-04-05T09:26:01.007Z</time></trkpt><trkpt lat="43.3528317" lon="11.4612967"><ele>308.0</ele><time>2026-04-05T09:26:02.007Z</time></trkpt><trkpt lat="43.3527933" lon="11.4614167"><ele>311.0</ele><time>2026-04-05T09:26:03.007Z</time></trkpt><trkpt lat="43.3527233" lon="11.4615083"><ele>314.0</ele><time>2026-04-05T09:26:04.007Z</time></trkpt><trkpt lat="43.3526317" lon="11.4615617"><ele>317.0</ele><time>2026-04-05T09:26:05.007Z</time></trkpt><trkpt lat="43.3525183" lon="11.46158"><ele>317.0</ele><time>2026-04-05T09:26:06.007Z</time></trkpt><trkpt lat="43.3524033" lon="11.4616033"><ele>317.0</ele><time>2026-04-05T09:26:07.007Z</time></trkpt><trkpt lat="43.3522833" lon="11.46164"><ele>317.0</ele><time>2026-04-05T09:26:08.006Z</time></trkpt><trkpt lat="43.352185" lon="11.4616983"><ele>317.0</ele><time>2026-04-05T09:26:09.006Z</time></trkpt><trkpt lat="43.352085" lon="11.46177"><ele>316.0</ele><time>2026-04-05T09:26:10.006Z</time></trkpt><trkpt lat="43.3519767" lon="11.4618167"><ele>315.0</ele><time>2026-04-05T09:26:11.006Z</time></trkpt><trkpt lat="43.3518483" lon="11.46184"><ele>314.0</ele><time>2026-04-05T09:26:12.006Z</time></trkpt><trkpt lat="43.3517083" lon="11.4618133"><ele>313.0</ele><time>2026-04-05T09:26:13.006Z</time></trkpt><trkpt lat="43.3515883" lon="11.4617617"><ele>313.0</ele><time>2026-04-05T09:26:14.006Z</time></trkpt><trkpt lat="43.3514833" lon="11.46172"><ele>313.0</ele><time>2026-04-05T09:26:15.006Z</time></trkpt><trkpt lat="43.3513767" lon="11.4617217"><ele>313.0</ele><time>2026-04-05T09:26:16.006Z</time></trkpt><trkpt lat="43.3512533" lon="11.461765"><ele>313.0</ele><time>2026-04-05T09:26:17.006Z</time></trkpt><trkpt lat="43.3511417" lon="11.4618483"><ele>313.75</ele><time>2026-04-05T09:26:18.006Z</time></trkpt><trkpt lat="43.3510317" lon="11.4619383"><ele>314.5</ele><time>2026-04-05T09:26:19.006Z</time></trkpt><trkpt lat="43.3509183" lon="11.462035"><ele>315.25</ele><time>2026-04-05T09:26:20.006Z</time></trkpt><trkpt lat="43.3507983" lon="11.462125"><ele>316.0</ele><time>2026-04-05T09:26:21.006Z</time></trkpt><trkpt lat="43.3506783" lon="11.4621933"><ele>316.0</ele><time>2026-04-05T09:26:22.006Z</time></trkpt><trkpt lat="43.35055" lon="11.46225"><ele>316.0</ele><time>2026-04-05T09:26:23.006Z</time></trkpt><trkpt lat="43.350425" lon="11.4622933"><ele>316.0</ele><time>2026-04-05T09:26:24.006Z</time></trkpt><trkpt lat="43.35031" lon="11.46234"><ele>316.0</ele><time>2026-04-05T09:26:25.006Z</time></trkpt><trkpt lat="43.35021" lon="11.4623983"><ele>314.5</ele><time>2026-04-05T09:26:26.006Z</time></trkpt><trkpt lat="43.3501383" lon="11.4624783"><ele>313.0</ele><time>2026-04-05T09:26:27.006Z</time></trkpt><trkpt lat="43.35009" lon="11.4625717"><ele>311.5</ele><time>2026-04-05T09:26:28.006Z</time></trkpt><trkpt lat="43.350075" lon="11.46268"><ele>310.0</ele><time>2026-04-05T09:26:29.006Z</time></trkpt><trkpt lat="43.3500917" lon="11.4627933"><ele>308.5</ele><time>2026-04-05T09:26:30.006Z</time></trkpt><trkpt lat="43.3501483" lon="11.4629033"><ele>307.0</ele><time>2026-04-05T09:26:31.006Z</time></trkpt><trkpt lat="43.3502383" lon="11.4629983"><ele>305.0</ele><time>2026-04-05T09:26:32.006Z</time></trkpt><trkpt lat="43.350335" lon="11.463095"><ele>303.0</ele><time>2026-04-05T09:26:33.006Z</time></trkpt><trkpt lat="43.3504233" lon="11.4632033"><ele>301.0</ele><time>2026-04-05T09:26:34.006Z</time></trkpt><trkpt lat="43.3504833" lon="11.4633317"><ele>299.0</ele><time>2026-04-05T09:26:35.006Z</time></trkpt><trkpt lat="43.3505117" lon="11.4634767"><ele>299.0</ele><time>2026-04-05T09:26:36.006Z</time></trkpt><trkpt lat="43.35051" lon="11.463625"><ele>299.0</ele><time>2026-04-05T09:26:37.006Z</time></trkpt><trkpt lat="43.35047" lon="11.4637533"><ele>299.0</ele><time>2026-04-05T09:26:38.006Z</time></trkpt><trkpt lat="43.35039" lon="11.4638567"><ele>299.0</ele><time>2026-04-05T09:26:39.006Z</time></trkpt><trkpt lat="43.3502833" lon="11.4639483"><ele>299.0</ele><time>2026-04-05T09:26:40.006Z</time></trkpt><trkpt lat="43.3501883" lon="11.4640483"><ele>299.59999999999997</ele><time>2026-04-05T09:26:41.006Z</time></trkpt><trkpt lat="43.3501133" lon="11.46417"><ele>300.2</ele><time>2026-04-05T09:26:42.006Z</time></trkpt><trkpt lat="43.3500633" lon="11.4643183"><ele>300.79999999999995</ele><time>2026-04-05T09:26:43.006Z</time></trkpt><trkpt lat="43.3500417" lon="11.4644617"><ele>301.4</ele><time>2026-04-05T09:26:44.006Z</time></trkpt><trkpt lat="43.3500183" lon="11.4646067"><ele>302.0</ele><time>2026-04-05T09:26:45.006Z</time></trkpt><trkpt lat="43.34998" lon="11.464745"><ele>302.4</ele><time>2026-04-05T09:26:46.006Z</time></trkpt><trkpt lat="43.349905" lon="11.46486"><ele>302.79999999999995</ele><time>2026-04-05T09:26:47.006Z</time></trkpt><trkpt lat="43.3498183" lon="11.4649517"><ele>303.2</ele><time>2026-04-05T09:26:48.006Z</time></trkpt><trkpt lat="43.34972" lon="11.4650083"><ele>303.59999999999997</ele><time>2026-04-05T09:26:49.006Z</time></trkpt><trkpt lat="43.3496117" lon="11.4650233"><ele>304.0</ele><time>2026-04-05T09:26:50.006Z</time></trkpt><trkpt lat="43.3495083" lon="11.4650033"><ele>304.0</ele><time>2026-04-05T09:26:51.006Z</time></trkpt><trkpt lat="43.3493967" lon="11.4649367"><ele>304.0</ele><time>2026-04-05T09:26:52.006Z</time></trkpt><trkpt lat="43.3492917" lon="11.464835"><ele>304.0</ele><time>2026-04-05T09:26:53.006Z</time></trkpt><trkpt lat="43.3491767" lon="11.4647133"><ele>304.0</ele><time>2026-04-05T09:26:54.006Z</time></trkpt><trkpt lat="43.3490733" lon="11.464615"><ele>301.0</ele><time>2026-04-05T09:26:55.006Z</time></trkpt><trkpt lat="43.3489533" lon="11.4645317"><ele>298.0</ele><time>2026-04-05T09:26:56.006Z</time></trkpt><trkpt lat="43.3488233" lon="11.4644783"><ele>295.0</ele><time>2026-04-05T09:26:57.006Z</time></trkpt><trkpt lat="43.348685" lon="11.4644533"><ele>292.0</ele><time>2026-04-05T09:26:58.006Z</time></trkpt><trkpt lat="43.3485417" lon="11.4644467"><ele>290.5</ele><time>2026-04-05T09:26:59.006Z</time></trkpt><trkpt lat="43.3483967" lon="11.4644567"><ele>289.0</ele><time>2026-04-05T09:27:00.006Z</time></trkpt><trkpt lat="43.3482633" lon="11.464465"><ele>287.5</ele><time>2026-04-05T09:27:01.006Z</time></trkpt><trkpt lat="43.3481267" lon="11.464465"><ele>286.0</ele><time>2026-04-05T09:27:02.006Z</time></trkpt><trkpt lat="43.3479867" lon="11.4644733"><ele>286.25</ele><time>2026-04-05T09:27:03.006Z</time></trkpt><trkpt lat="43.3478583" lon="11.4645017"><ele>286.5</ele><time>2026-04-05T09:27:04.006Z</time></trkpt><trkpt lat="43.3477383" lon="11.4645667"><ele>286.75</ele><time>2026-04-05T09:27:05.006Z</time></trkpt><trkpt lat="43.3476133" lon="11.464655"><ele>287.0</ele><time>2026-04-05T09:27:06.006Z</time></trkpt><trkpt lat="43.34751" lon="11.4647767"><ele>287.0</ele><time>2026-04-05T09:27:07.006Z</time></trkpt><trkpt lat="43.347415" lon="11.464915"><ele>287.0</ele><time>2026-04-05T09:27:08.006Z</time></trkpt><trkpt lat="43.34732" lon="11.4650617"><ele>287.0</ele><time>2026-04-05T09:27:09.006Z</time></trkpt><trkpt lat="43.3472217" lon="11.4652067"><ele>287.0</ele><time>2026-04-05T09:27:10.006Z</time></trkpt><trkpt lat="43.347125" lon="11.465345"><ele>284.25</ele><time>2026-04-05T09:27:11.006Z</time></trkpt><trkpt lat="43.3470267" lon="11.46548"><ele>281.5</ele><time>2026-04-05T09:27:12.006Z</time></trkpt><trkpt lat="43.3469317" lon="11.4656033"><ele>278.75</ele><time>2026-04-05T09:27:13.006Z</time></trkpt><trkpt lat="43.3468383" lon="11.4657117"><ele>276.0</ele><time>2026-04-05T09:27:14.006Z</time></trkpt><trkpt lat="43.3467433" lon="11.46579"><ele>276.0</ele><time>2026-04-05T09:27:15.006Z</time></trkpt><trkpt lat="43.3466433" lon="11.46584"><ele>276.0</ele><time>2026-04-05T09:27:16.006Z</time></trkpt><trkpt lat="43.3465433" lon="11.465865"><ele>276.0</ele><time>2026-04-05T09:27:17.006Z</time></trkpt><trkpt lat="43.34645" lon="11.465875"><ele>276.0</ele><time>2026-04-05T09:27:18.006Z</time></trkpt><trkpt lat="43.3463467" lon="11.4658767"><ele>276.0</ele><time>2026-04-05T09:27:19.006Z</time></trkpt><trkpt lat="43.346255" lon="11.46587"><ele>276.1666666666667</ele><time>2026-04-05T09:27:20.006Z</time></trkpt><trkpt lat="43.34617" lon="11.4658633"><ele>276.3333333333333</ele><time>2026-04-05T09:27:21.006Z</time></trkpt><trkpt lat="43.3461" lon="11.46585"><ele>276.5</ele><time>2026-04-05T09:27:22.006Z</time></trkpt><trkpt lat="43.345985" lon="11.465835"><ele>276.66666666666663</ele><time>2026-04-05T09:27:24.006Z</time></trkpt><trkpt lat="43.3459117" lon="11.465845"><ele>276.8333333333333</ele><time>2026-04-05T09:27:26.006Z</time></trkpt><trkpt lat="43.3458417" lon="11.465875"><ele>277.0</ele><time>2026-04-05T09:32:17.006Z</time></trkpt><trkpt lat="43.3457267" lon="11.4659417"><ele>277.0</ele><time>2026-04-05T09:32:19.006Z</time></trkpt><trkpt lat="43.3456517" lon="11.46597"><ele>277.0</ele><time>2026-04-05T09:32:20.006Z</time></trkpt><trkpt lat="43.3455717" lon="11.465985"><ele>277.0</ele><time>2026-04-05T09:32:21.006Z</time></trkpt><trkpt lat="43.3454867" lon="11.46598"><ele>277.0</ele><time>2026-04-05T09:32:22.006Z</time></trkpt><trkpt lat="43.3454" lon="11.4659467"><ele>277.0</ele><time>2026-04-05T09:32:23.006Z</time></trkpt><trkpt lat="43.3452983" lon="11.4658783"><ele>277.0</ele><time>2026-04-05T09:32:24.006Z</time></trkpt><trkpt lat="43.345185" lon="11.4658083"><ele>275.75</ele><time>2026-04-05T09:32:25.006Z</time></trkpt><trkpt lat="43.34506" lon="11.4657367"><ele>274.5</ele><time>2026-04-05T09:32:26.006Z</time></trkpt><trkpt lat="43.3449217" lon="11.4656717"><ele>273.25</ele><time>2026-04-05T09:32:27.006Z</time></trkpt><trkpt lat="43.3447833" lon="11.4656233"><ele>272.0</ele><time>2026-04-05T09:32:28.006Z</time></trkpt><trkpt lat="43.3446383" lon="11.4655817"><ele>269.33333333333337</ele><time>2026-04-05T09:32:29.006Z</time></trkpt><trkpt lat="43.3444883" lon="11.465545"><ele>266.6666666666667</ele><time>2026-04-05T09:32:30.006Z</time></trkpt><trkpt lat="43.34433" lon="11.4655067"><ele>264.0</ele><time>2026-04-05T09:32:31.006Z</time></trkpt><trkpt lat="43.3441767" lon="11.4654733"><ele>264.3333333333333</ele><time>2026-04-05T09:32:32.006Z</time></trkpt><trkpt lat="43.3440233" lon="11.4654367"><ele>264.66666666666663</ele><time>2026-04-05T09:32:33.006Z</time></trkpt><trkpt lat="43.3438767" lon="11.4654"><ele>265.0</ele><time>2026-04-05T09:32:34.006Z</time></trkpt><trkpt lat="43.3437333" lon="11.4653667"><ele>265.0</ele><time>2026-04-05T09:32:35.006Z</time></trkpt><trkpt lat="43.3435883" lon="11.4653483"><ele>265.0</ele><time>2026-04-05T09:32:36.006Z</time></trkpt><trkpt lat="43.3434517" lon="11.4653383"><ele>265.0</ele><time>2026-04-05T09:32:37.006Z</time></trkpt><trkpt lat="43.3433117" lon="11.4653683"><ele>265.0</ele><time>2026-04-05T09:32:38.006Z</time></trkpt><trkpt lat="43.3431833" lon="11.4654317"><ele>264.25</ele><time>2026-04-05T09:32:39.006Z</time></trkpt><trkpt lat="43.3430533" lon="11.465515"><ele>263.5</ele><time>2026-04-05T09:32:40.006Z</time></trkpt><trkpt lat="43.3429267" lon="11.4655833"><ele>262.75</ele><time>2026-04-05T09:32:41.006Z</time></trkpt><trkpt lat="43.3427983" lon="11.4656233"><ele>262.0</ele><time>2026-04-05T09:32:42.006Z</time></trkpt><trkpt lat="43.34267" lon="11.46561"><ele>262.25</ele><time>2026-04-05T09:32:43.006Z</time></trkpt><trkpt lat="43.3425417" lon="11.4655483"><ele>262.5</ele><time>2026-04-05T09:32:44.006Z</time></trkpt><trkpt lat="43.3424167" lon="11.465445"><ele>262.75</ele><time>2026-04-05T09:32:45.006Z</time></trkpt><trkpt lat="43.342305" lon="11.4653133"><ele>263.0</ele><time>2026-04-05T09:32:46.006Z</time></trkpt><trkpt lat="43.3421883" lon="11.4651783"><ele>261.5</ele><time>2026-04-05T09:32:47.006Z</time></trkpt><trkpt lat="43.34208" lon="11.465045"><ele>260.0</ele><time>2026-04-05T09:32:48.006Z</time></trkpt><trkpt lat="43.3419817" lon="11.4649583"><ele>258.5</ele><time>2026-04-05T09:32:49.006Z</time></trkpt><trkpt lat="43.3418683" lon="11.4649067"><ele>257.0</ele><time>2026-04-05T09:32:50.006Z</time></trkpt><trkpt lat="43.3417533" lon="11.4648933"><ele>257.0</ele><time>2026-04-05T09:32:51.006Z</time></trkpt><trkpt lat="43.3416433" lon="11.4649317"><ele>257.0</ele><time>2026-04-05T09:32:52.006Z</time></trkpt><trkpt lat="43.3415467" lon="11.4650233"><ele>257.0</ele><time>2026-04-05T09:32:53.006Z</time></trkpt><trkpt lat="43.3414717" lon="11.465145"><ele>257.0</ele><time>2026-04-05T09:32:54.006Z</time></trkpt><trkpt lat="43.3414233" lon="11.46529"><ele>257.0</ele><time>2026-04-05T09:32:55.006Z</time></trkpt><trkpt lat="43.341415" lon="11.4654433"><ele>257.0</ele><time>2026-04-05T09:32:56.006Z</time></trkpt><trkpt lat="43.3414433" lon="11.4656033"><ele>257.0</ele><time>2026-04-05T09:32:57.006Z</time></trkpt><trkpt lat="43.3415017" lon="11.4657683"><ele>257.0</ele><time>2026-04-05T09:32:58.006Z</time></trkpt><trkpt lat="43.341575" lon="11.4659367"><ele>256.33333333333337</ele><time>2026-04-05T09:32:59.006Z</time></trkpt><trkpt lat="43.34165" lon="11.4661267"><ele>255.66666666666669</ele><time>2026-04-05T09:33:00.006Z</time></trkpt><trkpt lat="43.3417117" lon="11.466325"><ele>255.0</ele><time>2026-04-05T09:33:01.006Z</time></trkpt><trkpt lat="43.3417583" lon="11.4665333"><ele>254.33333333333331</ele><time>2026-04-05T09:33:02.006Z</time></trkpt><trkpt lat="43.3417817" lon="11.4667583"><ele>253.66666666666666</ele><time>2026-04-05T09:33:03.006Z</time></trkpt><trkpt lat="43.34179" lon="11.4669933"><ele>253.0</ele><time>2026-04-05T09:33:04.006Z</time></trkpt><trkpt lat="43.3417983" lon="11.467235"><ele>251.0</ele><time>2026-04-05T09:33:05.006Z</time></trkpt><trkpt lat="43.341805" lon="11.4674683"><ele>249.0</ele><time>2026-04-05T09:33:06.006Z</time></trkpt><trkpt lat="43.3418167" lon="11.467705"><ele>247.0</ele><time>2026-04-05T09:33:07.006Z</time></trkpt><trkpt lat="43.3418267" lon="11.4679367"><ele>245.0</ele><time>2026-04-05T09:33:08.006Z</time></trkpt><trkpt lat="43.3418317" lon="11.4681617"><ele>243.0</ele><time>2026-04-05T09:33:09.006Z</time></trkpt><trkpt lat="43.3418433" lon="11.4683783"><ele>241.0</ele><time>2026-04-05T09:33:10.006Z</time></trkpt><trkpt lat="43.34184" lon="11.4685867"><ele>241.0</ele><time>2026-04-05T09:33:11.006Z</time></trkpt><trkpt lat="43.3418183" lon="11.46877"><ele>241.0</ele><time>2026-04-05T09:33:12.006Z</time></trkpt><trkpt lat="43.3417733" lon="11.46894"><ele>241.0</ele><time>2026-04-05T09:33:13.006Z</time></trkpt><trkpt lat="43.3416983" lon="11.46909"><ele>241.0</ele><time>2026-04-05T09:33:14.006Z</time></trkpt><trkpt lat="43.3415967" lon="11.46921"><ele>241.25</ele><time>2026-04-05T09:33:15.006Z</time></trkpt><trkpt lat="43.34147" lon="11.4692883"><ele>241.5</ele><time>2026-04-05T09:33:16.006Z</time></trkpt><trkpt lat="43.3413267" lon="11.4693367"><ele>241.75</ele><time>2026-04-05T09:33:17.006Z</time></trkpt><trkpt lat="43.3411717" lon="11.46936"><ele>242.0</ele><time>2026-04-05T09:33:18.006Z</time></trkpt><trkpt lat="43.3410217" lon="11.4693417"><ele>241.0</ele><time>2026-04-05T09:33:19.006Z</time></trkpt><trkpt lat="43.340875" lon="11.469285"><ele>240.0</ele><time>2026-04-05T09:33:20.006Z</time></trkpt><trkpt lat="43.3407383" lon="11.4692133"><ele>239.0</ele><time>2026-04-05T09:33:21.006Z</time></trkpt><trkpt lat="43.34061" lon="11.4691667"><ele>238.0</ele><time>2026-04-05T09:33:22.006Z</time></trkpt><trkpt lat="43.34048" lon="11.4691533"><ele>236.5</ele><time>2026-04-05T09:33:23.006Z</time></trkpt><trkpt lat="43.3403483" lon="11.4691867"><ele>235.0</ele><time>2026-04-05T09:33:24.006Z</time></trkpt><trkpt lat="43.3402217" lon="11.4692683"><ele>233.5</ele><time>2026-04-05T09:33:25.006Z</time></trkpt><trkpt lat="43.3401133" lon="11.4693817"><ele>232.0</ele><time>2026-04-05T09:33:26.006Z</time></trkpt><trkpt lat="43.3400217" lon="11.4695233"><ele>232.75</ele><time>2026-04-05T09:33:27.006Z</time></trkpt><trkpt lat="43.3399417" lon="11.4696933"><ele>233.5</ele><time>2026-04-05T09:33:28.006Z</time></trkpt><trkpt lat="43.33987" lon="11.46987"><ele>234.25</ele><time>2026-04-05T09:33:29.006Z</time></trkpt><trkpt lat="43.3398267" lon="11.470055"><ele>235.0</ele><time>2026-04-05T09:33:30.006Z</time></trkpt><trkpt lat="43.3398117" lon="11.4702433"><ele>234.5</ele><time>2026-04-05T09:33:31.006Z</time></trkpt><trkpt lat="43.3398117" lon="11.4704433"><ele>234.0</ele><time>2026-04-05T09:33:32.006Z</time></trkpt><trkpt lat="43.3398433" lon="11.470635"><ele>233.5</ele><time>2026-04-05T09:33:33.006Z</time></trkpt><trkpt lat="43.3398917" lon="11.4708267"><ele>233.0</ele><time>2026-04-05T09:33:34.006Z</time></trkpt><trkpt lat="43.3399633" lon="11.4710017"><ele>233.0</ele><time>2026-04-05T09:33:35.006Z</time></trkpt><trkpt lat="43.34002" lon="11.4711817"><ele>233.0</ele><time>2026-04-05T09:33:36.006Z</time></trkpt><trkpt lat="43.340065" lon="11.4713517"><ele>233.0</ele><time>2026-04-05T09:33:37.006Z</time></trkpt><trkpt lat="43.3400817" lon="11.4715133"><ele>233.0</ele><time>2026-04-05T09:33:38.006Z</time></trkpt><trkpt lat="43.3400717" lon="11.4716883"><ele>232.25</ele><time>2026-04-05T09:33:39.006Z</time></trkpt><trkpt lat="43.34004" lon="11.4718717"><ele>231.5</ele><time>2026-04-05T09:33:40.006Z</time></trkpt><trkpt lat="43.3399767" lon="11.4720583"><ele>230.75</ele><time>2026-04-05T09:33:41.006Z</time></trkpt><trkpt lat="43.339895" lon="11.4722433"><ele>230.0</ele><time>2026-04-05T09:33:42.006Z</time></trkpt><trkpt lat="43.3397967" lon="11.4724217"><ele>229.33333333333334</ele><time>2026-04-05T09:33:43.006Z</time></trkpt><trkpt lat="43.3397" lon="11.472605"><ele>228.66666666666669</ele><time>2026-04-05T09:33:44.006Z</time></trkpt><trkpt lat="43.3396033" lon="11.4727917"><ele>228.0</ele><time>2026-04-05T09:33:45.006Z</time></trkpt><trkpt lat="43.339505" lon="11.472975"><ele>231.0</ele><time>2026-04-05T09:33:46.006Z</time></trkpt><trkpt lat="43.3394067" lon="11.4731617"><ele>234.0</ele><time>2026-04-05T09:33:47.006Z</time></trkpt><trkpt lat="43.3393033" lon="11.4733483"><ele>237.0</ele><time>2026-04-05T09:33:48.006Z</time></trkpt><trkpt lat="43.3392083" lon="11.4735233"><ele>237.0</ele><time>2026-04-05T09:33:49.006Z</time></trkpt><trkpt lat="43.3390967" lon="11.47367"><ele>237.0</ele><time>2026-04-05T09:33:50.006Z</time></trkpt><trkpt lat="43.33897" lon="11.4737783"><ele>237.0</ele><time>2026-04-05T09:33:51.006Z</time></trkpt><trkpt lat="43.3388267" lon="11.4738433"><ele>240.25</ele><time>2026-04-05T09:33:52.006Z</time></trkpt><trkpt lat="43.3386867" lon="11.4738817"><ele>243.5</ele><time>2026-04-05T09:33:53.006Z</time></trkpt><trkpt lat="43.3385483" lon="11.47387"><ele>246.75</ele><time>2026-04-05T09:33:54.006Z</time></trkpt><trkpt lat="43.3384083" lon="11.4738917"><ele>250.0</ele><time>2026-04-05T09:33:55.006Z</time></trkpt><trkpt lat="43.3382683" lon="11.473945"><ele>250.0</ele><time>2026-04-05T09:33:56.006Z</time></trkpt><trkpt lat="43.338135" lon="11.474035"><ele>250.0</ele><time>2026-04-05T09:33:57.006Z</time></trkpt><trkpt lat="43.33802" lon="11.4741467"><ele>250.0</ele><time>2026-04-05T09:33:58.006Z</time></trkpt><trkpt lat="43.3379333" lon="11.47428"><ele>250.0</ele><time>2026-04-05T09:33:59.006Z</time></trkpt><trkpt lat="43.337865" lon="11.474445"><ele>250.75</ele><time>2026-04-05T09:34:00.006Z</time></trkpt><trkpt lat="43.3378183" lon="11.4746417"><ele>251.5</ele><time>2026-04-05T09:34:01.006Z</time></trkpt><trkpt lat="43.337785" lon="11.4748317"><ele>252.25</ele><time>2026-04-05T09:34:02.006Z</time></trkpt><trkpt lat="43.3377533" lon="11.4750283"><ele>253.0</ele><time>2026-04-05T09:34:03.006Z</time></trkpt><trkpt lat="43.3377317" lon="11.4752233"><ele>253.0</ele><time>2026-04-05T09:34:04.006Z</time></trkpt><trkpt lat="43.3377133" lon="11.475425"><ele>253.0</ele><time>2026-04-05T09:34:05.006Z</time></trkpt><trkpt lat="43.3376883" lon="11.4756283"><ele>253.0</ele><time>2026-04-05T09:34:06.006Z</time></trkpt><trkpt lat="43.3376617" lon="11.4758183"><ele>253.0</ele><time>2026-04-05T09:34:07.006Z</time></trkpt><trkpt lat="43.3376183" lon="11.4760033"><ele>255.0</ele><time>2026-04-05T09:34:08.006Z</time></trkpt><trkpt lat="43.33756" lon="11.476185"><ele>257.0</ele><time>2026-04-05T09:34:09.006Z</time></trkpt><trkpt lat="43.3375233" lon="11.47637"><ele>259.0</ele><time>2026-04-05T09:34:10.006Z</time></trkpt><trkpt lat="43.337505" lon="11.4765633"><ele>261.0</ele><time>2026-04-05T09:34:11.006Z</time></trkpt><trkpt lat="43.3375133" lon="11.4767617"><ele>261.6666666666667</ele><time>2026-04-05T09:34:12.006Z</time></trkpt><trkpt lat="43.337545" lon="11.4769667"><ele>262.33333333333337</ele><time>2026-04-05T09:34:13.006Z</time></trkpt><trkpt lat="43.33759" lon="11.4771633"><ele>263.0</ele><time>2026-04-05T09:34:14.006Z</time></trkpt><trkpt lat="43.3376333" lon="11.47736"><ele>264.0</ele><time>2026-04-05T09:34:15.006Z</time></trkpt><trkpt lat="43.3376683" lon="11.47757"><ele>265.0</ele><time>2026-04-05T09:34:16.006Z</time></trkpt><trkpt lat="43.3377033" lon="11.4777767"><ele>266.0</ele><time>2026-04-05T09:34:17.006Z</time></trkpt><trkpt lat="43.3377417" lon="11.4779783"><ele>267.25</ele><time>2026-04-05T09:34:18.006Z</time></trkpt><trkpt lat="43.33778" lon="11.4781733"><ele>268.5</ele><time>2026-04-05T09:34:19.006Z</time></trkpt><trkpt lat="43.3378217" lon="11.4783733"><ele>269.75</ele><time>2026-04-05T09:34:20.006Z</time></trkpt><trkpt lat="43.3378617" lon="11.4785467"><ele>271.0</ele><time>2026-04-05T09:34:21.006Z</time></trkpt><trkpt lat="43.3378917" lon="11.4787117"><ele>271.6</ele><time>2026-04-05T09:34:22.006Z</time></trkpt><trkpt lat="43.3378983" lon="11.4788617"><ele>272.20000000000005</ele><time>2026-04-05T09:34:23.006Z</time></trkpt><trkpt lat="43.3378667" lon="11.4789967"><ele>272.79999999999995</ele><time>2026-04-05T09:34:24.006Z</time></trkpt><trkpt lat="43.3378033" lon="11.4791"><ele>273.4</ele><time>2026-04-05T09:34:25.006Z</time></trkpt><trkpt lat="43.3377117" lon="11.4791717"><ele>274.0</ele><time>2026-04-05T09:34:26.006Z</time></trkpt><trkpt lat="43.3376017" lon="11.479215"><ele>274.0</ele><time>2026-04-05T09:34:27.006Z</time></trkpt><trkpt lat="43.3374833" lon="11.47923"><ele>274.0</ele><time>2026-04-05T09:34:28.006Z</time></trkpt><trkpt lat="43.3373617" lon="11.4792483"><ele>274.0</ele><time>2026-04-05T09:34:29.006Z</time></trkpt><trkpt lat="43.3372267" lon="11.4792567"><ele>274.0</ele><time>2026-04-05T09:34:30.006Z</time></trkpt><trkpt lat="43.3370967" lon="11.47926"><ele>274.5</ele><time>2026-04-05T09:34:31.006Z</time></trkpt><trkpt lat="43.3369567" lon="11.4792717"><ele>275.0</ele><time>2026-04-05T09:34:32.006Z</time></trkpt><trkpt lat="43.336825" lon="11.4793133"><ele>275.5</ele><time>2026-04-05T09:34:33.006Z</time></trkpt><trkpt lat="43.33669" lon="11.4793817"><ele>276.0</ele><time>2026-04-05T09:34:34.006Z</time></trkpt><trkpt lat="43.33656" lon="11.4794667"><ele>276.0</ele><time>2026-04-05T09:34:35.006Z</time></trkpt><trkpt lat="43.33644" lon="11.47957"><ele>276.0</ele><time>2026-04-05T09:34:36.006Z</time></trkpt><trkpt lat="43.33632" lon="11.4796783"><ele>276.0</ele><time>2026-04-05T09:34:37.006Z</time></trkpt><trkpt lat="43.3362" lon="11.47978"><ele>276.0</ele><time>2026-04-05T09:34:38.006Z</time></trkpt><trkpt lat="43.3360883" lon="11.4798917"><ele>277.0</ele><time>2026-04-05T09:34:39.006Z</time></trkpt><trkpt lat="43.33597" lon="11.479995"><ele>278.0</ele><time>2026-04-05T09:34:40.006Z</time></trkpt><trkpt lat="43.3358567" lon="11.4800917"><ele>279.0</ele><time>2026-04-05T09:34:41.006Z</time></trkpt><trkpt lat="43.3357433" lon="11.4801933"><ele>280.0</ele><time>2026-04-05T09:34:42.006Z</time></trkpt><trkpt lat="43.3356283" lon="11.4803067"><ele>280.25</ele><time>2026-04-05T09:34:43.006Z</time></trkpt><trkpt lat="43.3355133" lon="11.480415"><ele>280.5</ele><time>2026-04-05T09:34:44.006Z</time></trkpt><trkpt lat="43.3354117" lon="11.4805267"><ele>280.75</ele><time>2026-04-05T09:34:45.006Z</time></trkpt><trkpt lat="43.335315" lon="11.480665"><ele>281.0</ele><time>2026-04-05T09:34:46.006Z</time></trkpt><trkpt lat="43.3352267" lon="11.48081"><ele>280.33333333333337</ele><time>2026-04-05T09:34:47.006Z</time></trkpt><trkpt lat="43.3351267" lon="11.4809717"><ele>279.6666666666667</ele><time>2026-04-05T09:34:48.006Z</time></trkpt><trkpt lat="43.3350317" lon="11.4811233"><ele>279.0</ele><time>2026-04-05T09:34:49.006Z</time></trkpt><trkpt lat="43.334935" lon="11.4812883"><ele>277.75</ele><time>2026-04-05T09:34:50.006Z</time></trkpt><trkpt lat="43.3348483" lon="11.4814383"><ele>276.5</ele><time>2026-04-05T09:34:51.006Z</time></trkpt><trkpt lat="43.3347667" lon="11.4815783"><ele>275.25</ele><time>2026-04-05T09:34:52.006Z</time></trkpt><trkpt lat="43.33469" lon="11.4817217"><ele>274.0</ele><time>2026-04-05T09:34:53.006Z</time></trkpt><trkpt lat="43.3346183" lon="11.4818667"><ele>274.0</ele><time>2026-04-05T09:34:54.006Z</time></trkpt><trkpt lat="43.334575" lon="11.48202"><ele>274.0</ele><time>2026-04-05T09:34:55.006Z</time></trkpt><trkpt lat="43.3345517" lon="11.4821883"><ele>274.0</ele><time>2026-04-05T09:34:56.006Z</time></trkpt><trkpt lat="43.3345617" lon="11.4823767"><ele>274.0</ele><time>2026-04-05T09:34:57.006Z</time></trkpt><trkpt lat="43.3345833" lon="11.4825667"><ele>275.75</ele><time>2026-04-05T09:34:58.006Z</time></trkpt><trkpt lat="43.334615" lon="11.4827633"><ele>277.5</ele><time>2026-04-05T09:34:59.006Z</time></trkpt><trkpt lat="43.334645" lon="11.4829567"><ele>279.25</ele><time>2026-04-05T09:35:00.006Z</time></trkpt><trkpt lat="43.3346633" lon="11.4831667"><ele>281.0</ele><time>2026-04-05T09:35:01.006Z</time></trkpt><trkpt lat="43.3346733" lon="11.4833767"><ele>282.0</ele><time>2026-04-05T09:35:02.004Z</time></trkpt><trkpt lat="43.3346883" lon="11.48358"><ele>283.0</ele><time>2026-04-05T09:35:03.006Z</time></trkpt><trkpt lat="43.3347067" lon="11.4837783"><ele>284.0</ele><time>2026-04-05T09:35:04.006Z</time></trkpt><trkpt lat="43.3347267" lon="11.483995"><ele>282.33333333333337</ele><time>2026-04-05T09:35:05.006Z</time></trkpt><trkpt lat="43.3347617" lon="11.484215"><ele>280.6666666666667</ele><time>2026-04-05T09:35:06.006Z</time></trkpt><trkpt lat="43.334795" lon="11.4844633"><ele>279.0</ele><time>2026-04-05T09:35:07.006Z</time></trkpt><trkpt lat="43.334825" lon="11.4847133"><ele>279.0</ele><time>2026-04-05T09:35:08.006Z</time></trkpt><trkpt lat="43.3348517" lon="11.484965"><ele>279.0</ele><time>2026-04-05T09:35:09.006Z</time></trkpt><trkpt lat="43.33488" lon="11.4852117"><ele>279.0</ele><time>2026-04-05T09:35:10.006Z</time></trkpt><trkpt lat="43.33491" lon="11.4854433"><ele>281.0</ele><time>2026-04-05T09:35:11.006Z</time></trkpt><trkpt lat="43.3349483" lon="11.4856717"><ele>283.0</ele><time>2026-04-05T09:35:12.006Z</time></trkpt><trkpt lat="43.334995" lon="11.48589"><ele>285.0</ele><time>2026-04-05T09:35:13.006Z</time></trkpt><trkpt lat="43.3350567" lon="11.48609"><ele>288.0</ele><time>2026-04-05T09:35:14.006Z</time></trkpt><trkpt lat="43.3351317" lon="11.4862883"><ele>291.0</ele><time>2026-04-05T09:35:15.006Z</time></trkpt><trkpt lat="43.33521" lon="11.4864817"><ele>294.0</ele><time>2026-04-05T09:35:16.006Z</time></trkpt><trkpt lat="43.3352933" lon="11.4866683"><ele>294.0</ele><time>2026-04-05T09:35:17.006Z</time></trkpt><trkpt lat="43.3353733" lon="11.4868583"><ele>294.0</ele><time>2026-04-05T09:35:18.006Z</time></trkpt><trkpt lat="43.335455" lon="11.4870467"><ele>294.0</ele><time>2026-04-05T09:35:19.006Z</time></trkpt><trkpt lat="43.33554" lon="11.4872383"><ele>293.0</ele><time>2026-04-05T09:35:20.006Z</time></trkpt><trkpt lat="43.335635" lon="11.4874067"><ele>292.0</ele><time>2026-04-05T09:35:21.006Z</time></trkpt><trkpt lat="43.3357467" lon="11.4875633"><ele>291.0</ele><time>2026-04-05T09:35:22.006Z</time></trkpt><trkpt lat="43.3358733" lon="11.48771"><ele>291.0</ele><time>2026-04-05T09:35:23.006Z</time></trkpt><trkpt lat="43.3359967" lon="11.487855"><ele>291.0</ele><time>2026-04-05T09:35:24.006Z</time></trkpt><trkpt lat="43.3361067" lon="11.4879983"><ele>291.0</ele><time>2026-04-05T09:35:25.006Z</time></trkpt><trkpt lat="43.33621" lon="11.4881583"><ele>291.6666666666667</ele><time>2026-04-05T09:35:26.006Z</time></trkpt><trkpt lat="43.3363033" lon="11.4883283"><ele>292.33333333333337</ele><time>2026-04-05T09:35:27.006Z</time></trkpt><trkpt lat="43.3364083" lon="11.4884867"><ele>293.0</ele><time>2026-04-05T09:35:28.006Z</time></trkpt><trkpt lat="43.33653" lon="11.4886333"><ele>293.0</ele><time>2026-04-05T09:35:29.006Z</time></trkpt><trkpt lat="43.3366717" lon="11.48875"><ele>293.0</ele><time>2026-04-05T09:35:30.006Z</time></trkpt><trkpt lat="43.336825" lon="11.48884"><ele>293.0</ele><time>2026-04-05T09:35:31.006Z</time></trkpt><trkpt lat="43.336985" lon="11.4889267"><ele>294.33333333333337</ele><time>2026-04-05T09:35:32.006Z</time></trkpt><trkpt lat="43.3371417" lon="11.48903"><ele>295.6666666666667</ele><time>2026-04-05T09:35:33.006Z</time></trkpt><trkpt lat="43.33728" lon="11.4891583"><ele>297.0</ele><time>2026-04-05T09:35:34.006Z</time></trkpt><trkpt lat="43.33742" lon="11.4893117"><ele>297.0</ele><time>2026-04-05T09:35:35.006Z</time></trkpt><trkpt lat="43.3375583" lon="11.489465"><ele>297.0</ele><time>2026-04-05T09:35:36.006Z</time></trkpt><trkpt lat="43.3377033" lon="11.4896133"><ele>297.0</ele><time>2026-04-05T09:35:37.006Z</time></trkpt><trkpt lat="43.337855" lon="11.4897667"><ele>297.3333333333333</ele><time>2026-04-05T09:35:38.006Z</time></trkpt><trkpt lat="43.3380067" lon="11.48992"><ele>297.66666666666663</ele><time>2026-04-05T09:35:39.006Z</time></trkpt><trkpt lat="43.3381533" lon="11.4900767"><ele>298.0</ele><time>2026-04-05T09:35:40.006Z</time></trkpt><trkpt lat="43.3382983" lon="11.4902317"><ele>299.0</ele><time>2026-04-05T09:35:41.006Z</time></trkpt><trkpt lat="43.3384417" lon="11.4903867"><ele>300.0</ele><time>2026-04-05T09:35:42.006Z</time></trkpt><trkpt lat="43.3385817" lon="11.490535"><ele>301.0</ele><time>2026-04-05T09:35:43.006Z</time></trkpt><trkpt lat="43.338725" lon="11.49068"><ele>301.0</ele><time>2026-04-05T09:35:44.006Z</time></trkpt><trkpt lat="43.33887" lon="11.4908283"><ele>301.0</ele><time>2026-04-05T09:35:45.006Z</time></trkpt><trkpt lat="43.339015" lon="11.490985"><ele>301.0</ele><time>2026-04-05T09:35:46.006Z</time></trkpt><trkpt lat="43.33915" lon="11.4911583"><ele>303.0</ele><time>2026-04-05T09:35:47.006Z</time></trkpt><trkpt lat="43.3392683" lon="11.4913267"><ele>305.0</ele><time>2026-04-05T09:35:48.006Z</time></trkpt><trkpt lat="43.3393833" lon="11.4915067"><ele>307.0</ele><time>2026-04-05T09:35:49.006Z</time></trkpt><trkpt lat="43.3394967" lon="11.49169"><ele>307.0</ele><time>2026-04-05T09:35:50.006Z</time></trkpt><trkpt lat="43.3396133" lon="11.4918633"><ele>307.0</ele><time>2026-04-05T09:35:51.006Z</time></trkpt><trkpt lat="43.3397317" lon="11.4920317"><ele>307.0</ele><time>2026-04-05T09:35:52.006Z</time></trkpt><trkpt lat="43.339845" lon="11.4922083"><ele>308.3333333333333</ele><time>2026-04-05T09:35:53.006Z</time></trkpt><trkpt lat="43.339955" lon="11.4923783"><ele>309.6666666666667</ele><time>2026-04-05T09:35:54.006Z</time></trkpt><trkpt lat="43.3400683" lon="11.4925417"><ele>311.0</ele><time>2026-04-05T09:35:55.006Z</time></trkpt><trkpt lat="43.3401783" lon="11.492705"><ele>311.0</ele><time>2026-04-05T09:35:56.006Z</time></trkpt><trkpt lat="43.340295" lon="11.49287"><ele>311.0</ele><time>2026-04-05T09:35:57.006Z</time></trkpt><trkpt lat="43.3404133" lon="11.4930217"><ele>311.0</ele><time>2026-04-05T09:35:58.006Z</time></trkpt><trkpt lat="43.3405417" lon="11.4931667"><ele>310.6666666666667</ele><time>2026-04-05T09:35:59.006Z</time></trkpt><trkpt lat="43.3406633" lon="11.49331"><ele>310.3333333333333</ele><time>2026-04-05T09:36:00.006Z</time></trkpt><trkpt lat="43.340785" lon="11.4934533"><ele>310.0</ele><time>2026-04-05T09:36:01.006Z</time></trkpt><trkpt lat="43.3409083" lon="11.4936"><ele>310.0</ele><time>2026-04-05T09:36:02.006Z</time></trkpt><trkpt lat="43.341025" lon="11.49374"><ele>310.0</ele><time>2026-04-05T09:36:03.006Z</time></trkpt><trkpt lat="43.34114" lon="11.4938733"><ele>310.0</ele><time>2026-04-05T09:36:04.006Z</time></trkpt><trkpt lat="43.3412483" lon="11.494"><ele>310.0</ele><time>2026-04-05T09:36:05.006Z</time></trkpt><trkpt lat="43.3413633" lon="11.494135"><ele>310.75</ele><time>2026-04-05T09:36:06.006Z</time></trkpt><trkpt lat="43.3414683" lon="11.4942633"><ele>311.5</ele><time>2026-04-05T09:36:07.006Z</time></trkpt><trkpt lat="43.3415733" lon="11.4943883"><ele>312.25</ele><time>2026-04-05T09:36:08.006Z</time></trkpt><trkpt lat="43.3416783" lon="11.4945083"><ele>313.0</ele><time>2026-04-05T09:36:09.006Z</time></trkpt><trkpt lat="43.341785" lon="11.4946317"><ele>313.75</ele><time>2026-04-05T09:36:10.006Z</time></trkpt><trkpt lat="43.3418817" lon="11.4947483"><ele>314.5</ele><time>2026-04-05T09:36:11.006Z</time></trkpt><trkpt lat="43.3419767" lon="11.4948667"><ele>315.25</ele><time>2026-04-05T09:36:12.006Z</time></trkpt><trkpt lat="43.3420783" lon="11.494985"><ele>316.0</ele><time>2026-04-05T09:36:13.006Z</time></trkpt><trkpt lat="43.3421817" lon="11.4951033"><ele>317.75</ele><time>2026-04-05T09:36:14.005Z</time></trkpt><trkpt lat="43.342285" lon="11.4952283"><ele>319.5</ele><time>2026-04-05T09:36:15.005Z</time></trkpt><trkpt lat="43.342385" lon="11.4953433"><ele>321.25</ele><time>2026-04-05T09:36:16.005Z</time></trkpt><trkpt lat="43.342485" lon="11.495455"><ele>323.0</ele><time>2026-04-05T09:36:17.005Z</time></trkpt><trkpt lat="43.3425867" lon="11.4955733"><ele>325.0</ele><time>2026-04-05T09:36:18.005Z</time></trkpt><trkpt lat="43.3426883" lon="11.4956833"><ele>327.0</ele><time>2026-04-05T09:36:19.005Z</time></trkpt><trkpt lat="43.3427867" lon="11.4958017"><ele>329.0</ele><time>2026-04-05T09:36:20.005Z</time></trkpt><trkpt lat="43.3428867" lon="11.49593"><ele>331.0</ele><time>2026-04-05T09:36:21.005Z</time></trkpt><trkpt lat="43.3429833" lon="11.49606"><ele>331.0</ele><time>2026-04-05T09:36:22.005Z</time></trkpt><trkpt lat="43.34308" lon="11.4961817"><ele>331.0</ele><time>2026-04-05T09:36:23.005Z</time></trkpt><trkpt lat="43.34317" lon="11.4963"><ele>331.0</ele><time>2026-04-05T09:36:24.005Z</time></trkpt><trkpt lat="43.3432467" lon="11.49639"><ele>331.0</ele><time>2026-04-05T09:36:25.005Z</time></trkpt><trkpt lat="43.3433083" lon="11.4964617"><ele>331.0</ele><time>2026-04-05T09:36:26.005Z</time></trkpt><trkpt lat="43.3433633" lon="11.4965217"><ele>331.5</ele><time>2026-04-05T09:36:27.005Z</time></trkpt><trkpt lat="43.343415" lon="11.49658"><ele>332.0</ele><time>2026-04-05T09:36:28.005Z</time></trkpt><trkpt lat="43.3434733" lon="11.4966517"><ele>332.5</ele><time>2026-04-05T09:36:29.005Z</time></trkpt><trkpt lat="43.3435333" lon="11.4967267"><ele>333.0</ele><time>2026-04-05T09:36:30.005Z</time></trkpt><trkpt lat="43.3435983" lon="11.496815"><ele>333.5</ele><time>2026-04-05T09:36:31.005Z</time></trkpt><trkpt lat="43.3436617" lon="11.4968983"><ele>334.0</ele><time>2026-04-05T09:36:32.005Z</time></trkpt><trkpt lat="43.3437317" lon="11.4969833"><ele>334.0</ele><time>2026-04-05T09:36:33.005Z</time></trkpt><trkpt lat="43.3437933" lon="11.4970817"><ele>334.0</ele><time>2026-04-05T09:36:34.005Z</time></trkpt><trkpt lat="43.343835" lon="11.4971833"><ele>334.0</ele><time>2026-04-05T09:36:35.005Z</time></trkpt><trkpt lat="43.3438717" lon="11.4972817"><ele>334.0</ele><time>2026-04-05T09:36:36.005Z</time></trkpt><trkpt lat="43.34391" lon="11.49739"><ele>334.0</ele><time>2026-04-05T09:36:37.005Z</time></trkpt><trkpt lat="43.3439517" lon="11.4974967"><ele>334.0</ele><time>2026-04-05T09:36:38.005Z</time></trkpt><trkpt lat="43.3439967" lon="11.4976083"><ele>334.0</ele><time>2026-04-05T09:36:39.005Z</time></trkpt><trkpt lat="43.3440433" lon="11.4977267"><ele>334.0</ele><time>2026-04-05T09:36:40.005Z</time></trkpt><trkpt lat="43.3440883" lon="11.4978467"><ele>334.0</ele><time>2026-04-05T09:36:41.005Z</time></trkpt><trkpt lat="43.3441333" lon="11.4979683"><ele>334.0</ele><time>2026-04-05T09:36:42.005Z</time></trkpt><trkpt lat="43.344175" lon="11.498085"><ele>334.0</ele><time>2026-04-05T09:36:43.005Z</time></trkpt><trkpt lat="43.3442167" lon="11.4982017"><ele>334.0</ele><time>2026-04-05T09:36:44.005Z</time></trkpt><trkpt lat="43.3442583" lon="11.4983217"><ele>334.0</ele><time>2026-04-05T09:36:45.005Z</time></trkpt><trkpt lat="43.34429" lon="11.4984383"><ele>334.0</ele><time>2026-04-05T09:36:46.005Z</time></trkpt><trkpt lat="43.3443267" lon="11.4985467"><ele>334.0</ele><time>2026-04-05T09:36:47.005Z</time></trkpt><trkpt lat="43.3443633" lon="11.498665"><ele>334.0</ele><time>2026-04-05T09:36:48.005Z</time></trkpt><trkpt lat="43.3444083" lon="11.4987883"><ele>334.4</ele><time>2026-04-05T09:36:49.005Z</time></trkpt><trkpt lat="43.3444483" lon="11.4989133"><ele>334.79999999999995</ele><time>2026-04-05T09:36:50.005Z</time></trkpt><trkpt lat="43.344485" lon="11.4990333"><ele>335.20000000000005</ele><time>2026-04-05T09:36:51.005Z</time></trkpt><trkpt lat="43.3445233" lon="11.4991483"><ele>335.6</ele><time>2026-04-05T09:36:52.005Z</time></trkpt><trkpt lat="43.3445667" lon="11.4992633"><ele>336.0</ele><time>2026-04-05T09:36:53.005Z</time></trkpt><trkpt lat="43.34461" lon="11.49938"><ele>336.0</ele><time>2026-04-05T09:36:54.005Z</time></trkpt><trkpt lat="43.3446483" lon="11.4994917"><ele>336.0</ele><time>2026-04-05T09:36:55.005Z</time></trkpt><trkpt lat="43.344685" lon="11.4995933"><ele>336.0</ele><time>2026-04-05T09:36:56.005Z</time></trkpt><trkpt lat="43.344725" lon="11.4996767"><ele>336.0</ele><time>2026-04-05T09:36:57.005Z</time></trkpt><trkpt lat="43.344755" lon="11.499765"><ele>336.0</ele><time>2026-04-05T09:36:58.005Z</time></trkpt><trkpt lat="43.3447833" lon="11.499855"><ele>336.0</ele><time>2026-04-05T09:36:59.005Z</time></trkpt><trkpt lat="43.3448083" lon="11.4999433"><ele>335.85714285714283</ele><time>2026-04-05T09:37:00.005Z</time></trkpt><trkpt lat="43.3448433" lon="11.5000183"><ele>335.7142857142857</ele><time>2026-04-05T09:37:01.005Z</time></trkpt><trkpt lat="43.344875" lon="11.500095"><ele>335.57142857142856</ele><time>2026-04-05T09:37:02.005Z</time></trkpt><trkpt lat="43.3449117" lon="11.5001767"><ele>335.42857142857144</ele><time>2026-04-05T09:37:03.005Z</time></trkpt><trkpt lat="43.3449483" lon="11.5002567"><ele>335.2857142857143</ele><time>2026-04-05T09:37:04.005Z</time></trkpt><trkpt lat="43.34498" lon="11.500335"><ele>335.1428571428571</ele><time>2026-04-05T09:37:05.005Z</time></trkpt><trkpt lat="43.345015" lon="11.5004633"><ele>335.0</ele><time>2026-04-05T09:37:07.005Z</time></trkpt><trkpt lat="43.344985" lon="11.5005717"><ele>335.0</ele><time>2026-04-05T09:37:09.005Z</time></trkpt><trkpt lat="43.3449317" lon="11.5007183"><ele>335.0</ele><time>2026-04-05T09:37:11.005Z</time></trkpt><trkpt lat="43.3449433" lon="11.5008983"><ele>335.0</ele><time>2026-04-05T09:37:13.005Z</time></trkpt><trkpt lat="43.34499" lon="11.5009967"><ele>335.0</ele><time>2026-04-05T09:37:14.005Z</time></trkpt><trkpt lat="43.3450433" lon="11.5011033"><ele>335.0</ele><time>2026-04-05T09:37:15.005Z</time></trkpt><trkpt lat="43.3450967" lon="11.501205"><ele>335.1666666666667</ele><time>2026-04-05T09:37:16.005Z</time></trkpt><trkpt lat="43.345135" lon="11.5013033"><ele>335.33333333333337</ele><time>2026-04-05T09:37:17.005Z</time></trkpt><trkpt lat="43.34517" lon="11.50141"><ele>335.5</ele><time>2026-04-05T09:37:18.005Z</time></trkpt><trkpt lat="43.3451983" lon="11.50152"><ele>335.6666666666667</ele><time>2026-04-05T09:37:19.005Z</time></trkpt><trkpt lat="43.3452067" lon="11.5016367"><ele>335.8333333333333</ele><time>2026-04-05T09:37:20.005Z</time></trkpt><trkpt lat="43.3451983" lon="11.5017583"><ele>336.0</ele><time>2026-04-05T09:37:21.005Z</time></trkpt><trkpt lat="43.3451783" lon="11.5018833"><ele>336.0</ele><time>2026-04-05T09:37:22.005Z</time></trkpt><trkpt lat="43.3451383" lon="11.5020033"><ele>336.0</ele><time>2026-04-05T09:37:23.005Z</time></trkpt><trkpt lat="43.3450967" lon="11.5021267"><ele>336.0</ele><time>2026-04-05T09:37:24.005Z</time></trkpt><trkpt lat="43.3450517" lon="11.50226"><ele>336.0</ele><time>2026-04-05T09:37:25.005Z</time></trkpt><trkpt lat="43.3450067" lon="11.5023933"><ele>336.0</ele><time>2026-04-05T09:37:26.005Z</time></trkpt><trkpt lat="43.344965" lon="11.502525"><ele>337.4</ele><time>2026-04-05T09:37:27.005Z</time></trkpt><trkpt lat="43.3449233" lon="11.502645"><ele>338.8</ele><time>2026-04-05T09:37:28.005Z</time></trkpt><trkpt lat="43.3448933" lon="11.50277"><ele>340.2</ele><time>2026-04-05T09:37:29.005Z</time></trkpt><trkpt lat="43.34488" lon="11.5028917"><ele>341.59999999999997</ele><time>2026-04-05T09:37:30.005Z</time></trkpt><trkpt lat="43.3448667" lon="11.5030167"><ele>343.0</ele><time>2026-04-05T09:37:31.005Z</time></trkpt><trkpt lat="43.3448733" lon="11.503135"><ele>343.0</ele><time>2026-04-05T09:37:32.005Z</time></trkpt><trkpt lat="43.3448917" lon="11.5032567"><ele>343.0</ele><time>2026-04-05T09:37:33.005Z</time></trkpt><trkpt lat="43.3449283" lon="11.50336"><ele>343.0</ele><time>2026-04-05T09:37:34.005Z</time></trkpt><trkpt lat="43.34496" lon="11.5034617"><ele>343.0</ele><time>2026-04-05T09:37:35.005Z</time></trkpt><trkpt lat="43.3449767" lon="11.503585"><ele>343.0</ele><time>2026-04-05T09:37:36.005Z</time></trkpt><trkpt lat="43.34498" lon="11.5037267"><ele>343.0</ele><time>2026-04-05T09:37:37.005Z</time></trkpt><trkpt lat="43.3449467" lon="11.503855"><ele>343.0</ele><time>2026-04-05T09:37:38.005Z</time></trkpt><trkpt lat="43.3448967" lon="11.50397"><ele>343.0</ele><time>2026-04-05T09:37:39.005Z</time></trkpt><trkpt lat="43.3448417" lon="11.5040883"><ele>343.0</ele><time>2026-04-05T09:37:40.005Z</time></trkpt><trkpt lat="43.3447867" lon="11.50419"><ele>343.0</ele><time>2026-04-05T09:37:41.005Z</time></trkpt><trkpt lat="43.3447317" lon="11.50427"><ele>343.0</ele><time>2026-04-05T09:37:42.005Z</time></trkpt><trkpt lat="43.344635" lon="11.5043483"><ele>341.8333333333333</ele><time>2026-04-05T09:37:44.005Z</time></trkpt><trkpt lat="43.3445717" lon="11.5043683"><ele>340.66666666666663</ele><time>2026-04-05T09:37:45.005Z</time></trkpt><trkpt lat="43.3444967" lon="11.5043917"><ele>339.5</ele><time>2026-04-05T09:37:46.005Z</time></trkpt><trkpt lat="43.344405" lon="11.5044217"><ele>338.3333333333333</ele><time>2026-04-05T09:37:47.005Z</time></trkpt><trkpt lat="43.3443033" lon="11.5044483"><ele>337.1666666666667</ele><time>2026-04-05T09:37:48.005Z</time></trkpt><trkpt lat="43.3442017" lon="11.5044667"><ele>336.0</ele><time>2026-04-05T09:37:49.005Z</time></trkpt><trkpt lat="43.3441" lon="11.5044833"><ele>336.0</ele><time>2026-04-05T09:37:50.005Z</time></trkpt><trkpt lat="43.3439883" lon="11.5045033"><ele>336.0</ele><time>2026-04-05T09:37:51.005Z</time></trkpt><trkpt lat="43.3438817" lon="11.50452"><ele>336.0</ele><time>2026-04-05T09:37:52.005Z</time></trkpt><trkpt lat="43.3437767" lon="11.504545"><ele>336.0</ele><time>2026-04-05T09:37:53.005Z</time></trkpt><trkpt lat="43.3436683" lon="11.50456"><ele>336.0</ele><time>2026-04-05T09:37:54.005Z</time></trkpt><trkpt lat="43.34356" lon="11.5045833"><ele>336.5</ele><time>2026-04-05T09:37:55.005Z</time></trkpt><trkpt lat="43.343445" lon="11.5046033"><ele>337.0</ele><time>2026-04-05T09:37:56.005Z</time></trkpt><trkpt lat="43.3433233" lon="11.5046233"><ele>337.5</ele><time>2026-04-05T09:37:57.005Z</time></trkpt><trkpt lat="43.3432017" lon="11.504645"><ele>338.0</ele><time>2026-04-05T09:37:58.005Z</time></trkpt><trkpt lat="43.3430783" lon="11.5046717"><ele>338.0</ele><time>2026-04-05T09:37:59.005Z</time></trkpt><trkpt lat="43.342945" lon="11.5047017"><ele>338.0</ele><time>2026-04-05T09:38:00.005Z</time></trkpt><trkpt lat="43.3428133" lon="11.5047267"><ele>338.0</ele><time>2026-04-05T09:38:01.005Z</time></trkpt><trkpt lat="43.3426833" lon="11.5047467"><ele>338.0</ele><time>2026-04-05T09:38:02.005Z</time></trkpt><trkpt lat="43.342545" lon="11.5047733"><ele>338.0</ele><time>2026-04-05T09:38:03.005Z</time></trkpt><trkpt lat="43.342415" lon="11.5047933"><ele>338.0</ele><time>2026-04-05T09:38:04.005Z</time></trkpt><trkpt lat="43.3422867" lon="11.50482"><ele>338.0</ele><time>2026-04-05T09:38:05.005Z</time></trkpt><trkpt lat="43.34216" lon="11.5048417"><ele>338.0</ele><time>2026-04-05T09:38:06.005Z</time></trkpt><trkpt lat="43.3420333" lon="11.5048633"><ele>337.4</ele><time>2026-04-05T09:38:07.005Z</time></trkpt><trkpt lat="43.341915" lon="11.5048883"><ele>336.79999999999995</ele><time>2026-04-05T09:38:08.005Z</time></trkpt><trkpt lat="43.3418083" lon="11.504915"><ele>336.2</ele><time>2026-04-05T09:38:09.005Z</time></trkpt><trkpt lat="43.3417117" lon="11.50494"><ele>335.6</ele><time>2026-04-05T09:38:10.005Z</time></trkpt><trkpt lat="43.3416217" lon="11.5049583"><ele>335.0</ele><time>2026-04-05T09:38:11.005Z</time></trkpt><trkpt lat="43.341535" lon="11.5049733"><ele>335.0</ele><time>2026-04-05T09:38:12.005Z</time></trkpt><trkpt lat="43.3414467" lon="11.50499"><ele>335.0</ele><time>2026-04-05T09:38:13.005Z</time></trkpt><trkpt lat="43.341355" lon="11.5050117"><ele>335.0</ele><time>2026-04-05T09:38:14.005Z</time></trkpt><trkpt lat="43.3412567" lon="11.5050433"><ele>335.0</ele><time>2026-04-05T09:38:15.005Z</time></trkpt><trkpt lat="43.341165" lon="11.505075"><ele>335.0</ele><time>2026-04-05T09:38:16.005Z</time></trkpt><trkpt lat="43.3410767" lon="11.5051117"><ele>334.99999999999994</ele><time>2026-04-05T09:38:17.005Z</time></trkpt><trkpt lat="43.3409933" lon="11.50514"><ele>335.0</ele><time>2026-04-05T09:38:18.005Z</time></trkpt><trkpt lat="43.3409083" lon="11.5051583"><ele>335.0</ele><time>2026-04-05T09:38:19.005Z</time></trkpt><trkpt lat="43.34083" lon="11.5051667"><ele>335.0</ele><time>2026-04-05T09:38:20.005Z</time></trkpt><trkpt lat="43.3407617" lon="11.505165"><ele>335.0</ele><time>2026-04-05T09:38:21.005Z</time></trkpt><trkpt lat="43.3407" lon="11.50519"><ele>334.99999999999994</ele><time>2026-04-05T09:38:22.005Z</time></trkpt><trkpt lat="43.3406533" lon="11.5052517"><ele>335.0</ele><time>2026-04-05T09:38:23.005Z</time></trkpt><trkpt lat="43.34064" lon="11.5054283"><ele>335.2</ele><time>2026-04-05T09:38:25.005Z</time></trkpt><trkpt lat="43.3406367" lon="11.5055333"><ele>335.4</ele><time>2026-04-05T09:38:26.005Z</time></trkpt><trkpt lat="43.34062" lon="11.5056533"><ele>335.6</ele><time>2026-04-05T09:38:27.005Z</time></trkpt><trkpt lat="43.3405867" lon="11.5057767"><ele>335.8</ele><time>2026-04-05T09:38:28.005Z</time></trkpt><trkpt lat="43.3405567" lon="11.505915"><ele>336.0</ele><time>2026-04-05T09:38:29.005Z</time></trkpt><trkpt lat="43.3405283" lon="11.5060733"><ele>336.0</ele><time>2026-04-05T09:38:30.005Z</time></trkpt><trkpt lat="43.3405167" lon="11.5062383"><ele>336.0</ele><time>2026-04-05T09:38:31.005Z</time></trkpt><trkpt lat="43.340515" lon="11.5064183"><ele>336.0</ele><time>2026-04-05T09:38:32.005Z</time></trkpt><trkpt lat="43.340515" lon="11.5066083"><ele>336.0</ele><time>2026-04-05T09:38:33.005Z</time></trkpt><trkpt lat="43.340515" lon="11.5068017"><ele>337.0</ele><time>2026-04-05T09:38:34.005Z</time></trkpt><trkpt lat="43.3405067" lon="11.5069983"><ele>338.0</ele><time>2026-04-05T09:38:35.005Z</time></trkpt><trkpt lat="43.340485" lon="11.5071933"><ele>339.0</ele><time>2026-04-05T09:38:36.005Z</time></trkpt><trkpt lat="43.3404417" lon="11.507395"><ele>340.0</ele><time>2026-04-05T09:38:37.005Z</time></trkpt><trkpt lat="43.340395" lon="11.50758"><ele>341.25</ele><time>2026-04-05T09:38:38.005Z</time></trkpt><trkpt lat="43.340345" lon="11.5077533"><ele>342.5</ele><time>2026-04-05T09:38:39.005Z</time></trkpt><trkpt lat="43.3403217" lon="11.5079283"><ele>343.75</ele><time>2026-04-05T09:38:40.005Z</time></trkpt><trkpt lat="43.340335" lon="11.5081017"><ele>345.0</ele><time>2026-04-05T09:38:41.005Z</time></trkpt><trkpt lat="43.3403767" lon="11.508285"><ele>345.75</ele><time>2026-04-05T09:38:42.005Z</time></trkpt><trkpt lat="43.3404333" lon="11.508455"><ele>346.5</ele><time>2026-04-05T09:38:43.005Z</time></trkpt><trkpt lat="43.34049" lon="11.5086117"><ele>347.25</ele><time>2026-04-05T09:38:44.005Z</time></trkpt><trkpt lat="43.34053" lon="11.5087633"><ele>348.0</ele><time>2026-04-05T09:38:45.005Z</time></trkpt><trkpt lat="43.3405467" lon="11.50893"><ele>347.75</ele><time>2026-04-05T09:38:46.005Z</time></trkpt><trkpt lat="43.3405333" lon="11.50911"><ele>347.5</ele><time>2026-04-05T09:38:47.005Z</time></trkpt><trkpt lat="43.3405083" lon="11.5092967"><ele>347.25</ele><time>2026-04-05T09:38:48.005Z</time></trkpt><trkpt lat="43.3404867" lon="11.5094883"><ele>347.0</ele><time>2026-04-05T09:38:49.005Z</time></trkpt><trkpt lat="43.3404767" lon="11.50969"><ele>347.0</ele><time>2026-04-05T09:38:50.005Z</time></trkpt><trkpt lat="43.3404933" lon="11.5099017"><ele>347.0</ele><time>2026-04-05T09:38:51.005Z</time></trkpt><trkpt lat="43.3405217" lon="11.510125"><ele>347.0</ele><time>2026-04-05T09:38:52.005Z</time></trkpt><trkpt lat="43.3405633" lon="11.51034"><ele>346.0</ele><time>2026-04-05T09:38:53.005Z</time></trkpt><trkpt lat="43.3406117" lon="11.5105567"><ele>345.0</ele><time>2026-04-05T09:38:54.005Z</time></trkpt><trkpt lat="43.34066" lon="11.5107733"><ele>344.0</ele><time>2026-04-05T09:38:55.005Z</time></trkpt><trkpt lat="43.34071" lon="11.5109967"><ele>344.0</ele><time>2026-04-05T09:38:56.005Z</time></trkpt><trkpt lat="43.340755" lon="11.5112317"><ele>344.0</ele><time>2026-04-05T09:38:57.005Z</time></trkpt><trkpt lat="43.3408033" lon="11.5114633"><ele>344.0</ele><time>2026-04-05T09:38:58.005Z</time></trkpt><trkpt lat="43.3408517" lon="11.5116867"><ele>343.6666666666667</ele><time>2026-04-05T09:38:59.005Z</time></trkpt><trkpt lat="43.3409033" lon="11.51192"><ele>343.3333333333333</ele><time>2026-04-05T09:39:00.005Z</time></trkpt><trkpt lat="43.340955" lon="11.5121483"><ele>343.0</ele><time>2026-04-05T09:39:01.005Z</time></trkpt><trkpt lat="43.341005" lon="11.5123817"><ele>341.66666666666663</ele><time>2026-04-05T09:39:02.005Z</time></trkpt><trkpt lat="43.341055" lon="11.51261"><ele>340.3333333333333</ele><time>2026-04-05T09:39:03.005Z</time></trkpt><trkpt lat="43.341105" lon="11.512835"><ele>339.0</ele><time>2026-04-05T09:39:04.005Z</time></trkpt><trkpt lat="43.3411533" lon="11.513045"><ele>337.6666666666667</ele><time>2026-04-05T09:39:05.005Z</time></trkpt><trkpt lat="43.3412017" lon="11.5132683"><ele>336.33333333333337</ele><time>2026-04-05T09:39:06.005Z</time></trkpt><trkpt lat="43.3412483" lon="11.51349"><ele>335.0</ele><time>2026-04-05T09:39:07.005Z</time></trkpt><trkpt lat="43.3412917" lon="11.5137033"><ele>332.33333333333337</ele><time>2026-04-05T09:39:08.005Z</time></trkpt><trkpt lat="43.34133" lon="11.5139133"><ele>329.6666666666667</ele><time>2026-04-05T09:39:09.005Z</time></trkpt><trkpt lat="43.34136" lon="11.5141367"><ele>327.0</ele><time>2026-04-05T09:39:10.005Z</time></trkpt><trkpt lat="43.3413683" lon="11.5143517"><ele>327.0</ele><time>2026-04-05T09:39:11.005Z</time></trkpt><trkpt lat="43.3413667" lon="11.5145667"><ele>327.0</ele><time>2026-04-05T09:39:12.005Z</time></trkpt><trkpt lat="43.341355" lon="11.5147667"><ele>327.0</ele><time>2026-04-05T09:39:13.005Z</time></trkpt><trkpt lat="43.3413217" lon="11.51496"><ele>327.0</ele><time>2026-04-05T09:39:14.005Z</time></trkpt><trkpt lat="43.3412617" lon="11.5151417"><ele>327.0</ele><time>2026-04-05T09:39:15.005Z</time></trkpt><trkpt lat="43.3411783" lon="11.5153117"><ele>327.0</ele><time>2026-04-05T09:39:16.005Z</time></trkpt><trkpt lat="43.3410933" lon="11.5154833"><ele>327.0</ele><time>2026-04-05T09:39:17.005Z</time></trkpt><trkpt lat="43.3410217" lon="11.515665"><ele>327.75</ele><time>2026-04-05T09:39:18.005Z</time></trkpt><trkpt lat="43.3409867" lon="11.51585"><ele>328.5</ele><time>2026-04-05T09:39:19.005Z</time></trkpt><trkpt lat="43.3409683" lon="11.51604"><ele>329.25</ele><time>2026-04-05T09:39:20.005Z</time></trkpt><trkpt lat="43.3409517" lon="11.516225"><ele>330.0</ele><time>2026-04-05T09:39:21.005Z</time></trkpt><trkpt lat="43.340925" lon="11.5163817"><ele>331.0</ele><time>2026-04-05T09:39:22.005Z</time></trkpt><trkpt lat="43.3408883" lon="11.5165217"><ele>332.0</ele><time>2026-04-05T09:39:23.005Z</time></trkpt><trkpt lat="43.34081" lon="11.5166567"><ele>333.0</ele><time>2026-04-05T09:39:24.005Z</time></trkpt><trkpt lat="43.3407033" lon="11.5167517"><ele>334.0</ele><time>2026-04-05T09:39:25.005Z</time></trkpt><trkpt lat="43.3405817" lon="11.51682"><ele>333.0</ele><time>2026-04-05T09:39:26.005Z</time></trkpt><trkpt lat="43.3404517" lon="11.5168617"><ele>332.0</ele><time>2026-04-05T09:39:27.005Z</time></trkpt><trkpt lat="43.34033" lon="11.5169017"><ele>331.0</ele><time>2026-04-05T09:39:28.005Z</time></trkpt><trkpt lat="43.3402167" lon="11.5169633"><ele>330.0</ele><time>2026-04-05T09:39:29.005Z</time></trkpt><trkpt lat="43.3401083" lon="11.517055"><ele>331.75</ele><time>2026-04-05T09:39:30.005Z</time></trkpt><trkpt lat="43.340005" lon="11.517165"><ele>333.5</ele><time>2026-04-05T09:39:31.005Z</time></trkpt><trkpt lat="43.3399167" lon="11.5173083"><ele>335.25</ele><time>2026-04-05T09:39:32.005Z</time></trkpt><trkpt lat="43.33984" lon="11.5174667"><ele>337.0</ele><time>2026-04-05T09:39:33.005Z</time></trkpt><trkpt lat="43.3397633" lon="11.5176283"><ele>335.25</ele><time>2026-04-05T09:39:34.005Z</time></trkpt><trkpt lat="43.3396883" lon="11.5177867"><ele>333.5</ele><time>2026-04-05T09:39:35.005Z</time></trkpt><trkpt lat="43.3396133" lon="11.5179533"><ele>331.75</ele><time>2026-04-05T09:39:36.005Z</time></trkpt><trkpt lat="43.33953" lon="11.5181233"><ele>330.0</ele><time>2026-04-05T09:39:37.005Z</time></trkpt><trkpt lat="43.3394567" lon="11.5182867"><ele>330.0</ele><time>2026-04-05T09:39:38.005Z</time></trkpt><trkpt lat="43.3393833" lon="11.51846"><ele>330.0</ele><time>2026-04-05T09:39:39.005Z</time></trkpt><trkpt lat="43.3393183" lon="11.5186467"><ele>330.0</ele><time>2026-04-05T09:39:40.005Z</time></trkpt><trkpt lat="43.3392617" lon="11.5188333"><ele>330.0</ele><time>2026-04-05T09:39:41.005Z</time></trkpt><trkpt lat="43.339235" lon="11.5190183"><ele>330.0</ele><time>2026-04-05T09:39:42.005Z</time></trkpt><trkpt lat="43.339215" lon="11.5192033"><ele>330.0</ele><time>2026-04-05T09:39:43.005Z</time></trkpt><trkpt lat="43.33921" lon="11.51939"><ele>330.0</ele><time>2026-04-05T09:39:44.005Z</time></trkpt><trkpt lat="43.3392167" lon="11.5195717"><ele>330.0</ele><time>2026-04-05T09:39:45.005Z</time></trkpt><trkpt lat="43.3392283" lon="11.5197467"><ele>330.25</ele><time>2026-04-05T09:39:46.005Z</time></trkpt><trkpt lat="43.33924" lon="11.5199267"><ele>330.5</ele><time>2026-04-05T09:39:47.005Z</time></trkpt><trkpt lat="43.33924" lon="11.5200983"><ele>330.75</ele><time>2026-04-05T09:39:48.005Z</time></trkpt><trkpt lat="43.33922" lon="11.5202767"><ele>331.0</ele><time>2026-04-05T09:39:49.005Z</time></trkpt><trkpt lat="43.3391883" lon="11.5204583"><ele>330.0</ele><time>2026-04-05T09:39:50.005Z</time></trkpt><trkpt lat="43.33914" lon="11.5206383"><ele>329.0</ele><time>2026-04-05T09:39:51.005Z</time></trkpt><trkpt lat="43.3390883" lon="11.52082"><ele>328.0</ele><time>2026-04-05T09:39:52.005Z</time></trkpt><trkpt lat="43.3390383" lon="11.521005"><ele>327.0</ele><time>2026-04-05T09:39:53.005Z</time></trkpt><trkpt lat="43.338985" lon="11.521185"><ele>326.0</ele><time>2026-04-05T09:39:54.005Z</time></trkpt><trkpt lat="43.33893" lon="11.5213733"><ele>325.0</ele><time>2026-04-05T09:39:55.005Z</time></trkpt><trkpt lat="43.3388733" lon="11.5215517"><ele>324.0</ele><time>2026-04-05T09:39:56.005Z</time></trkpt><trkpt lat="43.33882" lon="11.5217283"><ele>323.0</ele><time>2026-04-05T09:39:57.005Z</time></trkpt><trkpt lat="43.3387683" lon="11.5219"><ele>323.25</ele><time>2026-04-05T09:39:58.005Z</time></trkpt><trkpt lat="43.3387233" lon="11.5220717"><ele>323.5</ele><time>2026-04-05T09:39:59.005Z</time></trkpt><trkpt lat="43.3386667" lon="11.522225"><ele>323.75</ele><time>2026-04-05T09:40:00.005Z</time></trkpt><trkpt lat="43.3386017" lon="11.5223783"><ele>324.0</ele><time>2026-04-05T09:40:01.005Z</time></trkpt><trkpt lat="43.3385267" lon="11.5225267"><ele>324.0</ele><time>2026-04-05T09:40:02.005Z</time></trkpt><trkpt lat="43.3384333" lon="11.5226683"><ele>324.0</ele><time>2026-04-05T09:40:03.005Z</time></trkpt><trkpt lat="43.338335" lon="11.5228133"><ele>324.0</ele><time>2026-04-05T09:40:04.005Z</time></trkpt><trkpt lat="43.3382267" lon="11.522965"><ele>324.0</ele><time>2026-04-05T09:40:05.005Z</time></trkpt><trkpt lat="43.338115" lon="11.5231167"><ele>325.75</ele><time>2026-04-05T09:40:06.005Z</time></trkpt><trkpt lat="43.338015" lon="11.5232683"><ele>327.5</ele><time>2026-04-05T09:40:07.005Z</time></trkpt><trkpt lat="43.3379133" lon="11.5234233"><ele>329.25</ele><time>2026-04-05T09:40:08.005Z</time></trkpt><trkpt lat="43.3378267" lon="11.523575"><ele>331.0</ele><time>2026-04-05T09:40:09.005Z</time></trkpt><trkpt lat="43.3377433" lon="11.5237367"><ele>331.25</ele><time>2026-04-05T09:40:10.005Z</time></trkpt><trkpt lat="43.337665" lon="11.523905"><ele>331.5</ele><time>2026-04-05T09:40:11.005Z</time></trkpt><trkpt lat="43.3375983" lon="11.5240717"><ele>331.75</ele><time>2026-04-05T09:40:12.005Z</time></trkpt><trkpt lat="43.3375333" lon="11.5242483"><ele>332.0</ele><time>2026-04-05T09:40:13.005Z</time></trkpt><trkpt lat="43.3374933" lon="11.524435"><ele>332.0</ele><time>2026-04-05T09:40:14.005Z</time></trkpt><trkpt lat="43.33746" lon="11.5246217"><ele>332.0</ele><time>2026-04-05T09:40:15.005Z</time></trkpt><trkpt lat="43.3374325" lon="11.5248126"><ele>332.0</ele><time>2026-04-05T09:40:16.005Z</time></trkpt><trkpt lat="43.3374122" lon="11.5250094"><ele>332.0</ele><time>2026-04-05T09:40:17.005Z</time></trkpt><trkpt lat="43.3373928" lon="11.5252081"><ele>331.33333333333337</ele><time>2026-04-05T09:40:18.005Z</time></trkpt><trkpt lat="43.3373778" lon="11.5254193"><ele>330.6666666666667</ele><time>2026-04-05T09:40:19.005Z</time></trkpt><trkpt lat="43.337356" lon="11.5256297"><ele>330.0</ele><time>2026-04-05T09:40:20.005Z</time></trkpt><trkpt lat="43.3373389" lon="11.5258415"><ele>330.0</ele><time>2026-04-05T09:40:21.005Z</time></trkpt><trkpt lat="43.3373222" lon="11.5260464"><ele>330.0</ele><time>2026-04-05T09:40:22.005Z</time></trkpt><trkpt lat="43.337311" lon="11.5262463"><ele>330.0</ele><time>2026-04-05T09:40:23.005Z</time></trkpt><trkpt lat="43.3373022" lon="11.5264462"><ele>330.0</ele><time>2026-04-05T09:40:24.005Z</time></trkpt><trkpt lat="43.3372922" lon="11.5266371"><ele>329.25</ele><time>2026-04-05T09:40:25.005Z</time></trkpt><trkpt lat="43.3372861" lon="11.5268265"><ele>328.5</ele><time>2026-04-05T09:40:26.005Z</time></trkpt><trkpt lat="43.3372742" lon="11.5270073"><ele>327.75</ele><time>2026-04-05T09:40:27.005Z</time></trkpt><trkpt lat="43.3372517" lon="11.5271863"><ele>327.0</ele><time>2026-04-05T09:40:28.005Z</time></trkpt><trkpt lat="43.3372175" lon="11.5273609"><ele>327.0</ele><time>2026-04-05T09:40:29.005Z</time></trkpt><trkpt lat="43.337178" lon="11.5275224"><ele>327.0</ele><time>2026-04-05T09:40:30.005Z</time></trkpt><trkpt lat="43.3371391" lon="11.527689"><ele>327.0</ele><time>2026-04-05T09:40:31.005Z</time></trkpt><trkpt lat="43.3370972" lon="11.5278532"><ele>327.0</ele><time>2026-04-05T09:40:32.005Z</time></trkpt><trkpt lat="43.3370569" lon="11.5280206"><ele>326.5</ele><time>2026-04-05T09:40:33.005Z</time></trkpt><trkpt lat="43.337019" lon="11.5281922"><ele>326.0</ele><time>2026-04-05T09:40:34.005Z</time></trkpt><trkpt lat="43.3369773" lon="11.528362"><ele>325.5</ele><time>2026-04-05T09:40:35.005Z</time></trkpt><trkpt lat="43.3369379" lon="11.5285367"><ele>325.0</ele><time>2026-04-05T09:40:36.005Z</time></trkpt><trkpt lat="43.3368942" lon="11.5287108"><ele>324.75</ele><time>2026-04-05T09:40:37.005Z</time></trkpt><trkpt lat="43.3368494" lon="11.5288954"><ele>324.5</ele><time>2026-04-05T09:40:38.005Z</time></trkpt><trkpt lat="43.3367992" lon="11.5290749"><ele>324.25</ele><time>2026-04-05T09:40:39.005Z</time></trkpt><trkpt lat="43.3367504" lon="11.5292563"><ele>324.0</ele><time>2026-04-05T09:40:40.005Z</time></trkpt><trkpt lat="43.3366971" lon="11.5294297"><ele>324.0</ele><time>2026-04-05T09:40:41.005Z</time></trkpt><trkpt lat="43.3366462" lon="11.5296043"><ele>324.0</ele><time>2026-04-05T09:40:42.005Z</time></trkpt><trkpt lat="43.3365939" lon="11.5297795"><ele>324.0</ele><time>2026-04-05T09:40:43.005Z</time></trkpt><trkpt lat="43.3365373" lon="11.5299489"><ele>324.0</ele><time>2026-04-05T09:40:44.005Z</time></trkpt><trkpt lat="43.3364768" lon="11.5301174"><ele>324.0</ele><time>2026-04-05T09:40:45.005Z</time></trkpt><trkpt lat="43.3364022" lon="11.5302856"><ele>324.0</ele><time>2026-04-05T09:40:46.005Z</time></trkpt><trkpt lat="43.3363151" lon="11.5304393"><ele>324.0</ele><time>2026-04-05T09:40:47.005Z</time></trkpt><trkpt lat="43.3362168" lon="11.5305869"><ele>324.0</ele><time>2026-04-05T09:40:48.005Z</time></trkpt><trkpt lat="43.3361124" lon="11.5307303"><ele>322.5</ele><time>2026-04-05T09:40:49.005Z</time></trkpt><trkpt lat="43.3360042" lon="11.5308685"><ele>321.0</ele><time>2026-04-05T09:40:50.005Z</time></trkpt><trkpt lat="43.3358934" lon="11.5309994"><ele>319.5</ele><time>2026-04-05T09:40:51.005Z</time></trkpt><trkpt lat="43.3357797" lon="11.5311114"><ele>318.0</ele><time>2026-04-05T09:40:52.005Z</time></trkpt><trkpt lat="43.3356645" lon="11.5312181"><ele>318.0</ele><time>2026-04-05T09:40:53.005Z</time></trkpt><trkpt lat="43.3355503" lon="11.5313178"><ele>318.0</ele><time>2026-04-05T09:40:54.005Z</time></trkpt><trkpt lat="43.3354379" lon="11.5314178"><ele>318.0</ele><time>2026-04-05T09:40:55.005Z</time></trkpt><trkpt lat="43.3353227" lon="11.5315153"><ele>318.0</ele><time>2026-04-05T09:40:56.005Z</time></trkpt><trkpt lat="43.3352135" lon="11.5316214"><ele>318.0</ele><time>2026-04-05T09:40:57.005Z</time></trkpt><trkpt lat="43.3351126" lon="11.5317287"><ele>318.0</ele><time>2026-04-05T09:40:58.005Z</time></trkpt><trkpt lat="43.3350177" lon="11.5318434"><ele>318.0</ele><time>2026-04-05T09:40:59.005Z</time></trkpt><trkpt lat="43.334928" lon="11.5319613"><ele>318.0</ele><time>2026-04-05T09:41:00.005Z</time></trkpt><trkpt lat="43.3348427" lon="11.5320683"><ele>317.5</ele><time>2026-04-05T09:41:01.005Z</time></trkpt><trkpt lat="43.3347522" lon="11.5321715"><ele>317.0</ele><time>2026-04-05T09:41:02.005Z</time></trkpt><trkpt lat="43.3346519" lon="11.5322653"><ele>316.5</ele><time>2026-04-05T09:41:03.005Z</time></trkpt><trkpt lat="43.3345451" lon="11.5323425"><ele>316.0</ele><time>2026-04-05T09:41:04.005Z</time></trkpt><trkpt lat="43.3344265" lon="11.5324055"><ele>316.0</ele><time>2026-04-05T09:41:05.005Z</time></trkpt><trkpt lat="43.3343028" lon="11.5324532"><ele>316.0</ele><time>2026-04-05T09:41:06.005Z</time></trkpt><trkpt lat="43.3341834" lon="11.532489"><ele>316.0</ele><time>2026-04-05T09:41:07.005Z</time></trkpt><trkpt lat="43.3340581" lon="11.5325154"><ele>316.0</ele><time>2026-04-05T09:41:08.005Z</time></trkpt><trkpt lat="43.3339334" lon="11.532555"><ele>315.5</ele><time>2026-04-05T09:41:09.005Z</time></trkpt><trkpt lat="43.3338093" lon="11.5326014"><ele>315.0</ele><time>2026-04-05T09:41:10.005Z</time></trkpt><trkpt lat="43.3336819" lon="11.5326644"><ele>314.5</ele><time>2026-04-05T09:41:11.005Z</time></trkpt><trkpt lat="43.3335565" lon="11.5327465"><ele>314.0</ele><time>2026-04-05T09:41:12.005Z</time></trkpt><trkpt lat="43.3334335" lon="11.5328437"><ele>313.25</ele><time>2026-04-05T09:41:13.005Z</time></trkpt><trkpt lat="43.333314" lon="11.5329597"><ele>312.5</ele><time>2026-04-05T09:41:14.005Z</time></trkpt><trkpt lat="43.3332028" lon="11.5330928"><ele>311.75</ele><time>2026-04-05T09:41:15.005Z</time></trkpt><trkpt lat="43.3330951" lon="11.5332423"><ele>311.0</ele><time>2026-04-05T09:41:16.005Z</time></trkpt><trkpt lat="43.3329956" lon="11.5334041"><ele>311.0</ele><time>2026-04-05T09:41:17.005Z</time></trkpt><trkpt lat="43.3329023" lon="11.5335774"><ele>311.0</ele><time>2026-04-05T09:41:18.005Z</time></trkpt><trkpt lat="43.3328154" lon="11.533757"><ele>311.0</ele><time>2026-04-05T09:41:19.005Z</time></trkpt><trkpt lat="43.3327299" lon="11.5339442"><ele>310.0</ele><time>2026-04-05T09:41:20.005Z</time></trkpt><trkpt lat="43.3326442" lon="11.5341298"><ele>309.0</ele><time>2026-04-05T09:41:21.005Z</time></trkpt><trkpt lat="43.3325606" lon="11.5343152"><ele>308.0</ele><time>2026-04-05T09:41:22.005Z</time></trkpt><trkpt lat="43.3324802" lon="11.534499"><ele>306.0</ele><time>2026-04-05T09:41:23.005Z</time></trkpt><trkpt lat="43.3324061" lon="11.5346813"><ele>304.0</ele><time>2026-04-05T09:41:24.005Z</time></trkpt><trkpt lat="43.3323375" lon="11.5348667"><ele>302.0</ele><time>2026-04-05T09:41:25.005Z</time></trkpt><trkpt lat="43.332281" lon="11.5350526"><ele>302.0</ele><time>2026-04-05T09:41:26.005Z</time></trkpt><trkpt lat="43.3322404" lon="11.535242"><ele>302.0</ele><time>2026-04-05T09:41:27.005Z</time></trkpt><trkpt lat="43.3322237" lon="11.5354263"><ele>302.0</ele><time>2026-04-05T09:41:28.005Z</time></trkpt><trkpt lat="43.3322345" lon="11.5356014"><ele>302.0</ele><time>2026-04-05T09:41:29.005Z</time></trkpt><trkpt lat="43.3322775" lon="11.5357809"><ele>301.5</ele><time>2026-04-05T09:41:30.005Z</time></trkpt><trkpt lat="43.3323363" lon="11.5359518"><ele>301.0</ele><time>2026-04-05T09:41:31.005Z</time></trkpt><trkpt lat="43.3324043" lon="11.5361176"><ele>300.5</ele><time>2026-04-05T09:41:32.005Z</time></trkpt><trkpt lat="43.3324715" lon="11.5362828"><ele>300.0</ele><time>2026-04-05T09:41:33.005Z</time></trkpt><trkpt lat="43.3325295" lon="11.5364437"><ele>299.75</ele><time>2026-04-05T09:41:34.005Z</time></trkpt><trkpt lat="43.3325856" lon="11.5366044"><ele>299.5</ele><time>2026-04-05T09:41:35.005Z</time></trkpt><trkpt lat="43.3326343" lon="11.5367642"><ele>299.25</ele><time>2026-04-05T09:41:36.005Z</time></trkpt><trkpt lat="43.3326718" lon="11.5369268"><ele>299.0</ele><time>2026-04-05T09:41:37.005Z</time></trkpt><trkpt lat="43.3326896" lon="11.5370878"><ele>298.5</ele><time>2026-04-05T09:41:38.005Z</time></trkpt><trkpt lat="43.332679" lon="11.5372463"><ele>298.0</ele><time>2026-04-05T09:41:39.005Z</time></trkpt><trkpt lat="43.3326435" lon="11.5373944"><ele>297.5</ele><time>2026-04-05T09:41:40.005Z</time></trkpt><trkpt lat="43.3325899" lon="11.5375272"><ele>297.0</ele><time>2026-04-05T09:41:41.005Z</time></trkpt><trkpt lat="43.3325105" lon="11.5376352"><ele>297.0</ele><time>2026-04-05T09:41:42.005Z</time></trkpt><trkpt lat="43.3324029" lon="11.5377224"><ele>297.0</ele><time>2026-04-05T09:41:43.005Z</time></trkpt><trkpt lat="43.3322754" lon="11.5377995"><ele>297.0</ele><time>2026-04-05T09:41:44.005Z</time></trkpt><trkpt lat="43.3321333" lon="11.5378662"><ele>297.0</ele><time>2026-04-05T09:41:45.005Z</time></trkpt><trkpt lat="43.3320007" lon="11.5379343"><ele>295.5</ele><time>2026-04-05T09:41:46.005Z</time></trkpt><trkpt lat="43.331883" lon="11.5380139"><ele>294.0</ele><time>2026-04-05T09:41:47.005Z</time></trkpt><trkpt lat="43.3317869" lon="11.5381162"><ele>292.5</ele><time>2026-04-05T09:41:48.005Z</time></trkpt><trkpt lat="43.3317116" lon="11.538245"><ele>291.0</ele><time>2026-04-05T09:41:49.004Z</time></trkpt><trkpt lat="43.3316622" lon="11.5384005"><ele>291.0</ele><time>2026-04-05T09:41:50.005Z</time></trkpt><trkpt lat="43.3316412" lon="11.5385754"><ele>291.0</ele><time>2026-04-05T09:41:51.005Z</time></trkpt><trkpt lat="43.3316515" lon="11.5387639"><ele>291.0</ele><time>2026-04-05T09:41:52.005Z</time></trkpt><trkpt lat="43.3316852" lon="11.5389585"><ele>291.0</ele><time>2026-04-05T09:41:53.005Z</time></trkpt><trkpt lat="43.3317251" lon="11.5391551"><ele>290.0</ele><time>2026-04-05T09:41:54.005Z</time></trkpt><trkpt lat="43.3317655" lon="11.539352"><ele>289.0</ele><time>2026-04-05T09:41:55.005Z</time></trkpt><trkpt lat="43.3318043" lon="11.5395539"><ele>288.0</ele><time>2026-04-05T09:41:56.005Z</time></trkpt><trkpt lat="43.3318442" lon="11.5397626"><ele>287.0</ele><time>2026-04-05T09:41:57.005Z</time></trkpt><trkpt lat="43.3318868" lon="11.5399729"><ele>286.0</ele><time>2026-04-05T09:41:58.005Z</time></trkpt><trkpt lat="43.3319286" lon="11.5401822"><ele>285.0</ele><time>2026-04-05T09:41:59.005Z</time></trkpt><trkpt lat="43.3319711" lon="11.5403904"><ele>284.0</ele><time>2026-04-05T09:42:00.005Z</time></trkpt><trkpt lat="43.3320103" lon="11.540589"><ele>283.0</ele><time>2026-04-05T09:42:01.005Z</time></trkpt><trkpt lat="43.3320487" lon="11.5407777"><ele>282.0</ele><time>2026-04-05T09:42:02.005Z</time></trkpt><trkpt lat="43.332076" lon="11.5409612"><ele>281.0</ele><time>2026-04-05T09:42:03.005Z</time></trkpt><trkpt lat="43.3320891" lon="11.5411462"><ele>280.0</ele><time>2026-04-05T09:42:04.005Z</time></trkpt><trkpt lat="43.3320785" lon="11.5413235"><ele>279.0</ele><time>2026-04-05T09:42:05.005Z</time></trkpt><trkpt lat="43.3320433" lon="11.5415088"><ele>278.0</ele><time>2026-04-05T09:42:06.005Z</time></trkpt><trkpt lat="43.3319977" lon="11.5417019"><ele>277.0</ele><time>2026-04-05T09:42:07.005Z</time></trkpt><trkpt lat="43.3319516" lon="11.5418954"><ele>278.0</ele><time>2026-04-05T09:42:08.005Z</time></trkpt><trkpt lat="43.3319108" lon="11.5420797"><ele>279.0</ele><time>2026-04-05T09:42:09.005Z</time></trkpt><trkpt lat="43.3318706" lon="11.5422545"><ele>280.0</ele><time>2026-04-05T09:42:10.005Z</time></trkpt><trkpt lat="43.3318263" lon="11.5424125"><ele>281.0</ele><time>2026-04-05T09:42:11.005Z</time></trkpt><trkpt lat="43.3317619" lon="11.5425637"><ele>281.0</ele><time>2026-04-05T09:42:12.005Z</time></trkpt><trkpt lat="43.3316788" lon="11.5426938"><ele>281.0</ele><time>2026-04-05T09:42:13.005Z</time></trkpt><trkpt lat="43.3315758" lon="11.5427902"><ele>281.0</ele><time>2026-04-05T09:42:14.005Z</time></trkpt><trkpt lat="43.3314601" lon="11.5428487"><ele>281.0</ele><time>2026-04-05T09:42:15.005Z</time></trkpt><trkpt lat="43.3313362" lon="11.5428771"><ele>280.0</ele><time>2026-04-05T09:42:16.005Z</time></trkpt><trkpt lat="43.3311994" lon="11.5428823"><ele>279.0</ele><time>2026-04-05T09:42:17.005Z</time></trkpt><trkpt lat="43.3310584" lon="11.5428742"><ele>278.0</ele><time>2026-04-05T09:42:18.005Z</time></trkpt><trkpt lat="43.3309169" lon="11.5428738"><ele>277.0</ele><time>2026-04-05T09:42:19.005Z</time></trkpt><trkpt lat="43.3307781" lon="11.5428924"><ele>277.0</ele><time>2026-04-05T09:42:20.005Z</time></trkpt><trkpt lat="43.3306457" lon="11.5429247"><ele>277.0</ele><time>2026-04-05T09:42:21.005Z</time></trkpt><trkpt lat="43.3305134" lon="11.54296"><ele>277.0</ele><time>2026-04-05T09:42:22.005Z</time></trkpt><trkpt lat="43.3303932" lon="11.5429947"><ele>277.0</ele><time>2026-04-05T09:42:23.005Z</time></trkpt><trkpt lat="43.3302741" lon="11.5430426"><ele>275.25</ele><time>2026-04-05T09:42:24.005Z</time></trkpt><trkpt lat="43.3301619" lon="11.5431063"><ele>273.5</ele><time>2026-04-05T09:42:25.005Z</time></trkpt><trkpt lat="43.3300527" lon="11.5431887"><ele>271.75</ele><time>2026-04-05T09:42:26.005Z</time></trkpt><trkpt lat="43.3299532" lon="11.5432875"><ele>270.0</ele><time>2026-04-05T09:42:27.005Z</time></trkpt><trkpt lat="43.329863" lon="11.543405"><ele>270.0</ele><time>2026-04-05T09:42:28.005Z</time></trkpt><trkpt lat="43.3297963" lon="11.5435292"><ele>270.0</ele><time>2026-04-05T09:42:29.005Z</time></trkpt><trkpt lat="43.329759" lon="11.5436603"><ele>270.0</ele><time>2026-04-05T09:42:30.005Z</time></trkpt><trkpt lat="43.3297524" lon="11.5438001"><ele>270.0</ele><time>2026-04-05T09:42:31.005Z</time></trkpt><trkpt lat="43.3297785" lon="11.5439309"><ele>270.0</ele><time>2026-04-05T09:42:32.005Z</time></trkpt><trkpt lat="43.3298363" lon="11.5440432"><ele>269.6</ele><time>2026-04-05T09:42:33.005Z</time></trkpt><trkpt lat="43.3299119" lon="11.5441271"><ele>269.2</ele><time>2026-04-05T09:42:34.005Z</time></trkpt><trkpt lat="43.3300115" lon="11.5441889"><ele>268.8</ele><time>2026-04-05T09:42:35.005Z</time></trkpt><trkpt lat="43.3301228" lon="11.5442372"><ele>268.4</ele><time>2026-04-05T09:42:36.005Z</time></trkpt><trkpt lat="43.3302312" lon="11.5442969"><ele>268.0</ele><time>2026-04-05T09:42:37.005Z</time></trkpt><trkpt lat="43.330337" lon="11.5443834"><ele>268.0</ele><time>2026-04-05T09:42:38.005Z</time></trkpt><trkpt lat="43.3304344" lon="11.5444933"><ele>268.0</ele><time>2026-04-05T09:42:39.005Z</time></trkpt><trkpt lat="43.3305143" lon="11.5446248"><ele>268.0</ele><time>2026-04-05T09:42:40.005Z</time></trkpt><trkpt lat="43.330566" lon="11.5447878"><ele>268.0</ele><time>2026-04-05T09:42:41.005Z</time></trkpt><trkpt lat="43.3305993" lon="11.5449632"><ele>268.0</ele><time>2026-04-05T09:42:42.005Z</time></trkpt><trkpt lat="43.330616" lon="11.5451436"><ele>268.0</ele><time>2026-04-05T09:42:43.005Z</time></trkpt><trkpt lat="43.3306201" lon="11.5453144"><ele>268.0</ele><time>2026-04-05T09:42:44.005Z</time></trkpt><trkpt lat="43.330606" lon="11.545484"><ele>268.0</ele><time>2026-04-05T09:42:45.005Z</time></trkpt><trkpt lat="43.3305721" lon="11.5456476"><ele>264.75</ele><time>2026-04-05T09:42:46.005Z</time></trkpt><trkpt lat="43.330525" lon="11.5458082"><ele>261.5</ele><time>2026-04-05T09:42:47.005Z</time></trkpt><trkpt lat="43.3304709" lon="11.5459593"><ele>258.25</ele><time>2026-04-05T09:42:48.005Z</time></trkpt><trkpt lat="43.3304163" lon="11.5461186"><ele>255.0</ele><time>2026-04-05T09:42:49.005Z</time></trkpt><trkpt lat="43.3303608" lon="11.5462745"><ele>254.4</ele><time>2026-04-05T09:42:50.005Z</time></trkpt><trkpt lat="43.3303124" lon="11.5464282"><ele>253.8</ele><time>2026-04-05T09:42:51.005Z</time></trkpt><trkpt lat="43.3302753" lon="11.5465783"><ele>253.2</ele><time>2026-04-05T09:42:52.005Z</time></trkpt><trkpt lat="43.3302511" lon="11.5467161"><ele>252.6</ele><time>2026-04-05T09:42:53.005Z</time></trkpt><trkpt lat="43.3302395" lon="11.5468509"><ele>252.0</ele><time>2026-04-05T09:42:54.005Z</time></trkpt><trkpt lat="43.3302585" lon="11.5469852"><ele>251.6</ele><time>2026-04-05T09:42:55.005Z</time></trkpt><trkpt lat="43.3302986" lon="11.5471196"><ele>251.2</ele><time>2026-04-05T09:42:56.005Z</time></trkpt><trkpt lat="43.3303629" lon="11.5472361"><ele>250.8</ele><time>2026-04-05T09:42:57.005Z</time></trkpt><trkpt lat="43.3304434" lon="11.5473393"><ele>250.4</ele><time>2026-04-05T09:42:58.005Z</time></trkpt><trkpt lat="43.3305382" lon="11.5474346"><ele>250.0</ele><time>2026-04-05T09:42:59.005Z</time></trkpt><trkpt lat="43.330637" lon="11.5475195"><ele>250.2</ele><time>2026-04-05T09:43:00.005Z</time></trkpt><trkpt lat="43.3307347" lon="11.5476072"><ele>250.4</ele><time>2026-04-05T09:43:01.005Z</time></trkpt><trkpt lat="43.3308147" lon="11.5477071"><ele>250.60000000000002</ele><time>2026-04-05T09:43:02.005Z</time></trkpt><trkpt lat="43.3308712" lon="11.5478279"><ele>250.8</ele><time>2026-04-05T09:43:03.005Z</time></trkpt><trkpt lat="43.330901" lon="11.5479658"><ele>251.0</ele><time>2026-04-05T09:43:04.005Z</time></trkpt><trkpt lat="43.3308933" lon="11.54812"><ele>251.0</ele><time>2026-04-05T09:43:05.005Z</time></trkpt><trkpt lat="43.3308633" lon="11.5482533"><ele>251.00000000000003</ele><time>2026-04-05T09:43:06.005Z</time></trkpt><trkpt lat="43.3308033" lon="11.5483783"><ele>251.00000000000003</ele><time>2026-04-05T09:43:07.005Z</time></trkpt><trkpt lat="43.3307233" lon="11.54847"><ele>251.0</ele><time>2026-04-05T09:43:08.005Z</time></trkpt><trkpt lat="43.3306217" lon="11.5485133"><ele>251.0</ele><time>2026-04-05T09:43:09.005Z</time></trkpt><trkpt lat="43.3305083" lon="11.5485067"><ele>250.20000000000002</ele><time>2026-04-05T09:43:10.005Z</time></trkpt><trkpt lat="43.3303917" lon="11.5484683"><ele>249.40000000000003</ele><time>2026-04-05T09:43:11.005Z</time></trkpt><trkpt lat="43.3302883" lon="11.5484183"><ele>248.6</ele><time>2026-04-05T09:43:12.005Z</time></trkpt><trkpt lat="43.33019" lon="11.5483933"><ele>247.8</ele><time>2026-04-05T09:43:13.005Z</time></trkpt><trkpt lat="43.3300867" lon="11.5483933"><ele>247.0</ele><time>2026-04-05T09:43:14.005Z</time></trkpt><trkpt lat="43.3299883" lon="11.54843"><ele>247.0</ele><time>2026-04-05T09:43:15.005Z</time></trkpt><trkpt lat="43.3298883" lon="11.5484967"><ele>247.0</ele><time>2026-04-05T09:43:16.005Z</time></trkpt><trkpt lat="43.3298017" lon="11.5485883"><ele>247.0</ele><time>2026-04-05T09:43:17.005Z</time></trkpt><trkpt lat="43.32973" lon="11.54871"><ele>247.0</ele><time>2026-04-05T09:43:18.005Z</time></trkpt><trkpt lat="43.3296767" lon="11.5488467"><ele>247.0</ele><time>2026-04-05T09:43:19.005Z</time></trkpt><trkpt lat="43.32965" lon="11.5489833"><ele>243.75</ele><time>2026-04-05T09:43:20.005Z</time></trkpt><trkpt lat="43.3296383" lon="11.5491317"><ele>240.5</ele><time>2026-04-05T09:43:21.005Z</time></trkpt><trkpt lat="43.32965" lon="11.54929"><ele>237.25</ele><time>2026-04-05T09:43:22.005Z</time></trkpt><trkpt lat="43.3296767" lon="11.5494567"><ele>234.0</ele><time>2026-04-05T09:43:23.005Z</time></trkpt><trkpt lat="43.32971" lon="11.54962"><ele>234.5</ele><time>2026-04-05T09:43:24.005Z</time></trkpt><trkpt lat="43.329755" lon="11.54979"><ele>235.0</ele><time>2026-04-05T09:43:25.005Z</time></trkpt><trkpt lat="43.3298017" lon="11.5499633"><ele>235.5</ele><time>2026-04-05T09:43:26.005Z</time></trkpt><trkpt lat="43.3298417" lon="11.5501333"><ele>236.0</ele><time>2026-04-05T09:43:27.005Z</time></trkpt><trkpt lat="43.329875" lon="11.5503033"><ele>235.0</ele><time>2026-04-05T09:43:28.005Z</time></trkpt><trkpt lat="43.3299117" lon="11.5504767"><ele>234.0</ele><time>2026-04-05T09:43:29.005Z</time></trkpt><trkpt lat="43.3299467" lon="11.5506433"><ele>233.0</ele><time>2026-04-05T09:43:30.005Z</time></trkpt><trkpt lat="43.3299817" lon="11.5508033"><ele>232.0</ele><time>2026-04-05T09:43:31.005Z</time></trkpt><trkpt lat="43.3300167" lon="11.5509567"><ele>232.0</ele><time>2026-04-05T09:43:32.005Z</time></trkpt><trkpt lat="43.3300533" lon="11.55111"><ele>232.0</ele><time>2026-04-05T09:43:33.005Z</time></trkpt><trkpt lat="43.3300867" lon="11.5512633"><ele>232.0</ele><time>2026-04-05T09:43:34.005Z</time></trkpt><trkpt lat="43.3301167" lon="11.5514033"><ele>232.0</ele><time>2026-04-05T09:43:35.005Z</time></trkpt><trkpt lat="43.3301417" lon="11.551535"><ele>232.0</ele><time>2026-04-05T09:43:36.005Z</time></trkpt><trkpt lat="43.3301633" lon="11.5516533"><ele>231.16666666666666</ele><time>2026-04-05T09:43:37.005Z</time></trkpt><trkpt lat="43.3301917" lon="11.5517567"><ele>230.33333333333331</ele><time>2026-04-05T09:43:38.005Z</time></trkpt><trkpt lat="43.3302167" lon="11.55184"><ele>229.5</ele><time>2026-04-05T09:43:39.005Z</time></trkpt><trkpt lat="43.3302217" lon="11.5519783"><ele>228.66666666666669</ele><time>2026-04-05T09:43:41.005Z</time></trkpt><trkpt lat="43.3302183" lon="11.5520683"><ele>227.83333333333334</ele><time>2026-04-05T09:43:43.005Z</time></trkpt><trkpt lat="43.3302467" lon="11.5522067"><ele>227.0</ele><time>2026-04-05T09:43:45.005Z</time></trkpt><trkpt lat="43.33029" lon="11.5523417"><ele>226.66666666666669</ele><time>2026-04-05T09:43:47.005Z</time></trkpt><trkpt lat="43.3303317" lon="11.5524983"><ele>226.33333333333334</ele><time>2026-04-05T09:43:49.005Z</time></trkpt><trkpt lat="43.330345" lon="11.5525883"><ele>226.0</ele><time>2026-04-05T09:43:50.005Z</time></trkpt><trkpt lat="43.3303467" lon="11.5526867"><ele>225.66666666666669</ele><time>2026-04-05T09:43:51.005Z</time></trkpt><trkpt lat="43.3303367" lon="11.552785"><ele>225.33333333333334</ele><time>2026-04-05T09:43:52.005Z</time></trkpt><trkpt lat="43.330315" lon="11.5528867"><ele>225.0</ele><time>2026-04-05T09:43:53.005Z</time></trkpt><trkpt lat="43.3302833" lon="11.5530017"><ele>224.2</ele><time>2026-04-05T09:43:54.005Z</time></trkpt><trkpt lat="43.3302483" lon="11.5531267"><ele>223.4</ele><time>2026-04-05T09:43:55.005Z</time></trkpt><trkpt lat="43.3301983" lon="11.553255"><ele>222.60000000000002</ele><time>2026-04-05T09:43:56.005Z</time></trkpt><trkpt lat="43.33014" lon="11.5533883"><ele>221.8</ele><time>2026-04-05T09:43:57.005Z</time></trkpt><trkpt lat="43.3300783" lon="11.5535233"><ele>221.0</ele><time>2026-04-05T09:43:58.005Z</time></trkpt><trkpt lat="43.3300183" lon="11.55366"><ele>222.0</ele><time>2026-04-05T09:43:59.005Z</time></trkpt><trkpt lat="43.3299567" lon="11.5537967"><ele>223.0</ele><time>2026-04-05T09:44:00.005Z</time></trkpt><trkpt lat="43.3298883" lon="11.55392"><ele>224.0</ele><time>2026-04-05T09:44:01.005Z</time></trkpt><trkpt lat="43.3298117" lon="11.5540483"><ele>225.0</ele><time>2026-04-05T09:44:02.005Z</time></trkpt><trkpt lat="43.3297333" lon="11.554195"><ele>224.25</ele><time>2026-04-05T09:44:03.005Z</time></trkpt><trkpt lat="43.3296517" lon="11.55434"><ele>223.5</ele><time>2026-04-05T09:44:04.005Z</time></trkpt><trkpt lat="43.3295733" lon="11.5544933"><ele>222.75</ele><time>2026-04-05T09:44:05.005Z</time></trkpt><trkpt lat="43.3294967" lon="11.55465"><ele>222.0</ele><time>2026-04-05T09:44:06.005Z</time></trkpt><trkpt lat="43.3294183" lon="11.55481"><ele>222.0</ele><time>2026-04-05T09:44:07.005Z</time></trkpt><trkpt lat="43.329345" lon="11.5549783"><ele>222.0</ele><time>2026-04-05T09:44:08.005Z</time></trkpt><trkpt lat="43.3292717" lon="11.5551567"><ele>222.0</ele><time>2026-04-05T09:44:09.005Z</time></trkpt><trkpt lat="43.32919" lon="11.5553383"><ele>222.0</ele><time>2026-04-05T09:44:10.005Z</time></trkpt><trkpt lat="43.3291083" lon="11.5555217"><ele>222.66666666666669</ele><time>2026-04-05T09:44:11.005Z</time></trkpt><trkpt lat="43.3290183" lon="11.555705"><ele>223.33333333333334</ele><time>2026-04-05T09:44:12.005Z</time></trkpt><trkpt lat="43.32893" lon="11.5558833"><ele>224.0</ele><time>2026-04-05T09:44:13.005Z</time></trkpt><trkpt lat="43.3288467" lon="11.556045"><ele>222.75</ele><time>2026-04-05T09:44:14.005Z</time></trkpt><trkpt lat="43.3287717" lon="11.5561983"><ele>221.5</ele><time>2026-04-05T09:44:15.005Z</time></trkpt><trkpt lat="43.3287083" lon="11.556345"><ele>220.25</ele><time>2026-04-05T09:44:16.005Z</time></trkpt><trkpt lat="43.328645" lon="11.5564883"><ele>219.0</ele><time>2026-04-05T09:44:17.005Z</time></trkpt><trkpt lat="43.3285767" lon="11.55663"><ele>218.25</ele><time>2026-04-05T09:44:18.005Z</time></trkpt><trkpt lat="43.3285133" lon="11.5567783"><ele>217.5</ele><time>2026-04-05T09:44:19.005Z</time></trkpt><trkpt lat="43.3284567" lon="11.5569267"><ele>216.75</ele><time>2026-04-05T09:44:20.005Z</time></trkpt><trkpt lat="43.328405" lon="11.5570817"><ele>216.0</ele><time>2026-04-05T09:44:21.005Z</time></trkpt><trkpt lat="43.3283567" lon="11.557245"><ele>216.0</ele><time>2026-04-05T09:44:22.005Z</time></trkpt><trkpt lat="43.328315" lon="11.5574183"><ele>216.0</ele><time>2026-04-05T09:44:23.005Z</time></trkpt><trkpt lat="43.3282817" lon="11.5575983"><ele>216.0</ele><time>2026-04-05T09:44:24.005Z</time></trkpt><trkpt lat="43.3282467" lon="11.5577867"><ele>216.0</ele><time>2026-04-05T09:44:25.005Z</time></trkpt><trkpt lat="43.3282117" lon="11.5579733"><ele>215.75</ele><time>2026-04-05T09:44:26.005Z</time></trkpt><trkpt lat="43.328175" lon="11.5581567"><ele>215.5</ele><time>2026-04-05T09:44:27.005Z</time></trkpt><trkpt lat="43.32814" lon="11.558345"><ele>215.25</ele><time>2026-04-05T09:44:28.005Z</time></trkpt><trkpt lat="43.328105" lon="11.55854"><ele>215.0</ele><time>2026-04-05T09:44:29.005Z</time></trkpt><trkpt lat="43.32808" lon="11.55874"><ele>214.66666666666669</ele><time>2026-04-05T09:44:30.005Z</time></trkpt><trkpt lat="43.3280533" lon="11.558935"><ele>214.33333333333331</ele><time>2026-04-05T09:44:31.005Z</time></trkpt><trkpt lat="43.3280317" lon="11.5591433"><ele>214.0</ele><time>2026-04-05T09:44:32.005Z</time></trkpt><trkpt lat="43.32801" lon="11.55936"><ele>213.0</ele><time>2026-04-05T09:44:33.005Z</time></trkpt><trkpt lat="43.3279883" lon="11.5595717"><ele>212.0</ele><time>2026-04-05T09:44:34.005Z</time></trkpt><trkpt lat="43.32796" lon="11.5597817"><ele>211.0</ele><time>2026-04-05T09:44:35.005Z</time></trkpt><trkpt lat="43.3279267" lon="11.5599867"><ele>211.0</ele><time>2026-04-05T09:44:36.005Z</time></trkpt><trkpt lat="43.3278883" lon="11.5601933"><ele>211.0</ele><time>2026-04-05T09:44:37.005Z</time></trkpt><trkpt lat="43.3278433" lon="11.5604"><ele>211.0</ele><time>2026-04-05T09:44:38.005Z</time></trkpt><trkpt lat="43.3277967" lon="11.5606017"><ele>211.33333333333331</ele><time>2026-04-05T09:44:39.005Z</time></trkpt><trkpt lat="43.3277483" lon="11.5608083"><ele>211.66666666666669</ele><time>2026-04-05T09:44:40.005Z</time></trkpt><trkpt lat="43.3277" lon="11.5610083"><ele>212.0</ele><time>2026-04-05T09:44:41.005Z</time></trkpt><trkpt lat="43.3276583" lon="11.56121"><ele>212.75</ele><time>2026-04-05T09:44:42.005Z</time></trkpt><trkpt lat="43.3276167" lon="11.5614083"><ele>213.5</ele><time>2026-04-05T09:44:43.005Z</time></trkpt><trkpt lat="43.32759" lon="11.5615917"><ele>214.25</ele><time>2026-04-05T09:44:44.005Z</time></trkpt><trkpt lat="43.327575" lon="11.561775"><ele>215.0</ele><time>2026-04-05T09:44:45.005Z</time></trkpt><trkpt lat="43.3275767" lon="11.5619533"><ele>215.6</ele><time>2026-04-05T09:44:46.005Z</time></trkpt><trkpt lat="43.327605" lon="11.5621183"><ele>216.2</ele><time>2026-04-05T09:44:47.005Z</time></trkpt><trkpt lat="43.327645" lon="11.562265"><ele>216.8</ele><time>2026-04-05T09:44:48.005Z</time></trkpt><trkpt lat="43.3276867" lon="11.5623933"><ele>217.4</ele><time>2026-04-05T09:44:49.005Z</time></trkpt><trkpt lat="43.32772" lon="11.5625133"><ele>218.0</ele><time>2026-04-05T09:44:50.005Z</time></trkpt><trkpt lat="43.3277417" lon="11.5626083"><ele>218.00000000000003</ele><time>2026-04-05T09:44:51.005Z</time></trkpt><trkpt lat="43.3277733" lon="11.5627517"><ele>218.0</ele><time>2026-04-05T09:44:53.005Z</time></trkpt><trkpt lat="43.3277983" lon="11.5628417"><ele>218.0</ele><time>2026-04-05T09:44:55.005Z</time></trkpt><trkpt lat="43.3277367" lon="11.56296"><ele>218.0</ele><time>2026-04-05T09:45:04.005Z</time></trkpt><trkpt lat="43.3276883" lon="11.5630183"><ele>218.00000000000003</ele><time>2026-04-05T09:45:05.005Z</time></trkpt><trkpt lat="43.32763" lon="11.5630783"><ele>218.0</ele><time>2026-04-05T09:45:06.005Z</time></trkpt><trkpt lat="43.32756" lon="11.5631467"><ele>218.2</ele><time>2026-04-05T09:45:07.005Z</time></trkpt><trkpt lat="43.3274733" lon="11.56319"><ele>218.4</ele><time>2026-04-05T09:45:08.005Z</time></trkpt><trkpt lat="43.3273767" lon="11.563225"><ele>218.59999999999997</ele><time>2026-04-05T09:45:09.005Z</time></trkpt><trkpt lat="43.3272767" lon="11.5632617"><ele>218.79999999999998</ele><time>2026-04-05T09:45:10.005Z</time></trkpt><trkpt lat="43.32717" lon="11.563295"><ele>219.0</ele><time>2026-04-05T09:45:11.005Z</time></trkpt><trkpt lat="43.327055" lon="11.5633167"><ele>219.0</ele><time>2026-04-05T09:45:12.005Z</time></trkpt><trkpt lat="43.32695" lon="11.5633483"><ele>219.0</ele><time>2026-04-05T09:45:13.005Z</time></trkpt><trkpt lat="43.3268333" lon="11.5633917"><ele>219.0</ele><time>2026-04-05T09:45:14.005Z</time></trkpt><trkpt lat="43.32671" lon="11.56343"><ele>219.0</ele><time>2026-04-05T09:45:15.005Z</time></trkpt><trkpt lat="43.32658" lon="11.5634733"><ele>219.0</ele><time>2026-04-05T09:45:16.005Z</time></trkpt><trkpt lat="43.326445" lon="11.5635167"><ele>219.0</ele><time>2026-04-05T09:45:17.005Z</time></trkpt><trkpt lat="43.3263133" lon="11.5635583"><ele>219.0</ele><time>2026-04-05T09:45:18.005Z</time></trkpt><trkpt lat="43.326185" lon="11.563595"><ele>219.0</ele><time>2026-04-05T09:45:19.005Z</time></trkpt><trkpt lat="43.32606" lon="11.5636383"><ele>220.5</ele><time>2026-04-05T09:45:20.005Z</time></trkpt><trkpt lat="43.3259367" lon="11.5636983"><ele>222.0</ele><time>2026-04-05T09:45:21.005Z</time></trkpt><trkpt lat="43.32582" lon="11.563795"><ele>223.5</ele><time>2026-04-05T09:45:22.005Z</time></trkpt><trkpt lat="43.3257167" lon="11.5639167"><ele>225.0</ele><time>2026-04-05T09:45:23.005Z</time></trkpt><trkpt lat="43.32563" lon="11.5640433"><ele>224.25</ele><time>2026-04-05T09:45:24.005Z</time></trkpt><trkpt lat="43.325545" lon="11.5641833"><ele>223.5</ele><time>2026-04-05T09:45:25.005Z</time></trkpt><trkpt lat="43.3254567" lon="11.564335"><ele>222.75</ele><time>2026-04-05T09:45:26.005Z</time></trkpt><trkpt lat="43.3253683" lon="11.5644983"><ele>222.0</ele><time>2026-04-05T09:45:27.005Z</time></trkpt><trkpt lat="43.3252883" lon="11.5646733"><ele>222.0</ele><time>2026-04-05T09:45:28.005Z</time></trkpt><trkpt lat="43.3252317" lon="11.564855"><ele>222.0</ele><time>2026-04-05T09:45:29.005Z</time></trkpt><trkpt lat="43.3251933" lon="11.565045"><ele>222.0</ele><time>2026-04-05T09:45:30.005Z</time></trkpt><trkpt lat="43.3251667" lon="11.5652383"><ele>222.0</ele><time>2026-04-05T09:45:31.005Z</time></trkpt><trkpt lat="43.3251583" lon="11.56544"><ele>222.25</ele><time>2026-04-05T09:45:32.005Z</time></trkpt><trkpt lat="43.3251467" lon="11.565645"><ele>222.5</ele><time>2026-04-05T09:45:33.005Z</time></trkpt><trkpt lat="43.3251367" lon="11.565845"><ele>222.75</ele><time>2026-04-05T09:45:34.005Z</time></trkpt><trkpt lat="43.325125" lon="11.5660417"><ele>223.0</ele><time>2026-04-05T09:45:35.005Z</time></trkpt><trkpt lat="43.3250933" lon="11.5662367"><ele>223.0</ele><time>2026-04-05T09:45:36.005Z</time></trkpt><trkpt lat="43.3250533" lon="11.5664233"><ele>223.0</ele><time>2026-04-05T09:45:37.005Z</time></trkpt><trkpt lat="43.3250067" lon="11.5665983"><ele>223.0</ele><time>2026-04-05T09:45:38.005Z</time></trkpt><trkpt lat="43.3249533" lon="11.5667717"><ele>223.0</ele><time>2026-04-05T09:45:39.005Z</time></trkpt><trkpt lat="43.3248983" lon="11.5669533"><ele>222.0</ele><time>2026-04-05T09:45:40.005Z</time></trkpt><trkpt lat="43.32484" lon="11.5671317"><ele>221.0</ele><time>2026-04-05T09:45:41.005Z</time></trkpt><trkpt lat="43.3247883" lon="11.567305"><ele>220.0</ele><time>2026-04-05T09:45:42.005Z</time></trkpt><trkpt lat="43.32474" lon="11.5674733"><ele>219.0</ele><time>2026-04-05T09:45:43.005Z</time></trkpt><trkpt lat="43.3246867" lon="11.56764"><ele>217.75</ele><time>2026-04-05T09:45:44.005Z</time></trkpt><trkpt lat="43.3246283" lon="11.5678033"><ele>216.5</ele><time>2026-04-05T09:45:45.005Z</time></trkpt><trkpt lat="43.3245633" lon="11.5679533"><ele>215.25</ele><time>2026-04-05T09:45:46.005Z</time></trkpt><trkpt lat="43.3244883" lon="11.56809"><ele>214.0</ele><time>2026-04-05T09:45:47.005Z</time></trkpt><trkpt lat="43.3243933" lon="11.5682083"><ele>213.25</ele><time>2026-04-05T09:45:48.005Z</time></trkpt><trkpt lat="43.3242933" lon="11.5683183"><ele>212.5</ele><time>2026-04-05T09:45:49.005Z</time></trkpt><trkpt lat="43.3241767" lon="11.5684183"><ele>211.75</ele><time>2026-04-05T09:45:50.005Z</time></trkpt><trkpt lat="43.324055" lon="11.5685167"><ele>211.0</ele><time>2026-04-05T09:45:51.005Z</time></trkpt><trkpt lat="43.32393" lon="11.5686183"><ele>211.0</ele><time>2026-04-05T09:45:52.005Z</time></trkpt><trkpt lat="43.3238083" lon="11.56872"><ele>211.0</ele><time>2026-04-05T09:45:53.005Z</time></trkpt><trkpt lat="43.323695" lon="11.5688117"><ele>211.0</ele><time>2026-04-05T09:45:54.005Z</time></trkpt><trkpt lat="43.3235833" lon="11.5688967"><ele>211.0</ele><time>2026-04-05T09:45:55.005Z</time></trkpt><trkpt lat="43.3234783" lon="11.5689833"><ele>211.0</ele><time>2026-04-05T09:45:56.005Z</time></trkpt><trkpt lat="43.3233667" lon="11.56906"><ele>211.0</ele><time>2026-04-05T09:45:57.005Z</time></trkpt><trkpt lat="43.3232517" lon="11.5691183"><ele>211.0</ele><time>2026-04-05T09:45:58.005Z</time></trkpt><trkpt lat="43.32313" lon="11.5691633"><ele>211.0</ele><time>2026-04-05T09:45:59.005Z</time></trkpt><trkpt lat="43.3229983" lon="11.569195"><ele>210.0</ele><time>2026-04-05T09:46:00.005Z</time></trkpt><trkpt lat="43.322855" lon="11.569225"><ele>209.0</ele><time>2026-04-05T09:46:01.005Z</time></trkpt><trkpt lat="43.322715" lon="11.5692533"><ele>208.0</ele><time>2026-04-05T09:46:02.005Z</time></trkpt><trkpt lat="43.322575" lon="11.569285"><ele>207.0</ele><time>2026-04-05T09:46:03.005Z</time></trkpt><trkpt lat="43.322435" lon="11.569315"><ele>207.0</ele><time>2026-04-05T09:46:04.005Z</time></trkpt><trkpt lat="43.322295" lon="11.5693467"><ele>207.0</ele><time>2026-04-05T09:46:05.005Z</time></trkpt><trkpt lat="43.3221533" lon="11.5693817"><ele>207.0</ele><time>2026-04-05T09:46:06.005Z</time></trkpt><trkpt lat="43.322015" lon="11.5694033"><ele>207.0</ele><time>2026-04-05T09:46:07.005Z</time></trkpt><trkpt lat="43.3218783" lon="11.5694317"><ele>206.75</ele><time>2026-04-05T09:46:08.005Z</time></trkpt><trkpt lat="43.3217417" lon="11.56946"><ele>206.5</ele><time>2026-04-05T09:46:09.005Z</time></trkpt><trkpt lat="43.3216133" lon="11.569485"><ele>206.25</ele><time>2026-04-05T09:46:10.005Z</time></trkpt><trkpt lat="43.32149" lon="11.56952"><ele>206.0</ele><time>2026-04-05T09:46:11.005Z</time></trkpt><trkpt lat="43.3213733" lon="11.5695733"><ele>206.0</ele><time>2026-04-05T09:46:12.005Z</time></trkpt><trkpt lat="43.3212683" lon="11.569665"><ele>206.0</ele><time>2026-04-05T09:46:13.005Z</time></trkpt><trkpt lat="43.3211717" lon="11.5697817"><ele>206.0</ele><time>2026-04-05T09:46:14.005Z</time></trkpt><trkpt lat="43.32107" lon="11.569915"><ele>206.0</ele><time>2026-04-05T09:46:15.005Z</time></trkpt><trkpt lat="43.320965" lon="11.5700483"><ele>206.0</ele><time>2026-04-05T09:46:16.005Z</time></trkpt><trkpt lat="43.3208567" lon="11.570185"><ele>206.0</ele><time>2026-04-05T09:46:17.005Z</time></trkpt><trkpt lat="43.3207467" lon="11.5703217"><ele>206.0</ele><time>2026-04-05T09:46:18.005Z</time></trkpt><trkpt lat="43.3206383" lon="11.57046"><ele>206.0</ele><time>2026-04-05T09:46:19.005Z</time></trkpt><trkpt lat="43.320535" lon="11.5706017"><ele>206.0</ele><time>2026-04-05T09:46:20.005Z</time></trkpt><trkpt lat="43.32043" lon="11.57074"><ele>206.0</ele><time>2026-04-05T09:46:21.005Z</time></trkpt><trkpt lat="43.3203217" lon="11.5708867"><ele>206.0</ele><time>2026-04-05T09:46:22.005Z</time></trkpt><trkpt lat="43.32021" lon="11.5710317"><ele>206.0</ele><time>2026-04-05T09:46:23.005Z</time></trkpt><trkpt lat="43.3200983" lon="11.571175"><ele>206.0</ele><time>2026-04-05T09:46:24.005Z</time></trkpt><trkpt lat="43.31999" lon="11.5713217"><ele>206.0</ele><time>2026-04-05T09:46:25.005Z</time></trkpt><trkpt lat="43.3198833" lon="11.5714583"><ele>206.5</ele><time>2026-04-05T09:46:26.005Z</time></trkpt><trkpt lat="43.3197767" lon="11.5715917"><ele>207.0</ele><time>2026-04-05T09:46:27.004Z</time></trkpt><trkpt lat="43.31967" lon="11.5717367"><ele>207.5</ele><time>2026-04-05T09:46:28.004Z</time></trkpt><trkpt lat="43.3195667" lon="11.57187"><ele>208.0</ele><time>2026-04-05T09:46:29.004Z</time></trkpt><trkpt lat="43.3194733" lon="11.5719917"><ele>207.25</ele><time>2026-04-05T09:46:30.004Z</time></trkpt><trkpt lat="43.3193733" lon="11.572105"><ele>206.5</ele><time>2026-04-05T09:46:31.004Z</time></trkpt><trkpt lat="43.3192667" lon="11.57221"><ele>205.75</ele><time>2026-04-05T09:46:32.004Z</time></trkpt><trkpt lat="43.3191433" lon="11.5722967"><ele>205.0</ele><time>2026-04-05T09:46:33.004Z</time></trkpt><trkpt lat="43.3190083" lon="11.572365"><ele>205.66666666666666</ele><time>2026-04-05T09:46:34.004Z</time></trkpt><trkpt lat="43.3188583" lon="11.572435"><ele>206.33333333333331</ele><time>2026-04-05T09:46:35.004Z</time></trkpt><trkpt lat="43.31871" lon="11.5724967"><ele>207.0</ele><time>2026-04-05T09:46:36.004Z</time></trkpt><trkpt lat="43.3185667" lon="11.5725617"><ele>207.0</ele><time>2026-04-05T09:46:37.004Z</time></trkpt><trkpt lat="43.318445" lon="11.5726317"><ele>207.0</ele><time>2026-04-05T09:46:38.004Z</time></trkpt><trkpt lat="43.318335" lon="11.5727417"><ele>207.0</ele><time>2026-04-05T09:46:39.004Z</time></trkpt><trkpt lat="43.318235" lon="11.57287"><ele>207.0</ele><time>2026-04-05T09:46:40.004Z</time></trkpt><trkpt lat="43.3181333" lon="11.5729983"><ele>207.5</ele><time>2026-04-05T09:46:41.004Z</time></trkpt><trkpt lat="43.3180317" lon="11.573135"><ele>208.0</ele><time>2026-04-05T09:46:42.004Z</time></trkpt><trkpt lat="43.3179283" lon="11.573265"><ele>208.5</ele><time>2026-04-05T09:46:43.004Z</time></trkpt><trkpt lat="43.317825" lon="11.5734"><ele>209.0</ele><time>2026-04-05T09:46:44.004Z</time></trkpt><trkpt lat="43.31772" lon="11.5735367"><ele>209.0</ele><time>2026-04-05T09:46:45.004Z</time></trkpt><trkpt lat="43.3176117" lon="11.5736733"><ele>209.0</ele><time>2026-04-05T09:46:46.004Z</time></trkpt><trkpt lat="43.3175017" lon="11.5738133"><ele>209.0</ele><time>2026-04-05T09:46:47.004Z</time></trkpt><trkpt lat="43.3173933" lon="11.57395"><ele>209.0</ele><time>2026-04-05T09:46:48.004Z</time></trkpt><trkpt lat="43.317295" lon="11.5740783"><ele>209.25</ele><time>2026-04-05T09:46:49.004Z</time></trkpt><trkpt lat="43.3171967" lon="11.5742033"><ele>209.5</ele><time>2026-04-05T09:46:50.004Z</time></trkpt><trkpt lat="43.3171033" lon="11.5743233"><ele>209.75</ele><time>2026-04-05T09:46:51.004Z</time></trkpt><trkpt lat="43.317005" lon="11.5744483"><ele>210.0</ele><time>2026-04-05T09:46:52.004Z</time></trkpt><trkpt lat="43.3169" lon="11.5745817"><ele>211.5</ele><time>2026-04-05T09:46:53.004Z</time></trkpt><trkpt lat="43.3168" lon="11.5747117"><ele>213.0</ele><time>2026-04-05T09:46:54.004Z</time></trkpt><trkpt lat="43.3166883" lon="11.57484"><ele>214.5</ele><time>2026-04-05T09:46:55.004Z</time></trkpt><trkpt lat="43.3165783" lon="11.57497"><ele>216.0</ele><time>2026-04-05T09:46:56.004Z</time></trkpt><trkpt lat="43.3164633" lon="11.57511"><ele>212.33333333333331</ele><time>2026-04-05T09:46:57.004Z</time></trkpt><trkpt lat="43.3163483" lon="11.57525"><ele>208.66666666666666</ele><time>2026-04-05T09:46:58.004Z</time></trkpt><trkpt lat="43.3162283" lon="11.5753933"><ele>205.0</ele><time>2026-04-05T09:46:59.004Z</time></trkpt><trkpt lat="43.3161133" lon="11.57554"><ele>204.33333333333331</ele><time>2026-04-05T09:47:00.004Z</time></trkpt><trkpt lat="43.3159883" lon="11.5756883"><ele>203.66666666666669</ele><time>2026-04-05T09:47:01.004Z</time></trkpt><trkpt lat="43.3158633" lon="11.5758317"><ele>203.0</ele><time>2026-04-05T09:47:02.004Z</time></trkpt><trkpt lat="43.3157383" lon="11.5759717"><ele>203.0</ele><time>2026-04-05T09:47:03.004Z</time></trkpt><trkpt lat="43.3156133" lon="11.57612"><ele>203.0</ele><time>2026-04-05T09:47:04.004Z</time></trkpt><trkpt lat="43.3154883" lon="11.5762717"><ele>203.0</ele><time>2026-04-05T09:47:05.004Z</time></trkpt><trkpt lat="43.3153633" lon="11.5764333"><ele>202.66666666666669</ele><time>2026-04-05T09:47:06.004Z</time></trkpt><trkpt lat="43.31525" lon="11.576595"><ele>202.33333333333331</ele><time>2026-04-05T09:47:07.004Z</time></trkpt><trkpt lat="43.3151433" lon="11.5767683"><ele>202.0</ele><time>2026-04-05T09:47:08.004Z</time></trkpt><trkpt lat="43.3150483" lon="11.5769417"><ele>202.0</ele><time>2026-04-05T09:47:09.004Z</time></trkpt><trkpt lat="43.3149633" lon="11.57711"><ele>202.0</ele><time>2026-04-05T09:47:10.004Z</time></trkpt><trkpt lat="43.3148867" lon="11.5772883"><ele>202.0</ele><time>2026-04-05T09:47:11.004Z</time></trkpt><trkpt lat="43.3148133" lon="11.5774683"><ele>202.0</ele><time>2026-04-05T09:47:12.004Z</time></trkpt><trkpt lat="43.3147467" lon="11.5776517"><ele>202.0</ele><time>2026-04-05T09:47:13.004Z</time></trkpt><trkpt lat="43.31468" lon="11.57784"><ele>202.0</ele><time>2026-04-05T09:47:14.004Z</time></trkpt><trkpt lat="43.3146133" lon="11.5780333"><ele>201.75</ele><time>2026-04-05T09:47:15.004Z</time></trkpt><trkpt lat="43.3145533" lon="11.57822"><ele>201.5</ele><time>2026-04-05T09:47:16.004Z</time></trkpt><trkpt lat="43.314495" lon="11.5783967"><ele>201.25</ele><time>2026-04-05T09:47:17.004Z</time></trkpt><trkpt lat="43.3144367" lon="11.5785767"><ele>201.0</ele><time>2026-04-05T09:47:18.004Z</time></trkpt><trkpt lat="43.3143833" lon="11.57875"><ele>200.75</ele><time>2026-04-05T09:47:19.004Z</time></trkpt><trkpt lat="43.3143317" lon="11.5789067"><ele>200.5</ele><time>2026-04-05T09:47:20.004Z</time></trkpt><trkpt lat="43.3142683" lon="11.5790567"><ele>200.25</ele><time>2026-04-05T09:47:21.004Z</time></trkpt><trkpt lat="43.3141917" lon="11.5792083"><ele>200.0</ele><time>2026-04-05T09:47:22.004Z</time></trkpt><trkpt lat="43.3141" lon="11.579335"><ele>200.0</ele><time>2026-04-05T09:47:23.004Z</time></trkpt><trkpt lat="43.3139967" lon="11.5794367"><ele>200.0</ele><time>2026-04-05T09:47:24.004Z</time></trkpt><trkpt lat="43.31388" lon="11.579515"><ele>200.0</ele><time>2026-04-05T09:47:25.004Z</time></trkpt><trkpt lat="43.313745" lon="11.579575"><ele>200.0</ele><time>2026-04-05T09:47:26.004Z</time></trkpt><trkpt lat="43.313605" lon="11.5796233"><ele>201.25</ele><time>2026-04-05T09:47:27.004Z</time></trkpt><trkpt lat="43.3134633" lon="11.5796733"><ele>202.5</ele><time>2026-04-05T09:47:28.004Z</time></trkpt><trkpt lat="43.3133233" lon="11.57973"><ele>203.75</ele><time>2026-04-05T09:47:29.004Z</time></trkpt><trkpt lat="43.31318" lon="11.5798"><ele>205.0</ele><time>2026-04-05T09:47:30.004Z</time></trkpt><trkpt lat="43.3130433" lon="11.5798833"><ele>206.0</ele><time>2026-04-05T09:47:31.004Z</time></trkpt><trkpt lat="43.3129233" lon="11.5799867"><ele>207.0</ele><time>2026-04-05T09:47:32.004Z</time></trkpt><trkpt lat="43.3128117" lon="11.5801017"><ele>208.0</ele><time>2026-04-05T09:47:33.004Z</time></trkpt><trkpt lat="43.3126983" lon="11.58022"><ele>209.0</ele><time>2026-04-05T09:47:34.004Z</time></trkpt><trkpt lat="43.3125833" lon="11.5803483"><ele>210.25</ele><time>2026-04-05T09:47:35.004Z</time></trkpt><trkpt lat="43.3124683" lon="11.5804683"><ele>211.5</ele><time>2026-04-05T09:47:36.004Z</time></trkpt><trkpt lat="43.31237" lon="11.5805767"><ele>212.75</ele><time>2026-04-05T09:47:37.004Z</time></trkpt><trkpt lat="43.3122833" lon="11.5806683"><ele>214.0</ele><time>2026-04-05T09:47:38.004Z</time></trkpt><trkpt lat="43.3122017" lon="11.58074"><ele>214.0</ele><time>2026-04-05T09:47:39.004Z</time></trkpt><trkpt lat="43.312115" lon="11.5807817"><ele>213.99999999999997</ele><time>2026-04-05T09:47:40.004Z</time></trkpt><trkpt lat="43.3120217" lon="11.5807883"><ele>213.99999999999997</ele><time>2026-04-05T09:47:41.004Z</time></trkpt><trkpt lat="43.3119283" lon="11.5807583"><ele>214.0</ele><time>2026-04-05T09:47:42.004Z</time></trkpt><trkpt lat="43.3118383" lon="11.580695"><ele>214.0</ele><time>2026-04-05T09:47:43.004Z</time></trkpt><trkpt lat="43.31175" lon="11.5805917"><ele>214.0</ele><time>2026-04-05T09:47:44.004Z</time></trkpt><trkpt lat="43.31167" lon="11.5804783"><ele>213.99999999999997</ele><time>2026-04-05T09:47:45.004Z</time></trkpt><trkpt lat="43.3115967" lon="11.5803783"><ele>213.99999999999997</ele><time>2026-04-05T09:47:46.004Z</time></trkpt><trkpt lat="43.311525" lon="11.5803133"><ele>214.0</ele><time>2026-04-05T09:47:47.004Z</time></trkpt><trkpt lat="43.3114383" lon="11.5802733"><ele>214.0</ele><time>2026-04-05T09:47:48.004Z</time></trkpt><trkpt lat="43.3113433" lon="11.580255"><ele>213.0</ele><time>2026-04-05T09:47:49.004Z</time></trkpt><trkpt lat="43.31124" lon="11.5802583"><ele>211.99999999999997</ele><time>2026-04-05T09:47:50.004Z</time></trkpt><trkpt lat="43.3111417" lon="11.5802883"><ele>211.0</ele><time>2026-04-05T09:47:51.004Z</time></trkpt><trkpt lat="43.3110533" lon="11.5803617"><ele>210.0</ele><time>2026-04-05T09:47:52.004Z</time></trkpt><trkpt lat="43.3109817" lon="11.580465"><ele>209.0</ele><time>2026-04-05T09:47:53.004Z</time></trkpt><trkpt lat="43.31092" lon="11.5805967"><ele>209.0</ele><time>2026-04-05T09:47:54.004Z</time></trkpt><trkpt lat="43.3108683" lon="11.5807417"><ele>209.0</ele><time>2026-04-05T09:47:55.004Z</time></trkpt><trkpt lat="43.3108217" lon="11.5808967"><ele>209.0</ele><time>2026-04-05T09:47:56.004Z</time></trkpt><trkpt lat="43.31077" lon="11.581045"><ele>209.0</ele><time>2026-04-05T09:47:57.004Z</time></trkpt><trkpt lat="43.3107183" lon="11.5812083"><ele>209.25</ele><time>2026-04-05T09:47:58.004Z</time></trkpt><trkpt lat="43.31066" lon="11.58139"><ele>209.5</ele><time>2026-04-05T09:47:59.004Z</time></trkpt><trkpt lat="43.3106017" lon="11.58157"><ele>209.75</ele><time>2026-04-05T09:48:00.004Z</time></trkpt><trkpt lat="43.3105417" lon="11.5817467"><ele>210.0</ele><time>2026-04-05T09:48:01.004Z</time></trkpt><trkpt lat="43.3104817" lon="11.58193"><ele>211.25</ele><time>2026-04-05T09:48:02.004Z</time></trkpt><trkpt lat="43.3104217" lon="11.5821167"><ele>212.5</ele><time>2026-04-05T09:48:03.004Z</time></trkpt><trkpt lat="43.3103617" lon="11.5823067"><ele>213.75</ele><time>2026-04-05T09:48:04.004Z</time></trkpt><trkpt lat="43.3102983" lon="11.5824933"><ele>215.0</ele><time>2026-04-05T09:48:05.004Z</time></trkpt><trkpt lat="43.310235" lon="11.5826833"><ele>216.0</ele><time>2026-04-05T09:48:06.004Z</time></trkpt><trkpt lat="43.3101733" lon="11.582875"><ele>217.0</ele><time>2026-04-05T09:48:07.004Z</time></trkpt><trkpt lat="43.3101133" lon="11.58306"><ele>218.0</ele><time>2026-04-05T09:48:08.004Z</time></trkpt><trkpt lat="43.3100567" lon="11.5832483"><ele>219.0</ele><time>2026-04-05T09:48:09.004Z</time></trkpt><trkpt lat="43.3100067" lon="11.5834433"><ele>219.0</ele><time>2026-04-05T09:48:10.004Z</time></trkpt><trkpt lat="43.309955" lon="11.5836267"><ele>219.0</ele><time>2026-04-05T09:48:11.004Z</time></trkpt><trkpt lat="43.3099033" lon="11.58381"><ele>219.0</ele><time>2026-04-05T09:48:12.004Z</time></trkpt><trkpt lat="43.3098433" lon="11.583985"><ele>219.0</ele><time>2026-04-05T09:48:13.004Z</time></trkpt><trkpt lat="43.3097817" lon="11.584155"><ele>219.75</ele><time>2026-04-05T09:48:14.004Z</time></trkpt><trkpt lat="43.309715" lon="11.5843317"><ele>220.5</ele><time>2026-04-05T09:48:15.004Z</time></trkpt><trkpt lat="43.30966" lon="11.5845017"><ele>221.25</ele><time>2026-04-05T09:48:16.004Z</time></trkpt><trkpt lat="43.309595" lon="11.5846683"><ele>222.0</ele><time>2026-04-05T09:48:17.004Z</time></trkpt><trkpt lat="43.3095217" lon="11.5848233"><ele>222.0</ele><time>2026-04-05T09:48:18.004Z</time></trkpt><trkpt lat="43.3094433" lon="11.58497"><ele>222.0</ele><time>2026-04-05T09:48:19.004Z</time></trkpt><trkpt lat="43.3093567" lon="11.5851117"><ele>222.0</ele><time>2026-04-05T09:48:20.004Z</time></trkpt><trkpt lat="43.3092583" lon="11.5852433"><ele>222.0</ele><time>2026-04-05T09:48:21.004Z</time></trkpt><trkpt lat="43.309155" lon="11.5853733"><ele>221.25</ele><time>2026-04-05T09:48:22.004Z</time></trkpt><trkpt lat="43.3090517" lon="11.5855083"><ele>220.5</ele><time>2026-04-05T09:48:23.004Z</time></trkpt><trkpt lat="43.3089383" lon="11.5856367"><ele>219.75</ele><time>2026-04-05T09:48:24.004Z</time></trkpt><trkpt lat="43.3088333" lon="11.585775"><ele>219.0</ele><time>2026-04-05T09:48:25.004Z</time></trkpt><trkpt lat="43.3087233" lon="11.5859133"><ele>218.25</ele><time>2026-04-05T09:48:26.004Z</time></trkpt><trkpt lat="43.308615" lon="11.58605"><ele>217.5</ele><time>2026-04-05T09:48:27.004Z</time></trkpt><trkpt lat="43.3085083" lon="11.5861983"><ele>216.75</ele><time>2026-04-05T09:48:28.004Z</time></trkpt><trkpt lat="43.3084017" lon="11.5863383"><ele>216.0</ele><time>2026-04-05T09:48:29.004Z</time></trkpt><trkpt lat="43.3082967" lon="11.5864783"><ele>215.75</ele><time>2026-04-05T09:48:30.004Z</time></trkpt><trkpt lat="43.3081933" lon="11.5866183"><ele>215.5</ele><time>2026-04-05T09:48:31.004Z</time></trkpt><trkpt lat="43.3080917" lon="11.5867417"><ele>215.25</ele><time>2026-04-05T09:48:32.004Z</time></trkpt><trkpt lat="43.307995" lon="11.5868717"><ele>215.0</ele><time>2026-04-05T09:48:33.004Z</time></trkpt><trkpt lat="43.3079017" lon="11.5869983"><ele>215.0</ele><time>2026-04-05T09:48:34.004Z</time></trkpt><trkpt lat="43.30781" lon="11.5871117"><ele>215.0</ele><time>2026-04-05T09:48:35.004Z</time></trkpt><trkpt lat="43.30773" lon="11.5871967"><ele>215.0</ele><time>2026-04-05T09:48:36.004Z</time></trkpt><trkpt lat="43.3076367" lon="11.5872617"><ele>215.0</ele><time>2026-04-05T09:48:37.004Z</time></trkpt><trkpt lat="43.3075417" lon="11.5873083"><ele>215.0</ele><time>2026-04-05T09:48:38.004Z</time></trkpt><trkpt lat="43.3074483" lon="11.5873317"><ele>215.0</ele><time>2026-04-05T09:48:39.004Z</time></trkpt><trkpt lat="43.3073583" lon="11.5873333"><ele>215.0</ele><time>2026-04-05T09:48:40.004Z</time></trkpt><trkpt lat="43.3072683" lon="11.5873267"><ele>215.0</ele><time>2026-04-05T09:48:41.004Z</time></trkpt><trkpt lat="43.3071567" lon="11.5872733"><ele>215.0</ele><time>2026-04-05T09:48:42.004Z</time></trkpt><trkpt lat="43.3070483" lon="11.5871917"><ele>215.0</ele><time>2026-04-05T09:48:43.004Z</time></trkpt><trkpt lat="43.3069383" lon="11.587105"><ele>215.5</ele><time>2026-04-05T09:48:44.004Z</time></trkpt><trkpt lat="43.3068167" lon="11.5870267"><ele>216.0</ele><time>2026-04-05T09:48:45.004Z</time></trkpt><trkpt lat="43.306685" lon="11.5869633"><ele>216.5</ele><time>2026-04-05T09:48:46.004Z</time></trkpt><trkpt lat="43.306555" lon="11.5869167"><ele>217.0</ele><time>2026-04-05T09:48:47.004Z</time></trkpt><trkpt lat="43.3064167" lon="11.5868917"><ele>216.0</ele><time>2026-04-05T09:48:48.004Z</time></trkpt><trkpt lat="43.3062767" lon="11.5868967"><ele>215.0</ele><time>2026-04-05T09:48:49.004Z</time></trkpt><trkpt lat="43.3061333" lon="11.5869167"><ele>214.0</ele><time>2026-04-05T09:48:50.004Z</time></trkpt><trkpt lat="43.3060067" lon="11.58697"><ele>213.0</ele><time>2026-04-05T09:48:51.004Z</time></trkpt><trkpt lat="43.3058817" lon="11.5870467"><ele>213.0</ele><time>2026-04-05T09:48:52.004Z</time></trkpt><trkpt lat="43.3057667" lon="11.58715"><ele>213.0</ele><time>2026-04-05T09:48:53.004Z</time></trkpt><trkpt lat="43.3056567" lon="11.5872733"><ele>213.0</ele><time>2026-04-05T09:48:54.004Z</time></trkpt><trkpt lat="43.3055483" lon="11.5874017"><ele>213.0</ele><time>2026-04-05T09:48:55.004Z</time></trkpt><trkpt lat="43.3054483" lon="11.587525"><ele>212.0</ele><time>2026-04-05T09:48:56.005Z</time></trkpt><trkpt lat="43.30534" lon="11.5876333"><ele>211.0</ele><time>2026-04-05T09:48:57.004Z</time></trkpt><trkpt lat="43.3052183" lon="11.5877117"><ele>210.0</ele><time>2026-04-05T09:48:58.004Z</time></trkpt><trkpt lat="43.3050867" lon="11.5877833"><ele>209.0</ele><time>2026-04-05T09:48:59.004Z</time></trkpt><trkpt lat="43.3049433" lon="11.5878217"><ele>209.0</ele><time>2026-04-05T09:49:00.004Z</time></trkpt><trkpt lat="43.3047833" lon="11.5878383"><ele>209.0</ele><time>2026-04-05T09:49:01.004Z</time></trkpt><trkpt lat="43.304625" lon="11.587855"><ele>209.0</ele><time>2026-04-05T09:49:02.004Z</time></trkpt><trkpt lat="43.3044717" lon="11.5878683"><ele>210.33333333333334</ele><time>2026-04-05T09:49:03.004Z</time></trkpt><trkpt lat="43.3043233" lon="11.5878833"><ele>211.66666666666669</ele><time>2026-04-05T09:49:04.004Z</time></trkpt><trkpt lat="43.3041733" lon="11.5878983"><ele>213.0</ele><time>2026-04-05T09:49:05.004Z</time></trkpt><trkpt lat="43.3040217" lon="11.5879133"><ele>214.0</ele><time>2026-04-05T09:49:06.004Z</time></trkpt><trkpt lat="43.3038717" lon="11.5879183"><ele>215.0</ele><time>2026-04-05T09:49:07.004Z</time></trkpt><trkpt lat="43.3037183" lon="11.5879067"><ele>216.0</ele><time>2026-04-05T09:49:08.004Z</time></trkpt><trkpt lat="43.3035733" lon="11.5878883"><ele>217.0</ele><time>2026-04-05T09:49:09.004Z</time></trkpt><trkpt lat="43.303455" lon="11.58787"><ele>217.0</ele><time>2026-04-05T09:49:10.004Z</time></trkpt><trkpt lat="43.3033483" lon="11.58786"><ele>217.0</ele><time>2026-04-05T09:49:11.004Z</time></trkpt><trkpt lat="43.3032433" lon="11.5878633"><ele>217.0</ele><time>2026-04-05T09:49:12.004Z</time></trkpt><trkpt lat="43.303145" lon="11.58788"><ele>217.0</ele><time>2026-04-05T09:49:13.004Z</time></trkpt><trkpt lat="43.30305" lon="11.5879183"><ele>217.0</ele><time>2026-04-05T09:49:14.004Z</time></trkpt><trkpt lat="43.30295" lon="11.5879717"><ele>217.25</ele><time>2026-04-05T09:49:15.004Z</time></trkpt><trkpt lat="43.3028467" lon="11.5880483"><ele>217.5</ele><time>2026-04-05T09:49:16.004Z</time></trkpt><trkpt lat="43.3027467" lon="11.5881417"><ele>217.75</ele><time>2026-04-05T09:49:17.004Z</time></trkpt><trkpt lat="43.30265" lon="11.5882433"><ele>218.0</ele><time>2026-04-05T09:49:18.004Z</time></trkpt><trkpt lat="43.302545" lon="11.5883433"><ele>218.0</ele><time>2026-04-05T09:49:19.004Z</time></trkpt><trkpt lat="43.3024383" lon="11.5884517"><ele>218.0</ele><time>2026-04-05T09:49:20.004Z</time></trkpt><trkpt lat="43.30234" lon="11.5885533"><ele>218.0</ele><time>2026-04-05T09:49:21.004Z</time></trkpt><trkpt lat="43.3022483" lon="11.5886567"><ele>218.0</ele><time>2026-04-05T09:49:22.004Z</time></trkpt><trkpt lat="43.3021733" lon="11.58878"><ele>217.5</ele><time>2026-04-05T09:49:23.004Z</time></trkpt><trkpt lat="43.3021183" lon="11.5889267"><ele>217.0</ele><time>2026-04-05T09:49:24.004Z</time></trkpt><trkpt lat="43.302075" lon="11.5890933"><ele>216.5</ele><time>2026-04-05T09:49:25.004Z</time></trkpt><trkpt lat="43.302045" lon="11.589265"><ele>216.0</ele><time>2026-04-05T09:49:26.004Z</time></trkpt><trkpt lat="43.3020367" lon="11.5894383"><ele>216.75</ele><time>2026-04-05T09:49:27.004Z</time></trkpt><trkpt lat="43.3020467" lon="11.5896233"><ele>217.5</ele><time>2026-04-05T09:49:28.004Z</time></trkpt><trkpt lat="43.3020667" lon="11.5898167"><ele>218.25</ele><time>2026-04-05T09:49:29.004Z</time></trkpt><trkpt lat="43.3020983" lon="11.59002"><ele>219.0</ele><time>2026-04-05T09:49:30.004Z</time></trkpt><trkpt lat="43.3021483" lon="11.59023"><ele>218.66666666666669</ele><time>2026-04-05T09:49:31.004Z</time></trkpt><trkpt lat="43.3022217" lon="11.5904283"><ele>218.33333333333334</ele><time>2026-04-05T09:49:32.004Z</time></trkpt><trkpt lat="43.3022983" lon="11.59062"><ele>218.0</ele><time>2026-04-05T09:49:33.004Z</time></trkpt><trkpt lat="43.3023933" lon="11.5907983"><ele>221.33333333333334</ele><time>2026-04-05T09:49:34.004Z</time></trkpt><trkpt lat="43.3024983" lon="11.5909717"><ele>224.66666666666669</ele><time>2026-04-05T09:49:35.004Z</time></trkpt><trkpt lat="43.3025933" lon="11.591145"><ele>228.0</ele><time>2026-04-05T09:49:36.004Z</time></trkpt><trkpt lat="43.3026683" lon="11.5913333"><ele>228.0</ele><time>2026-04-05T09:49:37.004Z</time></trkpt><trkpt lat="43.3027217" lon="11.5915183"><ele>228.0</ele><time>2026-04-05T09:49:38.004Z</time></trkpt><trkpt lat="43.3027583" lon="11.5917133"><ele>228.0</ele><time>2026-04-05T09:49:39.004Z</time></trkpt><trkpt lat="43.3027783" lon="11.5919233"><ele>228.0</ele><time>2026-04-05T09:49:40.004Z</time></trkpt><trkpt lat="43.3027783" lon="11.5921417"><ele>228.75</ele><time>2026-04-05T09:49:41.004Z</time></trkpt><trkpt lat="43.3027683" lon="11.5923483"><ele>229.5</ele><time>2026-04-05T09:49:42.004Z</time></trkpt><trkpt lat="43.3027583" lon="11.59254"><ele>230.25</ele><time>2026-04-05T09:49:43.004Z</time></trkpt><trkpt lat="43.3027567" lon="11.592715"><ele>231.0</ele><time>2026-04-05T09:49:44.004Z</time></trkpt><trkpt lat="43.3027817" lon="11.592875"><ele>231.5</ele><time>2026-04-05T09:49:45.004Z</time></trkpt><trkpt lat="43.30283" lon="11.59304"><ele>232.0</ele><time>2026-04-05T09:49:46.004Z</time></trkpt><trkpt lat="43.3028967" lon="11.5931933"><ele>232.5</ele><time>2026-04-05T09:49:47.004Z</time></trkpt><trkpt lat="43.3029733" lon="11.59334"><ele>233.0</ele><time>2026-04-05T09:49:48.004Z</time></trkpt><trkpt lat="43.3030517" lon="11.593485"><ele>235.5</ele><time>2026-04-05T09:49:49.004Z</time></trkpt><trkpt lat="43.3031167" lon="11.593635"><ele>238.0</ele><time>2026-04-05T09:49:50.004Z</time></trkpt><trkpt lat="43.3031667" lon="11.5937983"><ele>240.5</ele><time>2026-04-05T09:49:51.004Z</time></trkpt><trkpt lat="43.3031967" lon="11.593975"><ele>243.0</ele><time>2026-04-05T09:49:52.004Z</time></trkpt><trkpt lat="43.3032167" lon="11.5941533"><ele>243.0</ele><time>2026-04-05T09:49:53.004Z</time></trkpt><trkpt lat="43.3032317" lon="11.594325"><ele>243.0</ele><time>2026-04-05T09:49:54.004Z</time></trkpt><trkpt lat="43.3032467" lon="11.59449"><ele>243.0</ele><time>2026-04-05T09:49:55.004Z</time></trkpt><trkpt lat="43.30326" lon="11.594645"><ele>243.0</ele><time>2026-04-05T09:49:56.004Z</time></trkpt><trkpt lat="43.303265" lon="11.5947933"><ele>244.0</ele><time>2026-04-05T09:49:57.004Z</time></trkpt><trkpt lat="43.303265" lon="11.59494"><ele>245.0</ele><time>2026-04-05T09:49:58.004Z</time></trkpt><trkpt lat="43.3032517" lon="11.595085"><ele>246.0</ele><time>2026-04-05T09:49:59.004Z</time></trkpt><trkpt lat="43.303225" lon="11.5952433"><ele>247.0</ele><time>2026-04-05T09:50:00.004Z</time></trkpt><trkpt lat="43.3031883" lon="11.595405"><ele>247.25</ele><time>2026-04-05T09:50:01.004Z</time></trkpt><trkpt lat="43.3031367" lon="11.59556"><ele>247.5</ele><time>2026-04-05T09:50:02.004Z</time></trkpt><trkpt lat="43.3030733" lon="11.5957067"><ele>247.75</ele><time>2026-04-05T09:50:03.004Z</time></trkpt><trkpt lat="43.3030067" lon="11.59584"><ele>248.0</ele><time>2026-04-05T09:50:04.004Z</time></trkpt><trkpt lat="43.3029233" lon="11.595975"><ele>248.0</ele><time>2026-04-05T09:50:05.004Z</time></trkpt><trkpt lat="43.3028517" lon="11.59611"><ele>248.0</ele><time>2026-04-05T09:50:06.004Z</time></trkpt><trkpt lat="43.302775" lon="11.596245"><ele>248.0</ele><time>2026-04-05T09:50:07.004Z</time></trkpt><trkpt lat="43.3026983" lon="11.5963817"><ele>248.0</ele><time>2026-04-05T09:50:08.004Z</time></trkpt><trkpt lat="43.3026217" lon="11.5965033"><ele>249.25</ele><time>2026-04-05T09:50:09.004Z</time></trkpt><trkpt lat="43.3025483" lon="11.5966233"><ele>250.5</ele><time>2026-04-05T09:50:10.004Z</time></trkpt><trkpt lat="43.30247" lon="11.5967367"><ele>251.75</ele><time>2026-04-05T09:50:11.004Z</time></trkpt><trkpt lat="43.302385" lon="11.5968433"><ele>253.0</ele><time>2026-04-05T09:50:12.004Z</time></trkpt><trkpt lat="43.3022983" lon="11.5969517"><ele>255.25</ele><time>2026-04-05T09:50:13.004Z</time></trkpt><trkpt lat="43.302195" lon="11.5970467"><ele>257.5</ele><time>2026-04-05T09:50:14.004Z</time></trkpt><trkpt lat="43.302085" lon="11.59711"><ele>259.75</ele><time>2026-04-05T09:50:15.004Z</time></trkpt><trkpt lat="43.3019667" lon="11.5971533"><ele>262.0</ele><time>2026-04-05T09:50:16.004Z</time></trkpt><trkpt lat="43.301835" lon="11.5971833"><ele>262.0</ele><time>2026-04-05T09:50:17.004Z</time></trkpt><trkpt lat="43.3017033" lon="11.597205"><ele>262.0</ele><time>2026-04-05T09:50:18.004Z</time></trkpt><trkpt lat="43.3015667" lon="11.59722"><ele>262.0</ele><time>2026-04-05T09:50:19.004Z</time></trkpt><trkpt lat="43.3014267" lon="11.5972533"><ele>262.0</ele><time>2026-04-05T09:50:20.004Z</time></trkpt><trkpt lat="43.3012933" lon="11.59728"><ele>263.75</ele><time>2026-04-05T09:50:21.004Z</time></trkpt><trkpt lat="43.30117" lon="11.5972917"><ele>265.5</ele><time>2026-04-05T09:50:22.004Z</time></trkpt><trkpt lat="43.3010517" lon="11.5973083"><ele>267.25</ele><time>2026-04-05T09:50:23.004Z</time></trkpt><trkpt lat="43.3009367" lon="11.5973317"><ele>269.0</ele><time>2026-04-05T09:50:24.004Z</time></trkpt><trkpt lat="43.3008233" lon="11.597345"><ele>269.0</ele><time>2026-04-05T09:50:25.004Z</time></trkpt><trkpt lat="43.30071" lon="11.597355"><ele>269.0</ele><time>2026-04-05T09:50:26.004Z</time></trkpt><trkpt lat="43.3005883" lon="11.5973617"><ele>269.0</ele><time>2026-04-05T09:50:27.004Z</time></trkpt><trkpt lat="43.3004683" lon="11.5973667"><ele>269.0</ele><time>2026-04-05T09:50:28.004Z</time></trkpt><trkpt lat="43.3003517" lon="11.5973667"><ele>269.25</ele><time>2026-04-05T09:50:29.004Z</time></trkpt><trkpt lat="43.3002267" lon="11.59738"><ele>269.5</ele><time>2026-04-05T09:50:30.004Z</time></trkpt><trkpt lat="43.3001083" lon="11.5974167"><ele>269.75</ele><time>2026-04-05T09:50:31.004Z</time></trkpt><trkpt lat="43.3" lon="11.597475"><ele>270.0</ele><time>2026-04-05T09:50:32.004Z</time></trkpt><trkpt lat="43.2999017" lon="11.597545"><ele>270.0</ele><time>2026-04-05T09:50:33.004Z</time></trkpt><trkpt lat="43.2998217" lon="11.5976333"><ele>270.0</ele><time>2026-04-05T09:50:34.004Z</time></trkpt><trkpt lat="43.29975" lon="11.5977367"><ele>270.0</ele><time>2026-04-05T09:50:35.004Z</time></trkpt><trkpt lat="43.29968" lon="11.5978467"><ele>270.0</ele><time>2026-04-05T09:50:36.004Z</time></trkpt><trkpt lat="43.2996117" lon="11.5979583"><ele>270.0</ele><time>2026-04-05T09:50:37.004Z</time></trkpt><trkpt lat="43.29954" lon="11.59807"><ele>271.6</ele><time>2026-04-05T09:50:38.004Z</time></trkpt><trkpt lat="43.299465" lon="11.5981933"><ele>273.2</ele><time>2026-04-05T09:50:39.004Z</time></trkpt><trkpt lat="43.2993933" lon="11.5983"><ele>274.8</ele><time>2026-04-05T09:50:40.004Z</time></trkpt><trkpt lat="43.2993217" lon="11.5984167"><ele>276.4</ele><time>2026-04-05T09:50:41.004Z</time></trkpt><trkpt lat="43.2992533" lon="11.5985267"><ele>278.0</ele><time>2026-04-05T09:50:42.004Z</time></trkpt><trkpt lat="43.2991917" lon="11.59864"><ele>278.6</ele><time>2026-04-05T09:50:43.004Z</time></trkpt><trkpt lat="43.2991467" lon="11.5987483"><ele>279.20000000000005</ele><time>2026-04-05T09:50:44.004Z</time></trkpt><trkpt lat="43.299115" lon="11.5988717"><ele>279.8</ele><time>2026-04-05T09:50:45.004Z</time></trkpt><trkpt lat="43.2990967" lon="11.599005"><ele>280.40000000000003</ele><time>2026-04-05T09:50:46.004Z</time></trkpt><trkpt lat="43.2990933" lon="11.59914"><ele>281.0</ele><time>2026-04-05T09:50:47.004Z</time></trkpt><trkpt lat="43.2991017" lon="11.5992667"><ele>281.0</ele><time>2026-04-05T09:50:48.004Z</time></trkpt><trkpt lat="43.2991267" lon="11.5993983"><ele>281.0</ele><time>2026-04-05T09:50:49.004Z</time></trkpt><trkpt lat="43.2991617" lon="11.599525"><ele>281.0</ele><time>2026-04-05T09:50:50.004Z</time></trkpt><trkpt lat="43.2992117" lon="11.5996533"><ele>281.0</ele><time>2026-04-05T09:50:51.004Z</time></trkpt><trkpt lat="43.2992667" lon="11.5997783"><ele>281.0</ele><time>2026-04-05T09:50:52.004Z</time></trkpt><trkpt lat="43.29933" lon="11.5999167"><ele>281.25</ele><time>2026-04-05T09:50:53.004Z</time></trkpt><trkpt lat="43.2993983" lon="11.600045"><ele>281.5</ele><time>2026-04-05T09:50:54.004Z</time></trkpt><trkpt lat="43.299475" lon="11.6001683"><ele>281.75</ele><time>2026-04-05T09:50:55.004Z</time></trkpt><trkpt lat="43.2995633" lon="11.6002783"><ele>282.0</ele><time>2026-04-05T09:50:56.004Z</time></trkpt><trkpt lat="43.299665" lon="11.6003683"><ele>283.5</ele><time>2026-04-05T09:50:57.004Z</time></trkpt><trkpt lat="43.2997733" lon="11.6004317"><ele>285.0</ele><time>2026-04-05T09:50:58.004Z</time></trkpt><trkpt lat="43.29989" lon="11.60047"><ele>286.5</ele><time>2026-04-05T09:50:59.004Z</time></trkpt><trkpt lat="43.3000083" lon="11.6004833"><ele>288.0</ele><time>2026-04-05T09:51:00.004Z</time></trkpt><trkpt lat="43.3001217" lon="11.60048"><ele>288.0</ele><time>2026-04-05T09:51:01.004Z</time></trkpt><trkpt lat="43.3002383" lon="11.6004467"><ele>288.0</ele><time>2026-04-05T09:51:02.004Z</time></trkpt><trkpt lat="43.30036" lon="11.6004033"><ele>288.0</ele><time>2026-04-05T09:51:03.004Z</time></trkpt><trkpt lat="43.3004817" lon="11.60036"><ele>288.0</ele><time>2026-04-05T09:51:04.004Z</time></trkpt><trkpt lat="43.300595" lon="11.6003183"><ele>287.75</ele><time>2026-04-05T09:51:05.004Z</time></trkpt><trkpt lat="43.30071" lon="11.6002833"><ele>287.5</ele><time>2026-04-05T09:51:06.004Z</time></trkpt><trkpt lat="43.3008283" lon="11.6002567"><ele>287.25</ele><time>2026-04-05T09:51:07.004Z</time></trkpt><trkpt lat="43.3009467" lon="11.6002383"><ele>287.0</ele><time>2026-04-05T09:51:08.004Z</time></trkpt><trkpt lat="43.301045" lon="11.60023"><ele>287.0</ele><time>2026-04-05T09:51:09.004Z</time></trkpt><trkpt lat="43.3011217" lon="11.60023"><ele>287.0</ele><time>2026-04-05T09:51:10.004Z</time></trkpt><trkpt lat="43.3011867" lon="11.6002367"><ele>287.0</ele><time>2026-04-05T09:51:11.004Z</time></trkpt><trkpt lat="43.3012833" lon="11.6003183"><ele>287.0</ele><time>2026-04-05T09:51:13.004Z</time></trkpt><trkpt lat="43.3013117" lon="11.6003967"><ele>287.0</ele><time>2026-04-05T09:51:14.004Z</time></trkpt><trkpt lat="43.30132" lon="11.600485"><ele>287.0</ele><time>2026-04-05T09:51:15.004Z</time></trkpt><trkpt lat="43.3013133" lon="11.6005917"><ele>287.33333333333337</ele><time>2026-04-05T09:51:16.004Z</time></trkpt><trkpt lat="43.301305" lon="11.6007083"><ele>287.6666666666667</ele><time>2026-04-05T09:51:17.004Z</time></trkpt><trkpt lat="43.301295" lon="11.6008233"><ele>288.0</ele><time>2026-04-05T09:51:18.004Z</time></trkpt><trkpt lat="43.3012833" lon="11.600945"><ele>288.3333333333333</ele><time>2026-04-05T09:51:19.004Z</time></trkpt><trkpt lat="43.3012717" lon="11.60105"><ele>288.66666666666663</ele><time>2026-04-05T09:51:20.004Z</time></trkpt><trkpt lat="43.301245" lon="11.6011333"><ele>289.0</ele><time>2026-04-05T09:51:21.004Z</time></trkpt><trkpt lat="43.301165" lon="11.6012433"><ele>289.66666666666663</ele><time>2026-04-05T09:51:23.004Z</time></trkpt><trkpt lat="43.3010433" lon="11.601285"><ele>290.3333333333333</ele><time>2026-04-05T09:51:25.004Z</time></trkpt><trkpt lat="43.300975" lon="11.601295"><ele>291.0</ele><time>2026-04-05T09:51:26.004Z</time></trkpt><trkpt lat="43.3009067" lon="11.6013167"><ele>291.6666666666667</ele><time>2026-04-05T09:51:27.004Z</time></trkpt><trkpt lat="43.300835" lon="11.6013433"><ele>292.33333333333337</ele><time>2026-04-05T09:51:28.004Z</time></trkpt><trkpt lat="43.3007633" lon="11.6013817"><ele>293.0</ele><time>2026-04-05T09:51:29.004Z</time></trkpt><trkpt lat="43.3006933" lon="11.6014217"><ele>293.0</ele><time>2026-04-05T09:51:30.004Z</time></trkpt><trkpt lat="43.3006183" lon="11.6014617"><ele>293.0</ele><time>2026-04-05T09:51:31.004Z</time></trkpt><trkpt lat="43.30054" lon="11.601505"><ele>293.0</ele><time>2026-04-05T09:51:32.004Z</time></trkpt><trkpt lat="43.300445" lon="11.6015583"><ele>293.0</ele><time>2026-04-05T09:51:33.004Z</time></trkpt><trkpt lat="43.3003383" lon="11.6016217"><ele>293.0</ele><time>2026-04-05T09:51:34.004Z</time></trkpt><trkpt lat="43.3002283" lon="11.6016917"><ele>293.0</ele><time>2026-04-05T09:51:35.004Z</time></trkpt><trkpt lat="43.3001133" lon="11.601765"><ele>293.0</ele><time>2026-04-05T09:51:36.004Z</time></trkpt><trkpt lat="43.2999967" lon="11.6018483"><ele>293.0</ele><time>2026-04-05T09:51:37.004Z</time></trkpt><trkpt lat="43.2998833" lon="11.601935"><ele>293.0</ele><time>2026-04-05T09:51:38.004Z</time></trkpt><trkpt lat="43.299775" lon="11.6020217"><ele>293.0</ele><time>2026-04-05T09:51:39.004Z</time></trkpt><trkpt lat="43.2996633" lon="11.6021"><ele>293.0</ele><time>2026-04-05T09:51:40.004Z</time></trkpt><trkpt lat="43.299555" lon="11.6021717"><ele>293.0</ele><time>2026-04-05T09:51:41.004Z</time></trkpt><trkpt lat="43.2994517" lon="11.6022467"><ele>293.0</ele><time>2026-04-05T09:51:42.004Z</time></trkpt><trkpt lat="43.2993483" lon="11.6023317"><ele>293.0</ele><time>2026-04-05T09:51:43.004Z</time></trkpt><trkpt lat="43.29925" lon="11.6024283"><ele>293.0</ele><time>2026-04-05T09:51:44.004Z</time></trkpt><trkpt lat="43.2991533" lon="11.60253"><ele>293.0</ele><time>2026-04-05T09:51:45.004Z</time></trkpt><trkpt lat="43.299065" lon="11.6026367"><ele>293.0</ele><time>2026-04-05T09:51:46.004Z</time></trkpt><trkpt lat="43.2989683" lon="11.60274"><ele>293.25</ele><time>2026-04-05T09:51:47.004Z</time></trkpt><trkpt lat="43.2988783" lon="11.6028567"><ele>293.5</ele><time>2026-04-05T09:51:48.004Z</time></trkpt><trkpt lat="43.298795" lon="11.6029833"><ele>293.75</ele><time>2026-04-05T09:51:49.004Z</time></trkpt><trkpt lat="43.2987367" lon="11.6031333"><ele>294.0</ele><time>2026-04-05T09:51:50.004Z</time></trkpt><trkpt lat="43.2986933" lon="11.6032983"><ele>294.0</ele><time>2026-04-05T09:51:51.004Z</time></trkpt><trkpt lat="43.2986567" lon="11.6034633"><ele>294.0</ele><time>2026-04-05T09:51:52.004Z</time></trkpt><trkpt lat="43.2986133" lon="11.6036233"><ele>294.0</ele><time>2026-04-05T09:51:53.004Z</time></trkpt><trkpt lat="43.2985533" lon="11.603765"><ele>294.0</ele><time>2026-04-05T09:51:54.004Z</time></trkpt><trkpt lat="43.2984833" lon="11.6038917"><ele>294.75</ele><time>2026-04-05T09:51:55.004Z</time></trkpt><trkpt lat="43.298395" lon="11.604005"><ele>295.5</ele><time>2026-04-05T09:51:56.004Z</time></trkpt><trkpt lat="43.29829" lon="11.604115"><ele>296.25</ele><time>2026-04-05T09:51:57.004Z</time></trkpt><trkpt lat="43.298185" lon="11.6042233"><ele>297.0</ele><time>2026-04-05T09:51:58.004Z</time></trkpt><trkpt lat="43.298075" lon="11.60434"><ele>297.0</ele><time>2026-04-05T09:51:59.004Z</time></trkpt><trkpt lat="43.297965" lon="11.6044617"><ele>297.0</ele><time>2026-04-05T09:52:00.004Z</time></trkpt><trkpt lat="43.297855" lon="11.6045817"><ele>297.0</ele><time>2026-04-05T09:52:01.004Z</time></trkpt><trkpt lat="43.2977433" lon="11.604695"><ele>297.0</ele><time>2026-04-05T09:52:02.004Z</time></trkpt><trkpt lat="43.2976283" lon="11.60482"><ele>297.0</ele><time>2026-04-05T09:52:03.004Z</time></trkpt><trkpt lat="43.2975167" lon="11.6049483"><ele>297.0</ele><time>2026-04-05T09:52:04.004Z</time></trkpt><trkpt lat="43.2974017" lon="11.6050833"><ele>297.0</ele><time>2026-04-05T09:52:05.004Z</time></trkpt><trkpt lat="43.2972883" lon="11.6052267"><ele>298.0</ele><time>2026-04-05T09:52:06.004Z</time></trkpt><trkpt lat="43.2971733" lon="11.6053717"><ele>299.0</ele><time>2026-04-05T09:52:07.004Z</time></trkpt><trkpt lat="43.2970617" lon="11.6055167"><ele>300.0</ele><time>2026-04-05T09:52:08.004Z</time></trkpt><trkpt lat="43.296945" lon="11.6056633"><ele>300.0</ele><time>2026-04-05T09:52:09.004Z</time></trkpt><trkpt lat="43.2968233" lon="11.6058033"><ele>300.0</ele><time>2026-04-05T09:52:10.004Z</time></trkpt><trkpt lat="43.296695" lon="11.6059467"><ele>300.0</ele><time>2026-04-05T09:52:11.004Z</time></trkpt><trkpt lat="43.296565" lon="11.606075"><ele>300.5</ele><time>2026-04-05T09:52:12.004Z</time></trkpt><trkpt lat="43.2964433" lon="11.6062033"><ele>301.0</ele><time>2026-04-05T09:52:13.004Z</time></trkpt><trkpt lat="43.2963267" lon="11.606325"><ele>301.5</ele><time>2026-04-05T09:52:14.004Z</time></trkpt><trkpt lat="43.2962117" lon="11.6064433"><ele>302.0</ele><time>2026-04-05T09:52:15.004Z</time></trkpt><trkpt lat="43.2961083" lon="11.6065583"><ele>302.25</ele><time>2026-04-05T09:52:16.004Z</time></trkpt><trkpt lat="43.296005" lon="11.606665"><ele>302.5</ele><time>2026-04-05T09:52:17.004Z</time></trkpt><trkpt lat="43.2959017" lon="11.6067567"><ele>302.75</ele><time>2026-04-05T09:52:18.004Z</time></trkpt><trkpt lat="43.2957983" lon="11.60682"><ele>303.0</ele><time>2026-04-05T09:52:19.004Z</time></trkpt><trkpt lat="43.2957" lon="11.6068467"><ele>303.0</ele><time>2026-04-05T09:52:20.004Z</time></trkpt><trkpt lat="43.295615" lon="11.606845"><ele>303.0</ele><time>2026-04-05T09:52:21.004Z</time></trkpt><trkpt lat="43.2955317" lon="11.6068133"><ele>303.0</ele><time>2026-04-05T09:52:22.004Z</time></trkpt><trkpt lat="43.295445" lon="11.6067467"><ele>303.0</ele><time>2026-04-05T09:52:23.004Z</time></trkpt><trkpt lat="43.2953567" lon="11.6066517"><ele>303.0</ele><time>2026-04-05T09:52:24.004Z</time></trkpt><trkpt lat="43.29527" lon="11.60653"><ele>303.2</ele><time>2026-04-05T09:52:25.004Z</time></trkpt><trkpt lat="43.2951767" lon="11.606435"><ele>303.4</ele><time>2026-04-05T09:52:26.004Z</time></trkpt><trkpt lat="43.29507" lon="11.6063817"><ele>303.59999999999997</ele><time>2026-04-05T09:52:27.004Z</time></trkpt><trkpt lat="43.2949617" lon="11.6063667"><ele>303.8</ele><time>2026-04-05T09:52:28.004Z</time></trkpt><trkpt lat="43.2948517" lon="11.6063867"><ele>304.0</ele><time>2026-04-05T09:52:29.004Z</time></trkpt><trkpt lat="43.2947483" lon="11.6064483"><ele>304.0</ele><time>2026-04-05T09:52:30.004Z</time></trkpt><trkpt lat="43.294655" lon="11.606545"><ele>304.0</ele><time>2026-04-05T09:52:31.004Z</time></trkpt><trkpt lat="43.294575" lon="11.60667"><ele>304.0</ele><time>2026-04-05T09:52:32.004Z</time></trkpt><trkpt lat="43.2944933" lon="11.6068117"><ele>304.0</ele><time>2026-04-05T09:52:33.004Z</time></trkpt><trkpt lat="43.2944083" lon="11.6069583"><ele>304.5</ele><time>2026-04-05T09:52:34.004Z</time></trkpt><trkpt lat="43.29432" lon="11.6071083"><ele>305.0</ele><time>2026-04-05T09:52:35.004Z</time></trkpt><trkpt lat="43.2942283" lon="11.6072667"><ele>305.5</ele><time>2026-04-05T09:52:36.004Z</time></trkpt><trkpt lat="43.2941267" lon="11.6074283"><ele>306.0</ele><time>2026-04-05T09:52:37.004Z</time></trkpt><trkpt lat="43.2940333" lon="11.60759"><ele>306.0</ele><time>2026-04-05T09:52:38.004Z</time></trkpt><trkpt lat="43.2939417" lon="11.60775"><ele>306.0</ele><time>2026-04-05T09:52:39.004Z</time></trkpt><trkpt lat="43.2938483" lon="11.6079183"><ele>306.0</ele><time>2026-04-05T09:52:40.004Z</time></trkpt><trkpt lat="43.2937533" lon="11.60808"><ele>306.6666666666667</ele><time>2026-04-05T09:52:41.004Z</time></trkpt><trkpt lat="43.293655" lon="11.60825"><ele>307.33333333333337</ele><time>2026-04-05T09:52:42.004Z</time></trkpt><trkpt lat="43.293565" lon="11.6084367"><ele>308.0</ele><time>2026-04-05T09:52:43.004Z</time></trkpt><trkpt lat="43.2935" lon="11.6086283"><ele>309.0</ele><time>2026-04-05T09:52:44.004Z</time></trkpt><trkpt lat="43.2934367" lon="11.60884"><ele>310.0</ele><time>2026-04-05T09:52:45.004Z</time></trkpt><trkpt lat="43.29338" lon="11.6090483"><ele>311.0</ele><time>2026-04-05T09:52:46.004Z</time></trkpt><trkpt lat="43.2933167" lon="11.6092317"><ele>311.0</ele><time>2026-04-05T09:52:47.004Z</time></trkpt><trkpt lat="43.2932517" lon="11.60937"><ele>311.0</ele><time>2026-04-05T09:52:48.004Z</time></trkpt><trkpt lat="43.29317" lon="11.609475"><ele>311.0</ele><time>2026-04-05T09:52:49.004Z</time></trkpt><trkpt lat="43.2930817" lon="11.6095467"><ele>311.0</ele><time>2026-04-05T09:52:50.004Z</time></trkpt><trkpt lat="43.292995" lon="11.6095533"><ele>311.0</ele><time>2026-04-05T09:52:51.004Z</time></trkpt><trkpt lat="43.2929117" lon="11.6095167"><ele>310.83333333333337</ele><time>2026-04-05T09:52:52.004Z</time></trkpt><trkpt lat="43.2928467" lon="11.6094517"><ele>310.6666666666667</ele><time>2026-04-05T09:52:53.004Z</time></trkpt><trkpt lat="43.2927983" lon="11.6093717"><ele>310.5</ele><time>2026-04-05T09:52:54.004Z</time></trkpt><trkpt lat="43.2927467" lon="11.6092917"><ele>310.3333333333333</ele><time>2026-04-05T09:52:55.004Z</time></trkpt><trkpt lat="43.2926917" lon="11.6091917"><ele>310.16666666666663</ele><time>2026-04-05T09:52:56.004Z</time></trkpt><trkpt lat="43.2926267" lon="11.6090917"><ele>310.0</ele><time>2026-04-05T09:52:57.004Z</time></trkpt><trkpt lat="43.2926033" lon="11.60892"><ele>310.0</ele><time>2026-04-05T09:52:58.004Z</time></trkpt><trkpt lat="43.2926183" lon="11.6087167"><ele>310.0</ele><time>2026-04-05T09:52:59.004Z</time></trkpt><trkpt lat="43.2926333" lon="11.6085383"><ele>310.0</ele><time>2026-04-05T09:53:00.004Z</time></trkpt><trkpt lat="43.2926683" lon="11.6083733"><ele>310.0</ele><time>2026-04-05T09:53:01.004Z</time></trkpt><trkpt lat="43.2927083" lon="11.6082367"><ele>309.6</ele><time>2026-04-05T09:53:02.004Z</time></trkpt><trkpt lat="43.2927567" lon="11.6081117"><ele>309.2</ele><time>2026-04-05T09:53:03.004Z</time></trkpt><trkpt lat="43.2928067" lon="11.6079883"><ele>308.8</ele><time>2026-04-05T09:53:04.004Z</time></trkpt><trkpt lat="43.2928583" lon="11.6078617"><ele>308.4</ele><time>2026-04-05T09:53:05.004Z</time></trkpt><trkpt lat="43.2929" lon="11.6077367"><ele>308.0</ele><time>2026-04-05T09:53:06.004Z</time></trkpt><trkpt lat="43.2929417" lon="11.607605"><ele>308.0</ele><time>2026-04-05T09:53:07.004Z</time></trkpt><trkpt lat="43.2929733" lon="11.6074867"><ele>308.0</ele><time>2026-04-05T09:53:08.004Z</time></trkpt><trkpt lat="43.2929983" lon="11.607365"><ele>308.0</ele><time>2026-04-05T09:53:09.004Z</time></trkpt><trkpt lat="43.2930167" lon="11.6072483"><ele>308.0</ele><time>2026-04-05T09:53:10.004Z</time></trkpt><trkpt lat="43.2930333" lon="11.6071317"><ele>308.0</ele><time>2026-04-05T09:53:11.004Z</time></trkpt><trkpt lat="43.2930483" lon="11.6070167"><ele>308.0</ele><time>2026-04-05T09:53:12.005Z</time></trkpt><trkpt lat="43.293075" lon="11.6068933"><ele>307.4</ele><time>2026-04-05T09:53:13.004Z</time></trkpt><trkpt lat="43.2931133" lon="11.6067733"><ele>306.8</ele><time>2026-04-05T09:53:14.004Z</time></trkpt><trkpt lat="43.29314" lon="11.6066467"><ele>306.2</ele><time>2026-04-05T09:53:15.004Z</time></trkpt><trkpt lat="43.293155" lon="11.6065217"><ele>305.6</ele><time>2026-04-05T09:53:16.004Z</time></trkpt><trkpt lat="43.2931533" lon="11.6063983"><ele>305.0</ele><time>2026-04-05T09:53:17.004Z</time></trkpt><trkpt lat="43.2931283" lon="11.606275"><ele>305.33333333333337</ele><time>2026-04-05T09:53:18.004Z</time></trkpt><trkpt lat="43.2930883" lon="11.6061683"><ele>305.6666666666667</ele><time>2026-04-05T09:53:19.004Z</time></trkpt><trkpt lat="43.2930383" lon="11.6060683"><ele>306.0</ele><time>2026-04-05T09:53:20.004Z</time></trkpt><trkpt lat="43.292975" lon="11.605995"><ele>306.3333333333333</ele><time>2026-04-05T09:53:21.004Z</time></trkpt><trkpt lat="43.2929017" lon="11.6059517"><ele>306.66666666666663</ele><time>2026-04-05T09:53:22.004Z</time></trkpt><trkpt lat="43.292825" lon="11.6059267"><ele>307.0</ele><time>2026-04-05T09:53:23.004Z</time></trkpt><trkpt lat="43.2927517" lon="11.6059033"><ele>307.0</ele><time>2026-04-05T09:53:24.004Z</time></trkpt><trkpt lat="43.2926767" lon="11.6058867"><ele>307.0</ele><time>2026-04-05T09:53:25.004Z</time></trkpt><trkpt lat="43.2926" lon="11.60587"><ele>307.0</ele><time>2026-04-05T09:53:26.004Z</time></trkpt><trkpt lat="43.2925217" lon="11.6058467"><ele>307.0</ele><time>2026-04-05T09:53:27.004Z</time></trkpt><trkpt lat="43.2924417" lon="11.6058217"><ele>307.0</ele><time>2026-04-05T09:53:28.004Z</time></trkpt><trkpt lat="43.292355" lon="11.6057933"><ele>307.0</ele><time>2026-04-05T09:53:29.004Z</time></trkpt><trkpt lat="43.2922583" lon="11.6057583"><ele>307.0</ele><time>2026-04-05T09:53:30.004Z</time></trkpt><trkpt lat="43.2921633" lon="11.6057317"><ele>307.0</ele><time>2026-04-05T09:53:31.004Z</time></trkpt><trkpt lat="43.2920717" lon="11.6057"><ele>307.0</ele><time>2026-04-05T09:53:32.004Z</time></trkpt><trkpt lat="43.2919767" lon="11.6056733"><ele>307.0</ele><time>2026-04-05T09:53:33.004Z</time></trkpt><trkpt lat="43.2918767" lon="11.6056417"><ele>307.0</ele><time>2026-04-05T09:53:34.004Z</time></trkpt><trkpt lat="43.291775" lon="11.605615"><ele>307.0</ele><time>2026-04-05T09:53:35.004Z</time></trkpt><trkpt lat="43.2916767" lon="11.6055783"><ele>307.0</ele><time>2026-04-05T09:53:36.004Z</time></trkpt><trkpt lat="43.2915833" lon="11.605525"><ele>307.0</ele><time>2026-04-05T09:53:37.004Z</time></trkpt><trkpt lat="43.2915117" lon="11.6054533"><ele>307.0</ele><time>2026-04-05T09:53:38.004Z</time></trkpt><trkpt lat="43.29145" lon="11.60535"><ele>307.0</ele><time>2026-04-05T09:53:39.004Z</time></trkpt><trkpt lat="43.291395" lon="11.6052267"><ele>306.8</ele><time>2026-04-05T09:53:40.004Z</time></trkpt><trkpt lat="43.2913483" lon="11.605105"><ele>306.6</ele><time>2026-04-05T09:53:41.004Z</time></trkpt><trkpt lat="43.2913117" lon="11.6049817"><ele>306.40000000000003</ele><time>2026-04-05T09:53:42.004Z</time></trkpt><trkpt lat="43.2912817" lon="11.6048617"><ele>306.2</ele><time>2026-04-05T09:53:43.004Z</time></trkpt><trkpt lat="43.2912583" lon="11.6047533"><ele>306.0</ele><time>2026-04-05T09:53:44.004Z</time></trkpt><trkpt lat="43.29123" lon="11.604605"><ele>306.0</ele><time>2026-04-05T09:53:46.004Z</time></trkpt><trkpt lat="43.2912083" lon="11.604505"><ele>306.0</ele><time>2026-04-05T09:54:07.004Z</time></trkpt><trkpt lat="43.291115" lon="11.6044833"><ele>306.0</ele><time>2026-04-05T09:54:09.004Z</time></trkpt><trkpt lat="43.2909783" lon="11.60453"><ele>306.0</ele><time>2026-04-05T09:54:11.004Z</time></trkpt><trkpt lat="43.2908917" lon="11.6045567"><ele>306.0</ele><time>2026-04-05T09:54:12.004Z</time></trkpt><trkpt lat="43.290805" lon="11.6046"><ele>306.0</ele><time>2026-04-05T09:54:13.004Z</time></trkpt><trkpt lat="43.2907167" lon="11.6046333"><ele>306.0</ele><time>2026-04-05T09:54:14.004Z</time></trkpt><trkpt lat="43.290625" lon="11.6046717"><ele>306.0</ele><time>2026-04-05T09:54:15.004Z</time></trkpt><trkpt lat="43.2905267" lon="11.60471"><ele>306.0</ele><time>2026-04-05T09:54:16.004Z</time></trkpt><trkpt lat="43.2904317" lon="11.6047467"><ele>306.0</ele><time>2026-04-05T09:54:17.004Z</time></trkpt><trkpt lat="43.2903317" lon="11.6047767"><ele>307.6</ele><time>2026-04-05T09:54:18.004Z</time></trkpt><trkpt lat="43.2902333" lon="11.6048067"><ele>309.20000000000005</ele><time>2026-04-05T09:54:19.004Z</time></trkpt><trkpt lat="43.2901383" lon="11.6048317"><ele>310.79999999999995</ele><time>2026-04-05T09:54:20.004Z</time></trkpt><trkpt lat="43.2900467" lon="11.6048367"><ele>312.4</ele><time>2026-04-05T09:54:21.003Z</time></trkpt><trkpt lat="43.289965" lon="11.604825"><ele>314.0</ele><time>2026-04-05T09:54:22.004Z</time></trkpt><trkpt lat="43.28989" lon="11.60479"><ele>314.0</ele><time>2026-04-05T09:54:23.004Z</time></trkpt><trkpt lat="43.2898183" lon="11.6047333"><ele>314.0</ele><time>2026-04-05T09:54:24.004Z</time></trkpt><trkpt lat="43.289755" lon="11.60468"><ele>314.0</ele><time>2026-04-05T09:54:25.004Z</time></trkpt><trkpt lat="43.2896833" lon="11.6046567"><ele>314.0</ele><time>2026-04-05T09:54:26.004Z</time></trkpt><trkpt lat="43.2896133" lon="11.6046683"><ele>314.0</ele><time>2026-04-05T09:54:27.004Z</time></trkpt><trkpt lat="43.2895383" lon="11.6046883"><ele>314.0</ele><time>2026-04-05T09:54:28.004Z</time></trkpt><trkpt lat="43.2894533" lon="11.604685"><ele>315.4</ele><time>2026-04-05T09:54:29.004Z</time></trkpt><trkpt lat="43.2893633" lon="11.6046733"><ele>316.79999999999995</ele><time>2026-04-05T09:54:30.004Z</time></trkpt><trkpt lat="43.289255" lon="11.604655"><ele>318.20000000000005</ele><time>2026-04-05T09:54:31.004Z</time></trkpt><trkpt lat="43.28915" lon="11.6046333"><ele>319.6</ele><time>2026-04-05T09:54:32.004Z</time></trkpt><trkpt lat="43.2890383" lon="11.6046167"><ele>321.0</ele><time>2026-04-05T09:54:33.004Z</time></trkpt><trkpt lat="43.2889167" lon="11.6046083"><ele>321.25</ele><time>2026-04-05T09:54:34.004Z</time></trkpt><trkpt lat="43.2887867" lon="11.6045817"><ele>321.5</ele><time>2026-04-05T09:54:35.004Z</time></trkpt><trkpt lat="43.288665" lon="11.604565"><ele>321.75</ele><time>2026-04-05T09:54:36.004Z</time></trkpt><trkpt lat="43.2885417" lon="11.604545"><ele>322.0</ele><time>2026-04-05T09:54:37.004Z</time></trkpt><trkpt lat="43.2884133" lon="11.6045267"><ele>323.0</ele><time>2026-04-05T09:54:38.004Z</time></trkpt><trkpt lat="43.2882767" lon="11.604495"><ele>324.0</ele><time>2026-04-05T09:54:39.004Z</time></trkpt><trkpt lat="43.2881467" lon="11.6044783"><ele>325.0</ele><time>2026-04-05T09:54:40.004Z</time></trkpt><trkpt lat="43.2880233" lon="11.6044583"><ele>326.0</ele><time>2026-04-05T09:54:41.004Z</time></trkpt><trkpt lat="43.2879067" lon="11.604445"><ele>326.0</ele><time>2026-04-05T09:54:42.004Z</time></trkpt><trkpt lat="43.2878033" lon="11.6044417"><ele>326.0</ele><time>2026-04-05T09:54:43.004Z</time></trkpt><trkpt lat="43.2877" lon="11.6044433"><ele>326.0</ele><time>2026-04-05T09:54:44.004Z</time></trkpt><trkpt lat="43.2876133" lon="11.60445"><ele>326.0</ele><time>2026-04-05T09:54:45.004Z</time></trkpt><trkpt lat="43.28753" lon="11.6044667"><ele>326.0</ele><time>2026-04-05T09:54:46.004Z</time></trkpt><trkpt lat="43.2874583" lon="11.6044683"><ele>326.0</ele><time>2026-04-05T09:54:47.004Z</time></trkpt><trkpt lat="43.2873833" lon="11.6044717"><ele>326.0</ele><time>2026-04-05T09:54:48.004Z</time></trkpt><trkpt lat="43.2872967" lon="11.6044583"><ele>326.0</ele><time>2026-04-05T09:54:49.004Z</time></trkpt><trkpt lat="43.2872083" lon="11.6044433"><ele>326.0</ele><time>2026-04-05T09:54:50.004Z</time></trkpt><trkpt lat="43.2871067" lon="11.60442"><ele>326.0</ele><time>2026-04-05T09:54:51.004Z</time></trkpt><trkpt lat="43.2870083" lon="11.6044067"><ele>326.0</ele><time>2026-04-05T09:54:52.004Z</time></trkpt><trkpt lat="43.286905" lon="11.6043883"><ele>325.8</ele><time>2026-04-05T09:54:53.004Z</time></trkpt><trkpt lat="43.286795" lon="11.60435"><ele>325.6</ele><time>2026-04-05T09:54:54.004Z</time></trkpt><trkpt lat="43.28669" lon="11.6043367"><ele>325.4</ele><time>2026-04-05T09:54:55.004Z</time></trkpt><trkpt lat="43.2865917" lon="11.6043167"><ele>325.2</ele><time>2026-04-05T09:54:56.004Z</time></trkpt><trkpt lat="43.2864883" lon="11.6042867"><ele>325.0</ele><time>2026-04-05T09:54:57.004Z</time></trkpt><trkpt lat="43.286405" lon="11.6042783"><ele>323.16666666666663</ele><time>2026-04-05T09:54:58.004Z</time></trkpt><trkpt lat="43.286325" lon="11.6042917"><ele>321.3333333333333</ele><time>2026-04-05T09:54:59.004Z</time></trkpt><trkpt lat="43.2862433" lon="11.604305"><ele>319.5</ele><time>2026-04-05T09:55:00.004Z</time></trkpt><trkpt lat="43.2861667" lon="11.6043217"><ele>317.6666666666667</ele><time>2026-04-05T09:55:01.004Z</time></trkpt><trkpt lat="43.2860733" lon="11.60435"><ele>315.83333333333337</ele><time>2026-04-05T09:55:02.004Z</time></trkpt><trkpt lat="43.2859633" lon="11.6043733"><ele>314.0</ele><time>2026-04-05T09:55:03.004Z</time></trkpt><trkpt lat="43.2858467" lon="11.6044133"><ele>314.0</ele><time>2026-04-05T09:55:04.004Z</time></trkpt><trkpt lat="43.2857367" lon="11.6044467"><ele>314.0</ele><time>2026-04-05T09:55:05.004Z</time></trkpt><trkpt lat="43.2856167" lon="11.604495"><ele>314.0</ele><time>2026-04-05T09:55:06.004Z</time></trkpt><trkpt lat="43.285495" lon="11.60453"><ele>314.0</ele><time>2026-04-05T09:55:07.004Z</time></trkpt><trkpt lat="43.285385" lon="11.6045767"><ele>313.8</ele><time>2026-04-05T09:55:08.004Z</time></trkpt><trkpt lat="43.2852767" lon="11.6046167"><ele>313.59999999999997</ele><time>2026-04-05T09:55:09.004Z</time></trkpt><trkpt lat="43.285165" lon="11.6046467"><ele>313.4</ele><time>2026-04-05T09:55:10.004Z</time></trkpt><trkpt lat="43.2850617" lon="11.604685"><ele>313.2</ele><time>2026-04-05T09:55:11.004Z</time></trkpt><trkpt lat="43.2849567" lon="11.6046917"><ele>313.0</ele><time>2026-04-05T09:55:12.004Z</time></trkpt><trkpt lat="43.2848583" lon="11.6047317"><ele>313.4</ele><time>2026-04-05T09:55:13.004Z</time></trkpt><trkpt lat="43.28476" lon="11.6047583"><ele>313.8</ele><time>2026-04-05T09:55:14.004Z</time></trkpt><trkpt lat="43.2846717" lon="11.6047833"><ele>314.2</ele><time>2026-04-05T09:55:15.004Z</time></trkpt><trkpt lat="43.2845817" lon="11.6048217"><ele>314.6</ele><time>2026-04-05T09:55:16.004Z</time></trkpt><trkpt lat="43.28449" lon="11.60485"><ele>315.0</ele><time>2026-04-05T09:55:17.004Z</time></trkpt><trkpt lat="43.28439" lon="11.6048933"><ele>315.0</ele><time>2026-04-05T09:55:18.004Z</time></trkpt><trkpt lat="43.284285" lon="11.6049267"><ele>315.0</ele><time>2026-04-05T09:55:19.004Z</time></trkpt><trkpt lat="43.28418" lon="11.6049617"><ele>315.0</ele><time>2026-04-05T09:55:20.004Z</time></trkpt><trkpt lat="43.2840717" lon="11.6049983"><ele>315.0</ele><time>2026-04-05T09:55:21.004Z</time></trkpt><trkpt lat="43.2839667" lon="11.6050267"><ele>315.0</ele><time>2026-04-05T09:55:22.004Z</time></trkpt><trkpt lat="43.283865" lon="11.6050617"><ele>315.2</ele><time>2026-04-05T09:55:23.004Z</time></trkpt><trkpt lat="43.2837683" lon="11.6051017"><ele>315.4</ele><time>2026-04-05T09:55:24.004Z</time></trkpt><trkpt lat="43.2836683" lon="11.60514"><ele>315.6</ele><time>2026-04-05T09:55:25.004Z</time></trkpt><trkpt lat="43.2835683" lon="11.6051667"><ele>315.8</ele><time>2026-04-05T09:55:26.004Z</time></trkpt><trkpt lat="43.2834667" lon="11.6051817"><ele>316.0</ele><time>2026-04-05T09:55:27.004Z</time></trkpt><trkpt lat="43.283365" lon="11.6051983"><ele>316.0</ele><time>2026-04-05T09:55:28.004Z</time></trkpt><trkpt lat="43.2832717" lon="11.60524"><ele>316.0</ele><time>2026-04-05T09:55:29.004Z</time></trkpt><trkpt lat="43.2831817" lon="11.6052917"><ele>316.0</ele><time>2026-04-05T09:55:30.004Z</time></trkpt><trkpt lat="43.2831017" lon="11.6053383"><ele>316.0</ele><time>2026-04-05T09:55:31.004Z</time></trkpt><trkpt lat="43.283035" lon="11.605395"><ele>316.0</ele><time>2026-04-05T09:55:32.004Z</time></trkpt><trkpt lat="43.2829717" lon="11.6054817"><ele>316.6</ele><time>2026-04-05T09:55:33.004Z</time></trkpt><trkpt lat="43.28291" lon="11.605595"><ele>317.20000000000005</ele><time>2026-04-05T09:55:34.004Z</time></trkpt><trkpt lat="43.282855" lon="11.605715"><ele>317.79999999999995</ele><time>2026-04-05T09:55:35.004Z</time></trkpt><trkpt lat="43.282785" lon="11.605845"><ele>318.4</ele><time>2026-04-05T09:55:36.004Z</time></trkpt><trkpt lat="43.28271" lon="11.6059733"><ele>319.0</ele><time>2026-04-05T09:55:37.004Z</time></trkpt><trkpt lat="43.2826267" lon="11.6061"><ele>319.5</ele><time>2026-04-05T09:55:38.004Z</time></trkpt><trkpt lat="43.2825367" lon="11.60623"><ele>320.0</ele><time>2026-04-05T09:55:39.004Z</time></trkpt><trkpt lat="43.2824367" lon="11.6063517"><ele>320.5</ele><time>2026-04-05T09:55:40.004Z</time></trkpt><trkpt lat="43.2823333" lon="11.60648"><ele>321.0</ele><time>2026-04-05T09:55:41.004Z</time></trkpt><trkpt lat="43.2822283" lon="11.6066067"><ele>321.0</ele><time>2026-04-05T09:55:42.004Z</time></trkpt><trkpt lat="43.2821283" lon="11.606725"><ele>321.0</ele><time>2026-04-05T09:55:43.004Z</time></trkpt><trkpt lat="43.282025" lon="11.6068617"><ele>321.0</ele><time>2026-04-05T09:55:44.004Z</time></trkpt><trkpt lat="43.2819217" lon="11.6069883"><ele>321.0</ele><time>2026-04-05T09:55:45.004Z</time></trkpt><trkpt lat="43.2818183" lon="11.6071167"><ele>321.0</ele><time>2026-04-05T09:55:46.004Z</time></trkpt><trkpt lat="43.2817117" lon="11.6072467"><ele>321.0</ele><time>2026-04-05T09:55:47.004Z</time></trkpt><trkpt lat="43.2816033" lon="11.6073767"><ele>321.0</ele><time>2026-04-05T09:55:48.004Z</time></trkpt><trkpt lat="43.2814917" lon="11.6075017"><ele>321.0</ele><time>2026-04-05T09:55:49.004Z</time></trkpt><trkpt lat="43.28138" lon="11.607625"><ele>321.75</ele><time>2026-04-05T09:55:50.004Z</time></trkpt><trkpt lat="43.28126" lon="11.6077417"><ele>322.5</ele><time>2026-04-05T09:55:51.004Z</time></trkpt><trkpt lat="43.2811417" lon="11.607855"><ele>323.25</ele><time>2026-04-05T09:55:52.004Z</time></trkpt><trkpt lat="43.2810233" lon="11.6079583"><ele>324.0</ele><time>2026-04-05T09:55:53.004Z</time></trkpt><trkpt lat="43.2809133" lon="11.608065"><ele>325.0</ele><time>2026-04-05T09:55:54.004Z</time></trkpt><trkpt lat="43.2808183" lon="11.6081833"><ele>326.0</ele><time>2026-04-05T09:55:55.004Z</time></trkpt><trkpt lat="43.2807533" lon="11.608315"><ele>327.0</ele><time>2026-04-05T09:55:56.004Z</time></trkpt><trkpt lat="43.280725" lon="11.6084617"><ele>328.0</ele><time>2026-04-05T09:55:57.004Z</time></trkpt><trkpt lat="43.2807083" lon="11.6086333"><ele>328.75</ele><time>2026-04-05T09:55:58.004Z</time></trkpt><trkpt lat="43.2807067" lon="11.6088067"><ele>329.5</ele><time>2026-04-05T09:55:59.004Z</time></trkpt><trkpt lat="43.2807" lon="11.60899"><ele>330.25</ele><time>2026-04-05T09:56:00.004Z</time></trkpt><trkpt lat="43.280695" lon="11.6091617"><ele>331.0</ele><time>2026-04-05T09:56:01.004Z</time></trkpt><trkpt lat="43.2806867" lon="11.6093433"><ele>332.25</ele><time>2026-04-05T09:56:02.004Z</time></trkpt><trkpt lat="43.28069" lon="11.6095167"><ele>333.5</ele><time>2026-04-05T09:56:03.004Z</time></trkpt><trkpt lat="43.2807117" lon="11.6096917"><ele>334.75</ele><time>2026-04-05T09:56:04.004Z</time></trkpt><trkpt lat="43.2807583" lon="11.60985"><ele>336.0</ele><time>2026-04-05T09:56:05.004Z</time></trkpt><trkpt lat="43.28082" lon="11.609985"><ele>336.0</ele><time>2026-04-05T09:56:06.004Z</time></trkpt><trkpt lat="43.2808917" lon="11.61011"><ele>336.0</ele><time>2026-04-05T09:56:07.004Z</time></trkpt><trkpt lat="43.2809633" lon="11.6102333"><ele>336.0</ele><time>2026-04-05T09:56:08.004Z</time></trkpt><trkpt lat="43.2810283" lon="11.610345"><ele>336.0</ele><time>2026-04-05T09:56:09.004Z</time></trkpt><trkpt lat="43.28108" lon="11.6104467"><ele>336.0</ele><time>2026-04-05T09:56:10.004Z</time></trkpt><trkpt lat="43.2811117" lon="11.6105333"><ele>339.20000000000005</ele><time>2026-04-05T09:56:11.004Z</time></trkpt><trkpt lat="43.2811" lon="11.610685"><ele>342.40000000000003</ele><time>2026-04-05T09:56:13.004Z</time></trkpt><trkpt lat="43.281015" lon="11.6106883"><ele>345.6</ele><time>2026-04-05T09:56:15.004Z</time></trkpt><trkpt lat="43.280945" lon="11.6105983"><ele>348.8</ele><time>2026-04-05T09:56:16.004Z</time></trkpt><trkpt lat="43.280865" lon="11.6104583"><ele>352.0</ele><time>2026-04-05T09:56:17.004Z</time></trkpt><trkpt lat="43.2807783" lon="11.6103417"><ele>349.75</ele><time>2026-04-05T09:56:18.004Z</time></trkpt><trkpt lat="43.280685" lon="11.6102367"><ele>347.5</ele><time>2026-04-05T09:56:19.004Z</time></trkpt><trkpt lat="43.2805683" lon="11.6101567"><ele>345.25</ele><time>2026-04-05T09:56:20.004Z</time></trkpt><trkpt lat="43.2804367" lon="11.6101083"><ele>343.0</ele><time>2026-04-05T09:56:21.004Z</time></trkpt><trkpt lat="43.28029" lon="11.6100733"><ele>343.0</ele><time>2026-04-05T09:56:22.004Z</time></trkpt><trkpt lat="43.2801483" lon="11.6100383"><ele>343.0</ele><time>2026-04-05T09:56:23.004Z</time></trkpt><trkpt lat="43.2800167" lon="11.6100233"><ele>343.0</ele><time>2026-04-05T09:56:24.005Z</time></trkpt><trkpt lat="43.2798817" lon="11.61003"><ele>343.0</ele><time>2026-04-05T09:56:25.004Z</time></trkpt><trkpt lat="43.27973" lon="11.6100533"><ele>343.5</ele><time>2026-04-05T09:56:26.004Z</time></trkpt><trkpt lat="43.279585" lon="11.6100917"><ele>344.0</ele><time>2026-04-05T09:56:27.004Z</time></trkpt><trkpt lat="43.2794417" lon="11.6101417"><ele>344.5</ele><time>2026-04-05T09:56:28.004Z</time></trkpt><trkpt lat="43.2793017" lon="11.6102017"><ele>345.0</ele><time>2026-04-05T09:56:29.004Z</time></trkpt><trkpt lat="43.2791567" lon="11.6102517"><ele>345.0</ele><time>2026-04-05T09:56:30.004Z</time></trkpt><trkpt lat="43.2790017" lon="11.61031"><ele>345.0</ele><time>2026-04-05T09:56:31.004Z</time></trkpt><trkpt lat="43.2788567" lon="11.6103917"><ele>345.0</ele><time>2026-04-05T09:56:32.004Z</time></trkpt><trkpt lat="43.2787167" lon="11.610475"><ele>347.5</ele><time>2026-04-05T09:56:33.004Z</time></trkpt><trkpt lat="43.2785767" lon="11.61056"><ele>350.0</ele><time>2026-04-05T09:56:34.004Z</time></trkpt><trkpt lat="43.27845" lon="11.61065"><ele>352.5</ele><time>2026-04-05T09:56:35.004Z</time></trkpt><trkpt lat="43.2783167" lon="11.61075"><ele>355.0</ele><time>2026-04-05T09:56:36.004Z</time></trkpt><trkpt lat="43.278205" lon="11.6108633"><ele>355.0</ele><time>2026-04-05T09:56:37.004Z</time></trkpt><trkpt lat="43.2781067" lon="11.6109967"><ele>355.0</ele><time>2026-04-05T09:56:38.004Z</time></trkpt><trkpt lat="43.2780117" lon="11.6111467"><ele>355.0</ele><time>2026-04-05T09:56:39.004Z</time></trkpt><trkpt lat="43.2779217" lon="11.6113167"><ele>355.0</ele><time>2026-04-05T09:56:40.004Z</time></trkpt><trkpt lat="43.2778317" lon="11.611485"><ele>355.3333333333333</ele><time>2026-04-05T09:56:41.004Z</time></trkpt><trkpt lat="43.2777333" lon="11.6116533"><ele>355.6666666666667</ele><time>2026-04-05T09:56:42.004Z</time></trkpt><trkpt lat="43.27763" lon="11.6118067"><ele>356.0</ele><time>2026-04-05T09:56:43.004Z</time></trkpt><trkpt lat="43.2775183" lon="11.6119517"><ele>359.6666666666667</ele><time>2026-04-05T09:56:44.004Z</time></trkpt><trkpt lat="43.2773833" lon="11.6120767"><ele>363.3333333333333</ele><time>2026-04-05T09:56:45.004Z</time></trkpt><trkpt lat="43.277235" lon="11.6121833"><ele>367.0</ele><time>2026-04-05T09:56:46.004Z</time></trkpt><trkpt lat="43.2770833" lon="11.6122783"><ele>367.0</ele><time>2026-04-05T09:56:47.004Z</time></trkpt><trkpt lat="43.2769333" lon="11.612375"><ele>367.0</ele><time>2026-04-05T09:56:48.004Z</time></trkpt><trkpt lat="43.2767917" lon="11.61248"><ele>367.0</ele><time>2026-04-05T09:56:49.004Z</time></trkpt><trkpt lat="43.2766583" lon="11.612605"><ele>367.0</ele><time>2026-04-05T09:56:50.003Z</time></trkpt><trkpt lat="43.2765383" lon="11.6127433"><ele>367.0</ele><time>2026-04-05T09:56:51.003Z</time></trkpt><trkpt lat="43.2764233" lon="11.61289"><ele>367.0</ele><time>2026-04-05T09:56:52.003Z</time></trkpt><trkpt lat="43.2763133" lon="11.613045"><ele>368.25</ele><time>2026-04-05T09:56:53.003Z</time></trkpt><trkpt lat="43.27621" lon="11.6131917"><ele>369.5</ele><time>2026-04-05T09:56:54.003Z</time></trkpt><trkpt lat="43.276115" lon="11.6133367"><ele>370.75</ele><time>2026-04-05T09:56:55.003Z</time></trkpt><trkpt lat="43.2760367" lon="11.6134833"><ele>372.0</ele><time>2026-04-05T09:56:56.003Z</time></trkpt><trkpt lat="43.27599" lon="11.613635"><ele>372.75</ele><time>2026-04-05T09:56:57.003Z</time></trkpt><trkpt lat="43.2759617" lon="11.6138067"><ele>373.5</ele><time>2026-04-05T09:56:58.003Z</time></trkpt><trkpt lat="43.2759417" lon="11.6139833"><ele>374.25</ele><time>2026-04-05T09:56:59.003Z</time></trkpt><trkpt lat="43.27592" lon="11.61414"><ele>375.0</ele><time>2026-04-05T09:57:00.003Z</time></trkpt><trkpt lat="43.275885" lon="11.6143033"><ele>375.0</ele><time>2026-04-05T09:57:01.003Z</time></trkpt><trkpt lat="43.2758233" lon="11.6144717"><ele>375.0</ele><time>2026-04-05T09:57:02.003Z</time></trkpt><trkpt lat="43.2757333" lon="11.614635"><ele>375.0</ele><time>2026-04-05T09:57:03.003Z</time></trkpt><trkpt lat="43.275635" lon="11.614775"><ele>375.0</ele><time>2026-04-05T09:57:04.003Z</time></trkpt><trkpt lat="43.2755317" lon="11.6149017"><ele>372.25</ele><time>2026-04-05T09:57:05.003Z</time></trkpt><trkpt lat="43.2754267" lon="11.61503"><ele>369.5</ele><time>2026-04-05T09:57:06.003Z</time></trkpt><trkpt lat="43.2753217" lon="11.615155"><ele>366.75</ele><time>2026-04-05T09:57:07.003Z</time></trkpt><trkpt lat="43.2752267" lon="11.6152833"><ele>364.0</ele><time>2026-04-05T09:57:08.003Z</time></trkpt><trkpt lat="43.2751433" lon="11.61542"><ele>363.25</ele><time>2026-04-05T09:57:09.003Z</time></trkpt><trkpt lat="43.2750717" lon="11.6155717"><ele>362.5</ele><time>2026-04-05T09:57:10.003Z</time></trkpt><trkpt lat="43.2750033" lon="11.61573"><ele>361.75</ele><time>2026-04-05T09:57:11.003Z</time></trkpt><trkpt lat="43.274935" lon="11.6158617"><ele>361.0</ele><time>2026-04-05T09:57:12.003Z</time></trkpt><trkpt lat="43.2748517" lon="11.615965"><ele>361.25</ele><time>2026-04-05T09:57:13.003Z</time></trkpt><trkpt lat="43.27474" lon="11.6160417"><ele>361.5</ele><time>2026-04-05T09:57:14.003Z</time></trkpt><trkpt lat="43.2746133" lon="11.6160933"><ele>361.75</ele><time>2026-04-05T09:57:15.003Z</time></trkpt><trkpt lat="43.2744867" lon="11.6161317"><ele>362.0</ele><time>2026-04-05T09:57:16.003Z</time></trkpt><trkpt lat="43.27436" lon="11.6161717"><ele>362.0</ele><time>2026-04-05T09:57:17.003Z</time></trkpt><trkpt lat="43.274235" lon="11.61621"><ele>362.0</ele><time>2026-04-05T09:57:18.003Z</time></trkpt><trkpt lat="43.2741183" lon="11.6162733"><ele>362.0</ele><time>2026-04-05T09:57:19.003Z</time></trkpt><trkpt lat="43.2739967" lon="11.6163567"><ele>362.0</ele><time>2026-04-05T09:57:20.003Z</time></trkpt><trkpt lat="43.273875" lon="11.6164617"><ele>361.5</ele><time>2026-04-05T09:57:21.003Z</time></trkpt><trkpt lat="43.273765" lon="11.6165867"><ele>361.0</ele><time>2026-04-05T09:57:22.003Z</time></trkpt><trkpt lat="43.2736567" lon="11.61673"><ele>360.5</ele><time>2026-04-05T09:57:23.003Z</time></trkpt><trkpt lat="43.2735417" lon="11.6168667"><ele>360.0</ele><time>2026-04-05T09:57:24.003Z</time></trkpt><trkpt lat="43.273425" lon="11.6170083"><ele>360.0</ele><time>2026-04-05T09:57:25.003Z</time></trkpt><trkpt lat="43.2733133" lon="11.617155"><ele>360.0</ele><time>2026-04-05T09:57:26.003Z</time></trkpt><trkpt lat="43.2732117" lon="11.6173017"><ele>360.0</ele><time>2026-04-05T09:57:27.003Z</time></trkpt><trkpt lat="43.2731167" lon="11.61747"><ele>357.6666666666667</ele><time>2026-04-05T09:57:28.003Z</time></trkpt><trkpt lat="43.273035" lon="11.6176483"><ele>355.33333333333337</ele><time>2026-04-05T09:57:29.003Z</time></trkpt><trkpt lat="43.2729633" lon="11.6178483"><ele>353.0</ele><time>2026-04-05T09:57:30.003Z</time></trkpt><trkpt lat="43.2728933" lon="11.6180433"><ele>350.6666666666667</ele><time>2026-04-05T09:57:31.003Z</time></trkpt><trkpt lat="43.2728267" lon="11.6182333"><ele>348.3333333333333</ele><time>2026-04-05T09:57:32.003Z</time></trkpt><trkpt lat="43.2727583" lon="11.61842"><ele>346.0</ele><time>2026-04-05T09:57:33.003Z</time></trkpt><trkpt lat="43.2727033" lon="11.61861"><ele>345.5</ele><time>2026-04-05T09:57:34.003Z</time></trkpt><trkpt lat="43.272655" lon="11.6188033"><ele>345.0</ele><time>2026-04-05T09:57:35.003Z</time></trkpt><trkpt lat="43.2726183" lon="11.6189867"><ele>344.5</ele><time>2026-04-05T09:57:36.003Z</time></trkpt><trkpt lat="43.2725783" lon="11.619175"><ele>344.0</ele><time>2026-04-05T09:57:37.003Z</time></trkpt><trkpt lat="43.2725367" lon="11.619355"><ele>344.6666666666667</ele><time>2026-04-05T09:57:38.003Z</time></trkpt><trkpt lat="43.272465" lon="11.6195267"><ele>345.3333333333333</ele><time>2026-04-05T09:57:39.003Z</time></trkpt><trkpt lat="43.2723683" lon="11.6196933"><ele>346.0</ele><time>2026-04-05T09:57:40.003Z</time></trkpt><trkpt lat="43.27226" lon="11.6198517"><ele>346.0</ele><time>2026-04-05T09:57:41.003Z</time></trkpt><trkpt lat="43.2721483" lon="11.620005"><ele>346.0</ele><time>2026-04-05T09:57:42.003Z</time></trkpt><trkpt lat="43.2720417" lon="11.6201633"><ele>346.0</ele><time>2026-04-05T09:57:43.003Z</time></trkpt><trkpt lat="43.2719333" lon="11.620315"><ele>343.0</ele><time>2026-04-05T09:57:44.003Z</time></trkpt><trkpt lat="43.2718317" lon="11.62047"><ele>340.0</ele><time>2026-04-05T09:57:45.003Z</time></trkpt><trkpt lat="43.271725" lon="11.6206267"><ele>337.0</ele><time>2026-04-05T09:57:46.003Z</time></trkpt><trkpt lat="43.2716217" lon="11.6207783"><ele>337.0</ele><time>2026-04-05T09:57:47.003Z</time></trkpt><trkpt lat="43.271515" lon="11.620935"><ele>337.0</ele><time>2026-04-05T09:57:48.003Z</time></trkpt><trkpt lat="43.2714133" lon="11.6210833"><ele>337.0</ele><time>2026-04-05T09:57:49.003Z</time></trkpt><trkpt lat="43.2713133" lon="11.621235"><ele>336.0</ele><time>2026-04-05T09:57:50.003Z</time></trkpt><trkpt lat="43.2712133" lon="11.621385"><ele>335.0</ele><time>2026-04-05T09:57:51.003Z</time></trkpt><trkpt lat="43.271105" lon="11.6215367"><ele>334.0</ele><time>2026-04-05T09:57:52.003Z</time></trkpt><trkpt lat="43.27099" lon="11.621685"><ele>334.0</ele><time>2026-04-05T09:57:53.003Z</time></trkpt><trkpt lat="43.2708733" lon="11.6218283"><ele>334.0</ele><time>2026-04-05T09:57:54.003Z</time></trkpt><trkpt lat="43.270755" lon="11.6219683"><ele>334.0</ele><time>2026-04-05T09:57:55.003Z</time></trkpt><trkpt lat="43.27063" lon="11.622105"><ele>331.3333333333333</ele><time>2026-04-05T09:57:56.003Z</time></trkpt><trkpt lat="43.2705033" lon="11.6222433"><ele>328.6666666666667</ele><time>2026-04-05T09:57:57.003Z</time></trkpt><trkpt lat="43.2703767" lon="11.62238"><ele>326.0</ele><time>2026-04-05T09:57:58.003Z</time></trkpt><trkpt lat="43.2702517" lon="11.6225217"><ele>326.0</ele><time>2026-04-05T09:57:59.003Z</time></trkpt><trkpt lat="43.2701233" lon="11.62266"><ele>326.0</ele><time>2026-04-05T09:58:00.003Z</time></trkpt><trkpt lat="43.269995" lon="11.622805"><ele>326.0</ele><time>2026-04-05T09:58:01.003Z</time></trkpt><trkpt lat="43.26987" lon="11.6229467"><ele>323.33333333333337</ele><time>2026-04-05T09:58:02.003Z</time></trkpt><trkpt lat="43.26974" lon="11.62309"><ele>320.6666666666667</ele><time>2026-04-05T09:58:03.003Z</time></trkpt><trkpt lat="43.2696133" lon="11.6232433"><ele>318.0</ele><time>2026-04-05T09:58:04.003Z</time></trkpt><trkpt lat="43.269485" lon="11.6234117"><ele>318.0</ele><time>2026-04-05T09:58:05.003Z</time></trkpt><trkpt lat="43.2693667" lon="11.6235917"><ele>318.0</ele><time>2026-04-05T09:58:06.003Z</time></trkpt><trkpt lat="43.2692517" lon="11.623775"><ele>318.0</ele><time>2026-04-05T09:58:07.003Z</time></trkpt><trkpt lat="43.26914" lon="11.6239533"><ele>316.6666666666667</ele><time>2026-04-05T09:58:08.003Z</time></trkpt><trkpt lat="43.2690283" lon="11.624125"><ele>315.33333333333337</ele><time>2026-04-05T09:58:09.003Z</time></trkpt><trkpt lat="43.26892" lon="11.6242917"><ele>314.0</ele><time>2026-04-05T09:58:10.003Z</time></trkpt><trkpt lat="43.26882" lon="11.6244567"><ele>312.75</ele><time>2026-04-05T09:58:11.003Z</time></trkpt><trkpt lat="43.2687217" lon="11.624615"><ele>311.5</ele><time>2026-04-05T09:58:12.003Z</time></trkpt><trkpt lat="43.2686233" lon="11.6247717"><ele>310.25</ele><time>2026-04-05T09:58:13.003Z</time></trkpt><trkpt lat="43.2685317" lon="11.6249183"><ele>309.0</ele><time>2026-04-05T09:58:14.003Z</time></trkpt><trkpt lat="43.2684433" lon="11.6250567"><ele>309.0</ele><time>2026-04-05T09:58:15.003Z</time></trkpt><trkpt lat="43.2683667" lon="11.6251883"><ele>309.0</ele><time>2026-04-05T09:58:16.003Z</time></trkpt><trkpt lat="43.2682883" lon="11.6253017"><ele>309.0</ele><time>2026-04-05T09:58:17.003Z</time></trkpt><trkpt lat="43.2682117" lon="11.6253917"><ele>309.0</ele><time>2026-04-05T09:58:18.003Z</time></trkpt><trkpt lat="43.2681333" lon="11.62547"><ele>309.0</ele><time>2026-04-05T09:58:19.003Z</time></trkpt><trkpt lat="43.2680517" lon="11.6255183"><ele>309.0</ele><time>2026-04-05T09:58:20.003Z</time></trkpt><trkpt lat="43.2679633" lon="11.62555"><ele>309.0</ele><time>2026-04-05T09:58:21.003Z</time></trkpt><trkpt lat="43.2678783" lon="11.6255717"><ele>309.0</ele><time>2026-04-05T09:58:22.003Z</time></trkpt><trkpt lat="43.2677983" lon="11.625605"><ele>309.0</ele><time>2026-04-05T09:58:23.003Z</time></trkpt><trkpt lat="43.2677333" lon="11.625655"><ele>309.0</ele><time>2026-04-05T09:58:24.003Z</time></trkpt><trkpt lat="43.2676883" lon="11.6257233"><ele>309.0</ele><time>2026-04-05T09:58:25.003Z</time></trkpt><trkpt lat="43.2676617" lon="11.6258067"><ele>309.00000000000006</ele><time>2026-04-05T09:58:26.003Z</time></trkpt><trkpt lat="43.2676517" lon="11.6259"><ele>309.0</ele><time>2026-04-05T09:58:27.003Z</time></trkpt><trkpt lat="43.2676533" lon="11.626"><ele>309.0</ele><time>2026-04-05T09:58:28.003Z</time></trkpt><trkpt lat="43.26767" lon="11.6260983"><ele>309.0</ele><time>2026-04-05T09:58:29.003Z</time></trkpt><trkpt lat="43.2677033" lon="11.626185"><ele>309.0</ele><time>2026-04-05T09:58:30.003Z</time></trkpt><trkpt lat="43.267755" lon="11.6262517"><ele>309.00000000000006</ele><time>2026-04-05T09:58:31.003Z</time></trkpt><trkpt lat="43.26782" lon="11.62629"><ele>309.0</ele><time>2026-04-05T09:58:32.003Z</time></trkpt><trkpt lat="43.2678867" lon="11.6263033"><ele>308.5714285714286</ele><time>2026-04-05T09:58:33.003Z</time></trkpt><trkpt lat="43.26795" lon="11.6263033"><ele>308.14285714285717</ele><time>2026-04-05T09:58:34.003Z</time></trkpt><trkpt lat="43.2680217" lon="11.6262933"><ele>307.7142857142857</ele><time>2026-04-05T09:58:35.003Z</time></trkpt><trkpt lat="43.2680933" lon="11.6262767"><ele>307.28571428571433</ele><time>2026-04-05T09:58:36.003Z</time></trkpt><trkpt lat="43.26817" lon="11.6262617"><ele>306.8571428571429</ele><time>2026-04-05T09:58:37.003Z</time></trkpt><trkpt lat="43.2682467" lon="11.626265"><ele>306.42857142857144</ele><time>2026-04-05T09:58:38.003Z</time></trkpt><trkpt lat="43.2683167" lon="11.6262917"><ele>306.0</ele><time>2026-04-05T09:58:39.003Z</time></trkpt><trkpt lat="43.2683883" lon="11.6263433"><ele>305.40000000000003</ele><time>2026-04-05T09:58:40.003Z</time></trkpt><trkpt lat="43.2684683" lon="11.62641"><ele>304.8</ele><time>2026-04-05T09:58:41.003Z</time></trkpt><trkpt lat="43.2685533" lon="11.6264783"><ele>304.20000000000005</ele><time>2026-04-05T09:58:42.003Z</time></trkpt><trkpt lat="43.2686367" lon="11.6265383"><ele>303.6</ele><time>2026-04-05T09:58:43.003Z</time></trkpt><trkpt lat="43.2687283" lon="11.62661"><ele>303.0</ele><time>2026-04-05T09:58:44.003Z</time></trkpt><trkpt lat="43.26883" lon="11.6266883"><ele>303.0</ele><time>2026-04-05T09:58:45.003Z</time></trkpt><trkpt lat="43.2689433" lon="11.6267717"><ele>303.0</ele><time>2026-04-05T09:58:46.003Z</time></trkpt><trkpt lat="43.2690683" lon="11.626865"><ele>303.0</ele><time>2026-04-05T09:58:47.003Z</time></trkpt><trkpt lat="43.2691967" lon="11.62697"><ele>303.0</ele><time>2026-04-05T09:58:48.003Z</time></trkpt><trkpt lat="43.26933" lon="11.6270733"><ele>303.0</ele><time>2026-04-05T09:58:49.003Z</time></trkpt><trkpt lat="43.2694667" lon="11.6271883"><ele>303.0</ele><time>2026-04-05T09:58:50.003Z</time></trkpt><trkpt lat="43.2695983" lon="11.6273167"><ele>303.0</ele><time>2026-04-05T09:58:51.003Z</time></trkpt><trkpt lat="43.2697383" lon="11.627445"><ele>303.3333333333333</ele><time>2026-04-05T09:58:52.003Z</time></trkpt><trkpt lat="43.26988" lon="11.62758"><ele>303.66666666666663</ele><time>2026-04-05T09:58:53.003Z</time></trkpt><trkpt lat="43.2700183" lon="11.6277217"><ele>304.0</ele><time>2026-04-05T09:58:54.003Z</time></trkpt><trkpt lat="43.2701533" lon="11.6278483"><ele>303.3333333333333</ele><time>2026-04-05T09:58:55.003Z</time></trkpt><trkpt lat="43.2702817" lon="11.6279783"><ele>302.6666666666667</ele><time>2026-04-05T09:58:56.003Z</time></trkpt><trkpt lat="43.2704117" lon="11.6281033"><ele>302.0</ele><time>2026-04-05T09:58:57.003Z</time></trkpt><trkpt lat="43.2705283" lon="11.628215"><ele>302.25</ele><time>2026-04-05T09:58:58.003Z</time></trkpt><trkpt lat="43.2706433" lon="11.6283333"><ele>302.5</ele><time>2026-04-05T09:58:59.003Z</time></trkpt><trkpt lat="43.2707467" lon="11.628455"><ele>302.75</ele><time>2026-04-05T09:59:00.003Z</time></trkpt><trkpt lat="43.2708383" lon="11.6285933"><ele>303.0</ele><time>2026-04-05T09:59:01.003Z</time></trkpt><trkpt lat="43.2709117" lon="11.628745"><ele>303.0</ele><time>2026-04-05T09:59:02.003Z</time></trkpt><trkpt lat="43.270955" lon="11.628905"><ele>303.0</ele><time>2026-04-05T09:59:03.003Z</time></trkpt><trkpt lat="43.2709717" lon="11.62908"><ele>303.0</ele><time>2026-04-05T09:59:04.003Z</time></trkpt><trkpt lat="43.2709683" lon="11.6292583"><ele>303.0</ele><time>2026-04-05T09:59:05.003Z</time></trkpt><trkpt lat="43.2709567" lon="11.6294517"><ele>302.75</ele><time>2026-04-05T09:59:06.003Z</time></trkpt><trkpt lat="43.27095" lon="11.62965"><ele>302.5</ele><time>2026-04-05T09:59:07.003Z</time></trkpt><trkpt lat="43.2709433" lon="11.6298567"><ele>302.25</ele><time>2026-04-05T09:59:08.003Z</time></trkpt><trkpt lat="43.2709433" lon="11.6300617"><ele>302.0</ele><time>2026-04-05T09:59:09.003Z</time></trkpt><trkpt lat="43.2709383" lon="11.630265"><ele>302.0</ele><time>2026-04-05T09:59:10.003Z</time></trkpt><trkpt lat="43.27094" lon="11.6304733"><ele>302.0</ele><time>2026-04-05T09:59:11.003Z</time></trkpt><trkpt lat="43.2709483" lon="11.6306833"><ele>302.0</ele><time>2026-04-05T09:59:12.003Z</time></trkpt><trkpt lat="43.2709583" lon="11.6308917"><ele>302.0</ele><time>2026-04-05T09:59:13.003Z</time></trkpt><trkpt lat="43.2709767" lon="11.6310967"><ele>302.0</ele><time>2026-04-05T09:59:14.003Z</time></trkpt><trkpt lat="43.270995" lon="11.6312967"><ele>302.0</ele><time>2026-04-05T09:59:15.003Z</time></trkpt><trkpt lat="43.2710133" lon="11.6314967"><ele>302.0</ele><time>2026-04-05T09:59:16.003Z</time></trkpt><trkpt lat="43.271025" lon="11.631685"><ele>302.0</ele><time>2026-04-05T09:59:17.003Z</time></trkpt><trkpt lat="43.2710483" lon="11.6318767"><ele>302.0</ele><time>2026-04-05T09:59:18.003Z</time></trkpt><trkpt lat="43.2710617" lon="11.632055"><ele>302.0</ele><time>2026-04-05T09:59:19.003Z</time></trkpt><trkpt lat="43.271075" lon="11.6322233"><ele>302.0</ele><time>2026-04-05T09:59:20.003Z</time></trkpt><trkpt lat="43.271085" lon="11.632375"><ele>302.1666666666667</ele><time>2026-04-05T09:59:21.003Z</time></trkpt><trkpt lat="43.2710917" lon="11.63251"><ele>302.33333333333337</ele><time>2026-04-05T09:59:22.003Z</time></trkpt><trkpt lat="43.2710817" lon="11.63263"><ele>302.5</ele><time>2026-04-05T09:59:23.003Z</time></trkpt><trkpt lat="43.2710483" lon="11.63273"><ele>302.6666666666667</ele><time>2026-04-05T09:59:24.003Z</time></trkpt><trkpt lat="43.27101" lon="11.6328"><ele>302.8333333333333</ele><time>2026-04-05T09:59:25.003Z</time></trkpt><trkpt lat="43.270905" lon="11.6328717"><ele>303.0</ele><time>2026-04-05T09:59:27.003Z</time></trkpt><trkpt lat="43.2708417" lon="11.6328867"><ele>302.8</ele><time>2026-04-05T09:59:28.003Z</time></trkpt><trkpt lat="43.2707633" lon="11.6329017"><ele>302.6</ele><time>2026-04-05T09:59:29.003Z</time></trkpt><trkpt lat="43.270675" lon="11.6329167"><ele>302.4</ele><time>2026-04-05T09:59:30.003Z</time></trkpt><trkpt lat="43.27058" lon="11.63294"><ele>302.2</ele><time>2026-04-05T09:59:31.003Z</time></trkpt><trkpt lat="43.2704767" lon="11.632965"><ele>302.0</ele><time>2026-04-05T09:59:32.003Z</time></trkpt><trkpt lat="43.2703617" lon="11.632985"><ele>302.0</ele><time>2026-04-05T09:59:33.003Z</time></trkpt><trkpt lat="43.2702383" lon="11.6330017"><ele>302.0</ele><time>2026-04-05T09:59:34.003Z</time></trkpt><trkpt lat="43.2701117" lon="11.6330233"><ele>302.0</ele><time>2026-04-05T09:59:35.003Z</time></trkpt><trkpt lat="43.2699833" lon="11.6330567"><ele>302.0</ele><time>2026-04-05T09:59:36.003Z</time></trkpt><trkpt lat="43.2698567" lon="11.6330867"><ele>301.75</ele><time>2026-04-05T09:59:37.003Z</time></trkpt><trkpt lat="43.2697367" lon="11.6331467"><ele>301.5</ele><time>2026-04-05T09:59:38.003Z</time></trkpt><trkpt lat="43.2696217" lon="11.6332283"><ele>301.25</ele><time>2026-04-05T09:59:39.003Z</time></trkpt><trkpt lat="43.2695017" lon="11.63332"><ele>301.0</ele><time>2026-04-05T09:59:40.003Z</time></trkpt><trkpt lat="43.2693767" lon="11.63338"><ele>301.0</ele><time>2026-04-05T09:59:41.003Z</time></trkpt><trkpt lat="43.2692467" lon="11.6334167"><ele>301.0</ele><time>2026-04-05T09:59:42.003Z</time></trkpt><trkpt lat="43.2691" lon="11.633425"><ele>301.0</ele><time>2026-04-05T09:59:43.003Z</time></trkpt><trkpt lat="43.26895" lon="11.6334217"><ele>301.0</ele><time>2026-04-05T09:59:44.003Z</time></trkpt><trkpt lat="43.2687967" lon="11.633425"><ele>301.0</ele><time>2026-04-05T09:59:45.003Z</time></trkpt><trkpt lat="43.26864" lon="11.633425"><ele>301.0</ele><time>2026-04-05T09:59:46.003Z</time></trkpt><trkpt lat="43.268475" lon="11.6334167"><ele>301.0</ele><time>2026-04-05T09:59:47.003Z</time></trkpt><trkpt lat="43.2683183" lon="11.6334133"><ele>301.0</ele><time>2026-04-05T09:59:48.003Z</time></trkpt><trkpt lat="43.2681667" lon="11.6334083"><ele>301.0</ele><time>2026-04-05T09:59:49.003Z</time></trkpt><trkpt lat="43.268" lon="11.6334083"><ele>301.0</ele><time>2026-04-05T09:59:50.003Z</time></trkpt><trkpt lat="43.2678367" lon="11.63341"><ele>301.0</ele><time>2026-04-05T09:59:51.003Z</time></trkpt><trkpt lat="43.2676733" lon="11.6334033"><ele>301.0</ele><time>2026-04-05T09:59:52.003Z</time></trkpt><trkpt lat="43.2675233" lon="11.633405"><ele>301.0</ele><time>2026-04-05T09:59:53.003Z</time></trkpt><trkpt lat="43.2673667" lon="11.6333983"><ele>300.75</ele><time>2026-04-05T09:59:54.003Z</time></trkpt><trkpt lat="43.2672283" lon="11.6334017"><ele>300.5</ele><time>2026-04-05T09:59:55.003Z</time></trkpt><trkpt lat="43.26709" lon="11.6334"><ele>300.25</ele><time>2026-04-05T09:59:56.003Z</time></trkpt><trkpt lat="43.2669433" lon="11.6334033"><ele>300.0</ele><time>2026-04-05T09:59:57.003Z</time></trkpt><trkpt lat="43.26681" lon="11.6333967"><ele>300.0</ele><time>2026-04-05T09:59:58.003Z</time></trkpt><trkpt lat="43.2666817" lon="11.6333883"><ele>300.0</ele><time>2026-04-05T09:59:59.003Z</time></trkpt><trkpt lat="43.2665617" lon="11.633375"><ele>300.0</ele><time>2026-04-05T10:00:00.003Z</time></trkpt><trkpt lat="43.266445" lon="11.6333567"><ele>300.0</ele><time>2026-04-05T10:00:01.003Z</time></trkpt><trkpt lat="43.2663367" lon="11.6333183"><ele>300.0</ele><time>2026-04-05T10:00:02.003Z</time></trkpt><trkpt lat="43.2662467" lon="11.6332333"><ele>300.0</ele><time>2026-04-05T10:00:03.003Z</time></trkpt><trkpt lat="43.26616" lon="11.63313"><ele>300.0</ele><time>2026-04-05T10:00:04.003Z</time></trkpt><trkpt lat="43.2660817" lon="11.633005"><ele>300.0</ele><time>2026-04-05T10:00:05.003Z</time></trkpt><trkpt lat="43.2660017" lon="11.63287"><ele>300.0</ele><time>2026-04-05T10:00:06.003Z</time></trkpt><trkpt lat="43.265925" lon="11.6327333"><ele>300.0</ele><time>2026-04-05T10:00:07.003Z</time></trkpt><trkpt lat="43.2658433" lon="11.6326"><ele>300.0</ele><time>2026-04-05T10:00:08.003Z</time></trkpt><trkpt lat="43.2657717" lon="11.6324783"><ele>300.0</ele><time>2026-04-05T10:00:09.003Z</time></trkpt><trkpt lat="43.265705" lon="11.6323667"><ele>300.0</ele><time>2026-04-05T10:00:10.003Z</time></trkpt><trkpt lat="43.2656433" lon="11.6322667"><ele>300.0</ele><time>2026-04-05T10:00:11.003Z</time></trkpt><trkpt lat="43.2655867" lon="11.6321867"><ele>300.0</ele><time>2026-04-05T10:00:12.003Z</time></trkpt><trkpt lat="43.2655217" lon="11.63214"><ele>300.0</ele><time>2026-04-05T10:00:13.003Z</time></trkpt><trkpt lat="43.2654433" lon="11.6321333"><ele>300.0</ele><time>2026-04-05T10:00:14.003Z</time></trkpt><trkpt lat="43.2653617" lon="11.6321633"><ele>300.0</ele><time>2026-04-05T10:00:15.003Z</time></trkpt><trkpt lat="43.2652733" lon="11.6322167"><ele>300.0</ele><time>2026-04-05T10:00:16.003Z</time></trkpt><trkpt lat="43.26518" lon="11.6322917"><ele>300.0</ele><time>2026-04-05T10:00:17.003Z</time></trkpt><trkpt lat="43.265075" lon="11.6323567"><ele>300.0</ele><time>2026-04-05T10:00:18.003Z</time></trkpt><trkpt lat="43.2649583" lon="11.6324233"><ele>300.0</ele><time>2026-04-05T10:00:19.003Z</time></trkpt><trkpt lat="43.26483" lon="11.6324983"><ele>300.3333333333333</ele><time>2026-04-05T10:00:20.003Z</time></trkpt><trkpt lat="43.26469" lon="11.6325817"><ele>300.66666666666663</ele><time>2026-04-05T10:00:21.003Z</time></trkpt><trkpt lat="43.2645433" lon="11.632675"><ele>301.0</ele><time>2026-04-05T10:00:22.003Z</time></trkpt><trkpt lat="43.2643967" lon="11.6327583"><ele>300.75</ele><time>2026-04-05T10:00:23.003Z</time></trkpt><trkpt lat="43.2642567" lon="11.6328367"><ele>300.5</ele><time>2026-04-05T10:00:24.003Z</time></trkpt><trkpt lat="43.2641233" lon="11.6329083"><ele>300.25</ele><time>2026-04-05T10:00:25.003Z</time></trkpt><trkpt lat="43.2639933" lon="11.6329867"><ele>300.0</ele><time>2026-04-05T10:00:26.003Z</time></trkpt><trkpt lat="43.2638683" lon="11.6330567"><ele>300.0</ele><time>2026-04-05T10:00:27.003Z</time></trkpt><trkpt lat="43.263745" lon="11.6331117"><ele>300.0</ele><time>2026-04-05T10:00:28.003Z</time></trkpt><trkpt lat="43.263625" lon="11.6331283"><ele>300.0</ele><time>2026-04-05T10:00:29.003Z</time></trkpt><trkpt lat="43.26351" lon="11.6331"><ele>300.0</ele><time>2026-04-05T10:00:30.003Z</time></trkpt><trkpt lat="43.2634" lon="11.6330217"><ele>300.0</ele><time>2026-04-05T10:00:31.003Z</time></trkpt><trkpt lat="43.2633067" lon="11.63289"><ele>300.0</ele><time>2026-04-05T10:00:32.003Z</time></trkpt><trkpt lat="43.263215" lon="11.632745"><ele>300.0</ele><time>2026-04-05T10:00:33.003Z</time></trkpt><trkpt lat="43.2631367" lon="11.6325833"><ele>300.0</ele><time>2026-04-05T10:00:34.003Z</time></trkpt><trkpt lat="43.263065" lon="11.632425"><ele>300.0</ele><time>2026-04-05T10:00:35.003Z</time></trkpt><trkpt lat="43.2629983" lon="11.6322783"><ele>300.0</ele><time>2026-04-05T10:00:36.003Z</time></trkpt><trkpt lat="43.2629383" lon="11.6321417"><ele>300.0</ele><time>2026-04-05T10:00:37.003Z</time></trkpt><trkpt lat="43.2628867" lon="11.6320167"><ele>300.0</ele><time>2026-04-05T10:00:38.003Z</time></trkpt><trkpt lat="43.2628333" lon="11.6319067"><ele>300.0</ele><time>2026-04-05T10:00:39.003Z</time></trkpt><trkpt lat="43.2628033" lon="11.63182"><ele>300.0</ele><time>2026-04-05T10:00:40.003Z</time></trkpt><trkpt lat="43.2628233" lon="11.631705"><ele>300.0</ele><time>2026-04-05T10:00:42.003Z</time></trkpt><trkpt lat="43.2629067" lon="11.6316167"><ele>300.0</ele><time>2026-04-05T10:00:44.003Z</time></trkpt><trkpt lat="43.2629683" lon="11.6315533"><ele>300.0</ele><time>2026-04-05T10:00:45.003Z</time></trkpt><trkpt lat="43.263035" lon="11.6314783"><ele>300.0</ele><time>2026-04-05T10:00:46.003Z</time></trkpt><trkpt lat="43.2631033" lon="11.6314117"><ele>300.0</ele><time>2026-04-05T10:00:47.003Z</time></trkpt><trkpt lat="43.2631617" lon="11.63134"><ele>299.8</ele><time>2026-04-05T10:00:48.003Z</time></trkpt><trkpt lat="43.263205" lon="11.631225"><ele>299.6</ele><time>2026-04-05T10:00:50.003Z</time></trkpt><trkpt lat="43.263185" lon="11.6310967"><ele>299.4</ele><time>2026-04-05T10:00:52.003Z</time></trkpt><trkpt lat="43.2631233" lon="11.6310067"><ele>299.2</ele><time>2026-04-05T10:00:54.003Z</time></trkpt><trkpt lat="43.2630583" lon="11.63098"><ele>299.0</ele><time>2026-04-05T10:00:56.003Z</time></trkpt><trkpt lat="43.2629317" lon="11.63095"><ele>299.1666666666667</ele><time>2026-04-05T10:06:27.002Z</time></trkpt><trkpt lat="43.2628633" lon="11.6310067"><ele>299.33333333333337</ele><time>2026-04-05T10:06:29.002Z</time></trkpt><trkpt lat="43.262785" lon="11.6310983"><ele>299.5</ele><time>2026-04-05T10:06:31.002Z</time></trkpt><trkpt lat="43.2627783" lon="11.631245"><ele>299.6666666666667</ele><time>2026-04-05T10:06:33.002Z</time></trkpt><trkpt lat="43.262795" lon="11.63133"><ele>299.8333333333333</ele><time>2026-04-05T10:06:34.002Z</time></trkpt><trkpt lat="43.262825" lon="11.6314183"><ele>300.0</ele><time>2026-04-05T10:06:35.002Z</time></trkpt><trkpt lat="43.2628567" lon="11.6314933"><ele>300.0</ele><time>2026-04-05T10:06:36.002Z</time></trkpt><trkpt lat="43.2628683" lon="11.631615"><ele>300.0</ele><time>2026-04-05T10:06:38.002Z</time></trkpt><trkpt lat="43.2628117" lon="11.6316933"><ele>300.0</ele><time>2026-04-05T10:06:40.002Z</time></trkpt><trkpt lat="43.2627267" lon="11.63166"><ele>300.0</ele><time>2026-04-05T10:06:42.002Z</time></trkpt><trkpt lat="43.26261" lon="11.631435"><ele>300.0</ele><time>2026-04-05T10:06:45.002Z</time></trkpt><trkpt lat="43.2625667" lon="11.6313317"><ele>300.0</ele><time>2026-04-05T10:06:46.002Z</time></trkpt><trkpt lat="43.26252" lon="11.6312183"><ele>300.0</ele><time>2026-04-05T10:06:47.002Z</time></trkpt><trkpt lat="43.2624633" lon="11.6311"><ele>300.0</ele><time>2026-04-05T10:06:48.002Z</time></trkpt><trkpt lat="43.2624083" lon="11.630995"><ele>300.0</ele><time>2026-04-05T10:06:49.002Z</time></trkpt><trkpt lat="43.2623383" lon="11.630905"><ele>301.25</ele><time>2026-04-05T10:06:50.002Z</time></trkpt><trkpt lat="43.26224" lon="11.6308333"><ele>302.5</ele><time>2026-04-05T10:06:51.002Z</time></trkpt><trkpt lat="43.2621333" lon="11.630795"><ele>303.75</ele><time>2026-04-05T10:06:52.002Z</time></trkpt><trkpt lat="43.262015" lon="11.630795"><ele>305.0</ele><time>2026-04-05T10:06:53.002Z</time></trkpt><trkpt lat="43.2618983" lon="11.6308317"><ele>305.0</ele><time>2026-04-05T10:06:54.002Z</time></trkpt><trkpt lat="43.2617783" lon="11.6308833"><ele>305.0</ele><time>2026-04-05T10:06:55.002Z</time></trkpt><trkpt lat="43.261655" lon="11.6309383"><ele>305.0</ele><time>2026-04-05T10:06:56.002Z</time></trkpt><trkpt lat="43.2615283" lon="11.6309917"><ele>305.0</ele><time>2026-04-05T10:06:57.002Z</time></trkpt><trkpt lat="43.26138" lon="11.631065"><ele>303.6666666666667</ele><time>2026-04-05T10:06:58.002Z</time></trkpt><trkpt lat="43.2612283" lon="11.6311383"><ele>302.3333333333333</ele><time>2026-04-05T10:06:59.002Z</time></trkpt><trkpt lat="43.2610767" lon="11.631215"><ele>301.0</ele><time>2026-04-05T10:07:00.002Z</time></trkpt><trkpt lat="43.260925" lon="11.631285"><ele>301.0</ele><time>2026-04-05T10:07:01.002Z</time></trkpt><trkpt lat="43.2607683" lon="11.63136"><ele>301.0</ele><time>2026-04-05T10:07:02.002Z</time></trkpt><trkpt lat="43.26061" lon="11.6314367"><ele>301.0</ele><time>2026-04-05T10:07:03.002Z</time></trkpt><trkpt lat="43.2604517" lon="11.63152"><ele>301.0</ele><time>2026-04-05T10:07:04.002Z</time></trkpt><trkpt lat="43.260285" lon="11.6316"><ele>301.0</ele><time>2026-04-05T10:07:05.002Z</time></trkpt><trkpt lat="43.2601233" lon="11.63167"><ele>301.0</ele><time>2026-04-05T10:07:06.002Z</time></trkpt><trkpt lat="43.25996" lon="11.63175"><ele>301.0</ele><time>2026-04-05T10:07:07.002Z</time></trkpt><trkpt lat="43.2597867" lon="11.6318367"><ele>301.0</ele><time>2026-04-05T10:07:08.002Z</time></trkpt><trkpt lat="43.2596167" lon="11.631915"><ele>301.0</ele><time>2026-04-05T10:07:09.002Z</time></trkpt><trkpt lat="43.25944" lon="11.631995"><ele>300.0</ele><time>2026-04-05T10:07:10.002Z</time></trkpt><trkpt lat="43.2592683" lon="11.6320817"><ele>299.0</ele><time>2026-04-05T10:07:11.002Z</time></trkpt><trkpt lat="43.2590933" lon="11.6321617"><ele>298.0</ele><time>2026-04-05T10:07:12.002Z</time></trkpt><trkpt lat="43.2589183" lon="11.6322417"><ele>298.0</ele><time>2026-04-05T10:07:13.002Z</time></trkpt><trkpt lat="43.25874" lon="11.6323233"><ele>298.0</ele><time>2026-04-05T10:07:14.002Z</time></trkpt><trkpt lat="43.25857" lon="11.6324083"><ele>298.0</ele><time>2026-04-05T10:07:15.002Z</time></trkpt><trkpt lat="43.2583983" lon="11.6325"><ele>298.0</ele><time>2026-04-05T10:07:16.002Z</time></trkpt><trkpt lat="43.2582267" lon="11.6325917"><ele>298.0</ele><time>2026-04-05T10:07:17.002Z</time></trkpt><trkpt lat="43.2580583" lon="11.6326867"><ele>298.0</ele><time>2026-04-05T10:07:18.002Z</time></trkpt><trkpt lat="43.2578867" lon="11.63279"><ele>297.66666666666663</ele><time>2026-04-05T10:07:19.002Z</time></trkpt><trkpt lat="43.2577183" lon="11.6328883"><ele>297.3333333333333</ele><time>2026-04-05T10:07:20.002Z</time></trkpt><trkpt lat="43.2575517" lon="11.63299"><ele>297.0</ele><time>2026-04-05T10:07:21.002Z</time></trkpt><trkpt lat="43.2573867" lon="11.633115"><ele>297.0</ele><time>2026-04-05T10:07:22.002Z</time></trkpt><trkpt lat="43.2572233" lon="11.6332467"><ele>297.0</ele><time>2026-04-05T10:07:23.002Z</time></trkpt><trkpt lat="43.25706" lon="11.6333867"><ele>297.0</ele><time>2026-04-05T10:07:24.002Z</time></trkpt><trkpt lat="43.2569017" lon="11.6335267"><ele>296.0</ele><time>2026-04-05T10:07:25.002Z</time></trkpt><trkpt lat="43.2567433" lon="11.6336717"><ele>295.0</ele><time>2026-04-05T10:07:26.002Z</time></trkpt><trkpt lat="43.2565917" lon="11.63382"><ele>294.0</ele><time>2026-04-05T10:07:27.002Z</time></trkpt><trkpt lat="43.2564367" lon="11.6339717"><ele>294.0</ele><time>2026-04-05T10:07:28.002Z</time></trkpt><trkpt lat="43.2562833" lon="11.634125"><ele>294.0</ele><time>2026-04-05T10:07:29.002Z</time></trkpt><trkpt lat="43.2561183" lon="11.6342817"><ele>294.0</ele><time>2026-04-05T10:07:30.002Z</time></trkpt><trkpt lat="43.2559533" lon="11.634445"><ele>293.0</ele><time>2026-04-05T10:07:31.002Z</time></trkpt><trkpt lat="43.2557967" lon="11.6346133"><ele>292.0</ele><time>2026-04-05T10:07:32.002Z</time></trkpt><trkpt lat="43.2556433" lon="11.634775"><ele>291.0</ele><time>2026-04-05T10:07:33.002Z</time></trkpt><trkpt lat="43.2554867" lon="11.6349467"><ele>291.6666666666667</ele><time>2026-04-05T10:07:34.002Z</time></trkpt><trkpt lat="43.2553267" lon="11.6351183"><ele>292.33333333333337</ele><time>2026-04-05T10:07:35.002Z</time></trkpt><trkpt lat="43.2551683" lon="11.6352817"><ele>293.0</ele><time>2026-04-05T10:07:36.002Z</time></trkpt><trkpt lat="43.255005" lon="11.6354433"><ele>293.0</ele><time>2026-04-05T10:07:37Z</time></trkpt><trkpt lat="43.2548467" lon="11.6355983"><ele>293.0</ele><time>2026-04-05T10:07:38.002Z</time></trkpt><trkpt lat="43.2546883" lon="11.6357567"><ele>293.0</ele><time>2026-04-05T10:07:39.002Z</time></trkpt><trkpt lat="43.254525" lon="11.6359117"><ele>292.6666666666667</ele><time>2026-04-05T10:07:40.002Z</time></trkpt><trkpt lat="43.25437" lon="11.6360717"><ele>292.3333333333333</ele><time>2026-04-05T10:07:41.002Z</time></trkpt><trkpt lat="43.25422" lon="11.6362333"><ele>292.0</ele><time>2026-04-05T10:07:42.002Z</time></trkpt><trkpt lat="43.2540733" lon="11.6363983"><ele>293.0</ele><time>2026-04-05T10:07:43.002Z</time></trkpt><trkpt lat="43.2539217" lon="11.6365683"><ele>294.0</ele><time>2026-04-05T10:07:44.002Z</time></trkpt><trkpt lat="43.2537783" lon="11.6367517"><ele>295.0</ele><time>2026-04-05T10:07:45.002Z</time></trkpt><trkpt lat="43.2536383" lon="11.636935"><ele>293.66666666666663</ele><time>2026-04-05T10:07:46.002Z</time></trkpt><trkpt lat="43.2534967" lon="11.6371267"><ele>292.3333333333333</ele><time>2026-04-05T10:07:47.002Z</time></trkpt><trkpt lat="43.2533583" lon="11.6373183"><ele>291.0</ele><time>2026-04-05T10:07:48.002Z</time></trkpt><trkpt lat="43.2532217" lon="11.6375233"><ele>291.0</ele><time>2026-04-05T10:07:49.002Z</time></trkpt><trkpt lat="43.2530783" lon="11.6377283"><ele>291.0</ele><time>2026-04-05T10:07:50.002Z</time></trkpt><trkpt lat="43.2529333" lon="11.63793"><ele>291.0</ele><time>2026-04-05T10:07:51.002Z</time></trkpt><trkpt lat="43.2527967" lon="11.6381333"><ele>291.0</ele><time>2026-04-05T10:07:52.002Z</time></trkpt><trkpt lat="43.25267" lon="11.6383317"><ele>291.0</ele><time>2026-04-05T10:07:53.002Z</time></trkpt><trkpt lat="43.2525467" lon="11.6385217"><ele>291.0</ele><time>2026-04-05T10:07:54.002Z</time></trkpt><trkpt lat="43.2524283" lon="11.6387017"><ele>291.0</ele><time>2026-04-05T10:07:55.002Z</time></trkpt><trkpt lat="43.2523283" lon="11.6388733"><ele>291.0</ele><time>2026-04-05T10:07:56.002Z</time></trkpt><trkpt lat="43.2522517" lon="11.639055"><ele>291.0</ele><time>2026-04-05T10:07:57.002Z</time></trkpt><trkpt lat="43.252205" lon="11.63924"><ele>291.0</ele><time>2026-04-05T10:07:58.002Z</time></trkpt><trkpt lat="43.2521733" lon="11.63943"><ele>291.0</ele><time>2026-04-05T10:07:59.002Z</time></trkpt><trkpt lat="43.252155" lon="11.639615"><ele>291.0</ele><time>2026-04-05T10:08:00.002Z</time></trkpt><trkpt lat="43.252135" lon="11.6398183"><ele>291.0</ele><time>2026-04-05T10:08:01.002Z</time></trkpt><trkpt lat="43.2521033" lon="11.6400217"><ele>290.6666666666667</ele><time>2026-04-05T10:08:02.002Z</time></trkpt><trkpt lat="43.2520667" lon="11.6402183"><ele>290.33333333333337</ele><time>2026-04-05T10:08:03.002Z</time></trkpt><trkpt lat="43.25202" lon="11.6404217"><ele>290.0</ele><time>2026-04-05T10:08:04.002Z</time></trkpt><trkpt lat="43.2519683" lon="11.6406283"><ele>290.0</ele><time>2026-04-05T10:08:05.002Z</time></trkpt><trkpt lat="43.251915" lon="11.6408317"><ele>290.0</ele><time>2026-04-05T10:08:06.002Z</time></trkpt><trkpt lat="43.251865" lon="11.6410367"><ele>290.0</ele><time>2026-04-05T10:08:07.002Z</time></trkpt><trkpt lat="43.251815" lon="11.64124"><ele>290.0</ele><time>2026-04-05T10:08:08.002Z</time></trkpt><trkpt lat="43.2517617" lon="11.6414517"><ele>290.0</ele><time>2026-04-05T10:08:09.002Z</time></trkpt><trkpt lat="43.2517117" lon="11.6416667"><ele>290.0</ele><time>2026-04-05T10:08:10.002Z</time></trkpt><trkpt lat="43.2516583" lon="11.6418767"><ele>290.33333333333337</ele><time>2026-04-05T10:08:11.002Z</time></trkpt><trkpt lat="43.2515967" lon="11.642095"><ele>290.6666666666667</ele><time>2026-04-05T10:08:12.002Z</time></trkpt><trkpt lat="43.2515283" lon="11.6423"><ele>291.0</ele><time>2026-04-05T10:08:13.002Z</time></trkpt><trkpt lat="43.2514483" lon="11.6425"><ele>290.3333333333333</ele><time>2026-04-05T10:08:14.002Z</time></trkpt><trkpt lat="43.2513583" lon="11.6426833"><ele>289.66666666666663</ele><time>2026-04-05T10:08:15.002Z</time></trkpt><trkpt lat="43.25126" lon="11.64286"><ele>289.0</ele><time>2026-04-05T10:08:16.002Z</time></trkpt><trkpt lat="43.2511617" lon="11.6430333"><ele>288.3333333333333</ele><time>2026-04-05T10:08:17.002Z</time></trkpt><trkpt lat="43.251055" lon="11.643195"><ele>287.6666666666667</ele><time>2026-04-05T10:08:18.002Z</time></trkpt><trkpt lat="43.25095" lon="11.6433567"><ele>287.0</ele><time>2026-04-05T10:08:19.002Z</time></trkpt><trkpt lat="43.250845" lon="11.6435233"><ele>287.33333333333337</ele><time>2026-04-05T10:08:20.002Z</time></trkpt><trkpt lat="43.2507483" lon="11.6436867"><ele>287.6666666666667</ele><time>2026-04-05T10:08:21.002Z</time></trkpt><trkpt lat="43.250645" lon="11.6438533"><ele>288.0</ele><time>2026-04-05T10:08:22.002Z</time></trkpt><trkpt lat="43.25054" lon="11.6440167"><ele>288.0</ele><time>2026-04-05T10:08:23.002Z</time></trkpt><trkpt lat="43.2504367" lon="11.64418"><ele>288.0</ele><time>2026-04-05T10:08:24.002Z</time></trkpt><trkpt lat="43.25034" lon="11.6443433"><ele>288.0</ele><time>2026-04-05T10:08:25.002Z</time></trkpt><trkpt lat="43.2502433" lon="11.644505"><ele>288.25</ele><time>2026-04-05T10:08:26.002Z</time></trkpt><trkpt lat="43.2501517" lon="11.64465"><ele>288.5</ele><time>2026-04-05T10:08:27.002Z</time></trkpt><trkpt lat="43.25006" lon="11.6447933"><ele>288.75</ele><time>2026-04-05T10:08:28.002Z</time></trkpt><trkpt lat="43.249975" lon="11.6449267"><ele>289.0</ele><time>2026-04-05T10:08:29.002Z</time></trkpt><trkpt lat="43.2498983" lon="11.6450517"><ele>289.0</ele><time>2026-04-05T10:08:30.002Z</time></trkpt><trkpt lat="43.2498317" lon="11.6451567"><ele>289.0</ele><time>2026-04-05T10:08:31.002Z</time></trkpt><trkpt lat="43.2497717" lon="11.645255"><ele>289.0</ele><time>2026-04-05T10:08:32.002Z</time></trkpt><trkpt lat="43.2497117" lon="11.645345"><ele>289.0</ele><time>2026-04-05T10:08:33.002Z</time></trkpt><trkpt lat="43.249655" lon="11.645435"><ele>289.0</ele><time>2026-04-05T10:08:34.002Z</time></trkpt><trkpt lat="43.249605" lon="11.6455233"><ele>289.3333333333333</ele><time>2026-04-05T10:08:35.002Z</time></trkpt><trkpt lat="43.2495567" lon="11.645605"><ele>289.66666666666663</ele><time>2026-04-05T10:08:36.002Z</time></trkpt><trkpt lat="43.2495067" lon="11.6456717"><ele>290.0</ele><time>2026-04-05T10:08:37.002Z</time></trkpt><trkpt lat="43.2493933" lon="11.645725"><ele>290.3333333333333</ele><time>2026-04-05T10:08:39.002Z</time></trkpt><trkpt lat="43.2492933" lon="11.6456817"><ele>290.6666666666667</ele><time>2026-04-05T10:08:41.002Z</time></trkpt><trkpt lat="43.2492433" lon="11.6456267"><ele>291.0</ele><time>2026-04-05T10:08:42.002Z</time></trkpt><trkpt lat="43.2491933" lon="11.6455583"><ele>291.0</ele><time>2026-04-05T10:08:43.002Z</time></trkpt><trkpt lat="43.24914" lon="11.6454733"><ele>291.0</ele><time>2026-04-05T10:08:44.002Z</time></trkpt><trkpt lat="43.249085" lon="11.6453817"><ele>291.0</ele><time>2026-04-05T10:08:45.002Z</time></trkpt><trkpt lat="43.24903" lon="11.6452833"><ele>291.0</ele><time>2026-04-05T10:08:46.002Z</time></trkpt><trkpt lat="43.2489683" lon="11.645185"><ele>291.0</ele><time>2026-04-05T10:08:47.002Z</time></trkpt><trkpt lat="43.2488967" lon="11.64508"><ele>290.6</ele><time>2026-04-05T10:08:48.002Z</time></trkpt><trkpt lat="43.2488133" lon="11.6449833"><ele>290.20000000000005</ele><time>2026-04-05T10:08:49.002Z</time></trkpt><trkpt lat="43.2487317" lon="11.64489"><ele>289.79999999999995</ele><time>2026-04-05T10:08:50.002Z</time></trkpt><trkpt lat="43.2486483" lon="11.6447917"><ele>289.4</ele><time>2026-04-05T10:08:51.002Z</time></trkpt><trkpt lat="43.2485617" lon="11.6446867"><ele>289.0</ele><time>2026-04-05T10:08:52.002Z</time></trkpt><trkpt lat="43.24847" lon="11.6445833"><ele>289.0</ele><time>2026-04-05T10:08:53.002Z</time></trkpt><trkpt lat="43.2483717" lon="11.6444717"><ele>289.0</ele><time>2026-04-05T10:08:54.002Z</time></trkpt><trkpt lat="43.2482683" lon="11.6443567"><ele>289.0</ele><time>2026-04-05T10:08:55.002Z</time></trkpt><trkpt lat="43.24816" lon="11.6442383"><ele>289.0</ele><time>2026-04-05T10:08:56.002Z</time></trkpt><trkpt lat="43.2480517" lon="11.6441167"><ele>289.0</ele><time>2026-04-05T10:08:57.002Z</time></trkpt><trkpt lat="43.24795" lon="11.6439867"><ele>289.0</ele><time>2026-04-05T10:08:58.002Z</time></trkpt><trkpt lat="43.2478483" lon="11.6438517"><ele>289.0</ele><time>2026-04-05T10:08:59.002Z</time></trkpt><trkpt lat="43.2477333" lon="11.6437133"><ele>289.0</ele><time>2026-04-05T10:09:00.002Z</time></trkpt><trkpt lat="43.2476183" lon="11.643575"><ele>289.3333333333333</ele><time>2026-04-05T10:09:01.002Z</time></trkpt><trkpt lat="43.2475017" lon="11.643435"><ele>289.6666666666667</ele><time>2026-04-05T10:09:02.002Z</time></trkpt><trkpt lat="43.2473733" lon="11.643295"><ele>290.0</ele><time>2026-04-05T10:09:03.002Z</time></trkpt><trkpt lat="43.2472433" lon="11.64315"><ele>290.0</ele><time>2026-04-05T10:09:04.002Z</time></trkpt><trkpt lat="43.247115" lon="11.6430033"><ele>290.0</ele><time>2026-04-05T10:09:05.002Z</time></trkpt><trkpt lat="43.2469883" lon="11.642855"><ele>290.0</ele><time>2026-04-05T10:09:06.002Z</time></trkpt><trkpt lat="43.2468567" lon="11.6427067"><ele>290.0</ele><time>2026-04-05T10:09:07.002Z</time></trkpt><trkpt lat="43.24672" lon="11.6425617"><ele>290.0</ele><time>2026-04-05T10:09:08.002Z</time></trkpt><trkpt lat="43.246585" lon="11.6424217"><ele>290.0</ele><time>2026-04-05T10:09:09.002Z</time></trkpt><trkpt lat="43.2464467" lon="11.64227"><ele>290.0</ele><time>2026-04-05T10:09:10.002Z</time></trkpt><trkpt lat="43.2463083" lon="11.6421183"><ele>290.0</ele><time>2026-04-05T10:09:11.002Z</time></trkpt><trkpt lat="43.246165" lon="11.6419733"><ele>290.0</ele><time>2026-04-05T10:09:12.002Z</time></trkpt><trkpt lat="43.246025" lon="11.6418217"><ele>290.0</ele><time>2026-04-05T10:09:13.002Z</time></trkpt><trkpt lat="43.2458867" lon="11.6416733"><ele>290.0</ele><time>2026-04-05T10:09:14.002Z</time></trkpt><trkpt lat="43.24575" lon="11.641515"><ele>290.0</ele><time>2026-04-05T10:09:15.002Z</time></trkpt><trkpt lat="43.2456167" lon="11.6413533"><ele>290.33333333333337</ele><time>2026-04-05T10:09:16.002Z</time></trkpt><trkpt lat="43.2454883" lon="11.64119"><ele>290.6666666666667</ele><time>2026-04-05T10:09:17.002Z</time></trkpt><trkpt lat="43.245365" lon="11.641025"><ele>291.0</ele><time>2026-04-05T10:09:18.002Z</time></trkpt><trkpt lat="43.2452483" lon="11.6408567"><ele>292.0</ele><time>2026-04-05T10:09:19.002Z</time></trkpt><trkpt lat="43.2451333" lon="11.6407"><ele>293.0</ele><time>2026-04-05T10:09:20.002Z</time></trkpt><trkpt lat="43.24502" lon="11.6405683"><ele>294.0</ele><time>2026-04-05T10:09:21.002Z</time></trkpt><trkpt lat="43.2449033" lon="11.6404767"><ele>295.0</ele><time>2026-04-05T10:09:22.002Z</time></trkpt><trkpt lat="43.2447683" lon="11.640435"><ele>295.0</ele><time>2026-04-05T10:09:23.002Z</time></trkpt><trkpt lat="43.2446267" lon="11.6404183"><ele>295.0</ele><time>2026-04-05T10:09:24.002Z</time></trkpt><trkpt lat="43.24448" lon="11.6404117"><ele>295.0</ele><time>2026-04-05T10:09:25.002Z</time></trkpt><trkpt lat="43.24433" lon="11.6403983"><ele>295.0</ele><time>2026-04-05T10:09:26.002Z</time></trkpt><trkpt lat="43.24418" lon="11.6403683"><ele>295.0</ele><time>2026-04-05T10:09:27.002Z</time></trkpt><trkpt lat="43.244045" lon="11.640315"><ele>295.0</ele><time>2026-04-05T10:09:28.002Z</time></trkpt><trkpt lat="43.2439067" lon="11.64025"><ele>295.0</ele><time>2026-04-05T10:09:29.002Z</time></trkpt><trkpt lat="43.2437817" lon="11.6401567"><ele>295.0</ele><time>2026-04-05T10:09:30.002Z</time></trkpt><trkpt lat="43.2436533" lon="11.6401033"><ele>297.0</ele><time>2026-04-05T10:09:31.002Z</time></trkpt><trkpt lat="43.243515" lon="11.6400767"><ele>299.0</ele><time>2026-04-05T10:09:32.002Z</time></trkpt><trkpt lat="43.24337" lon="11.6400883"><ele>301.0</ele><time>2026-04-05T10:09:33.003Z</time></trkpt><trkpt lat="43.243225" lon="11.640135"><ele>303.0</ele><time>2026-04-05T10:09:34.002Z</time></trkpt><trkpt lat="43.243085" lon="11.64019"><ele>304.4</ele><time>2026-04-05T10:09:35.002Z</time></trkpt><trkpt lat="43.242965" lon="11.6402533"><ele>305.8</ele><time>2026-04-05T10:09:36.002Z</time></trkpt><trkpt lat="43.24286" lon="11.640305"><ele>307.2</ele><time>2026-04-05T10:09:37.002Z</time></trkpt><trkpt lat="43.2427633" lon="11.640345"><ele>308.6</ele><time>2026-04-05T10:09:38.002Z</time></trkpt><trkpt lat="43.2426817" lon="11.640355"><ele>310.0</ele><time>2026-04-05T10:09:39.002Z</time></trkpt><trkpt lat="43.2426067" lon="11.6403333"><ele>310.0</ele><time>2026-04-05T10:09:40.002Z</time></trkpt><trkpt lat="43.2425433" lon="11.6402567"><ele>310.0</ele><time>2026-04-05T10:09:41.002Z</time></trkpt><trkpt lat="43.2425" lon="11.64015"><ele>310.0</ele><time>2026-04-05T10:09:42.002Z</time></trkpt><trkpt lat="43.24248" lon="11.6400267"><ele>310.0</ele><time>2026-04-05T10:09:43.002Z</time></trkpt><trkpt lat="43.2424567" lon="11.6398983"><ele>310.0</ele><time>2026-04-05T10:09:44.002Z</time></trkpt><trkpt lat="43.2424267" lon="11.6397767"><ele>310.0</ele><time>2026-04-05T10:09:45.002Z</time></trkpt><trkpt lat="43.2423883" lon="11.6396633"><ele>310.0</ele><time>2026-04-05T10:09:46.002Z</time></trkpt><trkpt lat="43.2423483" lon="11.63956"><ele>310.0</ele><time>2026-04-05T10:09:47.002Z</time></trkpt><trkpt lat="43.242305" lon="11.63946"><ele>310.0</ele><time>2026-04-05T10:09:48.002Z</time></trkpt><trkpt lat="43.242265" lon="11.63937"><ele>310.0</ele><time>2026-04-05T10:09:49.002Z</time></trkpt><trkpt lat="43.2422217" lon="11.6392783"><ele>310.0</ele><time>2026-04-05T10:09:50.002Z</time></trkpt><trkpt lat="43.2421833" lon="11.6391967"><ele>312.14285714285717</ele><time>2026-04-05T10:09:51.002Z</time></trkpt><trkpt lat="43.242145" lon="11.6391167"><ele>314.2857142857143</ele><time>2026-04-05T10:09:52.002Z</time></trkpt><trkpt lat="43.2421083" lon="11.6390333"><ele>316.42857142857144</ele><time>2026-04-05T10:09:53.002Z</time></trkpt><trkpt lat="43.2420617" lon="11.6389633"><ele>318.57142857142856</ele><time>2026-04-05T10:09:54.002Z</time></trkpt><trkpt lat="43.2419983" lon="11.638925"><ele>320.7142857142857</ele><time>2026-04-05T10:09:55.002Z</time></trkpt><trkpt lat="43.2419317" lon="11.6389283"><ele>322.85714285714283</ele><time>2026-04-05T10:09:56.002Z</time></trkpt><trkpt lat="43.2418533" lon="11.6389733"><ele>325.0</ele><time>2026-04-05T10:09:57.002Z</time></trkpt><trkpt lat="43.24178" lon="11.6390533"><ele>325.0</ele><time>2026-04-05T10:09:58.002Z</time></trkpt><trkpt lat="43.241705" lon="11.639155"><ele>325.0</ele><time>2026-04-05T10:09:59.002Z</time></trkpt><trkpt lat="43.2416283" lon="11.6392617"><ele>325.0</ele><time>2026-04-05T10:10:00.002Z</time></trkpt><trkpt lat="43.2415567" lon="11.639375"><ele>325.0</ele><time>2026-04-05T10:10:01.002Z</time></trkpt><trkpt lat="43.24149" lon="11.639495"><ele>325.0</ele><time>2026-04-05T10:10:02.002Z</time></trkpt><trkpt lat="43.24143" lon="11.6396233"><ele>327.4</ele><time>2026-04-05T10:10:03.002Z</time></trkpt><trkpt lat="43.24137" lon="11.6397583"><ele>329.8</ele><time>2026-04-05T10:10:04.002Z</time></trkpt><trkpt lat="43.2413167" lon="11.6398817"><ele>332.20000000000005</ele><time>2026-04-05T10:10:05.002Z</time></trkpt><trkpt lat="43.2412717" lon="11.6399917"><ele>334.6</ele><time>2026-04-05T10:10:06.002Z</time></trkpt><trkpt lat="43.2412217" lon="11.64009"><ele>337.0</ele><time>2026-04-05T10:10:07.002Z</time></trkpt><trkpt lat="43.241165" lon="11.640165"><ele>337.0</ele><time>2026-04-05T10:10:08.002Z</time></trkpt><trkpt lat="43.2411" lon="11.6402083"><ele>337.0</ele><time>2026-04-05T10:10:09.002Z</time></trkpt><trkpt lat="43.2410233" lon="11.6402233"><ele>337.0</ele><time>2026-04-05T10:10:10.002Z</time></trkpt><trkpt lat="43.240955" lon="11.6402133"><ele>337.0</ele><time>2026-04-05T10:10:11.002Z</time></trkpt><trkpt lat="43.24089" lon="11.6401767"><ele>337.0</ele><time>2026-04-05T10:10:12.002Z</time></trkpt><trkpt lat="43.2408217" lon="11.6401"><ele>337.0</ele><time>2026-04-05T10:10:13.002Z</time></trkpt><trkpt lat="43.2407433" lon="11.6400133"><ele>337.0</ele><time>2026-04-05T10:10:14.002Z</time></trkpt><trkpt lat="43.240665" lon="11.6399233"><ele>337.0</ele><time>2026-04-05T10:10:15.002Z</time></trkpt><trkpt lat="43.2405833" lon="11.6398267"><ele>337.0</ele><time>2026-04-05T10:10:16.002Z</time></trkpt><trkpt lat="43.2405033" lon="11.6397283"><ele>337.0</ele><time>2026-04-05T10:10:17.002Z</time></trkpt><trkpt lat="43.240425" lon="11.6396283"><ele>337.0</ele><time>2026-04-05T10:10:18.002Z</time></trkpt><trkpt lat="43.2403483" lon="11.6395283"><ele>339.3333333333333</ele><time>2026-04-05T10:10:19.002Z</time></trkpt><trkpt lat="43.2402783" lon="11.6394417"><ele>341.66666666666663</ele><time>2026-04-05T10:10:20.002Z</time></trkpt><trkpt lat="43.2402133" lon="11.6393633"><ele>344.0</ele><time>2026-04-05T10:10:21.002Z</time></trkpt><trkpt lat="43.24016" lon="11.6392883"><ele>346.3333333333333</ele><time>2026-04-05T10:10:22.002Z</time></trkpt><trkpt lat="43.2401117" lon="11.6392083"><ele>348.6666666666667</ele><time>2026-04-05T10:10:23.002Z</time></trkpt><trkpt lat="43.2400833" lon="11.63913"><ele>351.0</ele><time>2026-04-05T10:10:24.002Z</time></trkpt><trkpt lat="43.2400783" lon="11.639035"><ele>351.0</ele><time>2026-04-05T10:10:25.002Z</time></trkpt><trkpt lat="43.2400833" lon="11.6389283"><ele>351.0</ele><time>2026-04-05T10:10:26.002Z</time></trkpt><trkpt lat="43.2400817" lon="11.6388133"><ele>351.0</ele><time>2026-04-05T10:10:27.002Z</time></trkpt><trkpt lat="43.240075" lon="11.6386833"><ele>351.0</ele><time>2026-04-05T10:10:28.002Z</time></trkpt><trkpt lat="43.2400567" lon="11.638555"><ele>351.0</ele><time>2026-04-05T10:10:29.002Z</time></trkpt><trkpt lat="43.2400133" lon="11.6383983"><ele>351.0</ele><time>2026-04-05T10:10:30.002Z</time></trkpt><trkpt lat="43.2399567" lon="11.638255"><ele>351.0</ele><time>2026-04-05T10:10:31.002Z</time></trkpt><trkpt lat="43.2398983" lon="11.63812"><ele>351.0</ele><time>2026-04-05T10:10:32.002Z</time></trkpt><trkpt lat="43.239835" lon="11.6379783"><ele>351.0</ele><time>2026-04-05T10:10:33.002Z</time></trkpt><trkpt lat="43.2397683" lon="11.63785"><ele>352.4</ele><time>2026-04-05T10:10:34.002Z</time></trkpt><trkpt lat="43.239705" lon="11.6377167"><ele>353.8</ele><time>2026-04-05T10:10:35.002Z</time></trkpt><trkpt lat="43.2396467" lon="11.6376083"><ele>355.2</ele><time>2026-04-05T10:10:36.002Z</time></trkpt><trkpt lat="43.2395817" lon="11.6375183"><ele>356.59999999999997</ele><time>2026-04-05T10:10:37.002Z</time></trkpt><trkpt lat="43.2395167" lon="11.63745"><ele>358.0</ele><time>2026-04-05T10:10:38.002Z</time></trkpt><trkpt lat="43.2394367" lon="11.6374083"><ele>358.0</ele><time>2026-04-05T10:10:39.002Z</time></trkpt><trkpt lat="43.239335" lon="11.6373783"><ele>358.0</ele><time>2026-04-05T10:10:40.002Z</time></trkpt><trkpt lat="43.2392233" lon="11.6373667"><ele>358.0</ele><time>2026-04-05T10:10:41.002Z</time></trkpt><trkpt lat="43.23911" lon="11.6373517"><ele>358.0</ele><time>2026-04-05T10:10:42.002Z</time></trkpt><trkpt lat="43.2389983" lon="11.637325"><ele>358.0</ele><time>2026-04-05T10:10:43.002Z</time></trkpt><trkpt lat="43.2388917" lon="11.6372983"><ele>358.75</ele><time>2026-04-05T10:10:44.002Z</time></trkpt><trkpt lat="43.2387817" lon="11.6372633"><ele>359.5</ele><time>2026-04-05T10:10:45.002Z</time></trkpt><trkpt lat="43.2386683" lon="11.6372333"><ele>360.25</ele><time>2026-04-05T10:10:46.002Z</time></trkpt><trkpt lat="43.2385567" lon="11.6372017"><ele>361.0</ele><time>2026-04-05T10:10:47.002Z</time></trkpt><trkpt lat="43.2384433" lon="11.6371633"><ele>361.0</ele><time>2026-04-05T10:10:48.002Z</time></trkpt><trkpt lat="43.2383333" lon="11.6371217"><ele>361.0</ele><time>2026-04-05T10:10:49.002Z</time></trkpt><trkpt lat="43.238205" lon="11.6370783"><ele>361.0</ele><time>2026-04-05T10:10:50.002Z</time></trkpt><trkpt lat="43.2380633" lon="11.6370217"><ele>361.0</ele><time>2026-04-05T10:10:51.002Z</time></trkpt><trkpt lat="43.237915" lon="11.6369517"><ele>363.0</ele><time>2026-04-05T10:10:52.002Z</time></trkpt><trkpt lat="43.23775" lon="11.636865"><ele>365.0</ele><time>2026-04-05T10:10:53.002Z</time></trkpt><trkpt lat="43.2375833" lon="11.63678"><ele>367.0</ele><time>2026-04-05T10:10:54.002Z</time></trkpt><trkpt lat="43.2374283" lon="11.6366883"><ele>364.0</ele><time>2026-04-05T10:10:55.002Z</time></trkpt><trkpt lat="43.2372817" lon="11.6365933"><ele>361.0</ele><time>2026-04-05T10:10:56.002Z</time></trkpt><trkpt lat="43.237145" lon="11.6365133"><ele>358.0</ele><time>2026-04-05T10:10:57.002Z</time></trkpt><trkpt lat="43.2370133" lon="11.636435"><ele>358.0</ele><time>2026-04-05T10:10:58.002Z</time></trkpt><trkpt lat="43.2368883" lon="11.6363433"><ele>358.0</ele><time>2026-04-05T10:10:59.002Z</time></trkpt><trkpt lat="43.23677" lon="11.6362533"><ele>358.0</ele><time>2026-04-05T10:11:00.002Z</time></trkpt><trkpt lat="43.2366567" lon="11.6361467"><ele>358.0</ele><time>2026-04-05T10:11:01.002Z</time></trkpt><trkpt lat="43.236545" lon="11.6360183"><ele>356.25</ele><time>2026-04-05T10:11:02.002Z</time></trkpt><trkpt lat="43.236445" lon="11.635885"><ele>354.5</ele><time>2026-04-05T10:11:03.002Z</time></trkpt><trkpt lat="43.2363467" lon="11.635745"><ele>352.75</ele><time>2026-04-05T10:11:04.002Z</time></trkpt><trkpt lat="43.23625" lon="11.6356033"><ele>351.0</ele><time>2026-04-05T10:11:05.002Z</time></trkpt><trkpt lat="43.2361583" lon="11.6354583"><ele>351.0</ele><time>2026-04-05T10:11:06.002Z</time></trkpt><trkpt lat="43.2360667" lon="11.6353083"><ele>351.0</ele><time>2026-04-05T10:11:07.002Z</time></trkpt><trkpt lat="43.2359883" lon="11.6351533"><ele>351.0</ele><time>2026-04-05T10:11:08.002Z</time></trkpt><trkpt lat="43.2359133" lon="11.6349967"><ele>351.0</ele><time>2026-04-05T10:11:09.002Z</time></trkpt><trkpt lat="43.23584" lon="11.6348483"><ele>349.75</ele><time>2026-04-05T10:11:10.002Z</time></trkpt><trkpt lat="43.2357667" lon="11.6346983"><ele>348.5</ele><time>2026-04-05T10:11:11.002Z</time></trkpt><trkpt lat="43.2356767" lon="11.634575"><ele>347.25</ele><time>2026-04-05T10:11:12.002Z</time></trkpt><trkpt lat="43.23556" lon="11.6344733"><ele>346.0</ele><time>2026-04-05T10:11:13.002Z</time></trkpt><trkpt lat="43.235435" lon="11.6343883"><ele>349.25</ele><time>2026-04-05T10:11:14.002Z</time></trkpt><trkpt lat="43.2353017" lon="11.6343217"><ele>352.5</ele><time>2026-04-05T10:11:15.002Z</time></trkpt><trkpt lat="43.2351683" lon="11.634255"><ele>355.75</ele><time>2026-04-05T10:11:16.002Z</time></trkpt><trkpt lat="43.2350333" lon="11.634185"><ele>359.0</ele><time>2026-04-05T10:11:17.002Z</time></trkpt><trkpt lat="43.2348883" lon="11.6341233"><ele>357.0</ele><time>2026-04-05T10:11:18.002Z</time></trkpt><trkpt lat="43.23474" lon="11.6340717"><ele>355.0</ele><time>2026-04-05T10:11:19.002Z</time></trkpt><trkpt lat="43.23459" lon="11.6340283"><ele>353.0</ele><time>2026-04-05T10:11:20.002Z</time></trkpt><trkpt lat="43.2344367" lon="11.633985"><ele>353.0</ele><time>2026-04-05T10:11:21.002Z</time></trkpt><trkpt lat="43.2342783" lon="11.6339567"><ele>353.0</ele><time>2026-04-05T10:11:22.002Z</time></trkpt><trkpt lat="43.2341183" lon="11.63394"><ele>353.0</ele><time>2026-04-05T10:11:23.002Z</time></trkpt><trkpt lat="43.233955" lon="11.6339367"><ele>353.0</ele><time>2026-04-05T10:11:24.002Z</time></trkpt><trkpt lat="43.233795" lon="11.63395"><ele>353.0</ele><time>2026-04-05T10:11:25.002Z</time></trkpt><trkpt lat="43.2336367" lon="11.6339583"><ele>353.0</ele><time>2026-04-05T10:11:26.002Z</time></trkpt><trkpt lat="43.23348" lon="11.6339583"><ele>353.0</ele><time>2026-04-05T10:11:27.002Z</time></trkpt><trkpt lat="43.2333183" lon="11.6339267"><ele>353.0</ele><time>2026-04-05T10:11:28.002Z</time></trkpt><trkpt lat="43.2331617" lon="11.633885"><ele>353.0</ele><time>2026-04-05T10:11:29.002Z</time></trkpt><trkpt lat="43.2330133" lon="11.6338267"><ele>354.6666666666667</ele><time>2026-04-05T10:11:30.002Z</time></trkpt><trkpt lat="43.2328617" lon="11.6337667"><ele>356.3333333333333</ele><time>2026-04-05T10:11:31.002Z</time></trkpt><trkpt lat="43.232715" lon="11.633705"><ele>358.0</ele><time>2026-04-05T10:11:32.002Z</time></trkpt><trkpt lat="43.2325733" lon="11.633645"><ele>358.0</ele><time>2026-04-05T10:11:33.002Z</time></trkpt><trkpt lat="43.2324217" lon="11.633575"><ele>358.0</ele><time>2026-04-05T10:11:34.002Z</time></trkpt><trkpt lat="43.2322717" lon="11.63352"><ele>358.0</ele><time>2026-04-05T10:11:35.002Z</time></trkpt><trkpt lat="43.232115" lon="11.6334567"><ele>360.66666666666663</ele><time>2026-04-05T10:11:36.002Z</time></trkpt><trkpt lat="43.2319483" lon="11.6333917"><ele>363.3333333333333</ele><time>2026-04-05T10:11:37.002Z</time></trkpt><trkpt lat="43.2317833" lon="11.6333283"><ele>366.0</ele><time>2026-04-05T10:11:38.002Z</time></trkpt><trkpt lat="43.2316217" lon="11.63327"><ele>368.0</ele><time>2026-04-05T10:11:39.002Z</time></trkpt><trkpt lat="43.2314683" lon="11.6332067"><ele>370.0</ele><time>2026-04-05T10:11:40.002Z</time></trkpt><trkpt lat="43.2313283" lon="11.6331417"><ele>372.0</ele><time>2026-04-05T10:11:41.002Z</time></trkpt><trkpt lat="43.2312083" lon="11.6330733"><ele>374.0</ele><time>2026-04-05T10:11:42.002Z</time></trkpt><trkpt lat="43.2310933" lon="11.6329967"><ele>374.0</ele><time>2026-04-05T10:11:43.002Z</time></trkpt><trkpt lat="43.2310017" lon="11.63292"><ele>374.0</ele><time>2026-04-05T10:11:44.002Z</time></trkpt><trkpt lat="43.2309233" lon="11.63285"><ele>374.0</ele><time>2026-04-05T10:11:45.002Z</time></trkpt><trkpt lat="43.2308517" lon="11.63279"><ele>374.0</ele><time>2026-04-05T10:11:46.002Z</time></trkpt><trkpt lat="43.2308" lon="11.63274"><ele>374.0</ele><time>2026-04-05T10:11:47.002Z</time></trkpt><trkpt lat="43.2307167" lon="11.6327083"><ele>374.0</ele><time>2026-04-05T10:11:49.002Z</time></trkpt><trkpt lat="43.2306383" lon="11.6327267"><ele>375.4</ele><time>2026-04-05T10:11:51.002Z</time></trkpt><trkpt lat="43.2305617" lon="11.6327967"><ele>376.79999999999995</ele><time>2026-04-05T10:11:53.002Z</time></trkpt><trkpt lat="43.2304817" lon="11.6329267"><ele>378.20000000000005</ele><time>2026-04-05T10:11:55.002Z</time></trkpt><trkpt lat="43.23042" lon="11.63301"><ele>379.6</ele><time>2026-04-05T10:11:56.002Z</time></trkpt><trkpt lat="43.2303467" lon="11.6330917"><ele>381.0</ele><time>2026-04-05T10:11:57.002Z</time></trkpt><trkpt lat="43.23026" lon="11.633175"><ele>381.0</ele><time>2026-04-05T10:11:58.002Z</time></trkpt><trkpt lat="43.230165" lon="11.63326"><ele>381.0</ele><time>2026-04-05T10:11:59.002Z</time></trkpt><trkpt lat="43.23005" lon="11.63336"><ele>381.0</ele><time>2026-04-05T10:12:00.002Z</time></trkpt><trkpt lat="43.2299283" lon="11.6334583"><ele>381.0</ele><time>2026-04-05T10:12:01.002Z</time></trkpt><trkpt lat="43.2298033" lon="11.6335717"><ele>381.6666666666667</ele><time>2026-04-05T10:12:02.002Z</time></trkpt><trkpt lat="43.22968" lon="11.6336817"><ele>382.33333333333337</ele><time>2026-04-05T10:12:03.002Z</time></trkpt><trkpt lat="43.2295483" lon="11.633795"><ele>383.0</ele><time>2026-04-05T10:12:04.002Z</time></trkpt><trkpt lat="43.229425" lon="11.6339067"><ele>383.0</ele><time>2026-04-05T10:12:05.002Z</time></trkpt><trkpt lat="43.22929" lon="11.634025"><ele>383.0</ele><time>2026-04-05T10:12:06.002Z</time></trkpt><trkpt lat="43.2291567" lon="11.6341517"><ele>383.0</ele><time>2026-04-05T10:12:07.002Z</time></trkpt><trkpt lat="43.2290317" lon="11.6342683"><ele>384.0</ele><time>2026-04-05T10:12:08.002Z</time></trkpt><trkpt lat="43.2289033" lon="11.6343867"><ele>385.0</ele><time>2026-04-05T10:12:09.002Z</time></trkpt><trkpt lat="43.2287733" lon="11.63451"><ele>386.0</ele><time>2026-04-05T10:12:10.002Z</time></trkpt><trkpt lat="43.2286467" lon="11.63462"><ele>386.0</ele><time>2026-04-05T10:12:11.002Z</time></trkpt><trkpt lat="43.2285167" lon="11.6347183"><ele>386.0</ele><time>2026-04-05T10:12:12.002Z</time></trkpt><trkpt lat="43.228385" lon="11.6348017"><ele>386.0</ele><time>2026-04-05T10:12:13.002Z</time></trkpt><trkpt lat="43.228255" lon="11.6348683"><ele>386.0</ele><time>2026-04-05T10:12:14.002Z</time></trkpt><trkpt lat="43.228135" lon="11.634935"><ele>386.5</ele><time>2026-04-05T10:12:15.002Z</time></trkpt><trkpt lat="43.22803" lon="11.6350217"><ele>387.0</ele><time>2026-04-05T10:12:16.002Z</time></trkpt><trkpt lat="43.22794" lon="11.6351433"><ele>387.5</ele><time>2026-04-05T10:12:17.002Z</time></trkpt><trkpt lat="43.2278533" lon="11.63529"><ele>388.0</ele><time>2026-04-05T10:12:18.002Z</time></trkpt><trkpt lat="43.2277767" lon="11.6354567"><ele>388.0</ele><time>2026-04-05T10:12:19.002Z</time></trkpt><trkpt lat="43.2277117" lon="11.6356233"><ele>388.0</ele><time>2026-04-05T10:12:20.002Z</time></trkpt><trkpt lat="43.227645" lon="11.635795"><ele>388.0</ele><time>2026-04-05T10:12:21.002Z</time></trkpt><trkpt lat="43.2275783" lon="11.635965"><ele>388.0</ele><time>2026-04-05T10:12:22.002Z</time></trkpt><trkpt lat="43.2274983" lon="11.6361233"><ele>387.5</ele><time>2026-04-05T10:12:23.002Z</time></trkpt><trkpt lat="43.2274217" lon="11.63628"><ele>387.0</ele><time>2026-04-05T10:12:24.002Z</time></trkpt><trkpt lat="43.2273283" lon="11.6364217"><ele>386.5</ele><time>2026-04-05T10:12:25.002Z</time></trkpt><trkpt lat="43.2272217" lon="11.6365383"><ele>386.0</ele><time>2026-04-05T10:12:26.002Z</time></trkpt><trkpt lat="43.2271083" lon="11.6366533"><ele>386.0</ele><time>2026-04-05T10:12:27.002Z</time></trkpt><trkpt lat="43.2269933" lon="11.6367667"><ele>386.0</ele><time>2026-04-05T10:12:28.002Z</time></trkpt><trkpt lat="43.22689" lon="11.6368833"><ele>386.0</ele><time>2026-04-05T10:12:29.002Z</time></trkpt><trkpt lat="43.226795" lon="11.63701"><ele>386.0</ele><time>2026-04-05T10:12:30.002Z</time></trkpt><trkpt lat="43.2267033" lon="11.637145"><ele>386.0</ele><time>2026-04-05T10:12:31.002Z</time></trkpt><trkpt lat="43.2266283" lon="11.6372917"><ele>386.0</ele><time>2026-04-05T10:12:32.002Z</time></trkpt><trkpt lat="43.2265817" lon="11.6374567"><ele>386.0</ele><time>2026-04-05T10:12:33.002Z</time></trkpt><trkpt lat="43.22656" lon="11.6376283"><ele>386.0</ele><time>2026-04-05T10:12:34.002Z</time></trkpt><trkpt lat="43.2265517" lon="11.6378083"><ele>385.0</ele><time>2026-04-05T10:12:35.002Z</time></trkpt><trkpt lat="43.22654" lon="11.6380017"><ele>384.0</ele><time>2026-04-05T10:12:36.002Z</time></trkpt><trkpt lat="43.2265367" lon="11.6382017"><ele>383.0</ele><time>2026-04-05T10:12:37.002Z</time></trkpt><trkpt lat="43.2265417" lon="11.6383983"><ele>382.0</ele><time>2026-04-05T10:12:38.002Z</time></trkpt><trkpt lat="43.2265567" lon="11.6385867"><ele>382.0</ele><time>2026-04-05T10:12:39.002Z</time></trkpt><trkpt lat="43.2265917" lon="11.63878"><ele>382.0</ele><time>2026-04-05T10:12:40.002Z</time></trkpt><trkpt lat="43.2266367" lon="11.63896"><ele>382.0</ele><time>2026-04-05T10:12:41.002Z</time></trkpt><trkpt lat="43.2266883" lon="11.6391367"><ele>382.0</ele><time>2026-04-05T10:12:42.002Z</time></trkpt><trkpt lat="43.226725" lon="11.6393117"><ele>382.25</ele><time>2026-04-05T10:12:43.002Z</time></trkpt><trkpt lat="43.2267417" lon="11.6395017"><ele>382.5</ele><time>2026-04-05T10:12:44.002Z</time></trkpt><trkpt lat="43.22674" lon="11.639685"><ele>382.75</ele><time>2026-04-05T10:12:45.002Z</time></trkpt><trkpt lat="43.22671" lon="11.63986"><ele>383.0</ele><time>2026-04-05T10:12:46.002Z</time></trkpt><trkpt lat="43.2266533" lon="11.6400317"><ele>383.0</ele><time>2026-04-05T10:12:47.002Z</time></trkpt><trkpt lat="43.2265617" lon="11.6401833"><ele>383.0</ele><time>2026-04-05T10:12:48.002Z</time></trkpt><trkpt lat="43.2264467" lon="11.6403133"><ele>383.0</ele><time>2026-04-05T10:12:49.002Z</time></trkpt><trkpt lat="43.2263283" lon="11.6404167"><ele>383.0</ele><time>2026-04-05T10:12:50.002Z</time></trkpt><trkpt lat="43.2261933" lon="11.6405117"><ele>383.6666666666667</ele><time>2026-04-05T10:12:51.002Z</time></trkpt><trkpt lat="43.2260483" lon="11.6405917"><ele>384.33333333333337</ele><time>2026-04-05T10:12:52.002Z</time></trkpt><trkpt lat="43.2259" lon="11.6406667"><ele>385.0</ele><time>2026-04-05T10:12:53.002Z</time></trkpt><trkpt lat="43.2257483" lon="11.640725"><ele>387.33333333333337</ele><time>2026-04-05T10:12:54.002Z</time></trkpt><trkpt lat="43.2255983" lon="11.6407867"><ele>389.66666666666663</ele><time>2026-04-05T10:12:55.002Z</time></trkpt><trkpt lat="43.22545" lon="11.6408517"><ele>392.0</ele><time>2026-04-05T10:12:56.002Z</time></trkpt><trkpt lat="43.2252933" lon="11.64091"><ele>392.0</ele><time>2026-04-05T10:12:57.002Z</time></trkpt><trkpt lat="43.225135" lon="11.640965"><ele>392.0</ele><time>2026-04-05T10:12:58.002Z</time></trkpt><trkpt lat="43.22498" lon="11.6410133"><ele>392.0</ele><time>2026-04-05T10:12:59.002Z</time></trkpt><trkpt lat="43.2248317" lon="11.6410767"><ele>392.0</ele><time>2026-04-05T10:13:00.002Z</time></trkpt><trkpt lat="43.2246783" lon="11.641145"><ele>392.0</ele><time>2026-04-05T10:13:01.002Z</time></trkpt><trkpt lat="43.2245417" lon="11.6412467"><ele>392.0</ele><time>2026-04-05T10:13:02.002Z</time></trkpt><trkpt lat="43.2244217" lon="11.64137"><ele>392.0</ele><time>2026-04-05T10:13:03.002Z</time></trkpt><trkpt lat="43.2243133" lon="11.64152"><ele>392.0</ele><time>2026-04-05T10:13:04.002Z</time></trkpt><trkpt lat="43.2242083" lon="11.6416833"><ele>392.0</ele><time>2026-04-05T10:13:05.002Z</time></trkpt><trkpt lat="43.224115" lon="11.6418633"><ele>391.3333333333333</ele><time>2026-04-05T10:13:06.002Z</time></trkpt><trkpt lat="43.22402" lon="11.642045"><ele>390.66666666666663</ele><time>2026-04-05T10:13:07.002Z</time></trkpt><trkpt lat="43.2239433" lon="11.64222"><ele>390.0</ele><time>2026-04-05T10:13:08.002Z</time></trkpt><trkpt lat="43.2238617" lon="11.642375"><ele>392.25</ele><time>2026-04-05T10:13:09.002Z</time></trkpt><trkpt lat="43.223775" lon="11.6425033"><ele>394.5</ele><time>2026-04-05T10:13:10.002Z</time></trkpt><trkpt lat="43.2236517" lon="11.642615"><ele>396.75</ele><time>2026-04-05T10:13:11.002Z</time></trkpt><trkpt lat="43.2235217" lon="11.64269"><ele>399.0</ele><time>2026-04-05T10:13:12.002Z</time></trkpt><trkpt lat="43.2233783" lon="11.6427233"><ele>399.0</ele><time>2026-04-05T10:13:13.002Z</time></trkpt><trkpt lat="43.223235" lon="11.642755"><ele>399.0</ele><time>2026-04-05T10:13:14.002Z</time></trkpt><trkpt lat="43.2230917" lon="11.6428067"><ele>399.0</ele><time>2026-04-05T10:13:15.002Z</time></trkpt><trkpt lat="43.2229667" lon="11.6428917"><ele>399.0</ele><time>2026-04-05T10:13:16.002Z</time></trkpt><trkpt lat="43.222865" lon="11.6430133"><ele>399.25</ele><time>2026-04-05T10:13:17.002Z</time></trkpt><trkpt lat="43.222795" lon="11.6431583"><ele>399.5</ele><time>2026-04-05T10:13:18.002Z</time></trkpt><trkpt lat="43.2227633" lon="11.6433117"><ele>399.75</ele><time>2026-04-05T10:13:19.002Z</time></trkpt><trkpt lat="43.222755" lon="11.6434817"><ele>400.0</ele><time>2026-04-05T10:13:20.002Z</time></trkpt><trkpt lat="43.22276" lon="11.6436517"><ele>400.0</ele><time>2026-04-05T10:13:21.002Z</time></trkpt><trkpt lat="43.222755" lon="11.6438217"><ele>400.0</ele><time>2026-04-05T10:13:22.002Z</time></trkpt><trkpt lat="43.2227383" lon="11.643995"><ele>400.0</ele><time>2026-04-05T10:13:23.002Z</time></trkpt><trkpt lat="43.22268" lon="11.6441517"><ele>400.0</ele><time>2026-04-05T10:13:24.002Z</time></trkpt><trkpt lat="43.2226067" lon="11.6443017"><ele>400.0</ele><time>2026-04-05T10:13:25.002Z</time></trkpt><trkpt lat="43.2225067" lon="11.64442"><ele>400.0</ele><time>2026-04-05T10:13:26.002Z</time></trkpt><trkpt lat="43.22238" lon="11.6445083"><ele>400.0</ele><time>2026-04-05T10:13:27.002Z</time></trkpt><trkpt lat="43.2222467" lon="11.64454"><ele>400.0</ele><time>2026-04-05T10:13:28.002Z</time></trkpt><trkpt lat="43.2221267" lon="11.6445167"><ele>400.5</ele><time>2026-04-05T10:13:29.002Z</time></trkpt><trkpt lat="43.2220233" lon="11.6444367"><ele>401.0</ele><time>2026-04-05T10:13:30.002Z</time></trkpt><trkpt lat="43.2219233" lon="11.64433"><ele>401.5</ele><time>2026-04-05T10:13:31.002Z</time></trkpt><trkpt lat="43.2218233" lon="11.64421"><ele>402.0</ele><time>2026-04-05T10:13:32.002Z</time></trkpt><trkpt lat="43.2217317" lon="11.644085"><ele>402.0</ele><time>2026-04-05T10:13:33.002Z</time></trkpt><trkpt lat="43.2216417" lon="11.6439667"><ele>402.0</ele><time>2026-04-05T10:13:34.002Z</time></trkpt><trkpt lat="43.2215433" lon="11.6438833"><ele>402.0</ele><time>2026-04-05T10:13:35.002Z</time></trkpt><trkpt lat="43.22144" lon="11.64384"><ele>402.0</ele><time>2026-04-05T10:13:36.002Z</time></trkpt><trkpt lat="43.2213467" lon="11.643855"><ele>402.0</ele><time>2026-04-05T10:13:37.002Z</time></trkpt><trkpt lat="43.2212517" lon="11.6439217"><ele>402.25</ele><time>2026-04-05T10:13:38.002Z</time></trkpt><trkpt lat="43.2211817" lon="11.6440333"><ele>402.5</ele><time>2026-04-05T10:13:39.002Z</time></trkpt><trkpt lat="43.2211183" lon="11.6441667"><ele>402.75</ele><time>2026-04-05T10:13:40.002Z</time></trkpt><trkpt lat="43.2210617" lon="11.644305"><ele>403.0</ele><time>2026-04-05T10:13:41.002Z</time></trkpt><trkpt lat="43.2210017" lon="11.6444367"><ele>400.0</ele><time>2026-04-05T10:13:42.002Z</time></trkpt><trkpt lat="43.2209183" lon="11.64454"><ele>397.0</ele><time>2026-04-05T10:13:43.002Z</time></trkpt><trkpt lat="43.2208117" lon="11.6445833"><ele>394.0</ele><time>2026-04-05T10:13:44.002Z</time></trkpt><trkpt lat="43.2206883" lon="11.64458"><ele>391.0</ele><time>2026-04-05T10:13:45.002Z</time></trkpt><trkpt lat="43.2205683" lon="11.64452"><ele>392.5</ele><time>2026-04-05T10:13:46.002Z</time></trkpt><trkpt lat="43.2204517" lon="11.6444417"><ele>394.0</ele><time>2026-04-05T10:13:47.002Z</time></trkpt><trkpt lat="43.2203333" lon="11.644365"><ele>395.5</ele><time>2026-04-05T10:13:48.002Z</time></trkpt><trkpt lat="43.2202067" lon="11.6443083"><ele>397.0</ele><time>2026-04-05T10:13:49.002Z</time></trkpt><trkpt lat="43.220075" lon="11.6442683"><ele>397.0</ele><time>2026-04-05T10:13:50.002Z</time></trkpt><trkpt lat="43.2199417" lon="11.6442583"><ele>397.0</ele><time>2026-04-05T10:13:51.002Z</time></trkpt><trkpt lat="43.2198133" lon="11.6442767"><ele>397.0</ele><time>2026-04-05T10:13:52.002Z</time></trkpt><trkpt lat="43.2196967" lon="11.6443267"><ele>397.0</ele><time>2026-04-05T10:13:53.002Z</time></trkpt><trkpt lat="43.2195817" lon="11.644405"><ele>396.75</ele><time>2026-04-05T10:13:54.002Z</time></trkpt><trkpt lat="43.21948" lon="11.6445067"><ele>396.5</ele><time>2026-04-05T10:13:55.002Z</time></trkpt><trkpt lat="43.219385" lon="11.64462"><ele>396.25</ele><time>2026-04-05T10:13:56.002Z</time></trkpt><trkpt lat="43.2192933" lon="11.6447317"><ele>396.0</ele><time>2026-04-05T10:13:57.002Z</time></trkpt><trkpt lat="43.2191767" lon="11.6448367"><ele>396.0</ele><time>2026-04-05T10:13:58.002Z</time></trkpt><trkpt lat="43.2190467" lon="11.644925"><ele>396.0</ele><time>2026-04-05T10:13:59.002Z</time></trkpt><trkpt lat="43.2189033" lon="11.6449867"><ele>396.0</ele><time>2026-04-05T10:14:00.002Z</time></trkpt><trkpt lat="43.21876" lon="11.6450433"><ele>396.0</ele><time>2026-04-05T10:14:01.002Z</time></trkpt><trkpt lat="43.21862" lon="11.6450967"><ele>398.5</ele><time>2026-04-05T10:14:02.002Z</time></trkpt><trkpt lat="43.21849" lon="11.6451417"><ele>401.0</ele><time>2026-04-05T10:14:03.002Z</time></trkpt><trkpt lat="43.2183583" lon="11.6451867"><ele>403.5</ele><time>2026-04-05T10:14:04.002Z</time></trkpt><trkpt lat="43.2182283" lon="11.645235"><ele>406.0</ele><time>2026-04-05T10:14:05.002Z</time></trkpt><trkpt lat="43.218125" lon="11.6452717"><ele>408.00000000000006</ele><time>2026-04-05T10:14:06.002Z</time></trkpt><trkpt lat="43.2180467" lon="11.6453217"><ele>410.0</ele><time>2026-04-05T10:14:07.002Z</time></trkpt><trkpt lat="43.217995" lon="11.6454083"><ele>412.0</ele><time>2026-04-05T10:14:08.002Z</time></trkpt><trkpt lat="43.2179717" lon="11.6455133"><ele>414.0</ele><time>2026-04-05T10:14:09.002Z</time></trkpt><trkpt lat="43.21798" lon="11.645635"><ele>416.00000000000006</ele><time>2026-04-05T10:14:10.002Z</time></trkpt><trkpt lat="43.2180217" lon="11.6457583"><ele>418.0</ele><time>2026-04-05T10:14:11.002Z</time></trkpt><trkpt lat="43.2180883" lon="11.6458917"><ele>414.75</ele><time>2026-04-05T10:14:12.002Z</time></trkpt><trkpt lat="43.21816" lon="11.646015"><ele>411.5</ele><time>2026-04-05T10:14:13.002Z</time></trkpt><trkpt lat="43.218235" lon="11.6461467"><ele>408.25</ele><time>2026-04-05T10:14:14.002Z</time></trkpt><trkpt lat="43.2183067" lon="11.6463033"><ele>405.0</ele><time>2026-04-05T10:14:15.002Z</time></trkpt><trkpt lat="43.2183517" lon="11.6464683"><ele>405.0</ele><time>2026-04-05T10:14:16.002Z</time></trkpt><trkpt lat="43.218385" lon="11.6466333"><ele>405.0</ele><time>2026-04-05T10:14:17.002Z</time></trkpt><trkpt lat="43.218415" lon="11.646805"><ele>405.0</ele><time>2026-04-05T10:14:18.002Z</time></trkpt><trkpt lat="43.2184617" lon="11.646965"><ele>405.0</ele><time>2026-04-05T10:14:19.002Z</time></trkpt><trkpt lat="43.2185267" lon="11.6471133"><ele>406.0</ele><time>2026-04-05T10:14:20.002Z</time></trkpt><trkpt lat="43.2186" lon="11.6472367"><ele>407.0</ele><time>2026-04-05T10:14:21.002Z</time></trkpt><trkpt lat="43.2187033" lon="11.647325"><ele>408.0</ele><time>2026-04-05T10:14:22.002Z</time></trkpt><trkpt lat="43.2188117" lon="11.6473917"><ele>409.0</ele><time>2026-04-05T10:14:23.002Z</time></trkpt><trkpt lat="43.21893" lon="11.64744"><ele>408.5</ele><time>2026-04-05T10:14:24.002Z</time></trkpt><trkpt lat="43.2190617" lon="11.6474667"><ele>408.0</ele><time>2026-04-05T10:14:25.002Z</time></trkpt><trkpt lat="43.21919" lon="11.6474517"><ele>407.5</ele><time>2026-04-05T10:14:26.002Z</time></trkpt><trkpt lat="43.2193133" lon="11.6474133"><ele>407.0</ele><time>2026-04-05T10:14:27.002Z</time></trkpt><trkpt lat="43.2194317" lon="11.6473683"><ele>407.0</ele><time>2026-04-05T10:14:28.002Z</time></trkpt><trkpt lat="43.2195517" lon="11.64732"><ele>407.0</ele><time>2026-04-05T10:14:29.002Z</time></trkpt><trkpt lat="43.2196867" lon="11.6473"><ele>407.0</ele><time>2026-04-05T10:14:30.002Z</time></trkpt><trkpt lat="43.2198117" lon="11.64731"><ele>407.0</ele><time>2026-04-05T10:14:31.002Z</time></trkpt><trkpt lat="43.2199283" lon="11.64734"><ele>407.0</ele><time>2026-04-05T10:14:32.002Z</time></trkpt><trkpt lat="43.220025" lon="11.6474067"><ele>407.0</ele><time>2026-04-05T10:14:33.002Z</time></trkpt><trkpt lat="43.2200967" lon="11.647515"><ele>407.0</ele><time>2026-04-05T10:14:34.002Z</time></trkpt><trkpt lat="43.2201417" lon="11.64764"><ele>407.0</ele><time>2026-04-05T10:14:35.002Z</time></trkpt><trkpt lat="43.2201867" lon="11.647775"><ele>407.0</ele><time>2026-04-05T10:14:36.002Z</time></trkpt><trkpt lat="43.2202367" lon="11.6479217"><ele>407.0</ele><time>2026-04-05T10:14:37.002Z</time></trkpt><trkpt lat="43.2202917" lon="11.6480733"><ele>407.0</ele><time>2026-04-05T10:14:38.002Z</time></trkpt><trkpt lat="43.2203483" lon="11.6482267"><ele>407.0</ele><time>2026-04-05T10:14:39.002Z</time></trkpt><trkpt lat="43.2204233" lon="11.648365"><ele>407.0</ele><time>2026-04-05T10:14:40.002Z</time></trkpt><trkpt lat="43.2205167" lon="11.6484767"><ele>407.0</ele><time>2026-04-05T10:14:41.002Z</time></trkpt><trkpt lat="43.220625" lon="11.6485767"><ele>407.0</ele><time>2026-04-05T10:14:42.002Z</time></trkpt><trkpt lat="43.22074" lon="11.6486533"><ele>407.0</ele><time>2026-04-05T10:14:43.002Z</time></trkpt><trkpt lat="43.22086" lon="11.648715"><ele>407.0</ele><time>2026-04-05T10:14:44.002Z</time></trkpt><trkpt lat="43.22099" lon="11.6487683"><ele>405.5</ele><time>2026-04-05T10:14:45.002Z</time></trkpt><trkpt lat="43.2211167" lon="11.648805"><ele>404.0</ele><time>2026-04-05T10:14:46.002Z</time></trkpt><trkpt lat="43.2212267" lon="11.6488433"><ele>402.5</ele><time>2026-04-05T10:14:47.002Z</time></trkpt><trkpt lat="43.221335" lon="11.6489033"><ele>401.0</ele><time>2026-04-05T10:14:48.002Z</time></trkpt><trkpt lat="43.22143" lon="11.6489867"><ele>401.0</ele><time>2026-04-05T10:14:49.002Z</time></trkpt><trkpt lat="43.22152" lon="11.6491"><ele>401.0</ele><time>2026-04-05T10:14:50.002Z</time></trkpt><trkpt lat="43.2216017" lon="11.649225"><ele>401.0</ele><time>2026-04-05T10:14:51.002Z</time></trkpt><trkpt lat="43.22169" lon="11.6493683"><ele>401.0</ele><time>2026-04-05T10:14:52.002Z</time></trkpt><trkpt lat="43.221785" lon="11.6495183"><ele>400.75</ele><time>2026-04-05T10:14:53.002Z</time></trkpt><trkpt lat="43.221875" lon="11.64967"><ele>400.5</ele><time>2026-04-05T10:14:54.002Z</time></trkpt><trkpt lat="43.2219733" lon="11.6498233"><ele>400.25</ele><time>2026-04-05T10:14:55.002Z</time></trkpt><trkpt lat="43.2220733" lon="11.6499767"><ele>400.0</ele><time>2026-04-05T10:14:56.002Z</time></trkpt><trkpt lat="43.2221817" lon="11.6501183"><ele>400.0</ele><time>2026-04-05T10:14:57.002Z</time></trkpt><trkpt lat="43.2222883" lon="11.6502633"><ele>400.0</ele><time>2026-04-05T10:14:58.002Z</time></trkpt><trkpt lat="43.2223983" lon="11.650415"><ele>400.0</ele><time>2026-04-05T10:14:59.002Z</time></trkpt><trkpt lat="43.2225017" lon="11.65057"><ele>401.0</ele><time>2026-04-05T10:15:00.001Z</time></trkpt><trkpt lat="43.2226067" lon="11.650735"><ele>402.0</ele><time>2026-04-05T10:15:01.001Z</time></trkpt><trkpt lat="43.22272" lon="11.6508917"><ele>403.0</ele><time>2026-04-05T10:15:02.001Z</time></trkpt><trkpt lat="43.22283" lon="11.6510533"><ele>404.33333333333337</ele><time>2026-04-05T10:15:03.001Z</time></trkpt><trkpt lat="43.2229367" lon="11.651215"><ele>405.66666666666663</ele><time>2026-04-05T10:15:04.001Z</time></trkpt><trkpt lat="43.223035" lon="11.651365"><ele>407.0</ele><time>2026-04-05T10:15:05.001Z</time></trkpt><trkpt lat="43.2231267" lon="11.65152"><ele>407.3333333333333</ele><time>2026-04-05T10:15:06.001Z</time></trkpt><trkpt lat="43.2232133" lon="11.6516917"><ele>407.66666666666663</ele><time>2026-04-05T10:15:07.001Z</time></trkpt><trkpt lat="43.223285" lon="11.651885"><ele>408.0</ele><time>2026-04-05T10:15:08.001Z</time></trkpt><trkpt lat="43.2233433" lon="11.65209"><ele>410.66666666666663</ele><time>2026-04-05T10:15:09.001Z</time></trkpt><trkpt lat="43.2233983" lon="11.6523033"><ele>413.3333333333333</ele><time>2026-04-05T10:15:10.001Z</time></trkpt><trkpt lat="43.2234417" lon="11.6525133"><ele>416.0</ele><time>2026-04-05T10:15:11.001Z</time></trkpt><trkpt lat="43.22347" lon="11.65273"><ele>417.25</ele><time>2026-04-05T10:15:12.001Z</time></trkpt><trkpt lat="43.2234933" lon="11.6529317"><ele>418.5</ele><time>2026-04-05T10:15:13.001Z</time></trkpt><trkpt lat="43.223495" lon="11.6531283"><ele>419.75</ele><time>2026-04-05T10:15:14.001Z</time></trkpt><trkpt lat="43.223495" lon="11.6533117"><ele>421.0</ele><time>2026-04-05T10:15:15.001Z</time></trkpt><trkpt lat="43.2234883" lon="11.6534883"><ele>422.0</ele><time>2026-04-05T10:15:16.001Z</time></trkpt><trkpt lat="43.2234917" lon="11.6536567"><ele>423.0</ele><time>2026-04-05T10:15:17.001Z</time></trkpt><trkpt lat="43.2235183" lon="11.6538"><ele>424.0</ele><time>2026-04-05T10:15:18.001Z</time></trkpt><trkpt lat="43.2235883" lon="11.65392"><ele>425.0</ele><time>2026-04-05T10:15:19.001Z</time></trkpt><trkpt lat="43.22368" lon="11.6540233"><ele>425.0</ele><time>2026-04-05T10:15:20.001Z</time></trkpt><trkpt lat="43.2237867" lon="11.6541167"><ele>425.0</ele><time>2026-04-05T10:15:21.001Z</time></trkpt><trkpt lat="43.2239017" lon="11.6542117"><ele>425.0</ele><time>2026-04-05T10:15:22.001Z</time></trkpt><trkpt lat="43.22402" lon="11.6543"><ele>425.0</ele><time>2026-04-05T10:15:23.001Z</time></trkpt><trkpt lat="43.224135" lon="11.6543983"><ele>425.25</ele><time>2026-04-05T10:15:24.001Z</time></trkpt><trkpt lat="43.2242483" lon="11.6544833"><ele>425.5</ele><time>2026-04-05T10:15:25.001Z</time></trkpt><trkpt lat="43.2243633" lon="11.65455"><ele>425.75</ele><time>2026-04-05T10:15:26.001Z</time></trkpt><trkpt lat="43.224475" lon="11.6545817"><ele>426.0</ele><time>2026-04-05T10:15:27.001Z</time></trkpt><trkpt lat="43.2245933" lon="11.6545783"><ele>426.0</ele><time>2026-04-05T10:15:28.001Z</time></trkpt><trkpt lat="43.2247183" lon="11.6545467"><ele>426.0</ele><time>2026-04-05T10:15:29.001Z</time></trkpt><trkpt lat="43.22486" lon="11.654505"><ele>426.0</ele><time>2026-04-05T10:15:30.001Z</time></trkpt><trkpt lat="43.2250133" lon="11.6544583"><ele>426.0</ele><time>2026-04-05T10:15:31.001Z</time></trkpt><trkpt lat="43.2251683" lon="11.6544217"><ele>426.25</ele><time>2026-04-05T10:15:32.001Z</time></trkpt><trkpt lat="43.2253133" lon="11.6543883"><ele>426.5</ele><time>2026-04-05T10:15:33.001Z</time></trkpt><trkpt lat="43.225445" lon="11.6543733"><ele>426.75</ele><time>2026-04-05T10:15:34.001Z</time></trkpt><trkpt lat="43.2255867" lon="11.6543833"><ele>427.0</ele><time>2026-04-05T10:15:35.001Z</time></trkpt><trkpt lat="43.2257233" lon="11.6544333"><ele>429.33333333333337</ele><time>2026-04-05T10:15:36.001Z</time></trkpt><trkpt lat="43.2258583" lon="11.654505"><ele>431.66666666666663</ele><time>2026-04-05T10:15:37.001Z</time></trkpt><trkpt lat="43.2259917" lon="11.6545867"><ele>434.0</ele><time>2026-04-05T10:15:38.001Z</time></trkpt><trkpt lat="43.2261383" lon="11.65468"><ele>434.0</ele><time>2026-04-05T10:15:39.001Z</time></trkpt><trkpt lat="43.2262667" lon="11.65476"><ele>434.0</ele><time>2026-04-05T10:15:40.001Z</time></trkpt><trkpt lat="43.2263933" lon="11.65485"><ele>434.0</ele><time>2026-04-05T10:15:41.001Z</time></trkpt><trkpt lat="43.2265217" lon="11.6549567"><ele>434.0</ele><time>2026-04-05T10:15:42.001Z</time></trkpt><trkpt lat="43.22663" lon="11.6551"><ele>435.66666666666663</ele><time>2026-04-05T10:15:43.001Z</time></trkpt><trkpt lat="43.2267167" lon="11.6552683"><ele>437.33333333333337</ele><time>2026-04-05T10:15:44.001Z</time></trkpt><trkpt lat="43.2268033" lon="11.6554467"><ele>439.0</ele><time>2026-04-05T10:15:45.001Z</time></trkpt><trkpt lat="43.2268833" lon="11.6556233"><ele>439.6666666666667</ele><time>2026-04-05T10:15:46.001Z</time></trkpt><trkpt lat="43.2269633" lon="11.6558017"><ele>440.33333333333337</ele><time>2026-04-05T10:15:47.001Z</time></trkpt><trkpt lat="43.2270367" lon="11.6559867"><ele>441.0</ele><time>2026-04-05T10:15:48.001Z</time></trkpt><trkpt lat="43.22711" lon="11.6561617"><ele>441.75</ele><time>2026-04-05T10:15:49.001Z</time></trkpt><trkpt lat="43.2271883" lon="11.6563317"><ele>442.5</ele><time>2026-04-05T10:15:50.001Z</time></trkpt><trkpt lat="43.2272617" lon="11.6564967"><ele>443.25</ele><time>2026-04-05T10:15:51.001Z</time></trkpt><trkpt lat="43.2273383" lon="11.656665"><ele>444.0</ele><time>2026-04-05T10:15:52.001Z</time></trkpt><trkpt lat="43.2274033" lon="11.65683"><ele>444.0</ele><time>2026-04-05T10:15:53.001Z</time></trkpt><trkpt lat="43.22746" lon="11.657"><ele>444.0</ele><time>2026-04-05T10:15:54.001Z</time></trkpt><trkpt lat="43.227495" lon="11.6571867"><ele>444.0</ele><time>2026-04-05T10:15:55.001Z</time></trkpt><trkpt lat="43.2274967" lon="11.6573767"><ele>444.0</ele><time>2026-04-05T10:15:56.001Z</time></trkpt><trkpt lat="43.2274783" lon="11.6575717"><ele>444.0</ele><time>2026-04-05T10:15:57.001Z</time></trkpt><trkpt lat="43.22744" lon="11.6577733"><ele>444.0</ele><time>2026-04-05T10:15:58.001Z</time></trkpt><trkpt lat="43.2274" lon="11.657975"><ele>444.0</ele><time>2026-04-05T10:15:59.001Z</time></trkpt><trkpt lat="43.2273467" lon="11.658175"><ele>445.0</ele><time>2026-04-05T10:16:00.001Z</time></trkpt><trkpt lat="43.22729" lon="11.6583717"><ele>446.0</ele><time>2026-04-05T10:16:01.001Z</time></trkpt><trkpt lat="43.227225" lon="11.65857"><ele>447.0</ele><time>2026-04-05T10:16:02.001Z</time></trkpt><trkpt lat="43.2271633" lon="11.658775"><ele>447.0</ele><time>2026-04-05T10:16:03.001Z</time></trkpt><trkpt lat="43.2271067" lon="11.6589717"><ele>447.0</ele><time>2026-04-05T10:16:04.001Z</time></trkpt><trkpt lat="43.2270433" lon="11.6591633"><ele>447.0</ele><time>2026-04-05T10:16:05.001Z</time></trkpt><trkpt lat="43.2269717" lon="11.65935"><ele>448.0</ele><time>2026-04-05T10:16:06.001Z</time></trkpt><trkpt lat="43.2268983" lon="11.65954"><ele>449.0</ele><time>2026-04-05T10:16:07.001Z</time></trkpt><trkpt lat="43.226815" lon="11.6597067"><ele>450.0</ele><time>2026-04-05T10:16:08.001Z</time></trkpt><trkpt lat="43.2267183" lon="11.6598683"><ele>450.0</ele><time>2026-04-05T10:16:09.001Z</time></trkpt><trkpt lat="43.2266283" lon="11.66003"><ele>450.0</ele><time>2026-04-05T10:16:10.001Z</time></trkpt><trkpt lat="43.22655" lon="11.6601867"><ele>450.0</ele><time>2026-04-05T10:16:11.001Z</time></trkpt><trkpt lat="43.2264733" lon="11.6603583"><ele>450.0</ele><time>2026-04-05T10:16:12.001Z</time></trkpt><trkpt lat="43.2264017" lon="11.6605383"><ele>450.0</ele><time>2026-04-05T10:16:13.001Z</time></trkpt><trkpt lat="43.22633" lon="11.66072"><ele>450.0</ele><time>2026-04-05T10:16:14.001Z</time></trkpt><trkpt lat="43.22626" lon="11.6608967"><ele>450.0</ele><time>2026-04-05T10:16:15.001Z</time></trkpt><trkpt lat="43.2261883" lon="11.6610717"><ele>450.0</ele><time>2026-04-05T10:16:16.001Z</time></trkpt><trkpt lat="43.2261183" lon="11.6612417"><ele>450.0</ele><time>2026-04-05T10:16:17.001Z</time></trkpt><trkpt lat="43.2260517" lon="11.6614083"><ele>450.0</ele><time>2026-04-05T10:16:18.001Z</time></trkpt><trkpt lat="43.2259933" lon="11.6615783"><ele>450.0</ele><time>2026-04-05T10:16:19.001Z</time></trkpt><trkpt lat="43.2259517" lon="11.6617467"><ele>450.0</ele><time>2026-04-05T10:16:20.001Z</time></trkpt><trkpt lat="43.2259233" lon="11.6619083"><ele>450.5</ele><time>2026-04-05T10:16:21.001Z</time></trkpt><trkpt lat="43.225905" lon="11.662085"><ele>451.0</ele><time>2026-04-05T10:16:22.001Z</time></trkpt><trkpt lat="43.2258983" lon="11.6622683"><ele>451.5</ele><time>2026-04-05T10:16:23.001Z</time></trkpt><trkpt lat="43.2258883" lon="11.6624633"><ele>452.0</ele><time>2026-04-05T10:16:24.001Z</time></trkpt><trkpt lat="43.22588" lon="11.6626567"><ele>452.25</ele><time>2026-04-05T10:16:25.001Z</time></trkpt><trkpt lat="43.2258717" lon="11.6628567"><ele>452.5</ele><time>2026-04-05T10:16:26.001Z</time></trkpt><trkpt lat="43.2258633" lon="11.66306"><ele>452.75</ele><time>2026-04-05T10:16:27.001Z</time></trkpt><trkpt lat="43.2258533" lon="11.6632617"><ele>453.0</ele><time>2026-04-05T10:16:28.001Z</time></trkpt><trkpt lat="43.2258467" lon="11.6634667"><ele>454.0</ele><time>2026-04-05T10:16:29.001Z</time></trkpt><trkpt lat="43.22583" lon="11.6636783"><ele>455.0</ele><time>2026-04-05T10:16:30.001Z</time></trkpt><trkpt lat="43.2258167" lon="11.6638933"><ele>456.0</ele><time>2026-04-05T10:16:31.001Z</time></trkpt><trkpt lat="43.2258" lon="11.6640917"><ele>456.0</ele><time>2026-04-05T10:16:32.001Z</time></trkpt><trkpt lat="43.2257767" lon="11.6642883"><ele>456.0</ele><time>2026-04-05T10:16:33.001Z</time></trkpt><trkpt lat="43.225725" lon="11.6644767"><ele>456.0</ele><time>2026-04-05T10:16:34.001Z</time></trkpt><trkpt lat="43.2256533" lon="11.664655"><ele>456.0</ele><time>2026-04-05T10:16:35.001Z</time></trkpt><trkpt lat="43.22557" lon="11.6648217"><ele>456.5</ele><time>2026-04-05T10:16:36.001Z</time></trkpt><trkpt lat="43.2254833" lon="11.6649783"><ele>457.0</ele><time>2026-04-05T10:16:37.001Z</time></trkpt><trkpt lat="43.2254033" lon="11.6651283"><ele>457.5</ele><time>2026-04-05T10:16:38.001Z</time></trkpt><trkpt lat="43.2253533" lon="11.6652583"><ele>458.0</ele><time>2026-04-05T10:16:39.001Z</time></trkpt><trkpt lat="43.2253133" lon="11.6653833"><ele>456.59999999999997</ele><time>2026-04-05T10:16:40.001Z</time></trkpt><trkpt lat="43.2252917" lon="11.66551"><ele>455.19999999999993</ele><time>2026-04-05T10:16:41.001Z</time></trkpt><trkpt lat="43.2253067" lon="11.6656517"><ele>453.8</ele><time>2026-04-05T10:16:42.001Z</time></trkpt><trkpt lat="43.22534" lon="11.66579"><ele>452.4</ele><time>2026-04-05T10:16:43.001Z</time></trkpt><trkpt lat="43.2253933" lon="11.6659467"><ele>451.0</ele><time>2026-04-05T10:16:44.001Z</time></trkpt><trkpt lat="43.22545" lon="11.666105"><ele>450.0</ele><time>2026-04-05T10:16:45.001Z</time></trkpt><trkpt lat="43.22551" lon="11.6662633"><ele>449.0</ele><time>2026-04-05T10:16:46.001Z</time></trkpt><trkpt lat="43.2255633" lon="11.6664283"><ele>448.0</ele><time>2026-04-05T10:16:47.001Z</time></trkpt><trkpt lat="43.2256033" lon="11.6666"><ele>447.0</ele><time>2026-04-05T10:16:48.001Z</time></trkpt><trkpt lat="43.2256317" lon="11.6667783"><ele>449.0</ele><time>2026-04-05T10:16:49.001Z</time></trkpt><trkpt lat="43.22565" lon="11.6669467"><ele>451.0</ele><time>2026-04-05T10:16:50.001Z</time></trkpt><trkpt lat="43.22567" lon="11.6671167"><ele>453.0</ele><time>2026-04-05T10:16:51.001Z</time></trkpt><trkpt lat="43.2256867" lon="11.667295"><ele>455.0</ele><time>2026-04-05T10:16:52.001Z</time></trkpt><trkpt lat="43.2257033" lon="11.6674733"><ele>455.0</ele><time>2026-04-05T10:16:53.001Z</time></trkpt><trkpt lat="43.225705" lon="11.66765"><ele>455.0</ele><time>2026-04-05T10:16:54.001Z</time></trkpt><trkpt lat="43.2257167" lon="11.6678333"><ele>455.0</ele><time>2026-04-05T10:16:55.001Z</time></trkpt><trkpt lat="43.22574" lon="11.6680117"><ele>455.0</ele><time>2026-04-05T10:16:56.001Z</time></trkpt><trkpt lat="43.2257717" lon="11.668185"><ele>453.75</ele><time>2026-04-05T10:16:57.001Z</time></trkpt><trkpt lat="43.2258067" lon="11.668365"><ele>452.5</ele><time>2026-04-05T10:16:58.001Z</time></trkpt><trkpt lat="43.225845" lon="11.6685467"><ele>451.25</ele><time>2026-04-05T10:16:59.001Z</time></trkpt><trkpt lat="43.2258783" lon="11.6687183"><ele>450.0</ele><time>2026-04-05T10:17:00.001Z</time></trkpt><trkpt lat="43.2259133" lon="11.6689017"><ele>450.5</ele><time>2026-04-05T10:17:01.001Z</time></trkpt><trkpt lat="43.2259483" lon="11.6690883"><ele>451.0</ele><time>2026-04-05T10:17:02.001Z</time></trkpt><trkpt lat="43.22599" lon="11.66927"><ele>451.5</ele><time>2026-04-05T10:17:03.001Z</time></trkpt><trkpt lat="43.2260383" lon="11.669445"><ele>452.0</ele><time>2026-04-05T10:17:04.001Z</time></trkpt><trkpt lat="43.226085" lon="11.6696317"><ele>452.0</ele><time>2026-04-05T10:17:05.001Z</time></trkpt><trkpt lat="43.2261317" lon="11.66982"><ele>452.0</ele><time>2026-04-05T10:17:06.001Z</time></trkpt><trkpt lat="43.22618" lon="11.67002"><ele>452.0</ele><time>2026-04-05T10:17:07.001Z</time></trkpt><trkpt lat="43.2262267" lon="11.670225"><ele>452.0</ele><time>2026-04-05T10:17:08.001Z</time></trkpt><trkpt lat="43.2262717" lon="11.6704317"><ele>452.0</ele><time>2026-04-05T10:17:09.001Z</time></trkpt><trkpt lat="43.2263117" lon="11.6706267"><ele>452.0</ele><time>2026-04-05T10:17:10.001Z</time></trkpt><trkpt lat="43.226355" lon="11.67083"><ele>452.0</ele><time>2026-04-05T10:17:11.001Z</time></trkpt><trkpt lat="43.226405" lon="11.6710383"><ele>452.0</ele><time>2026-04-05T10:17:12.001Z</time></trkpt><trkpt lat="43.2264617" lon="11.67124"><ele>452.0</ele><time>2026-04-05T10:17:13.001Z</time></trkpt><trkpt lat="43.2265233" lon="11.67144"><ele>454.75</ele><time>2026-04-05T10:17:14.001Z</time></trkpt><trkpt lat="43.2265833" lon="11.6716317"><ele>457.5</ele><time>2026-04-05T10:17:15.001Z</time></trkpt><trkpt lat="43.22664" lon="11.671815"><ele>460.25</ele><time>2026-04-05T10:17:16.001Z</time></trkpt><trkpt lat="43.2266883" lon="11.6719867"><ele>463.0</ele><time>2026-04-05T10:17:17.001Z</time></trkpt><trkpt lat="43.2267133" lon="11.6721533"><ele>463.25</ele><time>2026-04-05T10:17:18.001Z</time></trkpt><trkpt lat="43.226705" lon="11.6723167"><ele>463.5</ele><time>2026-04-05T10:17:19.001Z</time></trkpt><trkpt lat="43.226665" lon="11.6724833"><ele>463.75</ele><time>2026-04-05T10:17:20.001Z</time></trkpt><trkpt lat="43.2266" lon="11.672645"><ele>464.0</ele><time>2026-04-05T10:17:21.001Z</time></trkpt><trkpt lat="43.2265183" lon="11.6728133"><ele>462.3333333333333</ele><time>2026-04-05T10:17:22.001Z</time></trkpt><trkpt lat="43.2264317" lon="11.67298"><ele>460.66666666666663</ele><time>2026-04-05T10:17:23.001Z</time></trkpt><trkpt lat="43.2263333" lon="11.673145"><ele>459.0</ele><time>2026-04-05T10:17:24.001Z</time></trkpt><trkpt lat="43.2262383" lon="11.6733183"><ele>459.0</ele><time>2026-04-05T10:17:25.001Z</time></trkpt><trkpt lat="43.2261417" lon="11.6734883"><ele>459.0</ele><time>2026-04-05T10:17:26.001Z</time></trkpt><trkpt lat="43.226045" lon="11.6736617"><ele>459.0</ele><time>2026-04-05T10:17:27.001Z</time></trkpt><trkpt lat="43.22595" lon="11.6738383"><ele>459.0</ele><time>2026-04-05T10:17:28.001Z</time></trkpt><trkpt lat="43.2258633" lon="11.6740083"><ele>459.0</ele><time>2026-04-05T10:17:29.001Z</time></trkpt><trkpt lat="43.2257717" lon="11.6741633"><ele>459.0</ele><time>2026-04-05T10:17:30.001Z</time></trkpt><trkpt lat="43.225665" lon="11.6742867"><ele>459.0</ele><time>2026-04-05T10:17:31.001Z</time></trkpt><trkpt lat="43.225545" lon="11.6743867"><ele>460.25</ele><time>2026-04-05T10:17:32.001Z</time></trkpt><trkpt lat="43.2254083" lon="11.674455"><ele>461.5</ele><time>2026-04-05T10:17:33.001Z</time></trkpt><trkpt lat="43.225275" lon="11.6745017"><ele>462.75</ele><time>2026-04-05T10:17:34.001Z</time></trkpt><trkpt lat="43.225165" lon="11.6745667"><ele>464.0</ele><time>2026-04-05T10:17:35.001Z</time></trkpt><trkpt lat="43.2250817" lon="11.67465"><ele>464.0</ele><time>2026-04-05T10:17:36.001Z</time></trkpt><trkpt lat="43.225035" lon="11.6747667"><ele>464.0</ele><time>2026-04-05T10:17:37.001Z</time></trkpt><trkpt lat="43.2250167" lon="11.6749117"><ele>464.0</ele><time>2026-04-05T10:17:38.001Z</time></trkpt><trkpt lat="43.2250217" lon="11.6750783"><ele>464.0</ele><time>2026-04-05T10:17:39.001Z</time></trkpt><trkpt lat="43.2250383" lon="11.6752533"><ele>464.75</ele><time>2026-04-05T10:17:40.001Z</time></trkpt><trkpt lat="43.225065" lon="11.67543"><ele>465.5</ele><time>2026-04-05T10:17:41.001Z</time></trkpt><trkpt lat="43.2250917" lon="11.67561"><ele>466.25</ele><time>2026-04-05T10:17:42.001Z</time></trkpt><trkpt lat="43.2251083" lon="11.67579"><ele>467.0</ele><time>2026-04-05T10:17:43.001Z</time></trkpt><trkpt lat="43.2251217" lon="11.67598"><ele>467.5</ele><time>2026-04-05T10:17:44.001Z</time></trkpt><trkpt lat="43.2251317" lon="11.6761767"><ele>468.0</ele><time>2026-04-05T10:17:45.001Z</time></trkpt><trkpt lat="43.2251267" lon="11.67637"><ele>468.5</ele><time>2026-04-05T10:17:46.001Z</time></trkpt><trkpt lat="43.2251283" lon="11.6765583"><ele>469.0</ele><time>2026-04-05T10:17:47.001Z</time></trkpt><trkpt lat="43.2251483" lon="11.6767467"><ele>471.0</ele><time>2026-04-05T10:17:48.001Z</time></trkpt><trkpt lat="43.2251967" lon="11.6769517"><ele>473.0</ele><time>2026-04-05T10:17:49.001Z</time></trkpt><trkpt lat="43.2252583" lon="11.6771533"><ele>475.0</ele><time>2026-04-05T10:17:50.001Z</time></trkpt><trkpt lat="43.2253183" lon="11.67735"><ele>475.0</ele><time>2026-04-05T10:17:51.001Z</time></trkpt><trkpt lat="43.2253767" lon="11.6775483"><ele>475.0</ele><time>2026-04-05T10:17:52.001Z</time></trkpt><trkpt lat="43.22543" lon="11.67774"><ele>475.0</ele><time>2026-04-05T10:17:53.001Z</time></trkpt><trkpt lat="43.2254867" lon="11.6779317"><ele>477.33333333333337</ele><time>2026-04-05T10:17:54.001Z</time></trkpt><trkpt lat="43.2255483" lon="11.6781283"><ele>479.66666666666663</ele><time>2026-04-05T10:17:55.001Z</time></trkpt><trkpt lat="43.2255983" lon="11.67832"><ele>482.0</ele><time>2026-04-05T10:17:56.001Z</time></trkpt><trkpt lat="43.2256417" lon="11.6785167"><ele>484.20000000000005</ele><time>2026-04-05T10:17:57.002Z</time></trkpt><trkpt lat="43.225685" lon="11.6786933"><ele>486.40000000000003</ele><time>2026-04-05T10:17:58.001Z</time></trkpt><trkpt lat="43.225715" lon="11.6788483"><ele>488.59999999999997</ele><time>2026-04-05T10:17:59.001Z</time></trkpt><trkpt lat="43.2257217" lon="11.6789917"><ele>490.79999999999995</ele><time>2026-04-05T10:18:00.001Z</time></trkpt><trkpt lat="43.225705" lon="11.67911"><ele>493.0</ele><time>2026-04-05T10:18:01.001Z</time></trkpt><trkpt lat="43.2256167" lon="11.6792"><ele>493.0</ele><time>2026-04-05T10:18:03.001Z</time></trkpt><trkpt lat="43.2255467" lon="11.6791817"><ele>492.99999999999994</ele><time>2026-04-05T10:18:04.001Z</time></trkpt><trkpt lat="43.2254567" lon="11.6791133"><ele>492.99999999999994</ele><time>2026-04-05T10:18:05.001Z</time></trkpt><trkpt lat="43.2253467" lon="11.6790033"><ele>493.0</ele><time>2026-04-05T10:18:06.001Z</time></trkpt><trkpt lat="43.22524" lon="11.678905"><ele>493.0</ele><time>2026-04-05T10:18:07.001Z</time></trkpt><trkpt lat="43.225145" lon="11.6788317"><ele>493.0</ele><time>2026-04-05T10:18:08.001Z</time></trkpt><trkpt lat="43.225045" lon="11.678785"><ele>492.99999999999994</ele><time>2026-04-05T10:18:09.001Z</time></trkpt><trkpt lat="43.2249433" lon="11.678785"><ele>492.99999999999994</ele><time>2026-04-05T10:18:10.001Z</time></trkpt><trkpt lat="43.2248383" lon="11.6788333"><ele>493.0</ele><time>2026-04-05T10:18:11.001Z</time></trkpt><trkpt lat="43.2247367" lon="11.6789133"><ele>493.0</ele><time>2026-04-05T10:18:12.001Z</time></trkpt><trkpt lat="43.2246333" lon="11.6790033"><ele>493.25</ele><time>2026-04-05T10:18:13.001Z</time></trkpt><trkpt lat="43.2245317" lon="11.679095"><ele>493.5</ele><time>2026-04-05T10:18:14.001Z</time></trkpt><trkpt lat="43.2244333" lon="11.67918"><ele>493.75</ele><time>2026-04-05T10:18:15.001Z</time></trkpt><trkpt lat="43.22435" lon="11.67927"><ele>494.0</ele><time>2026-04-05T10:18:16.001Z</time></trkpt><trkpt lat="43.224275" lon="11.6793817"><ele>495.5</ele><time>2026-04-05T10:18:17.001Z</time></trkpt><trkpt lat="43.2242167" lon="11.6795133"><ele>497.0</ele><time>2026-04-05T10:18:18.001Z</time></trkpt><trkpt lat="43.2241733" lon="11.679655"><ele>498.5</ele><time>2026-04-05T10:18:19.001Z</time></trkpt><trkpt lat="43.2241483" lon="11.679805"><ele>500.0</ele><time>2026-04-05T10:18:20.001Z</time></trkpt><trkpt lat="43.2241533" lon="11.6799633"><ele>500.0</ele><time>2026-04-05T10:18:21.001Z</time></trkpt><trkpt lat="43.2241883" lon="11.68013"><ele>500.0</ele><time>2026-04-05T10:18:22.001Z</time></trkpt><trkpt lat="43.2242383" lon="11.680285"><ele>500.0</ele><time>2026-04-05T10:18:23.001Z</time></trkpt><trkpt lat="43.2242933" lon="11.6804417"><ele>500.0</ele><time>2026-04-05T10:18:24.001Z</time></trkpt><trkpt lat="43.2243483" lon="11.68061"><ele>500.25</ele><time>2026-04-05T10:18:25.001Z</time></trkpt><trkpt lat="43.2244017" lon="11.680775"><ele>500.5</ele><time>2026-04-05T10:18:26.001Z</time></trkpt><trkpt lat="43.224455" lon="11.6809417"><ele>500.75</ele><time>2026-04-05T10:18:27.001Z</time></trkpt><trkpt lat="43.2245133" lon="11.6810967"><ele>501.0</ele><time>2026-04-05T10:18:28.001Z</time></trkpt><trkpt lat="43.2245683" lon="11.6812617"><ele>500.5</ele><time>2026-04-05T10:18:29.001Z</time></trkpt><trkpt lat="43.2246283" lon="11.68141"><ele>500.0</ele><time>2026-04-05T10:18:30.001Z</time></trkpt><trkpt lat="43.2246917" lon="11.6815517"><ele>499.5</ele><time>2026-04-05T10:18:31.001Z</time></trkpt><trkpt lat="43.22476" lon="11.68169"><ele>499.0</ele><time>2026-04-05T10:18:32.001Z</time></trkpt><trkpt lat="43.22484" lon="11.6818283"><ele>501.0</ele><time>2026-04-05T10:18:33.001Z</time></trkpt><trkpt lat="43.2249317" lon="11.6819633"><ele>503.0</ele><time>2026-04-05T10:18:34.001Z</time></trkpt><trkpt lat="43.2250283" lon="11.6820733"><ele>505.0</ele><time>2026-04-05T10:18:35.001Z</time></trkpt><trkpt lat="43.2251283" lon="11.6821967"><ele>507.0</ele><time>2026-04-05T10:18:36.001Z</time></trkpt><trkpt lat="43.2252217" lon="11.6823067"><ele>507.0</ele><time>2026-04-05T10:18:37.001Z</time></trkpt><trkpt lat="43.225315" lon="11.68242"><ele>507.0</ele><time>2026-04-05T10:18:38.001Z</time></trkpt><trkpt lat="43.2254133" lon="11.68253"><ele>507.0</ele><time>2026-04-05T10:18:39.001Z</time></trkpt><trkpt lat="43.2255067" lon="11.6826367"><ele>507.0</ele><time>2026-04-05T10:18:40.001Z</time></trkpt><trkpt lat="43.225595" lon="11.68274"><ele>509.40000000000003</ele><time>2026-04-05T10:18:41.001Z</time></trkpt><trkpt lat="43.2256767" lon="11.6828383"><ele>511.80000000000007</ele><time>2026-04-05T10:18:42.001Z</time></trkpt><trkpt lat="43.22575" lon="11.6829417"><ele>514.2</ele><time>2026-04-05T10:18:43.001Z</time></trkpt><trkpt lat="43.2258033" lon="11.6830483"><ele>516.6</ele><time>2026-04-05T10:18:44.001Z</time></trkpt><trkpt lat="43.2258283" lon="11.683165"><ele>519.0</ele><time>2026-04-05T10:18:45.001Z</time></trkpt><trkpt lat="43.2258183" lon="11.6832933"><ele>519.0</ele><time>2026-04-05T10:18:46.001Z</time></trkpt><trkpt lat="43.22577" lon="11.68343"><ele>519.0</ele><time>2026-04-05T10:18:47.001Z</time></trkpt><trkpt lat="43.2256967" lon="11.683545"><ele>519.0</ele><time>2026-04-05T10:18:48.001Z</time></trkpt><trkpt lat="43.2255883" lon="11.6836383"><ele>519.0</ele><time>2026-04-05T10:18:49.001Z</time></trkpt><trkpt lat="43.22546" lon="11.6837167"><ele>518.75</ele><time>2026-04-05T10:18:50.001Z</time></trkpt><trkpt lat="43.2253267" lon="11.6838"><ele>518.5</ele><time>2026-04-05T10:18:51.001Z</time></trkpt><trkpt lat="43.225195" lon="11.6838883"><ele>518.25</ele><time>2026-04-05T10:18:52.001Z</time></trkpt><trkpt lat="43.2250667" lon="11.68398"><ele>518.0</ele><time>2026-04-05T10:18:53.001Z</time></trkpt><trkpt lat="43.2249333" lon="11.684045"><ele>516.6666666666666</ele><time>2026-04-05T10:18:54.001Z</time></trkpt><trkpt lat="43.22478" lon="11.6840783"><ele>515.3333333333334</ele><time>2026-04-05T10:18:55.001Z</time></trkpt><trkpt lat="43.2246267" lon="11.68408"><ele>514.0</ele><time>2026-04-05T10:18:56.001Z</time></trkpt><trkpt lat="43.2244683" lon="11.6840767"><ele>514.0</ele><time>2026-04-05T10:18:57.001Z</time></trkpt><trkpt lat="43.2243083" lon="11.6840867"><ele>514.0</ele><time>2026-04-05T10:18:58.001Z</time></trkpt><trkpt lat="43.22415" lon="11.6841167"><ele>514.0</ele><time>2026-04-05T10:18:59.001Z</time></trkpt><trkpt lat="43.2239917" lon="11.6841633"><ele>512.6666666666667</ele><time>2026-04-05T10:19:00.001Z</time></trkpt><trkpt lat="43.223835" lon="11.6842033"><ele>511.33333333333337</ele><time>2026-04-05T10:19:01.001Z</time></trkpt><trkpt lat="43.2236817" lon="11.68423"><ele>510.0</ele><time>2026-04-05T10:19:02.001Z</time></trkpt><trkpt lat="43.223525" lon="11.6842567"><ele>510.0</ele><time>2026-04-05T10:19:03.001Z</time></trkpt><trkpt lat="43.2233633" lon="11.6842633"><ele>510.0</ele><time>2026-04-05T10:19:04.001Z</time></trkpt><trkpt lat="43.2231983" lon="11.684265"><ele>510.0</ele><time>2026-04-05T10:19:05.001Z</time></trkpt><trkpt lat="43.2230433" lon="11.6842583"><ele>510.0</ele><time>2026-04-05T10:19:06.001Z</time></trkpt><trkpt lat="43.2228883" lon="11.6842583"><ele>510.0</ele><time>2026-04-05T10:19:07.001Z</time></trkpt><trkpt lat="43.2227233" lon="11.684255"><ele>510.0</ele><time>2026-04-05T10:19:08.001Z</time></trkpt><trkpt lat="43.2225583" lon="11.684255"><ele>510.0</ele><time>2026-04-05T10:19:09.001Z</time></trkpt><trkpt lat="43.2223933" lon="11.6842583"><ele>510.0</ele><time>2026-04-05T10:19:10.001Z</time></trkpt><trkpt lat="43.222225" lon="11.6842933"><ele>510.0</ele><time>2026-04-05T10:19:11.001Z</time></trkpt><trkpt lat="43.2220583" lon="11.6843517"><ele>509.33333333333337</ele><time>2026-04-05T10:19:12.001Z</time></trkpt><trkpt lat="43.2218933" lon="11.6844217"><ele>508.6666666666667</ele><time>2026-04-05T10:19:13.001Z</time></trkpt><trkpt lat="43.2217267" lon="11.68449"><ele>508.0</ele><time>2026-04-05T10:19:14.001Z</time></trkpt><trkpt lat="43.2215583" lon="11.6845583"><ele>507.0</ele><time>2026-04-05T10:19:15.001Z</time></trkpt><trkpt lat="43.221395" lon="11.68463"><ele>506.0</ele><time>2026-04-05T10:19:16.001Z</time></trkpt><trkpt lat="43.2212233" lon="11.6846883"><ele>505.0</ele><time>2026-04-05T10:19:17.001Z</time></trkpt><trkpt lat="43.22106" lon="11.6847517"><ele>505.0</ele><time>2026-04-05T10:19:18.001Z</time></trkpt><trkpt lat="43.2208883" lon="11.6848033"><ele>505.0</ele><time>2026-04-05T10:19:19.001Z</time></trkpt><trkpt lat="43.2207233" lon="11.6848617"><ele>505.0</ele><time>2026-04-05T10:19:20.001Z</time></trkpt><trkpt lat="43.220555" lon="11.6849183"><ele>504.33333333333337</ele><time>2026-04-05T10:19:21.001Z</time></trkpt><trkpt lat="43.22039" lon="11.6849717"><ele>503.66666666666663</ele><time>2026-04-05T10:19:22.001Z</time></trkpt><trkpt lat="43.2202233" lon="11.68504"><ele>503.0</ele><time>2026-04-05T10:19:23.001Z</time></trkpt><trkpt lat="43.220055" lon="11.6851133"><ele>503.0</ele><time>2026-04-05T10:19:24.001Z</time></trkpt><trkpt lat="43.2199033" lon="11.6852083"><ele>503.0</ele><time>2026-04-05T10:19:25.001Z</time></trkpt><trkpt lat="43.2197583" lon="11.6853083"><ele>503.0</ele><time>2026-04-05T10:19:26.001Z</time></trkpt><trkpt lat="43.2196117" lon="11.68541"><ele>501.3333333333333</ele><time>2026-04-05T10:19:27.001Z</time></trkpt><trkpt lat="43.2194633" lon="11.6855067"><ele>499.66666666666663</ele><time>2026-04-05T10:19:28.001Z</time></trkpt><trkpt lat="43.2193183" lon="11.6855933"><ele>498.0</ele><time>2026-04-05T10:19:29.001Z</time></trkpt><trkpt lat="43.2191767" lon="11.68567"><ele>498.0</ele><time>2026-04-05T10:19:30.001Z</time></trkpt><trkpt lat="43.2190283" lon="11.685735"><ele>498.0</ele><time>2026-04-05T10:19:31.001Z</time></trkpt><trkpt lat="43.2188883" lon="11.6858033"><ele>498.0</ele><time>2026-04-05T10:19:32.001Z</time></trkpt><trkpt lat="43.218745" lon="11.6858583"><ele>496.5</ele><time>2026-04-05T10:19:33.001Z</time></trkpt><trkpt lat="43.2186017" lon="11.6859233"><ele>495.0</ele><time>2026-04-05T10:19:34.001Z</time></trkpt><trkpt lat="43.2184717" lon="11.685985"><ele>493.5</ele><time>2026-04-05T10:19:35.001Z</time></trkpt><trkpt lat="43.2183467" lon="11.68605"><ele>492.0</ele><time>2026-04-05T10:19:36.001Z</time></trkpt><trkpt lat="43.2182267" lon="11.68611"><ele>492.8</ele><time>2026-04-05T10:19:37.001Z</time></trkpt><trkpt lat="43.2181167" lon="11.6861733"><ele>493.6</ele><time>2026-04-05T10:19:38.001Z</time></trkpt><trkpt lat="43.21801" lon="11.6862367"><ele>494.40000000000003</ele><time>2026-04-05T10:19:39.001Z</time></trkpt><trkpt lat="43.217915" lon="11.6862867"><ele>495.20000000000005</ele><time>2026-04-05T10:19:40.001Z</time></trkpt><trkpt lat="43.21783" lon="11.6863367"><ele>496.0</ele><time>2026-04-05T10:19:41.001Z</time></trkpt><trkpt lat="43.2177617" lon="11.686375"><ele>496.0</ele><time>2026-04-05T10:19:42.001Z</time></trkpt><trkpt lat="43.2176967" lon="11.6863967"><ele>496.0</ele><time>2026-04-05T10:19:43.001Z</time></trkpt><trkpt lat="43.2175967" lon="11.6864"><ele>496.0</ele><time>2026-04-05T10:19:45.001Z</time></trkpt><trkpt lat="43.2175233" lon="11.68634"><ele>496.0</ele><time>2026-04-05T10:19:47.001Z</time></trkpt><trkpt lat="43.2174183" lon="11.6862633"><ele>496.0</ele><time>2026-04-05T10:19:49.001Z</time></trkpt><trkpt lat="43.21733" lon="11.68623"><ele>495.8</ele><time>2026-04-05T10:19:50.001Z</time></trkpt><trkpt lat="43.2172317" lon="11.686195"><ele>495.6</ele><time>2026-04-05T10:19:51.001Z</time></trkpt><trkpt lat="43.2171283" lon="11.686155"><ele>495.4</ele><time>2026-04-05T10:19:52.001Z</time></trkpt><trkpt lat="43.21702" lon="11.6861083"><ele>495.2</ele><time>2026-04-05T10:19:53.001Z</time></trkpt><trkpt lat="43.21691" lon="11.68607"><ele>495.0</ele><time>2026-04-05T10:19:54.001Z</time></trkpt><trkpt lat="43.21679" lon="11.6860217"><ele>495.0</ele><time>2026-04-05T10:19:55.001Z</time></trkpt><trkpt lat="43.216665" lon="11.68597"><ele>495.0</ele><time>2026-04-05T10:19:56.001Z</time></trkpt><trkpt lat="43.21654" lon="11.68591"><ele>495.0</ele><time>2026-04-05T10:19:57.001Z</time></trkpt><trkpt lat="43.21641" lon="11.68585"><ele>495.0</ele><time>2026-04-05T10:19:58.001Z</time></trkpt><trkpt lat="43.2162783" lon="11.6857983"><ele>495.25</ele><time>2026-04-05T10:19:59.001Z</time></trkpt><trkpt lat="43.2161533" lon="11.68574"><ele>495.5</ele><time>2026-04-05T10:20:00.001Z</time></trkpt><trkpt lat="43.2160267" lon="11.685675"><ele>495.75</ele><time>2026-04-05T10:20:01.001Z</time></trkpt><trkpt lat="43.2158983" lon="11.6856033"><ele>496.0</ele><time>2026-04-05T10:20:02.001Z</time></trkpt><trkpt lat="43.215765" lon="11.6855083"><ele>496.5</ele><time>2026-04-05T10:20:03.001Z</time></trkpt><trkpt lat="43.21564" lon="11.685415"><ele>497.0</ele><time>2026-04-05T10:20:04.001Z</time></trkpt><trkpt lat="43.2155167" lon="11.6853017"><ele>497.5</ele><time>2026-04-05T10:20:05.001Z</time></trkpt><trkpt lat="43.2153917" lon="11.6851817"><ele>498.0</ele><time>2026-04-05T10:20:06.001Z</time></trkpt><trkpt lat="43.2152683" lon="11.6850617"><ele>496.0</ele><time>2026-04-05T10:20:07.001Z</time></trkpt><trkpt lat="43.21515" lon="11.6849583"><ele>494.0</ele><time>2026-04-05T10:20:08.001Z</time></trkpt><trkpt lat="43.2150267" lon="11.684855"><ele>492.0</ele><time>2026-04-05T10:20:09.001Z</time></trkpt><trkpt lat="43.2149083" lon="11.68474"><ele>490.0</ele><time>2026-04-05T10:20:10.001Z</time></trkpt><trkpt lat="43.2147867" lon="11.68463"><ele>489.25</ele><time>2026-04-05T10:20:11.001Z</time></trkpt><trkpt lat="43.21467" lon="11.6845217"><ele>488.5</ele><time>2026-04-05T10:20:12.001Z</time></trkpt><trkpt lat="43.214555" lon="11.6844133"><ele>487.75</ele><time>2026-04-05T10:20:13.001Z</time></trkpt><trkpt lat="43.2144517" lon="11.6843133"><ele>487.0</ele><time>2026-04-05T10:20:14.001Z</time></trkpt><trkpt lat="43.21436" lon="11.6841833"><ele>485.5</ele><time>2026-04-05T10:20:15.001Z</time></trkpt><trkpt lat="43.2142817" lon="11.684035"><ele>484.0</ele><time>2026-04-05T10:20:16.001Z</time></trkpt><trkpt lat="43.2142267" lon="11.6838633"><ele>482.5</ele><time>2026-04-05T10:20:17.001Z</time></trkpt><trkpt lat="43.214195" lon="11.6836767"><ele>481.0</ele><time>2026-04-05T10:20:18.001Z</time></trkpt><trkpt lat="43.214175" lon="11.6834667"><ele>480.33333333333337</ele><time>2026-04-05T10:20:19.001Z</time></trkpt><trkpt lat="43.2141717" lon="11.683255"><ele>479.66666666666663</ele><time>2026-04-05T10:20:20.001Z</time></trkpt><trkpt lat="43.2141633" lon="11.6830383"><ele>479.0</ele><time>2026-04-05T10:20:21.001Z</time></trkpt><trkpt lat="43.2141533" lon="11.682825"><ele>476.66666666666663</ele><time>2026-04-05T10:20:22.001Z</time></trkpt><trkpt lat="43.2141367" lon="11.6826117"><ele>474.33333333333337</ele><time>2026-04-05T10:20:23.001Z</time></trkpt><trkpt lat="43.2141067" lon="11.6824033"><ele>472.0</ele><time>2026-04-05T10:20:24.001Z</time></trkpt><trkpt lat="43.2140583" lon="11.6822033"><ele>472.0</ele><time>2026-04-05T10:20:25.001Z</time></trkpt><trkpt lat="43.2139917" lon="11.6819933"><ele>472.0</ele><time>2026-04-05T10:20:26.001Z</time></trkpt><trkpt lat="43.2139167" lon="11.6817883"><ele>472.0</ele><time>2026-04-05T10:20:27.001Z</time></trkpt><trkpt lat="43.21383" lon="11.6815967"><ele>472.0</ele><time>2026-04-05T10:20:28.001Z</time></trkpt><trkpt lat="43.2137383" lon="11.681405"><ele>472.0</ele><time>2026-04-05T10:20:29.001Z</time></trkpt><trkpt lat="43.2136483" lon="11.681215"><ele>472.0</ele><time>2026-04-05T10:20:30.001Z</time></trkpt><trkpt lat="43.2135533" lon="11.6810233"><ele>472.0</ele><time>2026-04-05T10:20:31.001Z</time></trkpt><trkpt lat="43.2134617" lon="11.6808383"><ele>472.0</ele><time>2026-04-05T10:20:32.001Z</time></trkpt><trkpt lat="43.2133767" lon="11.68066"><ele>472.0</ele><time>2026-04-05T10:20:33.001Z</time></trkpt><trkpt lat="43.2132917" lon="11.6804917"><ele>472.0</ele><time>2026-04-05T10:20:34.001Z</time></trkpt><trkpt lat="43.213195" lon="11.6803217"><ele>472.0</ele><time>2026-04-05T10:20:35.001Z</time></trkpt><trkpt lat="43.2130883" lon="11.6801767"><ele>472.0</ele><time>2026-04-05T10:20:36.001Z</time></trkpt><trkpt lat="43.21297" lon="11.680065"><ele>474.33333333333337</ele><time>2026-04-05T10:20:37.001Z</time></trkpt><trkpt lat="43.2128283" lon="11.67999"><ele>476.66666666666663</ele><time>2026-04-05T10:20:38.001Z</time></trkpt><trkpt lat="43.2126717" lon="11.6799517"><ele>479.0</ele><time>2026-04-05T10:20:39.001Z</time></trkpt><trkpt lat="43.2125033" lon="11.679945"><ele>479.0</ele><time>2026-04-05T10:20:40.001Z</time></trkpt><trkpt lat="43.2123267" lon="11.67995"><ele>479.0</ele><time>2026-04-05T10:20:41.001Z</time></trkpt><trkpt lat="43.2121617" lon="11.679955"><ele>479.0</ele><time>2026-04-05T10:20:42.001Z</time></trkpt><trkpt lat="43.211995" lon="11.67995"><ele>479.0</ele><time>2026-04-05T10:20:43.001Z</time></trkpt><trkpt lat="43.2118417" lon="11.6799383"><ele>479.0</ele><time>2026-04-05T10:20:44.001Z</time></trkpt><trkpt lat="43.2116883" lon="11.67991"><ele>479.0</ele><time>2026-04-05T10:20:45.001Z</time></trkpt><trkpt lat="43.211555" lon="11.67984"><ele>477.0</ele><time>2026-04-05T10:20:46.001Z</time></trkpt><trkpt lat="43.2114267" lon="11.6797417"><ele>475.0</ele><time>2026-04-05T10:20:47.001Z</time></trkpt><trkpt lat="43.2113033" lon="11.6796117"><ele>473.0</ele><time>2026-04-05T10:20:48.001Z</time></trkpt><trkpt lat="43.2112" lon="11.6794383"><ele>474.3333333333333</ele><time>2026-04-05T10:20:49.001Z</time></trkpt><trkpt lat="43.211105" lon="11.679245"><ele>475.66666666666663</ele><time>2026-04-05T10:20:50.001Z</time></trkpt><trkpt lat="43.2110033" lon="11.67905"><ele>477.0</ele><time>2026-04-05T10:20:51.001Z</time></trkpt><trkpt lat="43.2109017" lon="11.6788617"><ele>477.0</ele><time>2026-04-05T10:20:52.001Z</time></trkpt><trkpt lat="43.21079" lon="11.6786717"><ele>477.0</ele><time>2026-04-05T10:20:53.001Z</time></trkpt><trkpt lat="43.21066" lon="11.678495"><ele>477.0</ele><time>2026-04-05T10:20:54.001Z</time></trkpt><trkpt lat="43.21053" lon="11.6783183"><ele>475.0</ele><time>2026-04-05T10:20:55.001Z</time></trkpt><trkpt lat="43.2103967" lon="11.678165"><ele>473.0</ele><time>2026-04-05T10:20:56.001Z</time></trkpt><trkpt lat="43.210265" lon="11.6780117"><ele>471.0</ele><time>2026-04-05T10:20:57.001Z</time></trkpt><trkpt lat="43.2101267" lon="11.6778867"><ele>471.0</ele><time>2026-04-05T10:20:58.001Z</time></trkpt><trkpt lat="43.20998" lon="11.67777"><ele>471.0</ele><time>2026-04-05T10:20:59.001Z</time></trkpt><trkpt lat="43.209815" lon="11.6776683"><ele>471.0</ele><time>2026-04-05T10:21:00.001Z</time></trkpt><trkpt lat="43.209645" lon="11.6775717"><ele>470.0</ele><time>2026-04-05T10:21:01.001Z</time></trkpt><trkpt lat="43.2094633" lon="11.6774817"><ele>469.0</ele><time>2026-04-05T10:21:02.001Z</time></trkpt><trkpt lat="43.209295" lon="11.67739"><ele>468.0</ele><time>2026-04-05T10:21:03.001Z</time></trkpt><trkpt lat="43.20913" lon="11.6772983"><ele>466.66666666666663</ele><time>2026-04-05T10:21:04.001Z</time></trkpt><trkpt lat="43.2089567" lon="11.67721"><ele>465.3333333333333</ele><time>2026-04-05T10:21:05.001Z</time></trkpt><trkpt lat="43.208785" lon="11.6771167"><ele>464.0</ele><time>2026-04-05T10:21:06.001Z</time></trkpt><trkpt lat="43.2086267" lon="11.6770383"><ele>464.0</ele><time>2026-04-05T10:21:07.001Z</time></trkpt><trkpt lat="43.2084633" lon="11.676965"><ele>464.0</ele><time>2026-04-05T10:21:08.001Z</time></trkpt><trkpt lat="43.2082983" lon="11.676915"><ele>464.0</ele><time>2026-04-05T10:21:09.001Z</time></trkpt><trkpt lat="43.2081333" lon="11.676895"><ele>464.0</ele><time>2026-04-05T10:21:10.001Z</time></trkpt><trkpt lat="43.2079683" lon="11.67689"><ele>464.0</ele><time>2026-04-05T10:21:11.001Z</time></trkpt><trkpt lat="43.207805" lon="11.6768917"><ele>464.0</ele><time>2026-04-05T10:21:12.001Z</time></trkpt><trkpt lat="43.2076467" lon="11.6768867"><ele>464.0</ele><time>2026-04-05T10:21:13.001Z</time></trkpt><trkpt lat="43.20748" lon="11.6768883"><ele>464.0</ele><time>2026-04-05T10:21:14.001Z</time></trkpt><trkpt lat="43.207315" lon="11.6768917"><ele>464.0</ele><time>2026-04-05T10:21:15.001Z</time></trkpt><trkpt lat="43.207145" lon="11.6768917"><ele>463.3333333333333</ele><time>2026-04-05T10:21:16.001Z</time></trkpt><trkpt lat="43.2069767" lon="11.6769233"><ele>462.66666666666663</ele><time>2026-04-05T10:21:17.001Z</time></trkpt><trkpt lat="43.20681" lon="11.6769733"><ele>462.0</ele><time>2026-04-05T10:21:18.001Z</time></trkpt><trkpt lat="43.206645" lon="11.6770367"><ele>464.0</ele><time>2026-04-05T10:21:19.001Z</time></trkpt><trkpt lat="43.206485" lon="11.677095"><ele>466.0</ele><time>2026-04-05T10:21:20.001Z</time></trkpt><trkpt lat="43.2063217" lon="11.67716"><ele>468.0</ele><time>2026-04-05T10:21:21.001Z</time></trkpt><trkpt lat="43.206165" lon="11.677215"><ele>468.0</ele><time>2026-04-05T10:21:22.001Z</time></trkpt><trkpt lat="43.205995" lon="11.6772467"><ele>468.0</ele><time>2026-04-05T10:21:23.001Z</time></trkpt><trkpt lat="43.2058267" lon="11.6772633"><ele>468.0</ele><time>2026-04-05T10:21:24.001Z</time></trkpt><trkpt lat="43.2056517" lon="11.6772633"><ele>467.66666666666663</ele><time>2026-04-05T10:21:25.001Z</time></trkpt><trkpt lat="43.2054767" lon="11.6772633"><ele>467.3333333333333</ele><time>2026-04-05T10:21:26.001Z</time></trkpt><trkpt lat="43.2053083" lon="11.677255"><ele>467.0</ele><time>2026-04-05T10:21:27.001Z</time></trkpt><trkpt lat="43.20514" lon="11.67724"><ele>467.0</ele><time>2026-04-05T10:21:28.001Z</time></trkpt><trkpt lat="43.20498" lon="11.67722"><ele>467.0</ele><time>2026-04-05T10:21:29.001Z</time></trkpt><trkpt lat="43.2048367" lon="11.6771667"><ele>467.0</ele><time>2026-04-05T10:21:30.001Z</time></trkpt><trkpt lat="43.2047167" lon="11.67705"><ele>465.5</ele><time>2026-04-05T10:21:31.001Z</time></trkpt><trkpt lat="43.2046017" lon="11.67693"><ele>464.0</ele><time>2026-04-05T10:21:32.001Z</time></trkpt><trkpt lat="43.2044833" lon="11.6767933"><ele>462.5</ele><time>2026-04-05T10:21:33.001Z</time></trkpt><trkpt lat="43.2043717" lon="11.6766567"><ele>461.0</ele><time>2026-04-05T10:21:34.001Z</time></trkpt><trkpt lat="43.2042667" lon="11.6765267"><ele>461.0</ele><time>2026-04-05T10:21:35.001Z</time></trkpt><trkpt lat="43.2041617" lon="11.6763983"><ele>461.0</ele><time>2026-04-05T10:21:36.001Z</time></trkpt><trkpt lat="43.204055" lon="11.6762783"><ele>461.0</ele><time>2026-04-05T10:21:37.001Z</time></trkpt><trkpt lat="43.2039517" lon="11.67616"><ele>461.0</ele><time>2026-04-05T10:21:38.001Z</time></trkpt><trkpt lat="43.2038333" lon="11.6760733"><ele>462.0</ele><time>2026-04-05T10:21:39.001Z</time></trkpt><trkpt lat="43.2037033" lon="11.6760067"><ele>463.0</ele><time>2026-04-05T10:21:40.001Z</time></trkpt><trkpt lat="43.2035517" lon="11.6759767"><ele>464.0</ele><time>2026-04-05T10:21:41.001Z</time></trkpt><trkpt lat="43.2033967" lon="11.6759567"><ele>465.0</ele><time>2026-04-05T10:21:42.001Z</time></trkpt><trkpt lat="43.2032467" lon="11.675945"><ele>463.5</ele><time>2026-04-05T10:21:43.001Z</time></trkpt><trkpt lat="43.20309" lon="11.67592"><ele>462.0</ele><time>2026-04-05T10:21:44.001Z</time></trkpt><trkpt lat="43.2029433" lon="11.67589"><ele>460.5</ele><time>2026-04-05T10:21:45.001Z</time></trkpt><trkpt lat="43.2028033" lon="11.6758583"><ele>459.0</ele><time>2026-04-05T10:21:46.001Z</time></trkpt><trkpt lat="43.2026717" lon="11.6757933"><ele>459.0</ele><time>2026-04-05T10:21:47.001Z</time></trkpt><trkpt lat="43.2025583" lon="11.6756783"><ele>459.0</ele><time>2026-04-05T10:21:48.001Z</time></trkpt><trkpt lat="43.20245" lon="11.675555"><ele>459.0</ele><time>2026-04-05T10:21:49.001Z</time></trkpt><trkpt lat="43.2023733" lon="11.6753883"><ele>459.0</ele><time>2026-04-05T10:21:50.001Z</time></trkpt><trkpt lat="43.2022983" lon="11.67523"><ele>458.0</ele><time>2026-04-05T10:21:51.001Z</time></trkpt><trkpt lat="43.20222" lon="11.675075"><ele>457.0</ele><time>2026-04-05T10:21:52.001Z</time></trkpt><trkpt lat="43.2021533" lon="11.6749267"><ele>456.0</ele><time>2026-04-05T10:21:53.001Z</time></trkpt><trkpt lat="43.2020783" lon="11.6747933"><ele>455.0</ele><time>2026-04-05T10:21:54.001Z</time></trkpt><trkpt lat="43.2019817" lon="11.67468"><ele>455.0</ele><time>2026-04-05T10:21:55.001Z</time></trkpt><trkpt lat="43.201865" lon="11.6745883"><ele>455.0</ele><time>2026-04-05T10:21:56.001Z</time></trkpt><trkpt lat="43.20174" lon="11.6745483"><ele>455.0</ele><time>2026-04-05T10:21:57.001Z</time></trkpt><trkpt lat="43.2016083" lon="11.674575"><ele>455.0</ele><time>2026-04-05T10:21:58.001Z</time></trkpt><trkpt lat="43.2014783" lon="11.6746467"><ele>454.25</ele><time>2026-04-05T10:21:59.001Z</time></trkpt><trkpt lat="43.20136" lon="11.6747383"><ele>453.5</ele><time>2026-04-05T10:22:00.001Z</time></trkpt><trkpt lat="43.201225" lon="11.6748383"><ele>452.75</ele><time>2026-04-05T10:22:01.001Z</time></trkpt><trkpt lat="43.2010967" lon="11.67495"><ele>452.0</ele><time>2026-04-05T10:22:02.001Z</time></trkpt><trkpt lat="43.2009617" lon="11.67506"><ele>452.0</ele><time>2026-04-05T10:22:03.001Z</time></trkpt><trkpt lat="43.2008283" lon="11.6751667"><ele>452.0</ele><time>2026-04-05T10:22:04.001Z</time></trkpt><trkpt lat="43.2006867" lon="11.67526"><ele>452.0</ele><time>2026-04-05T10:22:05.001Z</time></trkpt><trkpt lat="43.20053" lon="11.6753533"><ele>449.66666666666663</ele><time>2026-04-05T10:22:06.001Z</time></trkpt><trkpt lat="43.2003733" lon="11.6754383"><ele>447.33333333333337</ele><time>2026-04-05T10:22:07.001Z</time></trkpt><trkpt lat="43.2002233" lon="11.6755217"><ele>445.0</ele><time>2026-04-05T10:22:08.001Z</time></trkpt><trkpt lat="43.2000717" lon="11.675605"><ele>445.0</ele><time>2026-04-05T10:22:09.001Z</time></trkpt><trkpt lat="43.1999217" lon="11.6756833"><ele>445.0</ele><time>2026-04-05T10:22:10.001Z</time></trkpt><trkpt lat="43.1997617" lon="11.675755"><ele>445.0</ele><time>2026-04-05T10:22:11.001Z</time></trkpt><trkpt lat="43.1996" lon="11.6758333"><ele>445.33333333333337</ele><time>2026-04-05T10:22:12.001Z</time></trkpt><trkpt lat="43.1994467" lon="11.6759183"><ele>445.66666666666663</ele><time>2026-04-05T10:22:13.001Z</time></trkpt><trkpt lat="43.1993067" lon="11.675995"><ele>446.0</ele><time>2026-04-05T10:22:14.001Z</time></trkpt><trkpt lat="43.199175" lon="11.6760883"><ele>445.66666666666663</ele><time>2026-04-05T10:22:15.001Z</time></trkpt><trkpt lat="43.1990533" lon="11.676205"><ele>445.33333333333337</ele><time>2026-04-05T10:22:16.001Z</time></trkpt><trkpt lat="43.198935" lon="11.67633"><ele>445.0</ele><time>2026-04-05T10:22:17.001Z</time></trkpt><trkpt lat="43.19882" lon="11.6764667"><ele>445.0</ele><time>2026-04-05T10:22:18.001Z</time></trkpt><trkpt lat="43.198705" lon="11.67662"><ele>445.0</ele><time>2026-04-05T10:22:19.001Z</time></trkpt><trkpt lat="43.1985867" lon="11.67677"><ele>445.0</ele><time>2026-04-05T10:22:20.001Z</time></trkpt><trkpt lat="43.1984683" lon="11.6769283"><ele>444.0</ele><time>2026-04-05T10:22:21.001Z</time></trkpt><trkpt lat="43.1983617" lon="11.677075"><ele>443.0</ele><time>2026-04-05T10:22:22.001Z</time></trkpt><trkpt lat="43.19825" lon="11.677225"><ele>442.0</ele><time>2026-04-05T10:22:23.001Z</time></trkpt><trkpt lat="43.1981333" lon="11.6773883"><ele>442.6666666666667</ele><time>2026-04-05T10:22:24.001Z</time></trkpt><trkpt lat="43.1980233" lon="11.6775383"><ele>443.33333333333337</ele><time>2026-04-05T10:22:25.001Z</time></trkpt><trkpt lat="43.1979117" lon="11.6776783"><ele>444.0</ele><time>2026-04-05T10:22:26.001Z</time></trkpt><trkpt lat="43.19779" lon="11.6778"><ele>444.0</ele><time>2026-04-05T10:22:27.001Z</time></trkpt><trkpt lat="43.1976467" lon="11.6778933"><ele>444.0</ele><time>2026-04-05T10:22:28.001Z</time></trkpt><trkpt lat="43.1975" lon="11.6779617"><ele>444.0</ele><time>2026-04-05T10:22:29.001Z</time></trkpt><trkpt lat="43.197345" lon="11.6779917"><ele>443.66666666666663</ele><time>2026-04-05T10:22:30.001Z</time></trkpt><trkpt lat="43.1971867" lon="11.6780067"><ele>443.3333333333333</ele><time>2026-04-05T10:22:31.001Z</time></trkpt><trkpt lat="43.1970133" lon="11.6779883"><ele>443.0</ele><time>2026-04-05T10:22:32.001Z</time></trkpt><trkpt lat="43.1968533" lon="11.6779567"><ele>443.0</ele><time>2026-04-05T10:22:33.001Z</time></trkpt><trkpt lat="43.196695" lon="11.6779233"><ele>443.0</ele><time>2026-04-05T10:22:34.001Z</time></trkpt><trkpt lat="43.1965317" lon="11.677875"><ele>443.0</ele><time>2026-04-05T10:22:35.001Z</time></trkpt><trkpt lat="43.196385" lon="11.6778333"><ele>442.3333333333333</ele><time>2026-04-05T10:22:36.001Z</time></trkpt><trkpt lat="43.1962433" lon="11.67777"><ele>441.66666666666663</ele><time>2026-04-05T10:22:37.001Z</time></trkpt><trkpt lat="43.1961017" lon="11.6776733"><ele>441.0</ele><time>2026-04-05T10:22:38.001Z</time></trkpt><trkpt lat="43.19597" lon="11.677545"><ele>438.0</ele><time>2026-04-05T10:22:39.001Z</time></trkpt><trkpt lat="43.1958433" lon="11.6774067"><ele>435.0</ele><time>2026-04-05T10:22:40.001Z</time></trkpt><trkpt lat="43.195715" lon="11.6772683"><ele>432.0</ele><time>2026-04-05T10:22:41.001Z</time></trkpt><trkpt lat="43.1955883" lon="11.67712"><ele>430.0</ele><time>2026-04-05T10:22:42.001Z</time></trkpt><trkpt lat="43.1954517" lon="11.676985"><ele>428.0</ele><time>2026-04-05T10:22:43.001Z</time></trkpt><trkpt lat="43.195315" lon="11.6768733"><ele>426.0</ele><time>2026-04-05T10:22:44.001Z</time></trkpt><trkpt lat="43.1951667" lon="11.67676"><ele>425.33333333333337</ele><time>2026-04-05T10:22:45.001Z</time></trkpt><trkpt lat="43.1950167" lon="11.676675"><ele>424.6666666666667</ele><time>2026-04-05T10:22:46.001Z</time></trkpt><trkpt lat="43.1948517" lon="11.6766"><ele>424.0</ele><time>2026-04-05T10:22:47.001Z</time></trkpt><trkpt lat="43.1946867" lon="11.6765483"><ele>421.0</ele><time>2026-04-05T10:22:48.001Z</time></trkpt><trkpt lat="43.1945117" lon="11.676485"><ele>418.0</ele><time>2026-04-05T10:22:49.001Z</time></trkpt><trkpt lat="43.1943433" lon="11.6764283"><ele>415.0</ele><time>2026-04-05T10:22:50.001Z</time></trkpt><trkpt lat="43.1941767" lon="11.6763717"><ele>415.0</ele><time>2026-04-05T10:22:51.001Z</time></trkpt><trkpt lat="43.19401" lon="11.67632"><ele>415.0</ele><time>2026-04-05T10:22:52.001Z</time></trkpt><trkpt lat="43.1938483" lon="11.6762667"><ele>415.0</ele><time>2026-04-05T10:22:53.001Z</time></trkpt><trkpt lat="43.193685" lon="11.6762133"><ele>413.33333333333337</ele><time>2026-04-05T10:22:54.001Z</time></trkpt><trkpt lat="43.1935167" lon="11.676155"><ele>411.66666666666663</ele><time>2026-04-05T10:22:55.001Z</time></trkpt><trkpt lat="43.1933533" lon="11.676105"><ele>410.0</ele><time>2026-04-05T10:22:56.001Z</time></trkpt><trkpt lat="43.1932" lon="11.67605"><ele>409.3333333333333</ele><time>2026-04-05T10:22:57.001Z</time></trkpt><trkpt lat="43.1930417" lon="11.6759867"><ele>408.66666666666663</ele><time>2026-04-05T10:22:58.001Z</time></trkpt><trkpt lat="43.1928967" lon="11.675925"><ele>408.0</ele><time>2026-04-05T10:22:59.001Z</time></trkpt><trkpt lat="43.1927567" lon="11.6758667"><ele>408.0</ele><time>2026-04-05T10:23:00.001Z</time></trkpt><trkpt lat="43.1926117" lon="11.6757967"><ele>408.0</ele><time>2026-04-05T10:23:01.001Z</time></trkpt><trkpt lat="43.19247" lon="11.67573"><ele>408.0</ele><time>2026-04-05T10:23:02.001Z</time></trkpt><trkpt lat="43.1923267" lon="11.6756733"><ele>406.66666666666663</ele><time>2026-04-05T10:23:03.001Z</time></trkpt><trkpt lat="43.1921833" lon="11.6756133"><ele>405.3333333333333</ele><time>2026-04-05T10:23:04.001Z</time></trkpt><trkpt lat="43.19204" lon="11.6755533"><ele>404.0</ele><time>2026-04-05T10:23:05.001Z</time></trkpt><trkpt lat="43.1918967" lon="11.675485"><ele>404.0</ele><time>2026-04-05T10:23:06.001Z</time></trkpt><trkpt lat="43.191755" lon="11.6754267"><ele>404.0</ele><time>2026-04-05T10:23:07.001Z</time></trkpt><trkpt lat="43.1916233" lon="11.6753683"><ele>404.0</ele><time>2026-04-05T10:23:08.001Z</time></trkpt><trkpt lat="43.1914933" lon="11.6753167"><ele>404.0</ele><time>2026-04-05T10:23:09.001Z</time></trkpt><trkpt lat="43.1913667" lon="11.6752683"><ele>404.0</ele><time>2026-04-05T10:23:10.001Z</time></trkpt><trkpt lat="43.19124" lon="11.67522"><ele>404.0</ele><time>2026-04-05T10:23:11.001Z</time></trkpt><trkpt lat="43.1911267" lon="11.6751717"><ele>404.0</ele><time>2026-04-05T10:23:12.001Z</time></trkpt><trkpt lat="43.1910167" lon="11.6751233"><ele>404.0</ele><time>2026-04-05T10:23:13.001Z</time></trkpt><trkpt lat="43.19091" lon="11.6750783"><ele>404.0</ele><time>2026-04-05T10:23:14.001Z</time></trkpt><trkpt lat="43.1908067" lon="11.675035"><ele>404.0</ele><time>2026-04-05T10:23:15.001Z</time></trkpt><trkpt lat="43.1907" lon="11.6749933"><ele>404.0</ele><time>2026-04-05T10:23:16.001Z</time></trkpt><trkpt lat="43.1906067" lon="11.6749533"><ele>404.0</ele><time>2026-04-05T10:23:17.001Z</time></trkpt><trkpt lat="43.1905233" lon="11.6749133"><ele>404.0</ele><time>2026-04-05T10:23:18.001Z</time></trkpt><trkpt lat="43.1904483" lon="11.6748733"><ele>404.49999999999994</ele><time>2026-04-05T10:23:19.001Z</time></trkpt><trkpt lat="43.1903817" lon="11.6748317"><ele>405.0</ele><time>2026-04-05T10:23:20.001Z</time></trkpt><trkpt lat="43.1903267" lon="11.6747617"><ele>405.5</ele><time>2026-04-05T10:23:21.001Z</time></trkpt><trkpt lat="43.1902733" lon="11.674695"><ele>406.0</ele><time>2026-04-05T10:23:22.001Z</time></trkpt><trkpt lat="43.190225" lon="11.6746217"><ele>406.49999999999994</ele><time>2026-04-05T10:23:23.001Z</time></trkpt><trkpt lat="43.1901617" lon="11.6745183"><ele>407.0</ele><time>2026-04-05T10:23:25.001Z</time></trkpt><trkpt lat="43.1900917" lon="11.6744167"><ele>405.6</ele><time>2026-04-05T10:23:34.001Z</time></trkpt><trkpt lat="43.1900433" lon="11.6743367"><ele>404.20000000000005</ele><time>2026-04-05T10:23:35.001Z</time></trkpt><trkpt lat="43.189985" lon="11.67425"><ele>402.8</ele><time>2026-04-05T10:23:36.001Z</time></trkpt><trkpt lat="43.18992" lon="11.674145"><ele>401.4</ele><time>2026-04-05T10:23:37.001Z</time></trkpt><trkpt lat="43.1898483" lon="11.6740267"><ele>400.0</ele><time>2026-04-05T10:23:38.001Z</time></trkpt><trkpt lat="43.1897683" lon="11.6738967"><ele>401.5</ele><time>2026-04-05T10:23:39.001Z</time></trkpt><trkpt lat="43.18968" lon="11.673765"><ele>403.0</ele><time>2026-04-05T10:23:40.001Z</time></trkpt><trkpt lat="43.1895867" lon="11.673625"><ele>404.5</ele><time>2026-04-05T10:23:41.001Z</time></trkpt><trkpt lat="43.1895017" lon="11.6734817"><ele>406.0</ele><time>2026-04-05T10:23:42.001Z</time></trkpt><trkpt lat="43.189405" lon="11.6733267"><ele>406.0</ele><time>2026-04-05T10:23:43.001Z</time></trkpt><trkpt lat="43.1893067" lon="11.6731783"><ele>406.0</ele><time>2026-04-05T10:23:44.001Z</time></trkpt><trkpt lat="43.1892183" lon="11.6730383"><ele>406.0</ele><time>2026-04-05T10:23:45.001Z</time></trkpt><trkpt lat="43.1891383" lon="11.6729033"><ele>406.0</ele><time>2026-04-05T10:23:46.001Z</time></trkpt><trkpt lat="43.189045" lon="11.6727783"><ele>405.75</ele><time>2026-04-05T10:23:47.001Z</time></trkpt><trkpt lat="43.1889417" lon="11.672665"><ele>405.5</ele><time>2026-04-05T10:23:48.001Z</time></trkpt><trkpt lat="43.1888267" lon="11.67258"><ele>405.25</ele><time>2026-04-05T10:23:49.001Z</time></trkpt><trkpt lat="43.188695" lon="11.6725183"><ele>405.0</ele><time>2026-04-05T10:23:50.001Z</time></trkpt><trkpt lat="43.1885483" lon="11.672495"><ele>405.0</ele><time>2026-04-05T10:23:51.001Z</time></trkpt><trkpt lat="43.18838" lon="11.672505"><ele>405.0</ele><time>2026-04-05T10:23:52.001Z</time></trkpt><trkpt lat="43.1882" lon="11.67252"><ele>405.0</ele><time>2026-04-05T10:23:53.001Z</time></trkpt><trkpt lat="43.188005" lon="11.6725333"><ele>407.33333333333337</ele><time>2026-04-05T10:23:54.001Z</time></trkpt><trkpt lat="43.18782" lon="11.6725467"><ele>409.6666666666667</ele><time>2026-04-05T10:23:55.001Z</time></trkpt><trkpt lat="43.18765" lon="11.6725533"><ele>412.0</ele><time>2026-04-05T10:23:56.001Z</time></trkpt><trkpt lat="43.1874933" lon="11.67255"><ele>412.0</ele><time>2026-04-05T10:23:57.001Z</time></trkpt><trkpt lat="43.1873567" lon="11.6725517"><ele>412.0</ele><time>2026-04-05T10:23:58.001Z</time></trkpt><trkpt lat="43.1872317" lon="11.6725483"><ele>412.0</ele><time>2026-04-05T10:23:59.001Z</time></trkpt><trkpt lat="43.18711" lon="11.6724933"><ele>412.0</ele><time>2026-04-05T10:24:00.001Z</time></trkpt><trkpt lat="43.187015" lon="11.6724067"><ele>413.0</ele><time>2026-04-05T10:24:01.001Z</time></trkpt><trkpt lat="43.1869317" lon="11.6722933"><ele>414.0</ele><time>2026-04-05T10:24:02.001Z</time></trkpt><trkpt lat="43.186875" lon="11.6721383"><ele>415.0</ele><time>2026-04-05T10:24:03.001Z</time></trkpt><trkpt lat="43.18687" lon="11.6719633"><ele>416.0</ele><time>2026-04-05T10:24:04.001Z</time></trkpt><trkpt lat="43.186905" lon="11.6717917"><ele>417.5</ele><time>2026-04-05T10:24:05.001Z</time></trkpt><trkpt lat="43.1869617" lon="11.6716383"><ele>419.0</ele><time>2026-04-05T10:24:06.001Z</time></trkpt><trkpt lat="43.1870367" lon="11.671505"><ele>420.5</ele><time>2026-04-05T10:24:07.001Z</time></trkpt><trkpt lat="43.1871183" lon="11.67138"><ele>422.0</ele><time>2026-04-05T10:24:08.001Z</time></trkpt><trkpt lat="43.1871983" lon="11.67125"><ele>422.0</ele><time>2026-04-05T10:24:09.001Z</time></trkpt><trkpt lat="43.1872717" lon="11.6711167"><ele>422.0</ele><time>2026-04-05T10:24:10.001Z</time></trkpt><trkpt lat="43.18735" lon="11.67098"><ele>422.0</ele><time>2026-04-05T10:24:11.001Z</time></trkpt><trkpt lat="43.18743" lon="11.670835"><ele>422.0</ele><time>2026-04-05T10:24:12.001Z</time></trkpt><trkpt lat="43.1875067" lon="11.6706933"><ele>421.25</ele><time>2026-04-05T10:24:13.001Z</time></trkpt><trkpt lat="43.187565" lon="11.670555"><ele>420.5</ele><time>2026-04-05T10:24:14.001Z</time></trkpt><trkpt lat="43.1876033" lon="11.6704117"><ele>419.75</ele><time>2026-04-05T10:24:15.001Z</time></trkpt><trkpt lat="43.18763" lon="11.6702483"><ele>419.0</ele><time>2026-04-05T10:24:16.001Z</time></trkpt><trkpt lat="43.187645" lon="11.6700867"><ele>421.25</ele><time>2026-04-05T10:24:17.001Z</time></trkpt><trkpt lat="43.1876533" lon="11.6699317"><ele>423.5</ele><time>2026-04-05T10:24:18.001Z</time></trkpt><trkpt lat="43.1876417" lon="11.66977"><ele>425.75</ele><time>2026-04-05T10:24:19.001Z</time></trkpt><trkpt lat="43.1876017" lon="11.6696233"><ele>428.0</ele><time>2026-04-05T10:24:20.001Z</time></trkpt><trkpt lat="43.18754" lon="11.669505"><ele>429.0</ele><time>2026-04-05T10:24:21.001Z</time></trkpt><trkpt lat="43.1874517" lon="11.6694117"><ele>429.99999999999994</ele><time>2026-04-05T10:24:22.001Z</time></trkpt><trkpt lat="43.1873617" lon="11.6693483"><ele>430.99999999999994</ele><time>2026-04-05T10:24:23.001Z</time></trkpt><trkpt lat="43.18726" lon="11.6693"><ele>432.0</ele><time>2026-04-05T10:24:24.001Z</time></trkpt><trkpt lat="43.18716" lon="11.6692817"><ele>433.0</ele><time>2026-04-05T10:24:25.001Z</time></trkpt><trkpt lat="43.1870617" lon="11.6692833"><ele>433.0</ele><time>2026-04-05T10:24:26.001Z</time></trkpt><trkpt lat="43.1869633" lon="11.6692867"><ele>432.99999999999994</ele><time>2026-04-05T10:24:27.001Z</time></trkpt><trkpt lat="43.1868633" lon="11.6692867"><ele>432.99999999999994</ele><time>2026-04-05T10:24:28.001Z</time></trkpt><trkpt lat="43.186765" lon="11.6692867"><ele>433.0</ele><time>2026-04-05T10:24:29.001Z</time></trkpt><trkpt lat="43.1866833" lon="11.6693033"><ele>433.0</ele><time>2026-04-05T10:24:30.001Z</time></trkpt><trkpt lat="43.1865933" lon="11.6693467"><ele>434.0</ele><time>2026-04-05T10:24:31.001Z</time></trkpt><trkpt lat="43.1864983" lon="11.6693917"><ele>435.0</ele><time>2026-04-05T10:24:32.001Z</time></trkpt><trkpt lat="43.18639" lon="11.66946"><ele>436.0</ele><time>2026-04-05T10:24:33.001Z</time></trkpt><trkpt lat="43.1862817" lon="11.66953"><ele>437.0</ele><time>2026-04-05T10:24:34.001Z</time></trkpt><trkpt lat="43.1861667" lon="11.6696183"><ele>437.0</ele><time>2026-04-05T10:24:35.001Z</time></trkpt><trkpt lat="43.18605" lon="11.6697067"><ele>437.0</ele><time>2026-04-05T10:24:36.001Z</time></trkpt><trkpt lat="43.1859267" lon="11.6698033"><ele>437.0</ele><time>2026-04-05T10:24:37.001Z</time></trkpt><trkpt lat="43.1858017" lon="11.6699"><ele>437.0</ele><time>2026-04-05T10:24:38.001Z</time></trkpt><trkpt lat="43.1856667" lon="11.6699917"><ele>436.66666666666663</ele><time>2026-04-05T10:24:39.001Z</time></trkpt><trkpt lat="43.185525" lon="11.6700867"><ele>436.33333333333337</ele><time>2026-04-05T10:24:40.001Z</time></trkpt><trkpt lat="43.185385" lon="11.6701883"><ele>436.0</ele><time>2026-04-05T10:24:41.001Z</time></trkpt><trkpt lat="43.1852433" lon="11.67029"><ele>437.6666666666667</ele><time>2026-04-05T10:24:42.001Z</time></trkpt><trkpt lat="43.1851033" lon="11.6703817"><ele>439.33333333333337</ele><time>2026-04-05T10:24:43.001Z</time></trkpt><trkpt lat="43.18495" lon="11.6704683"><ele>441.0</ele><time>2026-04-05T10:24:44.001Z</time></trkpt><trkpt lat="43.1848017" lon="11.6705517"><ele>441.0</ele><time>2026-04-05T10:24:45.001Z</time></trkpt><trkpt lat="43.1846633" lon="11.6706417"><ele>441.0</ele><time>2026-04-05T10:24:46.001Z</time></trkpt><trkpt lat="43.1845367" lon="11.6707433"><ele>441.0</ele><time>2026-04-05T10:24:47.001Z</time></trkpt><trkpt lat="43.1844183" lon="11.6708717"><ele>441.0</ele><time>2026-04-05T10:24:48.001Z</time></trkpt><trkpt lat="43.1843233" lon="11.6710117"><ele>441.0</ele><time>2026-04-05T10:24:49.001Z</time></trkpt><trkpt lat="43.18423" lon="11.671175"><ele>441.0</ele><time>2026-04-05T10:24:50.001Z</time></trkpt><trkpt lat="43.18414" lon="11.671335"><ele>441.0</ele><time>2026-04-05T10:24:51.001Z</time></trkpt><trkpt lat="43.18405" lon="11.6715017"><ele>442.0</ele><time>2026-04-05T10:24:52.001Z</time></trkpt><trkpt lat="43.18396" lon="11.6716783"><ele>443.0</ele><time>2026-04-05T10:24:53.001Z</time></trkpt><trkpt lat="43.183895" lon="11.6718667"><ele>444.0</ele><time>2026-04-05T10:24:54.001Z</time></trkpt><trkpt lat="43.183855" lon="11.6720617"><ele>444.0</ele><time>2026-04-05T10:24:55.001Z</time></trkpt><trkpt lat="43.1838267" lon="11.672265"><ele>444.0</ele><time>2026-04-05T10:24:56.001Z</time></trkpt><trkpt lat="43.1838083" lon="11.6724567"><ele>444.0</ele><time>2026-04-05T10:24:57.001Z</time></trkpt><trkpt lat="43.18379" lon="11.67265"><ele>444.0</ele><time>2026-04-05T10:24:58.001Z</time></trkpt><trkpt lat="43.1837633" lon="11.67286"><ele>446.0</ele><time>2026-04-05T10:24:59.001Z</time></trkpt><trkpt lat="43.1837167" lon="11.67306"><ele>448.0</ele><time>2026-04-05T10:25:00.001Z</time></trkpt><trkpt lat="43.18366" lon="11.67324"><ele>450.0</ele><time>2026-04-05T10:25:01.001Z</time></trkpt><trkpt lat="43.1835867" lon="11.673415"><ele>452.0</ele><time>2026-04-05T10:25:02.001Z</time></trkpt><trkpt lat="43.1835083" lon="11.6735917"><ele>453.0</ele><time>2026-04-05T10:25:03.001Z</time></trkpt><trkpt lat="43.183425" lon="11.673775"><ele>454.0</ele><time>2026-04-05T10:25:04.001Z</time></trkpt><trkpt lat="43.1833283" lon="11.6739367"><ele>455.0</ele><time>2026-04-05T10:25:05.001Z</time></trkpt><trkpt lat="43.183215" lon="11.67407"><ele>450.3333333333333</ele><time>2026-04-05T10:25:06.001Z</time></trkpt><trkpt lat="43.1830883" lon="11.67418"><ele>445.66666666666663</ele><time>2026-04-05T10:25:07.001Z</time></trkpt><trkpt lat="43.182955" lon="11.674285"><ele>441.0</ele><time>2026-04-05T10:25:08.001Z</time></trkpt><trkpt lat="43.18282" lon="11.674385"><ele>444.0</ele><time>2026-04-05T10:25:09.001Z</time></trkpt><trkpt lat="43.1826883" lon="11.6744883"><ele>447.0</ele><time>2026-04-05T10:25:10.001Z</time></trkpt><trkpt lat="43.182555" lon="11.674595"><ele>450.0</ele><time>2026-04-05T10:25:11.001Z</time></trkpt><trkpt lat="43.1824217" lon="11.674695"><ele>449.0</ele><time>2026-04-05T10:25:12.001Z</time></trkpt><trkpt lat="43.1822817" lon="11.6747883"><ele>448.0</ele><time>2026-04-05T10:25:13.001Z</time></trkpt><trkpt lat="43.18214" lon="11.67487"><ele>447.0</ele><time>2026-04-05T10:25:14.001Z</time></trkpt><trkpt lat="43.1819967" lon="11.6749467"><ele>447.0</ele><time>2026-04-05T10:25:15.001Z</time></trkpt><trkpt lat="43.1818467" lon="11.6750167"><ele>447.0</ele><time>2026-04-05T10:25:16.001Z</time></trkpt><trkpt lat="43.1817067" lon="11.6750933"><ele>447.0</ele><time>2026-04-05T10:25:17.001Z</time></trkpt><trkpt lat="43.18156" lon="11.67516"><ele>447.33333333333337</ele><time>2026-04-05T10:25:18.001Z</time></trkpt><trkpt lat="43.1814233" lon="11.6752283"><ele>447.6666666666667</ele><time>2026-04-05T10:25:19.001Z</time></trkpt><trkpt lat="43.1812733" lon="11.6752967"><ele>448.0</ele><time>2026-04-05T10:25:20.001Z</time></trkpt><trkpt lat="43.181135" lon="11.6753633"><ele>448.0</ele><time>2026-04-05T10:25:21Z</time></trkpt><trkpt lat="43.180995" lon="11.6754283"><ele>448.0</ele><time>2026-04-05T10:25:22Z</time></trkpt><trkpt lat="43.180855" lon="11.6754983"><ele>448.0</ele><time>2026-04-05T10:25:23Z</time></trkpt><trkpt lat="43.1807183" lon="11.675555"><ele>448.0</ele><time>2026-04-05T10:25:24Z</time></trkpt><trkpt lat="43.1805933" lon="11.67561"><ele>451.5</ele><time>2026-04-05T10:25:25Z</time></trkpt><trkpt lat="43.1804583" lon="11.6756383"><ele>455.0</ele><time>2026-04-05T10:25:26Z</time></trkpt><trkpt lat="43.1803283" lon="11.675635"><ele>458.5</ele><time>2026-04-05T10:25:27Z</time></trkpt><trkpt lat="43.18018" lon="11.6755883"><ele>462.0</ele><time>2026-04-05T10:25:28Z</time></trkpt><trkpt lat="43.1800517" lon="11.67548"><ele>462.0</ele><time>2026-04-05T10:25:29Z</time></trkpt><trkpt lat="43.1799467" lon="11.6753367"><ele>462.0</ele><time>2026-04-05T10:25:30Z</time></trkpt><trkpt lat="43.1798367" lon="11.6751783"><ele>462.0</ele><time>2026-04-05T10:25:31Z</time></trkpt><trkpt lat="43.1797317" lon="11.6750183"><ele>467.33333333333337</ele><time>2026-04-05T10:25:32Z</time></trkpt><trkpt lat="43.1796283" lon="11.6748517"><ele>472.6666666666667</ele><time>2026-04-05T10:25:33Z</time></trkpt><trkpt lat="43.17954" lon="11.6746733"><ele>478.0</ele><time>2026-04-05T10:25:34Z</time></trkpt><trkpt lat="43.179465" lon="11.6744783"><ele>477.0</ele><time>2026-04-05T10:25:35Z</time></trkpt><trkpt lat="43.1794067" lon="11.674275"><ele>476.0</ele><time>2026-04-05T10:25:36Z</time></trkpt><trkpt lat="43.179355" lon="11.6740617"><ele>475.0</ele><time>2026-04-05T10:25:37Z</time></trkpt><trkpt lat="43.1793183" lon="11.6738533"><ele>475.0</ele><time>2026-04-05T10:25:38Z</time></trkpt><trkpt lat="43.1792833" lon="11.6736417"><ele>475.0</ele><time>2026-04-05T10:25:39Z</time></trkpt><trkpt lat="43.1792417" lon="11.6734333"><ele>475.0</ele><time>2026-04-05T10:25:40Z</time></trkpt><trkpt lat="43.179195" lon="11.6732367"><ele>473.6666666666667</ele><time>2026-04-05T10:25:41Z</time></trkpt><trkpt lat="43.1791483" lon="11.6730433"><ele>472.33333333333337</ele><time>2026-04-05T10:25:42Z</time></trkpt><trkpt lat="43.1790833" lon="11.6728533"><ele>471.0</ele><time>2026-04-05T10:25:43Z</time></trkpt><trkpt lat="43.179005" lon="11.6726733"><ele>474.33333333333337</ele><time>2026-04-05T10:25:44Z</time></trkpt><trkpt lat="43.1788967" lon="11.672505"><ele>477.6666666666667</ele><time>2026-04-05T10:25:45Z</time></trkpt><trkpt lat="43.1787833" lon="11.6723517"><ele>481.0</ele><time>2026-04-05T10:25:46Z</time></trkpt><trkpt lat="43.1786583" lon="11.6722033"><ele>481.0</ele><time>2026-04-05T10:25:47Z</time></trkpt><trkpt lat="43.1785283" lon="11.67206"><ele>481.0</ele><time>2026-04-05T10:25:48Z</time></trkpt><trkpt lat="43.178395" lon="11.671915"><ele>481.0</ele><time>2026-04-05T10:25:49Z</time></trkpt><trkpt lat="43.1782667" lon="11.6717783"><ele>480.6666666666667</ele><time>2026-04-05T10:25:50Z</time></trkpt><trkpt lat="43.1781367" lon="11.6716483"><ele>480.33333333333337</ele><time>2026-04-05T10:25:51Z</time></trkpt><trkpt lat="43.1780133" lon="11.6715117"><ele>480.0</ele><time>2026-04-05T10:25:52Z</time></trkpt><trkpt lat="43.177905" lon="11.671365"><ele>480.0</ele><time>2026-04-05T10:25:53Z</time></trkpt><trkpt lat="43.177805" lon="11.671205"><ele>480.0</ele><time>2026-04-05T10:25:54Z</time></trkpt><trkpt lat="43.1777183" lon="11.6710267"><ele>480.0</ele><time>2026-04-05T10:25:55Z</time></trkpt><trkpt lat="43.1776383" lon="11.6708467"><ele>478.33333333333337</ele><time>2026-04-05T10:25:56Z</time></trkpt><trkpt lat="43.1775617" lon="11.6706583"><ele>476.6666666666667</ele><time>2026-04-05T10:25:57Z</time></trkpt><trkpt lat="43.1774883" lon="11.6704767"><ele>475.0</ele><time>2026-04-05T10:25:58Z</time></trkpt><trkpt lat="43.1774083" lon="11.6703067"><ele>476.5</ele><time>2026-04-05T10:25:59Z</time></trkpt><trkpt lat="43.1773217" lon="11.6701533"><ele>478.0</ele><time>2026-04-05T10:26:00Z</time></trkpt><trkpt lat="43.17723" lon="11.67"><ele>479.5</ele><time>2026-04-05T10:26:01Z</time></trkpt><trkpt lat="43.1771333" lon="11.6698383"><ele>481.0</ele><time>2026-04-05T10:26:02Z</time></trkpt><trkpt lat="43.1770517" lon="11.66967"><ele>481.0</ele><time>2026-04-05T10:26:03Z</time></trkpt><trkpt lat="43.1769783" lon="11.6694717"><ele>481.0</ele><time>2026-04-05T10:26:04Z</time></trkpt><trkpt lat="43.176935" lon="11.669265"><ele>481.0</ele><time>2026-04-05T10:26:05Z</time></trkpt><trkpt lat="43.1769183" lon="11.6690583"><ele>479.5</ele><time>2026-04-05T10:26:06Z</time></trkpt><trkpt lat="43.1769217" lon="11.66885"><ele>478.0</ele><time>2026-04-05T10:26:07Z</time></trkpt><trkpt lat="43.176935" lon="11.6686433"><ele>476.5</ele><time>2026-04-05T10:26:08Z</time></trkpt><trkpt lat="43.176935" lon="11.6684483"><ele>475.0</ele><time>2026-04-05T10:26:09Z</time></trkpt><trkpt lat="43.1769117" lon="11.6682567"><ele>474.0</ele><time>2026-04-05T10:26:10Z</time></trkpt><trkpt lat="43.1768567" lon="11.6680917"><ele>473.0</ele><time>2026-04-05T10:26:11Z</time></trkpt><trkpt lat="43.1767783" lon="11.6679317"><ele>472.0</ele><time>2026-04-05T10:26:12Z</time></trkpt><trkpt lat="43.1766933" lon="11.6677533"><ele>471.0</ele><time>2026-04-05T10:26:13Z</time></trkpt><trkpt lat="43.176605" lon="11.6675717"><ele>469.33333333333337</ele><time>2026-04-05T10:26:14Z</time></trkpt><trkpt lat="43.1765217" lon="11.6673883"><ele>467.6666666666667</ele><time>2026-04-05T10:26:15Z</time></trkpt><trkpt lat="43.1764467" lon="11.66719"><ele>466.0</ele><time>2026-04-05T10:26:16Z</time></trkpt><trkpt lat="43.1763633" lon="11.6669983"><ele>461.33333333333337</ele><time>2026-04-05T10:26:17Z</time></trkpt><trkpt lat="43.17629" lon="11.66682"><ele>456.66666666666663</ele><time>2026-04-05T10:26:18Z</time></trkpt><trkpt lat="43.1761983" lon="11.6666367"><ele>452.0</ele><time>2026-04-05T10:26:19Z</time></trkpt><trkpt lat="43.1761" lon="11.6664567"><ele>452.0</ele><time>2026-04-05T10:26:20Z</time></trkpt><trkpt lat="43.176" lon="11.6662883"><ele>452.0</ele><time>2026-04-05T10:26:21Z</time></trkpt><trkpt lat="43.175885" lon="11.6661233"><ele>452.0</ele><time>2026-04-05T10:26:22Z</time></trkpt><trkpt lat="43.175775" lon="11.6659667"><ele>448.0</ele><time>2026-04-05T10:26:23Z</time></trkpt><trkpt lat="43.17568" lon="11.6658183"><ele>444.0</ele><time>2026-04-05T10:26:24Z</time></trkpt><trkpt lat="43.17559" lon="11.6656883"><ele>440.0</ele><time>2026-04-05T10:26:25Z</time></trkpt><trkpt lat="43.1755017" lon="11.6655733"><ele>436.0</ele><time>2026-04-05T10:26:26Z</time></trkpt><trkpt lat="43.1754167" lon="11.6654733"><ele>436.0</ele><time>2026-04-05T10:26:27Z</time></trkpt><trkpt lat="43.175315" lon="11.665415"><ele>436.0</ele><time>2026-04-05T10:26:28Z</time></trkpt><trkpt lat="43.175205" lon="11.6654"><ele>436.0</ele><time>2026-04-05T10:26:29Z</time></trkpt><trkpt lat="43.1750933" lon="11.6654317"><ele>436.0</ele><time>2026-04-05T10:26:30Z</time></trkpt><trkpt lat="43.1749933" lon="11.6655017"><ele>436.0</ele><time>2026-04-05T10:26:31Z</time></trkpt><trkpt lat="43.1749117" lon="11.6656117"><ele>436.0</ele><time>2026-04-05T10:26:32Z</time></trkpt><trkpt lat="43.174855" lon="11.66575"><ele>436.0</ele><time>2026-04-05T10:26:33Z</time></trkpt><trkpt lat="43.1748133" lon="11.6659"><ele>436.0</ele><time>2026-04-05T10:26:34Z</time></trkpt><trkpt lat="43.1747767" lon="11.6660533"><ele>436.0</ele><time>2026-04-05T10:26:35Z</time></trkpt><trkpt lat="43.17474" lon="11.6662183"><ele>435.20000000000005</ele><time>2026-04-05T10:26:36Z</time></trkpt><trkpt lat="43.174695" lon="11.6663717"><ele>434.40000000000003</ele><time>2026-04-05T10:26:37Z</time></trkpt><trkpt lat="43.1746333" lon="11.6664983"><ele>433.6</ele><time>2026-04-05T10:26:38Z</time></trkpt><trkpt lat="43.1745467" lon="11.6665817"><ele>432.8</ele><time>2026-04-05T10:26:39Z</time></trkpt><trkpt lat="43.1744417" lon="11.66662"><ele>432.0</ele><time>2026-04-05T10:26:40Z</time></trkpt><trkpt lat="43.1743233" lon="11.666595"><ele>432.0</ele><time>2026-04-05T10:26:41Z</time></trkpt><trkpt lat="43.174215" lon="11.6665017"><ele>432.0</ele><time>2026-04-05T10:26:42Z</time></trkpt><trkpt lat="43.17411" lon="11.6663883"><ele>432.0</ele><time>2026-04-05T10:26:43Z</time></trkpt><trkpt lat="43.1740033" lon="11.6662733"><ele>432.0</ele><time>2026-04-05T10:26:44Z</time></trkpt><trkpt lat="43.1738817" lon="11.6661833"><ele>427.5</ele><time>2026-04-05T10:26:45Z</time></trkpt><trkpt lat="43.1737583" lon="11.66611"><ele>423.0</ele><time>2026-04-05T10:26:46Z</time></trkpt><trkpt lat="43.1736367" lon="11.6660517"><ele>418.5</ele><time>2026-04-05T10:26:47Z</time></trkpt><trkpt lat="43.173525" lon="11.6659933"><ele>414.0</ele><time>2026-04-05T10:26:48Z</time></trkpt><trkpt lat="43.17341" lon="11.6659317"><ele>414.0</ele><time>2026-04-05T10:26:49Z</time></trkpt><trkpt lat="43.173285" lon="11.665885"><ele>414.0</ele><time>2026-04-05T10:26:50Z</time></trkpt><trkpt lat="43.17316" lon="11.665865"><ele>414.0</ele><time>2026-04-05T10:26:51Z</time></trkpt><trkpt lat="43.1730283" lon="11.6658467"><ele>414.0</ele><time>2026-04-05T10:26:52Z</time></trkpt><trkpt lat="43.1728867" lon="11.665855"><ele>412.75</ele><time>2026-04-05T10:26:53Z</time></trkpt><trkpt lat="43.1727483" lon="11.6658717"><ele>411.5</ele><time>2026-04-05T10:26:54Z</time></trkpt><trkpt lat="43.1726017" lon="11.6658967"><ele>410.25</ele><time>2026-04-05T10:26:55Z</time></trkpt><trkpt lat="43.1724617" lon="11.6659117"><ele>409.0</ele><time>2026-04-05T10:26:56Z</time></trkpt><trkpt lat="43.1723217" lon="11.665925"><ele>408.5</ele><time>2026-04-05T10:26:57Z</time></trkpt><trkpt lat="43.1721983" lon="11.665945"><ele>408.0</ele><time>2026-04-05T10:26:58Z</time></trkpt><trkpt lat="43.17208" lon="11.6660067"><ele>407.5</ele><time>2026-04-05T10:26:59Z</time></trkpt><trkpt lat="43.171975" lon="11.666105"><ele>407.0</ele><time>2026-04-05T10:27:00Z</time></trkpt><trkpt lat="43.1718817" lon="11.66622"><ele>407.0</ele><time>2026-04-05T10:27:01Z</time></trkpt><trkpt lat="43.171805" lon="11.6663517"><ele>407.0</ele><time>2026-04-05T10:27:02Z</time></trkpt><trkpt lat="43.1717217" lon="11.666475"><ele>407.0</ele><time>2026-04-05T10:27:03Z</time></trkpt><trkpt lat="43.1716217" lon="11.6665783"><ele>407.0</ele><time>2026-04-05T10:27:04Z</time></trkpt><trkpt lat="43.1715133" lon="11.66665"><ele>406.0</ele><time>2026-04-05T10:27:05Z</time></trkpt><trkpt lat="43.1713983" lon="11.6666667"><ele>405.0</ele><time>2026-04-05T10:27:06Z</time></trkpt><trkpt lat="43.1712833" lon="11.6666717"><ele>404.0</ele><time>2026-04-05T10:27:07Z</time></trkpt><trkpt lat="43.171165" lon="11.6666533"><ele>403.0</ele><time>2026-04-05T10:27:08Z</time></trkpt><trkpt lat="43.171045" lon="11.6666317"><ele>403.0</ele><time>2026-04-05T10:27:09Z</time></trkpt><trkpt lat="43.170925" lon="11.6666167"><ele>403.0</ele><time>2026-04-05T10:27:10Z</time></trkpt><trkpt lat="43.1707967" lon="11.66661"><ele>403.0</ele><time>2026-04-05T10:27:11Z</time></trkpt><trkpt lat="43.17067" lon="11.666605"><ele>403.0</ele><time>2026-04-05T10:27:12Z</time></trkpt><trkpt lat="43.17055" lon="11.66659"><ele>405.5</ele><time>2026-04-05T10:27:13Z</time></trkpt><trkpt lat="43.170445" lon="11.6665717"><ele>408.0</ele><time>2026-04-05T10:27:14Z</time></trkpt><trkpt lat="43.1703433" lon="11.666535"><ele>410.5</ele><time>2026-04-05T10:27:15Z</time></trkpt><trkpt lat="43.170235" lon="11.6664833"><ele>413.0</ele><time>2026-04-05T10:27:16Z</time></trkpt><trkpt lat="43.1701167" lon="11.6664283"><ele>413.0</ele><time>2026-04-05T10:27:17Z</time></trkpt><trkpt lat="43.1699933" lon="11.6663683"><ele>413.0</ele><time>2026-04-05T10:27:18Z</time></trkpt><trkpt lat="43.1698567" lon="11.6663083"><ele>413.0</ele><time>2026-04-05T10:27:19Z</time></trkpt><trkpt lat="43.169715" lon="11.6662483"><ele>413.0</ele><time>2026-04-05T10:27:20Z</time></trkpt><trkpt lat="43.16957" lon="11.6661767"><ele>412.3333333333333</ele><time>2026-04-05T10:27:21Z</time></trkpt><trkpt lat="43.1694217" lon="11.6661033"><ele>411.66666666666663</ele><time>2026-04-05T10:27:22Z</time></trkpt><trkpt lat="43.1692717" lon="11.6660367"><ele>411.0</ele><time>2026-04-05T10:27:23Z</time></trkpt><trkpt lat="43.1691283" lon="11.665975"><ele>413.25</ele><time>2026-04-05T10:27:24Z</time></trkpt><trkpt lat="43.1689917" lon="11.6659067"><ele>415.5</ele><time>2026-04-05T10:27:25Z</time></trkpt><trkpt lat="43.1688567" lon="11.6658467"><ele>417.75</ele><time>2026-04-05T10:27:26Z</time></trkpt><trkpt lat="43.1687267" lon="11.6657783"><ele>420.0</ele><time>2026-04-05T10:27:27Z</time></trkpt><trkpt lat="43.1686067" lon="11.6657017"><ele>420.0</ele><time>2026-04-05T10:27:28Z</time></trkpt><trkpt lat="43.1684933" lon="11.6655867"><ele>420.0</ele><time>2026-04-05T10:27:29Z</time></trkpt><trkpt lat="43.168395" lon="11.6654483"><ele>420.0</ele><time>2026-04-05T10:27:30Z</time></trkpt><trkpt lat="43.1683183" lon="11.6652667"><ele>420.0</ele><time>2026-04-05T10:27:31Z</time></trkpt><trkpt lat="43.1682483" lon="11.6650733"><ele>425.0</ele><time>2026-04-05T10:27:32Z</time></trkpt><trkpt lat="43.1681733" lon="11.6648767"><ele>430.0</ele><time>2026-04-05T10:27:33Z</time></trkpt><trkpt lat="43.1681033" lon="11.6646867"><ele>435.0</ele><time>2026-04-05T10:27:34Z</time></trkpt><trkpt lat="43.1680267" lon="11.6645017"><ele>434.0</ele><time>2026-04-05T10:27:35Z</time></trkpt><trkpt lat="43.1679517" lon="11.6643233"><ele>433.0</ele><time>2026-04-05T10:27:36Z</time></trkpt><trkpt lat="43.1678633" lon="11.6641533"><ele>432.0</ele><time>2026-04-05T10:27:37Z</time></trkpt><trkpt lat="43.1677767" lon="11.6639783"><ele>432.0</ele><time>2026-04-05T10:27:38Z</time></trkpt><trkpt lat="43.1676783" lon="11.6638083"><ele>432.0</ele><time>2026-04-05T10:27:39Z</time></trkpt><trkpt lat="43.1675817" lon="11.663635"><ele>432.0</ele><time>2026-04-05T10:27:40Z</time></trkpt><trkpt lat="43.167485" lon="11.6634617"><ele>429.33333333333337</ele><time>2026-04-05T10:27:41Z</time></trkpt><trkpt lat="43.167385" lon="11.663285"><ele>426.6666666666667</ele><time>2026-04-05T10:27:42Z</time></trkpt><trkpt lat="43.1672917" lon="11.6631067"><ele>424.0</ele><time>2026-04-05T10:27:43Z</time></trkpt><trkpt lat="43.1671917" lon="11.6629367"><ele>426.25</ele><time>2026-04-05T10:27:44Z</time></trkpt><trkpt lat="43.1671017" lon="11.6627633"><ele>428.5</ele><time>2026-04-05T10:27:45Z</time></trkpt><trkpt lat="43.1670117" lon="11.6626"><ele>430.75</ele><time>2026-04-05T10:27:46Z</time></trkpt><trkpt lat="43.1669383" lon="11.6624367"><ele>433.0</ele><time>2026-04-05T10:27:47Z</time></trkpt><trkpt lat="43.1668767" lon="11.6622667"><ele>433.0</ele><time>2026-04-05T10:27:48Z</time></trkpt><trkpt lat="43.16684" lon="11.662085"><ele>433.0</ele><time>2026-04-05T10:27:49Z</time></trkpt><trkpt lat="43.1668283" lon="11.6618883"><ele>433.0</ele><time>2026-04-05T10:27:50Z</time></trkpt><trkpt lat="43.1668417" lon="11.661685"><ele>433.0</ele><time>2026-04-05T10:27:51Z</time></trkpt><trkpt lat="43.1668667" lon="11.6614733"><ele>433.0</ele><time>2026-04-05T10:27:52Z</time></trkpt><trkpt lat="43.1668933" lon="11.6612617"><ele>433.0</ele><time>2026-04-05T10:27:53Z</time></trkpt><trkpt lat="43.1669067" lon="11.6610617"><ele>433.0</ele><time>2026-04-05T10:27:54Z</time></trkpt><trkpt lat="43.1669133" lon="11.660875"><ele>433.0</ele><time>2026-04-05T10:27:55Z</time></trkpt><trkpt lat="43.1669017" lon="11.66069"><ele>433.0</ele><time>2026-04-05T10:27:56Z</time></trkpt><trkpt lat="43.1668467" lon="11.6605117"><ele>433.0</ele><time>2026-04-05T10:27:57Z</time></trkpt><trkpt lat="43.166785" lon="11.660345"><ele>433.0</ele><time>2026-04-05T10:27:58Z</time></trkpt><trkpt lat="43.1667067" lon="11.660175"><ele>433.0</ele><time>2026-04-05T10:27:59Z</time></trkpt><trkpt lat="43.1666217" lon="11.6599967"><ele>434.33333333333337</ele><time>2026-04-05T10:28:00Z</time></trkpt><trkpt lat="43.166535" lon="11.6598133"><ele>435.66666666666663</ele><time>2026-04-05T10:28:01Z</time></trkpt><trkpt lat="43.1664517" lon="11.659625"><ele>437.0</ele><time>2026-04-05T10:28:02Z</time></trkpt><trkpt lat="43.16636" lon="11.6594333"><ele>434.3333333333333</ele><time>2026-04-05T10:28:03Z</time></trkpt><trkpt lat="43.166265" lon="11.6592417"><ele>431.66666666666663</ele><time>2026-04-05T10:28:04Z</time></trkpt><trkpt lat="43.166175" lon="11.65906"><ele>429.0</ele><time>2026-04-05T10:28:05Z</time></trkpt><trkpt lat="43.1660683" lon="11.658895"><ele>429.0</ele><time>2026-04-05T10:28:06Z</time></trkpt><trkpt lat="43.1659433" lon="11.6587467"><ele>429.0</ele><time>2026-04-05T10:28:07Z</time></trkpt><trkpt lat="43.1658233" lon="11.6586083"><ele>429.0</ele><time>2026-04-05T10:28:08Z</time></trkpt><trkpt lat="43.1656967" lon="11.6584833"><ele>427.75</ele><time>2026-04-05T10:28:09Z</time></trkpt><trkpt lat="43.1655783" lon="11.6583683"><ele>426.5</ele><time>2026-04-05T10:28:10Z</time></trkpt><trkpt lat="43.1654533" lon="11.65828"><ele>425.25</ele><time>2026-04-05T10:28:11Z</time></trkpt><trkpt lat="43.1653183" lon="11.6582233"><ele>424.0</ele><time>2026-04-05T10:28:12Z</time></trkpt><trkpt lat="43.1651683" lon="11.6582017"><ele>424.0</ele><time>2026-04-05T10:28:13Z</time></trkpt><trkpt lat="43.1650167" lon="11.6581867"><ele>424.0</ele><time>2026-04-05T10:28:14Z</time></trkpt><trkpt lat="43.1648617" lon="11.6581767"><ele>424.0</ele><time>2026-04-05T10:28:15Z</time></trkpt><trkpt lat="43.1647033" lon="11.6581683"><ele>425.33333333333337</ele><time>2026-04-05T10:28:16Z</time></trkpt><trkpt lat="43.1645483" lon="11.6581567"><ele>426.66666666666663</ele><time>2026-04-05T10:28:17Z</time></trkpt><trkpt lat="43.16439" lon="11.6581483"><ele>428.0</ele><time>2026-04-05T10:28:18Z</time></trkpt><trkpt lat="43.1642283" lon="11.6581383"><ele>428.0</ele><time>2026-04-05T10:28:19Z</time></trkpt><trkpt lat="43.1640633" lon="11.6581267"><ele>428.0</ele><time>2026-04-05T10:28:20Z</time></trkpt><trkpt lat="43.1639033" lon="11.658115"><ele>428.0</ele><time>2026-04-05T10:28:21Z</time></trkpt><trkpt lat="43.163755" lon="11.658105"><ele>427.25</ele><time>2026-04-05T10:28:22Z</time></trkpt><trkpt lat="43.163615" lon="11.6581017"><ele>426.5</ele><time>2026-04-05T10:28:23Z</time></trkpt><trkpt lat="43.1634817" lon="11.6581117"><ele>425.75</ele><time>2026-04-05T10:28:24Z</time></trkpt><trkpt lat="43.1633517" lon="11.6581433"><ele>425.0</ele><time>2026-04-05T10:28:25Z</time></trkpt><trkpt lat="43.1632267" lon="11.6581983"><ele>422.0</ele><time>2026-04-05T10:28:26Z</time></trkpt><trkpt lat="43.1631117" lon="11.6582767"><ele>419.0</ele><time>2026-04-05T10:28:27Z</time></trkpt><trkpt lat="43.16301" lon="11.658365"><ele>416.0</ele><time>2026-04-05T10:28:28Z</time></trkpt><trkpt lat="43.1629133" lon="11.65847"><ele>413.0</ele><time>2026-04-05T10:28:29Z</time></trkpt><trkpt lat="43.1628217" lon="11.6585817"><ele>417.0</ele><time>2026-04-05T10:28:30Z</time></trkpt><trkpt lat="43.16274" lon="11.658695"><ele>421.0</ele><time>2026-04-05T10:28:31Z</time></trkpt><trkpt lat="43.16267" lon="11.6587917"><ele>424.99999999999994</ele><time>2026-04-05T10:28:32Z</time></trkpt><trkpt lat="43.1625867" lon="11.6588517"><ele>429.0</ele><time>2026-04-05T10:28:33Z</time></trkpt><trkpt lat="43.162485" lon="11.65886"><ele>433.0</ele><time>2026-04-05T10:28:34Z</time></trkpt><trkpt lat="43.1623883" lon="11.6588283"><ele>432.5</ele><time>2026-04-05T10:28:35Z</time></trkpt><trkpt lat="43.1623083" lon="11.658755"><ele>432.0</ele><time>2026-04-05T10:28:36Z</time></trkpt><trkpt lat="43.1622367" lon="11.6586217"><ele>431.5</ele><time>2026-04-05T10:28:37Z</time></trkpt><trkpt lat="43.1621833" lon="11.6584617"><ele>431.0</ele><time>2026-04-05T10:28:38Z</time></trkpt><trkpt lat="43.16213" lon="11.6582867"><ele>431.0</ele><time>2026-04-05T10:28:39Z</time></trkpt><trkpt lat="43.1620833" lon="11.6581117"><ele>431.0</ele><time>2026-04-05T10:28:40Z</time></trkpt><trkpt lat="43.1620217" lon="11.6579283"><ele>431.0</ele><time>2026-04-05T10:28:41Z</time></trkpt><trkpt lat="43.1619633" lon="11.6577633"><ele>431.0</ele><time>2026-04-05T10:28:42Z</time></trkpt><trkpt lat="43.16189" lon="11.657605"><ele>426.5</ele><time>2026-04-05T10:28:43Z</time></trkpt><trkpt lat="43.161815" lon="11.6574433"><ele>422.0</ele><time>2026-04-05T10:28:44Z</time></trkpt><trkpt lat="43.16173" lon="11.6572867"><ele>417.5</ele><time>2026-04-05T10:28:45Z</time></trkpt><trkpt lat="43.161645" lon="11.657145"><ele>413.0</ele><time>2026-04-05T10:28:46Z</time></trkpt><trkpt lat="43.16156" lon="11.657"><ele>409.5</ele><time>2026-04-05T10:28:47Z</time></trkpt><trkpt lat="43.1614633" lon="11.6568817"><ele>406.0</ele><time>2026-04-05T10:28:48Z</time></trkpt><trkpt lat="43.1613583" lon="11.6567967"><ele>402.5</ele><time>2026-04-05T10:28:49Z</time></trkpt><trkpt lat="43.1612467" lon="11.6567533"><ele>399.0</ele><time>2026-04-05T10:28:50Z</time></trkpt><trkpt lat="43.1611283" lon="11.65675"><ele>399.0</ele><time>2026-04-05T10:28:51Z</time></trkpt><trkpt lat="43.1610133" lon="11.6567667"><ele>399.0</ele><time>2026-04-05T10:28:52Z</time></trkpt><trkpt lat="43.1609" lon="11.656795"><ele>399.0</ele><time>2026-04-05T10:28:53Z</time></trkpt><trkpt lat="43.16079" lon="11.6568267"><ele>399.0</ele><time>2026-04-05T10:28:54Z</time></trkpt><trkpt lat="43.1606783" lon="11.656845"><ele>399.0</ele><time>2026-04-05T10:28:55Z</time></trkpt><trkpt lat="43.1605633" lon="11.656835"><ele>399.0</ele><time>2026-04-05T10:28:56Z</time></trkpt><trkpt lat="43.1604583" lon="11.65681"><ele>399.0</ele><time>2026-04-05T10:28:57Z</time></trkpt><trkpt lat="43.16035" lon="11.6567867"><ele>399.0</ele><time>2026-04-05T10:28:58Z</time></trkpt><trkpt lat="43.1602417" lon="11.6567717"><ele>399.0</ele><time>2026-04-05T10:28:59Z</time></trkpt><trkpt lat="43.16014" lon="11.656745"><ele>399.0</ele><time>2026-04-05T10:29:00Z</time></trkpt><trkpt lat="43.1600433" lon="11.6567267"><ele>399.0</ele><time>2026-04-05T10:29:01Z</time></trkpt><trkpt lat="43.15994" lon="11.6567117"><ele>399.0</ele><time>2026-04-05T10:29:02Z</time></trkpt><trkpt lat="43.1598433" lon="11.6566817"><ele>399.0</ele><time>2026-04-05T10:29:03Z</time></trkpt><trkpt lat="43.15975" lon="11.6566533"><ele>399.0</ele><time>2026-04-05T10:29:04Z</time></trkpt><trkpt lat="43.15966" lon="11.6565983"><ele>398.2</ele><time>2026-04-05T10:29:05Z</time></trkpt><trkpt lat="43.1595683" lon="11.656545"><ele>397.4</ele><time>2026-04-05T10:29:06Z</time></trkpt><trkpt lat="43.1594767" lon="11.6564983"><ele>396.6</ele><time>2026-04-05T10:29:07Z</time></trkpt><trkpt lat="43.1593867" lon="11.6564317"><ele>395.8</ele><time>2026-04-05T10:29:08Z</time></trkpt><trkpt lat="43.15929" lon="11.6563583"><ele>395.0</ele><time>2026-04-05T10:29:09Z</time></trkpt><trkpt lat="43.1591817" lon="11.6562667"><ele>395.0</ele><time>2026-04-05T10:29:10Z</time></trkpt><trkpt lat="43.1590683" lon="11.6561667"><ele>395.0</ele><time>2026-04-05T10:29:11Z</time></trkpt><trkpt lat="43.1589633" lon="11.656065"><ele>395.0</ele><time>2026-04-05T10:29:12Z</time></trkpt><trkpt lat="43.158845" lon="11.6559533"><ele>395.0</ele><time>2026-04-05T10:29:13Z</time></trkpt><trkpt lat="43.1587267" lon="11.65583"><ele>392.3333333333333</ele><time>2026-04-05T10:29:14Z</time></trkpt><trkpt lat="43.15861" lon="11.6557033"><ele>389.66666666666663</ele><time>2026-04-05T10:29:15Z</time></trkpt><trkpt lat="43.1584917" lon="11.6555767"><ele>387.0</ele><time>2026-04-05T10:29:16Z</time></trkpt><trkpt lat="43.1583667" lon="11.6554533"><ele>387.0</ele><time>2026-04-05T10:29:17Z</time></trkpt><trkpt lat="43.1582417" lon="11.6553333"><ele>387.0</ele><time>2026-04-05T10:29:18Z</time></trkpt><trkpt lat="43.1581133" lon="11.655235"><ele>387.0</ele><time>2026-04-05T10:29:19Z</time></trkpt><trkpt lat="43.157975" lon="11.6551517"><ele>388.33333333333337</ele><time>2026-04-05T10:29:20Z</time></trkpt><trkpt lat="43.1578383" lon="11.6550767"><ele>389.6666666666667</ele><time>2026-04-05T10:29:21Z</time></trkpt><trkpt lat="43.1576983" lon="11.6550017"><ele>391.0</ele><time>2026-04-05T10:29:22Z</time></trkpt><trkpt lat="43.157555" lon="11.6549317"><ele>391.0</ele><time>2026-04-05T10:29:23Z</time></trkpt><trkpt lat="43.1574117" lon="11.6548617"><ele>391.0</ele><time>2026-04-05T10:29:24Z</time></trkpt><trkpt lat="43.1572783" lon="11.6547783"><ele>391.0</ele><time>2026-04-05T10:29:25Z</time></trkpt><trkpt lat="43.1571317" lon="11.6547083"><ele>392.0</ele><time>2026-04-05T10:29:26Z</time></trkpt><trkpt lat="43.1569967" lon="11.65462"><ele>393.0</ele><time>2026-04-05T10:29:27Z</time></trkpt><trkpt lat="43.1568783" lon="11.6545133"><ele>394.0</ele><time>2026-04-05T10:29:28Z</time></trkpt><trkpt lat="43.1567633" lon="11.6543917"><ele>395.0</ele><time>2026-04-05T10:29:29Z</time></trkpt><trkpt lat="43.1566583" lon="11.654245"><ele>395.0</ele><time>2026-04-05T10:29:30Z</time></trkpt><trkpt lat="43.1565683" lon="11.65408"><ele>395.0</ele><time>2026-04-05T10:29:31Z</time></trkpt><trkpt lat="43.1564683" lon="11.65391"><ele>395.0</ele><time>2026-04-05T10:29:32Z</time></trkpt><trkpt lat="43.15637" lon="11.6537433"><ele>390.0</ele><time>2026-04-05T10:29:33Z</time></trkpt><trkpt lat="43.1562817" lon="11.6535717"><ele>385.0</ele><time>2026-04-05T10:29:34Z</time></trkpt><trkpt lat="43.1561967" lon="11.6534"><ele>380.0</ele><time>2026-04-05T10:29:35Z</time></trkpt><trkpt lat="43.1561" lon="11.6532317"><ele>380.0</ele><time>2026-04-05T10:29:36Z</time></trkpt><trkpt lat="43.1560033" lon="11.6530667"><ele>380.0</ele><time>2026-04-05T10:29:37Z</time></trkpt><trkpt lat="43.1559017" lon="11.6529033"><ele>380.0</ele><time>2026-04-05T10:29:38Z</time></trkpt><trkpt lat="43.155805" lon="11.6527417"><ele>378.6666666666667</ele><time>2026-04-05T10:29:39Z</time></trkpt><trkpt lat="43.1557167" lon="11.6525717"><ele>377.3333333333333</ele><time>2026-04-05T10:29:40Z</time></trkpt><trkpt lat="43.1556233" lon="11.652405"><ele>376.0</ele><time>2026-04-05T10:29:41Z</time></trkpt><trkpt lat="43.1555317" lon="11.6522417"><ele>376.0</ele><time>2026-04-05T10:29:42Z</time></trkpt><trkpt lat="43.1554367" lon="11.6520767"><ele>376.0</ele><time>2026-04-05T10:29:43Z</time></trkpt><trkpt lat="43.1553433" lon="11.6519183"><ele>376.0</ele><time>2026-04-05T10:29:44Z</time></trkpt><trkpt lat="43.15525" lon="11.651765"><ele>376.0</ele><time>2026-04-05T10:29:45Z</time></trkpt><trkpt lat="43.15516" lon="11.651605"><ele>377.0</ele><time>2026-04-05T10:29:46Z</time></trkpt><trkpt lat="43.155065" lon="11.6514383"><ele>378.0</ele><time>2026-04-05T10:29:47Z</time></trkpt><trkpt lat="43.1549683" lon="11.6512717"><ele>379.0</ele><time>2026-04-05T10:29:48Z</time></trkpt><trkpt lat="43.15488" lon="11.6511233"><ele>380.0</ele><time>2026-04-05T10:29:49Z</time></trkpt><trkpt lat="43.1548" lon="11.65099"><ele>377.8</ele><time>2026-04-05T10:29:50Z</time></trkpt><trkpt lat="43.1547267" lon="11.6508633"><ele>375.6</ele><time>2026-04-05T10:29:51Z</time></trkpt><trkpt lat="43.154655" lon="11.650745"><ele>373.4</ele><time>2026-04-05T10:29:52Z</time></trkpt><trkpt lat="43.1545883" lon="11.65064"><ele>371.2</ele><time>2026-04-05T10:29:53Z</time></trkpt><trkpt lat="43.1545283" lon="11.6505333"><ele>369.0</ele><time>2026-04-05T10:29:54Z</time></trkpt><trkpt lat="43.1544833" lon="11.650445"><ele>369.0</ele><time>2026-04-05T10:29:55Z</time></trkpt><trkpt lat="43.154435" lon="11.6503833"><ele>369.0</ele><time>2026-04-05T10:29:56Z</time></trkpt><trkpt lat="43.1543433" lon="11.650295"><ele>369.0</ele><time>2026-04-05T10:29:58Z</time></trkpt><trkpt lat="43.15427" lon="11.6502783"><ele>369.0</ele><time>2026-04-05T10:30:00Z</time></trkpt><trkpt lat="43.1541883" lon="11.650285"><ele>369.0</ele><time>2026-04-05T10:30:03Z</time></trkpt><trkpt lat="43.154085" lon="11.650325"><ele>369.0</ele><time>2026-04-05T10:30:05Z</time></trkpt><trkpt lat="43.1539633" lon="11.650355"><ele>368.4</ele><time>2026-04-05T10:30:07Z</time></trkpt><trkpt lat="43.1538867" lon="11.6503517"><ele>367.79999999999995</ele><time>2026-04-05T10:30:08Z</time></trkpt><trkpt lat="43.1537967" lon="11.6503467"><ele>367.20000000000005</ele><time>2026-04-05T10:30:09Z</time></trkpt><trkpt lat="43.1537067" lon="11.6503483"><ele>366.6</ele><time>2026-04-05T10:30:10Z</time></trkpt><trkpt lat="43.1536067" lon="11.6503467"><ele>366.0</ele><time>2026-04-05T10:30:11Z</time></trkpt><trkpt lat="43.1535067" lon="11.6503467"><ele>366.0</ele><time>2026-04-05T10:30:12Z</time></trkpt><trkpt lat="43.1533967" lon="11.6503317"><ele>366.0</ele><time>2026-04-05T10:30:13Z</time></trkpt><trkpt lat="43.15328" lon="11.650315"><ele>366.0</ele><time>2026-04-05T10:30:14Z</time></trkpt><trkpt lat="43.153165" lon="11.6502917"><ele>366.0</ele><time>2026-04-05T10:30:15Z</time></trkpt><trkpt lat="43.1530567" lon="11.6502733"><ele>364.0</ele><time>2026-04-05T10:30:16Z</time></trkpt><trkpt lat="43.15295" lon="11.6502417"><ele>362.0</ele><time>2026-04-05T10:30:17Z</time></trkpt><trkpt lat="43.1528433" lon="11.65019"><ele>360.0</ele><time>2026-04-05T10:30:18Z</time></trkpt><trkpt lat="43.152735" lon="11.6501217"><ele>358.0</ele><time>2026-04-05T10:30:19Z</time></trkpt><trkpt lat="43.1526283" lon="11.6500517"><ele>358.0</ele><time>2026-04-05T10:30:20Z</time></trkpt><trkpt lat="43.1525333" lon="11.6499683"><ele>358.0</ele><time>2026-04-05T10:30:21Z</time></trkpt><trkpt lat="43.15245" lon="11.6498483"><ele>358.0</ele><time>2026-04-05T10:30:22Z</time></trkpt><trkpt lat="43.1523617" lon="11.6497183"><ele>358.0</ele><time>2026-04-05T10:30:23Z</time></trkpt><trkpt lat="43.15228" lon="11.6495683"><ele>352.5</ele><time>2026-04-05T10:30:24Z</time></trkpt><trkpt lat="43.152205" lon="11.649435"><ele>347.0</ele><time>2026-04-05T10:30:25Z</time></trkpt><trkpt lat="43.1521233" lon="11.6493217"><ele>341.5</ele><time>2026-04-05T10:30:26Z</time></trkpt><trkpt lat="43.1520267" lon="11.64923"><ele>336.0</ele><time>2026-04-05T10:30:27Z</time></trkpt><trkpt lat="43.1519283" lon="11.64916"><ele>336.0</ele><time>2026-04-05T10:30:28Z</time></trkpt><trkpt lat="43.151825" lon="11.6491217"><ele>336.0</ele><time>2026-04-05T10:30:29Z</time></trkpt><trkpt lat="43.15171" lon="11.6491117"><ele>336.0</ele><time>2026-04-05T10:30:30Z</time></trkpt><trkpt lat="43.151595" lon="11.649155"><ele>336.0</ele><time>2026-04-05T10:30:31Z</time></trkpt><trkpt lat="43.1514833" lon="11.6492333"><ele>333.5</ele><time>2026-04-05T10:30:31.999Z</time></trkpt><trkpt lat="43.1513933" lon="11.6493417"><ele>331.0</ele><time>2026-04-05T10:30:33Z</time></trkpt><trkpt lat="43.151315" lon="11.649485"><ele>328.5</ele><time>2026-04-05T10:30:34Z</time></trkpt><trkpt lat="43.1512383" lon="11.6496483"><ele>326.0</ele><time>2026-04-05T10:30:35Z</time></trkpt><trkpt lat="43.151155" lon="11.64981"><ele>326.0</ele><time>2026-04-05T10:30:36Z</time></trkpt><trkpt lat="43.1510667" lon="11.64996"><ele>326.0</ele><time>2026-04-05T10:30:37Z</time></trkpt><trkpt lat="43.1509817" lon="11.6501033"><ele>326.0</ele><time>2026-04-05T10:30:38Z</time></trkpt><trkpt lat="43.1509133" lon="11.65027"><ele>326.0</ele><time>2026-04-05T10:30:39Z</time></trkpt><trkpt lat="43.150855" lon="11.6504533"><ele>327.33333333333337</ele><time>2026-04-05T10:30:40Z</time></trkpt><trkpt lat="43.1508233" lon="11.65066"><ele>328.6666666666667</ele><time>2026-04-05T10:30:41Z</time></trkpt><trkpt lat="43.1508133" lon="11.6508783"><ele>330.0</ele><time>2026-04-05T10:30:42Z</time></trkpt><trkpt lat="43.1508233" lon="11.6510833"><ele>328.3333333333333</ele><time>2026-04-05T10:30:43Z</time></trkpt><trkpt lat="43.1508383" lon="11.6512833"><ele>326.66666666666663</ele><time>2026-04-05T10:30:44Z</time></trkpt><trkpt lat="43.150875" lon="11.6514967"><ele>325.0</ele><time>2026-04-05T10:30:45Z</time></trkpt><trkpt lat="43.1509183" lon="11.6517"><ele>325.0</ele><time>2026-04-05T10:30:46Z</time></trkpt><trkpt lat="43.150955" lon="11.651895"><ele>325.0</ele><time>2026-04-05T10:30:47Z</time></trkpt><trkpt lat="43.1509833" lon="11.65209"><ele>325.0</ele><time>2026-04-05T10:30:48Z</time></trkpt><trkpt lat="43.15099" lon="11.6522933"><ele>325.0</ele><time>2026-04-05T10:30:49Z</time></trkpt><trkpt lat="43.1509683" lon="11.6524867"><ele>324.25</ele><time>2026-04-05T10:30:50Z</time></trkpt><trkpt lat="43.150905" lon="11.6526683"><ele>323.5</ele><time>2026-04-05T10:30:51Z</time></trkpt><trkpt lat="43.1508067" lon="11.6528283"><ele>322.75</ele><time>2026-04-05T10:30:52Z</time></trkpt><trkpt lat="43.1506917" lon="11.6529583"><ele>322.0</ele><time>2026-04-05T10:30:53Z</time></trkpt><trkpt lat="43.1505767" lon="11.6530783"><ele>323.75</ele><time>2026-04-05T10:30:54Z</time></trkpt><trkpt lat="43.1504683" lon="11.6531833"><ele>325.5</ele><time>2026-04-05T10:30:55Z</time></trkpt><trkpt lat="43.1503667" lon="11.6532633"><ele>327.25</ele><time>2026-04-05T10:30:56Z</time></trkpt><trkpt lat="43.15027" lon="11.6532817"><ele>329.0</ele><time>2026-04-05T10:30:57Z</time></trkpt><trkpt lat="43.1501667" lon="11.6532567"><ele>329.0</ele><time>2026-04-05T10:30:58Z</time></trkpt><trkpt lat="43.150075" lon="11.6531667"><ele>329.0</ele><time>2026-04-05T10:30:59Z</time></trkpt><trkpt lat="43.1499867" lon="11.6530833"><ele>329.0</ele><time>2026-04-05T10:31:00Z</time></trkpt><trkpt lat="43.1498967" lon="11.6530617"><ele>329.0</ele><time>2026-04-05T10:31:01Z</time></trkpt><trkpt lat="43.1498167" lon="11.65309"><ele>329.0</ele><time>2026-04-05T10:31:02Z</time></trkpt><trkpt lat="43.149745" lon="11.65316"><ele>333.4</ele><time>2026-04-05T10:31:03Z</time></trkpt><trkpt lat="43.14967" lon="11.653265"><ele>337.79999999999995</ele><time>2026-04-05T10:31:04Z</time></trkpt><trkpt lat="43.149605" lon="11.65336"><ele>342.20000000000005</ele><time>2026-04-05T10:31:05Z</time></trkpt><trkpt lat="43.1495383" lon="11.6534317"><ele>346.6</ele><time>2026-04-05T10:31:06Z</time></trkpt><trkpt lat="43.149445" lon="11.6534383"><ele>351.0</ele><time>2026-04-05T10:31:08Z</time></trkpt><trkpt lat="43.1494367" lon="11.6533067"><ele>351.0</ele><time>2026-04-05T10:31:10Z</time></trkpt><trkpt lat="43.1494583" lon="11.6532233"><ele>351.0</ele><time>2026-04-05T10:31:11Z</time></trkpt><trkpt lat="43.149485" lon="11.65312"><ele>351.0</ele><time>2026-04-05T10:31:12Z</time></trkpt><trkpt lat="43.149505" lon="11.6530033"><ele>351.0</ele><time>2026-04-05T10:31:13Z</time></trkpt><trkpt lat="43.1495067" lon="11.6528767"><ele>351.0</ele><time>2026-04-05T10:31:14Z</time></trkpt><trkpt lat="43.149485" lon="11.652735"><ele>351.0</ele><time>2026-04-05T10:31:15Z</time></trkpt><trkpt lat="43.1494367" lon="11.652585"><ele>351.6</ele><time>2026-04-05T10:31:16Z</time></trkpt><trkpt lat="43.149385" lon="11.6524417"><ele>352.20000000000005</ele><time>2026-04-05T10:31:17Z</time></trkpt><trkpt lat="43.149345" lon="11.652295"><ele>352.79999999999995</ele><time>2026-04-05T10:31:18Z</time></trkpt><trkpt lat="43.1493167" lon="11.6521733"><ele>353.4</ele><time>2026-04-05T10:31:19Z</time></trkpt><trkpt lat="43.1493167" lon="11.652045"><ele>354.0</ele><time>2026-04-05T10:31:20Z</time></trkpt><trkpt lat="43.1492983" lon="11.651935"><ele>354.0</ele><time>2026-04-05T10:31:21Z</time></trkpt><trkpt lat="43.1492283" lon="11.6518183"><ele>354.0</ele><time>2026-04-05T10:31:23Z</time></trkpt><trkpt lat="43.1491283" lon="11.6518883"><ele>354.0</ele><time>2026-04-05T10:31:25Z</time></trkpt><trkpt lat="43.149095" lon="11.65198"><ele>354.0</ele><time>2026-04-05T10:31:26Z</time></trkpt><trkpt lat="43.149085" lon="11.6520917"><ele>354.0</ele><time>2026-04-05T10:31:27Z</time></trkpt><trkpt lat="43.1491" lon="11.65222"><ele>354.6</ele><time>2026-04-05T10:31:28Z</time></trkpt><trkpt lat="43.14912" lon="11.652355"><ele>355.2</ele><time>2026-04-05T10:31:29Z</time></trkpt><trkpt lat="43.1491267" lon="11.65249"><ele>355.8</ele><time>2026-04-05T10:31:30Z</time></trkpt><trkpt lat="43.1491317" lon="11.6526117"><ele>356.40000000000003</ele><time>2026-04-05T10:31:31Z</time></trkpt><trkpt lat="43.1491233" lon="11.65273"><ele>357.0</ele><time>2026-04-05T10:31:32Z</time></trkpt><trkpt lat="43.1490883" lon="11.6528417"><ele>359.20000000000005</ele><time>2026-04-05T10:31:33Z</time></trkpt><trkpt lat="43.1490417" lon="11.6529383"><ele>361.4</ele><time>2026-04-05T10:31:34Z</time></trkpt><trkpt lat="43.1489767" lon="11.653005"><ele>363.6</ele><time>2026-04-05T10:31:35Z</time></trkpt><trkpt lat="43.1488783" lon="11.6530517"><ele>365.79999999999995</ele><time>2026-04-05T10:31:36Z</time></trkpt><trkpt lat="43.1487717" lon="11.6530917"><ele>368.0</ele><time>2026-04-05T10:31:37Z</time></trkpt><trkpt lat="43.14866" lon="11.6531217"><ele>368.0</ele><time>2026-04-05T10:31:38Z</time></trkpt><trkpt lat="43.148545" lon="11.6531467"><ele>368.0</ele><time>2026-04-05T10:31:39Z</time></trkpt><trkpt lat="43.1484283" lon="11.6531483"><ele>368.0</ele><time>2026-04-05T10:31:40Z</time></trkpt><trkpt lat="43.14831" lon="11.6531317"><ele>368.0</ele><time>2026-04-05T10:31:41Z</time></trkpt><trkpt lat="43.14817" lon="11.653115"><ele>370.5</ele><time>2026-04-05T10:31:42Z</time></trkpt><trkpt lat="43.1480283" lon="11.6530967"><ele>373.0</ele><time>2026-04-05T10:31:43Z</time></trkpt><trkpt lat="43.1478817" lon="11.6530933"><ele>375.5</ele><time>2026-04-05T10:31:44Z</time></trkpt><trkpt lat="43.14775" lon="11.653095"><ele>378.0</ele><time>2026-04-05T10:31:45Z</time></trkpt><trkpt lat="43.1476067" lon="11.6530967"><ele>378.0</ele><time>2026-04-05T10:31:46Z</time></trkpt><trkpt lat="43.147465" lon="11.6531133"><ele>378.0</ele><time>2026-04-05T10:31:47Z</time></trkpt><trkpt lat="43.1473333" lon="11.6531217"><ele>378.0</ele><time>2026-04-05T10:31:48Z</time></trkpt><trkpt lat="43.1472133" lon="11.6531333"><ele>378.0</ele><time>2026-04-05T10:31:49Z</time></trkpt><trkpt lat="43.1471033" lon="11.65314"><ele>379.8333333333333</ele><time>2026-04-05T10:31:50Z</time></trkpt><trkpt lat="43.1470017" lon="11.6531717"><ele>381.66666666666663</ele><time>2026-04-05T10:31:51Z</time></trkpt><trkpt lat="43.1469283" lon="11.6532367"><ele>383.5</ele><time>2026-04-05T10:31:52Z</time></trkpt><trkpt lat="43.146875" lon="11.653335"><ele>385.3333333333333</ele><time>2026-04-05T10:31:53Z</time></trkpt><trkpt lat="43.1468633" lon="11.6534383"><ele>387.16666666666663</ele><time>2026-04-05T10:31:54Z</time></trkpt><trkpt lat="43.146885" lon="11.653545"><ele>389.0</ele><time>2026-04-05T10:31:55Z</time></trkpt><trkpt lat="43.14693" lon="11.6536517"><ele>390.5</ele><time>2026-04-05T10:31:56Z</time></trkpt><trkpt lat="43.14699" lon="11.65376"><ele>392.0</ele><time>2026-04-05T10:31:57Z</time></trkpt><trkpt lat="43.14708" lon="11.6538667"><ele>393.5</ele><time>2026-04-05T10:31:58Z</time></trkpt><trkpt lat="43.14717" lon="11.6539783"><ele>395.0</ele><time>2026-04-05T10:31:59Z</time></trkpt><trkpt lat="43.14725" lon="11.654085"><ele>394.99999999999994</ele><time>2026-04-05T10:32:00Z</time></trkpt><trkpt lat="43.147305" lon="11.654195"><ele>395.0</ele><time>2026-04-05T10:32:01Z</time></trkpt><trkpt lat="43.147325" lon="11.6542917"><ele>395.0</ele><time>2026-04-05T10:32:02Z</time></trkpt><trkpt lat="43.147315" lon="11.654385"><ele>395.0</ele><time>2026-04-05T10:32:03Z</time></trkpt><trkpt lat="43.1472683" lon="11.654465"><ele>394.99999999999994</ele><time>2026-04-05T10:32:04Z</time></trkpt><trkpt lat="43.14719" lon="11.6545167"><ele>395.0</ele><time>2026-04-05T10:32:05Z</time></trkpt><trkpt lat="43.1470867" lon="11.6545517"><ele>394.4</ele><time>2026-04-05T10:32:06Z</time></trkpt><trkpt lat="43.1469833" lon="11.6546017"><ele>393.8</ele><time>2026-04-05T10:32:07Z</time></trkpt><trkpt lat="43.1468717" lon="11.6546567"><ele>393.20000000000005</ele><time>2026-04-05T10:32:08Z</time></trkpt><trkpt lat="43.14677" lon="11.654705"><ele>392.6</ele><time>2026-04-05T10:32:09Z</time></trkpt><trkpt lat="43.1466883" lon="11.65477"><ele>392.0</ele><time>2026-04-05T10:32:10Z</time></trkpt><trkpt lat="43.1466267" lon="11.6548517"><ele>392.0</ele><time>2026-04-05T10:32:11Z</time></trkpt><trkpt lat="43.1465933" lon="11.65497"><ele>392.0</ele><time>2026-04-05T10:32:12Z</time></trkpt><trkpt lat="43.1465917" lon="11.6551"><ele>392.0</ele><time>2026-04-05T10:32:13Z</time></trkpt><trkpt lat="43.1466217" lon="11.6552367"><ele>392.0</ele><time>2026-04-05T10:32:14Z</time></trkpt><trkpt lat="43.146675" lon="11.655375"><ele>392.0</ele><time>2026-04-05T10:32:15Z</time></trkpt><trkpt lat="43.1467633" lon="11.65552"><ele>392.8</ele><time>2026-04-05T10:32:16Z</time></trkpt><trkpt lat="43.1468433" lon="11.6556633"><ele>393.6</ele><time>2026-04-05T10:32:17Z</time></trkpt><trkpt lat="43.1469033" lon="11.6557983"><ele>394.40000000000003</ele><time>2026-04-05T10:32:18Z</time></trkpt><trkpt lat="43.14694" lon="11.6559333"><ele>395.20000000000005</ele><time>2026-04-05T10:32:19Z</time></trkpt><trkpt lat="43.1469433" lon="11.65605"><ele>396.0</ele><time>2026-04-05T10:32:20Z</time></trkpt><trkpt lat="43.14692" lon="11.656145"><ele>394.4</ele><time>2026-04-05T10:32:21Z</time></trkpt><trkpt lat="43.146865" lon="11.656235"><ele>392.8</ele><time>2026-04-05T10:32:22Z</time></trkpt><trkpt lat="43.1467683" lon="11.65629"><ele>391.2</ele><time>2026-04-05T10:32:23Z</time></trkpt><trkpt lat="43.1466517" lon="11.65628"><ele>389.59999999999997</ele><time>2026-04-05T10:32:24Z</time></trkpt><trkpt lat="43.1465233" lon="11.65625"><ele>388.0</ele><time>2026-04-05T10:32:25Z</time></trkpt><trkpt lat="43.1464033" lon="11.6562067"><ele>388.0</ele><time>2026-04-05T10:32:26Z</time></trkpt><trkpt lat="43.146285" lon="11.6561567"><ele>388.0</ele><time>2026-04-05T10:32:27Z</time></trkpt><trkpt lat="43.1461583" lon="11.6561"><ele>388.0</ele><time>2026-04-05T10:32:28Z</time></trkpt><trkpt lat="43.1460283" lon="11.6560433"><ele>388.0</ele><time>2026-04-05T10:32:29Z</time></trkpt><trkpt lat="43.1458917" lon="11.6559933"><ele>391.75</ele><time>2026-04-05T10:32:30Z</time></trkpt><trkpt lat="43.1457567" lon="11.6559367"><ele>395.5</ele><time>2026-04-05T10:32:31Z</time></trkpt><trkpt lat="43.145625" lon="11.6558833"><ele>399.25</ele><time>2026-04-05T10:32:32Z</time></trkpt><trkpt lat="43.1454983" lon="11.6558433"><ele>403.0</ele><time>2026-04-05T10:32:33Z</time></trkpt><trkpt lat="43.1453767" lon="11.6558417"><ele>402.25</ele><time>2026-04-05T10:32:34Z</time></trkpt><trkpt lat="43.14527" lon="11.6558817"><ele>401.5</ele><time>2026-04-05T10:32:35Z</time></trkpt><trkpt lat="43.1451717" lon="11.655965"><ele>400.75</ele><time>2026-04-05T10:32:36Z</time></trkpt><trkpt lat="43.145085" lon="11.656085"><ele>400.0</ele><time>2026-04-05T10:32:37Z</time></trkpt><trkpt lat="43.14502" lon="11.65622"><ele>400.0</ele><time>2026-04-05T10:32:38Z</time></trkpt><trkpt lat="43.1449517" lon="11.65636"><ele>400.0</ele><time>2026-04-05T10:32:39Z</time></trkpt><trkpt lat="43.144865" lon="11.656465"><ele>400.0</ele><time>2026-04-05T10:32:40Z</time></trkpt><trkpt lat="43.1447617" lon="11.6565367"><ele>400.0</ele><time>2026-04-05T10:32:41Z</time></trkpt><trkpt lat="43.144645" lon="11.6565783"><ele>403.25</ele><time>2026-04-05T10:32:42Z</time></trkpt><trkpt lat="43.1445183" lon="11.656605"><ele>406.5</ele><time>2026-04-05T10:32:43Z</time></trkpt><trkpt lat="43.1443867" lon="11.6566417"><ele>409.75</ele><time>2026-04-05T10:32:44Z</time></trkpt><trkpt lat="43.144265" lon="11.6567083"><ele>413.0</ele><time>2026-04-05T10:32:45Z</time></trkpt><trkpt lat="43.1441533" lon="11.6567867"><ele>412.0</ele><time>2026-04-05T10:32:46Z</time></trkpt><trkpt lat="43.1440467" lon="11.656865"><ele>411.0</ele><time>2026-04-05T10:32:47Z</time></trkpt><trkpt lat="43.14393" lon="11.65694"><ele>410.0</ele><time>2026-04-05T10:32:48Z</time></trkpt><trkpt lat="43.1438083" lon="11.6570067"><ele>409.0</ele><time>2026-04-05T10:32:49Z</time></trkpt><trkpt lat="43.1436833" lon="11.65704"><ele>409.0</ele><time>2026-04-05T10:32:50Z</time></trkpt><trkpt lat="43.1435667" lon="11.6570583"><ele>409.0</ele><time>2026-04-05T10:32:51Z</time></trkpt><trkpt lat="43.1434617" lon="11.657065"><ele>409.0</ele><time>2026-04-05T10:32:52Z</time></trkpt><trkpt lat="43.14336" lon="11.65706"><ele>409.0</ele><time>2026-04-05T10:32:53Z</time></trkpt><trkpt lat="43.1432667" lon="11.65706"><ele>409.0</ele><time>2026-04-05T10:32:54Z</time></trkpt><trkpt lat="43.1431733" lon="11.657095"><ele>410.4</ele><time>2026-04-05T10:32:55Z</time></trkpt><trkpt lat="43.1430967" lon="11.6571667"><ele>411.79999999999995</ele><time>2026-04-05T10:32:56Z</time></trkpt><trkpt lat="43.1430283" lon="11.6572683"><ele>413.20000000000005</ele><time>2026-04-05T10:32:57Z</time></trkpt><trkpt lat="43.1429733" lon="11.65739"><ele>414.6</ele><time>2026-04-05T10:32:58Z</time></trkpt><trkpt lat="43.1429317" lon="11.6575217"><ele>416.0</ele><time>2026-04-05T10:32:59Z</time></trkpt><trkpt lat="43.1428933" lon="11.6576633"><ele>417.4</ele><time>2026-04-05T10:33:00Z</time></trkpt><trkpt lat="43.1428567" lon="11.6578083"><ele>418.8</ele><time>2026-04-05T10:33:01Z</time></trkpt><trkpt lat="43.14281" lon="11.6579533"><ele>420.2</ele><time>2026-04-05T10:33:02Z</time></trkpt><trkpt lat="43.1427683" lon="11.6580983"><ele>421.59999999999997</ele><time>2026-04-05T10:33:03Z</time></trkpt><trkpt lat="43.1427383" lon="11.6582367"><ele>423.0</ele><time>2026-04-05T10:33:04Z</time></trkpt><trkpt lat="43.142715" lon="11.658395"><ele>423.0</ele><time>2026-04-05T10:33:05Z</time></trkpt><trkpt lat="43.1427083" lon="11.6585567"><ele>423.0</ele><time>2026-04-05T10:33:06Z</time></trkpt><trkpt lat="43.1427017" lon="11.6587267"><ele>423.0</ele><time>2026-04-05T10:33:07Z</time></trkpt><trkpt lat="43.1427" lon="11.6588783"><ele>423.0</ele><time>2026-04-05T10:33:08Z</time></trkpt><trkpt lat="43.1426833" lon="11.6590267"><ele>423.79999999999995</ele><time>2026-04-05T10:33:09Z</time></trkpt><trkpt lat="43.14267" lon="11.6591817"><ele>424.6</ele><time>2026-04-05T10:33:10Z</time></trkpt><trkpt lat="43.14266" lon="11.6593167"><ele>425.40000000000003</ele><time>2026-04-05T10:33:11Z</time></trkpt><trkpt lat="43.142635" lon="11.6594633"><ele>426.20000000000005</ele><time>2026-04-05T10:33:12Z</time></trkpt><trkpt lat="43.1426117" lon="11.6596017"><ele>427.0</ele><time>2026-04-05T10:33:13Z</time></trkpt><trkpt lat="43.1425717" lon="11.6597283"><ele>427.0</ele><time>2026-04-05T10:33:14Z</time></trkpt><trkpt lat="43.14252" lon="11.6598483"><ele>427.00000000000006</ele><time>2026-04-05T10:33:15Z</time></trkpt><trkpt lat="43.1424633" lon="11.6599783"><ele>427.00000000000006</ele><time>2026-04-05T10:33:16Z</time></trkpt><trkpt lat="43.1424" lon="11.6601"><ele>427.0</ele><time>2026-04-05T10:33:17Z</time></trkpt><trkpt lat="43.1423417" lon="11.6602267"><ele>427.0</ele><time>2026-04-05T10:33:18Z</time></trkpt><trkpt lat="43.1422933" lon="11.6603517"><ele>428.33333333333337</ele><time>2026-04-05T10:33:19Z</time></trkpt><trkpt lat="43.1422567" lon="11.66047"><ele>429.6666666666667</ele><time>2026-04-05T10:33:20Z</time></trkpt><trkpt lat="43.1422317" lon="11.660585"><ele>431.0</ele><time>2026-04-05T10:33:21Z</time></trkpt><trkpt lat="43.1422167" lon="11.6607033"><ele>432.33333333333337</ele><time>2026-04-05T10:33:22Z</time></trkpt><trkpt lat="43.1422083" lon="11.6608183"><ele>433.6666666666667</ele><time>2026-04-05T10:33:23Z</time></trkpt><trkpt lat="43.1422017" lon="11.6609367"><ele>435.0</ele><time>2026-04-05T10:33:24Z</time></trkpt><trkpt lat="43.1422017" lon="11.6610567"><ele>435.3333333333333</ele><time>2026-04-05T10:33:25Z</time></trkpt><trkpt lat="43.1422017" lon="11.6611783"><ele>435.66666666666663</ele><time>2026-04-05T10:33:26Z</time></trkpt><trkpt lat="43.1421983" lon="11.6613067"><ele>436.0</ele><time>2026-04-05T10:33:27Z</time></trkpt><trkpt lat="43.1421917" lon="11.6614233"><ele>436.3333333333333</ele><time>2026-04-05T10:33:28Z</time></trkpt><trkpt lat="43.142185" lon="11.66155"><ele>436.66666666666663</ele><time>2026-04-05T10:33:29Z</time></trkpt><trkpt lat="43.1421683" lon="11.6616583"><ele>437.0</ele><time>2026-04-05T10:33:30Z</time></trkpt><trkpt lat="43.142145" lon="11.6617567"><ele>437.0</ele><time>2026-04-05T10:33:31Z</time></trkpt><trkpt lat="43.1421167" lon="11.6618433"><ele>437.00000000000006</ele><time>2026-04-05T10:33:32Z</time></trkpt><trkpt lat="43.1420867" lon="11.661975"><ele>437.00000000000006</ele><time>2026-04-05T10:33:34Z</time></trkpt><trkpt lat="43.1420583" lon="11.66211"><ele>437.0</ele><time>2026-04-05T10:33:36Z</time></trkpt><trkpt lat="43.1420133" lon="11.6622633"><ele>437.0</ele><time>2026-04-05T10:33:38Z</time></trkpt><trkpt lat="43.1419783" lon="11.66235"><ele>437.20000000000005</ele><time>2026-04-05T10:33:39Z</time></trkpt><trkpt lat="43.1419383" lon="11.6624483"><ele>437.40000000000003</ele><time>2026-04-05T10:33:40Z</time></trkpt><trkpt lat="43.1418883" lon="11.6625433"><ele>437.59999999999997</ele><time>2026-04-05T10:33:41Z</time></trkpt><trkpt lat="43.1418333" lon="11.662645"><ele>437.79999999999995</ele><time>2026-04-05T10:33:42Z</time></trkpt><trkpt lat="43.1417733" lon="11.6627417"><ele>438.0</ele><time>2026-04-05T10:33:43Z</time></trkpt><trkpt lat="43.141705" lon="11.6628517"><ele>437.3333333333333</ele><time>2026-04-05T10:33:44Z</time></trkpt><trkpt lat="43.1416433" lon="11.662955"><ele>436.66666666666663</ele><time>2026-04-05T10:33:45Z</time></trkpt><trkpt lat="43.141585" lon="11.6630667"><ele>436.0</ele><time>2026-04-05T10:33:46Z</time></trkpt><trkpt lat="43.1415367" lon="11.6631717"><ele>435.3333333333333</ele><time>2026-04-05T10:33:47Z</time></trkpt><trkpt lat="43.1414917" lon="11.6632667"><ele>434.66666666666663</ele><time>2026-04-05T10:33:48Z</time></trkpt><trkpt lat="43.141455" lon="11.6633483"><ele>434.0</ele><time>2026-04-05T10:33:49Z</time></trkpt><trkpt lat="43.141395" lon="11.6634733"><ele>433.66666666666663</ele><time>2026-04-05T10:33:51Z</time></trkpt><trkpt lat="43.1413183" lon="11.6636"><ele>433.3333333333333</ele><time>2026-04-05T10:33:53Z</time></trkpt><trkpt lat="43.1412717" lon="11.66374"><ele>433.0</ele><time>2026-04-05T10:33:55Z</time></trkpt><trkpt lat="43.1412517" lon="11.6638283"><ele>432.66666666666663</ele><time>2026-04-05T10:33:57Z</time></trkpt><trkpt lat="43.1412017" lon="11.663895"><ele>432.3333333333333</ele><time>2026-04-05T10:34:01Z</time></trkpt><trkpt lat="43.1411417" lon="11.663845"><ele>432.0</ele><time>2026-04-05T10:34:03Z</time></trkpt><trkpt lat="43.1410683" lon="11.66376"><ele>432.0</ele><time>2026-04-05T10:34:05Z</time></trkpt><trkpt lat="43.14101" lon="11.6636733"><ele>432.0</ele><time>2026-04-05T10:34:07Z</time></trkpt><trkpt lat="43.1409733" lon="11.6635867"><ele>432.0</ele><time>2026-04-05T10:34:10Z</time></trkpt><trkpt lat="43.14099" lon="11.6634917"><ele>432.0</ele><time>2026-04-05T10:34:13Z</time></trkpt><trkpt lat="43.14101" lon="11.6633767"><ele>432.0</ele><time>2026-04-05T10:34:17Z</time></trkpt><trkpt lat="43.1410183" lon="11.6632817"><ele>432.0</ele><time>2026-04-05T10:34:19Z</time></trkpt><trkpt lat="43.1409917" lon="11.66318"><ele>432.0</ele><time>2026-04-05T10:34:21Z</time></trkpt><trkpt lat="43.1409367" lon="11.6630283"><ele>432.00000000000006</ele><time>2026-04-05T10:34:23Z</time></trkpt><trkpt lat="43.1408983" lon="11.6629167"><ele>432.00000000000006</ele><time>2026-04-05T10:34:24Z</time></trkpt><trkpt lat="43.1408567" lon="11.6628067"><ele>432.0</ele><time>2026-04-05T10:34:25Z</time></trkpt><trkpt lat="43.1408167" lon="11.662695"><ele>432.0</ele><time>2026-04-05T10:34:26Z</time></trkpt><trkpt lat="43.140765" lon="11.66258"><ele>426.0</ele><time>2026-04-05T10:34:27Z</time></trkpt><trkpt lat="43.14071" lon="11.66246"><ele>420.00000000000006</ele><time>2026-04-05T10:34:28Z</time></trkpt><trkpt lat="43.1406483" lon="11.6623333"><ele>414.0</ele><time>2026-04-05T10:34:29Z</time></trkpt><trkpt lat="43.1405917" lon="11.662205"><ele>408.0</ele><time>2026-04-05T10:34:30Z</time></trkpt><trkpt lat="43.1405333" lon="11.6620717"><ele>402.0</ele><time>2026-04-05T10:34:31Z</time></trkpt><trkpt lat="43.1404767" lon="11.6619517"><ele>401.3333333333333</ele><time>2026-04-05T10:34:32Z</time></trkpt><trkpt lat="43.1404183" lon="11.661845"><ele>400.66666666666663</ele><time>2026-04-05T10:34:33Z</time></trkpt><trkpt lat="43.1403717" lon="11.661745"><ele>400.0</ele><time>2026-04-05T10:34:34Z</time></trkpt><trkpt lat="43.14034" lon="11.6616367"><ele>399.3333333333333</ele><time>2026-04-05T10:34:35Z</time></trkpt><trkpt lat="43.140325" lon="11.6615217"><ele>398.66666666666663</ele><time>2026-04-05T10:34:36Z</time></trkpt><trkpt lat="43.140325" lon="11.66141"><ele>398.0</ele><time>2026-04-05T10:34:37Z</time></trkpt><trkpt lat="43.1403433" lon="11.6613033"><ele>397.99999999999994</ele><time>2026-04-05T10:34:38Z</time></trkpt><trkpt lat="43.1403583" lon="11.6612033"><ele>398.0</ele><time>2026-04-05T10:34:39Z</time></trkpt><trkpt lat="43.14038" lon="11.6611033"><ele>398.0</ele><time>2026-04-05T10:34:40Z</time></trkpt><trkpt lat="43.1403667" lon="11.6610183"><ele>398.0</ele><time>2026-04-05T10:34:41Z</time></trkpt><trkpt lat="43.1403333" lon="11.6609317"><ele>398.0</ele><time>2026-04-05T10:34:42Z</time></trkpt><trkpt lat="43.14029" lon="11.6608567"><ele>397.99999999999994</ele><time>2026-04-05T10:34:43Z</time></trkpt><trkpt lat="43.1402217" lon="11.6607967"><ele>398.0</ele><time>2026-04-05T10:34:44Z</time></trkpt><trkpt lat="43.1401333" lon="11.660755"><ele>397.16666666666663</ele><time>2026-04-05T10:34:45Z</time></trkpt><trkpt lat="43.1400433" lon="11.6607233"><ele>396.3333333333333</ele><time>2026-04-05T10:34:46Z</time></trkpt><trkpt lat="43.13995" lon="11.6606933"><ele>395.5</ele><time>2026-04-05T10:34:47Z</time></trkpt><trkpt lat="43.13986" lon="11.6606567"><ele>394.66666666666663</ele><time>2026-04-05T10:34:48Z</time></trkpt><trkpt lat="43.1397817" lon="11.6606167"><ele>393.8333333333333</ele><time>2026-04-05T10:34:49Z</time></trkpt><trkpt lat="43.1397183" lon="11.6605767"><ele>393.0</ele><time>2026-04-05T10:34:50Z</time></trkpt><trkpt lat="43.1396133" lon="11.6605217"><ele>390.1666666666667</ele><time>2026-04-05T10:34:52Z</time></trkpt><trkpt lat="43.1395417" lon="11.6604833"><ele>387.3333333333333</ele><time>2026-04-05T10:34:54Z</time></trkpt><trkpt lat="43.139475" lon="11.6603967"><ele>384.5</ele><time>2026-04-05T10:34:58Z</time></trkpt><trkpt lat="43.1394733" lon="11.66026"><ele>381.66666666666663</ele><time>2026-04-05T10:35:00Z</time></trkpt><trkpt lat="43.139475" lon="11.6601633"><ele>378.8333333333333</ele><time>2026-04-05T10:35:01Z</time></trkpt><trkpt lat="43.1394767" lon="11.6600467"><ele>376.0</ele><time>2026-04-05T10:35:02Z</time></trkpt><trkpt lat="43.13948" lon="11.65992"><ele>375.6</ele><time>2026-04-05T10:35:03Z</time></trkpt><trkpt lat="43.1394767" lon="11.65979"><ele>375.20000000000005</ele><time>2026-04-05T10:35:04Z</time></trkpt><trkpt lat="43.1394717" lon="11.65966"><ele>374.79999999999995</ele><time>2026-04-05T10:35:05.001Z</time></trkpt><trkpt lat="43.1394533" lon="11.6595267"><ele>374.4</ele><time>2026-04-05T10:35:06Z</time></trkpt><trkpt lat="43.139415" lon="11.6593867"><ele>374.0</ele><time>2026-04-05T10:35:07Z</time></trkpt><trkpt lat="43.13936" lon="11.659245"><ele>373.75</ele><time>2026-04-05T10:35:08Z</time></trkpt><trkpt lat="43.1392867" lon="11.6591183"><ele>373.5</ele><time>2026-04-05T10:35:09Z</time></trkpt><trkpt lat="43.1391917" lon="11.659005"><ele>373.25</ele><time>2026-04-05T10:35:10Z</time></trkpt><trkpt lat="43.1390817" lon="11.6589167"><ele>373.0</ele><time>2026-04-05T10:35:11Z</time></trkpt><trkpt lat="43.1389633" lon="11.65883"><ele>371.0</ele><time>2026-04-05T10:35:12Z</time></trkpt><trkpt lat="43.1388533" lon="11.65875"><ele>369.0</ele><time>2026-04-05T10:35:13Z</time></trkpt><trkpt lat="43.1387533" lon="11.6586917"><ele>367.0</ele><time>2026-04-05T10:35:14Z</time></trkpt><trkpt lat="43.1386433" lon="11.6586233"><ele>365.0</ele><time>2026-04-05T10:35:15Z</time></trkpt><trkpt lat="43.13854" lon="11.6585583"><ele>365.0</ele><time>2026-04-05T10:35:16Z</time></trkpt><trkpt lat="43.13844" lon="11.6584967"><ele>365.0</ele><time>2026-04-05T10:35:17Z</time></trkpt><trkpt lat="43.1383483" lon="11.6584383"><ele>365.0</ele><time>2026-04-05T10:35:18Z</time></trkpt><trkpt lat="43.138265" lon="11.6583867"><ele>365.0</ele><time>2026-04-05T10:35:19Z</time></trkpt><trkpt lat="43.1381833" lon="11.6583433"><ele>365.0</ele><time>2026-04-05T10:35:20Z</time></trkpt><trkpt lat="43.1381083" lon="11.6582967"><ele>361.5</ele><time>2026-04-05T10:35:21Z</time></trkpt><trkpt lat="43.13804" lon="11.658225"><ele>358.0</ele><time>2026-04-05T10:35:22Z</time></trkpt><trkpt lat="43.1379917" lon="11.6581217"><ele>354.5</ele><time>2026-04-05T10:35:23Z</time></trkpt><trkpt lat="43.1379667" lon="11.6580117"><ele>351.0</ele><time>2026-04-05T10:35:24Z</time></trkpt><trkpt lat="43.1379667" lon="11.6578967"><ele>347.5</ele><time>2026-04-05T10:35:25Z</time></trkpt><trkpt lat="43.1379933" lon="11.657775"><ele>344.0</ele><time>2026-04-05T10:35:26Z</time></trkpt><trkpt lat="43.1380517" lon="11.6576733"><ele>344.0</ele><time>2026-04-05T10:35:27Z</time></trkpt><trkpt lat="43.1380967" lon="11.6575617"><ele>344.0</ele><time>2026-04-05T10:35:28Z</time></trkpt><trkpt lat="43.138115" lon="11.6574383"><ele>344.0</ele><time>2026-04-05T10:35:29Z</time></trkpt><trkpt lat="43.1380983" lon="11.6572983"><ele>344.0</ele><time>2026-04-05T10:35:30Z</time></trkpt><trkpt lat="43.1380633" lon="11.65717"><ele>344.0</ele><time>2026-04-05T10:35:31Z</time></trkpt><trkpt lat="43.138" lon="11.6570483"><ele>344.4</ele><time>2026-04-05T10:35:32Z</time></trkpt><trkpt lat="43.1379267" lon="11.6569383"><ele>344.79999999999995</ele><time>2026-04-05T10:35:33Z</time></trkpt><trkpt lat="43.1378633" lon="11.6568267"><ele>345.20000000000005</ele><time>2026-04-05T10:35:34Z</time></trkpt><trkpt lat="43.1378" lon="11.6567217"><ele>345.6</ele><time>2026-04-05T10:35:35Z</time></trkpt><trkpt lat="43.1377417" lon="11.656625"><ele>346.0</ele><time>2026-04-05T10:35:36Z</time></trkpt><trkpt lat="43.1376933" lon="11.656515"><ele>346.0</ele><time>2026-04-05T10:35:37Z</time></trkpt><trkpt lat="43.137665" lon="11.6563783"><ele>346.0</ele><time>2026-04-05T10:35:38Z</time></trkpt><trkpt lat="43.1376667" lon="11.65625"><ele>346.0</ele><time>2026-04-05T10:35:39Z</time></trkpt><trkpt lat="43.1376883" lon="11.6560967"><ele>346.0</ele><time>2026-04-05T10:35:40Z</time></trkpt><trkpt lat="43.137725" lon="11.6559483"><ele>346.0</ele><time>2026-04-05T10:35:41Z</time></trkpt><trkpt lat="43.1377683" lon="11.6557917"><ele>345.0</ele><time>2026-04-05T10:35:42Z</time></trkpt><trkpt lat="43.1378083" lon="11.65564"><ele>344.0</ele><time>2026-04-05T10:35:43Z</time></trkpt><trkpt lat="43.1378433" lon="11.65549"><ele>343.0</ele><time>2026-04-05T10:35:44Z</time></trkpt><trkpt lat="43.1378783" lon="11.65535"><ele>342.0</ele><time>2026-04-05T10:35:45Z</time></trkpt><trkpt lat="43.1379" lon="11.655215"><ele>341.0</ele><time>2026-04-05T10:35:46Z</time></trkpt><trkpt lat="43.137895" lon="11.6550917"><ele>339.6</ele><time>2026-04-05T10:35:47Z</time></trkpt><trkpt lat="43.13786" lon="11.6549733"><ele>338.20000000000005</ele><time>2026-04-05T10:35:48Z</time></trkpt><trkpt lat="43.1378067" lon="11.6549067"><ele>336.79999999999995</ele><time>2026-04-05T10:35:49Z</time></trkpt><trkpt lat="43.1377233" lon="11.6548833"><ele>335.4</ele><time>2026-04-05T10:35:50Z</time></trkpt><trkpt lat="43.137625" lon="11.6548933"><ele>334.0</ele><time>2026-04-05T10:35:51Z</time></trkpt><trkpt lat="43.137525" lon="11.6549333"><ele>334.0</ele><time>2026-04-05T10:35:52Z</time></trkpt><trkpt lat="43.1374367" lon="11.655025"><ele>334.0</ele><time>2026-04-05T10:35:53Z</time></trkpt><trkpt lat="43.1373433" lon="11.65513"><ele>334.0</ele><time>2026-04-05T10:35:54Z</time></trkpt><trkpt lat="43.1372483" lon="11.6552317"><ele>334.0</ele><time>2026-04-05T10:35:55Z</time></trkpt><trkpt lat="43.1371483" lon="11.6553183"><ele>332.79999999999995</ele><time>2026-04-05T10:35:56Z</time></trkpt><trkpt lat="43.13705" lon="11.6554067"><ele>331.59999999999997</ele><time>2026-04-05T10:35:57Z</time></trkpt><trkpt lat="43.1369517" lon="11.65549"><ele>330.4</ele><time>2026-04-05T10:35:57.999Z</time></trkpt><trkpt lat="43.1368567" lon="11.65556"><ele>329.2</ele><time>2026-04-05T10:35:58.999Z</time></trkpt><trkpt lat="43.1367583" lon="11.6556033"><ele>328.0</ele><time>2026-04-05T10:35:59.999Z</time></trkpt><trkpt lat="43.1366517" lon="11.6555933"><ele>328.0</ele><time>2026-04-05T10:36:00.999Z</time></trkpt><trkpt lat="43.136555" lon="11.6555283"><ele>328.0</ele><time>2026-04-05T10:36:01.999Z</time></trkpt><trkpt lat="43.1364833" lon="11.6554133"><ele>328.0</ele><time>2026-04-05T10:36:02.999Z</time></trkpt><trkpt lat="43.136425" lon="11.6552617"><ele>328.0</ele><time>2026-04-05T10:36:03.999Z</time></trkpt><trkpt lat="43.1363867" lon="11.6551033"><ele>325.25</ele><time>2026-04-05T10:36:04.999Z</time></trkpt><trkpt lat="43.1363517" lon="11.6549367"><ele>322.5</ele><time>2026-04-05T10:36:05.999Z</time></trkpt><trkpt lat="43.136305" lon="11.65477"><ele>319.75</ele><time>2026-04-05T10:36:06.999Z</time></trkpt><trkpt lat="43.1362417" lon="11.65463"><ele>317.0</ele><time>2026-04-05T10:36:07.999Z</time></trkpt><trkpt lat="43.1361567" lon="11.6545133"><ele>315.25</ele><time>2026-04-05T10:36:08.999Z</time></trkpt><trkpt lat="43.136055" lon="11.654435"><ele>313.5</ele><time>2026-04-05T10:36:09.999Z</time></trkpt><trkpt lat="43.1359267" lon="11.6543917"><ele>311.75</ele><time>2026-04-05T10:36:10.999Z</time></trkpt><trkpt lat="43.135795" lon="11.6543867"><ele>310.0</ele><time>2026-04-05T10:36:11.999Z</time></trkpt><trkpt lat="43.1356683" lon="11.6544083"><ele>309.25</ele><time>2026-04-05T10:36:12.999Z</time></trkpt><trkpt lat="43.1355417" lon="11.6544467"><ele>308.5</ele><time>2026-04-05T10:36:13.999Z</time></trkpt><trkpt lat="43.13541" lon="11.65451"><ele>307.75</ele><time>2026-04-05T10:36:14.999Z</time></trkpt><trkpt lat="43.1352767" lon="11.6545883"><ele>307.0</ele><time>2026-04-05T10:36:15.999Z</time></trkpt><trkpt lat="43.13513" lon="11.65466"><ele>307.0</ele><time>2026-04-05T10:36:16.999Z</time></trkpt><trkpt lat="43.1349717" lon="11.6547333"><ele>307.0</ele><time>2026-04-05T10:36:17.999Z</time></trkpt><trkpt lat="43.13482" lon="11.654795"><ele>307.0</ele><time>2026-04-05T10:36:18.999Z</time></trkpt><trkpt lat="43.1346817" lon="11.6548733"><ele>307.5</ele><time>2026-04-05T10:36:19.999Z</time></trkpt><trkpt lat="43.1345667" lon="11.6549733"><ele>308.0</ele><time>2026-04-05T10:36:20.999Z</time></trkpt><trkpt lat="43.1344867" lon="11.6550967"><ele>308.5</ele><time>2026-04-05T10:36:21.999Z</time></trkpt><trkpt lat="43.13443" lon="11.6552383"><ele>309.0</ele><time>2026-04-05T10:36:22.999Z</time></trkpt><trkpt lat="43.1343867" lon="11.655385"><ele>309.0</ele><time>2026-04-05T10:36:23.999Z</time></trkpt><trkpt lat="43.1343183" lon="11.65551"><ele>309.0</ele><time>2026-04-05T10:36:24.999Z</time></trkpt><trkpt lat="43.1342367" lon="11.6556033"><ele>309.0</ele><time>2026-04-05T10:36:25.999Z</time></trkpt><trkpt lat="43.1341283" lon="11.6556583"><ele>309.0</ele><time>2026-04-05T10:36:26.999Z</time></trkpt><trkpt lat="43.134005" lon="11.6556583"><ele>310.0</ele><time>2026-04-05T10:36:27.999Z</time></trkpt><trkpt lat="43.13387" lon="11.6556233"><ele>311.0</ele><time>2026-04-05T10:36:28.999Z</time></trkpt><trkpt lat="43.1337233" lon="11.65557"><ele>312.0</ele><time>2026-04-05T10:36:29.999Z</time></trkpt><trkpt lat="43.13358" lon="11.655515"><ele>313.0</ele><time>2026-04-05T10:36:30.999Z</time></trkpt><trkpt lat="43.1334333" lon="11.6554733"><ele>313.0</ele><time>2026-04-05T10:36:31.999Z</time></trkpt><trkpt lat="43.133295" lon="11.65547"><ele>313.0</ele><time>2026-04-05T10:36:32.999Z</time></trkpt><trkpt lat="43.1331483" lon="11.6554917"><ele>313.0</ele><time>2026-04-05T10:36:33.999Z</time></trkpt><trkpt lat="43.1330067" lon="11.6555333"><ele>313.0</ele><time>2026-04-05T10:36:34.999Z</time></trkpt><trkpt lat="43.13286" lon="11.65558"><ele>317.66666666666663</ele><time>2026-04-05T10:36:35.999Z</time></trkpt><trkpt lat="43.1326967" lon="11.655625"><ele>322.3333333333333</ele><time>2026-04-05T10:36:36.999Z</time></trkpt><trkpt lat="43.1325283" lon="11.6556667"><ele>327.0</ele><time>2026-04-05T10:36:37.999Z</time></trkpt><trkpt lat="43.1323533" lon="11.6556933"><ele>331.0</ele><time>2026-04-05T10:36:38.999Z</time></trkpt><trkpt lat="43.1321867" lon="11.6557117"><ele>335.0</ele><time>2026-04-05T10:36:39.999Z</time></trkpt><trkpt lat="43.1320133" lon="11.6557267"><ele>339.0</ele><time>2026-04-05T10:36:40.999Z</time></trkpt><trkpt lat="43.1318417" lon="11.6557467"><ele>339.0</ele><time>2026-04-05T10:36:41.999Z</time></trkpt><trkpt lat="43.13167" lon="11.6557583"><ele>339.0</ele><time>2026-04-05T10:36:42.999Z</time></trkpt><trkpt lat="43.13151" lon="11.6557733"><ele>339.0</ele><time>2026-04-05T10:36:43.999Z</time></trkpt><trkpt lat="43.13136" lon="11.6557833"><ele>341.75</ele><time>2026-04-05T10:36:44.999Z</time></trkpt><trkpt lat="43.1312317" lon="11.6557767"><ele>344.5</ele><time>2026-04-05T10:36:45.999Z</time></trkpt><trkpt lat="43.1311133" lon="11.6557333"><ele>347.25</ele><time>2026-04-05T10:36:46.999Z</time></trkpt><trkpt lat="43.1310083" lon="11.6556367"><ele>350.0</ele><time>2026-04-05T10:36:47.999Z</time></trkpt><trkpt lat="43.1309267" lon="11.6555083"><ele>350.0</ele><time>2026-04-05T10:36:48.999Z</time></trkpt><trkpt lat="43.13087" lon="11.6553367"><ele>350.0</ele><time>2026-04-05T10:36:49.999Z</time></trkpt><trkpt lat="43.1308433" lon="11.655145"><ele>350.0</ele><time>2026-04-05T10:36:50.999Z</time></trkpt><trkpt lat="43.1308267" lon="11.6549467"><ele>350.0</ele><time>2026-04-05T10:36:51.999Z</time></trkpt><trkpt lat="43.130805" lon="11.6547483"><ele>349.6666666666667</ele><time>2026-04-05T10:36:52.999Z</time></trkpt><trkpt lat="43.1307833" lon="11.6545467"><ele>349.3333333333333</ele><time>2026-04-05T10:36:53.999Z</time></trkpt><trkpt lat="43.13076" lon="11.6543317"><ele>349.0</ele><time>2026-04-05T10:36:54.999Z</time></trkpt><trkpt lat="43.13074" lon="11.6541217"><ele>352.5</ele><time>2026-04-05T10:36:55.999Z</time></trkpt><trkpt lat="43.1307183" lon="11.65393"><ele>356.0</ele><time>2026-04-05T10:36:56.999Z</time></trkpt><trkpt lat="43.1306867" lon="11.6537417"><ele>359.5</ele><time>2026-04-05T10:36:57.999Z</time></trkpt><trkpt lat="43.130635" lon="11.653555"><ele>363.0</ele><time>2026-04-05T10:36:58.999Z</time></trkpt><trkpt lat="43.1305583" lon="11.6533883"><ele>363.0</ele><time>2026-04-05T10:36:59.999Z</time></trkpt><trkpt lat="43.13047" lon="11.6532483"><ele>363.0</ele><time>2026-04-05T10:37:00.999Z</time></trkpt><trkpt lat="43.1303483" lon="11.6531267"><ele>363.0</ele><time>2026-04-05T10:37:01.999Z</time></trkpt><trkpt lat="43.1302133" lon="11.6530333"><ele>363.0</ele><time>2026-04-05T10:37:02.999Z</time></trkpt><trkpt lat="43.1300683" lon="11.6529883"><ele>363.0</ele><time>2026-04-05T10:37:03.999Z</time></trkpt><trkpt lat="43.1299267" lon="11.6529883"><ele>363.0</ele><time>2026-04-05T10:37:04.999Z</time></trkpt><trkpt lat="43.129785" lon="11.6530117"><ele>363.0</ele><time>2026-04-05T10:37:05.999Z</time></trkpt><trkpt lat="43.1296617" lon="11.6530867"><ele>363.0</ele><time>2026-04-05T10:37:06.999Z</time></trkpt><trkpt lat="43.1295433" lon="11.6531933"><ele>365.75</ele><time>2026-04-05T10:37:07.999Z</time></trkpt><trkpt lat="43.12944" lon="11.6533117"><ele>368.5</ele><time>2026-04-05T10:37:08.999Z</time></trkpt><trkpt lat="43.1293383" lon="11.653445"><ele>371.25</ele><time>2026-04-05T10:37:09.999Z</time></trkpt><trkpt lat="43.1292367" lon="11.6535717"><ele>374.0</ele><time>2026-04-05T10:37:10.999Z</time></trkpt><trkpt lat="43.1291267" lon="11.653675"><ele>376.0</ele><time>2026-04-05T10:37:11.999Z</time></trkpt><trkpt lat="43.1290067" lon="11.653755"><ele>378.0</ele><time>2026-04-05T10:37:12.999Z</time></trkpt><trkpt lat="43.1288767" lon="11.6538117"><ele>380.0</ele><time>2026-04-05T10:37:13.999Z</time></trkpt><trkpt lat="43.1287417" lon="11.65386"><ele>382.0</ele><time>2026-04-05T10:37:14.999Z</time></trkpt><trkpt lat="43.1286017" lon="11.65391"><ele>382.0</ele><time>2026-04-05T10:37:15.999Z</time></trkpt><trkpt lat="43.1284617" lon="11.6539617"><ele>382.0</ele><time>2026-04-05T10:37:16.999Z</time></trkpt><trkpt lat="43.1283217" lon="11.6540133"><ele>382.0</ele><time>2026-04-05T10:37:17.999Z</time></trkpt><trkpt lat="43.1281833" lon="11.6540667"><ele>382.0</ele><time>2026-04-05T10:37:18.999Z</time></trkpt><trkpt lat="43.1280333" lon="11.6541217"><ele>384.25</ele><time>2026-04-05T10:37:19.999Z</time></trkpt><trkpt lat="43.12789" lon="11.6541767"><ele>386.5</ele><time>2026-04-05T10:37:20.999Z</time></trkpt><trkpt lat="43.1277517" lon="11.6542417"><ele>388.75</ele><time>2026-04-05T10:37:21.999Z</time></trkpt><trkpt lat="43.1276133" lon="11.6543183"><ele>391.0</ele><time>2026-04-05T10:37:22.999Z</time></trkpt><trkpt lat="43.1274783" lon="11.6543967"><ele>392.5</ele><time>2026-04-05T10:37:23.999Z</time></trkpt><trkpt lat="43.1273467" lon="11.6544783"><ele>394.0</ele><time>2026-04-05T10:37:24.999Z</time></trkpt><trkpt lat="43.127215" lon="11.654565"><ele>395.5</ele><time>2026-04-05T10:37:25.999Z</time></trkpt><trkpt lat="43.1270867" lon="11.6546467"><ele>397.0</ele><time>2026-04-05T10:37:26.999Z</time></trkpt><trkpt lat="43.1269617" lon="11.6547333"><ele>397.0</ele><time>2026-04-05T10:37:27.999Z</time></trkpt><trkpt lat="43.1268383" lon="11.6548117"><ele>397.0</ele><time>2026-04-05T10:37:28.999Z</time></trkpt><trkpt lat="43.1267283" lon="11.6548833"><ele>397.0</ele><time>2026-04-05T10:37:29.999Z</time></trkpt><trkpt lat="43.1266186" lon="11.6549557"><ele>397.0</ele><time>2026-04-05T10:37:30.999Z</time></trkpt><trkpt lat="43.1265234" lon="11.6550258"><ele>398.20000000000005</ele><time>2026-04-05T10:37:31.999Z</time></trkpt><trkpt lat="43.1264413" lon="11.6550939"><ele>399.4</ele><time>2026-04-05T10:37:32.999Z</time></trkpt><trkpt lat="43.1263685" lon="11.6551758"><ele>400.6</ele><time>2026-04-05T10:37:33.999Z</time></trkpt><trkpt lat="43.1263065" lon="11.655277"><ele>401.79999999999995</ele><time>2026-04-05T10:37:34.999Z</time></trkpt><trkpt lat="43.1262381" lon="11.6553854"><ele>403.0</ele><time>2026-04-05T10:37:35.999Z</time></trkpt><trkpt lat="43.1261707" lon="11.6555053"><ele>403.0</ele><time>2026-04-05T10:37:36.999Z</time></trkpt><trkpt lat="43.1260991" lon="11.6556271"><ele>403.0</ele><time>2026-04-05T10:37:37.999Z</time></trkpt><trkpt lat="43.1260268" lon="11.6557595"><ele>403.0</ele><time>2026-04-05T10:37:38.999Z</time></trkpt><trkpt lat="43.1259485" lon="11.6558938"><ele>403.0</ele><time>2026-04-05T10:37:39.999Z</time></trkpt><trkpt lat="43.1258767" lon="11.6560253"><ele>402.0</ele><time>2026-04-05T10:37:40.999Z</time></trkpt><trkpt lat="43.1258017" lon="11.6561492"><ele>401.0</ele><time>2026-04-05T10:37:41.999Z</time></trkpt><trkpt lat="43.1257193" lon="11.6562689"><ele>400.0</ele><time>2026-04-05T10:37:42.999Z</time></trkpt><trkpt lat="43.1256385" lon="11.6563878"><ele>399.0</ele><time>2026-04-05T10:37:43.999Z</time></trkpt><trkpt lat="43.1255458" lon="11.6564963"><ele>401.5</ele><time>2026-04-05T10:37:44.999Z</time></trkpt><trkpt lat="43.1254467" lon="11.6565985"><ele>404.0</ele><time>2026-04-05T10:37:45.999Z</time></trkpt><trkpt lat="43.1253411" lon="11.6567067"><ele>406.5</ele><time>2026-04-05T10:37:46.999Z</time></trkpt><trkpt lat="43.1252258" lon="11.6568234"><ele>409.0</ele><time>2026-04-05T10:37:47.999Z</time></trkpt><trkpt lat="43.1251002" lon="11.6569328"><ele>407.25</ele><time>2026-04-05T10:37:48.999Z</time></trkpt><trkpt lat="43.1249697" lon="11.6570241"><ele>405.5</ele><time>2026-04-05T10:37:49.999Z</time></trkpt><trkpt lat="43.1248335" lon="11.6570892"><ele>403.75</ele><time>2026-04-05T10:37:50.999Z</time></trkpt><trkpt lat="43.1246927" lon="11.65713"><ele>402.0</ele><time>2026-04-05T10:37:51.999Z</time></trkpt><trkpt lat="43.1245472" lon="11.6571615"><ele>402.0</ele><time>2026-04-05T10:37:52.999Z</time></trkpt><trkpt lat="43.1243967" lon="11.65719"><ele>402.0</ele><time>2026-04-05T10:37:53.999Z</time></trkpt><trkpt lat="43.1242436" lon="11.6572093"><ele>402.0</ele><time>2026-04-05T10:37:54.999Z</time></trkpt><trkpt lat="43.1240887" lon="11.6572234"><ele>402.66666666666663</ele><time>2026-04-05T10:37:55.999Z</time></trkpt><trkpt lat="43.1239349" lon="11.6572292"><ele>403.3333333333333</ele><time>2026-04-05T10:37:56.999Z</time></trkpt><trkpt lat="43.1237847" lon="11.6572228"><ele>404.0</ele><time>2026-04-05T10:37:57.999Z</time></trkpt><trkpt lat="43.1236359" lon="11.6572049"><ele>404.0</ele><time>2026-04-05T10:37:58.999Z</time></trkpt><trkpt lat="43.1234813" lon="11.6571802"><ele>404.0</ele><time>2026-04-05T10:37:59.999Z</time></trkpt><trkpt lat="43.1233342" lon="11.6571464"><ele>404.0</ele><time>2026-04-05T10:38:00.999Z</time></trkpt><trkpt lat="43.1231878" lon="11.657102"><ele>404.0</ele><time>2026-04-05T10:38:01.999Z</time></trkpt><trkpt lat="43.1230387" lon="11.6570448"><ele>404.0</ele><time>2026-04-05T10:38:02.999Z</time></trkpt><trkpt lat="43.1228959" lon="11.6569766"><ele>404.0</ele><time>2026-04-05T10:38:03.999Z</time></trkpt><trkpt lat="43.1227508" lon="11.6569176"><ele>406.0</ele><time>2026-04-05T10:38:04.999Z</time></trkpt><trkpt lat="43.1226038" lon="11.6568512"><ele>408.0</ele><time>2026-04-05T10:38:05.999Z</time></trkpt><trkpt lat="43.1224635" lon="11.656787"><ele>410.0</ele><time>2026-04-05T10:38:06.999Z</time></trkpt><trkpt lat="43.1223202" lon="11.6567315"><ele>410.75</ele><time>2026-04-05T10:38:07.999Z</time></trkpt><trkpt lat="43.1221857" lon="11.6566971"><ele>411.5</ele><time>2026-04-05T10:38:08.999Z</time></trkpt><trkpt lat="43.1220557" lon="11.6566819"><ele>412.25</ele><time>2026-04-05T10:38:09.999Z</time></trkpt><trkpt lat="43.1219243" lon="11.6566807"><ele>413.0</ele><time>2026-04-05T10:38:10.999Z</time></trkpt><trkpt lat="43.1217836" lon="11.6566964"><ele>413.0</ele><time>2026-04-05T10:38:11.999Z</time></trkpt><trkpt lat="43.1216382" lon="11.656728"><ele>413.0</ele><time>2026-04-05T10:38:12.999Z</time></trkpt><trkpt lat="43.1214917" lon="11.6567684"><ele>413.0</ele><time>2026-04-05T10:38:13.999Z</time></trkpt><trkpt lat="43.1213489" lon="11.6568251"><ele>413.0</ele><time>2026-04-05T10:38:14.999Z</time></trkpt><trkpt lat="43.1212048" lon="11.6568947"><ele>412.25</ele><time>2026-04-05T10:38:15.999Z</time></trkpt><trkpt lat="43.121066" lon="11.6569666"><ele>411.5</ele><time>2026-04-05T10:38:16.999Z</time></trkpt><trkpt lat="43.1209273" lon="11.6570405"><ele>410.75</ele><time>2026-04-05T10:38:17.999Z</time></trkpt><trkpt lat="43.12079" lon="11.6571174"><ele>410.0</ele><time>2026-04-05T10:38:18.999Z</time></trkpt><trkpt lat="43.1206544" lon="11.6571948"><ele>410.0</ele><time>2026-04-05T10:38:19.999Z</time></trkpt><trkpt lat="43.1205145" lon="11.6572649"><ele>410.0</ele><time>2026-04-05T10:38:20.999Z</time></trkpt><trkpt lat="43.1203764" lon="11.6573314"><ele>410.0</ele><time>2026-04-05T10:38:21.999Z</time></trkpt><trkpt lat="43.1202376" lon="11.6573976"><ele>410.0</ele><time>2026-04-05T10:38:22.999Z</time></trkpt><trkpt lat="43.1201019" lon="11.6574659"><ele>410.0</ele><time>2026-04-05T10:38:23.999Z</time></trkpt><trkpt lat="43.1199678" lon="11.6575356"><ele>410.0</ele><time>2026-04-05T10:38:24.999Z</time></trkpt><trkpt lat="43.119828" lon="11.6576026"><ele>410.0</ele><time>2026-04-05T10:38:25.999Z</time></trkpt><trkpt lat="43.1196877" lon="11.657675"><ele>410.0</ele><time>2026-04-05T10:38:26.999Z</time></trkpt><trkpt lat="43.1195426" lon="11.6577413"><ele>410.66666666666663</ele><time>2026-04-05T10:38:27.999Z</time></trkpt><trkpt lat="43.1194046" lon="11.6578089"><ele>411.33333333333337</ele><time>2026-04-05T10:38:28.999Z</time></trkpt><trkpt lat="43.1192633" lon="11.65788"><ele>412.0</ele><time>2026-04-05T10:38:29.999Z</time></trkpt><trkpt lat="43.1191163" lon="11.6579562"><ele>411.33333333333337</ele><time>2026-04-05T10:38:30.999Z</time></trkpt><trkpt lat="43.1189675" lon="11.6580392"><ele>410.66666666666663</ele><time>2026-04-05T10:38:31.999Z</time></trkpt><trkpt lat="43.1188137" lon="11.6581114"><ele>410.0</ele><time>2026-04-05T10:38:32.999Z</time></trkpt><trkpt lat="43.1186652" lon="11.6581839"><ele>410.0</ele><time>2026-04-05T10:38:33.999Z</time></trkpt><trkpt lat="43.1185193" lon="11.6582598"><ele>410.0</ele><time>2026-04-05T10:38:34.999Z</time></trkpt><trkpt lat="43.1183727" lon="11.6583335"><ele>410.0</ele><time>2026-04-05T10:38:35.999Z</time></trkpt><trkpt lat="43.1182237" lon="11.6584128"><ele>408.0</ele><time>2026-04-05T10:38:36.999Z</time></trkpt><trkpt lat="43.1180762" lon="11.6584901"><ele>406.0</ele><time>2026-04-05T10:38:37.999Z</time></trkpt><trkpt lat="43.1179289" lon="11.6585676"><ele>404.0</ele><time>2026-04-05T10:38:38.999Z</time></trkpt><trkpt lat="43.1177854" lon="11.6586481"><ele>403.0</ele><time>2026-04-05T10:38:39.999Z</time></trkpt><trkpt lat="43.1176357" lon="11.6587262"><ele>402.0</ele><time>2026-04-05T10:38:40.999Z</time></trkpt><trkpt lat="43.1174808" lon="11.6588029"><ele>401.0</ele><time>2026-04-05T10:38:41.999Z</time></trkpt><trkpt lat="43.1173246" lon="11.6588773"><ele>400.66666666666663</ele><time>2026-04-05T10:38:42.999Z</time></trkpt><trkpt lat="43.1171717" lon="11.6589531"><ele>400.33333333333337</ele><time>2026-04-05T10:38:43.999Z</time></trkpt><trkpt lat="43.1170149" lon="11.6590316"><ele>400.0</ele><time>2026-04-05T10:38:44.999Z</time></trkpt><trkpt lat="43.1168619" lon="11.6591149"><ele>400.0</ele><time>2026-04-05T10:38:45.999Z</time></trkpt><trkpt lat="43.1167096" lon="11.6591971"><ele>400.0</ele><time>2026-04-05T10:38:46.999Z</time></trkpt><trkpt lat="43.1165589" lon="11.6592679"><ele>400.0</ele><time>2026-04-05T10:38:47.999Z</time></trkpt><trkpt lat="43.116405" lon="11.6593435"><ele>400.33333333333337</ele><time>2026-04-05T10:38:48.999Z</time></trkpt><trkpt lat="43.1162526" lon="11.659417"><ele>400.66666666666663</ele><time>2026-04-05T10:38:49.999Z</time></trkpt><trkpt lat="43.1160976" lon="11.6594969"><ele>401.0</ele><time>2026-04-05T10:38:50.999Z</time></trkpt><trkpt lat="43.1159476" lon="11.6595749"><ele>398.66666666666663</ele><time>2026-04-05T10:38:51.999Z</time></trkpt><trkpt lat="43.1157915" lon="11.6596503"><ele>396.33333333333337</ele><time>2026-04-05T10:38:52.999Z</time></trkpt><trkpt lat="43.1156349" lon="11.6597287"><ele>394.0</ele><time>2026-04-05T10:38:53.999Z</time></trkpt><trkpt lat="43.1154844" lon="11.6597961"><ele>394.0</ele><time>2026-04-05T10:38:54.999Z</time></trkpt><trkpt lat="43.1153331" lon="11.6598488"><ele>394.0</ele><time>2026-04-05T10:38:55.999Z</time></trkpt><trkpt lat="43.1151805" lon="11.6598764"><ele>394.0</ele><time>2026-04-05T10:38:56.999Z</time></trkpt><trkpt lat="43.1150324" lon="11.6598929"><ele>392.0</ele><time>2026-04-05T10:38:57.999Z</time></trkpt><trkpt lat="43.114883" lon="11.6598963"><ele>390.0</ele><time>2026-04-05T10:38:58.999Z</time></trkpt><trkpt lat="43.114733" lon="11.6598997"><ele>388.0</ele><time>2026-04-05T10:38:59.999Z</time></trkpt><trkpt lat="43.1145818" lon="11.6599091"><ele>388.0</ele><time>2026-04-05T10:39:00.999Z</time></trkpt><trkpt lat="43.1144328" lon="11.659928"><ele>388.0</ele><time>2026-04-05T10:39:01.999Z</time></trkpt><trkpt lat="43.1142799" lon="11.6599494"><ele>388.0</ele><time>2026-04-05T10:39:02.999Z</time></trkpt><trkpt lat="43.1141331" lon="11.6599645"><ele>386.25</ele><time>2026-04-05T10:39:03.999Z</time></trkpt><trkpt lat="43.1139867" lon="11.6599798"><ele>384.5</ele><time>2026-04-05T10:39:04.999Z</time></trkpt><trkpt lat="43.1138415" lon="11.6599957"><ele>382.75</ele><time>2026-04-05T10:39:05.999Z</time></trkpt><trkpt lat="43.1136967" lon="11.6600086"><ele>381.0</ele><time>2026-04-05T10:39:06.999Z</time></trkpt><trkpt lat="43.1135591" lon="11.6600216"><ele>381.0</ele><time>2026-04-05T10:39:07.999Z</time></trkpt><trkpt lat="43.1134151" lon="11.6600144"><ele>381.0</ele><time>2026-04-05T10:39:08.999Z</time></trkpt><trkpt lat="43.1132692" lon="11.6599967"><ele>381.0</ele><time>2026-04-05T10:39:09.999Z</time></trkpt><trkpt lat="43.1131254" lon="11.6599578"><ele>381.0</ele><time>2026-04-05T10:39:10.999Z</time></trkpt><trkpt lat="43.1129817" lon="11.6599133"><ele>379.25</ele><time>2026-04-05T10:39:11.999Z</time></trkpt><trkpt lat="43.1128417" lon="11.65987"><ele>377.5</ele><time>2026-04-05T10:39:12.999Z</time></trkpt><trkpt lat="43.112695" lon="11.6598283"><ele>375.75</ele><time>2026-04-05T10:39:13.999Z</time></trkpt><trkpt lat="43.1125517" lon="11.659795"><ele>374.0</ele><time>2026-04-05T10:39:14.999Z</time></trkpt><trkpt lat="43.112395" lon="11.6597583"><ele>373.6666666666667</ele><time>2026-04-05T10:39:15.999Z</time></trkpt><trkpt lat="43.1122433" lon="11.6597217"><ele>373.3333333333333</ele><time>2026-04-05T10:39:16.999Z</time></trkpt><trkpt lat="43.1120833" lon="11.6596867"><ele>373.0</ele><time>2026-04-05T10:39:17.999Z</time></trkpt><trkpt lat="43.111935" lon="11.6596517"><ele>373.0</ele><time>2026-04-05T10:39:18.999Z</time></trkpt><trkpt lat="43.111785" lon="11.6596283"><ele>373.0</ele><time>2026-04-05T10:39:19.999Z</time></trkpt><trkpt lat="43.1116283" lon="11.659595"><ele>373.0</ele><time>2026-04-05T10:39:20.999Z</time></trkpt><trkpt lat="43.1114633" lon="11.6595667"><ele>373.0</ele><time>2026-04-05T10:39:21.999Z</time></trkpt><trkpt lat="43.1113067" lon="11.6595133"><ele>373.0</ele><time>2026-04-05T10:39:22.999Z</time></trkpt><trkpt lat="43.1111567" lon="11.6594383"><ele>373.0</ele><time>2026-04-05T10:39:23.999Z</time></trkpt><trkpt lat="43.1110183" lon="11.6593333"><ele>373.0</ele><time>2026-04-05T10:39:24.999Z</time></trkpt><trkpt lat="43.110895" lon="11.6592483"><ele>373.0</ele><time>2026-04-05T10:39:25.999Z</time></trkpt><trkpt lat="43.110785" lon="11.6592017"><ele>373.0</ele><time>2026-04-05T10:39:26.999Z</time></trkpt><trkpt lat="43.1106967" lon="11.6591783"><ele>373.0</ele><time>2026-04-05T10:39:27.999Z</time></trkpt><trkpt lat="43.1106217" lon="11.6591783"><ele>373.0</ele><time>2026-04-05T10:39:28.999Z</time></trkpt><trkpt lat="43.1105417" lon="11.6591867"><ele>373.0</ele><time>2026-04-05T10:39:29.999Z</time></trkpt><trkpt lat="43.1104483" lon="11.659215"><ele>373.0</ele><time>2026-04-05T10:39:30.999Z</time></trkpt><trkpt lat="43.1103483" lon="11.6592717"><ele>373.0</ele><time>2026-04-05T10:39:31.999Z</time></trkpt><trkpt lat="43.1102383" lon="11.659335"><ele>373.0</ele><time>2026-04-05T10:39:32.999Z</time></trkpt><trkpt lat="43.1101167" lon="11.65941"><ele>371.5</ele><time>2026-04-05T10:39:33.999Z</time></trkpt><trkpt lat="43.1099933" lon="11.659495"><ele>370.0</ele><time>2026-04-05T10:39:34.999Z</time></trkpt><trkpt lat="43.1098633" lon="11.6595767"><ele>368.5</ele><time>2026-04-05T10:39:35.999Z</time></trkpt><trkpt lat="43.109725" lon="11.65966"><ele>367.0</ele><time>2026-04-05T10:39:36.999Z</time></trkpt><trkpt lat="43.1095883" lon="11.65974"><ele>365.3333333333333</ele><time>2026-04-05T10:39:37.999Z</time></trkpt><trkpt lat="43.10945" lon="11.6598233"><ele>363.6666666666667</ele><time>2026-04-05T10:39:38.999Z</time></trkpt><trkpt lat="43.109315" lon="11.6599117"><ele>362.0</ele><time>2026-04-05T10:39:39.999Z</time></trkpt><trkpt lat="43.1091733" lon="11.65998"><ele>361.5</ele><time>2026-04-05T10:39:40.999Z</time></trkpt><trkpt lat="43.10903" lon="11.660045"><ele>361.0</ele><time>2026-04-05T10:39:41.999Z</time></trkpt><trkpt lat="43.1088933" lon="11.6600867"><ele>360.5</ele><time>2026-04-05T10:39:42.999Z</time></trkpt><trkpt lat="43.108755" lon="11.6600667"><ele>360.0</ele><time>2026-04-05T10:39:43.999Z</time></trkpt><trkpt lat="43.108625" lon="11.6600167"><ele>360.0</ele><time>2026-04-05T10:39:44.999Z</time></trkpt><trkpt lat="43.1084983" lon="11.6599617"><ele>360.0</ele><time>2026-04-05T10:39:45.999Z</time></trkpt><trkpt lat="43.10836" lon="11.659915"><ele>360.0</ele><time>2026-04-05T10:39:46.999Z</time></trkpt><trkpt lat="43.10822" lon="11.6598967"><ele>360.0</ele><time>2026-04-05T10:39:47.999Z</time></trkpt><trkpt lat="43.108065" lon="11.6598967"><ele>357.6666666666667</ele><time>2026-04-05T10:39:48.999Z</time></trkpt><trkpt lat="43.107915" lon="11.65992"><ele>355.33333333333337</ele><time>2026-04-05T10:39:49.999Z</time></trkpt><trkpt lat="43.1077633" lon="11.6599483"><ele>353.0</ele><time>2026-04-05T10:39:50.999Z</time></trkpt><trkpt lat="43.1076133" lon="11.6599633"><ele>353.0</ele><time>2026-04-05T10:39:51.999Z</time></trkpt><trkpt lat="43.1074617" lon="11.6599783"><ele>353.0</ele><time>2026-04-05T10:39:52.999Z</time></trkpt><trkpt lat="43.1073067" lon="11.65998"><ele>353.0</ele><time>2026-04-05T10:39:53.999Z</time></trkpt><trkpt lat="43.1071567" lon="11.6599633"><ele>351.0</ele><time>2026-04-05T10:39:54.999Z</time></trkpt><trkpt lat="43.10701" lon="11.659955"><ele>349.0</ele><time>2026-04-05T10:39:55.999Z</time></trkpt><trkpt lat="43.1068667" lon="11.65994"><ele>347.0</ele><time>2026-04-05T10:39:56.999Z</time></trkpt><trkpt lat="43.1067267" lon="11.659925"><ele>345.0</ele><time>2026-04-05T10:39:57.999Z</time></trkpt><trkpt lat="43.10658" lon="11.659905"><ele>343.5</ele><time>2026-04-05T10:39:58.999Z</time></trkpt><trkpt lat="43.1064317" lon="11.6598683"><ele>342.0</ele><time>2026-04-05T10:39:59.999Z</time></trkpt><trkpt lat="43.1062883" lon="11.6598333"><ele>340.5</ele><time>2026-04-05T10:40:00.999Z</time></trkpt><trkpt lat="43.1061533" lon="11.6598183"><ele>339.0</ele><time>2026-04-05T10:40:01.999Z</time></trkpt><trkpt lat="43.1060167" lon="11.6598167"><ele>339.0</ele><time>2026-04-05T10:40:02.999Z</time></trkpt><trkpt lat="43.1058717" lon="11.6598367"><ele>339.0</ele><time>2026-04-05T10:40:03.999Z</time></trkpt><trkpt lat="43.10573" lon="11.659875"><ele>339.0</ele><time>2026-04-05T10:40:04.999Z</time></trkpt><trkpt lat="43.105585" lon="11.65992"><ele>339.0</ele><time>2026-04-05T10:40:05.999Z</time></trkpt><trkpt lat="43.1054417" lon="11.65996"><ele>339.25</ele><time>2026-04-05T10:40:06.999Z</time></trkpt><trkpt lat="43.1052967" lon="11.6599917"><ele>339.5</ele><time>2026-04-05T10:40:07.999Z</time></trkpt><trkpt lat="43.10515" lon="11.6600283"><ele>339.75</ele><time>2026-04-05T10:40:08.999Z</time></trkpt><trkpt lat="43.105005" lon="11.6600933"><ele>340.0</ele><time>2026-04-05T10:40:09.999Z</time></trkpt><trkpt lat="43.1048617" lon="11.6601767"><ele>340.0</ele><time>2026-04-05T10:40:10.999Z</time></trkpt><trkpt lat="43.104725" lon="11.6602667"><ele>340.0</ele><time>2026-04-05T10:40:11.999Z</time></trkpt><trkpt lat="43.1045817" lon="11.6603567"><ele>340.0</ele><time>2026-04-05T10:40:12.999Z</time></trkpt><trkpt lat="43.10444" lon="11.660445"><ele>340.25</ele><time>2026-04-05T10:40:13.999Z</time></trkpt><trkpt lat="43.1043" lon="11.66052"><ele>340.5</ele><time>2026-04-05T10:40:14.999Z</time></trkpt><trkpt lat="43.1041683" lon="11.660585"><ele>340.75</ele><time>2026-04-05T10:40:15.999Z</time></trkpt><trkpt lat="43.104035" lon="11.6606283"><ele>341.0</ele><time>2026-04-05T10:40:16.999Z</time></trkpt><trkpt lat="43.1038983" lon="11.66064"><ele>341.0</ele><time>2026-04-05T10:40:17.999Z</time></trkpt><trkpt lat="43.1037567" lon="11.6606133"><ele>341.0</ele><time>2026-04-05T10:40:18.999Z</time></trkpt><trkpt lat="43.1036083" lon="11.6605633"><ele>341.0</ele><time>2026-04-05T10:40:19.999Z</time></trkpt><trkpt lat="43.103455" lon="11.66051"><ele>341.0</ele><time>2026-04-05T10:40:20.999Z</time></trkpt><trkpt lat="43.1033" lon="11.66046"><ele>341.0</ele><time>2026-04-05T10:40:21.999Z</time></trkpt><trkpt lat="43.103145" lon="11.660405"><ele>341.0</ele><time>2026-04-05T10:40:22.999Z</time></trkpt><trkpt lat="43.1029933" lon="11.6603483"><ele>341.33333333333337</ele><time>2026-04-05T10:40:23.999Z</time></trkpt><trkpt lat="43.102835" lon="11.6602933"><ele>341.6666666666667</ele><time>2026-04-05T10:40:24.999Z</time></trkpt><trkpt lat="43.1026783" lon="11.66024"><ele>342.0</ele><time>2026-04-05T10:40:25.999Z</time></trkpt><trkpt lat="43.1025217" lon="11.660185"><ele>343.5</ele><time>2026-04-05T10:40:26.999Z</time></trkpt><trkpt lat="43.102375" lon="11.6601367"><ele>345.0</ele><time>2026-04-05T10:40:27.999Z</time></trkpt><trkpt lat="43.1022267" lon="11.6600933"><ele>346.5</ele><time>2026-04-05T10:40:28.999Z</time></trkpt><trkpt lat="43.1020833" lon="11.6600567"><ele>348.0</ele><time>2026-04-05T10:40:29.999Z</time></trkpt><trkpt lat="43.1019333" lon="11.660055"><ele>348.0</ele><time>2026-04-05T10:40:30.999Z</time></trkpt><trkpt lat="43.1017867" lon="11.6600783"><ele>348.0</ele><time>2026-04-05T10:40:31.999Z</time></trkpt><trkpt lat="43.1016417" lon="11.6601417"><ele>348.0</ele><time>2026-04-05T10:40:32.999Z</time></trkpt><trkpt lat="43.1015033" lon="11.660215"><ele>348.0</ele><time>2026-04-05T10:40:33.999Z</time></trkpt><trkpt lat="43.101365" lon="11.6602917"><ele>348.5</ele><time>2026-04-05T10:40:34.999Z</time></trkpt><trkpt lat="43.1012333" lon="11.66037"><ele>349.0</ele><time>2026-04-05T10:40:35.999Z</time></trkpt><trkpt lat="43.1011033" lon="11.660445"><ele>349.5</ele><time>2026-04-05T10:40:36.999Z</time></trkpt><trkpt lat="43.1009717" lon="11.6605183"><ele>350.0</ele><time>2026-04-05T10:40:37.999Z</time></trkpt><trkpt lat="43.10084" lon="11.66059"><ele>351.0</ele><time>2026-04-05T10:40:38.999Z</time></trkpt><trkpt lat="43.1007067" lon="11.6606683"><ele>352.0</ele><time>2026-04-05T10:40:39.999Z</time></trkpt><trkpt lat="43.1005783" lon="11.66075"><ele>353.0</ele><time>2026-04-05T10:40:40.999Z</time></trkpt><trkpt lat="43.1004333" lon="11.660835"><ele>354.0</ele><time>2026-04-05T10:40:41.999Z</time></trkpt><trkpt lat="43.1002917" lon="11.6609233"><ele>354.0</ele><time>2026-04-05T10:40:42.999Z</time></trkpt><trkpt lat="43.1001367" lon="11.6609933"><ele>354.0</ele><time>2026-04-05T10:40:43.999Z</time></trkpt><trkpt lat="43.099975" lon="11.6610217"><ele>354.0</ele><time>2026-04-05T10:40:44.999Z</time></trkpt><trkpt lat="43.099815" lon="11.6610317"><ele>355.6666666666667</ele><time>2026-04-05T10:40:45.999Z</time></trkpt><trkpt lat="43.099655" lon="11.6610217"><ele>357.33333333333337</ele><time>2026-04-05T10:40:46.999Z</time></trkpt><trkpt lat="43.0994983" lon="11.6610033"><ele>359.0</ele><time>2026-04-05T10:40:47.999Z</time></trkpt><trkpt lat="43.0993467" lon="11.6609833"><ele>359.0</ele><time>2026-04-05T10:40:48.999Z</time></trkpt><trkpt lat="43.0992" lon="11.66097"><ele>359.0</ele><time>2026-04-05T10:40:49.999Z</time></trkpt><trkpt lat="43.099055" lon="11.6609517"><ele>359.0</ele><time>2026-04-05T10:40:50.999Z</time></trkpt><trkpt lat="43.0989117" lon="11.6609233"><ele>359.0</ele><time>2026-04-05T10:40:51.999Z</time></trkpt><trkpt lat="43.0987667" lon="11.660895"><ele>360.6666666666667</ele><time>2026-04-05T10:40:52.999Z</time></trkpt><trkpt lat="43.0986217" lon="11.6608583"><ele>362.3333333333333</ele><time>2026-04-05T10:40:53.999Z</time></trkpt><trkpt lat="43.09847" lon="11.6608183"><ele>364.0</ele><time>2026-04-05T10:40:54.999Z</time></trkpt><trkpt lat="43.0983217" lon="11.6607817"><ele>365.75</ele><time>2026-04-05T10:40:55.999Z</time></trkpt><trkpt lat="43.0981733" lon="11.6607467"><ele>367.5</ele><time>2026-04-05T10:40:56.999Z</time></trkpt><trkpt lat="43.0980283" lon="11.6607317"><ele>369.25</ele><time>2026-04-05T10:40:57.999Z</time></trkpt><trkpt lat="43.0978783" lon="11.66074"><ele>371.0</ele><time>2026-04-05T10:40:58.999Z</time></trkpt><trkpt lat="43.0977283" lon="11.660765"><ele>371.0</ele><time>2026-04-05T10:40:59.999Z</time></trkpt><trkpt lat="43.0975783" lon="11.6607983"><ele>371.0</ele><time>2026-04-05T10:41:00.999Z</time></trkpt><trkpt lat="43.0974283" lon="11.660835"><ele>371.0</ele><time>2026-04-05T10:41:01.999Z</time></trkpt><trkpt lat="43.09728" lon="11.66087"><ele>372.25</ele><time>2026-04-05T10:41:02.999Z</time></trkpt><trkpt lat="43.0971333" lon="11.66091"><ele>373.5</ele><time>2026-04-05T10:41:03.999Z</time></trkpt><trkpt lat="43.0969917" lon="11.660945"><ele>374.75</ele><time>2026-04-05T10:41:04.999Z</time></trkpt><trkpt lat="43.0968483" lon="11.6609783"><ele>376.0</ele><time>2026-04-05T10:41:05.999Z</time></trkpt><trkpt lat="43.0967067" lon="11.6610117"><ele>377.25</ele><time>2026-04-05T10:41:06.999Z</time></trkpt><trkpt lat="43.0965717" lon="11.6610317"><ele>378.5</ele><time>2026-04-05T10:41:07.999Z</time></trkpt><trkpt lat="43.0964367" lon="11.6610333"><ele>379.75</ele><time>2026-04-05T10:41:08.999Z</time></trkpt><trkpt lat="43.0962867" lon="11.661015"><ele>381.0</ele><time>2026-04-05T10:41:09.999Z</time></trkpt><trkpt lat="43.0961317" lon="11.6609767"><ele>381.0</ele><time>2026-04-05T10:41:10.999Z</time></trkpt><trkpt lat="43.09598" lon="11.6609333"><ele>381.0</ele><time>2026-04-05T10:41:11.999Z</time></trkpt><trkpt lat="43.095825" lon="11.66088"><ele>381.0</ele><time>2026-04-05T10:41:12.999Z</time></trkpt><trkpt lat="43.095675" lon="11.66082"><ele>383.0</ele><time>2026-04-05T10:41:13.999Z</time></trkpt><trkpt lat="43.0955283" lon="11.660775"><ele>385.0</ele><time>2026-04-05T10:41:14.999Z</time></trkpt><trkpt lat="43.0953883" lon="11.6607567"><ele>387.0</ele><time>2026-04-05T10:41:15.999Z</time></trkpt><trkpt lat="43.0952433" lon="11.66077"><ele>389.0</ele><time>2026-04-05T10:41:16.999Z</time></trkpt><trkpt lat="43.0951067" lon="11.66082"><ele>389.0</ele><time>2026-04-05T10:41:17.999Z</time></trkpt><trkpt lat="43.09497" lon="11.6608967"><ele>389.0</ele><time>2026-04-05T10:41:18.999Z</time></trkpt><trkpt lat="43.0948183" lon="11.6609667"><ele>389.0</ele><time>2026-04-05T10:41:19.999Z</time></trkpt><trkpt lat="43.09466" lon="11.6610017"><ele>390.3333333333333</ele><time>2026-04-05T10:41:20.999Z</time></trkpt><trkpt lat="43.0944967" lon="11.6610083"><ele>391.66666666666663</ele><time>2026-04-05T10:41:21.999Z</time></trkpt><trkpt lat="43.094335" lon="11.6610033"><ele>393.0</ele><time>2026-04-05T10:41:22.999Z</time></trkpt><trkpt lat="43.0941717" lon="11.6610017"><ele>394.33333333333337</ele><time>2026-04-05T10:41:23.999Z</time></trkpt><trkpt lat="43.094005" lon="11.6610017"><ele>395.6666666666667</ele><time>2026-04-05T10:41:24.999Z</time></trkpt><trkpt lat="43.0938383" lon="11.6610017"><ele>397.0</ele><time>2026-04-05T10:41:25.999Z</time></trkpt><trkpt lat="43.0936717" lon="11.661005"><ele>397.0</ele><time>2026-04-05T10:41:26.999Z</time></trkpt><trkpt lat="43.0935033" lon="11.6610133"><ele>397.0</ele><time>2026-04-05T10:41:27.999Z</time></trkpt><trkpt lat="43.093335" lon="11.6610217"><ele>397.0</ele><time>2026-04-05T10:41:28.999Z</time></trkpt><trkpt lat="43.0931667" lon="11.6610267"><ele>399.33333333333337</ele><time>2026-04-05T10:41:29.999Z</time></trkpt><trkpt lat="43.0930083" lon="11.66104"><ele>401.66666666666663</ele><time>2026-04-05T10:41:30.999Z</time></trkpt><trkpt lat="43.092845" lon="11.661045"><ele>404.0</ele><time>2026-04-05T10:41:31.999Z</time></trkpt><trkpt lat="43.0926817" lon="11.66105"><ele>404.0</ele><time>2026-04-05T10:41:32.999Z</time></trkpt><trkpt lat="43.0925233" lon="11.6610617"><ele>404.0</ele><time>2026-04-05T10:41:33.999Z</time></trkpt><trkpt lat="43.09236" lon="11.661075"><ele>404.0</ele><time>2026-04-05T10:41:34.999Z</time></trkpt><trkpt lat="43.092195" lon="11.6610933"><ele>406.3333333333333</ele><time>2026-04-05T10:41:35.999Z</time></trkpt><trkpt lat="43.09203" lon="11.6611067"><ele>408.66666666666663</ele><time>2026-04-05T10:41:36.999Z</time></trkpt><trkpt lat="43.0918717" lon="11.661125"><ele>411.0</ele><time>2026-04-05T10:41:37.999Z</time></trkpt><trkpt lat="43.0917083" lon="11.6611467"><ele>413.33333333333337</ele><time>2026-04-05T10:41:38.999Z</time></trkpt><trkpt lat="43.09155" lon="11.6611667"><ele>415.6666666666667</ele><time>2026-04-05T10:41:39.999Z</time></trkpt><trkpt lat="43.0913933" lon="11.6611883"><ele>418.0</ele><time>2026-04-05T10:41:40.999Z</time></trkpt><trkpt lat="43.091235" lon="11.66121"><ele>418.0</ele><time>2026-04-05T10:41:41.999Z</time></trkpt><trkpt lat="43.0910767" lon="11.6612283"><ele>418.0</ele><time>2026-04-05T10:41:42.999Z</time></trkpt><trkpt lat="43.0909167" lon="11.661245"><ele>418.0</ele><time>2026-04-05T10:41:43.999Z</time></trkpt><trkpt lat="43.09076" lon="11.6612417"><ele>420.6666666666667</ele><time>2026-04-05T10:41:44.999Z</time></trkpt><trkpt lat="43.0905967" lon="11.6612167"><ele>423.33333333333337</ele><time>2026-04-05T10:41:45.999Z</time></trkpt><trkpt lat="43.0904333" lon="11.6611867"><ele>426.0</ele><time>2026-04-05T10:41:46.999Z</time></trkpt><trkpt lat="43.09027" lon="11.6611467"><ele>425.33333333333337</ele><time>2026-04-05T10:41:47.999Z</time></trkpt><trkpt lat="43.0901067" lon="11.6611"><ele>424.6666666666667</ele><time>2026-04-05T10:41:48.999Z</time></trkpt><trkpt lat="43.0899517" lon="11.6610733"><ele>424.0</ele><time>2026-04-05T10:41:49.999Z</time></trkpt><trkpt lat="43.089795" lon="11.6610683"><ele>427.33333333333337</ele><time>2026-04-05T10:41:50.999Z</time></trkpt><trkpt lat="43.0896417" lon="11.6610867"><ele>430.66666666666663</ele><time>2026-04-05T10:41:51.999Z</time></trkpt><trkpt lat="43.0894883" lon="11.6611333"><ele>434.0</ele><time>2026-04-05T10:41:52.999Z</time></trkpt><trkpt lat="43.0893483" lon="11.6612"><ele>434.3333333333333</ele><time>2026-04-05T10:41:53.999Z</time></trkpt><trkpt lat="43.0892217" lon="11.6612933"><ele>434.66666666666663</ele><time>2026-04-05T10:41:54.999Z</time></trkpt><trkpt lat="43.089095" lon="11.6614083"><ele>435.0</ele><time>2026-04-05T10:41:55.999Z</time></trkpt><trkpt lat="43.0889717" lon="11.661535"><ele>436.0</ele><time>2026-04-05T10:41:56.999Z</time></trkpt><trkpt lat="43.0888467" lon="11.6616633"><ele>437.0</ele><time>2026-04-05T10:41:57.999Z</time></trkpt><trkpt lat="43.08872" lon="11.6617933"><ele>438.0</ele><time>2026-04-05T10:41:58.999Z</time></trkpt><trkpt lat="43.0885917" lon="11.6619067"><ele>437.66666666666663</ele><time>2026-04-05T10:41:59.999Z</time></trkpt><trkpt lat="43.0884567" lon="11.6619967"><ele>437.3333333333333</ele><time>2026-04-05T10:42:00.999Z</time></trkpt><trkpt lat="43.088315" lon="11.662055"><ele>437.0</ele><time>2026-04-05T10:42:01.999Z</time></trkpt><trkpt lat="43.0881617" lon="11.662095"><ele>438.5</ele><time>2026-04-05T10:42:02.999Z</time></trkpt><trkpt lat="43.0880117" lon="11.6621267"><ele>440.0</ele><time>2026-04-05T10:42:03.999Z</time></trkpt><trkpt lat="43.087875" lon="11.6621583"><ele>441.5</ele><time>2026-04-05T10:42:04.999Z</time></trkpt><trkpt lat="43.08775" lon="11.6622017"><ele>443.0</ele><time>2026-04-05T10:42:05.999Z</time></trkpt><trkpt lat="43.0876317" lon="11.66226"><ele>443.0</ele><time>2026-04-05T10:42:06.999Z</time></trkpt><trkpt lat="43.0875217" lon="11.6623417"><ele>443.0</ele><time>2026-04-05T10:42:07.999Z</time></trkpt><trkpt lat="43.0874167" lon="11.66244"><ele>443.0</ele><time>2026-04-05T10:42:08.999Z</time></trkpt><trkpt lat="43.0873217" lon="11.66255"><ele>443.0</ele><time>2026-04-05T10:42:09.999Z</time></trkpt><trkpt lat="43.0872217" lon="11.662665"><ele>444.5</ele><time>2026-04-05T10:42:10.999Z</time></trkpt><trkpt lat="43.087125" lon="11.662785"><ele>446.0</ele><time>2026-04-05T10:42:11.999Z</time></trkpt><trkpt lat="43.0870333" lon="11.6629083"><ele>447.5</ele><time>2026-04-05T10:42:12.999Z</time></trkpt><trkpt lat="43.086945" lon="11.6630417"><ele>449.0</ele><time>2026-04-05T10:42:13.999Z</time></trkpt><trkpt lat="43.0868583" lon="11.6631767"><ele>449.0</ele><time>2026-04-05T10:42:14.999Z</time></trkpt><trkpt lat="43.0867667" lon="11.6633033"><ele>449.0</ele><time>2026-04-05T10:42:15.999Z</time></trkpt><trkpt lat="43.086675" lon="11.6634183"><ele>449.0</ele><time>2026-04-05T10:42:16.999Z</time></trkpt><trkpt lat="43.0865717" lon="11.6635317"><ele>449.0</ele><time>2026-04-05T10:42:17.999Z</time></trkpt><trkpt lat="43.0864667" lon="11.6636417"><ele>450.0</ele><time>2026-04-05T10:42:18.999Z</time></trkpt><trkpt lat="43.0863667" lon="11.6637483"><ele>451.0</ele><time>2026-04-05T10:42:19.999Z</time></trkpt><trkpt lat="43.086265" lon="11.663845"><ele>452.0</ele><time>2026-04-05T10:42:20.999Z</time></trkpt><trkpt lat="43.0861683" lon="11.6639367"><ele>453.0</ele><time>2026-04-05T10:42:21.999Z</time></trkpt><trkpt lat="43.0860633" lon="11.6640267"><ele>453.0</ele><time>2026-04-05T10:42:22.999Z</time></trkpt><trkpt lat="43.0859583" lon="11.6641067"><ele>453.0</ele><time>2026-04-05T10:42:23.999Z</time></trkpt><trkpt lat="43.0858517" lon="11.664175"><ele>453.0</ele><time>2026-04-05T10:42:24.999Z</time></trkpt><trkpt lat="43.0857467" lon="11.6642333"><ele>453.0</ele><time>2026-04-05T10:42:25.999Z</time></trkpt><trkpt lat="43.0856417" lon="11.6642817"><ele>453.8333333333333</ele><time>2026-04-05T10:42:26.999Z</time></trkpt><trkpt lat="43.0855517" lon="11.6643217"><ele>454.66666666666663</ele><time>2026-04-05T10:42:27.999Z</time></trkpt><trkpt lat="43.08547" lon="11.6643517"><ele>455.5</ele><time>2026-04-05T10:42:28.999Z</time></trkpt><trkpt lat="43.0854017" lon="11.664375"><ele>456.3333333333333</ele><time>2026-04-05T10:42:29.999Z</time></trkpt><trkpt lat="43.085295" lon="11.6644017"><ele>457.16666666666663</ele><time>2026-04-05T10:42:31.999Z</time></trkpt><trkpt lat="43.0852183" lon="11.6643933"><ele>458.0</ele><time>2026-04-05T10:42:34.999Z</time></trkpt><trkpt lat="43.0852133" lon="11.66429"><ele>458.0</ele><time>2026-04-05T10:42:40.999Z</time></trkpt><trkpt lat="43.0852483" lon="11.66414"><ele>457.99999999999994</ele><time>2026-04-05T10:42:42.999Z</time></trkpt><trkpt lat="43.0852683" lon="11.6640383"><ele>457.99999999999994</ele><time>2026-04-05T10:42:43.999Z</time></trkpt><trkpt lat="43.0852933" lon="11.6639333"><ele>458.0</ele><time>2026-04-05T10:42:44.999Z</time></trkpt><trkpt lat="43.0853217" lon="11.663825"><ele>458.0</ele><time>2026-04-05T10:42:45.999Z</time></trkpt><trkpt lat="43.0853483" lon="11.6637017"><ele>457.5</ele><time>2026-04-05T10:42:46.999Z</time></trkpt><trkpt lat="43.0853817" lon="11.66356"><ele>457.0</ele><time>2026-04-05T10:42:47.999Z</time></trkpt><trkpt lat="43.08542" lon="11.6634067"><ele>456.5</ele><time>2026-04-05T10:42:48.999Z</time></trkpt><trkpt lat="43.0854567" lon="11.6632417"><ele>456.0</ele><time>2026-04-05T10:42:49.999Z</time></trkpt><trkpt lat="43.0854967" lon="11.6630733"><ele>456.0</ele><time>2026-04-05T10:42:50.999Z</time></trkpt><trkpt lat="43.0855383" lon="11.6628967"><ele>456.0</ele><time>2026-04-05T10:42:51.999Z</time></trkpt><trkpt lat="43.0855883" lon="11.662715"><ele>456.0</ele><time>2026-04-05T10:42:52.999Z</time></trkpt><trkpt lat="43.085645" lon="11.6625333"><ele>456.0</ele><time>2026-04-05T10:42:53.999Z</time></trkpt><trkpt lat="43.0857117" lon="11.66235"><ele>454.33333333333337</ele><time>2026-04-05T10:42:54.999Z</time></trkpt><trkpt lat="43.085775" lon="11.6621667"><ele>452.6666666666667</ele><time>2026-04-05T10:42:55.999Z</time></trkpt><trkpt lat="43.085845" lon="11.661985"><ele>451.0</ele><time>2026-04-05T10:42:57Z</time></trkpt><trkpt lat="43.085915" lon="11.6617983"><ele>450.0</ele><time>2026-04-05T10:42:57.999Z</time></trkpt><trkpt lat="43.0859867" lon="11.6616183"><ele>449.0</ele><time>2026-04-05T10:42:58.999Z</time></trkpt><trkpt lat="43.0860583" lon="11.6614333"><ele>448.0</ele><time>2026-04-05T10:42:59.999Z</time></trkpt><trkpt lat="43.08613" lon="11.6612467"><ele>446.5</ele><time>2026-04-05T10:43:00.999Z</time></trkpt><trkpt lat="43.0861967" lon="11.6610667"><ele>445.0</ele><time>2026-04-05T10:43:01.999Z</time></trkpt><trkpt lat="43.086265" lon="11.6608867"><ele>443.5</ele><time>2026-04-05T10:43:02.999Z</time></trkpt><trkpt lat="43.0863383" lon="11.6607167"><ele>442.0</ele><time>2026-04-05T10:43:03.999Z</time></trkpt><trkpt lat="43.0864133" lon="11.66054"><ele>442.0</ele><time>2026-04-05T10:43:04.999Z</time></trkpt><trkpt lat="43.086485" lon="11.66037"><ele>442.0</ele><time>2026-04-05T10:43:05.999Z</time></trkpt><trkpt lat="43.08655" lon="11.660215"><ele>442.0</ele><time>2026-04-05T10:43:06.999Z</time></trkpt><trkpt lat="43.0866283" lon="11.6600833"><ele>442.0</ele><time>2026-04-05T10:43:07.999Z</time></trkpt><trkpt lat="43.0867267" lon="11.6599767"><ele>441.25</ele><time>2026-04-05T10:43:08.999Z</time></trkpt><trkpt lat="43.0868433" lon="11.6599067"><ele>440.5</ele><time>2026-04-05T10:43:09.999Z</time></trkpt><trkpt lat="43.0869767" lon="11.6598717"><ele>439.75</ele><time>2026-04-05T10:43:10.999Z</time></trkpt><trkpt lat="43.08712" lon="11.6598733"><ele>439.0</ele><time>2026-04-05T10:43:11.999Z</time></trkpt><trkpt lat="43.087265" lon="11.65989"><ele>439.0</ele><time>2026-04-05T10:43:12.999Z</time></trkpt><trkpt lat="43.087405" lon="11.6599083"><ele>439.0</ele><time>2026-04-05T10:43:13.999Z</time></trkpt><trkpt lat="43.0875533" lon="11.65993"><ele>439.0</ele><time>2026-04-05T10:43:14.999Z</time></trkpt><trkpt lat="43.0877" lon="11.6599533"><ele>439.0</ele><time>2026-04-05T10:43:15.999Z</time></trkpt><trkpt lat="43.0878417" lon="11.6599767"><ele>438.5</ele><time>2026-04-05T10:43:16.999Z</time></trkpt><trkpt lat="43.087985" lon="11.66"><ele>438.0</ele><time>2026-04-05T10:43:17.999Z</time></trkpt><trkpt lat="43.0881183" lon="11.6600167"><ele>437.5</ele><time>2026-04-05T10:43:19Z</time></trkpt><trkpt lat="43.0882367" lon="11.6600067"><ele>437.0</ele><time>2026-04-05T10:43:19.999Z</time></trkpt><trkpt lat="43.0883567" lon="11.65996"><ele>436.0</ele><time>2026-04-05T10:43:20.999Z</time></trkpt><trkpt lat="43.0884517" lon="11.6598783"><ele>435.0</ele><time>2026-04-05T10:43:21.999Z</time></trkpt><trkpt lat="43.088535" lon="11.6597633"><ele>434.0</ele><time>2026-04-05T10:43:22.999Z</time></trkpt><trkpt lat="43.0885917" lon="11.659625"><ele>433.0</ele><time>2026-04-05T10:43:23.999Z</time></trkpt><trkpt lat="43.088615" lon="11.6594767"><ele>431.75</ele><time>2026-04-05T10:43:24.999Z</time></trkpt><trkpt lat="43.0885967" lon="11.65933"><ele>430.5</ele><time>2026-04-05T10:43:25.999Z</time></trkpt><trkpt lat="43.0885533" lon="11.659185"><ele>429.25</ele><time>2026-04-05T10:43:26.999Z</time></trkpt><trkpt lat="43.0884983" lon="11.6590433"><ele>428.0</ele><time>2026-04-05T10:43:27.999Z</time></trkpt><trkpt lat="43.088455" lon="11.6589017"><ele>428.0</ele><time>2026-04-05T10:43:28.999Z</time></trkpt><trkpt lat="43.08845" lon="11.6587517"><ele>428.0</ele><time>2026-04-05T10:43:29.999Z</time></trkpt><trkpt lat="43.0884867" lon="11.658595"><ele>428.0</ele><time>2026-04-05T10:43:30.999Z</time></trkpt><trkpt lat="43.0885567" lon="11.658435"><ele>428.0</ele><time>2026-04-05T10:43:31.999Z</time></trkpt><trkpt lat="43.08866" lon="11.6583"><ele>427.0</ele><time>2026-04-05T10:43:32.999Z</time></trkpt><trkpt lat="43.088765" lon="11.6581633"><ele>426.0</ele><time>2026-04-05T10:43:33.999Z</time></trkpt><trkpt lat="43.0888733" lon="11.6580267"><ele>425.0</ele><time>2026-04-05T10:43:34.999Z</time></trkpt><trkpt lat="43.08899" lon="11.6578933"><ele>424.0</ele><time>2026-04-05T10:43:35.999Z</time></trkpt><trkpt lat="43.0891083" lon="11.6577567"><ele>422.33333333333337</ele><time>2026-04-05T10:43:36.999Z</time></trkpt><trkpt lat="43.08922" lon="11.6576233"><ele>420.66666666666663</ele><time>2026-04-05T10:43:37.999Z</time></trkpt><trkpt lat="43.0893267" lon="11.65748"><ele>419.0</ele><time>2026-04-05T10:43:38.999Z</time></trkpt><trkpt lat="43.0894417" lon="11.657335"><ele>419.0</ele><time>2026-04-05T10:43:39.999Z</time></trkpt><trkpt lat="43.0895583" lon="11.6572317"><ele>419.0</ele><time>2026-04-05T10:43:40.999Z</time></trkpt><trkpt lat="43.0896967" lon="11.6571533"><ele>419.0</ele><time>2026-04-05T10:43:41.999Z</time></trkpt><trkpt lat="43.0898383" lon="11.6571017"><ele>419.0</ele><time>2026-04-05T10:43:42.999Z</time></trkpt><trkpt lat="43.0899833" lon="11.6570433"><ele>419.5</ele><time>2026-04-05T10:43:43.999Z</time></trkpt><trkpt lat="43.0901017" lon="11.656965"><ele>420.0</ele><time>2026-04-05T10:43:44.999Z</time></trkpt><trkpt lat="43.0902033" lon="11.6568417"><ele>420.5</ele><time>2026-04-05T10:43:45.999Z</time></trkpt><trkpt lat="43.0902833" lon="11.6566883"><ele>421.0</ele><time>2026-04-05T10:43:46.999Z</time></trkpt><trkpt lat="43.0903267" lon="11.6565067"><ele>420.0</ele><time>2026-04-05T10:43:47.999Z</time></trkpt><trkpt lat="43.0903383" lon="11.6563217"><ele>419.0</ele><time>2026-04-05T10:43:48.999Z</time></trkpt><trkpt lat="43.09033" lon="11.6561383"><ele>418.0</ele><time>2026-04-05T10:43:49.999Z</time></trkpt><trkpt lat="43.0902983" lon="11.655955"><ele>417.0</ele><time>2026-04-05T10:43:50.999Z</time></trkpt><trkpt lat="43.0902883" lon="11.6557617"><ele>416.0</ele><time>2026-04-05T10:43:51.999Z</time></trkpt><trkpt lat="43.090295" lon="11.6555683"><ele>415.0</ele><time>2026-04-05T10:43:52.999Z</time></trkpt><trkpt lat="43.0903317" lon="11.6553817"><ele>414.0</ele><time>2026-04-05T10:43:53.999Z</time></trkpt><trkpt lat="43.0904033" lon="11.6551983"><ele>413.0</ele><time>2026-04-05T10:43:54.999Z</time></trkpt><trkpt lat="43.0904983" lon="11.6550367"><ele>413.0</ele><time>2026-04-05T10:43:55.999Z</time></trkpt><trkpt lat="43.0906067" lon="11.6549017"><ele>413.0</ele><time>2026-04-05T10:43:56.999Z</time></trkpt><trkpt lat="43.0907217" lon="11.654775"><ele>413.0</ele><time>2026-04-05T10:43:57.999Z</time></trkpt><trkpt lat="43.09085" lon="11.6546567"><ele>413.0</ele><time>2026-04-05T10:43:58.999Z</time></trkpt><trkpt lat="43.0909883" lon="11.6545517"><ele>410.0</ele><time>2026-04-05T10:43:59.999Z</time></trkpt><trkpt lat="43.0911267" lon="11.6544517"><ele>407.0</ele><time>2026-04-05T10:44:00.999Z</time></trkpt><trkpt lat="43.0912617" lon="11.65435"><ele>404.0</ele><time>2026-04-05T10:44:01.999Z</time></trkpt><trkpt lat="43.09139" lon="11.6542567"><ele>404.0</ele><time>2026-04-05T10:44:02.999Z</time></trkpt><trkpt lat="43.0915017" lon="11.6541633"><ele>404.0</ele><time>2026-04-05T10:44:03.999Z</time></trkpt><trkpt lat="43.0916233" lon="11.654085"><ele>404.0</ele><time>2026-04-05T10:44:04.999Z</time></trkpt><trkpt lat="43.0917483" lon="11.6540417"><ele>404.0</ele><time>2026-04-05T10:44:05.999Z</time></trkpt><trkpt lat="43.0918783" lon="11.6540283"><ele>404.0</ele><time>2026-04-05T10:44:06.999Z</time></trkpt><trkpt lat="43.09202" lon="11.6540483"><ele>404.0</ele><time>2026-04-05T10:44:07.999Z</time></trkpt><trkpt lat="43.0921667" lon="11.6541133"><ele>404.0</ele><time>2026-04-05T10:44:08.999Z</time></trkpt><trkpt lat="43.0923083" lon="11.6541883"><ele>404.0</ele><time>2026-04-05T10:44:09.999Z</time></trkpt><trkpt lat="43.09245" lon="11.6542633"><ele>404.0</ele><time>2026-04-05T10:44:10.999Z</time></trkpt><trkpt lat="43.0925767" lon="11.6543283"><ele>404.0</ele><time>2026-04-05T10:44:11.999Z</time></trkpt><trkpt lat="43.09269" lon="11.6543583"><ele>404.0</ele><time>2026-04-05T10:44:12.999Z</time></trkpt><trkpt lat="43.0927917" lon="11.6543267"><ele>404.0</ele><time>2026-04-05T10:44:13.999Z</time></trkpt><trkpt lat="43.0928733" lon="11.65425"><ele>404.0</ele><time>2026-04-05T10:44:14.999Z</time></trkpt><trkpt lat="43.09293" lon="11.6541333"><ele>404.0</ele><time>2026-04-05T10:44:15.999Z</time></trkpt><trkpt lat="43.092945" lon="11.6539967"><ele>404.0</ele><time>2026-04-05T10:44:16.999Z</time></trkpt><trkpt lat="43.092915" lon="11.6538583"><ele>404.0</ele><time>2026-04-05T10:44:17.999Z</time></trkpt><trkpt lat="43.0928583" lon="11.6537567"><ele>404.0</ele><time>2026-04-05T10:44:18.999Z</time></trkpt><trkpt lat="43.092765" lon="11.6536917"><ele>404.0</ele><time>2026-04-05T10:44:19.999Z</time></trkpt><trkpt lat="43.0926517" lon="11.6536767"><ele>404.0</ele><time>2026-04-05T10:44:20.999Z</time></trkpt><trkpt lat="43.092525" lon="11.6536717"><ele>404.0</ele><time>2026-04-05T10:44:21.999Z</time></trkpt><trkpt lat="43.0924" lon="11.6536617"><ele>404.0</ele><time>2026-04-05T10:44:22.999Z</time></trkpt><trkpt lat="43.092265" lon="11.6536283"><ele>402.5</ele><time>2026-04-05T10:44:23.999Z</time></trkpt><trkpt lat="43.092135" lon="11.6535883"><ele>401.0</ele><time>2026-04-05T10:44:24.999Z</time></trkpt><trkpt lat="43.092" lon="11.6535333"><ele>399.5</ele><time>2026-04-05T10:44:25.999Z</time></trkpt><trkpt lat="43.0918667" lon="11.6534667"><ele>398.0</ele><time>2026-04-05T10:44:26.999Z</time></trkpt><trkpt lat="43.0917383" lon="11.6534117"><ele>398.0</ele><time>2026-04-05T10:44:27.999Z</time></trkpt><trkpt lat="43.0916017" lon="11.653385"><ele>398.0</ele><time>2026-04-05T10:44:28.999Z</time></trkpt><trkpt lat="43.0914617" lon="11.65337"><ele>398.0</ele><time>2026-04-05T10:44:29.999Z</time></trkpt><trkpt lat="43.0913267" lon="11.653375"><ele>398.0</ele><time>2026-04-05T10:44:30.999Z</time></trkpt><trkpt lat="43.091215" lon="11.6533933"><ele>396.79999999999995</ele><time>2026-04-05T10:44:31.999Z</time></trkpt><trkpt lat="43.0911083" lon="11.653415"><ele>395.6</ele><time>2026-04-05T10:44:32.999Z</time></trkpt><trkpt lat="43.0910017" lon="11.6534267"><ele>394.4</ele><time>2026-04-05T10:44:33.999Z</time></trkpt><trkpt lat="43.0909" lon="11.6534433"><ele>393.20000000000005</ele><time>2026-04-05T10:44:34.999Z</time></trkpt><trkpt lat="43.0908133" lon="11.6534633"><ele>392.0</ele><time>2026-04-05T10:44:35.999Z</time></trkpt><trkpt lat="43.09073" lon="11.6534767"><ele>390.6</ele><time>2026-04-05T10:44:36.999Z</time></trkpt><trkpt lat="43.0906367" lon="11.653475"><ele>389.20000000000005</ele><time>2026-04-05T10:44:37.999Z</time></trkpt><trkpt lat="43.0905317" lon="11.6534783"><ele>387.8</ele><time>2026-04-05T10:44:38.999Z</time></trkpt><trkpt lat="43.0904183" lon="11.6534917"><ele>386.4</ele><time>2026-04-05T10:44:39.999Z</time></trkpt><trkpt lat="43.0903" lon="11.6535217"><ele>385.0</ele><time>2026-04-05T10:44:40.999Z</time></trkpt><trkpt lat="43.090185" lon="11.6535783"><ele>386.5</ele><time>2026-04-05T10:44:41.999Z</time></trkpt><trkpt lat="43.0900833" lon="11.6536617"><ele>388.0</ele><time>2026-04-05T10:44:42.999Z</time></trkpt><trkpt lat="43.089985" lon="11.6537667"><ele>389.5</ele><time>2026-04-05T10:44:43.999Z</time></trkpt><trkpt lat="43.0898733" lon="11.6538433"><ele>391.0</ele><time>2026-04-05T10:44:44.999Z</time></trkpt><trkpt lat="43.0897517" lon="11.653895"><ele>391.0</ele><time>2026-04-05T10:44:45.999Z</time></trkpt><trkpt lat="43.0896283" lon="11.6539167"><ele>391.0</ele><time>2026-04-05T10:44:46.999Z</time></trkpt><trkpt lat="43.0895033" lon="11.6539233"><ele>391.0</ele><time>2026-04-05T10:44:47.999Z</time></trkpt><trkpt lat="43.0893783" lon="11.65392"><ele>391.0</ele><time>2026-04-05T10:44:48.999Z</time></trkpt><trkpt lat="43.0892617" lon="11.6538967"><ele>391.0</ele><time>2026-04-05T10:44:49.999Z</time></trkpt><trkpt lat="43.0891467" lon="11.6538617"><ele>391.0</ele><time>2026-04-05T10:44:50.999Z</time></trkpt><trkpt lat="43.0890533" lon="11.653795"><ele>391.0</ele><time>2026-04-05T10:44:51.999Z</time></trkpt><trkpt lat="43.0889733" lon="11.6536933"><ele>391.0</ele><time>2026-04-05T10:44:52.999Z</time></trkpt><trkpt lat="43.08891" lon="11.6535583"><ele>391.0</ele><time>2026-04-05T10:44:53.999Z</time></trkpt><trkpt lat="43.0888733" lon="11.6533933"><ele>388.75</ele><time>2026-04-05T10:44:54.999Z</time></trkpt><trkpt lat="43.0888467" lon="11.6532333"><ele>386.5</ele><time>2026-04-05T10:44:55.999Z</time></trkpt><trkpt lat="43.0888233" lon="11.6530783"><ele>384.25</ele><time>2026-04-05T10:44:56.999Z</time></trkpt><trkpt lat="43.088805" lon="11.6529267"><ele>382.0</ele><time>2026-04-05T10:44:57.999Z</time></trkpt><trkpt lat="43.08879" lon="11.652775"><ele>381.20000000000005</ele><time>2026-04-05T10:44:58.999Z</time></trkpt><trkpt lat="43.0887783" lon="11.65263"><ele>380.4</ele><time>2026-04-05T10:44:59.999Z</time></trkpt><trkpt lat="43.0887667" lon="11.652495"><ele>379.6</ele><time>2026-04-05T10:45:00.999Z</time></trkpt><trkpt lat="43.0887333" lon="11.652365"><ele>378.79999999999995</ele><time>2026-04-05T10:45:01.999Z</time></trkpt><trkpt lat="43.0886883" lon="11.6522583"><ele>378.0</ele><time>2026-04-05T10:45:02.999Z</time></trkpt><trkpt lat="43.0886267" lon="11.6521733"><ele>378.0</ele><time>2026-04-05T10:45:03.999Z</time></trkpt><trkpt lat="43.088555" lon="11.65211"><ele>378.0</ele><time>2026-04-05T10:45:04.999Z</time></trkpt><trkpt lat="43.0884717" lon="11.6520683"><ele>378.0</ele><time>2026-04-05T10:45:05.999Z</time></trkpt><trkpt lat="43.088375" lon="11.652045"><ele>378.0</ele><time>2026-04-05T10:45:06.999Z</time></trkpt><trkpt lat="43.0882767" lon="11.65204"><ele>378.0</ele><time>2026-04-05T10:45:07.999Z</time></trkpt><trkpt lat="43.0881783" lon="11.6520467"><ele>377.2</ele><time>2026-04-05T10:45:08.999Z</time></trkpt><trkpt lat="43.08808" lon="11.65206"><ele>376.4</ele><time>2026-04-05T10:45:09.999Z</time></trkpt><trkpt lat="43.0879767" lon="11.6520767"><ele>375.59999999999997</ele><time>2026-04-05T10:45:10.999Z</time></trkpt><trkpt lat="43.0878667" lon="11.6521"><ele>374.79999999999995</ele><time>2026-04-05T10:45:11.999Z</time></trkpt><trkpt lat="43.0877667" lon="11.6521433"><ele>374.0</ele><time>2026-04-05T10:45:12.999Z</time></trkpt><trkpt lat="43.0876767" lon="11.652205"><ele>374.0</ele><time>2026-04-05T10:45:13.999Z</time></trkpt><trkpt lat="43.0875883" lon="11.6522667"><ele>374.0</ele><time>2026-04-05T10:45:14.999Z</time></trkpt><trkpt lat="43.0874883" lon="11.65232"><ele>374.0</ele><time>2026-04-05T10:45:15.999Z</time></trkpt><trkpt lat="43.0873917" lon="11.6523633"><ele>374.0</ele><time>2026-04-05T10:45:16.999Z</time></trkpt><trkpt lat="43.0872833" lon="11.6523817"><ele>374.0</ele><time>2026-04-05T10:45:17.999Z</time></trkpt><trkpt lat="43.087165" lon="11.6523833"><ele>372.25</ele><time>2026-04-05T10:45:18.999Z</time></trkpt><trkpt lat="43.08705" lon="11.6523583"><ele>370.5</ele><time>2026-04-05T10:45:19.999Z</time></trkpt><trkpt lat="43.0869283" lon="11.6522933"><ele>368.75</ele><time>2026-04-05T10:45:20.999Z</time></trkpt><trkpt lat="43.0867983" lon="11.6522117"><ele>367.0</ele><time>2026-04-05T10:45:21.999Z</time></trkpt><trkpt lat="43.0866567" lon="11.65211"><ele>367.66666666666663</ele><time>2026-04-05T10:45:22.999Z</time></trkpt><trkpt lat="43.0865133" lon="11.652"><ele>368.3333333333333</ele><time>2026-04-05T10:45:23.999Z</time></trkpt><trkpt lat="43.0863717" lon="11.6518833"><ele>369.0</ele><time>2026-04-05T10:45:24.999Z</time></trkpt><trkpt lat="43.0862233" lon="11.6517567"><ele>369.0</ele><time>2026-04-05T10:45:25.999Z</time></trkpt><trkpt lat="43.0860733" lon="11.651635"><ele>369.0</ele><time>2026-04-05T10:45:26.999Z</time></trkpt><trkpt lat="43.0859267" lon="11.65152"><ele>369.0</ele><time>2026-04-05T10:45:27.999Z</time></trkpt><trkpt lat="43.0857883" lon="11.6514017"><ele>369.0</ele><time>2026-04-05T10:45:28.999Z</time></trkpt><trkpt lat="43.08565" lon="11.651275"><ele>369.0</ele><time>2026-04-05T10:45:29.999Z</time></trkpt><trkpt lat="43.0855167" lon="11.6511433"><ele>369.0</ele><time>2026-04-05T10:45:30.999Z</time></trkpt><trkpt lat="43.0853867" lon="11.651015"><ele>369.0</ele><time>2026-04-05T10:45:31.999Z</time></trkpt><trkpt lat="43.085245" lon="11.6508867"><ele>369.0</ele><time>2026-04-05T10:45:32.999Z</time></trkpt><trkpt lat="43.08511" lon="11.6507583"><ele>369.0</ele><time>2026-04-05T10:45:33.999Z</time></trkpt><trkpt lat="43.084975" lon="11.6506267"><ele>367.6666666666667</ele><time>2026-04-05T10:45:34.999Z</time></trkpt><trkpt lat="43.084835" lon="11.6505"><ele>366.33333333333337</ele><time>2026-04-05T10:45:35.999Z</time></trkpt><trkpt lat="43.0846933" lon="11.6503717"><ele>365.0</ele><time>2026-04-05T10:45:36.999Z</time></trkpt><trkpt lat="43.0845667" lon="11.6502383"><ele>365.0</ele><time>2026-04-05T10:45:37.999Z</time></trkpt><trkpt lat="43.084445" lon="11.6500917"><ele>365.0</ele><time>2026-04-05T10:45:38.999Z</time></trkpt><trkpt lat="43.0843317" lon="11.649935"><ele>365.0</ele><time>2026-04-05T10:45:39.999Z</time></trkpt><trkpt lat="43.0842267" lon="11.649775"><ele>365.0</ele><time>2026-04-05T10:45:40.999Z</time></trkpt><trkpt lat="43.084125" lon="11.649605"><ele>365.0</ele><time>2026-04-05T10:45:41.999Z</time></trkpt><trkpt lat="43.0840233" lon="11.6494233"><ele>365.0</ele><time>2026-04-05T10:45:42.999Z</time></trkpt><trkpt lat="43.083925" lon="11.649245"><ele>364.6666666666667</ele><time>2026-04-05T10:45:43.999Z</time></trkpt><trkpt lat="43.0838133" lon="11.649055"><ele>364.3333333333333</ele><time>2026-04-05T10:45:44.999Z</time></trkpt><trkpt lat="43.083705" lon="11.6488683"><ele>364.0</ele><time>2026-04-05T10:45:45.999Z</time></trkpt><trkpt lat="43.0835983" lon="11.64868"><ele>363.66666666666663</ele><time>2026-04-05T10:45:46.999Z</time></trkpt><trkpt lat="43.083485" lon="11.6484867"><ele>363.3333333333333</ele><time>2026-04-05T10:45:47.999Z</time></trkpt><trkpt lat="43.0833683" lon="11.648295"><ele>363.0</ele><time>2026-04-05T10:45:48.999Z</time></trkpt><trkpt lat="43.083245" lon="11.648095"><ele>363.0</ele><time>2026-04-05T10:45:49.999Z</time></trkpt><trkpt lat="43.0831333" lon="11.6479033"><ele>363.0</ele><time>2026-04-05T10:45:50.999Z</time></trkpt><trkpt lat="43.08302" lon="11.6477167"><ele>363.0</ele><time>2026-04-05T10:45:51.999Z</time></trkpt><trkpt lat="43.0829167" lon="11.6475467"><ele>365.6666666666667</ele><time>2026-04-05T10:45:52.999Z</time></trkpt><trkpt lat="43.0828217" lon="11.6473833"><ele>368.33333333333337</ele><time>2026-04-05T10:45:53.999Z</time></trkpt><trkpt lat="43.0827217" lon="11.6472133"><ele>371.0</ele><time>2026-04-05T10:45:54.999Z</time></trkpt><trkpt lat="43.082625" lon="11.647045"><ele>371.33333333333337</ele><time>2026-04-05T10:45:55.999Z</time></trkpt><trkpt lat="43.0825283" lon="11.6468767"><ele>371.6666666666667</ele><time>2026-04-05T10:45:56.999Z</time></trkpt><trkpt lat="43.0824383" lon="11.6467133"><ele>372.0</ele><time>2026-04-05T10:45:57.999Z</time></trkpt><trkpt lat="43.0823417" lon="11.6465467"><ele>371.3333333333333</ele><time>2026-04-05T10:45:58.999Z</time></trkpt><trkpt lat="43.0822483" lon="11.6463767"><ele>370.66666666666663</ele><time>2026-04-05T10:45:59.999Z</time></trkpt><trkpt lat="43.082155" lon="11.6462133"><ele>370.0</ele><time>2026-04-05T10:46:00.999Z</time></trkpt><trkpt lat="43.0820667" lon="11.6460517"><ele>370.0</ele><time>2026-04-05T10:46:01.999Z</time></trkpt><trkpt lat="43.0819767" lon="11.6458883"><ele>370.0</ele><time>2026-04-05T10:46:02.999Z</time></trkpt><trkpt lat="43.0818983" lon="11.645715"><ele>370.0</ele><time>2026-04-05T10:46:03.999Z</time></trkpt><trkpt lat="43.0818333" lon="11.6455217"><ele>370.0</ele><time>2026-04-05T10:46:04.999Z</time></trkpt><trkpt lat="43.0817767" lon="11.6453317"><ele>370.0</ele><time>2026-04-05T10:46:05.999Z</time></trkpt><trkpt lat="43.08173" lon="11.645135"><ele>370.0</ele><time>2026-04-05T10:46:06.999Z</time></trkpt><trkpt lat="43.081695" lon="11.6449333"><ele>370.66666666666663</ele><time>2026-04-05T10:46:07.999Z</time></trkpt><trkpt lat="43.0816733" lon="11.6447283"><ele>371.3333333333333</ele><time>2026-04-05T10:46:08.999Z</time></trkpt><trkpt lat="43.08166" lon="11.6445217"><ele>372.0</ele><time>2026-04-05T10:46:09.999Z</time></trkpt><trkpt lat="43.0816633" lon="11.6443067"><ele>372.3333333333333</ele><time>2026-04-05T10:46:10.999Z</time></trkpt><trkpt lat="43.08167" lon="11.644095"><ele>372.66666666666663</ele><time>2026-04-05T10:46:11.999Z</time></trkpt><trkpt lat="43.08168" lon="11.64389"><ele>373.0</ele><time>2026-04-05T10:46:12.999Z</time></trkpt><trkpt lat="43.0816933" lon="11.6436767"><ele>372.66666666666663</ele><time>2026-04-05T10:46:13.998Z</time></trkpt><trkpt lat="43.0817033" lon="11.64346"><ele>372.3333333333333</ele><time>2026-04-05T10:46:14.998Z</time></trkpt><trkpt lat="43.081715" lon="11.6432483"><ele>372.0</ele><time>2026-04-05T10:46:15.998Z</time></trkpt><trkpt lat="43.0817233" lon="11.6430283"><ele>372.0</ele><time>2026-04-05T10:46:16.998Z</time></trkpt><trkpt lat="43.08173" lon="11.6428167"><ele>372.0</ele><time>2026-04-05T10:46:17.998Z</time></trkpt><trkpt lat="43.0817433" lon="11.6425983"><ele>372.0</ele><time>2026-04-05T10:46:18.998Z</time></trkpt><trkpt lat="43.0817517" lon="11.642395"><ele>371.75</ele><time>2026-04-05T10:46:19.998Z</time></trkpt><trkpt lat="43.0817567" lon="11.6421967"><ele>371.5</ele><time>2026-04-05T10:46:20.998Z</time></trkpt><trkpt lat="43.081755" lon="11.6419983"><ele>371.25</ele><time>2026-04-05T10:46:21.998Z</time></trkpt><trkpt lat="43.08177" lon="11.641805"><ele>371.0</ele><time>2026-04-05T10:46:22.998Z</time></trkpt><trkpt lat="43.0818083" lon="11.641615"><ele>370.75</ele><time>2026-04-05T10:46:23.998Z</time></trkpt><trkpt lat="43.08186" lon="11.641435"><ele>370.5</ele><time>2026-04-05T10:46:24.998Z</time></trkpt><trkpt lat="43.08193" lon="11.6412667"><ele>370.25</ele><time>2026-04-05T10:46:25.998Z</time></trkpt><trkpt lat="43.082015" lon="11.6411117"><ele>370.0</ele><time>2026-04-05T10:46:26.998Z</time></trkpt><trkpt lat="43.0821067" lon="11.640965"><ele>370.0</ele><time>2026-04-05T10:46:27.998Z</time></trkpt><trkpt lat="43.0822" lon="11.6408317"><ele>370.0</ele><time>2026-04-05T10:46:28.998Z</time></trkpt><trkpt lat="43.0822933" lon="11.6407"><ele>370.0</ele><time>2026-04-05T10:46:29.998Z</time></trkpt><trkpt lat="43.0823967" lon="11.6405633"><ele>370.0</ele><time>2026-04-05T10:46:30.998Z</time></trkpt><trkpt lat="43.0824917" lon="11.6404217"><ele>367.66666666666663</ele><time>2026-04-05T10:46:31.998Z</time></trkpt><trkpt lat="43.0825867" lon="11.64026"><ele>365.3333333333333</ele><time>2026-04-05T10:46:32.998Z</time></trkpt><trkpt lat="43.0826717" lon="11.64009"><ele>363.0</ele><time>2026-04-05T10:46:33.998Z</time></trkpt><trkpt lat="43.0827483" lon="11.63991"><ele>363.0</ele><time>2026-04-05T10:46:34.998Z</time></trkpt><trkpt lat="43.08282" lon="11.6397233"><ele>363.0</ele><time>2026-04-05T10:46:35.998Z</time></trkpt><trkpt lat="43.0828917" lon="11.63953"><ele>363.0</ele><time>2026-04-05T10:46:36.998Z</time></trkpt><trkpt lat="43.0829583" lon="11.639335"><ele>362.3333333333333</ele><time>2026-04-05T10:46:37.998Z</time></trkpt><trkpt lat="43.0830233" lon="11.6391383"><ele>361.66666666666663</ele><time>2026-04-05T10:46:38.998Z</time></trkpt><trkpt lat="43.0830917" lon="11.6389417"><ele>361.0</ele><time>2026-04-05T10:46:39.998Z</time></trkpt><trkpt lat="43.0831567" lon="11.6387433"><ele>359.66666666666663</ele><time>2026-04-05T10:46:40.998Z</time></trkpt><trkpt lat="43.083215" lon="11.638545"><ele>358.3333333333333</ele><time>2026-04-05T10:46:41.998Z</time></trkpt><trkpt lat="43.083275" lon="11.6383467"><ele>357.0</ele><time>2026-04-05T10:46:42.998Z</time></trkpt><trkpt lat="43.083335" lon="11.6381433"><ele>355.3333333333333</ele><time>2026-04-05T10:46:43.998Z</time></trkpt><trkpt lat="43.0833917" lon="11.6379383"><ele>353.66666666666663</ele><time>2026-04-05T10:46:44.998Z</time></trkpt><trkpt lat="43.0834333" lon="11.6377183"><ele>352.0</ele><time>2026-04-05T10:46:45.998Z</time></trkpt><trkpt lat="43.0834583" lon="11.6375"><ele>352.0</ele><time>2026-04-05T10:46:46.998Z</time></trkpt><trkpt lat="43.083475" lon="11.6372633"><ele>352.0</ele><time>2026-04-05T10:46:47.998Z</time></trkpt><trkpt lat="43.0834767" lon="11.6370233"><ele>352.0</ele><time>2026-04-05T10:46:48.998Z</time></trkpt><trkpt lat="43.08348" lon="11.636785"><ele>351.0</ele><time>2026-04-05T10:46:49.998Z</time></trkpt><trkpt lat="43.0834783" lon="11.6365417"><ele>350.0</ele><time>2026-04-05T10:46:50.998Z</time></trkpt><trkpt lat="43.0834833" lon="11.6363033"><ele>349.0</ele><time>2026-04-05T10:46:51.998Z</time></trkpt><trkpt lat="43.0834883" lon="11.636065"><ele>348.3333333333333</ele><time>2026-04-05T10:46:52.998Z</time></trkpt><trkpt lat="43.08349" lon="11.6358367"><ele>347.6666666666667</ele><time>2026-04-05T10:46:53.998Z</time></trkpt><trkpt lat="43.0834983" lon="11.6356083"><ele>347.0</ele><time>2026-04-05T10:46:54.998Z</time></trkpt><trkpt lat="43.0835067" lon="11.6353767"><ele>347.6666666666667</ele><time>2026-04-05T10:46:55.998Z</time></trkpt><trkpt lat="43.0835133" lon="11.6351483"><ele>348.3333333333333</ele><time>2026-04-05T10:46:56.998Z</time></trkpt><trkpt lat="43.0835167" lon="11.6349217"><ele>349.0</ele><time>2026-04-05T10:46:57.998Z</time></trkpt><trkpt lat="43.0835283" lon="11.634695"><ele>350.3333333333333</ele><time>2026-04-05T10:46:58.998Z</time></trkpt><trkpt lat="43.08355" lon="11.6344667"><ele>351.6666666666667</ele><time>2026-04-05T10:46:59.998Z</time></trkpt><trkpt lat="43.0835783" lon="11.634245"><ele>353.0</ele><time>2026-04-05T10:47:00.998Z</time></trkpt><trkpt lat="43.0836067" lon="11.6340283"><ele>353.0</ele><time>2026-04-05T10:47:01.998Z</time></trkpt><trkpt lat="43.083635" lon="11.633805"><ele>353.0</ele><time>2026-04-05T10:47:02.998Z</time></trkpt><trkpt lat="43.08367" lon="11.63358"><ele>353.0</ele><time>2026-04-05T10:47:03.998Z</time></trkpt><trkpt lat="43.083705" lon="11.6333517"><ele>354.0</ele><time>2026-04-05T10:47:04.998Z</time></trkpt><trkpt lat="43.0837367" lon="11.6331233"><ele>355.0</ele><time>2026-04-05T10:47:05.998Z</time></trkpt><trkpt lat="43.0837583" lon="11.6329033"><ele>356.0</ele><time>2026-04-05T10:47:06.998Z</time></trkpt><trkpt lat="43.08377" lon="11.6326817"><ele>356.0</ele><time>2026-04-05T10:47:07.998Z</time></trkpt><trkpt lat="43.083775" lon="11.6324533"><ele>356.0</ele><time>2026-04-05T10:47:08.998Z</time></trkpt><trkpt lat="43.0837767" lon="11.63223"><ele>356.0</ele><time>2026-04-05T10:47:09.998Z</time></trkpt><trkpt lat="43.0837867" lon="11.632005"><ele>352.33333333333337</ele><time>2026-04-05T10:47:10.998Z</time></trkpt><trkpt lat="43.0838067" lon="11.6317733"><ele>348.6666666666667</ele><time>2026-04-05T10:47:11.998Z</time></trkpt><trkpt lat="43.083815" lon="11.63155"><ele>345.0</ele><time>2026-04-05T10:47:12.998Z</time></trkpt><trkpt lat="43.083835" lon="11.63132"><ele>343.0</ele><time>2026-04-05T10:47:13.998Z</time></trkpt><trkpt lat="43.08385" lon="11.6310967"><ele>341.0</ele><time>2026-04-05T10:47:14.998Z</time></trkpt><trkpt lat="43.0838567" lon="11.6308833"><ele>339.0</ele><time>2026-04-05T10:47:15.998Z</time></trkpt><trkpt lat="43.083865" lon="11.630675"><ele>339.0</ele><time>2026-04-05T10:47:16.998Z</time></trkpt><trkpt lat="43.083865" lon="11.6304817"><ele>339.0</ele><time>2026-04-05T10:47:17.998Z</time></trkpt><trkpt lat="43.08385" lon="11.6302933"><ele>339.0</ele><time>2026-04-05T10:47:18.998Z</time></trkpt><trkpt lat="43.083815" lon="11.6301117"><ele>339.0</ele><time>2026-04-05T10:47:19.998Z</time></trkpt><trkpt lat="43.0837633" lon="11.6299383"><ele>339.0</ele><time>2026-04-05T10:47:20.998Z</time></trkpt><trkpt lat="43.0836917" lon="11.6297767"><ele>339.0</ele><time>2026-04-05T10:47:21.998Z</time></trkpt><trkpt lat="43.0836017" lon="11.62963"><ele>339.0</ele><time>2026-04-05T10:47:22.998Z</time></trkpt><trkpt lat="43.083495" lon="11.6295033"><ele>339.0</ele><time>2026-04-05T10:47:23.998Z</time></trkpt><trkpt lat="43.0833733" lon="11.6294"><ele>337.6666666666667</ele><time>2026-04-05T10:47:24.998Z</time></trkpt><trkpt lat="43.0832383" lon="11.6293183"><ele>336.33333333333337</ele><time>2026-04-05T10:47:25.998Z</time></trkpt><trkpt lat="43.0830883" lon="11.6292667"><ele>335.0</ele><time>2026-04-05T10:47:26.998Z</time></trkpt><trkpt lat="43.08293" lon="11.6292317"><ele>335.0</ele><time>2026-04-05T10:47:27.998Z</time></trkpt><trkpt lat="43.082765" lon="11.6292133"><ele>335.0</ele><time>2026-04-05T10:47:28.998Z</time></trkpt><trkpt lat="43.0825983" lon="11.6292017"><ele>335.0</ele><time>2026-04-05T10:47:29.998Z</time></trkpt><trkpt lat="43.0824283" lon="11.629185"><ele>335.6666666666667</ele><time>2026-04-05T10:47:30.998Z</time></trkpt><trkpt lat="43.0822567" lon="11.6291717"><ele>336.3333333333333</ele><time>2026-04-05T10:47:31.998Z</time></trkpt><trkpt lat="43.0820733" lon="11.62915"><ele>337.0</ele><time>2026-04-05T10:47:32.998Z</time></trkpt><trkpt lat="43.0818933" lon="11.62914"><ele>337.0</ele><time>2026-04-05T10:47:33.998Z</time></trkpt><trkpt lat="43.081715" lon="11.62912"><ele>337.0</ele><time>2026-04-05T10:47:34.998Z</time></trkpt><trkpt lat="43.08153" lon="11.6290983"><ele>337.0</ele><time>2026-04-05T10:47:35.998Z</time></trkpt><trkpt lat="43.08135" lon="11.6290617"><ele>339.0</ele><time>2026-04-05T10:47:36.998Z</time></trkpt><trkpt lat="43.0811783" lon="11.629005"><ele>341.0</ele><time>2026-04-05T10:47:37.998Z</time></trkpt><trkpt lat="43.08102" lon="11.6289233"><ele>343.0</ele><time>2026-04-05T10:47:38.998Z</time></trkpt><trkpt lat="43.0808667" lon="11.628825"><ele>343.3333333333333</ele><time>2026-04-05T10:47:39.998Z</time></trkpt><trkpt lat="43.080715" lon="11.628725"><ele>343.6666666666667</ele><time>2026-04-05T10:47:40.998Z</time></trkpt><trkpt lat="43.0805667" lon="11.62864"><ele>344.0</ele><time>2026-04-05T10:47:41.998Z</time></trkpt><trkpt lat="43.080405" lon="11.6285733"><ele>343.6666666666667</ele><time>2026-04-05T10:47:42.998Z</time></trkpt><trkpt lat="43.0802417" lon="11.6285417"><ele>343.3333333333333</ele><time>2026-04-05T10:47:43.998Z</time></trkpt><trkpt lat="43.0800733" lon="11.6285483"><ele>343.0</ele><time>2026-04-05T10:47:44.998Z</time></trkpt><trkpt lat="43.0799017" lon="11.6285833"><ele>343.0</ele><time>2026-04-05T10:47:45.998Z</time></trkpt><trkpt lat="43.0797233" lon="11.628625"><ele>343.0</ele><time>2026-04-05T10:47:46.998Z</time></trkpt><trkpt lat="43.0795467" lon="11.6286667"><ele>343.0</ele><time>2026-04-05T10:47:47.998Z</time></trkpt><trkpt lat="43.0793633" lon="11.628695"><ele>342.66666666666663</ele><time>2026-04-05T10:47:48.998Z</time></trkpt><trkpt lat="43.0791817" lon="11.6287267"><ele>342.3333333333333</ele><time>2026-04-05T10:47:49.998Z</time></trkpt><trkpt lat="43.0790083" lon="11.62875"><ele>342.0</ele><time>2026-04-05T10:47:50.998Z</time></trkpt><trkpt lat="43.078825" lon="11.6287533"><ele>342.0</ele><time>2026-04-05T10:47:51.998Z</time></trkpt><trkpt lat="43.078645" lon="11.628735"><ele>342.0</ele><time>2026-04-05T10:47:52.998Z</time></trkpt><trkpt lat="43.07847" lon="11.6287017"><ele>342.0</ele><time>2026-04-05T10:47:53.998Z</time></trkpt><trkpt lat="43.0782983" lon="11.6286483"><ele>343.3333333333333</ele><time>2026-04-05T10:47:54.998Z</time></trkpt><trkpt lat="43.0781233" lon="11.628575"><ele>344.66666666666663</ele><time>2026-04-05T10:47:55.998Z</time></trkpt><trkpt lat="43.0779433" lon="11.6284933"><ele>346.0</ele><time>2026-04-05T10:47:56.998Z</time></trkpt><trkpt lat="43.0777633" lon="11.6284117"><ele>346.0</ele><time>2026-04-05T10:47:57.998Z</time></trkpt><trkpt lat="43.0775783" lon="11.628335"><ele>346.0</ele><time>2026-04-05T10:47:58.998Z</time></trkpt><trkpt lat="43.0773933" lon="11.6282517"><ele>346.0</ele><time>2026-04-05T10:47:59.998Z</time></trkpt><trkpt lat="43.0772167" lon="11.6281733"><ele>345.3333333333333</ele><time>2026-04-05T10:48:00.998Z</time></trkpt><trkpt lat="43.0770317" lon="11.628095"><ele>344.6666666666667</ele><time>2026-04-05T10:48:01.998Z</time></trkpt><trkpt lat="43.07685" lon="11.628015"><ele>344.0</ele><time>2026-04-05T10:48:02.998Z</time></trkpt><trkpt lat="43.076675" lon="11.62794"><ele>345.6666666666667</ele><time>2026-04-05T10:48:03.998Z</time></trkpt><trkpt lat="43.076505" lon="11.6278633"><ele>347.3333333333333</ele><time>2026-04-05T10:48:04.998Z</time></trkpt><trkpt lat="43.0763333" lon="11.627785"><ele>349.0</ele><time>2026-04-05T10:48:05.998Z</time></trkpt><trkpt lat="43.0761633" lon="11.6277067"><ele>349.0</ele><time>2026-04-05T10:48:06.998Z</time></trkpt><trkpt lat="43.0759983" lon="11.6276333"><ele>349.0</ele><time>2026-04-05T10:48:07.998Z</time></trkpt><trkpt lat="43.0758333" lon="11.6275583"><ele>349.0</ele><time>2026-04-05T10:48:08.998Z</time></trkpt><trkpt lat="43.0756733" lon="11.6274867"><ele>351.0</ele><time>2026-04-05T10:48:09.998Z</time></trkpt><trkpt lat="43.0755183" lon="11.6274183"><ele>353.0</ele><time>2026-04-05T10:48:10.998Z</time></trkpt><trkpt lat="43.0753633" lon="11.6273533"><ele>355.0</ele><time>2026-04-05T10:48:11.998Z</time></trkpt><trkpt lat="43.0752167" lon="11.6272783"><ele>355.0</ele><time>2026-04-05T10:48:12.998Z</time></trkpt><trkpt lat="43.075065" lon="11.62721"><ele>355.0</ele><time>2026-04-05T10:48:13.998Z</time></trkpt><trkpt lat="43.074915" lon="11.6271417"><ele>355.0</ele><time>2026-04-05T10:48:14.998Z</time></trkpt><trkpt lat="43.0747817" lon="11.6270583"><ele>354.75</ele><time>2026-04-05T10:48:15.998Z</time></trkpt><trkpt lat="43.07467" lon="11.6269567"><ele>354.5</ele><time>2026-04-05T10:48:16.998Z</time></trkpt><trkpt lat="43.0745767" lon="11.6268417"><ele>354.25</ele><time>2026-04-05T10:48:17.998Z</time></trkpt><trkpt lat="43.0744983" lon="11.626715"><ele>354.0</ele><time>2026-04-05T10:48:18.998Z</time></trkpt><trkpt lat="43.0744233" lon="11.6265917"><ele>354.0</ele><time>2026-04-05T10:48:19.998Z</time></trkpt><trkpt lat="43.07435" lon="11.62647"><ele>354.0</ele><time>2026-04-05T10:48:20.998Z</time></trkpt><trkpt lat="43.0742833" lon="11.6263533"><ele>354.0</ele><time>2026-04-05T10:48:21.998Z</time></trkpt><trkpt lat="43.0742167" lon="11.6262333"><ele>354.0</ele><time>2026-04-05T10:48:22.998Z</time></trkpt><trkpt lat="43.0741467" lon="11.6261183"><ele>354.0</ele><time>2026-04-05T10:48:23.998Z</time></trkpt><trkpt lat="43.0740833" lon="11.6260083"><ele>353.8333333333333</ele><time>2026-04-05T10:48:24.998Z</time></trkpt><trkpt lat="43.0740217" lon="11.6259117"><ele>353.6666666666667</ele><time>2026-04-05T10:48:25.998Z</time></trkpt><trkpt lat="43.0739667" lon="11.6258167"><ele>353.5</ele><time>2026-04-05T10:48:26.998Z</time></trkpt><trkpt lat="43.0739133" lon="11.6257267"><ele>353.33333333333337</ele><time>2026-04-05T10:48:27.998Z</time></trkpt><trkpt lat="43.0738633" lon="11.62564"><ele>353.1666666666667</ele><time>2026-04-05T10:48:28.998Z</time></trkpt><trkpt lat="43.0738167" lon="11.6255617"><ele>353.0</ele><time>2026-04-05T10:48:29.998Z</time></trkpt><trkpt lat="43.073775" lon="11.6254933"><ele>353.0</ele><time>2026-04-05T10:48:30.998Z</time></trkpt><trkpt lat="43.0737033" lon="11.625375"><ele>353.0</ele><time>2026-04-05T10:48:32.998Z</time></trkpt><trkpt lat="43.0736383" lon="11.62528"><ele>353.0</ele><time>2026-04-05T10:48:34.999Z</time></trkpt><trkpt lat="43.073595" lon="11.6252117"><ele>353.0</ele><time>2026-04-05T10:48:36.998Z</time></trkpt><trkpt lat="43.0735133" lon="11.6251717"><ele>353.0</ele><time>2026-04-05T10:48:39.998Z</time></trkpt><trkpt lat="43.073465" lon="11.6250983"><ele>353.0</ele><time>2026-04-05T10:48:42.998Z</time></trkpt><trkpt lat="43.0734167" lon="11.624975"><ele>354.1666666666667</ele><time>2026-04-05T10:49:44.998Z</time></trkpt><trkpt lat="43.0733767" lon="11.6248683"><ele>355.33333333333337</ele><time>2026-04-05T10:49:46.998Z</time></trkpt><trkpt lat="43.0733217" lon="11.6247967"><ele>356.5</ele><time>2026-04-05T10:49:48.998Z</time></trkpt><trkpt lat="43.07328" lon="11.6247033"><ele>357.6666666666667</ele><time>2026-04-05T10:49:51.998Z</time></trkpt><trkpt lat="43.0732983" lon="11.6246167"><ele>358.8333333333333</ele><time>2026-04-05T10:49:57.998Z</time></trkpt><trkpt lat="43.07329" lon="11.62449"><ele>360.0</ele><time>2026-04-05T10:49:59.998Z</time></trkpt><trkpt lat="43.073265" lon="11.6244"><ele>360.0</ele><time>2026-04-05T10:50:00.998Z</time></trkpt><trkpt lat="43.0732383" lon="11.6242917"><ele>360.0</ele><time>2026-04-05T10:50:01.998Z</time></trkpt><trkpt lat="43.0732167" lon="11.6241733"><ele>360.0</ele><time>2026-04-05T10:50:02.998Z</time></trkpt><trkpt lat="43.073195" lon="11.6240467"><ele>360.0</ele><time>2026-04-05T10:50:03.998Z</time></trkpt><trkpt lat="43.0731817" lon="11.6239033"><ele>360.0</ele><time>2026-04-05T10:50:04.998Z</time></trkpt><trkpt lat="43.07317" lon="11.623765"><ele>360.0</ele><time>2026-04-05T10:50:05.998Z</time></trkpt><trkpt lat="43.073165" lon="11.623615"><ele>360.0</ele><time>2026-04-05T10:50:06.998Z</time></trkpt><trkpt lat="43.0731733" lon="11.6234567"><ele>360.0</ele><time>2026-04-05T10:50:07.998Z</time></trkpt><trkpt lat="43.0731867" lon="11.62329"><ele>360.0</ele><time>2026-04-05T10:50:08.998Z</time></trkpt><trkpt lat="43.073205" lon="11.6231133"><ele>360.0</ele><time>2026-04-05T10:50:09.998Z</time></trkpt><trkpt lat="43.0732383" lon="11.62293"><ele>360.0</ele><time>2026-04-05T10:50:10.998Z</time></trkpt><trkpt lat="43.0732733" lon="11.62274"><ele>360.0</ele><time>2026-04-05T10:50:11.998Z</time></trkpt><trkpt lat="43.0733117" lon="11.622555"><ele>360.0</ele><time>2026-04-05T10:50:12.998Z</time></trkpt><trkpt lat="43.0733617" lon="11.6223667"><ele>360.6666666666667</ele><time>2026-04-05T10:50:13.998Z</time></trkpt><trkpt lat="43.0734067" lon="11.6221667"><ele>361.33333333333337</ele><time>2026-04-05T10:50:14.998Z</time></trkpt><trkpt lat="43.0734483" lon="11.6219717"><ele>362.0</ele><time>2026-04-05T10:50:15.998Z</time></trkpt><trkpt lat="43.0734883" lon="11.6217617"><ele>362.6666666666667</ele><time>2026-04-05T10:50:16.998Z</time></trkpt><trkpt lat="43.0735167" lon="11.621555"><ele>363.3333333333333</ele><time>2026-04-05T10:50:17.998Z</time></trkpt><trkpt lat="43.07352" lon="11.62134"><ele>364.0</ele><time>2026-04-05T10:50:18.998Z</time></trkpt><trkpt lat="43.0735033" lon="11.621125"><ele>365.0</ele><time>2026-04-05T10:50:19.998Z</time></trkpt><trkpt lat="43.0734683" lon="11.6209117"><ele>366.0</ele><time>2026-04-05T10:50:20.998Z</time></trkpt><trkpt lat="43.07342" lon="11.6207117"><ele>367.0</ele><time>2026-04-05T10:50:21.998Z</time></trkpt><trkpt lat="43.0733567" lon="11.620515"><ele>367.0</ele><time>2026-04-05T10:50:22.998Z</time></trkpt><trkpt lat="43.0732883" lon="11.6203267"><ele>367.0</ele><time>2026-04-05T10:50:23.998Z</time></trkpt><trkpt lat="43.0732" lon="11.6201433"><ele>367.0</ele><time>2026-04-05T10:50:24.999Z</time></trkpt><trkpt lat="43.0731017" lon="11.6199783"><ele>367.66666666666663</ele><time>2026-04-05T10:50:25.998Z</time></trkpt><trkpt lat="43.0729833" lon="11.61982"><ele>368.3333333333333</ele><time>2026-04-05T10:50:26.998Z</time></trkpt><trkpt lat="43.0728467" lon="11.619685"><ele>369.0</ele><time>2026-04-05T10:50:27.998Z</time></trkpt><trkpt lat="43.072705" lon="11.6195617"><ele>368.0</ele><time>2026-04-05T10:50:28.998Z</time></trkpt><trkpt lat="43.0725567" lon="11.6194517"><ele>367.0</ele><time>2026-04-05T10:50:29.998Z</time></trkpt><trkpt lat="43.0724" lon="11.6193467"><ele>366.0</ele><time>2026-04-05T10:50:30.998Z</time></trkpt><trkpt lat="43.0722433" lon="11.619245"><ele>366.0</ele><time>2026-04-05T10:50:31.998Z</time></trkpt><trkpt lat="43.0721" lon="11.6191567"><ele>366.0</ele><time>2026-04-05T10:50:32.998Z</time></trkpt><trkpt lat="43.0719533" lon="11.6190617"><ele>366.0</ele><time>2026-04-05T10:50:33.998Z</time></trkpt><trkpt lat="43.071805" lon="11.61896"><ele>366.0</ele><time>2026-04-05T10:50:34.998Z</time></trkpt><trkpt lat="43.0716533" lon="11.6188617"><ele>366.0</ele><time>2026-04-05T10:50:35.998Z</time></trkpt><trkpt lat="43.0714967" lon="11.6187633"><ele>366.0</ele><time>2026-04-05T10:50:36.998Z</time></trkpt><trkpt lat="43.0713433" lon="11.61866"><ele>367.6666666666667</ele><time>2026-04-05T10:50:37.998Z</time></trkpt><trkpt lat="43.07119" lon="11.6185567"><ele>369.33333333333337</ele><time>2026-04-05T10:50:38.998Z</time></trkpt><trkpt lat="43.0710367" lon="11.61846"><ele>371.0</ele><time>2026-04-05T10:50:39.998Z</time></trkpt><trkpt lat="43.0708883" lon="11.6183633"><ele>373.33333333333337</ele><time>2026-04-05T10:50:40.998Z</time></trkpt><trkpt lat="43.070745" lon="11.6182617"><ele>375.6666666666667</ele><time>2026-04-05T10:50:41.998Z</time></trkpt><trkpt lat="43.070605" lon="11.6181417"><ele>378.0</ele><time>2026-04-05T10:50:42.998Z</time></trkpt><trkpt lat="43.0704833" lon="11.6180017"><ele>378.0</ele><time>2026-04-05T10:50:43.998Z</time></trkpt><trkpt lat="43.0703733" lon="11.61785"><ele>378.0</ele><time>2026-04-05T10:50:44.998Z</time></trkpt><trkpt lat="43.0702817" lon="11.6176767"><ele>378.0</ele><time>2026-04-05T10:50:45.998Z</time></trkpt><trkpt lat="43.070205" lon="11.6174933"><ele>378.3333333333333</ele><time>2026-04-05T10:50:46.998Z</time></trkpt><trkpt lat="43.070135" lon="11.6172967"><ele>378.66666666666663</ele><time>2026-04-05T10:50:47.998Z</time></trkpt><trkpt lat="43.0700717" lon="11.6171017"><ele>379.0</ele><time>2026-04-05T10:50:48.998Z</time></trkpt><trkpt lat="43.0700117" lon="11.6169183"><ele>379.0</ele><time>2026-04-05T10:50:49.998Z</time></trkpt><trkpt lat="43.0699583" lon="11.6167367"><ele>379.0</ele><time>2026-04-05T10:50:50.998Z</time></trkpt><trkpt lat="43.0699067" lon="11.6165633"><ele>379.0</ele><time>2026-04-05T10:50:51.998Z</time></trkpt><trkpt lat="43.0698567" lon="11.6163933"><ele>379.0</ele><time>2026-04-05T10:50:52.998Z</time></trkpt><trkpt lat="43.0698" lon="11.6162283"><ele>380.25</ele><time>2026-04-05T10:50:53.998Z</time></trkpt><trkpt lat="43.0697267" lon="11.6160667"><ele>381.5</ele><time>2026-04-05T10:50:54.998Z</time></trkpt><trkpt lat="43.0696417" lon="11.6159133"><ele>382.75</ele><time>2026-04-05T10:50:55.998Z</time></trkpt><trkpt lat="43.0695467" lon="11.6157583"><ele>384.0</ele><time>2026-04-05T10:50:56.998Z</time></trkpt><trkpt lat="43.0694283" lon="11.6156117"><ele>384.0</ele><time>2026-04-05T10:50:57.998Z</time></trkpt><trkpt lat="43.0693067" lon="11.6154933"><ele>384.0</ele><time>2026-04-05T10:50:58.998Z</time></trkpt><trkpt lat="43.06917" lon="11.615395"><ele>384.0</ele><time>2026-04-05T10:50:59.998Z</time></trkpt><trkpt lat="43.069025" lon="11.6153233"><ele>387.0</ele><time>2026-04-05T10:51:00.998Z</time></trkpt><trkpt lat="43.0688717" lon="11.61525"><ele>390.0</ele><time>2026-04-05T10:51:01.998Z</time></trkpt><trkpt lat="43.0687267" lon="11.6151967"><ele>393.0</ele><time>2026-04-05T10:51:02.998Z</time></trkpt><trkpt lat="43.0685867" lon="11.615145"><ele>393.0</ele><time>2026-04-05T10:51:03.998Z</time></trkpt><trkpt lat="43.0684533" lon="11.6150933"><ele>393.0</ele><time>2026-04-05T10:51:04.998Z</time></trkpt><trkpt lat="43.0683233" lon="11.6150433"><ele>393.0</ele><time>2026-04-05T10:51:05.998Z</time></trkpt><trkpt lat="43.0682033" lon="11.6149917"><ele>393.0</ele><time>2026-04-05T10:51:06.998Z</time></trkpt><trkpt lat="43.0680833" lon="11.614945"><ele>393.75</ele><time>2026-04-05T10:51:07.998Z</time></trkpt><trkpt lat="43.06796" lon="11.6149017"><ele>394.5</ele><time>2026-04-05T10:51:08.998Z</time></trkpt><trkpt lat="43.0678383" lon="11.6148617"><ele>395.25</ele><time>2026-04-05T10:51:09.998Z</time></trkpt><trkpt lat="43.0677117" lon="11.61481"><ele>396.0</ele><time>2026-04-05T10:51:10.998Z</time></trkpt><trkpt lat="43.067595" lon="11.6147633"><ele>396.0</ele><time>2026-04-05T10:51:11.998Z</time></trkpt><trkpt lat="43.0674833" lon="11.6147283"><ele>396.0</ele><time>2026-04-05T10:51:12.998Z</time></trkpt><trkpt lat="43.0673733" lon="11.6146883"><ele>396.0</ele><time>2026-04-05T10:51:13.998Z</time></trkpt><trkpt lat="43.06728" lon="11.614655"><ele>396.0</ele><time>2026-04-05T10:51:14.998Z</time></trkpt><trkpt lat="43.0671917" lon="11.614625"><ele>396.0</ele><time>2026-04-05T10:51:15.998Z</time></trkpt><trkpt lat="43.0670983" lon="11.6145867"><ele>396.25</ele><time>2026-04-05T10:51:16.998Z</time></trkpt><trkpt lat="43.0670017" lon="11.61455"><ele>396.5</ele><time>2026-04-05T10:51:17.998Z</time></trkpt><trkpt lat="43.0668967" lon="11.6145083"><ele>396.75</ele><time>2026-04-05T10:51:18.998Z</time></trkpt><trkpt lat="43.0667783" lon="11.6144517"><ele>397.0</ele><time>2026-04-05T10:51:19.998Z</time></trkpt><trkpt lat="43.0666617" lon="11.6143933"><ele>397.75</ele><time>2026-04-05T10:51:20.998Z</time></trkpt><trkpt lat="43.0665467" lon="11.6143183"><ele>398.5</ele><time>2026-04-05T10:51:21.998Z</time></trkpt><trkpt lat="43.0664267" lon="11.6142267"><ele>399.25</ele><time>2026-04-05T10:51:22.998Z</time></trkpt><trkpt lat="43.06632" lon="11.6141183"><ele>400.0</ele><time>2026-04-05T10:51:23.998Z</time></trkpt><trkpt lat="43.0662267" lon="11.6139933"><ele>400.0</ele><time>2026-04-05T10:51:24.998Z</time></trkpt><trkpt lat="43.0661367" lon="11.613855"><ele>400.0</ele><time>2026-04-05T10:51:25.998Z</time></trkpt><trkpt lat="43.0660567" lon="11.6136967"><ele>400.0</ele><time>2026-04-05T10:51:26.998Z</time></trkpt><trkpt lat="43.0659867" lon="11.613525"><ele>400.0</ele><time>2026-04-05T10:51:27.998Z</time></trkpt><trkpt lat="43.0659217" lon="11.6133433"><ele>400.0</ele><time>2026-04-05T10:51:28.998Z</time></trkpt><trkpt lat="43.0658483" lon="11.6131667"><ele>400.0</ele><time>2026-04-05T10:51:29.998Z</time></trkpt><trkpt lat="43.0657817" lon="11.612985"><ele>400.0</ele><time>2026-04-05T10:51:30.998Z</time></trkpt><trkpt lat="43.0657117" lon="11.6128033"><ele>400.0</ele><time>2026-04-05T10:51:31.998Z</time></trkpt><trkpt lat="43.0656417" lon="11.61262"><ele>399.75</ele><time>2026-04-05T10:51:32.998Z</time></trkpt><trkpt lat="43.0655733" lon="11.612435"><ele>399.5</ele><time>2026-04-05T10:51:33.998Z</time></trkpt><trkpt lat="43.0655017" lon="11.6122567"><ele>399.25</ele><time>2026-04-05T10:51:34.998Z</time></trkpt><trkpt lat="43.065435" lon="11.6120817"><ele>399.0</ele><time>2026-04-05T10:51:35.998Z</time></trkpt><trkpt lat="43.065365" lon="11.6118983"><ele>400.0</ele><time>2026-04-05T10:51:36.998Z</time></trkpt><trkpt lat="43.0652967" lon="11.61173"><ele>401.0</ele><time>2026-04-05T10:51:37.998Z</time></trkpt><trkpt lat="43.0652283" lon="11.6115633"><ele>402.0</ele><time>2026-04-05T10:51:38.998Z</time></trkpt><trkpt lat="43.0651533" lon="11.6114017"><ele>403.0</ele><time>2026-04-05T10:51:39.998Z</time></trkpt><trkpt lat="43.06507" lon="11.6112467"><ele>403.5</ele><time>2026-04-05T10:51:40.998Z</time></trkpt><trkpt lat="43.0649783" lon="11.6110967"><ele>404.0</ele><time>2026-04-05T10:51:41.998Z</time></trkpt><trkpt lat="43.0648883" lon="11.6109633"><ele>404.5</ele><time>2026-04-05T10:51:42.998Z</time></trkpt><trkpt lat="43.0647883" lon="11.6108433"><ele>405.0</ele><time>2026-04-05T10:51:43.998Z</time></trkpt><trkpt lat="43.0646767" lon="11.6107383"><ele>403.75</ele><time>2026-04-05T10:51:44.998Z</time></trkpt><trkpt lat="43.06456" lon="11.6106283"><ele>402.5</ele><time>2026-04-05T10:51:45.998Z</time></trkpt><trkpt lat="43.0644317" lon="11.610525"><ele>401.25</ele><time>2026-04-05T10:51:46.998Z</time></trkpt><trkpt lat="43.0643017" lon="11.6104383"><ele>400.0</ele><time>2026-04-05T10:51:47.998Z</time></trkpt><trkpt lat="43.0641667" lon="11.6103517"><ele>403.75</ele><time>2026-04-05T10:51:48.998Z</time></trkpt><trkpt lat="43.06404" lon="11.6102667"><ele>407.5</ele><time>2026-04-05T10:51:49.998Z</time></trkpt><trkpt lat="43.0639183" lon="11.610185"><ele>411.25</ele><time>2026-04-05T10:51:50.998Z</time></trkpt><trkpt lat="43.0638033" lon="11.6101117"><ele>415.0</ele><time>2026-04-05T10:51:51.998Z</time></trkpt><trkpt lat="43.0636883" lon="11.610035"><ele>415.0</ele><time>2026-04-05T10:51:52.998Z</time></trkpt><trkpt lat="43.063575" lon="11.60996"><ele>415.0</ele><time>2026-04-05T10:51:53.998Z</time></trkpt><trkpt lat="43.0634617" lon="11.6098817"><ele>415.0</ele><time>2026-04-05T10:51:54.998Z</time></trkpt><trkpt lat="43.0633483" lon="11.6098083"><ele>415.0</ele><time>2026-04-05T10:51:55.998Z</time></trkpt><trkpt lat="43.0632467" lon="11.609725"><ele>414.75</ele><time>2026-04-05T10:51:56.998Z</time></trkpt><trkpt lat="43.0631467" lon="11.609645"><ele>414.5</ele><time>2026-04-05T10:51:57.998Z</time></trkpt><trkpt lat="43.0630467" lon="11.6095617"><ele>414.25</ele><time>2026-04-05T10:51:58.998Z</time></trkpt><trkpt lat="43.06295" lon="11.609465"><ele>414.0</ele><time>2026-04-05T10:51:59.998Z</time></trkpt><trkpt lat="43.0628433" lon="11.6093533"><ele>414.0</ele><time>2026-04-05T10:52:00.998Z</time></trkpt><trkpt lat="43.0627417" lon="11.6092433"><ele>414.0</ele><time>2026-04-05T10:52:01.998Z</time></trkpt><trkpt lat="43.0626517" lon="11.60913"><ele>414.0</ele><time>2026-04-05T10:52:02.998Z</time></trkpt><trkpt lat="43.0625767" lon="11.609015"><ele>414.0</ele><time>2026-04-05T10:52:03.998Z</time></trkpt><trkpt lat="43.0624883" lon="11.6088917"><ele>412.0</ele><time>2026-04-05T10:52:04.998Z</time></trkpt><trkpt lat="43.0623883" lon="11.6087667"><ele>410.0</ele><time>2026-04-05T10:52:05.998Z</time></trkpt><trkpt lat="43.0622967" lon="11.608655"><ele>408.0</ele><time>2026-04-05T10:52:06.998Z</time></trkpt><trkpt lat="43.062205" lon="11.60853"><ele>406.0</ele><time>2026-04-05T10:52:07.998Z</time></trkpt><trkpt lat="43.062105" lon="11.6084083"><ele>405.75</ele><time>2026-04-05T10:52:08.998Z</time></trkpt><trkpt lat="43.0620083" lon="11.60828"><ele>405.5</ele><time>2026-04-05T10:52:09.998Z</time></trkpt><trkpt lat="43.0619067" lon="11.6081467"><ele>405.25</ele><time>2026-04-05T10:52:10.998Z</time></trkpt><trkpt lat="43.0618117" lon="11.6080033"><ele>405.0</ele><time>2026-04-05T10:52:11.998Z</time></trkpt><trkpt lat="43.061715" lon="11.60785"><ele>404.75</ele><time>2026-04-05T10:52:12.998Z</time></trkpt><trkpt lat="43.0616267" lon="11.6077033"><ele>404.5</ele><time>2026-04-05T10:52:13.998Z</time></trkpt><trkpt lat="43.0615467" lon="11.6075617"><ele>404.25</ele><time>2026-04-05T10:52:14.998Z</time></trkpt><trkpt lat="43.0614583" lon="11.60742"><ele>404.0</ele><time>2026-04-05T10:52:15.998Z</time></trkpt><trkpt lat="43.0613833" lon="11.607295"><ele>403.4</ele><time>2026-04-05T10:52:16.998Z</time></trkpt><trkpt lat="43.0613133" lon="11.6071683"><ele>402.79999999999995</ele><time>2026-04-05T10:52:17.998Z</time></trkpt><trkpt lat="43.06124" lon="11.60705"><ele>402.20000000000005</ele><time>2026-04-05T10:52:18.998Z</time></trkpt><trkpt lat="43.061175" lon="11.6069317"><ele>401.6</ele><time>2026-04-05T10:52:19.998Z</time></trkpt><trkpt lat="43.0611283" lon="11.6068233"><ele>401.0</ele><time>2026-04-05T10:52:20.998Z</time></trkpt><trkpt lat="43.0610817" lon="11.60672"><ele>400.99999999999994</ele><time>2026-04-05T10:52:21.998Z</time></trkpt><trkpt lat="43.0610433" lon="11.6066183"><ele>401.0</ele><time>2026-04-05T10:52:22.998Z</time></trkpt><trkpt lat="43.0610083" lon="11.6065267"><ele>401.0</ele><time>2026-04-05T10:52:23.998Z</time></trkpt><trkpt lat="43.06097" lon="11.6064317"><ele>401.0</ele><time>2026-04-05T10:52:24.998Z</time></trkpt><trkpt lat="43.060935" lon="11.6063333"><ele>400.99999999999994</ele><time>2026-04-05T10:52:25.998Z</time></trkpt><trkpt lat="43.0608883" lon="11.60623"><ele>401.0</ele><time>2026-04-05T10:52:26.998Z</time></trkpt><trkpt lat="43.0608383" lon="11.6061217"><ele>401.3333333333333</ele><time>2026-04-05T10:52:27.998Z</time></trkpt><trkpt lat="43.0608" lon="11.606"><ele>401.66666666666663</ele><time>2026-04-05T10:52:28.998Z</time></trkpt><trkpt lat="43.0607867" lon="11.6058833"><ele>402.0</ele><time>2026-04-05T10:52:29.998Z</time></trkpt><trkpt lat="43.0608033" lon="11.605775"><ele>402.33333333333337</ele><time>2026-04-05T10:52:30.998Z</time></trkpt><trkpt lat="43.0608417" lon="11.6056717"><ele>402.6666666666667</ele><time>2026-04-05T10:52:31.998Z</time></trkpt><trkpt lat="43.06089" lon="11.6055767"><ele>403.0</ele><time>2026-04-05T10:52:32.998Z</time></trkpt><trkpt lat="43.060935" lon="11.60547"><ele>403.0</ele><time>2026-04-05T10:52:33.998Z</time></trkpt><trkpt lat="43.0609683" lon="11.60534"><ele>403.0</ele><time>2026-04-05T10:52:34.998Z</time></trkpt><trkpt lat="43.0609883" lon="11.6052017"><ele>403.0</ele><time>2026-04-05T10:52:35.998Z</time></trkpt><trkpt lat="43.060995" lon="11.6050567"><ele>403.0</ele><time>2026-04-05T10:52:36.998Z</time></trkpt><trkpt lat="43.0609933" lon="11.6049133"><ele>403.0</ele><time>2026-04-05T10:52:37.998Z</time></trkpt><trkpt lat="43.060985" lon="11.6047767"><ele>404.5</ele><time>2026-04-05T10:52:38.998Z</time></trkpt><trkpt lat="43.0609767" lon="11.6046317"><ele>406.0</ele><time>2026-04-05T10:52:39.998Z</time></trkpt><trkpt lat="43.0609667" lon="11.604475"><ele>407.5</ele><time>2026-04-05T10:52:40.998Z</time></trkpt><trkpt lat="43.0609567" lon="11.60431"><ele>409.0</ele><time>2026-04-05T10:52:41.998Z</time></trkpt><trkpt lat="43.06095" lon="11.6041483"><ele>409.0</ele><time>2026-04-05T10:52:42.998Z</time></trkpt><trkpt lat="43.0609483" lon="11.603985"><ele>409.0</ele><time>2026-04-05T10:52:43.998Z</time></trkpt><trkpt lat="43.0609433" lon="11.6038217"><ele>409.0</ele><time>2026-04-05T10:52:44.998Z</time></trkpt><trkpt lat="43.0609433" lon="11.603655"><ele>409.0</ele><time>2026-04-05T10:52:45.998Z</time></trkpt><trkpt lat="43.0609517" lon="11.60349"><ele>408.75</ele><time>2026-04-05T10:52:46.998Z</time></trkpt><trkpt lat="43.0609533" lon="11.6033167"><ele>408.5</ele><time>2026-04-05T10:52:47.998Z</time></trkpt><trkpt lat="43.06095" lon="11.6031517"><ele>408.25</ele><time>2026-04-05T10:52:48.998Z</time></trkpt><trkpt lat="43.0609417" lon="11.602995"><ele>408.0</ele><time>2026-04-05T10:52:49.998Z</time></trkpt><trkpt lat="43.0609333" lon="11.60285"><ele>406.8333333333333</ele><time>2026-04-05T10:52:50.998Z</time></trkpt><trkpt lat="43.0609167" lon="11.602715"><ele>405.66666666666663</ele><time>2026-04-05T10:52:51.998Z</time></trkpt><trkpt lat="43.0609083" lon="11.6025983"><ele>404.5</ele><time>2026-04-05T10:52:52.998Z</time></trkpt><trkpt lat="43.0609083" lon="11.6024967"><ele>403.3333333333333</ele><time>2026-04-05T10:52:53.998Z</time></trkpt><trkpt lat="43.060915" lon="11.6024"><ele>402.16666666666663</ele><time>2026-04-05T10:52:54.998Z</time></trkpt><trkpt lat="43.06095" lon="11.6023183"><ele>401.0</ele><time>2026-04-05T10:52:55.998Z</time></trkpt><trkpt lat="43.061005" lon="11.60226"><ele>401.0</ele><time>2026-04-05T10:52:56.998Z</time></trkpt><trkpt lat="43.0610683" lon="11.60224"><ele>401.0</ele><time>2026-04-05T10:52:57.998Z</time></trkpt><trkpt lat="43.0611383" lon="11.6022567"><ele>401.0</ele><time>2026-04-05T10:52:58.998Z</time></trkpt><trkpt lat="43.0612017" lon="11.602315"><ele>401.0</ele><time>2026-04-05T10:52:59.998Z</time></trkpt><trkpt lat="43.0612433" lon="11.6023933"><ele>401.0</ele><time>2026-04-05T10:53:00.998Z</time></trkpt><trkpt lat="43.06125" lon="11.6024833"><ele>401.0</ele><time>2026-04-05T10:53:01.998Z</time></trkpt><trkpt lat="43.0612283" lon="11.602585"><ele>401.0</ele><time>2026-04-05T10:53:02.998Z</time></trkpt><trkpt lat="43.06119" lon="11.6026833"><ele>400.99999999999994</ele><time>2026-04-05T10:53:03.998Z</time></trkpt><trkpt lat="43.0611467" lon="11.6027867"><ele>401.0</ele><time>2026-04-05T10:53:04.998Z</time></trkpt><trkpt lat="43.0611067" lon="11.6029017"><ele>401.0</ele><time>2026-04-05T10:53:05.998Z</time></trkpt><trkpt lat="43.061075" lon="11.60302"><ele>401.0</ele><time>2026-04-05T10:53:06.998Z</time></trkpt><trkpt lat="43.0610717" lon="11.603135"><ele>400.99999999999994</ele><time>2026-04-05T10:53:07.998Z</time></trkpt><trkpt lat="43.0611" lon="11.6032467"><ele>401.0</ele><time>2026-04-05T10:53:08.998Z</time></trkpt><trkpt lat="43.061155" lon="11.603345"><ele>402.4</ele><time>2026-04-05T10:53:09.998Z</time></trkpt><trkpt lat="43.0612383" lon="11.6034217"><ele>403.8</ele><time>2026-04-05T10:53:10.998Z</time></trkpt><trkpt lat="43.0613333" lon="11.6034883"><ele>405.2</ele><time>2026-04-05T10:53:11.998Z</time></trkpt><trkpt lat="43.061425" lon="11.6035567"><ele>406.59999999999997</ele><time>2026-04-05T10:53:12.998Z</time></trkpt><trkpt lat="43.061495" lon="11.6036417"><ele>408.0</ele><time>2026-04-05T10:53:13.998Z</time></trkpt><trkpt lat="43.0615383" lon="11.6037367"><ele>408.2</ele><time>2026-04-05T10:53:14.998Z</time></trkpt><trkpt lat="43.0615567" lon="11.603845"><ele>408.4</ele><time>2026-04-05T10:53:15.998Z</time></trkpt><trkpt lat="43.0615633" lon="11.6039717"><ele>408.59999999999997</ele><time>2026-04-05T10:53:16.998Z</time></trkpt><trkpt lat="43.0615683" lon="11.604105"><ele>408.79999999999995</ele><time>2026-04-05T10:53:17.998Z</time></trkpt><trkpt lat="43.0615633" lon="11.6042583"><ele>409.0</ele><time>2026-04-05T10:53:18.998Z</time></trkpt><trkpt lat="43.0615433" lon="11.60442"><ele>409.0</ele><time>2026-04-05T10:53:19.998Z</time></trkpt><trkpt lat="43.06151" lon="11.6045817"><ele>409.0</ele><time>2026-04-05T10:53:20.998Z</time></trkpt><trkpt lat="43.0614817" lon="11.60475"><ele>409.0</ele><time>2026-04-05T10:53:21.998Z</time></trkpt><trkpt lat="43.061445" lon="11.6049133"><ele>409.0</ele><time>2026-04-05T10:53:22.998Z</time></trkpt><trkpt lat="43.0613933" lon="11.6050683"><ele>409.0</ele><time>2026-04-05T10:53:23.998Z</time></trkpt><trkpt lat="43.0613467" lon="11.6052267"><ele>409.0</ele><time>2026-04-05T10:53:24.998Z</time></trkpt><trkpt lat="43.06129" lon="11.6053833"><ele>409.0</ele><time>2026-04-05T10:53:25.998Z</time></trkpt><trkpt lat="43.0612183" lon="11.6055233"><ele>409.0</ele><time>2026-04-05T10:53:26.998Z</time></trkpt><trkpt lat="43.0611317" lon="11.6056683"><ele>407.5</ele><time>2026-04-05T10:53:27.998Z</time></trkpt><trkpt lat="43.06104" lon="11.6058167"><ele>406.0</ele><time>2026-04-05T10:53:28.998Z</time></trkpt><trkpt lat="43.0609417" lon="11.6059617"><ele>404.5</ele><time>2026-04-05T10:53:29.998Z</time></trkpt><trkpt lat="43.0608517" lon="11.6061117"><ele>403.0</ele><time>2026-04-05T10:53:30.998Z</time></trkpt><trkpt lat="43.0607633" lon="11.6062483"><ele>401.33333333333337</ele><time>2026-04-05T10:53:31.998Z</time></trkpt><trkpt lat="43.060655" lon="11.6063983"><ele>399.66666666666663</ele><time>2026-04-05T10:53:32.998Z</time></trkpt><trkpt lat="43.060555" lon="11.606555"><ele>398.0</ele><time>2026-04-05T10:53:33.998Z</time></trkpt><trkpt lat="43.06045" lon="11.6067167"><ele>398.0</ele><time>2026-04-05T10:53:34.998Z</time></trkpt><trkpt lat="43.0603533" lon="11.606885"><ele>398.0</ele><time>2026-04-05T10:53:35.998Z</time></trkpt><trkpt lat="43.060245" lon="11.60705"><ele>398.0</ele><time>2026-04-05T10:53:36.998Z</time></trkpt><trkpt lat="43.0601517" lon="11.6072233"><ele>398.0</ele><time>2026-04-05T10:53:37.998Z</time></trkpt><trkpt lat="43.0600567" lon="11.6073833"><ele>398.0</ele><time>2026-04-05T10:53:38.998Z</time></trkpt><trkpt lat="43.05996" lon="11.6075367"><ele>398.0</ele><time>2026-04-05T10:53:39.998Z</time></trkpt><trkpt lat="43.0598683" lon="11.6076883"><ele>398.0</ele><time>2026-04-05T10:53:40.998Z</time></trkpt><trkpt lat="43.0597833" lon="11.6078333"><ele>397.75</ele><time>2026-04-05T10:53:41.998Z</time></trkpt><trkpt lat="43.0596817" lon="11.6079733"><ele>397.5</ele><time>2026-04-05T10:53:42.998Z</time></trkpt><trkpt lat="43.0595883" lon="11.6081133"><ele>397.25</ele><time>2026-04-05T10:53:43.998Z</time></trkpt><trkpt lat="43.0594933" lon="11.6082617"><ele>397.0</ele><time>2026-04-05T10:53:44.998Z</time></trkpt><trkpt lat="43.0594017" lon="11.60841"><ele>397.0</ele><time>2026-04-05T10:53:45.998Z</time></trkpt><trkpt lat="43.059315" lon="11.6085683"><ele>397.0</ele><time>2026-04-05T10:53:46.998Z</time></trkpt><trkpt lat="43.05922" lon="11.60873"><ele>397.0</ele><time>2026-04-05T10:53:47.998Z</time></trkpt><trkpt lat="43.05913" lon="11.6088783"><ele>397.0</ele><time>2026-04-05T10:53:48.998Z</time></trkpt><trkpt lat="43.059035" lon="11.60903"><ele>397.25</ele><time>2026-04-05T10:53:49.998Z</time></trkpt><trkpt lat="43.05894" lon="11.6091833"><ele>397.5</ele><time>2026-04-05T10:53:50.998Z</time></trkpt><trkpt lat="43.058845" lon="11.6093417"><ele>397.75</ele><time>2026-04-05T10:53:51.998Z</time></trkpt><trkpt lat="43.0587433" lon="11.60949"><ele>398.0</ele><time>2026-04-05T10:53:52.998Z</time></trkpt><trkpt lat="43.058645" lon="11.609645"><ele>395.75</ele><time>2026-04-05T10:53:53.998Z</time></trkpt><trkpt lat="43.0585383" lon="11.6097967"><ele>393.5</ele><time>2026-04-05T10:53:54.998Z</time></trkpt><trkpt lat="43.0584467" lon="11.60995"><ele>391.25</ele><time>2026-04-05T10:53:55.998Z</time></trkpt><trkpt lat="43.058355" lon="11.6101083"><ele>389.0</ele><time>2026-04-05T10:53:56.998Z</time></trkpt><trkpt lat="43.05826" lon="11.6102533"><ele>386.25</ele><time>2026-04-05T10:53:57.998Z</time></trkpt><trkpt lat="43.0581717" lon="11.6103967"><ele>383.5</ele><time>2026-04-05T10:53:58.998Z</time></trkpt><trkpt lat="43.0580783" lon="11.6105367"><ele>380.75</ele><time>2026-04-05T10:53:59.998Z</time></trkpt><trkpt lat="43.0579733" lon="11.6106717"><ele>378.0</ele><time>2026-04-05T10:54:00.998Z</time></trkpt><trkpt lat="43.0578567" lon="11.61079"><ele>378.0</ele><time>2026-04-05T10:54:01.998Z</time></trkpt><trkpt lat="43.0577383" lon="11.6108883"><ele>378.0</ele><time>2026-04-05T10:54:02.998Z</time></trkpt><trkpt lat="43.0576033" lon="11.6109583"><ele>378.0</ele><time>2026-04-05T10:54:03.998Z</time></trkpt><trkpt lat="43.0574583" lon="11.6109967"><ele>378.0</ele><time>2026-04-05T10:54:04.998Z</time></trkpt><trkpt lat="43.0573183" lon="11.611015"><ele>377.0</ele><time>2026-04-05T10:54:05.998Z</time></trkpt><trkpt lat="43.05718" lon="11.611015"><ele>376.0</ele><time>2026-04-05T10:54:06.998Z</time></trkpt><trkpt lat="43.0570433" lon="11.6109883"><ele>375.0</ele><time>2026-04-05T10:54:07.998Z</time></trkpt><trkpt lat="43.0569083" lon="11.6109283"><ele>374.0</ele><time>2026-04-05T10:54:08.998Z</time></trkpt><trkpt lat="43.0567833" lon="11.6108467"><ele>374.0</ele><time>2026-04-05T10:54:09.998Z</time></trkpt><trkpt lat="43.0566617" lon="11.61075"><ele>374.0</ele><time>2026-04-05T10:54:10.998Z</time></trkpt><trkpt lat="43.05655" lon="11.610655"><ele>374.0</ele><time>2026-04-05T10:54:11.998Z</time></trkpt><trkpt lat="43.0564433" lon="11.6105617"><ele>374.0</ele><time>2026-04-05T10:54:12.998Z</time></trkpt><trkpt lat="43.056345" lon="11.610475"><ele>373.6666666666667</ele><time>2026-04-05T10:54:13.998Z</time></trkpt><trkpt lat="43.056255" lon="11.6103983"><ele>373.33333333333337</ele><time>2026-04-05T10:54:14.998Z</time></trkpt><trkpt lat="43.0561767" lon="11.6103367"><ele>373.0</ele><time>2026-04-05T10:54:15.998Z</time></trkpt><trkpt lat="43.0561083" lon="11.6102817"><ele>372.6666666666667</ele><time>2026-04-05T10:54:16.998Z</time></trkpt><trkpt lat="43.0560467" lon="11.6102317"><ele>372.3333333333333</ele><time>2026-04-05T10:54:17.998Z</time></trkpt><trkpt lat="43.0559883" lon="11.61019"><ele>372.0</ele><time>2026-04-05T10:54:18.995Z</time></trkpt><trkpt lat="43.05588" lon="11.6101817"><ele>371.3333333333333</ele><time>2026-04-05T10:54:20.998Z</time></trkpt><trkpt lat="43.0558233" lon="11.61023"><ele>370.6666666666667</ele><time>2026-04-05T10:54:21.998Z</time></trkpt><trkpt lat="43.055765" lon="11.6103"><ele>370.0</ele><time>2026-04-05T10:54:22.998Z</time></trkpt><trkpt lat="43.05571" lon="11.61039"><ele>369.33333333333337</ele><time>2026-04-05T10:54:23.998Z</time></trkpt><trkpt lat="43.055655" lon="11.610495"><ele>368.6666666666667</ele><time>2026-04-05T10:54:24.998Z</time></trkpt><trkpt lat="43.0555933" lon="11.6106117"><ele>368.0</ele><time>2026-04-05T10:54:25.998Z</time></trkpt><trkpt lat="43.0555283" lon="11.6107367"><ele>367.4</ele><time>2026-04-05T10:54:26.998Z</time></trkpt><trkpt lat="43.0554617" lon="11.6108667"><ele>366.79999999999995</ele><time>2026-04-05T10:54:27.998Z</time></trkpt><trkpt lat="43.0553933" lon="11.6109867"><ele>366.2</ele><time>2026-04-05T10:54:28.998Z</time></trkpt><trkpt lat="43.0553233" lon="11.6111067"><ele>365.6</ele><time>2026-04-05T10:54:29.998Z</time></trkpt><trkpt lat="43.0552617" lon="11.6112233"><ele>365.0</ele><time>2026-04-05T10:54:30.998Z</time></trkpt><trkpt lat="43.0551983" lon="11.6113433"><ele>364.2</ele><time>2026-04-05T10:54:31.998Z</time></trkpt><trkpt lat="43.0551417" lon="11.6114633"><ele>363.4</ele><time>2026-04-05T10:54:32.998Z</time></trkpt><trkpt lat="43.0550867" lon="11.611575"><ele>362.6</ele><time>2026-04-05T10:54:33.998Z</time></trkpt><trkpt lat="43.0550283" lon="11.61168"><ele>361.8</ele><time>2026-04-05T10:54:34.998Z</time></trkpt><trkpt lat="43.0549717" lon="11.611795"><ele>361.0</ele><time>2026-04-05T10:54:35.998Z</time></trkpt><trkpt lat="43.054905" lon="11.6119017"><ele>359.8</ele><time>2026-04-05T10:54:36.998Z</time></trkpt><trkpt lat="43.0548367" lon="11.6120233"><ele>358.6</ele><time>2026-04-05T10:54:37.998Z</time></trkpt><trkpt lat="43.05476" lon="11.61212"><ele>357.4</ele><time>2026-04-05T10:54:38.998Z</time></trkpt><trkpt lat="43.0546733" lon="11.61222"><ele>356.2</ele><time>2026-04-05T10:54:39.998Z</time></trkpt><trkpt lat="43.054585" lon="11.612315"><ele>355.0</ele><time>2026-04-05T10:54:40.998Z</time></trkpt><trkpt lat="43.0544917" lon="11.612415"><ele>355.0</ele><time>2026-04-05T10:54:41.998Z</time></trkpt><trkpt lat="43.0543933" lon="11.61252"><ele>355.0</ele><time>2026-04-05T10:54:42.998Z</time></trkpt><trkpt lat="43.0542983" lon="11.612615"><ele>355.0</ele><time>2026-04-05T10:54:43.998Z</time></trkpt><trkpt lat="43.054195" lon="11.6127117"><ele>355.0</ele><time>2026-04-05T10:54:44.998Z</time></trkpt><trkpt lat="43.0540833" lon="11.6128067"><ele>352.5</ele><time>2026-04-05T10:54:45.998Z</time></trkpt><trkpt lat="43.0539783" lon="11.612895"><ele>350.0</ele><time>2026-04-05T10:54:46.998Z</time></trkpt><trkpt lat="43.0538733" lon="11.6129883"><ele>347.5</ele><time>2026-04-05T10:54:47.998Z</time></trkpt><trkpt lat="43.0537667" lon="11.61309"><ele>345.0</ele><time>2026-04-05T10:54:48.998Z</time></trkpt><trkpt lat="43.0536667" lon="11.613195"><ele>345.0</ele><time>2026-04-05T10:54:49.998Z</time></trkpt><trkpt lat="43.053555" lon="11.6133083"><ele>345.0</ele><time>2026-04-05T10:54:50.998Z</time></trkpt><trkpt lat="43.0534517" lon="11.613425"><ele>345.0</ele><time>2026-04-05T10:54:51.998Z</time></trkpt><trkpt lat="43.053355" lon="11.6135333"><ele>345.0</ele><time>2026-04-05T10:54:52.998Z</time></trkpt><trkpt lat="43.0532583" lon="11.613645"><ele>342.75</ele><time>2026-04-05T10:54:53.998Z</time></trkpt><trkpt lat="43.053155" lon="11.61376"><ele>340.5</ele><time>2026-04-05T10:54:54.998Z</time></trkpt><trkpt lat="43.0530483" lon="11.6138683"><ele>338.25</ele><time>2026-04-05T10:54:55.998Z</time></trkpt><trkpt lat="43.052935" lon="11.6139667"><ele>336.0</ele><time>2026-04-05T10:54:56.998Z</time></trkpt><trkpt lat="43.0528317" lon="11.614035"><ele>336.0</ele><time>2026-04-05T10:54:57.998Z</time></trkpt><trkpt lat="43.0527267" lon="11.614085"><ele>336.0</ele><time>2026-04-05T10:54:58.998Z</time></trkpt><trkpt lat="43.0526333" lon="11.614115"><ele>336.0</ele><time>2026-04-05T10:54:59.998Z</time></trkpt><trkpt lat="43.0525483" lon="11.6141483"><ele>336.0</ele><time>2026-04-05T10:55:00.998Z</time></trkpt><trkpt lat="43.0524783" lon="11.61422"><ele>336.0</ele><time>2026-04-05T10:55:01.998Z</time></trkpt><trkpt lat="43.052425" lon="11.61432"><ele>335.25</ele><time>2026-04-05T10:55:02.998Z</time></trkpt><trkpt lat="43.052415" lon="11.6144583"><ele>334.5</ele><time>2026-04-05T10:55:03.998Z</time></trkpt><trkpt lat="43.0524333" lon="11.6146117"><ele>333.75</ele><time>2026-04-05T10:55:04.998Z</time></trkpt><trkpt lat="43.0524617" lon="11.614775"><ele>333.0</ele><time>2026-04-05T10:55:05.998Z</time></trkpt><trkpt lat="43.05249" lon="11.6149283"><ele>333.0</ele><time>2026-04-05T10:55:06.998Z</time></trkpt><trkpt lat="43.05253" lon="11.6150733"><ele>333.0</ele><time>2026-04-05T10:55:07.998Z</time></trkpt><trkpt lat="43.0526" lon="11.6151983"><ele>333.0</ele><time>2026-04-05T10:55:08.998Z</time></trkpt><trkpt lat="43.05268" lon="11.6152967"><ele>333.0</ele><time>2026-04-05T10:55:09.998Z</time></trkpt><trkpt lat="43.0527817" lon="11.6153883"><ele>332.2</ele><time>2026-04-05T10:55:10.998Z</time></trkpt><trkpt lat="43.052875" lon="11.61548"><ele>331.4</ele><time>2026-04-05T10:55:11.998Z</time></trkpt><trkpt lat="43.0529567" lon="11.615575"><ele>330.59999999999997</ele><time>2026-04-05T10:55:12.998Z</time></trkpt><trkpt lat="43.0530467" lon="11.6156667"><ele>329.79999999999995</ele><time>2026-04-05T10:55:13.998Z</time></trkpt><trkpt lat="43.05312" lon="11.615755"><ele>329.0</ele><time>2026-04-05T10:55:14.998Z</time></trkpt><trkpt lat="43.0531717" lon="11.6158533"><ele>329.0</ele><time>2026-04-05T10:55:15.998Z</time></trkpt><trkpt lat="43.0532" lon="11.61596"><ele>329.0</ele><time>2026-04-05T10:55:16.998Z</time></trkpt><trkpt lat="43.05319" lon="11.6160767"><ele>329.0</ele><time>2026-04-05T10:55:17.998Z</time></trkpt><trkpt lat="43.0531517" lon="11.61622"><ele>329.0</ele><time>2026-04-05T10:55:18.998Z</time></trkpt><trkpt lat="43.053105" lon="11.6163733"><ele>329.0</ele><time>2026-04-05T10:55:19.998Z</time></trkpt><trkpt lat="43.0530567" lon="11.61654"><ele>328.0</ele><time>2026-04-05T10:55:20.998Z</time></trkpt><trkpt lat="43.0530067" lon="11.6167017"><ele>327.0</ele><time>2026-04-05T10:55:21.998Z</time></trkpt><trkpt lat="43.0529767" lon="11.61686"><ele>326.0</ele><time>2026-04-05T10:55:22.998Z</time></trkpt><trkpt lat="43.0529583" lon="11.61702"><ele>325.0</ele><time>2026-04-05T10:55:23.998Z</time></trkpt><trkpt lat="43.0529433" lon="11.61716"><ele>322.75</ele><time>2026-04-05T10:55:24.998Z</time></trkpt><trkpt lat="43.05292" lon="11.61731"><ele>320.5</ele><time>2026-04-05T10:55:25.998Z</time></trkpt><trkpt lat="43.0528933" lon="11.617455"><ele>318.25</ele><time>2026-04-05T10:55:26.997Z</time></trkpt><trkpt lat="43.0528433" lon="11.6176017"><ele>316.0</ele><time>2026-04-05T10:55:27.997Z</time></trkpt><trkpt lat="43.0527767" lon="11.61774"><ele>315.0</ele><time>2026-04-05T10:55:28.997Z</time></trkpt><trkpt lat="43.0527067" lon="11.617885"><ele>314.0</ele><time>2026-04-05T10:55:29.997Z</time></trkpt><trkpt lat="43.0526333" lon="11.618035"><ele>313.0</ele><time>2026-04-05T10:55:30.997Z</time></trkpt><trkpt lat="43.052565" lon="11.61819"><ele>312.0</ele><time>2026-04-05T10:55:31.997Z</time></trkpt><trkpt lat="43.0524967" lon="11.61835"><ele>311.5</ele><time>2026-04-05T10:55:32.997Z</time></trkpt><trkpt lat="43.0524317" lon="11.6185117"><ele>311.0</ele><time>2026-04-05T10:55:33.997Z</time></trkpt><trkpt lat="43.0523667" lon="11.6186883"><ele>310.5</ele><time>2026-04-05T10:55:34.997Z</time></trkpt><trkpt lat="43.0523017" lon="11.6188617"><ele>310.0</ele><time>2026-04-05T10:55:35.997Z</time></trkpt><trkpt lat="43.052235" lon="11.6190383"><ele>307.75</ele><time>2026-04-05T10:55:36.997Z</time></trkpt><trkpt lat="43.0521583" lon="11.6192133"><ele>305.5</ele><time>2026-04-05T10:55:37.997Z</time></trkpt><trkpt lat="43.0520783" lon="11.6193833"><ele>303.25</ele><time>2026-04-05T10:55:38.997Z</time></trkpt><trkpt lat="43.052" lon="11.6195433"><ele>301.0</ele><time>2026-04-05T10:55:39.997Z</time></trkpt><trkpt lat="43.0519183" lon="11.6197"><ele>299.25</ele><time>2026-04-05T10:55:40.997Z</time></trkpt><trkpt lat="43.0518467" lon="11.6198367"><ele>297.5</ele><time>2026-04-05T10:55:41.997Z</time></trkpt><trkpt lat="43.0517767" lon="11.6199667"><ele>295.75</ele><time>2026-04-05T10:55:42.997Z</time></trkpt><trkpt lat="43.051705" lon="11.6200783"><ele>294.0</ele><time>2026-04-05T10:55:43.997Z</time></trkpt><trkpt lat="43.051615" lon="11.6201633"><ele>293.59999999999997</ele><time>2026-04-05T10:55:44.997Z</time></trkpt><trkpt lat="43.0515267" lon="11.6202283"><ele>293.2</ele><time>2026-04-05T10:55:45.997Z</time></trkpt><trkpt lat="43.0514283" lon="11.620275"><ele>292.79999999999995</ele><time>2026-04-05T10:55:46.997Z</time></trkpt><trkpt lat="43.051315" lon="11.6203033"><ele>292.4</ele><time>2026-04-05T10:55:47.997Z</time></trkpt><trkpt lat="43.0511917" lon="11.62032"><ele>292.0</ele><time>2026-04-05T10:55:48.997Z</time></trkpt><trkpt lat="43.0510633" lon="11.620345"><ele>291.75</ele><time>2026-04-05T10:55:49.997Z</time></trkpt><trkpt lat="43.0509383" lon="11.6203767"><ele>291.5</ele><time>2026-04-05T10:55:50.997Z</time></trkpt><trkpt lat="43.0508083" lon="11.6203933"><ele>291.25</ele><time>2026-04-05T10:55:51.997Z</time></trkpt><trkpt lat="43.05068" lon="11.6204133"><ele>291.0</ele><time>2026-04-05T10:55:52.997Z</time></trkpt><trkpt lat="43.05055" lon="11.6204383"><ele>291.0</ele><time>2026-04-05T10:55:53.997Z</time></trkpt><trkpt lat="43.0504283" lon="11.62046"><ele>291.0</ele><time>2026-04-05T10:55:54.997Z</time></trkpt><trkpt lat="43.050305" lon="11.6204867"><ele>291.0</ele><time>2026-04-05T10:55:55.997Z</time></trkpt><trkpt lat="43.050185" lon="11.6205183"><ele>291.0</ele><time>2026-04-05T10:55:56.997Z</time></trkpt><trkpt lat="43.0500733" lon="11.6205767"><ele>291.0</ele><time>2026-04-05T10:55:57.997Z</time></trkpt><trkpt lat="43.0499717" lon="11.6206767"><ele>291.0</ele><time>2026-04-05T10:55:58.997Z</time></trkpt><trkpt lat="43.0498883" lon="11.6208083"><ele>291.0</ele><time>2026-04-05T10:55:59.997Z</time></trkpt><trkpt lat="43.049825" lon="11.6209683"><ele>291.0</ele><time>2026-04-05T10:56:00.997Z</time></trkpt><trkpt lat="43.0497733" lon="11.621145"><ele>292.75</ele><time>2026-04-05T10:56:01.997Z</time></trkpt><trkpt lat="43.049725" lon="11.62133"><ele>294.5</ele><time>2026-04-05T10:56:02.997Z</time></trkpt><trkpt lat="43.049685" lon="11.621505"><ele>296.25</ele><time>2026-04-05T10:56:03.997Z</time></trkpt><trkpt lat="43.0496533" lon="11.6216783"><ele>298.0</ele><time>2026-04-05T10:56:04.997Z</time></trkpt><trkpt lat="43.04962" lon="11.621855"><ele>297.2</ele><time>2026-04-05T10:56:05.997Z</time></trkpt><trkpt lat="43.049585" lon="11.6220233"><ele>296.4</ele><time>2026-04-05T10:56:06.997Z</time></trkpt><trkpt lat="43.0495517" lon="11.6221583"><ele>295.59999999999997</ele><time>2026-04-05T10:56:07.997Z</time></trkpt><trkpt lat="43.0495283" lon="11.6222667"><ele>294.8</ele><time>2026-04-05T10:56:08.997Z</time></trkpt><trkpt lat="43.0494933" lon="11.622375"><ele>294.0</ele><time>2026-04-05T10:56:10.997Z</time></trkpt><trkpt lat="43.0494167" lon="11.6224533"><ele>294.0</ele><time>2026-04-05T10:56:15.997Z</time></trkpt><trkpt lat="43.049345" lon="11.622605"><ele>294.0</ele><time>2026-04-05T10:56:17.997Z</time></trkpt><trkpt lat="43.0493083" lon="11.6227183"><ele>294.0</ele><time>2026-04-05T10:56:18.997Z</time></trkpt><trkpt lat="43.049265" lon="11.6228433"><ele>294.0</ele><time>2026-04-05T10:56:19.997Z</time></trkpt><trkpt lat="43.0492267" lon="11.62299"><ele>294.0</ele><time>2026-04-05T10:56:20.997Z</time></trkpt><trkpt lat="43.0491683" lon="11.6231383"><ele>293.75</ele><time>2026-04-05T10:56:21.997Z</time></trkpt><trkpt lat="43.0491017" lon="11.6232917"><ele>293.5</ele><time>2026-04-05T10:56:22.997Z</time></trkpt><trkpt lat="43.0490333" lon="11.6234517"><ele>293.25</ele><time>2026-04-05T10:56:23.997Z</time></trkpt><trkpt lat="43.0489583" lon="11.62362"><ele>293.0</ele><time>2026-04-05T10:56:24.997Z</time></trkpt><trkpt lat="43.0488883" lon="11.6237933"><ele>293.0</ele><time>2026-04-05T10:56:25.997Z</time></trkpt><trkpt lat="43.0488117" lon="11.6239617"><ele>293.0</ele><time>2026-04-05T10:56:26.997Z</time></trkpt><trkpt lat="43.0487233" lon="11.6241417"><ele>293.0</ele><time>2026-04-05T10:56:27.997Z</time></trkpt><trkpt lat="43.0486367" lon="11.624315"><ele>291.25</ele><time>2026-04-05T10:56:28.997Z</time></trkpt><trkpt lat="43.0485533" lon="11.6244917"><ele>289.5</ele><time>2026-04-05T10:56:29.997Z</time></trkpt><trkpt lat="43.0484733" lon="11.624665"><ele>287.75</ele><time>2026-04-05T10:56:30.997Z</time></trkpt><trkpt lat="43.048395" lon="11.6248333"><ele>286.0</ele><time>2026-04-05T10:56:31.997Z</time></trkpt><trkpt lat="43.0483133" lon="11.6249867"><ele>285.5</ele><time>2026-04-05T10:56:32.997Z</time></trkpt><trkpt lat="43.04823" lon="11.6251383"><ele>285.0</ele><time>2026-04-05T10:56:33.997Z</time></trkpt><trkpt lat="43.048145" lon="11.62528"><ele>284.5</ele><time>2026-04-05T10:56:34.997Z</time></trkpt><trkpt lat="43.048045" lon="11.625395"><ele>284.0</ele><time>2026-04-05T10:56:35.997Z</time></trkpt><trkpt lat="43.0479317" lon="11.6254683"><ele>282.75</ele><time>2026-04-05T10:56:36.997Z</time></trkpt><trkpt lat="43.0477983" lon="11.6254917"><ele>281.5</ele><time>2026-04-05T10:56:37.997Z</time></trkpt><trkpt lat="43.0476583" lon="11.625485"><ele>280.25</ele><time>2026-04-05T10:56:38.997Z</time></trkpt><trkpt lat="43.0475117" lon="11.62548"><ele>279.0</ele><time>2026-04-05T10:56:39.997Z</time></trkpt><trkpt lat="43.04736" lon="11.6254733"><ele>278.3333333333333</ele><time>2026-04-05T10:56:40.997Z</time></trkpt><trkpt lat="43.047205" lon="11.6254667"><ele>277.66666666666663</ele><time>2026-04-05T10:56:41.997Z</time></trkpt><trkpt lat="43.04705" lon="11.6254617"><ele>277.0</ele><time>2026-04-05T10:56:42.997Z</time></trkpt><trkpt lat="43.0468933" lon="11.6254583"><ele>277.0</ele><time>2026-04-05T10:56:43.997Z</time></trkpt><trkpt lat="43.04674" lon="11.62544"><ele>277.0</ele><time>2026-04-05T10:56:44.997Z</time></trkpt><trkpt lat="43.0465883" lon="11.62542"><ele>277.0</ele><time>2026-04-05T10:56:45.997Z</time></trkpt><trkpt lat="43.0464467" lon="11.62538"><ele>276.3333333333333</ele><time>2026-04-05T10:56:46.997Z</time></trkpt><trkpt lat="43.0463067" lon="11.6253233"><ele>275.6666666666667</ele><time>2026-04-05T10:56:47.997Z</time></trkpt><trkpt lat="43.0461583" lon="11.6252367"><ele>275.0</ele><time>2026-04-05T10:56:48.997Z</time></trkpt><trkpt lat="43.0460167" lon="11.6251583"><ele>275.75</ele><time>2026-04-05T10:56:49.997Z</time></trkpt><trkpt lat="43.0458783" lon="11.625105"><ele>276.5</ele><time>2026-04-05T10:56:50.997Z</time></trkpt><trkpt lat="43.0457317" lon="11.6250567"><ele>277.25</ele><time>2026-04-05T10:56:51.997Z</time></trkpt><trkpt lat="43.0455783" lon="11.6250283"><ele>278.0</ele><time>2026-04-05T10:56:52.997Z</time></trkpt><trkpt lat="43.045425" lon="11.625025"><ele>278.0</ele><time>2026-04-05T10:56:53.997Z</time></trkpt><trkpt lat="43.0452717" lon="11.6250317"><ele>278.0</ele><time>2026-04-05T10:56:54.997Z</time></trkpt><trkpt lat="43.0451183" lon="11.6250367"><ele>278.0</ele><time>2026-04-05T10:56:55.997Z</time></trkpt><trkpt lat="43.04496" lon="11.6250417"><ele>278.33333333333337</ele><time>2026-04-05T10:56:56.997Z</time></trkpt><trkpt lat="43.044805" lon="11.6250417"><ele>278.6666666666667</ele><time>2026-04-05T10:56:57.997Z</time></trkpt><trkpt lat="43.0446467" lon="11.62504"><ele>279.0</ele><time>2026-04-05T10:56:58.997Z</time></trkpt><trkpt lat="43.04449" lon="11.6250617"><ele>279.0</ele><time>2026-04-05T10:56:59.997Z</time></trkpt><trkpt lat="43.044335" lon="11.6250983"><ele>279.0</ele><time>2026-04-05T10:57:00.997Z</time></trkpt><trkpt lat="43.044185" lon="11.62516"><ele>279.0</ele><time>2026-04-05T10:57:01.997Z</time></trkpt><trkpt lat="43.0440333" lon="11.6252367"><ele>277.3333333333333</ele><time>2026-04-05T10:57:02.997Z</time></trkpt><trkpt lat="43.0438767" lon="11.6253133"><ele>275.66666666666663</ele><time>2026-04-05T10:57:03.997Z</time></trkpt><trkpt lat="43.043715" lon="11.625395"><ele>274.0</ele><time>2026-04-05T10:57:04.997Z</time></trkpt><trkpt lat="43.04355" lon="11.6254817"><ele>274.0</ele><time>2026-04-05T10:57:05.997Z</time></trkpt><trkpt lat="43.0433883" lon="11.6255717"><ele>274.0</ele><time>2026-04-05T10:57:06.997Z</time></trkpt><trkpt lat="43.043225" lon="11.6256617"><ele>274.0</ele><time>2026-04-05T10:57:07.997Z</time></trkpt><trkpt lat="43.0430567" lon="11.625745"><ele>274.0</ele><time>2026-04-05T10:57:08.997Z</time></trkpt><trkpt lat="43.0428883" lon="11.625835"><ele>274.0</ele><time>2026-04-05T10:57:09.997Z</time></trkpt><trkpt lat="43.042725" lon="11.62592"><ele>274.0</ele><time>2026-04-05T10:57:10.997Z</time></trkpt><trkpt lat="43.0425633" lon="11.626"><ele>274.66666666666663</ele><time>2026-04-05T10:57:11.997Z</time></trkpt><trkpt lat="43.042405" lon="11.6260817"><ele>275.3333333333333</ele><time>2026-04-05T10:57:12.997Z</time></trkpt><trkpt lat="43.0422467" lon="11.626165"><ele>276.0</ele><time>2026-04-05T10:57:13.997Z</time></trkpt><trkpt lat="43.042095" lon="11.626245"><ele>275.0</ele><time>2026-04-05T10:57:14.997Z</time></trkpt><trkpt lat="43.0419417" lon="11.6263283"><ele>274.0</ele><time>2026-04-05T10:57:15.997Z</time></trkpt><trkpt lat="43.041785" lon="11.6264033"><ele>273.0</ele><time>2026-04-05T10:57:16.997Z</time></trkpt><trkpt lat="43.0416233" lon="11.6264717"><ele>273.0</ele><time>2026-04-05T10:57:17.997Z</time></trkpt><trkpt lat="43.0414567" lon="11.6265417"><ele>273.0</ele><time>2026-04-05T10:57:18.997Z</time></trkpt><trkpt lat="43.041285" lon="11.6265917"><ele>273.0</ele><time>2026-04-05T10:57:19.997Z</time></trkpt><trkpt lat="43.0411133" lon="11.6266367"><ele>273.0</ele><time>2026-04-05T10:57:20.997Z</time></trkpt><trkpt lat="43.040945" lon="11.6266767"><ele>273.0</ele><time>2026-04-05T10:57:21.997Z</time></trkpt><trkpt lat="43.040775" lon="11.6267183"><ele>273.0</ele><time>2026-04-05T10:57:22.997Z</time></trkpt><trkpt lat="43.0406" lon="11.6267717"><ele>272.3333333333333</ele><time>2026-04-05T10:57:23.997Z</time></trkpt><trkpt lat="43.0404333" lon="11.626825"><ele>271.66666666666663</ele><time>2026-04-05T10:57:24.997Z</time></trkpt><trkpt lat="43.0402667" lon="11.6268533"><ele>271.0</ele><time>2026-04-05T10:57:25.997Z</time></trkpt><trkpt lat="43.0400967" lon="11.626865"><ele>271.66666666666663</ele><time>2026-04-05T10:57:26.997Z</time></trkpt><trkpt lat="43.039925" lon="11.6268683"><ele>272.3333333333333</ele><time>2026-04-05T10:57:27.997Z</time></trkpt><trkpt lat="43.03975" lon="11.6268617"><ele>273.0</ele><time>2026-04-05T10:57:28.997Z</time></trkpt><trkpt lat="43.0395767" lon="11.6268567"><ele>273.0</ele><time>2026-04-05T10:57:29.997Z</time></trkpt><trkpt lat="43.0394033" lon="11.6268533"><ele>273.0</ele><time>2026-04-05T10:57:30.997Z</time></trkpt><trkpt lat="43.0392317" lon="11.6268517"><ele>273.0</ele><time>2026-04-05T10:57:31.997Z</time></trkpt><trkpt lat="43.03906" lon="11.6268483"><ele>273.0</ele><time>2026-04-05T10:57:32.997Z</time></trkpt><trkpt lat="43.0388883" lon="11.6268617"><ele>273.0</ele><time>2026-04-05T10:57:33.997Z</time></trkpt><trkpt lat="43.038725" lon="11.6268867"><ele>273.0</ele><time>2026-04-05T10:57:34.997Z</time></trkpt><trkpt lat="43.03855" lon="11.62691"><ele>273.0</ele><time>2026-04-05T10:57:35.997Z</time></trkpt><trkpt lat="43.0383683" lon="11.6269417"><ele>273.0</ele><time>2026-04-05T10:57:36.997Z</time></trkpt><trkpt lat="43.0381933" lon="11.6269767"><ele>273.0</ele><time>2026-04-05T10:57:37.997Z</time></trkpt><trkpt lat="43.038015" lon="11.62701"><ele>270.6666666666667</ele><time>2026-04-05T10:57:38.997Z</time></trkpt><trkpt lat="43.0378267" lon="11.62704"><ele>268.33333333333337</ele><time>2026-04-05T10:57:39.997Z</time></trkpt><trkpt lat="43.0376433" lon="11.6270717"><ele>266.0</ele><time>2026-04-05T10:57:40.997Z</time></trkpt><trkpt lat="43.0374617" lon="11.6271017"><ele>266.0</ele><time>2026-04-05T10:57:41.997Z</time></trkpt><trkpt lat="43.03728" lon="11.6271367"><ele>266.0</ele><time>2026-04-05T10:57:42.997Z</time></trkpt><trkpt lat="43.0370917" lon="11.6271633"><ele>266.0</ele><time>2026-04-05T10:57:43.997Z</time></trkpt><trkpt lat="43.0369083" lon="11.6271933"><ele>266.0</ele><time>2026-04-05T10:57:44.997Z</time></trkpt><trkpt lat="43.0367233" lon="11.6272267"><ele>266.0</ele><time>2026-04-05T10:57:45.997Z</time></trkpt><trkpt lat="43.0365383" lon="11.6272533"><ele>266.0</ele><time>2026-04-05T10:57:46.997Z</time></trkpt><trkpt lat="43.03636" lon="11.6272867"><ele>267.6666666666667</ele><time>2026-04-05T10:57:47.997Z</time></trkpt><trkpt lat="43.0361833" lon="11.6273167"><ele>269.3333333333333</ele><time>2026-04-05T10:57:48.997Z</time></trkpt><trkpt lat="43.0360067" lon="11.6273483"><ele>271.0</ele><time>2026-04-05T10:57:49.997Z</time></trkpt><trkpt lat="43.03584" lon="11.627375"><ele>270.3333333333333</ele><time>2026-04-05T10:57:50.997Z</time></trkpt><trkpt lat="43.0356833" lon="11.6274"><ele>269.6666666666667</ele><time>2026-04-05T10:57:51.997Z</time></trkpt><trkpt lat="43.0355333" lon="11.6274233"><ele>269.0</ele><time>2026-04-05T10:57:52.997Z</time></trkpt><trkpt lat="43.0353833" lon="11.6274517"><ele>269.0</ele><time>2026-04-05T10:57:53.997Z</time></trkpt><trkpt lat="43.0352333" lon="11.6274767"><ele>269.0</ele><time>2026-04-05T10:57:54.997Z</time></trkpt><trkpt lat="43.0350783" lon="11.6275067"><ele>269.0</ele><time>2026-04-05T10:57:55.997Z</time></trkpt><trkpt lat="43.0349167" lon="11.6275417"><ele>268.33333333333337</ele><time>2026-04-05T10:57:56.997Z</time></trkpt><trkpt lat="43.0347583" lon="11.6275667"><ele>267.6666666666667</ele><time>2026-04-05T10:57:57.997Z</time></trkpt><trkpt lat="43.0346033" lon="11.627595"><ele>267.0</ele><time>2026-04-05T10:57:58.997Z</time></trkpt><trkpt lat="43.0344567" lon="11.6276217"><ele>267.0</ele><time>2026-04-05T10:57:59.997Z</time></trkpt><trkpt lat="43.0343217" lon="11.6276317"><ele>267.0</ele><time>2026-04-05T10:58:00.997Z</time></trkpt><trkpt lat="43.0341933" lon="11.6276217"><ele>267.0</ele><time>2026-04-05T10:58:01.997Z</time></trkpt><trkpt lat="43.0340683" lon="11.6275883"><ele>267.0</ele><time>2026-04-05T10:58:02.997Z</time></trkpt><trkpt lat="43.0339517" lon="11.627555"><ele>265.5</ele><time>2026-04-05T10:58:03.997Z</time></trkpt><trkpt lat="43.0338283" lon="11.6275117"><ele>264.0</ele><time>2026-04-05T10:58:04.997Z</time></trkpt><trkpt lat="43.0337017" lon="11.6274717"><ele>262.5</ele><time>2026-04-05T10:58:05.997Z</time></trkpt><trkpt lat="43.0335783" lon="11.627435"><ele>261.0</ele><time>2026-04-05T10:58:06.997Z</time></trkpt><trkpt lat="43.03346" lon="11.6273967"><ele>261.0</ele><time>2026-04-05T10:58:07.997Z</time></trkpt><trkpt lat="43.0333333" lon="11.627355"><ele>261.0</ele><time>2026-04-05T10:58:08.997Z</time></trkpt><trkpt lat="43.0332" lon="11.6273183"><ele>261.0</ele><time>2026-04-05T10:58:09.997Z</time></trkpt><trkpt lat="43.0330683" lon="11.62728"><ele>261.0</ele><time>2026-04-05T10:58:10.997Z</time></trkpt><trkpt lat="43.032935" lon="11.6272383"><ele>260.0</ele><time>2026-04-05T10:58:11.997Z</time></trkpt><trkpt lat="43.0327967" lon="11.6271983"><ele>259.0</ele><time>2026-04-05T10:58:12.997Z</time></trkpt><trkpt lat="43.0326633" lon="11.6271567"><ele>258.0</ele><time>2026-04-05T10:58:13.997Z</time></trkpt><trkpt lat="43.0325233" lon="11.62711"><ele>257.0</ele><time>2026-04-05T10:58:14.997Z</time></trkpt><trkpt lat="43.0323867" lon="11.62706"><ele>257.0</ele><time>2026-04-05T10:58:15.997Z</time></trkpt><trkpt lat="43.0322433" lon="11.62701"><ele>257.0</ele><time>2026-04-05T10:58:16.997Z</time></trkpt><trkpt lat="43.0321" lon="11.6269617"><ele>257.0</ele><time>2026-04-05T10:58:17.997Z</time></trkpt><trkpt lat="43.0319667" lon="11.6269183"><ele>257.0</ele><time>2026-04-05T10:58:18.997Z</time></trkpt><trkpt lat="43.0318367" lon="11.62688"><ele>258.25</ele><time>2026-04-05T10:58:19.997Z</time></trkpt><trkpt lat="43.0317017" lon="11.6268317"><ele>259.5</ele><time>2026-04-05T10:58:20.997Z</time></trkpt><trkpt lat="43.0315633" lon="11.626795"><ele>260.75</ele><time>2026-04-05T10:58:21.997Z</time></trkpt><trkpt lat="43.0314283" lon="11.62675"><ele>262.0</ele><time>2026-04-05T10:58:22.997Z</time></trkpt><trkpt lat="43.031295" lon="11.6267067"><ele>262.5</ele><time>2026-04-05T10:58:23.997Z</time></trkpt><trkpt lat="43.0311583" lon="11.62666"><ele>263.0</ele><time>2026-04-05T10:58:24.997Z</time></trkpt><trkpt lat="43.031025" lon="11.626625"><ele>263.5</ele><time>2026-04-05T10:58:25.997Z</time></trkpt><trkpt lat="43.0309" lon="11.626595"><ele>264.0</ele><time>2026-04-05T10:58:26.997Z</time></trkpt><trkpt lat="43.030775" lon="11.6265567"><ele>262.75</ele><time>2026-04-05T10:58:27.997Z</time></trkpt><trkpt lat="43.0306417" lon="11.6265217"><ele>261.5</ele><time>2026-04-05T10:58:28.997Z</time></trkpt><trkpt lat="43.0305067" lon="11.6264867"><ele>260.25</ele><time>2026-04-05T10:58:29.997Z</time></trkpt><trkpt lat="43.0303667" lon="11.626455"><ele>259.0</ele><time>2026-04-05T10:58:30.997Z</time></trkpt><trkpt lat="43.0302333" lon="11.62642"><ele>259.0</ele><time>2026-04-05T10:58:31.997Z</time></trkpt><trkpt lat="43.0300983" lon="11.6263767"><ele>259.0</ele><time>2026-04-05T10:58:32.997Z</time></trkpt><trkpt lat="43.029965" lon="11.6263167"><ele>259.0</ele><time>2026-04-05T10:58:33.997Z</time></trkpt><trkpt lat="43.0298383" lon="11.62624"><ele>259.0</ele><time>2026-04-05T10:58:34.997Z</time></trkpt><trkpt lat="43.02971" lon="11.6261567"><ele>261.0</ele><time>2026-04-05T10:58:35.997Z</time></trkpt><trkpt lat="43.0295883" lon="11.6260883"><ele>263.0</ele><time>2026-04-05T10:58:36.997Z</time></trkpt><trkpt lat="43.02946" lon="11.6260183"><ele>265.0</ele><time>2026-04-05T10:58:37.997Z</time></trkpt><trkpt lat="43.02933" lon="11.625965"><ele>267.0</ele><time>2026-04-05T10:58:38.997Z</time></trkpt><trkpt lat="43.0291983" lon="11.6259117"><ele>265.25</ele><time>2026-04-05T10:58:39.997Z</time></trkpt><trkpt lat="43.0290733" lon="11.62586"><ele>263.5</ele><time>2026-04-05T10:58:40.997Z</time></trkpt><trkpt lat="43.02897" lon="11.6258117"><ele>261.75</ele><time>2026-04-05T10:58:41.997Z</time></trkpt><trkpt lat="43.0288717" lon="11.62574"><ele>260.0</ele><time>2026-04-05T10:58:42.997Z</time></trkpt><trkpt lat="43.0287867" lon="11.62566"><ele>260.0</ele><time>2026-04-05T10:58:43.997Z</time></trkpt><trkpt lat="43.028715" lon="11.62556"><ele>260.0</ele><time>2026-04-05T10:58:44.997Z</time></trkpt><trkpt lat="43.0286467" lon="11.6254567"><ele>260.0</ele><time>2026-04-05T10:58:45.997Z</time></trkpt><trkpt lat="43.0285867" lon="11.6253717"><ele>260.0</ele><time>2026-04-05T10:58:46.997Z</time></trkpt><trkpt lat="43.0285233" lon="11.625295"><ele>260.0</ele><time>2026-04-05T10:58:47.997Z</time></trkpt><trkpt lat="43.0284683" lon="11.6252367"><ele>260.0</ele><time>2026-04-05T10:58:48.997Z</time></trkpt><trkpt lat="43.0284117" lon="11.6251583"><ele>259.6</ele><time>2026-04-05T10:58:49.997Z</time></trkpt><trkpt lat="43.0283517" lon="11.6250633"><ele>259.2</ele><time>2026-04-05T10:58:50.997Z</time></trkpt><trkpt lat="43.0282983" lon="11.62496"><ele>258.8</ele><time>2026-04-05T10:58:51.997Z</time></trkpt><trkpt lat="43.0282467" lon="11.6248383"><ele>258.4</ele><time>2026-04-05T10:58:52.997Z</time></trkpt><trkpt lat="43.0282033" lon="11.62473"><ele>258.0</ele><time>2026-04-05T10:58:53.997Z</time></trkpt><trkpt lat="43.028165" lon="11.62463"><ele>258.0</ele><time>2026-04-05T10:58:54.997Z</time></trkpt><trkpt lat="43.02813" lon="11.6245383"><ele>258.0</ele><time>2026-04-05T10:58:55.997Z</time></trkpt><trkpt lat="43.0280867" lon="11.624385"><ele>258.0</ele><time>2026-04-05T10:58:57.997Z</time></trkpt><trkpt lat="43.0280533" lon="11.6242183"><ele>258.0</ele><time>2026-04-05T10:58:59.997Z</time></trkpt><trkpt lat="43.0280267" lon="11.6241133"><ele>258.0</ele><time>2026-04-05T10:59:00.997Z</time></trkpt><trkpt lat="43.0280067" lon="11.6240083"><ele>258.0</ele><time>2026-04-05T10:59:01.997Z</time></trkpt><trkpt lat="43.028" lon="11.623895"><ele>258.0</ele><time>2026-04-05T10:59:02.997Z</time></trkpt><trkpt lat="43.027995" lon="11.6237617"><ele>258.0</ele><time>2026-04-05T10:59:03.997Z</time></trkpt><trkpt lat="43.0279817" lon="11.623615"><ele>258.0</ele><time>2026-04-05T10:59:04.997Z</time></trkpt><trkpt lat="43.027975" lon="11.6234717"><ele>258.0</ele><time>2026-04-05T10:59:05.997Z</time></trkpt><trkpt lat="43.027985" lon="11.6233167"><ele>258.0</ele><time>2026-04-05T10:59:06.997Z</time></trkpt><trkpt lat="43.0279983" lon="11.6231667"><ele>258.0</ele><time>2026-04-05T10:59:07.997Z</time></trkpt><trkpt lat="43.0280283" lon="11.6230133"><ele>258.0</ele><time>2026-04-05T10:59:08.997Z</time></trkpt><trkpt lat="43.0280667" lon="11.62286"><ele>258.0</ele><time>2026-04-05T10:59:09.997Z</time></trkpt><trkpt lat="43.028105" lon="11.6227083"><ele>259.5</ele><time>2026-04-05T10:59:10.997Z</time></trkpt><trkpt lat="43.0281517" lon="11.6225467"><ele>261.0</ele><time>2026-04-05T10:59:11.997Z</time></trkpt><trkpt lat="43.028195" lon="11.6223917"><ele>262.5</ele><time>2026-04-05T10:59:12.997Z</time></trkpt><trkpt lat="43.0282267" lon="11.62222"><ele>264.0</ele><time>2026-04-05T10:59:13.997Z</time></trkpt><trkpt lat="43.02824" lon="11.6220567"><ele>265.5</ele><time>2026-04-05T10:59:14.997Z</time></trkpt><trkpt lat="43.0282583" lon="11.6218983"><ele>267.0</ele><time>2026-04-05T10:59:15.997Z</time></trkpt><trkpt lat="43.0282833" lon="11.62174"><ele>268.5</ele><time>2026-04-05T10:59:16.997Z</time></trkpt><trkpt lat="43.0283067" lon="11.621585"><ele>270.0</ele><time>2026-04-05T10:59:17.997Z</time></trkpt><trkpt lat="43.0283317" lon="11.6214383"><ele>273.6</ele><time>2026-04-05T10:59:18.997Z</time></trkpt><trkpt lat="43.028355" lon="11.6212967"><ele>277.2</ele><time>2026-04-05T10:59:19.997Z</time></trkpt><trkpt lat="43.0283817" lon="11.62116"><ele>280.8</ele><time>2026-04-05T10:59:20.997Z</time></trkpt><trkpt lat="43.0283967" lon="11.6210317"><ele>284.4</ele><time>2026-04-05T10:59:21.997Z</time></trkpt><trkpt lat="43.0284183" lon="11.6209117"><ele>288.0</ele><time>2026-04-05T10:59:22.997Z</time></trkpt><trkpt lat="43.02844" lon="11.6207917"><ele>289.1666666666667</ele><time>2026-04-05T10:59:23.997Z</time></trkpt><trkpt lat="43.0284567" lon="11.6206883"><ele>290.3333333333333</ele><time>2026-04-05T10:59:24.997Z</time></trkpt><trkpt lat="43.0284667" lon="11.6206"><ele>291.5</ele><time>2026-04-05T10:59:25.997Z</time></trkpt><trkpt lat="43.0284817" lon="11.6205133"><ele>292.66666666666663</ele><time>2026-04-05T10:59:26.997Z</time></trkpt><trkpt lat="43.0285" lon="11.6203617"><ele>293.8333333333333</ele><time>2026-04-05T10:59:28.997Z</time></trkpt><trkpt lat="43.0285167" lon="11.62021"><ele>295.0</ele><time>2026-04-05T10:59:30.997Z</time></trkpt><trkpt lat="43.0285417" lon="11.6200633"><ele>296.0</ele><time>2026-04-05T10:59:32.997Z</time></trkpt><trkpt lat="43.0285533" lon="11.6199283"><ele>297.0</ele><time>2026-04-05T10:59:34.997Z</time></trkpt><trkpt lat="43.0285583" lon="11.619815"><ele>298.0</ele><time>2026-04-05T10:59:36.997Z</time></trkpt><trkpt lat="43.0285667" lon="11.6196983"><ele>299.0</ele><time>2026-04-05T10:59:39.997Z</time></trkpt><trkpt lat="43.028575" lon="11.6195967"><ele>300.0</ele><time>2026-04-05T10:59:41.997Z</time></trkpt><trkpt lat="43.0285733" lon="11.6194867"><ele>301.0</ele><time>2026-04-05T10:59:43.997Z</time></trkpt><trkpt lat="43.0285633" lon="11.619385"><ele>307.0</ele><time>2026-04-05T10:59:45.997Z</time></trkpt><trkpt lat="43.0285283" lon="11.6193"><ele>307.0</ele><time>2026-04-05T10:59:48.997Z</time></trkpt><trkpt lat="43.0284633" lon="11.6192617"><ele>307.0</ele><time>2026-04-05T11:00:20.997Z</time></trkpt><trkpt lat="43.0283917" lon="11.6192733"><ele>307.0</ele><time>2026-04-05T11:00:22.997Z</time></trkpt><trkpt lat="43.0283133" lon="11.6192617"><ele>307.0</ele><time>2026-04-05T11:00:25.997Z</time></trkpt><trkpt lat="43.0282367" lon="11.6192533"><ele>306.0</ele><time>2026-04-05T11:00:29.997Z</time></trkpt></trkseg></trk></gpx>